<?xml version="1.0" encoding="UTF-8"?>
<gpx xmlns="http://www.topografix.com/GPX/1/1"
     creator="GpsDump 4.79"
     version="1.1"
     xmlns:xsi="http://www.w3.org/2001/XMLSchema-instance"
     xsi:schemaLocation="http://www.topografix.com/GPX/1/1 http://www.topografix.com/GPX/1/1/gpx.xsd">
  <metadata>
    <link href="http://www.gethome.no/stein.sorensen/">
      <text>GPS dump for www.flightlog.org</text>
    </link>
    <time>2014-07-07T16:59:53Z</time>
    <bounds minlat="40.421583" minlon="-5.302317" maxlat="40.905033" maxlon="-4.125517"/>
  </metadata>
  <trk>
    <name>Track 001</name>
    <trkseg>
      <trkpt lat="40.421583" lon="-5.302050">
        <ele>1928.0</ele>
        <time>2014-06-30T11:23:49Z</time>
      </trkpt>
      <trkpt lat="40.421617" lon="-5.302083">
        <ele>1928.0</ele>
        <time>2014-06-30T11:23:50Z</time>
      </trkpt>
      <trkpt lat="40.421633" lon="-5.302117">
        <ele>1928.0</ele>
        <time>2014-06-30T11:23:51Z</time>
      </trkpt>
      <trkpt lat="40.421667" lon="-5.302133">
        <ele>1929.0</ele>
        <time>2014-06-30T11:23:52Z</time>
      </trkpt>
      <trkpt lat="40.421700" lon="-5.302200">
        <ele>1929.0</ele>
        <time>2014-06-30T11:23:53Z</time>
      </trkpt>
      <trkpt lat="40.421733" lon="-5.302250">
        <ele>1929.0</ele>
        <time>2014-06-30T11:23:54Z</time>
      </trkpt>
      <trkpt lat="40.421767" lon="-5.302300">
        <ele>1930.0</ele>
        <time>2014-06-30T11:23:55Z</time>
      </trkpt>
      <trkpt lat="40.421800" lon="-5.302317">
        <ele>1931.0</ele>
        <time>2014-06-30T11:23:56Z</time>
      </trkpt>
      <trkpt lat="40.421833" lon="-5.302283">
        <ele>1931.0</ele>
        <time>2014-06-30T11:23:57Z</time>
      </trkpt>
      <trkpt lat="40.421883" lon="-5.302233">
        <ele>1931.0</ele>
        <time>2014-06-30T11:23:58Z</time>
      </trkpt>
      <trkpt lat="40.421933" lon="-5.302200">
        <ele>1931.0</ele>
        <time>2014-06-30T11:23:59Z</time>
      </trkpt>
      <trkpt lat="40.422017" lon="-5.302200">
        <ele>1931.0</ele>
        <time>2014-06-30T11:24:00Z</time>
      </trkpt>
      <trkpt lat="40.422083" lon="-5.302233">
        <ele>1931.0</ele>
        <time>2014-06-30T11:24:01Z</time>
      </trkpt>
      <trkpt lat="40.422133" lon="-5.302250">
        <ele>1932.0</ele>
        <time>2014-06-30T11:24:02Z</time>
      </trkpt>
      <trkpt lat="40.422167" lon="-5.302267">
        <ele>1933.0</ele>
        <time>2014-06-30T11:24:03Z</time>
      </trkpt>
      <trkpt lat="40.422200" lon="-5.302300">
        <ele>1934.0</ele>
        <time>2014-06-30T11:24:04Z</time>
      </trkpt>
      <trkpt lat="40.422233" lon="-5.302317">
        <ele>1934.0</ele>
        <time>2014-06-30T11:24:05Z</time>
      </trkpt>
      <trkpt lat="40.422267" lon="-5.302317">
        <ele>1934.0</ele>
        <time>2014-06-30T11:24:06Z</time>
      </trkpt>
      <trkpt lat="40.422333" lon="-5.302300">
        <ele>1934.0</ele>
        <time>2014-06-30T11:24:07Z</time>
      </trkpt>
      <trkpt lat="40.422383" lon="-5.302267">
        <ele>1935.0</ele>
        <time>2014-06-30T11:24:08Z</time>
      </trkpt>
      <trkpt lat="40.422433" lon="-5.302233">
        <ele>1935.0</ele>
        <time>2014-06-30T11:24:09Z</time>
      </trkpt>
      <trkpt lat="40.422500" lon="-5.302217">
        <ele>1935.0</ele>
        <time>2014-06-30T11:24:10Z</time>
      </trkpt>
      <trkpt lat="40.422550" lon="-5.302233">
        <ele>1934.0</ele>
        <time>2014-06-30T11:24:11Z</time>
      </trkpt>
      <trkpt lat="40.422600" lon="-5.302267">
        <ele>1933.0</ele>
        <time>2014-06-30T11:24:12Z</time>
      </trkpt>
      <trkpt lat="40.422667" lon="-5.302267">
        <ele>1933.0</ele>
        <time>2014-06-30T11:24:13Z</time>
      </trkpt>
      <trkpt lat="40.422733" lon="-5.302283">
        <ele>1933.0</ele>
        <time>2014-06-30T11:24:14Z</time>
      </trkpt>
      <trkpt lat="40.422800" lon="-5.302267">
        <ele>1933.0</ele>
        <time>2014-06-30T11:24:15Z</time>
      </trkpt>
      <trkpt lat="40.422850" lon="-5.302267">
        <ele>1933.0</ele>
        <time>2014-06-30T11:24:16Z</time>
      </trkpt>
      <trkpt lat="40.422917" lon="-5.302250">
        <ele>1933.0</ele>
        <time>2014-06-30T11:24:17Z</time>
      </trkpt>
      <trkpt lat="40.422983" lon="-5.302233">
        <ele>1933.0</ele>
        <time>2014-06-30T11:24:18Z</time>
      </trkpt>
      <trkpt lat="40.423033" lon="-5.302200">
        <ele>1934.0</ele>
        <time>2014-06-30T11:24:19Z</time>
      </trkpt>
      <trkpt lat="40.423083" lon="-5.302167">
        <ele>1934.0</ele>
        <time>2014-06-30T11:24:20Z</time>
      </trkpt>
      <trkpt lat="40.423133" lon="-5.302117">
        <ele>1934.0</ele>
        <time>2014-06-30T11:24:21Z</time>
      </trkpt>
      <trkpt lat="40.423200" lon="-5.302067">
        <ele>1934.0</ele>
        <time>2014-06-30T11:24:22Z</time>
      </trkpt>
      <trkpt lat="40.423267" lon="-5.302033">
        <ele>1934.0</ele>
        <time>2014-06-30T11:24:23Z</time>
      </trkpt>
      <trkpt lat="40.423350" lon="-5.302033">
        <ele>1934.0</ele>
        <time>2014-06-30T11:24:24Z</time>
      </trkpt>
      <trkpt lat="40.423433" lon="-5.302017">
        <ele>1934.0</ele>
        <time>2014-06-30T11:24:25Z</time>
      </trkpt>
      <trkpt lat="40.423500" lon="-5.301983">
        <ele>1934.0</ele>
        <time>2014-06-30T11:24:26Z</time>
      </trkpt>
      <trkpt lat="40.423567" lon="-5.301917">
        <ele>1935.0</ele>
        <time>2014-06-30T11:24:27Z</time>
      </trkpt>
      <trkpt lat="40.423633" lon="-5.301850">
        <ele>1935.0</ele>
        <time>2014-06-30T11:24:28Z</time>
      </trkpt>
      <trkpt lat="40.423717" lon="-5.301800">
        <ele>1935.0</ele>
        <time>2014-06-30T11:24:29Z</time>
      </trkpt>
      <trkpt lat="40.423783" lon="-5.301783">
        <ele>1934.0</ele>
        <time>2014-06-30T11:24:30Z</time>
      </trkpt>
      <trkpt lat="40.423867" lon="-5.301767">
        <ele>1934.0</ele>
        <time>2014-06-30T11:24:31Z</time>
      </trkpt>
      <trkpt lat="40.423933" lon="-5.301767">
        <ele>1934.0</ele>
        <time>2014-06-30T11:24:32Z</time>
      </trkpt>
      <trkpt lat="40.424000" lon="-5.301733">
        <ele>1934.0</ele>
        <time>2014-06-30T11:24:33Z</time>
      </trkpt>
      <trkpt lat="40.424067" lon="-5.301700">
        <ele>1934.0</ele>
        <time>2014-06-30T11:24:34Z</time>
      </trkpt>
      <trkpt lat="40.424133" lon="-5.301633">
        <ele>1933.0</ele>
        <time>2014-06-30T11:24:35Z</time>
      </trkpt>
      <trkpt lat="40.424217" lon="-5.301583">
        <ele>1933.0</ele>
        <time>2014-06-30T11:24:36Z</time>
      </trkpt>
      <trkpt lat="40.424267" lon="-5.301533">
        <ele>1933.0</ele>
        <time>2014-06-30T11:24:37Z</time>
      </trkpt>
      <trkpt lat="40.424333" lon="-5.301500">
        <ele>1933.0</ele>
        <time>2014-06-30T11:24:38Z</time>
      </trkpt>
      <trkpt lat="40.424417" lon="-5.301450">
        <ele>1932.0</ele>
        <time>2014-06-30T11:24:39Z</time>
      </trkpt>
      <trkpt lat="40.424500" lon="-5.301367">
        <ele>1932.0</ele>
        <time>2014-06-30T11:24:40Z</time>
      </trkpt>
      <trkpt lat="40.424583" lon="-5.301267">
        <ele>1932.0</ele>
        <time>2014-06-30T11:24:41Z</time>
      </trkpt>
      <trkpt lat="40.424650" lon="-5.301183">
        <ele>1931.0</ele>
        <time>2014-06-30T11:24:42Z</time>
      </trkpt>
      <trkpt lat="40.424733" lon="-5.301117">
        <ele>1931.0</ele>
        <time>2014-06-30T11:24:43Z</time>
      </trkpt>
      <trkpt lat="40.424800" lon="-5.301067">
        <ele>1931.0</ele>
        <time>2014-06-30T11:24:44Z</time>
      </trkpt>
      <trkpt lat="40.424850" lon="-5.301017">
        <ele>1930.0</ele>
        <time>2014-06-30T11:24:45Z</time>
      </trkpt>
      <trkpt lat="40.424917" lon="-5.300933">
        <ele>1929.0</ele>
        <time>2014-06-30T11:24:46Z</time>
      </trkpt>
      <trkpt lat="40.424983" lon="-5.300833">
        <ele>1928.0</ele>
        <time>2014-06-30T11:24:47Z</time>
      </trkpt>
      <trkpt lat="40.425083" lon="-5.300733">
        <ele>1926.0</ele>
        <time>2014-06-30T11:24:48Z</time>
      </trkpt>
      <trkpt lat="40.425167" lon="-5.300667">
        <ele>1926.0</ele>
        <time>2014-06-30T11:24:49Z</time>
      </trkpt>
      <trkpt lat="40.425267" lon="-5.300617">
        <ele>1926.0</ele>
        <time>2014-06-30T11:24:50Z</time>
      </trkpt>
      <trkpt lat="40.425350" lon="-5.300583">
        <ele>1927.0</ele>
        <time>2014-06-30T11:24:51Z</time>
      </trkpt>
      <trkpt lat="40.425417" lon="-5.300533">
        <ele>1927.0</ele>
        <time>2014-06-30T11:24:52Z</time>
      </trkpt>
      <trkpt lat="40.425483" lon="-5.300483">
        <ele>1926.0</ele>
        <time>2014-06-30T11:24:53Z</time>
      </trkpt>
      <trkpt lat="40.425550" lon="-5.300417">
        <ele>1926.0</ele>
        <time>2014-06-30T11:24:54Z</time>
      </trkpt>
      <trkpt lat="40.425617" lon="-5.300367">
        <ele>1925.0</ele>
        <time>2014-06-30T11:24:55Z</time>
      </trkpt>
      <trkpt lat="40.425683" lon="-5.300333">
        <ele>1925.0</ele>
        <time>2014-06-30T11:24:56Z</time>
      </trkpt>
      <trkpt lat="40.425750" lon="-5.300283">
        <ele>1924.0</ele>
        <time>2014-06-30T11:24:57Z</time>
      </trkpt>
      <trkpt lat="40.425833" lon="-5.300233">
        <ele>1924.0</ele>
        <time>2014-06-30T11:24:58Z</time>
      </trkpt>
      <trkpt lat="40.425917" lon="-5.300183">
        <ele>1923.0</ele>
        <time>2014-06-30T11:24:59Z</time>
      </trkpt>
      <trkpt lat="40.426000" lon="-5.300133">
        <ele>1922.0</ele>
        <time>2014-06-30T11:25:00Z</time>
      </trkpt>
      <trkpt lat="40.426067" lon="-5.300083">
        <ele>1921.0</ele>
        <time>2014-06-30T11:25:01Z</time>
      </trkpt>
      <trkpt lat="40.426167" lon="-5.300033">
        <ele>1920.0</ele>
        <time>2014-06-30T11:25:02Z</time>
      </trkpt>
      <trkpt lat="40.426267" lon="-5.299967">
        <ele>1918.0</ele>
        <time>2014-06-30T11:25:03Z</time>
      </trkpt>
      <trkpt lat="40.426367" lon="-5.299917">
        <ele>1917.0</ele>
        <time>2014-06-30T11:25:04Z</time>
      </trkpt>
      <trkpt lat="40.426450" lon="-5.299867">
        <ele>1916.0</ele>
        <time>2014-06-30T11:25:05Z</time>
      </trkpt>
      <trkpt lat="40.426533" lon="-5.299833">
        <ele>1915.0</ele>
        <time>2014-06-30T11:25:06Z</time>
      </trkpt>
      <trkpt lat="40.426600" lon="-5.299783">
        <ele>1912.0</ele>
        <time>2014-06-30T11:25:07Z</time>
      </trkpt>
      <trkpt lat="40.426700" lon="-5.299733">
        <ele>1906.0</ele>
        <time>2014-06-30T11:25:08Z</time>
      </trkpt>
      <trkpt lat="40.426800" lon="-5.299667">
        <ele>1902.0</ele>
        <time>2014-06-30T11:25:09Z</time>
      </trkpt>
      <trkpt lat="40.426917" lon="-5.299600">
        <ele>1899.0</ele>
        <time>2014-06-30T11:25:10Z</time>
      </trkpt>
      <trkpt lat="40.427033" lon="-5.299550">
        <ele>1897.0</ele>
        <time>2014-06-30T11:25:11Z</time>
      </trkpt>
      <trkpt lat="40.427117" lon="-5.299500">
        <ele>1896.0</ele>
        <time>2014-06-30T11:25:12Z</time>
      </trkpt>
      <trkpt lat="40.427200" lon="-5.299450">
        <ele>1895.0</ele>
        <time>2014-06-30T11:25:13Z</time>
      </trkpt>
      <trkpt lat="40.427267" lon="-5.299400">
        <ele>1893.0</ele>
        <time>2014-06-30T11:25:14Z</time>
      </trkpt>
      <trkpt lat="40.427333" lon="-5.299350">
        <ele>1896.0</ele>
        <time>2014-06-30T11:25:15Z</time>
      </trkpt>
      <trkpt lat="40.427433" lon="-5.299317">
        <ele>1894.0</ele>
        <time>2014-06-30T11:25:16Z</time>
      </trkpt>
      <trkpt lat="40.427550" lon="-5.299267">
        <ele>1891.0</ele>
        <time>2014-06-30T11:25:17Z</time>
      </trkpt>
      <trkpt lat="40.427667" lon="-5.299233">
        <ele>1890.0</ele>
        <time>2014-06-30T11:25:18Z</time>
      </trkpt>
      <trkpt lat="40.427767" lon="-5.299200">
        <ele>1890.0</ele>
        <time>2014-06-30T11:25:19Z</time>
      </trkpt>
      <trkpt lat="40.427867" lon="-5.299150">
        <ele>1891.0</ele>
        <time>2014-06-30T11:25:20Z</time>
      </trkpt>
      <trkpt lat="40.427950" lon="-5.299100">
        <ele>1891.0</ele>
        <time>2014-06-30T11:25:21Z</time>
      </trkpt>
      <trkpt lat="40.428033" lon="-5.299050">
        <ele>1892.0</ele>
        <time>2014-06-30T11:25:22Z</time>
      </trkpt>
      <trkpt lat="40.428117" lon="-5.298983">
        <ele>1891.0</ele>
        <time>2014-06-30T11:25:23Z</time>
      </trkpt>
      <trkpt lat="40.428183" lon="-5.298933">
        <ele>1890.0</ele>
        <time>2014-06-30T11:25:24Z</time>
      </trkpt>
      <trkpt lat="40.428283" lon="-5.298867">
        <ele>1889.0</ele>
        <time>2014-06-30T11:25:25Z</time>
      </trkpt>
      <trkpt lat="40.428367" lon="-5.298783">
        <ele>1888.0</ele>
        <time>2014-06-30T11:25:26Z</time>
      </trkpt>
      <trkpt lat="40.428467" lon="-5.298717">
        <ele>1887.0</ele>
        <time>2014-06-30T11:25:27Z</time>
      </trkpt>
      <trkpt lat="40.428567" lon="-5.298650">
        <ele>1886.0</ele>
        <time>2014-06-30T11:25:28Z</time>
      </trkpt>
      <trkpt lat="40.428667" lon="-5.298583">
        <ele>1885.0</ele>
        <time>2014-06-30T11:25:29Z</time>
      </trkpt>
      <trkpt lat="40.428750" lon="-5.298517">
        <ele>1885.0</ele>
        <time>2014-06-30T11:25:30Z</time>
      </trkpt>
      <trkpt lat="40.428833" lon="-5.298467">
        <ele>1884.0</ele>
        <time>2014-06-30T11:25:31Z</time>
      </trkpt>
      <trkpt lat="40.428933" lon="-5.298400">
        <ele>1885.0</ele>
        <time>2014-06-30T11:25:32Z</time>
      </trkpt>
      <trkpt lat="40.429033" lon="-5.298350">
        <ele>1886.0</ele>
        <time>2014-06-30T11:25:33Z</time>
      </trkpt>
      <trkpt lat="40.429117" lon="-5.298300">
        <ele>1887.0</ele>
        <time>2014-06-30T11:25:34Z</time>
      </trkpt>
      <trkpt lat="40.429200" lon="-5.298267">
        <ele>1889.0</ele>
        <time>2014-06-30T11:25:35Z</time>
      </trkpt>
      <trkpt lat="40.429283" lon="-5.298200">
        <ele>1891.0</ele>
        <time>2014-06-30T11:25:36Z</time>
      </trkpt>
      <trkpt lat="40.429350" lon="-5.298133">
        <ele>1893.0</ele>
        <time>2014-06-30T11:25:37Z</time>
      </trkpt>
      <trkpt lat="40.429417" lon="-5.298050">
        <ele>1892.0</ele>
        <time>2014-06-30T11:25:38Z</time>
      </trkpt>
      <trkpt lat="40.429467" lon="-5.297950">
        <ele>1892.0</ele>
        <time>2014-06-30T11:25:39Z</time>
      </trkpt>
      <trkpt lat="40.429517" lon="-5.297833">
        <ele>1892.0</ele>
        <time>2014-06-30T11:25:40Z</time>
      </trkpt>
      <trkpt lat="40.429550" lon="-5.297700">
        <ele>1892.0</ele>
        <time>2014-06-30T11:25:41Z</time>
      </trkpt>
      <trkpt lat="40.429600" lon="-5.297567">
        <ele>1892.0</ele>
        <time>2014-06-30T11:25:42Z</time>
      </trkpt>
      <trkpt lat="40.429633" lon="-5.297417">
        <ele>1894.0</ele>
        <time>2014-06-30T11:25:43Z</time>
      </trkpt>
      <trkpt lat="40.429683" lon="-5.297300">
        <ele>1897.0</ele>
        <time>2014-06-30T11:25:44Z</time>
      </trkpt>
      <trkpt lat="40.429733" lon="-5.297183">
        <ele>1898.0</ele>
        <time>2014-06-30T11:25:45Z</time>
      </trkpt>
      <trkpt lat="40.429800" lon="-5.297117">
        <ele>1897.0</ele>
        <time>2014-06-30T11:25:46Z</time>
      </trkpt>
      <trkpt lat="40.429883" lon="-5.297050">
        <ele>1897.0</ele>
        <time>2014-06-30T11:25:47Z</time>
      </trkpt>
      <trkpt lat="40.429950" lon="-5.297017">
        <ele>1898.0</ele>
        <time>2014-06-30T11:25:48Z</time>
      </trkpt>
      <trkpt lat="40.430033" lon="-5.296983">
        <ele>1898.0</ele>
        <time>2014-06-30T11:25:49Z</time>
      </trkpt>
      <trkpt lat="40.430083" lon="-5.297000">
        <ele>1898.0</ele>
        <time>2014-06-30T11:25:50Z</time>
      </trkpt>
      <trkpt lat="40.430117" lon="-5.297017">
        <ele>1898.0</ele>
        <time>2014-06-30T11:25:51Z</time>
      </trkpt>
      <trkpt lat="40.430133" lon="-5.297067">
        <ele>1896.0</ele>
        <time>2014-06-30T11:25:52Z</time>
      </trkpt>
      <trkpt lat="40.430133" lon="-5.297133">
        <ele>1892.0</ele>
        <time>2014-06-30T11:25:53Z</time>
      </trkpt>
      <trkpt lat="40.430117" lon="-5.297200">
        <ele>1890.0</ele>
        <time>2014-06-30T11:25:54Z</time>
      </trkpt>
      <trkpt lat="40.430083" lon="-5.297267">
        <ele>1888.0</ele>
        <time>2014-06-30T11:25:55Z</time>
      </trkpt>
      <trkpt lat="40.430033" lon="-5.297333">
        <ele>1886.0</ele>
        <time>2014-06-30T11:25:56Z</time>
      </trkpt>
      <trkpt lat="40.429983" lon="-5.297400">
        <ele>1884.0</ele>
        <time>2014-06-30T11:25:57Z</time>
      </trkpt>
      <trkpt lat="40.429883" lon="-5.297467">
        <ele>1887.0</ele>
        <time>2014-06-30T11:25:58Z</time>
      </trkpt>
      <trkpt lat="40.429817" lon="-5.297533">
        <ele>1887.0</ele>
        <time>2014-06-30T11:25:59Z</time>
      </trkpt>
      <trkpt lat="40.429767" lon="-5.297600">
        <ele>1887.0</ele>
        <time>2014-06-30T11:26:00Z</time>
      </trkpt>
      <trkpt lat="40.429717" lon="-5.297650">
        <ele>1887.0</ele>
        <time>2014-06-30T11:26:01Z</time>
      </trkpt>
      <trkpt lat="40.429667" lon="-5.297700">
        <ele>1887.0</ele>
        <time>2014-06-30T11:26:02Z</time>
      </trkpt>
      <trkpt lat="40.429617" lon="-5.297733">
        <ele>1888.0</ele>
        <time>2014-06-30T11:26:03Z</time>
      </trkpt>
      <trkpt lat="40.429550" lon="-5.297733">
        <ele>1889.0</ele>
        <time>2014-06-30T11:26:04Z</time>
      </trkpt>
      <trkpt lat="40.429500" lon="-5.297717">
        <ele>1889.0</ele>
        <time>2014-06-30T11:26:05Z</time>
      </trkpt>
      <trkpt lat="40.429417" lon="-5.297700">
        <ele>1889.0</ele>
        <time>2014-06-30T11:26:06Z</time>
      </trkpt>
      <trkpt lat="40.429333" lon="-5.297650">
        <ele>1890.0</ele>
        <time>2014-06-30T11:26:07Z</time>
      </trkpt>
      <trkpt lat="40.429267" lon="-5.297583">
        <ele>1890.0</ele>
        <time>2014-06-30T11:26:08Z</time>
      </trkpt>
      <trkpt lat="40.429200" lon="-5.297483">
        <ele>1889.0</ele>
        <time>2014-06-30T11:26:09Z</time>
      </trkpt>
      <trkpt lat="40.429150" lon="-5.297367">
        <ele>1889.0</ele>
        <time>2014-06-30T11:26:10Z</time>
      </trkpt>
      <trkpt lat="40.429117" lon="-5.297233">
        <ele>1888.0</ele>
        <time>2014-06-30T11:26:11Z</time>
      </trkpt>
      <trkpt lat="40.429067" lon="-5.297083">
        <ele>1888.0</ele>
        <time>2014-06-30T11:26:12Z</time>
      </trkpt>
      <trkpt lat="40.429033" lon="-5.296950">
        <ele>1888.0</ele>
        <time>2014-06-30T11:26:13Z</time>
      </trkpt>
      <trkpt lat="40.429033" lon="-5.296783">
        <ele>1888.0</ele>
        <time>2014-06-30T11:26:14Z</time>
      </trkpt>
      <trkpt lat="40.429033" lon="-5.296633">
        <ele>1889.0</ele>
        <time>2014-06-30T11:26:15Z</time>
      </trkpt>
      <trkpt lat="40.429050" lon="-5.296500">
        <ele>1890.0</ele>
        <time>2014-06-30T11:26:16Z</time>
      </trkpt>
      <trkpt lat="40.429067" lon="-5.296367">
        <ele>1890.0</ele>
        <time>2014-06-30T11:26:17Z</time>
      </trkpt>
      <trkpt lat="40.429067" lon="-5.296233">
        <ele>1890.0</ele>
        <time>2014-06-30T11:26:18Z</time>
      </trkpt>
      <trkpt lat="40.429100" lon="-5.296100">
        <ele>1889.0</ele>
        <time>2014-06-30T11:26:19Z</time>
      </trkpt>
      <trkpt lat="40.429133" lon="-5.295950">
        <ele>1889.0</ele>
        <time>2014-06-30T11:26:20Z</time>
      </trkpt>
      <trkpt lat="40.429167" lon="-5.295817">
        <ele>1889.0</ele>
        <time>2014-06-30T11:26:21Z</time>
      </trkpt>
      <trkpt lat="40.429200" lon="-5.295700">
        <ele>1889.0</ele>
        <time>2014-06-30T11:26:22Z</time>
      </trkpt>
      <trkpt lat="40.429233" lon="-5.295567">
        <ele>1889.0</ele>
        <time>2014-06-30T11:26:23Z</time>
      </trkpt>
      <trkpt lat="40.429267" lon="-5.295450">
        <ele>1888.0</ele>
        <time>2014-06-30T11:26:24Z</time>
      </trkpt>
      <trkpt lat="40.429300" lon="-5.295333">
        <ele>1887.0</ele>
        <time>2014-06-30T11:26:25Z</time>
      </trkpt>
      <trkpt lat="40.429333" lon="-5.295200">
        <ele>1886.0</ele>
        <time>2014-06-30T11:26:26Z</time>
      </trkpt>
      <trkpt lat="40.429400" lon="-5.295100">
        <ele>1886.0</ele>
        <time>2014-06-30T11:26:27Z</time>
      </trkpt>
      <trkpt lat="40.429467" lon="-5.295000">
        <ele>1885.0</ele>
        <time>2014-06-30T11:26:28Z</time>
      </trkpt>
      <trkpt lat="40.429550" lon="-5.294900">
        <ele>1886.0</ele>
        <time>2014-06-30T11:26:29Z</time>
      </trkpt>
      <trkpt lat="40.429617" lon="-5.294817">
        <ele>1888.0</ele>
        <time>2014-06-30T11:26:30Z</time>
      </trkpt>
      <trkpt lat="40.429683" lon="-5.294750">
        <ele>1889.0</ele>
        <time>2014-06-30T11:26:31Z</time>
      </trkpt>
      <trkpt lat="40.429717" lon="-5.294683">
        <ele>1890.0</ele>
        <time>2014-06-30T11:26:32Z</time>
      </trkpt>
      <trkpt lat="40.429767" lon="-5.294633">
        <ele>1890.0</ele>
        <time>2014-06-30T11:26:33Z</time>
      </trkpt>
      <trkpt lat="40.429800" lon="-5.294600">
        <ele>1890.0</ele>
        <time>2014-06-30T11:26:34Z</time>
      </trkpt>
      <trkpt lat="40.429850" lon="-5.294583">
        <ele>1891.0</ele>
        <time>2014-06-30T11:26:35Z</time>
      </trkpt>
      <trkpt lat="40.429883" lon="-5.294600">
        <ele>1892.0</ele>
        <time>2014-06-30T11:26:36Z</time>
      </trkpt>
      <trkpt lat="40.429883" lon="-5.294667">
        <ele>1893.0</ele>
        <time>2014-06-30T11:26:37Z</time>
      </trkpt>
      <trkpt lat="40.429867" lon="-5.294733">
        <ele>1893.0</ele>
        <time>2014-06-30T11:26:38Z</time>
      </trkpt>
      <trkpt lat="40.429800" lon="-5.294817">
        <ele>1893.0</ele>
        <time>2014-06-30T11:26:39Z</time>
      </trkpt>
      <trkpt lat="40.429750" lon="-5.294883">
        <ele>1894.0</ele>
        <time>2014-06-30T11:26:40Z</time>
      </trkpt>
      <trkpt lat="40.429700" lon="-5.294950">
        <ele>1894.0</ele>
        <time>2014-06-30T11:26:41Z</time>
      </trkpt>
      <trkpt lat="40.429667" lon="-5.295000">
        <ele>1895.0</ele>
        <time>2014-06-30T11:26:42Z</time>
      </trkpt>
      <trkpt lat="40.429633" lon="-5.295050">
        <ele>1895.0</ele>
        <time>2014-06-30T11:26:43Z</time>
      </trkpt>
      <trkpt lat="40.429617" lon="-5.295100">
        <ele>1894.0</ele>
        <time>2014-06-30T11:26:44Z</time>
      </trkpt>
      <trkpt lat="40.429567" lon="-5.295167">
        <ele>1894.0</ele>
        <time>2014-06-30T11:26:45Z</time>
      </trkpt>
      <trkpt lat="40.429500" lon="-5.295200">
        <ele>1893.0</ele>
        <time>2014-06-30T11:26:46Z</time>
      </trkpt>
      <trkpt lat="40.429417" lon="-5.295200">
        <ele>1893.0</ele>
        <time>2014-06-30T11:26:47Z</time>
      </trkpt>
      <trkpt lat="40.429300" lon="-5.295150">
        <ele>1892.0</ele>
        <time>2014-06-30T11:26:48Z</time>
      </trkpt>
      <trkpt lat="40.429217" lon="-5.295033">
        <ele>1889.0</ele>
        <time>2014-06-30T11:26:49Z</time>
      </trkpt>
      <trkpt lat="40.429183" lon="-5.294900">
        <ele>1887.0</ele>
        <time>2014-06-30T11:26:50Z</time>
      </trkpt>
      <trkpt lat="40.429217" lon="-5.294750">
        <ele>1883.0</ele>
        <time>2014-06-30T11:26:51Z</time>
      </trkpt>
      <trkpt lat="40.429283" lon="-5.294633">
        <ele>1883.0</ele>
        <time>2014-06-30T11:26:52Z</time>
      </trkpt>
      <trkpt lat="40.429367" lon="-5.294517">
        <ele>1882.0</ele>
        <time>2014-06-30T11:26:53Z</time>
      </trkpt>
      <trkpt lat="40.429417" lon="-5.294400">
        <ele>1883.0</ele>
        <time>2014-06-30T11:26:54Z</time>
      </trkpt>
      <trkpt lat="40.429433" lon="-5.294300">
        <ele>1885.0</ele>
        <time>2014-06-30T11:26:55Z</time>
      </trkpt>
      <trkpt lat="40.429450" lon="-5.294200">
        <ele>1885.0</ele>
        <time>2014-06-30T11:26:56Z</time>
      </trkpt>
      <trkpt lat="40.429500" lon="-5.294100">
        <ele>1886.0</ele>
        <time>2014-06-30T11:26:57Z</time>
      </trkpt>
      <trkpt lat="40.429550" lon="-5.294017">
        <ele>1886.0</ele>
        <time>2014-06-30T11:26:58Z</time>
      </trkpt>
      <trkpt lat="40.429617" lon="-5.293950">
        <ele>1886.0</ele>
        <time>2014-06-30T11:26:59Z</time>
      </trkpt>
      <trkpt lat="40.429667" lon="-5.293867">
        <ele>1886.0</ele>
        <time>2014-06-30T11:27:00Z</time>
      </trkpt>
      <trkpt lat="40.429700" lon="-5.293783">
        <ele>1887.0</ele>
        <time>2014-06-30T11:27:01Z</time>
      </trkpt>
      <trkpt lat="40.429767" lon="-5.293700">
        <ele>1887.0</ele>
        <time>2014-06-30T11:27:02Z</time>
      </trkpt>
      <trkpt lat="40.429833" lon="-5.293617">
        <ele>1888.0</ele>
        <time>2014-06-30T11:27:03Z</time>
      </trkpt>
      <trkpt lat="40.429883" lon="-5.293567">
        <ele>1889.0</ele>
        <time>2014-06-30T11:27:04Z</time>
      </trkpt>
      <trkpt lat="40.429950" lon="-5.293533">
        <ele>1890.0</ele>
        <time>2014-06-30T11:27:05Z</time>
      </trkpt>
      <trkpt lat="40.430000" lon="-5.293517">
        <ele>1892.0</ele>
        <time>2014-06-30T11:27:06Z</time>
      </trkpt>
      <trkpt lat="40.430017" lon="-5.293483">
        <ele>1893.0</ele>
        <time>2014-06-30T11:27:07Z</time>
      </trkpt>
      <trkpt lat="40.430050" lon="-5.293467">
        <ele>1893.0</ele>
        <time>2014-06-30T11:27:08Z</time>
      </trkpt>
      <trkpt lat="40.430100" lon="-5.293467">
        <ele>1889.0</ele>
        <time>2014-06-30T11:27:09Z</time>
      </trkpt>
      <trkpt lat="40.430150" lon="-5.293500">
        <ele>1887.0</ele>
        <time>2014-06-30T11:27:10Z</time>
      </trkpt>
      <trkpt lat="40.430183" lon="-5.293600">
        <ele>1886.0</ele>
        <time>2014-06-30T11:27:11Z</time>
      </trkpt>
      <trkpt lat="40.430183" lon="-5.293700">
        <ele>1886.0</ele>
        <time>2014-06-30T11:27:12Z</time>
      </trkpt>
      <trkpt lat="40.430183" lon="-5.293800">
        <ele>1886.0</ele>
        <time>2014-06-30T11:27:13Z</time>
      </trkpt>
      <trkpt lat="40.430200" lon="-5.293883">
        <ele>1887.0</ele>
        <time>2014-06-30T11:27:14Z</time>
      </trkpt>
      <trkpt lat="40.430217" lon="-5.293967">
        <ele>1887.0</ele>
        <time>2014-06-30T11:27:15Z</time>
      </trkpt>
      <trkpt lat="40.430233" lon="-5.294067">
        <ele>1887.0</ele>
        <time>2014-06-30T11:27:16Z</time>
      </trkpt>
      <trkpt lat="40.430250" lon="-5.294183">
        <ele>1887.0</ele>
        <time>2014-06-30T11:27:17Z</time>
      </trkpt>
      <trkpt lat="40.430267" lon="-5.294317">
        <ele>1887.0</ele>
        <time>2014-06-30T11:27:18Z</time>
      </trkpt>
      <trkpt lat="40.430283" lon="-5.294433">
        <ele>1889.0</ele>
        <time>2014-06-30T11:27:19Z</time>
      </trkpt>
      <trkpt lat="40.430283" lon="-5.294500">
        <ele>1891.0</ele>
        <time>2014-06-30T11:27:20Z</time>
      </trkpt>
      <trkpt lat="40.430317" lon="-5.294583">
        <ele>1890.0</ele>
        <time>2014-06-30T11:27:21Z</time>
      </trkpt>
      <trkpt lat="40.430333" lon="-5.294650">
        <ele>1890.0</ele>
        <time>2014-06-30T11:27:22Z</time>
      </trkpt>
      <trkpt lat="40.430333" lon="-5.294717">
        <ele>1891.0</ele>
        <time>2014-06-30T11:27:23Z</time>
      </trkpt>
      <trkpt lat="40.430300" lon="-5.294783">
        <ele>1891.0</ele>
        <time>2014-06-30T11:27:24Z</time>
      </trkpt>
      <trkpt lat="40.430250" lon="-5.294850">
        <ele>1892.0</ele>
        <time>2014-06-30T11:27:25Z</time>
      </trkpt>
      <trkpt lat="40.430167" lon="-5.294883">
        <ele>1892.0</ele>
        <time>2014-06-30T11:27:26Z</time>
      </trkpt>
      <trkpt lat="40.430050" lon="-5.294900">
        <ele>1891.0</ele>
        <time>2014-06-30T11:27:27Z</time>
      </trkpt>
      <trkpt lat="40.429950" lon="-5.294850">
        <ele>1892.0</ele>
        <time>2014-06-30T11:27:28Z</time>
      </trkpt>
      <trkpt lat="40.429850" lon="-5.294767">
        <ele>1893.0</ele>
        <time>2014-06-30T11:27:29Z</time>
      </trkpt>
      <trkpt lat="40.429800" lon="-5.294650">
        <ele>1894.0</ele>
        <time>2014-06-30T11:27:30Z</time>
      </trkpt>
      <trkpt lat="40.429783" lon="-5.294533">
        <ele>1894.0</ele>
        <time>2014-06-30T11:27:31Z</time>
      </trkpt>
      <trkpt lat="40.429800" lon="-5.294433">
        <ele>1894.0</ele>
        <time>2014-06-30T11:27:32Z</time>
      </trkpt>
      <trkpt lat="40.429817" lon="-5.294350">
        <ele>1894.0</ele>
        <time>2014-06-30T11:27:33Z</time>
      </trkpt>
      <trkpt lat="40.429867" lon="-5.294283">
        <ele>1893.0</ele>
        <time>2014-06-30T11:27:34Z</time>
      </trkpt>
      <trkpt lat="40.429917" lon="-5.294233">
        <ele>1894.0</ele>
        <time>2014-06-30T11:27:35Z</time>
      </trkpt>
      <trkpt lat="40.429983" lon="-5.294200">
        <ele>1895.0</ele>
        <time>2014-06-30T11:27:36Z</time>
      </trkpt>
      <trkpt lat="40.430050" lon="-5.294200">
        <ele>1897.0</ele>
        <time>2014-06-30T11:27:37Z</time>
      </trkpt>
      <trkpt lat="40.430100" lon="-5.294217">
        <ele>1898.0</ele>
        <time>2014-06-30T11:27:38Z</time>
      </trkpt>
      <trkpt lat="40.430150" lon="-5.294233">
        <ele>1898.0</ele>
        <time>2014-06-30T11:27:39Z</time>
      </trkpt>
      <trkpt lat="40.430183" lon="-5.294250">
        <ele>1899.0</ele>
        <time>2014-06-30T11:27:40Z</time>
      </trkpt>
      <trkpt lat="40.430233" lon="-5.294300">
        <ele>1897.0</ele>
        <time>2014-06-30T11:27:41Z</time>
      </trkpt>
      <trkpt lat="40.430267" lon="-5.294383">
        <ele>1896.0</ele>
        <time>2014-06-30T11:27:42Z</time>
      </trkpt>
      <trkpt lat="40.430283" lon="-5.294467">
        <ele>1896.0</ele>
        <time>2014-06-30T11:27:43Z</time>
      </trkpt>
      <trkpt lat="40.430317" lon="-5.294567">
        <ele>1896.0</ele>
        <time>2014-06-30T11:27:44Z</time>
      </trkpt>
      <trkpt lat="40.430350" lon="-5.294650">
        <ele>1897.0</ele>
        <time>2014-06-30T11:27:45Z</time>
      </trkpt>
      <trkpt lat="40.430367" lon="-5.294733">
        <ele>1899.0</ele>
        <time>2014-06-30T11:27:46Z</time>
      </trkpt>
      <trkpt lat="40.430367" lon="-5.294800">
        <ele>1900.0</ele>
        <time>2014-06-30T11:27:47Z</time>
      </trkpt>
      <trkpt lat="40.430383" lon="-5.294900">
        <ele>1899.0</ele>
        <time>2014-06-30T11:27:48Z</time>
      </trkpt>
      <trkpt lat="40.430383" lon="-5.295000">
        <ele>1899.0</ele>
        <time>2014-06-30T11:27:49Z</time>
      </trkpt>
      <trkpt lat="40.430400" lon="-5.295100">
        <ele>1899.0</ele>
        <time>2014-06-30T11:27:50Z</time>
      </trkpt>
      <trkpt lat="40.430433" lon="-5.295200">
        <ele>1899.0</ele>
        <time>2014-06-30T11:27:51Z</time>
      </trkpt>
      <trkpt lat="40.430467" lon="-5.295283">
        <ele>1899.0</ele>
        <time>2014-06-30T11:27:52Z</time>
      </trkpt>
      <trkpt lat="40.430500" lon="-5.295367">
        <ele>1900.0</ele>
        <time>2014-06-30T11:27:53Z</time>
      </trkpt>
      <trkpt lat="40.430500" lon="-5.295467">
        <ele>1900.0</ele>
        <time>2014-06-30T11:27:54Z</time>
      </trkpt>
      <trkpt lat="40.430517" lon="-5.295550">
        <ele>1901.0</ele>
        <time>2014-06-30T11:27:55Z</time>
      </trkpt>
      <trkpt lat="40.430533" lon="-5.295650">
        <ele>1901.0</ele>
        <time>2014-06-30T11:27:56Z</time>
      </trkpt>
      <trkpt lat="40.430550" lon="-5.295733">
        <ele>1901.0</ele>
        <time>2014-06-30T11:27:57Z</time>
      </trkpt>
      <trkpt lat="40.430567" lon="-5.295817">
        <ele>1902.0</ele>
        <time>2014-06-30T11:27:58Z</time>
      </trkpt>
      <trkpt lat="40.430583" lon="-5.295900">
        <ele>1904.0</ele>
        <time>2014-06-30T11:27:59Z</time>
      </trkpt>
      <trkpt lat="40.430600" lon="-5.295950">
        <ele>1907.0</ele>
        <time>2014-06-30T11:28:00Z</time>
      </trkpt>
      <trkpt lat="40.430617" lon="-5.295983">
        <ele>1910.0</ele>
        <time>2014-06-30T11:28:01Z</time>
      </trkpt>
      <trkpt lat="40.430600" lon="-5.295983">
        <ele>1913.0</ele>
        <time>2014-06-30T11:28:02Z</time>
      </trkpt>
      <trkpt lat="40.430600" lon="-5.296033">
        <ele>1915.0</ele>
        <time>2014-06-30T11:28:03Z</time>
      </trkpt>
      <trkpt lat="40.430567" lon="-5.296117">
        <ele>1915.0</ele>
        <time>2014-06-30T11:28:04Z</time>
      </trkpt>
      <trkpt lat="40.430483" lon="-5.296200">
        <ele>1916.0</ele>
        <time>2014-06-30T11:28:05Z</time>
      </trkpt>
      <trkpt lat="40.430383" lon="-5.296217">
        <ele>1918.0</ele>
        <time>2014-06-30T11:28:06Z</time>
      </trkpt>
      <trkpt lat="40.430283" lon="-5.296183">
        <ele>1921.0</ele>
        <time>2014-06-30T11:28:07Z</time>
      </trkpt>
      <trkpt lat="40.430183" lon="-5.296083">
        <ele>1923.0</ele>
        <time>2014-06-30T11:28:08Z</time>
      </trkpt>
      <trkpt lat="40.430117" lon="-5.295983">
        <ele>1925.0</ele>
        <time>2014-06-30T11:28:09Z</time>
      </trkpt>
      <trkpt lat="40.430083" lon="-5.295867">
        <ele>1927.0</ele>
        <time>2014-06-30T11:28:10Z</time>
      </trkpt>
      <trkpt lat="40.430067" lon="-5.295750">
        <ele>1929.0</ele>
        <time>2014-06-30T11:28:11Z</time>
      </trkpt>
      <trkpt lat="40.430067" lon="-5.295617">
        <ele>1930.0</ele>
        <time>2014-06-30T11:28:12Z</time>
      </trkpt>
      <trkpt lat="40.430083" lon="-5.295500">
        <ele>1931.0</ele>
        <time>2014-06-30T11:28:13Z</time>
      </trkpt>
      <trkpt lat="40.430117" lon="-5.295383">
        <ele>1934.0</ele>
        <time>2014-06-30T11:28:14Z</time>
      </trkpt>
      <trkpt lat="40.430167" lon="-5.295300">
        <ele>1937.0</ele>
        <time>2014-06-30T11:28:15Z</time>
      </trkpt>
      <trkpt lat="40.430200" lon="-5.295250">
        <ele>1940.0</ele>
        <time>2014-06-30T11:28:16Z</time>
      </trkpt>
      <trkpt lat="40.430233" lon="-5.295200">
        <ele>1944.0</ele>
        <time>2014-06-30T11:28:17Z</time>
      </trkpt>
      <trkpt lat="40.430267" lon="-5.295200">
        <ele>1947.0</ele>
        <time>2014-06-30T11:28:18Z</time>
      </trkpt>
      <trkpt lat="40.430300" lon="-5.295200">
        <ele>1947.0</ele>
        <time>2014-06-30T11:28:19Z</time>
      </trkpt>
      <trkpt lat="40.430317" lon="-5.295250">
        <ele>1948.0</ele>
        <time>2014-06-30T11:28:20Z</time>
      </trkpt>
      <trkpt lat="40.430317" lon="-5.295317">
        <ele>1950.0</ele>
        <time>2014-06-30T11:28:21Z</time>
      </trkpt>
      <trkpt lat="40.430283" lon="-5.295400">
        <ele>1951.0</ele>
        <time>2014-06-30T11:28:22Z</time>
      </trkpt>
      <trkpt lat="40.430233" lon="-5.295467">
        <ele>1952.0</ele>
        <time>2014-06-30T11:28:23Z</time>
      </trkpt>
      <trkpt lat="40.430150" lon="-5.295500">
        <ele>1954.0</ele>
        <time>2014-06-30T11:28:24Z</time>
      </trkpt>
      <trkpt lat="40.430067" lon="-5.295500">
        <ele>1956.0</ele>
        <time>2014-06-30T11:28:25Z</time>
      </trkpt>
      <trkpt lat="40.429983" lon="-5.295450">
        <ele>1958.0</ele>
        <time>2014-06-30T11:28:26Z</time>
      </trkpt>
      <trkpt lat="40.429883" lon="-5.295400">
        <ele>1960.0</ele>
        <time>2014-06-30T11:28:27Z</time>
      </trkpt>
      <trkpt lat="40.429783" lon="-5.295333">
        <ele>1962.0</ele>
        <time>2014-06-30T11:28:28Z</time>
      </trkpt>
      <trkpt lat="40.429683" lon="-5.295233">
        <ele>1963.0</ele>
        <time>2014-06-30T11:28:29Z</time>
      </trkpt>
      <trkpt lat="40.429617" lon="-5.295117">
        <ele>1965.0</ele>
        <time>2014-06-30T11:28:30Z</time>
      </trkpt>
      <trkpt lat="40.429583" lon="-5.294967">
        <ele>1967.0</ele>
        <time>2014-06-30T11:28:31Z</time>
      </trkpt>
      <trkpt lat="40.429583" lon="-5.294817">
        <ele>1968.0</ele>
        <time>2014-06-30T11:28:32Z</time>
      </trkpt>
      <trkpt lat="40.429600" lon="-5.294700">
        <ele>1970.0</ele>
        <time>2014-06-30T11:28:33Z</time>
      </trkpt>
      <trkpt lat="40.429650" lon="-5.294600">
        <ele>1972.0</ele>
        <time>2014-06-30T11:28:34Z</time>
      </trkpt>
      <trkpt lat="40.429717" lon="-5.294567">
        <ele>1974.0</ele>
        <time>2014-06-30T11:28:35Z</time>
      </trkpt>
      <trkpt lat="40.429767" lon="-5.294600">
        <ele>1975.0</ele>
        <time>2014-06-30T11:28:36Z</time>
      </trkpt>
      <trkpt lat="40.429817" lon="-5.294650">
        <ele>1978.0</ele>
        <time>2014-06-30T11:28:37Z</time>
      </trkpt>
      <trkpt lat="40.429833" lon="-5.294733">
        <ele>1981.0</ele>
        <time>2014-06-30T11:28:38Z</time>
      </trkpt>
      <trkpt lat="40.429867" lon="-5.294783">
        <ele>1984.0</ele>
        <time>2014-06-30T11:28:39Z</time>
      </trkpt>
      <trkpt lat="40.429883" lon="-5.294833">
        <ele>1987.0</ele>
        <time>2014-06-30T11:28:40Z</time>
      </trkpt>
      <trkpt lat="40.429933" lon="-5.294867">
        <ele>1985.0</ele>
        <time>2014-06-30T11:28:41Z</time>
      </trkpt>
      <trkpt lat="40.429967" lon="-5.294933">
        <ele>1985.0</ele>
        <time>2014-06-30T11:28:42Z</time>
      </trkpt>
      <trkpt lat="40.430000" lon="-5.294983">
        <ele>1986.0</ele>
        <time>2014-06-30T11:28:43Z</time>
      </trkpt>
      <trkpt lat="40.430017" lon="-5.295050">
        <ele>1989.0</ele>
        <time>2014-06-30T11:28:44Z</time>
      </trkpt>
      <trkpt lat="40.430033" lon="-5.295117">
        <ele>1991.0</ele>
        <time>2014-06-30T11:28:45Z</time>
      </trkpt>
      <trkpt lat="40.430050" lon="-5.295167">
        <ele>1994.0</ele>
        <time>2014-06-30T11:28:46Z</time>
      </trkpt>
      <trkpt lat="40.430067" lon="-5.295217">
        <ele>1998.0</ele>
        <time>2014-06-30T11:28:47Z</time>
      </trkpt>
      <trkpt lat="40.430083" lon="-5.295267">
        <ele>2001.0</ele>
        <time>2014-06-30T11:28:48Z</time>
      </trkpt>
      <trkpt lat="40.430083" lon="-5.295300">
        <ele>2003.0</ele>
        <time>2014-06-30T11:28:49Z</time>
      </trkpt>
      <trkpt lat="40.430083" lon="-5.295367">
        <ele>2005.0</ele>
        <time>2014-06-30T11:28:50Z</time>
      </trkpt>
      <trkpt lat="40.430050" lon="-5.295433">
        <ele>2006.0</ele>
        <time>2014-06-30T11:28:51Z</time>
      </trkpt>
      <trkpt lat="40.430000" lon="-5.295517">
        <ele>2008.0</ele>
        <time>2014-06-30T11:28:52Z</time>
      </trkpt>
      <trkpt lat="40.429950" lon="-5.295600">
        <ele>2010.0</ele>
        <time>2014-06-30T11:28:53Z</time>
      </trkpt>
      <trkpt lat="40.429900" lon="-5.295667">
        <ele>2011.0</ele>
        <time>2014-06-30T11:28:54Z</time>
      </trkpt>
      <trkpt lat="40.429833" lon="-5.295733">
        <ele>2012.0</ele>
        <time>2014-06-30T11:28:55Z</time>
      </trkpt>
      <trkpt lat="40.429767" lon="-5.295800">
        <ele>2012.0</ele>
        <time>2014-06-30T11:28:56Z</time>
      </trkpt>
      <trkpt lat="40.429683" lon="-5.295867">
        <ele>2013.0</ele>
        <time>2014-06-30T11:28:57Z</time>
      </trkpt>
      <trkpt lat="40.429583" lon="-5.295917">
        <ele>2014.0</ele>
        <time>2014-06-30T11:28:58Z</time>
      </trkpt>
      <trkpt lat="40.429500" lon="-5.295917">
        <ele>2020.0</ele>
        <time>2014-06-30T11:28:59Z</time>
      </trkpt>
      <trkpt lat="40.429433" lon="-5.295900">
        <ele>2024.0</ele>
        <time>2014-06-30T11:29:00Z</time>
      </trkpt>
      <trkpt lat="40.429383" lon="-5.295867">
        <ele>2027.0</ele>
        <time>2014-06-30T11:29:01Z</time>
      </trkpt>
      <trkpt lat="40.429317" lon="-5.295817">
        <ele>2030.0</ele>
        <time>2014-06-30T11:29:02Z</time>
      </trkpt>
      <trkpt lat="40.429250" lon="-5.295733">
        <ele>2030.0</ele>
        <time>2014-06-30T11:29:03Z</time>
      </trkpt>
      <trkpt lat="40.429183" lon="-5.295633">
        <ele>2031.0</ele>
        <time>2014-06-30T11:29:04Z</time>
      </trkpt>
      <trkpt lat="40.429133" lon="-5.295517">
        <ele>2033.0</ele>
        <time>2014-06-30T11:29:05Z</time>
      </trkpt>
      <trkpt lat="40.429117" lon="-5.295383">
        <ele>2034.0</ele>
        <time>2014-06-30T11:29:06Z</time>
      </trkpt>
      <trkpt lat="40.429100" lon="-5.295233">
        <ele>2036.0</ele>
        <time>2014-06-30T11:29:07Z</time>
      </trkpt>
      <trkpt lat="40.429117" lon="-5.295100">
        <ele>2039.0</ele>
        <time>2014-06-30T11:29:08Z</time>
      </trkpt>
      <trkpt lat="40.429133" lon="-5.295000">
        <ele>2041.0</ele>
        <time>2014-06-30T11:29:09Z</time>
      </trkpt>
      <trkpt lat="40.429183" lon="-5.294917">
        <ele>2043.0</ele>
        <time>2014-06-30T11:29:10Z</time>
      </trkpt>
      <trkpt lat="40.429250" lon="-5.294867">
        <ele>2043.0</ele>
        <time>2014-06-30T11:29:11Z</time>
      </trkpt>
      <trkpt lat="40.429317" lon="-5.294850">
        <ele>2044.0</ele>
        <time>2014-06-30T11:29:12Z</time>
      </trkpt>
      <trkpt lat="40.429383" lon="-5.294817">
        <ele>2045.0</ele>
        <time>2014-06-30T11:29:13Z</time>
      </trkpt>
      <trkpt lat="40.429433" lon="-5.294817">
        <ele>2046.0</ele>
        <time>2014-06-30T11:29:14Z</time>
      </trkpt>
      <trkpt lat="40.429483" lon="-5.294833">
        <ele>2048.0</ele>
        <time>2014-06-30T11:29:15Z</time>
      </trkpt>
      <trkpt lat="40.429533" lon="-5.294850">
        <ele>2049.0</ele>
        <time>2014-06-30T11:29:16Z</time>
      </trkpt>
      <trkpt lat="40.429567" lon="-5.294900">
        <ele>2048.0</ele>
        <time>2014-06-30T11:29:17Z</time>
      </trkpt>
      <trkpt lat="40.429600" lon="-5.294967">
        <ele>2048.0</ele>
        <time>2014-06-30T11:29:18Z</time>
      </trkpt>
      <trkpt lat="40.429617" lon="-5.295033">
        <ele>2048.0</ele>
        <time>2014-06-30T11:29:19Z</time>
      </trkpt>
      <trkpt lat="40.429633" lon="-5.295117">
        <ele>2048.0</ele>
        <time>2014-06-30T11:29:20Z</time>
      </trkpt>
      <trkpt lat="40.429633" lon="-5.295200">
        <ele>2048.0</ele>
        <time>2014-06-30T11:29:21Z</time>
      </trkpt>
      <trkpt lat="40.429633" lon="-5.295283">
        <ele>2048.0</ele>
        <time>2014-06-30T11:29:22Z</time>
      </trkpt>
      <trkpt lat="40.429617" lon="-5.295367">
        <ele>2048.0</ele>
        <time>2014-06-30T11:29:23Z</time>
      </trkpt>
      <trkpt lat="40.429600" lon="-5.295450">
        <ele>2048.0</ele>
        <time>2014-06-30T11:29:24Z</time>
      </trkpt>
      <trkpt lat="40.429583" lon="-5.295533">
        <ele>2049.0</ele>
        <time>2014-06-30T11:29:25Z</time>
      </trkpt>
      <trkpt lat="40.429550" lon="-5.295617">
        <ele>2049.0</ele>
        <time>2014-06-30T11:29:26Z</time>
      </trkpt>
      <trkpt lat="40.429517" lon="-5.295683">
        <ele>2049.0</ele>
        <time>2014-06-30T11:29:27Z</time>
      </trkpt>
      <trkpt lat="40.429483" lon="-5.295767">
        <ele>2050.0</ele>
        <time>2014-06-30T11:29:28Z</time>
      </trkpt>
      <trkpt lat="40.429450" lon="-5.295833">
        <ele>2051.0</ele>
        <time>2014-06-30T11:29:29Z</time>
      </trkpt>
      <trkpt lat="40.429433" lon="-5.295883">
        <ele>2051.0</ele>
        <time>2014-06-30T11:29:30Z</time>
      </trkpt>
      <trkpt lat="40.429400" lon="-5.295917">
        <ele>2050.0</ele>
        <time>2014-06-30T11:29:31Z</time>
      </trkpt>
      <trkpt lat="40.429350" lon="-5.295967">
        <ele>2049.0</ele>
        <time>2014-06-30T11:29:32Z</time>
      </trkpt>
      <trkpt lat="40.429300" lon="-5.295983">
        <ele>2048.0</ele>
        <time>2014-06-30T11:29:33Z</time>
      </trkpt>
      <trkpt lat="40.429217" lon="-5.296000">
        <ele>2046.0</ele>
        <time>2014-06-30T11:29:34Z</time>
      </trkpt>
      <trkpt lat="40.429133" lon="-5.296000">
        <ele>2044.0</ele>
        <time>2014-06-30T11:29:35Z</time>
      </trkpt>
      <trkpt lat="40.429033" lon="-5.295950">
        <ele>2042.0</ele>
        <time>2014-06-30T11:29:36Z</time>
      </trkpt>
      <trkpt lat="40.428933" lon="-5.295900">
        <ele>2041.0</ele>
        <time>2014-06-30T11:29:37Z</time>
      </trkpt>
      <trkpt lat="40.428833" lon="-5.295817">
        <ele>2041.0</ele>
        <time>2014-06-30T11:29:38Z</time>
      </trkpt>
      <trkpt lat="40.428733" lon="-5.295733">
        <ele>2041.0</ele>
        <time>2014-06-30T11:29:39Z</time>
      </trkpt>
      <trkpt lat="40.428650" lon="-5.295667">
        <ele>2041.0</ele>
        <time>2014-06-30T11:29:40Z</time>
      </trkpt>
      <trkpt lat="40.428567" lon="-5.295583">
        <ele>2042.0</ele>
        <time>2014-06-30T11:29:41Z</time>
      </trkpt>
      <trkpt lat="40.428500" lon="-5.295483">
        <ele>2042.0</ele>
        <time>2014-06-30T11:29:42Z</time>
      </trkpt>
      <trkpt lat="40.428433" lon="-5.295367">
        <ele>2040.0</ele>
        <time>2014-06-30T11:29:43Z</time>
      </trkpt>
      <trkpt lat="40.428383" lon="-5.295233">
        <ele>2040.0</ele>
        <time>2014-06-30T11:29:44Z</time>
      </trkpt>
      <trkpt lat="40.428333" lon="-5.295100">
        <ele>2040.0</ele>
        <time>2014-06-30T11:29:45Z</time>
      </trkpt>
      <trkpt lat="40.428283" lon="-5.294950">
        <ele>2040.0</ele>
        <time>2014-06-30T11:29:46Z</time>
      </trkpt>
      <trkpt lat="40.428250" lon="-5.294800">
        <ele>2040.0</ele>
        <time>2014-06-30T11:29:47Z</time>
      </trkpt>
      <trkpt lat="40.428217" lon="-5.294650">
        <ele>2039.0</ele>
        <time>2014-06-30T11:29:48Z</time>
      </trkpt>
      <trkpt lat="40.428183" lon="-5.294483">
        <ele>2040.0</ele>
        <time>2014-06-30T11:29:49Z</time>
      </trkpt>
      <trkpt lat="40.428150" lon="-5.294333">
        <ele>2040.0</ele>
        <time>2014-06-30T11:29:50Z</time>
      </trkpt>
      <trkpt lat="40.428117" lon="-5.294167">
        <ele>2041.0</ele>
        <time>2014-06-30T11:29:51Z</time>
      </trkpt>
      <trkpt lat="40.428083" lon="-5.294033">
        <ele>2043.0</ele>
        <time>2014-06-30T11:29:52Z</time>
      </trkpt>
      <trkpt lat="40.428033" lon="-5.293900">
        <ele>2045.0</ele>
        <time>2014-06-30T11:29:53Z</time>
      </trkpt>
      <trkpt lat="40.428000" lon="-5.293783">
        <ele>2047.0</ele>
        <time>2014-06-30T11:29:54Z</time>
      </trkpt>
      <trkpt lat="40.427983" lon="-5.293650">
        <ele>2047.0</ele>
        <time>2014-06-30T11:29:55Z</time>
      </trkpt>
      <trkpt lat="40.427967" lon="-5.293500">
        <ele>2048.0</ele>
        <time>2014-06-30T11:29:56Z</time>
      </trkpt>
      <trkpt lat="40.427983" lon="-5.293350">
        <ele>2049.0</ele>
        <time>2014-06-30T11:29:57Z</time>
      </trkpt>
      <trkpt lat="40.428000" lon="-5.293217">
        <ele>2050.0</ele>
        <time>2014-06-30T11:29:58Z</time>
      </trkpt>
      <trkpt lat="40.428067" lon="-5.293100">
        <ele>2052.0</ele>
        <time>2014-06-30T11:29:59Z</time>
      </trkpt>
      <trkpt lat="40.428133" lon="-5.293000">
        <ele>2056.0</ele>
        <time>2014-06-30T11:30:00Z</time>
      </trkpt>
      <trkpt lat="40.428183" lon="-5.292933">
        <ele>2059.0</ele>
        <time>2014-06-30T11:30:01Z</time>
      </trkpt>
      <trkpt lat="40.428233" lon="-5.292867">
        <ele>2063.0</ele>
        <time>2014-06-30T11:30:02Z</time>
      </trkpt>
      <trkpt lat="40.428283" lon="-5.292783">
        <ele>2067.0</ele>
        <time>2014-06-30T11:30:03Z</time>
      </trkpt>
      <trkpt lat="40.428317" lon="-5.292717">
        <ele>2070.0</ele>
        <time>2014-06-30T11:30:04Z</time>
      </trkpt>
      <trkpt lat="40.428350" lon="-5.292650">
        <ele>2073.0</ele>
        <time>2014-06-30T11:30:05Z</time>
      </trkpt>
      <trkpt lat="40.428400" lon="-5.292617">
        <ele>2076.0</ele>
        <time>2014-06-30T11:30:06Z</time>
      </trkpt>
      <trkpt lat="40.428467" lon="-5.292600">
        <ele>2078.0</ele>
        <time>2014-06-30T11:30:07Z</time>
      </trkpt>
      <trkpt lat="40.428517" lon="-5.292617">
        <ele>2079.0</ele>
        <time>2014-06-30T11:30:08Z</time>
      </trkpt>
      <trkpt lat="40.428567" lon="-5.292667">
        <ele>2076.0</ele>
        <time>2014-06-30T11:30:09Z</time>
      </trkpt>
      <trkpt lat="40.428633" lon="-5.292733">
        <ele>2078.0</ele>
        <time>2014-06-30T11:30:10Z</time>
      </trkpt>
      <trkpt lat="40.428700" lon="-5.292800">
        <ele>2082.0</ele>
        <time>2014-06-30T11:30:11Z</time>
      </trkpt>
      <trkpt lat="40.428767" lon="-5.292850">
        <ele>2086.0</ele>
        <time>2014-06-30T11:30:12Z</time>
      </trkpt>
      <trkpt lat="40.428817" lon="-5.292883">
        <ele>2092.0</ele>
        <time>2014-06-30T11:30:13Z</time>
      </trkpt>
      <trkpt lat="40.428850" lon="-5.292917">
        <ele>2097.0</ele>
        <time>2014-06-30T11:30:14Z</time>
      </trkpt>
      <trkpt lat="40.428850" lon="-5.292933">
        <ele>2100.0</ele>
        <time>2014-06-30T11:30:15Z</time>
      </trkpt>
      <trkpt lat="40.428817" lon="-5.292983">
        <ele>2102.0</ele>
        <time>2014-06-30T11:30:16Z</time>
      </trkpt>
      <trkpt lat="40.428750" lon="-5.293033">
        <ele>2104.0</ele>
        <time>2014-06-30T11:30:17Z</time>
      </trkpt>
      <trkpt lat="40.428700" lon="-5.293100">
        <ele>2104.0</ele>
        <time>2014-06-30T11:30:18Z</time>
      </trkpt>
      <trkpt lat="40.428650" lon="-5.293183">
        <ele>2103.0</ele>
        <time>2014-06-30T11:30:19Z</time>
      </trkpt>
      <trkpt lat="40.428583" lon="-5.293250">
        <ele>2103.0</ele>
        <time>2014-06-30T11:30:20Z</time>
      </trkpt>
      <trkpt lat="40.428517" lon="-5.293317">
        <ele>2103.0</ele>
        <time>2014-06-30T11:30:21Z</time>
      </trkpt>
      <trkpt lat="40.428450" lon="-5.293350">
        <ele>2102.0</ele>
        <time>2014-06-30T11:30:22Z</time>
      </trkpt>
      <trkpt lat="40.428350" lon="-5.293350">
        <ele>2100.0</ele>
        <time>2014-06-30T11:30:23Z</time>
      </trkpt>
      <trkpt lat="40.428233" lon="-5.293267">
        <ele>2098.0</ele>
        <time>2014-06-30T11:30:24Z</time>
      </trkpt>
      <trkpt lat="40.428133" lon="-5.293167">
        <ele>2098.0</ele>
        <time>2014-06-30T11:30:25Z</time>
      </trkpt>
      <trkpt lat="40.428050" lon="-5.293050">
        <ele>2098.0</ele>
        <time>2014-06-30T11:30:26Z</time>
      </trkpt>
      <trkpt lat="40.427967" lon="-5.292917">
        <ele>2099.0</ele>
        <time>2014-06-30T11:30:27Z</time>
      </trkpt>
      <trkpt lat="40.427900" lon="-5.292800">
        <ele>2100.0</ele>
        <time>2014-06-30T11:30:28Z</time>
      </trkpt>
      <trkpt lat="40.427833" lon="-5.292667">
        <ele>2101.0</ele>
        <time>2014-06-30T11:30:29Z</time>
      </trkpt>
      <trkpt lat="40.427783" lon="-5.292533">
        <ele>2102.0</ele>
        <time>2014-06-30T11:30:30Z</time>
      </trkpt>
      <trkpt lat="40.427750" lon="-5.292367">
        <ele>2104.0</ele>
        <time>2014-06-30T11:30:31Z</time>
      </trkpt>
      <trkpt lat="40.427733" lon="-5.292233">
        <ele>2106.0</ele>
        <time>2014-06-30T11:30:32Z</time>
      </trkpt>
      <trkpt lat="40.427733" lon="-5.292083">
        <ele>2109.0</ele>
        <time>2014-06-30T11:30:33Z</time>
      </trkpt>
      <trkpt lat="40.427750" lon="-5.291967">
        <ele>2113.0</ele>
        <time>2014-06-30T11:30:34Z</time>
      </trkpt>
      <trkpt lat="40.427750" lon="-5.291850">
        <ele>2115.0</ele>
        <time>2014-06-30T11:30:35Z</time>
      </trkpt>
      <trkpt lat="40.427767" lon="-5.291767">
        <ele>2117.0</ele>
        <time>2014-06-30T11:30:36Z</time>
      </trkpt>
      <trkpt lat="40.427800" lon="-5.291683">
        <ele>2117.0</ele>
        <time>2014-06-30T11:30:37Z</time>
      </trkpt>
      <trkpt lat="40.427850" lon="-5.291617">
        <ele>2119.0</ele>
        <time>2014-06-30T11:30:38Z</time>
      </trkpt>
      <trkpt lat="40.427917" lon="-5.291567">
        <ele>2119.0</ele>
        <time>2014-06-30T11:30:39Z</time>
      </trkpt>
      <trkpt lat="40.427983" lon="-5.291517">
        <ele>2118.0</ele>
        <time>2014-06-30T11:30:40Z</time>
      </trkpt>
      <trkpt lat="40.428067" lon="-5.291450">
        <ele>2118.0</ele>
        <time>2014-06-30T11:30:41Z</time>
      </trkpt>
      <trkpt lat="40.428167" lon="-5.291383">
        <ele>2118.0</ele>
        <time>2014-06-30T11:30:42Z</time>
      </trkpt>
      <trkpt lat="40.428267" lon="-5.291317">
        <ele>2119.0</ele>
        <time>2014-06-30T11:30:43Z</time>
      </trkpt>
      <trkpt lat="40.428350" lon="-5.291250">
        <ele>2121.0</ele>
        <time>2014-06-30T11:30:44Z</time>
      </trkpt>
      <trkpt lat="40.428433" lon="-5.291183">
        <ele>2123.0</ele>
        <time>2014-06-30T11:30:45Z</time>
      </trkpt>
      <trkpt lat="40.428500" lon="-5.291117">
        <ele>2125.0</ele>
        <time>2014-06-30T11:30:46Z</time>
      </trkpt>
      <trkpt lat="40.428550" lon="-5.291050">
        <ele>2126.0</ele>
        <time>2014-06-30T11:30:47Z</time>
      </trkpt>
      <trkpt lat="40.428617" lon="-5.291000">
        <ele>2127.0</ele>
        <time>2014-06-30T11:30:48Z</time>
      </trkpt>
      <trkpt lat="40.428667" lon="-5.290967">
        <ele>2127.0</ele>
        <time>2014-06-30T11:30:49Z</time>
      </trkpt>
      <trkpt lat="40.428717" lon="-5.290983">
        <ele>2128.0</ele>
        <time>2014-06-30T11:30:50Z</time>
      </trkpt>
      <trkpt lat="40.428767" lon="-5.291000">
        <ele>2129.0</ele>
        <time>2014-06-30T11:30:51Z</time>
      </trkpt>
      <trkpt lat="40.428817" lon="-5.291033">
        <ele>2130.0</ele>
        <time>2014-06-30T11:30:52Z</time>
      </trkpt>
      <trkpt lat="40.428850" lon="-5.291050">
        <ele>2131.0</ele>
        <time>2014-06-30T11:30:53Z</time>
      </trkpt>
      <trkpt lat="40.428900" lon="-5.291083">
        <ele>2132.0</ele>
        <time>2014-06-30T11:30:54Z</time>
      </trkpt>
      <trkpt lat="40.428933" lon="-5.291100">
        <ele>2133.0</ele>
        <time>2014-06-30T11:30:55Z</time>
      </trkpt>
      <trkpt lat="40.428967" lon="-5.291117">
        <ele>2134.0</ele>
        <time>2014-06-30T11:30:56Z</time>
      </trkpt>
      <trkpt lat="40.429000" lon="-5.291150">
        <ele>2134.0</ele>
        <time>2014-06-30T11:30:57Z</time>
      </trkpt>
      <trkpt lat="40.429017" lon="-5.291200">
        <ele>2133.0</ele>
        <time>2014-06-30T11:30:58Z</time>
      </trkpt>
      <trkpt lat="40.429050" lon="-5.291283">
        <ele>2133.0</ele>
        <time>2014-06-30T11:30:59Z</time>
      </trkpt>
      <trkpt lat="40.429067" lon="-5.291367">
        <ele>2133.0</ele>
        <time>2014-06-30T11:31:00Z</time>
      </trkpt>
      <trkpt lat="40.429100" lon="-5.291450">
        <ele>2133.0</ele>
        <time>2014-06-30T11:31:01Z</time>
      </trkpt>
      <trkpt lat="40.429100" lon="-5.291533">
        <ele>2134.0</ele>
        <time>2014-06-30T11:31:02Z</time>
      </trkpt>
      <trkpt lat="40.429117" lon="-5.291600">
        <ele>2135.0</ele>
        <time>2014-06-30T11:31:03Z</time>
      </trkpt>
      <trkpt lat="40.429117" lon="-5.291667">
        <ele>2135.0</ele>
        <time>2014-06-30T11:31:04Z</time>
      </trkpt>
      <trkpt lat="40.429133" lon="-5.291750">
        <ele>2133.0</ele>
        <time>2014-06-30T11:31:05Z</time>
      </trkpt>
      <trkpt lat="40.429133" lon="-5.291833">
        <ele>2132.0</ele>
        <time>2014-06-30T11:31:06Z</time>
      </trkpt>
      <trkpt lat="40.429150" lon="-5.291917">
        <ele>2131.0</ele>
        <time>2014-06-30T11:31:07Z</time>
      </trkpt>
      <trkpt lat="40.429150" lon="-5.292000">
        <ele>2129.0</ele>
        <time>2014-06-30T11:31:08Z</time>
      </trkpt>
      <trkpt lat="40.429167" lon="-5.292083">
        <ele>2128.0</ele>
        <time>2014-06-30T11:31:09Z</time>
      </trkpt>
      <trkpt lat="40.429167" lon="-5.292167">
        <ele>2125.0</ele>
        <time>2014-06-30T11:31:10Z</time>
      </trkpt>
      <trkpt lat="40.429183" lon="-5.292250">
        <ele>2122.0</ele>
        <time>2014-06-30T11:31:11Z</time>
      </trkpt>
      <trkpt lat="40.429200" lon="-5.292350">
        <ele>2120.0</ele>
        <time>2014-06-30T11:31:12Z</time>
      </trkpt>
      <trkpt lat="40.429183" lon="-5.292450">
        <ele>2118.0</ele>
        <time>2014-06-30T11:31:13Z</time>
      </trkpt>
      <trkpt lat="40.429167" lon="-5.292567">
        <ele>2116.0</ele>
        <time>2014-06-30T11:31:14Z</time>
      </trkpt>
      <trkpt lat="40.429167" lon="-5.292667">
        <ele>2118.0</ele>
        <time>2014-06-30T11:31:15Z</time>
      </trkpt>
      <trkpt lat="40.429150" lon="-5.292767">
        <ele>2121.0</ele>
        <time>2014-06-30T11:31:16Z</time>
      </trkpt>
      <trkpt lat="40.429133" lon="-5.292850">
        <ele>2121.0</ele>
        <time>2014-06-30T11:31:17Z</time>
      </trkpt>
      <trkpt lat="40.429117" lon="-5.292933">
        <ele>2123.0</ele>
        <time>2014-06-30T11:31:18Z</time>
      </trkpt>
      <trkpt lat="40.429100" lon="-5.293017">
        <ele>2124.0</ele>
        <time>2014-06-30T11:31:19Z</time>
      </trkpt>
      <trkpt lat="40.429100" lon="-5.293067">
        <ele>2126.0</ele>
        <time>2014-06-30T11:31:20Z</time>
      </trkpt>
      <trkpt lat="40.429100" lon="-5.293100">
        <ele>2128.0</ele>
        <time>2014-06-30T11:31:21Z</time>
      </trkpt>
      <trkpt lat="40.429117" lon="-5.293117">
        <ele>2130.0</ele>
        <time>2014-06-30T11:31:22Z</time>
      </trkpt>
      <trkpt lat="40.429100" lon="-5.293167">
        <ele>2127.0</ele>
        <time>2014-06-30T11:31:23Z</time>
      </trkpt>
      <trkpt lat="40.429067" lon="-5.293217">
        <ele>2127.0</ele>
        <time>2014-06-30T11:31:24Z</time>
      </trkpt>
      <trkpt lat="40.429050" lon="-5.293283">
        <ele>2127.0</ele>
        <time>2014-06-30T11:31:25Z</time>
      </trkpt>
      <trkpt lat="40.429033" lon="-5.293367">
        <ele>2127.0</ele>
        <time>2014-06-30T11:31:26Z</time>
      </trkpt>
      <trkpt lat="40.429017" lon="-5.293467">
        <ele>2128.0</ele>
        <time>2014-06-30T11:31:27Z</time>
      </trkpt>
      <trkpt lat="40.429000" lon="-5.293550">
        <ele>2128.0</ele>
        <time>2014-06-30T11:31:28Z</time>
      </trkpt>
      <trkpt lat="40.429000" lon="-5.293617">
        <ele>2129.0</ele>
        <time>2014-06-30T11:31:29Z</time>
      </trkpt>
      <trkpt lat="40.428983" lon="-5.293700">
        <ele>2130.0</ele>
        <time>2014-06-30T11:31:30Z</time>
      </trkpt>
      <trkpt lat="40.428967" lon="-5.293800">
        <ele>2133.0</ele>
        <time>2014-06-30T11:31:31Z</time>
      </trkpt>
      <trkpt lat="40.428950" lon="-5.293900">
        <ele>2137.0</ele>
        <time>2014-06-30T11:31:32Z</time>
      </trkpt>
      <trkpt lat="40.428950" lon="-5.293967">
        <ele>2140.0</ele>
        <time>2014-06-30T11:31:33Z</time>
      </trkpt>
      <trkpt lat="40.428950" lon="-5.294033">
        <ele>2142.0</ele>
        <time>2014-06-30T11:31:34Z</time>
      </trkpt>
      <trkpt lat="40.428950" lon="-5.294100">
        <ele>2145.0</ele>
        <time>2014-06-30T11:31:35Z</time>
      </trkpt>
      <trkpt lat="40.428967" lon="-5.294150">
        <ele>2147.0</ele>
        <time>2014-06-30T11:31:36Z</time>
      </trkpt>
      <trkpt lat="40.428967" lon="-5.294200">
        <ele>2150.0</ele>
        <time>2014-06-30T11:31:37Z</time>
      </trkpt>
      <trkpt lat="40.428950" lon="-5.294250">
        <ele>2152.0</ele>
        <time>2014-06-30T11:31:38Z</time>
      </trkpt>
      <trkpt lat="40.428933" lon="-5.294317">
        <ele>2154.0</ele>
        <time>2014-06-30T11:31:39Z</time>
      </trkpt>
      <trkpt lat="40.428917" lon="-5.294367">
        <ele>2156.0</ele>
        <time>2014-06-30T11:31:40Z</time>
      </trkpt>
      <trkpt lat="40.428900" lon="-5.294417">
        <ele>2159.0</ele>
        <time>2014-06-30T11:31:41Z</time>
      </trkpt>
      <trkpt lat="40.428900" lon="-5.294433">
        <ele>2161.0</ele>
        <time>2014-06-30T11:31:42Z</time>
      </trkpt>
      <trkpt lat="40.428900" lon="-5.294467">
        <ele>2162.0</ele>
        <time>2014-06-30T11:31:43Z</time>
      </trkpt>
      <trkpt lat="40.428883" lon="-5.294500">
        <ele>2163.0</ele>
        <time>2014-06-30T11:31:44Z</time>
      </trkpt>
      <trkpt lat="40.428850" lon="-5.294517">
        <ele>2163.0</ele>
        <time>2014-06-30T11:31:45Z</time>
      </trkpt>
      <trkpt lat="40.428767" lon="-5.294517">
        <ele>2162.0</ele>
        <time>2014-06-30T11:31:46Z</time>
      </trkpt>
      <trkpt lat="40.428667" lon="-5.294483">
        <ele>2161.0</ele>
        <time>2014-06-30T11:31:47Z</time>
      </trkpt>
      <trkpt lat="40.428583" lon="-5.294367">
        <ele>2161.0</ele>
        <time>2014-06-30T11:31:48Z</time>
      </trkpt>
      <trkpt lat="40.428517" lon="-5.294217">
        <ele>2161.0</ele>
        <time>2014-06-30T11:31:49Z</time>
      </trkpt>
      <trkpt lat="40.428500" lon="-5.294050">
        <ele>2162.0</ele>
        <time>2014-06-30T11:31:50Z</time>
      </trkpt>
      <trkpt lat="40.428500" lon="-5.293883">
        <ele>2164.0</ele>
        <time>2014-06-30T11:31:51Z</time>
      </trkpt>
      <trkpt lat="40.428533" lon="-5.293750">
        <ele>2165.0</ele>
        <time>2014-06-30T11:31:52Z</time>
      </trkpt>
      <trkpt lat="40.428567" lon="-5.293617">
        <ele>2165.0</ele>
        <time>2014-06-30T11:31:53Z</time>
      </trkpt>
      <trkpt lat="40.428633" lon="-5.293483">
        <ele>2165.0</ele>
        <time>2014-06-30T11:31:54Z</time>
      </trkpt>
      <trkpt lat="40.428700" lon="-5.293367">
        <ele>2167.0</ele>
        <time>2014-06-30T11:31:55Z</time>
      </trkpt>
      <trkpt lat="40.428767" lon="-5.293283">
        <ele>2170.0</ele>
        <time>2014-06-30T11:31:56Z</time>
      </trkpt>
      <trkpt lat="40.428817" lon="-5.293200">
        <ele>2172.0</ele>
        <time>2014-06-30T11:31:57Z</time>
      </trkpt>
      <trkpt lat="40.428883" lon="-5.293133">
        <ele>2172.0</ele>
        <time>2014-06-30T11:31:58Z</time>
      </trkpt>
      <trkpt lat="40.428917" lon="-5.293083">
        <ele>2174.0</ele>
        <time>2014-06-30T11:31:59Z</time>
      </trkpt>
      <trkpt lat="40.428967" lon="-5.293050">
        <ele>2176.0</ele>
        <time>2014-06-30T11:32:00Z</time>
      </trkpt>
      <trkpt lat="40.429017" lon="-5.293017">
        <ele>2177.0</ele>
        <time>2014-06-30T11:32:01Z</time>
      </trkpt>
      <trkpt lat="40.429050" lon="-5.293033">
        <ele>2177.0</ele>
        <time>2014-06-30T11:32:02Z</time>
      </trkpt>
      <trkpt lat="40.429083" lon="-5.293083">
        <ele>2178.0</ele>
        <time>2014-06-30T11:32:03Z</time>
      </trkpt>
      <trkpt lat="40.429083" lon="-5.293133">
        <ele>2179.0</ele>
        <time>2014-06-30T11:32:04Z</time>
      </trkpt>
      <trkpt lat="40.429050" lon="-5.293183">
        <ele>2180.0</ele>
        <time>2014-06-30T11:32:05Z</time>
      </trkpt>
      <trkpt lat="40.429017" lon="-5.293217">
        <ele>2183.0</ele>
        <time>2014-06-30T11:32:06Z</time>
      </trkpt>
      <trkpt lat="40.428983" lon="-5.293217">
        <ele>2184.0</ele>
        <time>2014-06-30T11:32:07Z</time>
      </trkpt>
      <trkpt lat="40.428933" lon="-5.293217">
        <ele>2186.0</ele>
        <time>2014-06-30T11:32:08Z</time>
      </trkpt>
      <trkpt lat="40.428850" lon="-5.293233">
        <ele>2184.0</ele>
        <time>2014-06-30T11:32:09Z</time>
      </trkpt>
      <trkpt lat="40.428767" lon="-5.293250">
        <ele>2184.0</ele>
        <time>2014-06-30T11:32:10Z</time>
      </trkpt>
      <trkpt lat="40.428667" lon="-5.293233">
        <ele>2185.0</ele>
        <time>2014-06-30T11:32:11Z</time>
      </trkpt>
      <trkpt lat="40.428567" lon="-5.293167">
        <ele>2186.0</ele>
        <time>2014-06-30T11:32:12Z</time>
      </trkpt>
      <trkpt lat="40.428467" lon="-5.293083">
        <ele>2188.0</ele>
        <time>2014-06-30T11:32:13Z</time>
      </trkpt>
      <trkpt lat="40.428383" lon="-5.292983">
        <ele>2190.0</ele>
        <time>2014-06-30T11:32:14Z</time>
      </trkpt>
      <trkpt lat="40.428300" lon="-5.292883">
        <ele>2192.0</ele>
        <time>2014-06-30T11:32:15Z</time>
      </trkpt>
      <trkpt lat="40.428217" lon="-5.292767">
        <ele>2195.0</ele>
        <time>2014-06-30T11:32:16Z</time>
      </trkpt>
      <trkpt lat="40.428150" lon="-5.292650">
        <ele>2198.0</ele>
        <time>2014-06-30T11:32:17Z</time>
      </trkpt>
      <trkpt lat="40.428100" lon="-5.292517">
        <ele>2200.0</ele>
        <time>2014-06-30T11:32:18Z</time>
      </trkpt>
      <trkpt lat="40.428050" lon="-5.292383">
        <ele>2201.0</ele>
        <time>2014-06-30T11:32:19Z</time>
      </trkpt>
      <trkpt lat="40.428033" lon="-5.292233">
        <ele>2203.0</ele>
        <time>2014-06-30T11:32:20Z</time>
      </trkpt>
      <trkpt lat="40.428033" lon="-5.292083">
        <ele>2203.0</ele>
        <time>2014-06-30T11:32:21Z</time>
      </trkpt>
      <trkpt lat="40.428050" lon="-5.291933">
        <ele>2203.0</ele>
        <time>2014-06-30T11:32:22Z</time>
      </trkpt>
      <trkpt lat="40.428083" lon="-5.291800">
        <ele>2204.0</ele>
        <time>2014-06-30T11:32:23Z</time>
      </trkpt>
      <trkpt lat="40.428117" lon="-5.291683">
        <ele>2204.0</ele>
        <time>2014-06-30T11:32:24Z</time>
      </trkpt>
      <trkpt lat="40.428183" lon="-5.291583">
        <ele>2204.0</ele>
        <time>2014-06-30T11:32:25Z</time>
      </trkpt>
      <trkpt lat="40.428250" lon="-5.291517">
        <ele>2205.0</ele>
        <time>2014-06-30T11:32:26Z</time>
      </trkpt>
      <trkpt lat="40.428317" lon="-5.291483">
        <ele>2205.0</ele>
        <time>2014-06-30T11:32:27Z</time>
      </trkpt>
      <trkpt lat="40.428400" lon="-5.291483">
        <ele>2205.0</ele>
        <time>2014-06-30T11:32:28Z</time>
      </trkpt>
      <trkpt lat="40.428483" lon="-5.291500">
        <ele>2206.0</ele>
        <time>2014-06-30T11:32:29Z</time>
      </trkpt>
      <trkpt lat="40.428550" lon="-5.291500">
        <ele>2208.0</ele>
        <time>2014-06-30T11:32:30Z</time>
      </trkpt>
      <trkpt lat="40.428600" lon="-5.291517">
        <ele>2211.0</ele>
        <time>2014-06-30T11:32:31Z</time>
      </trkpt>
      <trkpt lat="40.428667" lon="-5.291517">
        <ele>2212.0</ele>
        <time>2014-06-30T11:32:32Z</time>
      </trkpt>
      <trkpt lat="40.428717" lon="-5.291500">
        <ele>2211.0</ele>
        <time>2014-06-30T11:32:33Z</time>
      </trkpt>
      <trkpt lat="40.428750" lon="-5.291500">
        <ele>2211.0</ele>
        <time>2014-06-30T11:32:34Z</time>
      </trkpt>
      <trkpt lat="40.428783" lon="-5.291517">
        <ele>2211.0</ele>
        <time>2014-06-30T11:32:35Z</time>
      </trkpt>
      <trkpt lat="40.428817" lon="-5.291567">
        <ele>2211.0</ele>
        <time>2014-06-30T11:32:36Z</time>
      </trkpt>
      <trkpt lat="40.428850" lon="-5.291633">
        <ele>2211.0</ele>
        <time>2014-06-30T11:32:37Z</time>
      </trkpt>
      <trkpt lat="40.428867" lon="-5.291717">
        <ele>2211.0</ele>
        <time>2014-06-30T11:32:38Z</time>
      </trkpt>
      <trkpt lat="40.428883" lon="-5.291783">
        <ele>2212.0</ele>
        <time>2014-06-30T11:32:39Z</time>
      </trkpt>
      <trkpt lat="40.428900" lon="-5.291833">
        <ele>2212.0</ele>
        <time>2014-06-30T11:32:40Z</time>
      </trkpt>
      <trkpt lat="40.428900" lon="-5.291917">
        <ele>2212.0</ele>
        <time>2014-06-30T11:32:41Z</time>
      </trkpt>
      <trkpt lat="40.428900" lon="-5.291983">
        <ele>2211.0</ele>
        <time>2014-06-30T11:32:42Z</time>
      </trkpt>
      <trkpt lat="40.428900" lon="-5.292067">
        <ele>2212.0</ele>
        <time>2014-06-30T11:32:43Z</time>
      </trkpt>
      <trkpt lat="40.428900" lon="-5.292133">
        <ele>2212.0</ele>
        <time>2014-06-30T11:32:44Z</time>
      </trkpt>
      <trkpt lat="40.428883" lon="-5.292217">
        <ele>2212.0</ele>
        <time>2014-06-30T11:32:45Z</time>
      </trkpt>
      <trkpt lat="40.428883" lon="-5.292267">
        <ele>2214.0</ele>
        <time>2014-06-30T11:32:46Z</time>
      </trkpt>
      <trkpt lat="40.428867" lon="-5.292317">
        <ele>2215.0</ele>
        <time>2014-06-30T11:32:47Z</time>
      </trkpt>
      <trkpt lat="40.428833" lon="-5.292367">
        <ele>2215.0</ele>
        <time>2014-06-30T11:32:48Z</time>
      </trkpt>
      <trkpt lat="40.428800" lon="-5.292400">
        <ele>2215.0</ele>
        <time>2014-06-30T11:32:49Z</time>
      </trkpt>
      <trkpt lat="40.428750" lon="-5.292433">
        <ele>2215.0</ele>
        <time>2014-06-30T11:32:50Z</time>
      </trkpt>
      <trkpt lat="40.428667" lon="-5.292450">
        <ele>2215.0</ele>
        <time>2014-06-30T11:32:51Z</time>
      </trkpt>
      <trkpt lat="40.428567" lon="-5.292450">
        <ele>2214.0</ele>
        <time>2014-06-30T11:32:52Z</time>
      </trkpt>
      <trkpt lat="40.428483" lon="-5.292433">
        <ele>2214.0</ele>
        <time>2014-06-30T11:32:53Z</time>
      </trkpt>
      <trkpt lat="40.428383" lon="-5.292400">
        <ele>2215.0</ele>
        <time>2014-06-30T11:32:54Z</time>
      </trkpt>
      <trkpt lat="40.428300" lon="-5.292383">
        <ele>2215.0</ele>
        <time>2014-06-30T11:32:55Z</time>
      </trkpt>
      <trkpt lat="40.428233" lon="-5.292383">
        <ele>2215.0</ele>
        <time>2014-06-30T11:32:56Z</time>
      </trkpt>
      <trkpt lat="40.428150" lon="-5.292350">
        <ele>2214.0</ele>
        <time>2014-06-30T11:32:57Z</time>
      </trkpt>
      <trkpt lat="40.428067" lon="-5.292283">
        <ele>2212.0</ele>
        <time>2014-06-30T11:32:58Z</time>
      </trkpt>
      <trkpt lat="40.428000" lon="-5.292167">
        <ele>2209.0</ele>
        <time>2014-06-30T11:32:59Z</time>
      </trkpt>
      <trkpt lat="40.427933" lon="-5.292050">
        <ele>2207.0</ele>
        <time>2014-06-30T11:33:00Z</time>
      </trkpt>
      <trkpt lat="40.427867" lon="-5.291917">
        <ele>2206.0</ele>
        <time>2014-06-30T11:33:01Z</time>
      </trkpt>
      <trkpt lat="40.427800" lon="-5.291783">
        <ele>2204.0</ele>
        <time>2014-06-30T11:33:02Z</time>
      </trkpt>
      <trkpt lat="40.427733" lon="-5.291650">
        <ele>2202.0</ele>
        <time>2014-06-30T11:33:03Z</time>
      </trkpt>
      <trkpt lat="40.427650" lon="-5.291500">
        <ele>2200.0</ele>
        <time>2014-06-30T11:33:04Z</time>
      </trkpt>
      <trkpt lat="40.427583" lon="-5.291317">
        <ele>2199.0</ele>
        <time>2014-06-30T11:33:05Z</time>
      </trkpt>
      <trkpt lat="40.427550" lon="-5.291133">
        <ele>2199.0</ele>
        <time>2014-06-30T11:33:06Z</time>
      </trkpt>
      <trkpt lat="40.427550" lon="-5.290967">
        <ele>2199.0</ele>
        <time>2014-06-30T11:33:07Z</time>
      </trkpt>
      <trkpt lat="40.427550" lon="-5.290833">
        <ele>2200.0</ele>
        <time>2014-06-30T11:33:08Z</time>
      </trkpt>
      <trkpt lat="40.427533" lon="-5.290700">
        <ele>2203.0</ele>
        <time>2014-06-30T11:33:09Z</time>
      </trkpt>
      <trkpt lat="40.427533" lon="-5.290600">
        <ele>2206.0</ele>
        <time>2014-06-30T11:33:10Z</time>
      </trkpt>
      <trkpt lat="40.427533" lon="-5.290500">
        <ele>2206.0</ele>
        <time>2014-06-30T11:33:11Z</time>
      </trkpt>
      <trkpt lat="40.427550" lon="-5.290417">
        <ele>2206.0</ele>
        <time>2014-06-30T11:33:12Z</time>
      </trkpt>
      <trkpt lat="40.427600" lon="-5.290333">
        <ele>2206.0</ele>
        <time>2014-06-30T11:33:13Z</time>
      </trkpt>
      <trkpt lat="40.427667" lon="-5.290300">
        <ele>2206.0</ele>
        <time>2014-06-30T11:33:14Z</time>
      </trkpt>
      <trkpt lat="40.427750" lon="-5.290283">
        <ele>2206.0</ele>
        <time>2014-06-30T11:33:15Z</time>
      </trkpt>
      <trkpt lat="40.427817" lon="-5.290300">
        <ele>2206.0</ele>
        <time>2014-06-30T11:33:16Z</time>
      </trkpt>
      <trkpt lat="40.427900" lon="-5.290300">
        <ele>2207.0</ele>
        <time>2014-06-30T11:33:17Z</time>
      </trkpt>
      <trkpt lat="40.427983" lon="-5.290283">
        <ele>2208.0</ele>
        <time>2014-06-30T11:33:18Z</time>
      </trkpt>
      <trkpt lat="40.428050" lon="-5.290283">
        <ele>2207.0</ele>
        <time>2014-06-30T11:33:19Z</time>
      </trkpt>
      <trkpt lat="40.428133" lon="-5.290300">
        <ele>2206.0</ele>
        <time>2014-06-30T11:33:20Z</time>
      </trkpt>
      <trkpt lat="40.428217" lon="-5.290317">
        <ele>2204.0</ele>
        <time>2014-06-30T11:33:21Z</time>
      </trkpt>
      <trkpt lat="40.428300" lon="-5.290350">
        <ele>2204.0</ele>
        <time>2014-06-30T11:33:22Z</time>
      </trkpt>
      <trkpt lat="40.428383" lon="-5.290350">
        <ele>2205.0</ele>
        <time>2014-06-30T11:33:23Z</time>
      </trkpt>
      <trkpt lat="40.428450" lon="-5.290333">
        <ele>2208.0</ele>
        <time>2014-06-30T11:33:24Z</time>
      </trkpt>
      <trkpt lat="40.428517" lon="-5.290300">
        <ele>2210.0</ele>
        <time>2014-06-30T11:33:25Z</time>
      </trkpt>
      <trkpt lat="40.428567" lon="-5.290283">
        <ele>2211.0</ele>
        <time>2014-06-30T11:33:26Z</time>
      </trkpt>
      <trkpt lat="40.428617" lon="-5.290283">
        <ele>2211.0</ele>
        <time>2014-06-30T11:33:27Z</time>
      </trkpt>
      <trkpt lat="40.428650" lon="-5.290300">
        <ele>2212.0</ele>
        <time>2014-06-30T11:33:28Z</time>
      </trkpt>
      <trkpt lat="40.428700" lon="-5.290333">
        <ele>2211.0</ele>
        <time>2014-06-30T11:33:29Z</time>
      </trkpt>
      <trkpt lat="40.428750" lon="-5.290350">
        <ele>2211.0</ele>
        <time>2014-06-30T11:33:30Z</time>
      </trkpt>
      <trkpt lat="40.428783" lon="-5.290350">
        <ele>2211.0</ele>
        <time>2014-06-30T11:33:31Z</time>
      </trkpt>
      <trkpt lat="40.428817" lon="-5.290367">
        <ele>2209.0</ele>
        <time>2014-06-30T11:33:32Z</time>
      </trkpt>
      <trkpt lat="40.428867" lon="-5.290400">
        <ele>2210.0</ele>
        <time>2014-06-30T11:33:33Z</time>
      </trkpt>
      <trkpt lat="40.428917" lon="-5.290433">
        <ele>2209.0</ele>
        <time>2014-06-30T11:33:34Z</time>
      </trkpt>
      <trkpt lat="40.428950" lon="-5.290500">
        <ele>2208.0</ele>
        <time>2014-06-30T11:33:35Z</time>
      </trkpt>
      <trkpt lat="40.428983" lon="-5.290550">
        <ele>2207.0</ele>
        <time>2014-06-30T11:33:36Z</time>
      </trkpt>
      <trkpt lat="40.428967" lon="-5.290600">
        <ele>2206.0</ele>
        <time>2014-06-30T11:33:37Z</time>
      </trkpt>
      <trkpt lat="40.428917" lon="-5.290633">
        <ele>2204.0</ele>
        <time>2014-06-30T11:33:38Z</time>
      </trkpt>
      <trkpt lat="40.428850" lon="-5.290650">
        <ele>2202.0</ele>
        <time>2014-06-30T11:33:39Z</time>
      </trkpt>
      <trkpt lat="40.428767" lon="-5.290633">
        <ele>2200.0</ele>
        <time>2014-06-30T11:33:40Z</time>
      </trkpt>
      <trkpt lat="40.428667" lon="-5.290633">
        <ele>2199.0</ele>
        <time>2014-06-30T11:33:41Z</time>
      </trkpt>
      <trkpt lat="40.428583" lon="-5.290617">
        <ele>2197.0</ele>
        <time>2014-06-30T11:33:42Z</time>
      </trkpt>
      <trkpt lat="40.428483" lon="-5.290583">
        <ele>2197.0</ele>
        <time>2014-06-30T11:33:43Z</time>
      </trkpt>
      <trkpt lat="40.428400" lon="-5.290533">
        <ele>2196.0</ele>
        <time>2014-06-30T11:33:44Z</time>
      </trkpt>
      <trkpt lat="40.428317" lon="-5.290483">
        <ele>2194.0</ele>
        <time>2014-06-30T11:33:45Z</time>
      </trkpt>
      <trkpt lat="40.428233" lon="-5.290417">
        <ele>2193.0</ele>
        <time>2014-06-30T11:33:46Z</time>
      </trkpt>
      <trkpt lat="40.428133" lon="-5.290333">
        <ele>2191.0</ele>
        <time>2014-06-30T11:33:47Z</time>
      </trkpt>
      <trkpt lat="40.428050" lon="-5.290250">
        <ele>2190.0</ele>
        <time>2014-06-30T11:33:48Z</time>
      </trkpt>
      <trkpt lat="40.427967" lon="-5.290167">
        <ele>2188.0</ele>
        <time>2014-06-30T11:33:49Z</time>
      </trkpt>
      <trkpt lat="40.427883" lon="-5.290067">
        <ele>2187.0</ele>
        <time>2014-06-30T11:33:50Z</time>
      </trkpt>
      <trkpt lat="40.427800" lon="-5.289950">
        <ele>2185.0</ele>
        <time>2014-06-30T11:33:51Z</time>
      </trkpt>
      <trkpt lat="40.427733" lon="-5.289833">
        <ele>2184.0</ele>
        <time>2014-06-30T11:33:52Z</time>
      </trkpt>
      <trkpt lat="40.427650" lon="-5.289717">
        <ele>2181.0</ele>
        <time>2014-06-30T11:33:53Z</time>
      </trkpt>
      <trkpt lat="40.427567" lon="-5.289583">
        <ele>2179.0</ele>
        <time>2014-06-30T11:33:54Z</time>
      </trkpt>
      <trkpt lat="40.427500" lon="-5.289450">
        <ele>2177.0</ele>
        <time>2014-06-30T11:33:55Z</time>
      </trkpt>
      <trkpt lat="40.427400" lon="-5.289317">
        <ele>2174.0</ele>
        <time>2014-06-30T11:33:56Z</time>
      </trkpt>
      <trkpt lat="40.427317" lon="-5.289167">
        <ele>2173.0</ele>
        <time>2014-06-30T11:33:57Z</time>
      </trkpt>
      <trkpt lat="40.427233" lon="-5.289033">
        <ele>2174.0</ele>
        <time>2014-06-30T11:33:58Z</time>
      </trkpt>
      <trkpt lat="40.427167" lon="-5.288883">
        <ele>2175.0</ele>
        <time>2014-06-30T11:33:59Z</time>
      </trkpt>
      <trkpt lat="40.427117" lon="-5.288750">
        <ele>2176.0</ele>
        <time>2014-06-30T11:34:00Z</time>
      </trkpt>
      <trkpt lat="40.427083" lon="-5.288600">
        <ele>2177.0</ele>
        <time>2014-06-30T11:34:01Z</time>
      </trkpt>
      <trkpt lat="40.427067" lon="-5.288467">
        <ele>2177.0</ele>
        <time>2014-06-30T11:34:02Z</time>
      </trkpt>
      <trkpt lat="40.427050" lon="-5.288333">
        <ele>2177.0</ele>
        <time>2014-06-30T11:34:03Z</time>
      </trkpt>
      <trkpt lat="40.427050" lon="-5.288183">
        <ele>2176.0</ele>
        <time>2014-06-30T11:34:04Z</time>
      </trkpt>
      <trkpt lat="40.427083" lon="-5.288033">
        <ele>2175.0</ele>
        <time>2014-06-30T11:34:05Z</time>
      </trkpt>
      <trkpt lat="40.427117" lon="-5.287883">
        <ele>2174.0</ele>
        <time>2014-06-30T11:34:06Z</time>
      </trkpt>
      <trkpt lat="40.427200" lon="-5.287750">
        <ele>2173.0</ele>
        <time>2014-06-30T11:34:07Z</time>
      </trkpt>
      <trkpt lat="40.427267" lon="-5.287633">
        <ele>2174.0</ele>
        <time>2014-06-30T11:34:08Z</time>
      </trkpt>
      <trkpt lat="40.427317" lon="-5.287533">
        <ele>2174.0</ele>
        <time>2014-06-30T11:34:09Z</time>
      </trkpt>
      <trkpt lat="40.427367" lon="-5.287450">
        <ele>2174.0</ele>
        <time>2014-06-30T11:34:10Z</time>
      </trkpt>
      <trkpt lat="40.427433" lon="-5.287350">
        <ele>2172.0</ele>
        <time>2014-06-30T11:34:11Z</time>
      </trkpt>
      <trkpt lat="40.427500" lon="-5.287250">
        <ele>2171.0</ele>
        <time>2014-06-30T11:34:12Z</time>
      </trkpt>
      <trkpt lat="40.427583" lon="-5.287183">
        <ele>2170.0</ele>
        <time>2014-06-30T11:34:13Z</time>
      </trkpt>
      <trkpt lat="40.427667" lon="-5.287150">
        <ele>2169.0</ele>
        <time>2014-06-30T11:34:14Z</time>
      </trkpt>
      <trkpt lat="40.427750" lon="-5.287133">
        <ele>2170.0</ele>
        <time>2014-06-30T11:34:15Z</time>
      </trkpt>
      <trkpt lat="40.427833" lon="-5.287117">
        <ele>2170.0</ele>
        <time>2014-06-30T11:34:16Z</time>
      </trkpt>
      <trkpt lat="40.427900" lon="-5.287100">
        <ele>2169.0</ele>
        <time>2014-06-30T11:34:17Z</time>
      </trkpt>
      <trkpt lat="40.427967" lon="-5.287083">
        <ele>2169.0</ele>
        <time>2014-06-30T11:34:18Z</time>
      </trkpt>
      <trkpt lat="40.428033" lon="-5.287083">
        <ele>2167.0</ele>
        <time>2014-06-30T11:34:19Z</time>
      </trkpt>
      <trkpt lat="40.428100" lon="-5.287117">
        <ele>2166.0</ele>
        <time>2014-06-30T11:34:20Z</time>
      </trkpt>
      <trkpt lat="40.428133" lon="-5.287167">
        <ele>2165.0</ele>
        <time>2014-06-30T11:34:21Z</time>
      </trkpt>
      <trkpt lat="40.428183" lon="-5.287233">
        <ele>2164.0</ele>
        <time>2014-06-30T11:34:22Z</time>
      </trkpt>
      <trkpt lat="40.428217" lon="-5.287300">
        <ele>2162.0</ele>
        <time>2014-06-30T11:34:23Z</time>
      </trkpt>
      <trkpt lat="40.428267" lon="-5.287383">
        <ele>2163.0</ele>
        <time>2014-06-30T11:34:24Z</time>
      </trkpt>
      <trkpt lat="40.428300" lon="-5.287433">
        <ele>2164.0</ele>
        <time>2014-06-30T11:34:25Z</time>
      </trkpt>
      <trkpt lat="40.428317" lon="-5.287483">
        <ele>2164.0</ele>
        <time>2014-06-30T11:34:26Z</time>
      </trkpt>
      <trkpt lat="40.428333" lon="-5.287517">
        <ele>2164.0</ele>
        <time>2014-06-30T11:34:27Z</time>
      </trkpt>
      <trkpt lat="40.428367" lon="-5.287567">
        <ele>2163.0</ele>
        <time>2014-06-30T11:34:28Z</time>
      </trkpt>
      <trkpt lat="40.428383" lon="-5.287617">
        <ele>2162.0</ele>
        <time>2014-06-30T11:34:29Z</time>
      </trkpt>
      <trkpt lat="40.428400" lon="-5.287683">
        <ele>2161.0</ele>
        <time>2014-06-30T11:34:30Z</time>
      </trkpt>
      <trkpt lat="40.428417" lon="-5.287767">
        <ele>2160.0</ele>
        <time>2014-06-30T11:34:31Z</time>
      </trkpt>
      <trkpt lat="40.428417" lon="-5.287817">
        <ele>2158.0</ele>
        <time>2014-06-30T11:34:32Z</time>
      </trkpt>
      <trkpt lat="40.428433" lon="-5.287867">
        <ele>2157.0</ele>
        <time>2014-06-30T11:34:33Z</time>
      </trkpt>
      <trkpt lat="40.428450" lon="-5.287917">
        <ele>2156.0</ele>
        <time>2014-06-30T11:34:34Z</time>
      </trkpt>
      <trkpt lat="40.428450" lon="-5.287967">
        <ele>2153.0</ele>
        <time>2014-06-30T11:34:35Z</time>
      </trkpt>
      <trkpt lat="40.428433" lon="-5.288050">
        <ele>2155.0</ele>
        <time>2014-06-30T11:34:36Z</time>
      </trkpt>
      <trkpt lat="40.428433" lon="-5.288150">
        <ele>2152.0</ele>
        <time>2014-06-30T11:34:37Z</time>
      </trkpt>
      <trkpt lat="40.428450" lon="-5.288267">
        <ele>2150.0</ele>
        <time>2014-06-30T11:34:38Z</time>
      </trkpt>
      <trkpt lat="40.428467" lon="-5.288367">
        <ele>2148.0</ele>
        <time>2014-06-30T11:34:39Z</time>
      </trkpt>
      <trkpt lat="40.428483" lon="-5.288467">
        <ele>2147.0</ele>
        <time>2014-06-30T11:34:40Z</time>
      </trkpt>
      <trkpt lat="40.428517" lon="-5.288550">
        <ele>2145.0</ele>
        <time>2014-06-30T11:34:41Z</time>
      </trkpt>
      <trkpt lat="40.428533" lon="-5.288650">
        <ele>2143.0</ele>
        <time>2014-06-30T11:34:42Z</time>
      </trkpt>
      <trkpt lat="40.428550" lon="-5.288750">
        <ele>2141.0</ele>
        <time>2014-06-30T11:34:43Z</time>
      </trkpt>
      <trkpt lat="40.428550" lon="-5.288867">
        <ele>2142.0</ele>
        <time>2014-06-30T11:34:44Z</time>
      </trkpt>
      <trkpt lat="40.428533" lon="-5.288983">
        <ele>2140.0</ele>
        <time>2014-06-30T11:34:45Z</time>
      </trkpt>
      <trkpt lat="40.428517" lon="-5.289083">
        <ele>2139.0</ele>
        <time>2014-06-30T11:34:46Z</time>
      </trkpt>
      <trkpt lat="40.428517" lon="-5.289183">
        <ele>2139.0</ele>
        <time>2014-06-30T11:34:47Z</time>
      </trkpt>
      <trkpt lat="40.428517" lon="-5.289267">
        <ele>2137.0</ele>
        <time>2014-06-30T11:34:48Z</time>
      </trkpt>
      <trkpt lat="40.428517" lon="-5.289350">
        <ele>2136.0</ele>
        <time>2014-06-30T11:34:49Z</time>
      </trkpt>
      <trkpt lat="40.428517" lon="-5.289450">
        <ele>2133.0</ele>
        <time>2014-06-30T11:34:50Z</time>
      </trkpt>
      <trkpt lat="40.428500" lon="-5.289567">
        <ele>2134.0</ele>
        <time>2014-06-30T11:34:51Z</time>
      </trkpt>
      <trkpt lat="40.428500" lon="-5.289667">
        <ele>2132.0</ele>
        <time>2014-06-30T11:34:52Z</time>
      </trkpt>
      <trkpt lat="40.428500" lon="-5.289750">
        <ele>2132.0</ele>
        <time>2014-06-30T11:34:53Z</time>
      </trkpt>
      <trkpt lat="40.428500" lon="-5.289833">
        <ele>2131.0</ele>
        <time>2014-06-30T11:34:54Z</time>
      </trkpt>
      <trkpt lat="40.428483" lon="-5.289883">
        <ele>2129.0</ele>
        <time>2014-06-30T11:34:55Z</time>
      </trkpt>
      <trkpt lat="40.428467" lon="-5.289967">
        <ele>2126.0</ele>
        <time>2014-06-30T11:34:56Z</time>
      </trkpt>
      <trkpt lat="40.428483" lon="-5.290067">
        <ele>2120.0</ele>
        <time>2014-06-30T11:34:57Z</time>
      </trkpt>
      <trkpt lat="40.428483" lon="-5.290150">
        <ele>2116.0</ele>
        <time>2014-06-30T11:34:58Z</time>
      </trkpt>
      <trkpt lat="40.428500" lon="-5.290250">
        <ele>2112.0</ele>
        <time>2014-06-30T11:34:59Z</time>
      </trkpt>
      <trkpt lat="40.428483" lon="-5.290350">
        <ele>2110.0</ele>
        <time>2014-06-30T11:35:00Z</time>
      </trkpt>
      <trkpt lat="40.428467" lon="-5.290450">
        <ele>2109.0</ele>
        <time>2014-06-30T11:35:01Z</time>
      </trkpt>
      <trkpt lat="40.428467" lon="-5.290533">
        <ele>2107.0</ele>
        <time>2014-06-30T11:35:02Z</time>
      </trkpt>
      <trkpt lat="40.428467" lon="-5.290617">
        <ele>2105.0</ele>
        <time>2014-06-30T11:35:03Z</time>
      </trkpt>
      <trkpt lat="40.428467" lon="-5.290717">
        <ele>2108.0</ele>
        <time>2014-06-30T11:35:04Z</time>
      </trkpt>
      <trkpt lat="40.428433" lon="-5.290817">
        <ele>2106.0</ele>
        <time>2014-06-30T11:35:05Z</time>
      </trkpt>
      <trkpt lat="40.428417" lon="-5.290900">
        <ele>2105.0</ele>
        <time>2014-06-30T11:35:06Z</time>
      </trkpt>
      <trkpt lat="40.428400" lon="-5.290967">
        <ele>2104.0</ele>
        <time>2014-06-30T11:35:07Z</time>
      </trkpt>
      <trkpt lat="40.428433" lon="-5.291000">
        <ele>2103.0</ele>
        <time>2014-06-30T11:35:08Z</time>
      </trkpt>
      <trkpt lat="40.428467" lon="-5.291050">
        <ele>2101.0</ele>
        <time>2014-06-30T11:35:09Z</time>
      </trkpt>
      <trkpt lat="40.428483" lon="-5.291100">
        <ele>2103.0</ele>
        <time>2014-06-30T11:35:10Z</time>
      </trkpt>
      <trkpt lat="40.428483" lon="-5.291167">
        <ele>2102.0</ele>
        <time>2014-06-30T11:35:11Z</time>
      </trkpt>
      <trkpt lat="40.428483" lon="-5.291250">
        <ele>2100.0</ele>
        <time>2014-06-30T11:35:12Z</time>
      </trkpt>
      <trkpt lat="40.428483" lon="-5.291333">
        <ele>2097.0</ele>
        <time>2014-06-30T11:35:13Z</time>
      </trkpt>
      <trkpt lat="40.428500" lon="-5.291433">
        <ele>2093.0</ele>
        <time>2014-06-30T11:35:14Z</time>
      </trkpt>
      <trkpt lat="40.428533" lon="-5.291517">
        <ele>2089.0</ele>
        <time>2014-06-30T11:35:15Z</time>
      </trkpt>
      <trkpt lat="40.428550" lon="-5.291617">
        <ele>2087.0</ele>
        <time>2014-06-30T11:35:16Z</time>
      </trkpt>
      <trkpt lat="40.428533" lon="-5.291700">
        <ele>2084.0</ele>
        <time>2014-06-30T11:35:17Z</time>
      </trkpt>
      <trkpt lat="40.428517" lon="-5.291783">
        <ele>2082.0</ele>
        <time>2014-06-30T11:35:18Z</time>
      </trkpt>
      <trkpt lat="40.428517" lon="-5.291867">
        <ele>2079.0</ele>
        <time>2014-06-30T11:35:19Z</time>
      </trkpt>
      <trkpt lat="40.428533" lon="-5.291967">
        <ele>2076.0</ele>
        <time>2014-06-30T11:35:20Z</time>
      </trkpt>
      <trkpt lat="40.428517" lon="-5.292067">
        <ele>2074.0</ele>
        <time>2014-06-30T11:35:21Z</time>
      </trkpt>
      <trkpt lat="40.428500" lon="-5.292150">
        <ele>2075.0</ele>
        <time>2014-06-30T11:35:22Z</time>
      </trkpt>
      <trkpt lat="40.428467" lon="-5.292217">
        <ele>2076.0</ele>
        <time>2014-06-30T11:35:23Z</time>
      </trkpt>
      <trkpt lat="40.428450" lon="-5.292283">
        <ele>2077.0</ele>
        <time>2014-06-30T11:35:24Z</time>
      </trkpt>
      <trkpt lat="40.428433" lon="-5.292317">
        <ele>2076.0</ele>
        <time>2014-06-30T11:35:25Z</time>
      </trkpt>
      <trkpt lat="40.428433" lon="-5.292350">
        <ele>2076.0</ele>
        <time>2014-06-30T11:35:26Z</time>
      </trkpt>
      <trkpt lat="40.428433" lon="-5.292383">
        <ele>2076.0</ele>
        <time>2014-06-30T11:35:27Z</time>
      </trkpt>
      <trkpt lat="40.428417" lon="-5.292433">
        <ele>2076.0</ele>
        <time>2014-06-30T11:35:28Z</time>
      </trkpt>
      <trkpt lat="40.428417" lon="-5.292500">
        <ele>2076.0</ele>
        <time>2014-06-30T11:35:29Z</time>
      </trkpt>
      <trkpt lat="40.428417" lon="-5.292567">
        <ele>2076.0</ele>
        <time>2014-06-30T11:35:30Z</time>
      </trkpt>
      <trkpt lat="40.428417" lon="-5.292617">
        <ele>2077.0</ele>
        <time>2014-06-30T11:35:31Z</time>
      </trkpt>
      <trkpt lat="40.428417" lon="-5.292650">
        <ele>2079.0</ele>
        <time>2014-06-30T11:35:32Z</time>
      </trkpt>
      <trkpt lat="40.428433" lon="-5.292667">
        <ele>2081.0</ele>
        <time>2014-06-30T11:35:33Z</time>
      </trkpt>
      <trkpt lat="40.428433" lon="-5.292650">
        <ele>2080.0</ele>
        <time>2014-06-30T11:35:34Z</time>
      </trkpt>
      <trkpt lat="40.428433" lon="-5.292633">
        <ele>2080.0</ele>
        <time>2014-06-30T11:35:35Z</time>
      </trkpt>
      <trkpt lat="40.428467" lon="-5.292650">
        <ele>2081.0</ele>
        <time>2014-06-30T11:35:36Z</time>
      </trkpt>
      <trkpt lat="40.428483" lon="-5.292667">
        <ele>2082.0</ele>
        <time>2014-06-30T11:35:37Z</time>
      </trkpt>
      <trkpt lat="40.428517" lon="-5.292667">
        <ele>2084.0</ele>
        <time>2014-06-30T11:35:38Z</time>
      </trkpt>
      <trkpt lat="40.428533" lon="-5.292683">
        <ele>2085.0</ele>
        <time>2014-06-30T11:35:39Z</time>
      </trkpt>
      <trkpt lat="40.428533" lon="-5.292700">
        <ele>2087.0</ele>
        <time>2014-06-30T11:35:40Z</time>
      </trkpt>
      <trkpt lat="40.428517" lon="-5.292717">
        <ele>2089.0</ele>
        <time>2014-06-30T11:35:41Z</time>
      </trkpt>
      <trkpt lat="40.428500" lon="-5.292733">
        <ele>2091.0</ele>
        <time>2014-06-30T11:35:42Z</time>
      </trkpt>
      <trkpt lat="40.428517" lon="-5.292750">
        <ele>2091.0</ele>
        <time>2014-06-30T11:35:43Z</time>
      </trkpt>
      <trkpt lat="40.428550" lon="-5.292767">
        <ele>2091.0</ele>
        <time>2014-06-30T11:35:44Z</time>
      </trkpt>
      <trkpt lat="40.428583" lon="-5.292783">
        <ele>2093.0</ele>
        <time>2014-06-30T11:35:45Z</time>
      </trkpt>
      <trkpt lat="40.428650" lon="-5.292783">
        <ele>2093.0</ele>
        <time>2014-06-30T11:35:46Z</time>
      </trkpt>
      <trkpt lat="40.428700" lon="-5.292783">
        <ele>2094.0</ele>
        <time>2014-06-30T11:35:47Z</time>
      </trkpt>
      <trkpt lat="40.428767" lon="-5.292800">
        <ele>2094.0</ele>
        <time>2014-06-30T11:35:48Z</time>
      </trkpt>
      <trkpt lat="40.428850" lon="-5.292800">
        <ele>2095.0</ele>
        <time>2014-06-30T11:35:49Z</time>
      </trkpt>
      <trkpt lat="40.428917" lon="-5.292783">
        <ele>2096.0</ele>
        <time>2014-06-30T11:35:50Z</time>
      </trkpt>
      <trkpt lat="40.428983" lon="-5.292767">
        <ele>2096.0</ele>
        <time>2014-06-30T11:35:51Z</time>
      </trkpt>
      <trkpt lat="40.429050" lon="-5.292750">
        <ele>2098.0</ele>
        <time>2014-06-30T11:35:52Z</time>
      </trkpt>
      <trkpt lat="40.429100" lon="-5.292733">
        <ele>2100.0</ele>
        <time>2014-06-30T11:35:53Z</time>
      </trkpt>
      <trkpt lat="40.429133" lon="-5.292733">
        <ele>2102.0</ele>
        <time>2014-06-30T11:35:54Z</time>
      </trkpt>
      <trkpt lat="40.429183" lon="-5.292733">
        <ele>2102.0</ele>
        <time>2014-06-30T11:35:55Z</time>
      </trkpt>
      <trkpt lat="40.429217" lon="-5.292717">
        <ele>2103.0</ele>
        <time>2014-06-30T11:35:56Z</time>
      </trkpt>
      <trkpt lat="40.429250" lon="-5.292717">
        <ele>2105.0</ele>
        <time>2014-06-30T11:35:57Z</time>
      </trkpt>
      <trkpt lat="40.429283" lon="-5.292717">
        <ele>2106.0</ele>
        <time>2014-06-30T11:35:58Z</time>
      </trkpt>
      <trkpt lat="40.429300" lon="-5.292733">
        <ele>2107.0</ele>
        <time>2014-06-30T11:35:59Z</time>
      </trkpt>
      <trkpt lat="40.429283" lon="-5.292750">
        <ele>2107.0</ele>
        <time>2014-06-30T11:36:00Z</time>
      </trkpt>
      <trkpt lat="40.429233" lon="-5.292783">
        <ele>2106.0</ele>
        <time>2014-06-30T11:36:01Z</time>
      </trkpt>
      <trkpt lat="40.429150" lon="-5.292767">
        <ele>2106.0</ele>
        <time>2014-06-30T11:36:02Z</time>
      </trkpt>
      <trkpt lat="40.429050" lon="-5.292717">
        <ele>2106.0</ele>
        <time>2014-06-30T11:36:03Z</time>
      </trkpt>
      <trkpt lat="40.428967" lon="-5.292617">
        <ele>2107.0</ele>
        <time>2014-06-30T11:36:04Z</time>
      </trkpt>
      <trkpt lat="40.428900" lon="-5.292500">
        <ele>2108.0</ele>
        <time>2014-06-30T11:36:05Z</time>
      </trkpt>
      <trkpt lat="40.428833" lon="-5.292367">
        <ele>2109.0</ele>
        <time>2014-06-30T11:36:06Z</time>
      </trkpt>
      <trkpt lat="40.428783" lon="-5.292250">
        <ele>2111.0</ele>
        <time>2014-06-30T11:36:07Z</time>
      </trkpt>
      <trkpt lat="40.428733" lon="-5.292117">
        <ele>2113.0</ele>
        <time>2014-06-30T11:36:08Z</time>
      </trkpt>
      <trkpt lat="40.428700" lon="-5.291967">
        <ele>2114.0</ele>
        <time>2014-06-30T11:36:09Z</time>
      </trkpt>
      <trkpt lat="40.428667" lon="-5.291800">
        <ele>2115.0</ele>
        <time>2014-06-30T11:36:10Z</time>
      </trkpt>
      <trkpt lat="40.428633" lon="-5.291617">
        <ele>2117.0</ele>
        <time>2014-06-30T11:36:11Z</time>
      </trkpt>
      <trkpt lat="40.428633" lon="-5.291433">
        <ele>2119.0</ele>
        <time>2014-06-30T11:36:12Z</time>
      </trkpt>
      <trkpt lat="40.428650" lon="-5.291250">
        <ele>2120.0</ele>
        <time>2014-06-30T11:36:13Z</time>
      </trkpt>
      <trkpt lat="40.428683" lon="-5.291100">
        <ele>2122.0</ele>
        <time>2014-06-30T11:36:14Z</time>
      </trkpt>
      <trkpt lat="40.428750" lon="-5.290950">
        <ele>2122.0</ele>
        <time>2014-06-30T11:36:15Z</time>
      </trkpt>
      <trkpt lat="40.428817" lon="-5.290833">
        <ele>2123.0</ele>
        <time>2014-06-30T11:36:16Z</time>
      </trkpt>
      <trkpt lat="40.428883" lon="-5.290717">
        <ele>2123.0</ele>
        <time>2014-06-30T11:36:17Z</time>
      </trkpt>
      <trkpt lat="40.428950" lon="-5.290600">
        <ele>2124.0</ele>
        <time>2014-06-30T11:36:18Z</time>
      </trkpt>
      <trkpt lat="40.429033" lon="-5.290517">
        <ele>2123.0</ele>
        <time>2014-06-30T11:36:19Z</time>
      </trkpt>
      <trkpt lat="40.429100" lon="-5.290417">
        <ele>2124.0</ele>
        <time>2014-06-30T11:36:20Z</time>
      </trkpt>
      <trkpt lat="40.429167" lon="-5.290333">
        <ele>2124.0</ele>
        <time>2014-06-30T11:36:21Z</time>
      </trkpt>
      <trkpt lat="40.429250" lon="-5.290267">
        <ele>2124.0</ele>
        <time>2014-06-30T11:36:22Z</time>
      </trkpt>
      <trkpt lat="40.429317" lon="-5.290217">
        <ele>2123.0</ele>
        <time>2014-06-30T11:36:23Z</time>
      </trkpt>
      <trkpt lat="40.429400" lon="-5.290183">
        <ele>2123.0</ele>
        <time>2014-06-30T11:36:24Z</time>
      </trkpt>
      <trkpt lat="40.429483" lon="-5.290133">
        <ele>2122.0</ele>
        <time>2014-06-30T11:36:25Z</time>
      </trkpt>
      <trkpt lat="40.429567" lon="-5.290083">
        <ele>2121.0</ele>
        <time>2014-06-30T11:36:26Z</time>
      </trkpt>
      <trkpt lat="40.429650" lon="-5.290033">
        <ele>2120.0</ele>
        <time>2014-06-30T11:36:27Z</time>
      </trkpt>
      <trkpt lat="40.429733" lon="-5.290000">
        <ele>2119.0</ele>
        <time>2014-06-30T11:36:28Z</time>
      </trkpt>
      <trkpt lat="40.429817" lon="-5.289967">
        <ele>2118.0</ele>
        <time>2014-06-30T11:36:29Z</time>
      </trkpt>
      <trkpt lat="40.429900" lon="-5.289950">
        <ele>2118.0</ele>
        <time>2014-06-30T11:36:30Z</time>
      </trkpt>
      <trkpt lat="40.429983" lon="-5.289933">
        <ele>2118.0</ele>
        <time>2014-06-30T11:36:31Z</time>
      </trkpt>
      <trkpt lat="40.430050" lon="-5.289917">
        <ele>2117.0</ele>
        <time>2014-06-30T11:36:32Z</time>
      </trkpt>
      <trkpt lat="40.430133" lon="-5.289917">
        <ele>2116.0</ele>
        <time>2014-06-30T11:36:33Z</time>
      </trkpt>
      <trkpt lat="40.430200" lon="-5.289917">
        <ele>2115.0</ele>
        <time>2014-06-30T11:36:34Z</time>
      </trkpt>
      <trkpt lat="40.430250" lon="-5.289950">
        <ele>2114.0</ele>
        <time>2014-06-30T11:36:35Z</time>
      </trkpt>
      <trkpt lat="40.430300" lon="-5.289967">
        <ele>2113.0</ele>
        <time>2014-06-30T11:36:36Z</time>
      </trkpt>
      <trkpt lat="40.430333" lon="-5.290000">
        <ele>2112.0</ele>
        <time>2014-06-30T11:36:37Z</time>
      </trkpt>
      <trkpt lat="40.430367" lon="-5.290050">
        <ele>2110.0</ele>
        <time>2014-06-30T11:36:38Z</time>
      </trkpt>
      <trkpt lat="40.430383" lon="-5.290100">
        <ele>2111.0</ele>
        <time>2014-06-30T11:36:39Z</time>
      </trkpt>
      <trkpt lat="40.430400" lon="-5.290167">
        <ele>2109.0</ele>
        <time>2014-06-30T11:36:40Z</time>
      </trkpt>
      <trkpt lat="40.430400" lon="-5.290233">
        <ele>2106.0</ele>
        <time>2014-06-30T11:36:41Z</time>
      </trkpt>
      <trkpt lat="40.430383" lon="-5.290317">
        <ele>2108.0</ele>
        <time>2014-06-30T11:36:42Z</time>
      </trkpt>
      <trkpt lat="40.430383" lon="-5.290383">
        <ele>2107.0</ele>
        <time>2014-06-30T11:36:43Z</time>
      </trkpt>
      <trkpt lat="40.430383" lon="-5.290433">
        <ele>2107.0</ele>
        <time>2014-06-30T11:36:44Z</time>
      </trkpt>
      <trkpt lat="40.430400" lon="-5.290483">
        <ele>2107.0</ele>
        <time>2014-06-30T11:36:45Z</time>
      </trkpt>
      <trkpt lat="40.430417" lon="-5.290533">
        <ele>2107.0</ele>
        <time>2014-06-30T11:36:46Z</time>
      </trkpt>
      <trkpt lat="40.430417" lon="-5.290617">
        <ele>2106.0</ele>
        <time>2014-06-30T11:36:47Z</time>
      </trkpt>
      <trkpt lat="40.430433" lon="-5.290700">
        <ele>2106.0</ele>
        <time>2014-06-30T11:36:48Z</time>
      </trkpt>
      <trkpt lat="40.430433" lon="-5.290783">
        <ele>2106.0</ele>
        <time>2014-06-30T11:36:49Z</time>
      </trkpt>
      <trkpt lat="40.430433" lon="-5.290850">
        <ele>2106.0</ele>
        <time>2014-06-30T11:36:50Z</time>
      </trkpt>
      <trkpt lat="40.430450" lon="-5.290900">
        <ele>2105.0</ele>
        <time>2014-06-30T11:36:51Z</time>
      </trkpt>
      <trkpt lat="40.430450" lon="-5.290967">
        <ele>2105.0</ele>
        <time>2014-06-30T11:36:52Z</time>
      </trkpt>
      <trkpt lat="40.430467" lon="-5.291067">
        <ele>2105.0</ele>
        <time>2014-06-30T11:36:53Z</time>
      </trkpt>
      <trkpt lat="40.430483" lon="-5.291150">
        <ele>2104.0</ele>
        <time>2014-06-30T11:36:54Z</time>
      </trkpt>
      <trkpt lat="40.430517" lon="-5.291250">
        <ele>2104.0</ele>
        <time>2014-06-30T11:36:55Z</time>
      </trkpt>
      <trkpt lat="40.430550" lon="-5.291317">
        <ele>2103.0</ele>
        <time>2014-06-30T11:36:56Z</time>
      </trkpt>
      <trkpt lat="40.430583" lon="-5.291383">
        <ele>2103.0</ele>
        <time>2014-06-30T11:36:57Z</time>
      </trkpt>
      <trkpt lat="40.430617" lon="-5.291450">
        <ele>2103.0</ele>
        <time>2014-06-30T11:36:58Z</time>
      </trkpt>
      <trkpt lat="40.430633" lon="-5.291533">
        <ele>2103.0</ele>
        <time>2014-06-30T11:36:59Z</time>
      </trkpt>
      <trkpt lat="40.430650" lon="-5.291583">
        <ele>2104.0</ele>
        <time>2014-06-30T11:37:00Z</time>
      </trkpt>
      <trkpt lat="40.430667" lon="-5.291633">
        <ele>2105.0</ele>
        <time>2014-06-30T11:37:01Z</time>
      </trkpt>
      <trkpt lat="40.430700" lon="-5.291667">
        <ele>2106.0</ele>
        <time>2014-06-30T11:37:02Z</time>
      </trkpt>
      <trkpt lat="40.430733" lon="-5.291683">
        <ele>2107.0</ele>
        <time>2014-06-30T11:37:03Z</time>
      </trkpt>
      <trkpt lat="40.430767" lon="-5.291683">
        <ele>2106.0</ele>
        <time>2014-06-30T11:37:04Z</time>
      </trkpt>
      <trkpt lat="40.430800" lon="-5.291683">
        <ele>2106.0</ele>
        <time>2014-06-30T11:37:05Z</time>
      </trkpt>
      <trkpt lat="40.430850" lon="-5.291683">
        <ele>2106.0</ele>
        <time>2014-06-30T11:37:06Z</time>
      </trkpt>
      <trkpt lat="40.430883" lon="-5.291700">
        <ele>2106.0</ele>
        <time>2014-06-30T11:37:07Z</time>
      </trkpt>
      <trkpt lat="40.430917" lon="-5.291700">
        <ele>2108.0</ele>
        <time>2014-06-30T11:37:08Z</time>
      </trkpt>
      <trkpt lat="40.430933" lon="-5.291733">
        <ele>2109.0</ele>
        <time>2014-06-30T11:37:09Z</time>
      </trkpt>
      <trkpt lat="40.430950" lon="-5.291783">
        <ele>2111.0</ele>
        <time>2014-06-30T11:37:10Z</time>
      </trkpt>
      <trkpt lat="40.430933" lon="-5.291850">
        <ele>2112.0</ele>
        <time>2014-06-30T11:37:11Z</time>
      </trkpt>
      <trkpt lat="40.430917" lon="-5.291900">
        <ele>2115.0</ele>
        <time>2014-06-30T11:37:12Z</time>
      </trkpt>
      <trkpt lat="40.430900" lon="-5.291933">
        <ele>2117.0</ele>
        <time>2014-06-30T11:37:13Z</time>
      </trkpt>
      <trkpt lat="40.430883" lon="-5.291950">
        <ele>2118.0</ele>
        <time>2014-06-30T11:37:14Z</time>
      </trkpt>
      <trkpt lat="40.430867" lon="-5.291983">
        <ele>2119.0</ele>
        <time>2014-06-30T11:37:15Z</time>
      </trkpt>
      <trkpt lat="40.430817" lon="-5.292033">
        <ele>2117.0</ele>
        <time>2014-06-30T11:37:16Z</time>
      </trkpt>
      <trkpt lat="40.430750" lon="-5.292117">
        <ele>2117.0</ele>
        <time>2014-06-30T11:37:17Z</time>
      </trkpt>
      <trkpt lat="40.430633" lon="-5.292150">
        <ele>2117.0</ele>
        <time>2014-06-30T11:37:18Z</time>
      </trkpt>
      <trkpt lat="40.430533" lon="-5.292167">
        <ele>2117.0</ele>
        <time>2014-06-30T11:37:19Z</time>
      </trkpt>
      <trkpt lat="40.430433" lon="-5.292167">
        <ele>2118.0</ele>
        <time>2014-06-30T11:37:20Z</time>
      </trkpt>
      <trkpt lat="40.430350" lon="-5.292133">
        <ele>2120.0</ele>
        <time>2014-06-30T11:37:21Z</time>
      </trkpt>
      <trkpt lat="40.430283" lon="-5.292100">
        <ele>2121.0</ele>
        <time>2014-06-30T11:37:22Z</time>
      </trkpt>
      <trkpt lat="40.430217" lon="-5.292050">
        <ele>2122.0</ele>
        <time>2014-06-30T11:37:23Z</time>
      </trkpt>
      <trkpt lat="40.430133" lon="-5.291967">
        <ele>2123.0</ele>
        <time>2014-06-30T11:37:24Z</time>
      </trkpt>
      <trkpt lat="40.430050" lon="-5.291867">
        <ele>2123.0</ele>
        <time>2014-06-30T11:37:25Z</time>
      </trkpt>
      <trkpt lat="40.430000" lon="-5.291733">
        <ele>2124.0</ele>
        <time>2014-06-30T11:37:26Z</time>
      </trkpt>
      <trkpt lat="40.429967" lon="-5.291600">
        <ele>2124.0</ele>
        <time>2014-06-30T11:37:27Z</time>
      </trkpt>
      <trkpt lat="40.429967" lon="-5.291433">
        <ele>2124.0</ele>
        <time>2014-06-30T11:37:28Z</time>
      </trkpt>
      <trkpt lat="40.430017" lon="-5.291300">
        <ele>2125.0</ele>
        <time>2014-06-30T11:37:29Z</time>
      </trkpt>
      <trkpt lat="40.430067" lon="-5.291167">
        <ele>2127.0</ele>
        <time>2014-06-30T11:37:30Z</time>
      </trkpt>
      <trkpt lat="40.430133" lon="-5.291067">
        <ele>2129.0</ele>
        <time>2014-06-30T11:37:31Z</time>
      </trkpt>
      <trkpt lat="40.430183" lon="-5.290950">
        <ele>2130.0</ele>
        <time>2014-06-30T11:37:32Z</time>
      </trkpt>
      <trkpt lat="40.430233" lon="-5.290850">
        <ele>2131.0</ele>
        <time>2014-06-30T11:37:33Z</time>
      </trkpt>
      <trkpt lat="40.430300" lon="-5.290733">
        <ele>2132.0</ele>
        <time>2014-06-30T11:37:34Z</time>
      </trkpt>
      <trkpt lat="40.430367" lon="-5.290617">
        <ele>2134.0</ele>
        <time>2014-06-30T11:37:35Z</time>
      </trkpt>
      <trkpt lat="40.430467" lon="-5.290533">
        <ele>2137.0</ele>
        <time>2014-06-30T11:37:36Z</time>
      </trkpt>
      <trkpt lat="40.430533" lon="-5.290450">
        <ele>2139.0</ele>
        <time>2014-06-30T11:37:37Z</time>
      </trkpt>
      <trkpt lat="40.430617" lon="-5.290367">
        <ele>2142.0</ele>
        <time>2014-06-30T11:37:38Z</time>
      </trkpt>
      <trkpt lat="40.430683" lon="-5.290283">
        <ele>2144.0</ele>
        <time>2014-06-30T11:37:39Z</time>
      </trkpt>
      <trkpt lat="40.430733" lon="-5.290233">
        <ele>2147.0</ele>
        <time>2014-06-30T11:37:40Z</time>
      </trkpt>
      <trkpt lat="40.430767" lon="-5.290183">
        <ele>2144.0</ele>
        <time>2014-06-30T11:37:41Z</time>
      </trkpt>
      <trkpt lat="40.430817" lon="-5.290167">
        <ele>2144.0</ele>
        <time>2014-06-30T11:37:42Z</time>
      </trkpt>
      <trkpt lat="40.430867" lon="-5.290167">
        <ele>2145.0</ele>
        <time>2014-06-30T11:37:43Z</time>
      </trkpt>
      <trkpt lat="40.430917" lon="-5.290167">
        <ele>2145.0</ele>
        <time>2014-06-30T11:37:44Z</time>
      </trkpt>
      <trkpt lat="40.430967" lon="-5.290183">
        <ele>2146.0</ele>
        <time>2014-06-30T11:37:45Z</time>
      </trkpt>
      <trkpt lat="40.431017" lon="-5.290183">
        <ele>2147.0</ele>
        <time>2014-06-30T11:37:46Z</time>
      </trkpt>
      <trkpt lat="40.431067" lon="-5.290183">
        <ele>2149.0</ele>
        <time>2014-06-30T11:37:47Z</time>
      </trkpt>
      <trkpt lat="40.431100" lon="-5.290183">
        <ele>2151.0</ele>
        <time>2014-06-30T11:37:48Z</time>
      </trkpt>
      <trkpt lat="40.431133" lon="-5.290183">
        <ele>2153.0</ele>
        <time>2014-06-30T11:37:49Z</time>
      </trkpt>
      <trkpt lat="40.431167" lon="-5.290200">
        <ele>2152.0</ele>
        <time>2014-06-30T11:37:50Z</time>
      </trkpt>
      <trkpt lat="40.431200" lon="-5.290200">
        <ele>2153.0</ele>
        <time>2014-06-30T11:37:51Z</time>
      </trkpt>
      <trkpt lat="40.431200" lon="-5.290250">
        <ele>2154.0</ele>
        <time>2014-06-30T11:37:52Z</time>
      </trkpt>
      <trkpt lat="40.431183" lon="-5.290283">
        <ele>2154.0</ele>
        <time>2014-06-30T11:37:53Z</time>
      </trkpt>
      <trkpt lat="40.431117" lon="-5.290317">
        <ele>2156.0</ele>
        <time>2014-06-30T11:37:54Z</time>
      </trkpt>
      <trkpt lat="40.431033" lon="-5.290333">
        <ele>2158.0</ele>
        <time>2014-06-30T11:37:55Z</time>
      </trkpt>
      <trkpt lat="40.430950" lon="-5.290300">
        <ele>2160.0</ele>
        <time>2014-06-30T11:37:56Z</time>
      </trkpt>
      <trkpt lat="40.430883" lon="-5.290267">
        <ele>2162.0</ele>
        <time>2014-06-30T11:37:57Z</time>
      </trkpt>
      <trkpt lat="40.430800" lon="-5.290217">
        <ele>2163.0</ele>
        <time>2014-06-30T11:37:58Z</time>
      </trkpt>
      <trkpt lat="40.430700" lon="-5.290150">
        <ele>2164.0</ele>
        <time>2014-06-30T11:37:59Z</time>
      </trkpt>
      <trkpt lat="40.430617" lon="-5.290067">
        <ele>2165.0</ele>
        <time>2014-06-30T11:38:00Z</time>
      </trkpt>
      <trkpt lat="40.430550" lon="-5.289917">
        <ele>2166.0</ele>
        <time>2014-06-30T11:38:01Z</time>
      </trkpt>
      <trkpt lat="40.430500" lon="-5.289750">
        <ele>2167.0</ele>
        <time>2014-06-30T11:38:02Z</time>
      </trkpt>
      <trkpt lat="40.430500" lon="-5.289583">
        <ele>2169.0</ele>
        <time>2014-06-30T11:38:03Z</time>
      </trkpt>
      <trkpt lat="40.430500" lon="-5.289417">
        <ele>2171.0</ele>
        <time>2014-06-30T11:38:04Z</time>
      </trkpt>
      <trkpt lat="40.430533" lon="-5.289267">
        <ele>2174.0</ele>
        <time>2014-06-30T11:38:05Z</time>
      </trkpt>
      <trkpt lat="40.430583" lon="-5.289133">
        <ele>2177.0</ele>
        <time>2014-06-30T11:38:06Z</time>
      </trkpt>
      <trkpt lat="40.430617" lon="-5.289033">
        <ele>2180.0</ele>
        <time>2014-06-30T11:38:07Z</time>
      </trkpt>
      <trkpt lat="40.430667" lon="-5.288950">
        <ele>2182.0</ele>
        <time>2014-06-30T11:38:08Z</time>
      </trkpt>
      <trkpt lat="40.430717" lon="-5.288867">
        <ele>2181.0</ele>
        <time>2014-06-30T11:38:09Z</time>
      </trkpt>
      <trkpt lat="40.430783" lon="-5.288800">
        <ele>2181.0</ele>
        <time>2014-06-30T11:38:10Z</time>
      </trkpt>
      <trkpt lat="40.430867" lon="-5.288750">
        <ele>2181.0</ele>
        <time>2014-06-30T11:38:11Z</time>
      </trkpt>
      <trkpt lat="40.430967" lon="-5.288717">
        <ele>2181.0</ele>
        <time>2014-06-30T11:38:12Z</time>
      </trkpt>
      <trkpt lat="40.431083" lon="-5.288700">
        <ele>2181.0</ele>
        <time>2014-06-30T11:38:13Z</time>
      </trkpt>
      <trkpt lat="40.431167" lon="-5.288683">
        <ele>2181.0</ele>
        <time>2014-06-30T11:38:14Z</time>
      </trkpt>
      <trkpt lat="40.431267" lon="-5.288650">
        <ele>2183.0</ele>
        <time>2014-06-30T11:38:15Z</time>
      </trkpt>
      <trkpt lat="40.431350" lon="-5.288633">
        <ele>2183.0</ele>
        <time>2014-06-30T11:38:16Z</time>
      </trkpt>
      <trkpt lat="40.431433" lon="-5.288583">
        <ele>2183.0</ele>
        <time>2014-06-30T11:38:17Z</time>
      </trkpt>
      <trkpt lat="40.431550" lon="-5.288533">
        <ele>2184.0</ele>
        <time>2014-06-30T11:38:18Z</time>
      </trkpt>
      <trkpt lat="40.431667" lon="-5.288517">
        <ele>2183.0</ele>
        <time>2014-06-30T11:38:19Z</time>
      </trkpt>
      <trkpt lat="40.431767" lon="-5.288517">
        <ele>2184.0</ele>
        <time>2014-06-30T11:38:20Z</time>
      </trkpt>
      <trkpt lat="40.431867" lon="-5.288517">
        <ele>2184.0</ele>
        <time>2014-06-30T11:38:21Z</time>
      </trkpt>
      <trkpt lat="40.431950" lon="-5.288517">
        <ele>2185.0</ele>
        <time>2014-06-30T11:38:22Z</time>
      </trkpt>
      <trkpt lat="40.432017" lon="-5.288517">
        <ele>2185.0</ele>
        <time>2014-06-30T11:38:23Z</time>
      </trkpt>
      <trkpt lat="40.432100" lon="-5.288500">
        <ele>2185.0</ele>
        <time>2014-06-30T11:38:24Z</time>
      </trkpt>
      <trkpt lat="40.432167" lon="-5.288467">
        <ele>2185.0</ele>
        <time>2014-06-30T11:38:25Z</time>
      </trkpt>
      <trkpt lat="40.432217" lon="-5.288433">
        <ele>2186.0</ele>
        <time>2014-06-30T11:38:26Z</time>
      </trkpt>
      <trkpt lat="40.432267" lon="-5.288400">
        <ele>2186.0</ele>
        <time>2014-06-30T11:38:27Z</time>
      </trkpt>
      <trkpt lat="40.432317" lon="-5.288383">
        <ele>2186.0</ele>
        <time>2014-06-30T11:38:28Z</time>
      </trkpt>
      <trkpt lat="40.432367" lon="-5.288417">
        <ele>2186.0</ele>
        <time>2014-06-30T11:38:29Z</time>
      </trkpt>
      <trkpt lat="40.432400" lon="-5.288483">
        <ele>2184.0</ele>
        <time>2014-06-30T11:38:30Z</time>
      </trkpt>
      <trkpt lat="40.432417" lon="-5.288550">
        <ele>2184.0</ele>
        <time>2014-06-30T11:38:31Z</time>
      </trkpt>
      <trkpt lat="40.432450" lon="-5.288600">
        <ele>2183.0</ele>
        <time>2014-06-30T11:38:32Z</time>
      </trkpt>
      <trkpt lat="40.432483" lon="-5.288633">
        <ele>2183.0</ele>
        <time>2014-06-30T11:38:33Z</time>
      </trkpt>
      <trkpt lat="40.432517" lon="-5.288650">
        <ele>2182.0</ele>
        <time>2014-06-30T11:38:34Z</time>
      </trkpt>
      <trkpt lat="40.432533" lon="-5.288683">
        <ele>2181.0</ele>
        <time>2014-06-30T11:38:35Z</time>
      </trkpt>
      <trkpt lat="40.432533" lon="-5.288750">
        <ele>2179.0</ele>
        <time>2014-06-30T11:38:36Z</time>
      </trkpt>
      <trkpt lat="40.432533" lon="-5.288850">
        <ele>2177.0</ele>
        <time>2014-06-30T11:38:37Z</time>
      </trkpt>
      <trkpt lat="40.432533" lon="-5.288917">
        <ele>2175.0</ele>
        <time>2014-06-30T11:38:38Z</time>
      </trkpt>
      <trkpt lat="40.432517" lon="-5.288983">
        <ele>2175.0</ele>
        <time>2014-06-30T11:38:39Z</time>
      </trkpt>
      <trkpt lat="40.432517" lon="-5.289033">
        <ele>2175.0</ele>
        <time>2014-06-30T11:38:40Z</time>
      </trkpt>
      <trkpt lat="40.432500" lon="-5.289067">
        <ele>2175.0</ele>
        <time>2014-06-30T11:38:41Z</time>
      </trkpt>
      <trkpt lat="40.432483" lon="-5.289083">
        <ele>2176.0</ele>
        <time>2014-06-30T11:38:42Z</time>
      </trkpt>
      <trkpt lat="40.432467" lon="-5.289083">
        <ele>2178.0</ele>
        <time>2014-06-30T11:38:43Z</time>
      </trkpt>
      <trkpt lat="40.432450" lon="-5.289067">
        <ele>2179.0</ele>
        <time>2014-06-30T11:38:44Z</time>
      </trkpt>
      <trkpt lat="40.432417" lon="-5.289033">
        <ele>2179.0</ele>
        <time>2014-06-30T11:38:45Z</time>
      </trkpt>
      <trkpt lat="40.432383" lon="-5.289000">
        <ele>2179.0</ele>
        <time>2014-06-30T11:38:46Z</time>
      </trkpt>
      <trkpt lat="40.432333" lon="-5.288967">
        <ele>2179.0</ele>
        <time>2014-06-30T11:38:47Z</time>
      </trkpt>
      <trkpt lat="40.432267" lon="-5.288900">
        <ele>2179.0</ele>
        <time>2014-06-30T11:38:48Z</time>
      </trkpt>
      <trkpt lat="40.432200" lon="-5.288800">
        <ele>2177.0</ele>
        <time>2014-06-30T11:38:49Z</time>
      </trkpt>
      <trkpt lat="40.432133" lon="-5.288683">
        <ele>2176.0</ele>
        <time>2014-06-30T11:38:50Z</time>
      </trkpt>
      <trkpt lat="40.432067" lon="-5.288533">
        <ele>2177.0</ele>
        <time>2014-06-30T11:38:51Z</time>
      </trkpt>
      <trkpt lat="40.432000" lon="-5.288400">
        <ele>2178.0</ele>
        <time>2014-06-30T11:38:52Z</time>
      </trkpt>
      <trkpt lat="40.431950" lon="-5.288250">
        <ele>2180.0</ele>
        <time>2014-06-30T11:38:53Z</time>
      </trkpt>
      <trkpt lat="40.431917" lon="-5.288117">
        <ele>2181.0</ele>
        <time>2014-06-30T11:38:54Z</time>
      </trkpt>
      <trkpt lat="40.431900" lon="-5.287967">
        <ele>2182.0</ele>
        <time>2014-06-30T11:38:55Z</time>
      </trkpt>
      <trkpt lat="40.431900" lon="-5.287800">
        <ele>2181.0</ele>
        <time>2014-06-30T11:38:56Z</time>
      </trkpt>
      <trkpt lat="40.431900" lon="-5.287633">
        <ele>2180.0</ele>
        <time>2014-06-30T11:38:57Z</time>
      </trkpt>
      <trkpt lat="40.431950" lon="-5.287450">
        <ele>2179.0</ele>
        <time>2014-06-30T11:38:58Z</time>
      </trkpt>
      <trkpt lat="40.432033" lon="-5.287300">
        <ele>2178.0</ele>
        <time>2014-06-30T11:38:59Z</time>
      </trkpt>
      <trkpt lat="40.432117" lon="-5.287167">
        <ele>2177.0</ele>
        <time>2014-06-30T11:39:00Z</time>
      </trkpt>
      <trkpt lat="40.432200" lon="-5.287050">
        <ele>2177.0</ele>
        <time>2014-06-30T11:39:01Z</time>
      </trkpt>
      <trkpt lat="40.432283" lon="-5.286950">
        <ele>2178.0</ele>
        <time>2014-06-30T11:39:02Z</time>
      </trkpt>
      <trkpt lat="40.432367" lon="-5.286867">
        <ele>2178.0</ele>
        <time>2014-06-30T11:39:03Z</time>
      </trkpt>
      <trkpt lat="40.432467" lon="-5.286767">
        <ele>2177.0</ele>
        <time>2014-06-30T11:39:04Z</time>
      </trkpt>
      <trkpt lat="40.432567" lon="-5.286683">
        <ele>2176.0</ele>
        <time>2014-06-30T11:39:05Z</time>
      </trkpt>
      <trkpt lat="40.432683" lon="-5.286583">
        <ele>2174.0</ele>
        <time>2014-06-30T11:39:06Z</time>
      </trkpt>
      <trkpt lat="40.432783" lon="-5.286517">
        <ele>2170.0</ele>
        <time>2014-06-30T11:39:07Z</time>
      </trkpt>
      <trkpt lat="40.432900" lon="-5.286450">
        <ele>2167.0</ele>
        <time>2014-06-30T11:39:08Z</time>
      </trkpt>
      <trkpt lat="40.433000" lon="-5.286383">
        <ele>2164.0</ele>
        <time>2014-06-30T11:39:09Z</time>
      </trkpt>
      <trkpt lat="40.433100" lon="-5.286317">
        <ele>2162.0</ele>
        <time>2014-06-30T11:39:10Z</time>
      </trkpt>
      <trkpt lat="40.433183" lon="-5.286233">
        <ele>2160.0</ele>
        <time>2014-06-30T11:39:11Z</time>
      </trkpt>
      <trkpt lat="40.433267" lon="-5.286167">
        <ele>2158.0</ele>
        <time>2014-06-30T11:39:12Z</time>
      </trkpt>
      <trkpt lat="40.433350" lon="-5.286100">
        <ele>2154.0</ele>
        <time>2014-06-30T11:39:13Z</time>
      </trkpt>
      <trkpt lat="40.433467" lon="-5.286067">
        <ele>2151.0</ele>
        <time>2014-06-30T11:39:14Z</time>
      </trkpt>
      <trkpt lat="40.433567" lon="-5.286017">
        <ele>2147.0</ele>
        <time>2014-06-30T11:39:15Z</time>
      </trkpt>
      <trkpt lat="40.433700" lon="-5.285967">
        <ele>2146.0</ele>
        <time>2014-06-30T11:39:16Z</time>
      </trkpt>
      <trkpt lat="40.433800" lon="-5.285933">
        <ele>2145.0</ele>
        <time>2014-06-30T11:39:17Z</time>
      </trkpt>
      <trkpt lat="40.433883" lon="-5.285900">
        <ele>2146.0</ele>
        <time>2014-06-30T11:39:18Z</time>
      </trkpt>
      <trkpt lat="40.433950" lon="-5.285883">
        <ele>2146.0</ele>
        <time>2014-06-30T11:39:19Z</time>
      </trkpt>
      <trkpt lat="40.434033" lon="-5.285883">
        <ele>2146.0</ele>
        <time>2014-06-30T11:39:20Z</time>
      </trkpt>
      <trkpt lat="40.434117" lon="-5.285850">
        <ele>2144.0</ele>
        <time>2014-06-30T11:39:21Z</time>
      </trkpt>
      <trkpt lat="40.434200" lon="-5.285817">
        <ele>2143.0</ele>
        <time>2014-06-30T11:39:22Z</time>
      </trkpt>
      <trkpt lat="40.434300" lon="-5.285767">
        <ele>2141.0</ele>
        <time>2014-06-30T11:39:23Z</time>
      </trkpt>
      <trkpt lat="40.434383" lon="-5.285750">
        <ele>2139.0</ele>
        <time>2014-06-30T11:39:24Z</time>
      </trkpt>
      <trkpt lat="40.434483" lon="-5.285733">
        <ele>2138.0</ele>
        <time>2014-06-30T11:39:25Z</time>
      </trkpt>
      <trkpt lat="40.434550" lon="-5.285717">
        <ele>2137.0</ele>
        <time>2014-06-30T11:39:26Z</time>
      </trkpt>
      <trkpt lat="40.434633" lon="-5.285667">
        <ele>2137.0</ele>
        <time>2014-06-30T11:39:27Z</time>
      </trkpt>
      <trkpt lat="40.434717" lon="-5.285633">
        <ele>2136.0</ele>
        <time>2014-06-30T11:39:28Z</time>
      </trkpt>
      <trkpt lat="40.434817" lon="-5.285600">
        <ele>2138.0</ele>
        <time>2014-06-30T11:39:29Z</time>
      </trkpt>
      <trkpt lat="40.434900" lon="-5.285600">
        <ele>2138.0</ele>
        <time>2014-06-30T11:39:30Z</time>
      </trkpt>
      <trkpt lat="40.434950" lon="-5.285617">
        <ele>2138.0</ele>
        <time>2014-06-30T11:39:31Z</time>
      </trkpt>
      <trkpt lat="40.435000" lon="-5.285650">
        <ele>2137.0</ele>
        <time>2014-06-30T11:39:32Z</time>
      </trkpt>
      <trkpt lat="40.435067" lon="-5.285650">
        <ele>2137.0</ele>
        <time>2014-06-30T11:39:33Z</time>
      </trkpt>
      <trkpt lat="40.435150" lon="-5.285633">
        <ele>2137.0</ele>
        <time>2014-06-30T11:39:34Z</time>
      </trkpt>
      <trkpt lat="40.435233" lon="-5.285617">
        <ele>2135.0</ele>
        <time>2014-06-30T11:39:35Z</time>
      </trkpt>
      <trkpt lat="40.435333" lon="-5.285583">
        <ele>2134.0</ele>
        <time>2014-06-30T11:39:36Z</time>
      </trkpt>
      <trkpt lat="40.435433" lon="-5.285567">
        <ele>2134.0</ele>
        <time>2014-06-30T11:39:37Z</time>
      </trkpt>
      <trkpt lat="40.435500" lon="-5.285567">
        <ele>2134.0</ele>
        <time>2014-06-30T11:39:38Z</time>
      </trkpt>
      <trkpt lat="40.435567" lon="-5.285550">
        <ele>2134.0</ele>
        <time>2014-06-30T11:39:39Z</time>
      </trkpt>
      <trkpt lat="40.435633" lon="-5.285517">
        <ele>2134.0</ele>
        <time>2014-06-30T11:39:40Z</time>
      </trkpt>
      <trkpt lat="40.435717" lon="-5.285500">
        <ele>2133.0</ele>
        <time>2014-06-30T11:39:41Z</time>
      </trkpt>
      <trkpt lat="40.435817" lon="-5.285467">
        <ele>2133.0</ele>
        <time>2014-06-30T11:39:42Z</time>
      </trkpt>
      <trkpt lat="40.435933" lon="-5.285450">
        <ele>2132.0</ele>
        <time>2014-06-30T11:39:43Z</time>
      </trkpt>
      <trkpt lat="40.436017" lon="-5.285433">
        <ele>2131.0</ele>
        <time>2014-06-30T11:39:44Z</time>
      </trkpt>
      <trkpt lat="40.436117" lon="-5.285383">
        <ele>2130.0</ele>
        <time>2014-06-30T11:39:45Z</time>
      </trkpt>
      <trkpt lat="40.436200" lon="-5.285350">
        <ele>2130.0</ele>
        <time>2014-06-30T11:39:46Z</time>
      </trkpt>
      <trkpt lat="40.436283" lon="-5.285300">
        <ele>2130.0</ele>
        <time>2014-06-30T11:39:47Z</time>
      </trkpt>
      <trkpt lat="40.436350" lon="-5.285250">
        <ele>2131.0</ele>
        <time>2014-06-30T11:39:48Z</time>
      </trkpt>
      <trkpt lat="40.436417" lon="-5.285217">
        <ele>2130.0</ele>
        <time>2014-06-30T11:39:49Z</time>
      </trkpt>
      <trkpt lat="40.436450" lon="-5.285167">
        <ele>2130.0</ele>
        <time>2014-06-30T11:39:50Z</time>
      </trkpt>
      <trkpt lat="40.436483" lon="-5.285117">
        <ele>2130.0</ele>
        <time>2014-06-30T11:39:51Z</time>
      </trkpt>
      <trkpt lat="40.436517" lon="-5.285067">
        <ele>2130.0</ele>
        <time>2014-06-30T11:39:52Z</time>
      </trkpt>
      <trkpt lat="40.436567" lon="-5.285017">
        <ele>2130.0</ele>
        <time>2014-06-30T11:39:53Z</time>
      </trkpt>
      <trkpt lat="40.436633" lon="-5.285000">
        <ele>2129.0</ele>
        <time>2014-06-30T11:39:54Z</time>
      </trkpt>
      <trkpt lat="40.436700" lon="-5.285000">
        <ele>2129.0</ele>
        <time>2014-06-30T11:39:55Z</time>
      </trkpt>
      <trkpt lat="40.436767" lon="-5.285017">
        <ele>2129.0</ele>
        <time>2014-06-30T11:39:56Z</time>
      </trkpt>
      <trkpt lat="40.436833" lon="-5.285017">
        <ele>2129.0</ele>
        <time>2014-06-30T11:39:57Z</time>
      </trkpt>
      <trkpt lat="40.436900" lon="-5.285033">
        <ele>2129.0</ele>
        <time>2014-06-30T11:39:58Z</time>
      </trkpt>
      <trkpt lat="40.436983" lon="-5.285033">
        <ele>2129.0</ele>
        <time>2014-06-30T11:39:59Z</time>
      </trkpt>
      <trkpt lat="40.437050" lon="-5.285050">
        <ele>2129.0</ele>
        <time>2014-06-30T11:40:00Z</time>
      </trkpt>
      <trkpt lat="40.437117" lon="-5.285067">
        <ele>2128.0</ele>
        <time>2014-06-30T11:40:01Z</time>
      </trkpt>
      <trkpt lat="40.437200" lon="-5.285083">
        <ele>2128.0</ele>
        <time>2014-06-30T11:40:02Z</time>
      </trkpt>
      <trkpt lat="40.437267" lon="-5.285083">
        <ele>2128.0</ele>
        <time>2014-06-30T11:40:03Z</time>
      </trkpt>
      <trkpt lat="40.437333" lon="-5.285100">
        <ele>2128.0</ele>
        <time>2014-06-30T11:40:04Z</time>
      </trkpt>
      <trkpt lat="40.437417" lon="-5.285083">
        <ele>2128.0</ele>
        <time>2014-06-30T11:40:05Z</time>
      </trkpt>
      <trkpt lat="40.437517" lon="-5.285067">
        <ele>2128.0</ele>
        <time>2014-06-30T11:40:06Z</time>
      </trkpt>
      <trkpt lat="40.437583" lon="-5.285067">
        <ele>2128.0</ele>
        <time>2014-06-30T11:40:07Z</time>
      </trkpt>
      <trkpt lat="40.437683" lon="-5.285067">
        <ele>2128.0</ele>
        <time>2014-06-30T11:40:08Z</time>
      </trkpt>
      <trkpt lat="40.437767" lon="-5.285067">
        <ele>2128.0</ele>
        <time>2014-06-30T11:40:09Z</time>
      </trkpt>
      <trkpt lat="40.437850" lon="-5.285083">
        <ele>2128.0</ele>
        <time>2014-06-30T11:40:10Z</time>
      </trkpt>
      <trkpt lat="40.437917" lon="-5.285083">
        <ele>2128.0</ele>
        <time>2014-06-30T11:40:11Z</time>
      </trkpt>
      <trkpt lat="40.438000" lon="-5.285083">
        <ele>2128.0</ele>
        <time>2014-06-30T11:40:12Z</time>
      </trkpt>
      <trkpt lat="40.438067" lon="-5.285083">
        <ele>2128.0</ele>
        <time>2014-06-30T11:40:13Z</time>
      </trkpt>
      <trkpt lat="40.438117" lon="-5.285050">
        <ele>2128.0</ele>
        <time>2014-06-30T11:40:14Z</time>
      </trkpt>
      <trkpt lat="40.438167" lon="-5.285017">
        <ele>2128.0</ele>
        <time>2014-06-30T11:40:15Z</time>
      </trkpt>
      <trkpt lat="40.438217" lon="-5.284983">
        <ele>2129.0</ele>
        <time>2014-06-30T11:40:16Z</time>
      </trkpt>
      <trkpt lat="40.438250" lon="-5.284983">
        <ele>2129.0</ele>
        <time>2014-06-30T11:40:17Z</time>
      </trkpt>
      <trkpt lat="40.438300" lon="-5.284983">
        <ele>2130.0</ele>
        <time>2014-06-30T11:40:18Z</time>
      </trkpt>
      <trkpt lat="40.438333" lon="-5.285033">
        <ele>2131.0</ele>
        <time>2014-06-30T11:40:19Z</time>
      </trkpt>
      <trkpt lat="40.438317" lon="-5.285083">
        <ele>2131.0</ele>
        <time>2014-06-30T11:40:20Z</time>
      </trkpt>
      <trkpt lat="40.438250" lon="-5.285117">
        <ele>2133.0</ele>
        <time>2014-06-30T11:40:21Z</time>
      </trkpt>
      <trkpt lat="40.438167" lon="-5.285083">
        <ele>2134.0</ele>
        <time>2014-06-30T11:40:22Z</time>
      </trkpt>
      <trkpt lat="40.438083" lon="-5.284983">
        <ele>2135.0</ele>
        <time>2014-06-30T11:40:23Z</time>
      </trkpt>
      <trkpt lat="40.438033" lon="-5.284867">
        <ele>2137.0</ele>
        <time>2014-06-30T11:40:24Z</time>
      </trkpt>
      <trkpt lat="40.438033" lon="-5.284717">
        <ele>2138.0</ele>
        <time>2014-06-30T11:40:25Z</time>
      </trkpt>
      <trkpt lat="40.438050" lon="-5.284550">
        <ele>2140.0</ele>
        <time>2014-06-30T11:40:26Z</time>
      </trkpt>
      <trkpt lat="40.438067" lon="-5.284417">
        <ele>2142.0</ele>
        <time>2014-06-30T11:40:27Z</time>
      </trkpt>
      <trkpt lat="40.438100" lon="-5.284300">
        <ele>2145.0</ele>
        <time>2014-06-30T11:40:28Z</time>
      </trkpt>
      <trkpt lat="40.438117" lon="-5.284200">
        <ele>2148.0</ele>
        <time>2014-06-30T11:40:29Z</time>
      </trkpt>
      <trkpt lat="40.438183" lon="-5.284100">
        <ele>2148.0</ele>
        <time>2014-06-30T11:40:30Z</time>
      </trkpt>
      <trkpt lat="40.438250" lon="-5.284033">
        <ele>2148.0</ele>
        <time>2014-06-30T11:40:31Z</time>
      </trkpt>
      <trkpt lat="40.438317" lon="-5.284017">
        <ele>2148.0</ele>
        <time>2014-06-30T11:40:32Z</time>
      </trkpt>
      <trkpt lat="40.438367" lon="-5.284033">
        <ele>2148.0</ele>
        <time>2014-06-30T11:40:33Z</time>
      </trkpt>
      <trkpt lat="40.438400" lon="-5.284083">
        <ele>2147.0</ele>
        <time>2014-06-30T11:40:34Z</time>
      </trkpt>
      <trkpt lat="40.438383" lon="-5.284150">
        <ele>2147.0</ele>
        <time>2014-06-30T11:40:35Z</time>
      </trkpt>
      <trkpt lat="40.438333" lon="-5.284200">
        <ele>2148.0</ele>
        <time>2014-06-30T11:40:36Z</time>
      </trkpt>
      <trkpt lat="40.438267" lon="-5.284217">
        <ele>2149.0</ele>
        <time>2014-06-30T11:40:37Z</time>
      </trkpt>
      <trkpt lat="40.438183" lon="-5.284200">
        <ele>2150.0</ele>
        <time>2014-06-30T11:40:38Z</time>
      </trkpt>
      <trkpt lat="40.438067" lon="-5.284133">
        <ele>2150.0</ele>
        <time>2014-06-30T11:40:39Z</time>
      </trkpt>
      <trkpt lat="40.437967" lon="-5.284033">
        <ele>2153.0</ele>
        <time>2014-06-30T11:40:40Z</time>
      </trkpt>
      <trkpt lat="40.437900" lon="-5.283933">
        <ele>2156.0</ele>
        <time>2014-06-30T11:40:41Z</time>
      </trkpt>
      <trkpt lat="40.437833" lon="-5.283817">
        <ele>2158.0</ele>
        <time>2014-06-30T11:40:42Z</time>
      </trkpt>
      <trkpt lat="40.437800" lon="-5.283700">
        <ele>2160.0</ele>
        <time>2014-06-30T11:40:43Z</time>
      </trkpt>
      <trkpt lat="40.437783" lon="-5.283550">
        <ele>2160.0</ele>
        <time>2014-06-30T11:40:44Z</time>
      </trkpt>
      <trkpt lat="40.437783" lon="-5.283367">
        <ele>2161.0</ele>
        <time>2014-06-30T11:40:45Z</time>
      </trkpt>
      <trkpt lat="40.437817" lon="-5.283217">
        <ele>2162.0</ele>
        <time>2014-06-30T11:40:46Z</time>
      </trkpt>
      <trkpt lat="40.437850" lon="-5.283083">
        <ele>2164.0</ele>
        <time>2014-06-30T11:40:47Z</time>
      </trkpt>
      <trkpt lat="40.437900" lon="-5.282983">
        <ele>2165.0</ele>
        <time>2014-06-30T11:40:48Z</time>
      </trkpt>
      <trkpt lat="40.437967" lon="-5.282900">
        <ele>2166.0</ele>
        <time>2014-06-30T11:40:49Z</time>
      </trkpt>
      <trkpt lat="40.438033" lon="-5.282867">
        <ele>2164.0</ele>
        <time>2014-06-30T11:40:50Z</time>
      </trkpt>
      <trkpt lat="40.438117" lon="-5.282867">
        <ele>2164.0</ele>
        <time>2014-06-30T11:40:51Z</time>
      </trkpt>
      <trkpt lat="40.438183" lon="-5.282900">
        <ele>2163.0</ele>
        <time>2014-06-30T11:40:52Z</time>
      </trkpt>
      <trkpt lat="40.438217" lon="-5.282967">
        <ele>2163.0</ele>
        <time>2014-06-30T11:40:53Z</time>
      </trkpt>
      <trkpt lat="40.438217" lon="-5.283033">
        <ele>2163.0</ele>
        <time>2014-06-30T11:40:54Z</time>
      </trkpt>
      <trkpt lat="40.438200" lon="-5.283100">
        <ele>2164.0</ele>
        <time>2014-06-30T11:40:55Z</time>
      </trkpt>
      <trkpt lat="40.438183" lon="-5.283150">
        <ele>2164.0</ele>
        <time>2014-06-30T11:40:56Z</time>
      </trkpt>
      <trkpt lat="40.438150" lon="-5.283200">
        <ele>2164.0</ele>
        <time>2014-06-30T11:40:57Z</time>
      </trkpt>
      <trkpt lat="40.438133" lon="-5.283233">
        <ele>2164.0</ele>
        <time>2014-06-30T11:40:58Z</time>
      </trkpt>
      <trkpt lat="40.438083" lon="-5.283267">
        <ele>2165.0</ele>
        <time>2014-06-30T11:40:59Z</time>
      </trkpt>
      <trkpt lat="40.438033" lon="-5.283283">
        <ele>2165.0</ele>
        <time>2014-06-30T11:41:00Z</time>
      </trkpt>
      <trkpt lat="40.437967" lon="-5.283283">
        <ele>2166.0</ele>
        <time>2014-06-30T11:41:01Z</time>
      </trkpt>
      <trkpt lat="40.437883" lon="-5.283250">
        <ele>2167.0</ele>
        <time>2014-06-30T11:41:02Z</time>
      </trkpt>
      <trkpt lat="40.437783" lon="-5.283200">
        <ele>2167.0</ele>
        <time>2014-06-30T11:41:03Z</time>
      </trkpt>
      <trkpt lat="40.437717" lon="-5.283117">
        <ele>2168.0</ele>
        <time>2014-06-30T11:41:04Z</time>
      </trkpt>
      <trkpt lat="40.437650" lon="-5.283000">
        <ele>2168.0</ele>
        <time>2014-06-30T11:41:05Z</time>
      </trkpt>
      <trkpt lat="40.437600" lon="-5.282833">
        <ele>2168.0</ele>
        <time>2014-06-30T11:41:06Z</time>
      </trkpt>
      <trkpt lat="40.437583" lon="-5.282683">
        <ele>2167.0</ele>
        <time>2014-06-30T11:41:07Z</time>
      </trkpt>
      <trkpt lat="40.437600" lon="-5.282517">
        <ele>2167.0</ele>
        <time>2014-06-30T11:41:08Z</time>
      </trkpt>
      <trkpt lat="40.437650" lon="-5.282367">
        <ele>2167.0</ele>
        <time>2014-06-30T11:41:09Z</time>
      </trkpt>
      <trkpt lat="40.437717" lon="-5.282233">
        <ele>2167.0</ele>
        <time>2014-06-30T11:41:10Z</time>
      </trkpt>
      <trkpt lat="40.437800" lon="-5.282117">
        <ele>2170.0</ele>
        <time>2014-06-30T11:41:11Z</time>
      </trkpt>
      <trkpt lat="40.437883" lon="-5.282017">
        <ele>2171.0</ele>
        <time>2014-06-30T11:41:12Z</time>
      </trkpt>
      <trkpt lat="40.437950" lon="-5.281917">
        <ele>2172.0</ele>
        <time>2014-06-30T11:41:13Z</time>
      </trkpt>
      <trkpt lat="40.438017" lon="-5.281817">
        <ele>2172.0</ele>
        <time>2014-06-30T11:41:14Z</time>
      </trkpt>
      <trkpt lat="40.438100" lon="-5.281733">
        <ele>2171.0</ele>
        <time>2014-06-30T11:41:15Z</time>
      </trkpt>
      <trkpt lat="40.438217" lon="-5.281683">
        <ele>2170.0</ele>
        <time>2014-06-30T11:41:16Z</time>
      </trkpt>
      <trkpt lat="40.438333" lon="-5.281633">
        <ele>2168.0</ele>
        <time>2014-06-30T11:41:17Z</time>
      </trkpt>
      <trkpt lat="40.438433" lon="-5.281600">
        <ele>2166.0</ele>
        <time>2014-06-30T11:41:18Z</time>
      </trkpt>
      <trkpt lat="40.438533" lon="-5.281567">
        <ele>2165.0</ele>
        <time>2014-06-30T11:41:19Z</time>
      </trkpt>
      <trkpt lat="40.438617" lon="-5.281517">
        <ele>2164.0</ele>
        <time>2014-06-30T11:41:20Z</time>
      </trkpt>
      <trkpt lat="40.438717" lon="-5.281467">
        <ele>2162.0</ele>
        <time>2014-06-30T11:41:21Z</time>
      </trkpt>
      <trkpt lat="40.438817" lon="-5.281433">
        <ele>2160.0</ele>
        <time>2014-06-30T11:41:22Z</time>
      </trkpt>
      <trkpt lat="40.438917" lon="-5.281400">
        <ele>2158.0</ele>
        <time>2014-06-30T11:41:23Z</time>
      </trkpt>
      <trkpt lat="40.439017" lon="-5.281367">
        <ele>2156.0</ele>
        <time>2014-06-30T11:41:24Z</time>
      </trkpt>
      <trkpt lat="40.439100" lon="-5.281317">
        <ele>2154.0</ele>
        <time>2014-06-30T11:41:25Z</time>
      </trkpt>
      <trkpt lat="40.439183" lon="-5.281250">
        <ele>2152.0</ele>
        <time>2014-06-30T11:41:26Z</time>
      </trkpt>
      <trkpt lat="40.439267" lon="-5.281217">
        <ele>2151.0</ele>
        <time>2014-06-30T11:41:27Z</time>
      </trkpt>
      <trkpt lat="40.439350" lon="-5.281183">
        <ele>2149.0</ele>
        <time>2014-06-30T11:41:28Z</time>
      </trkpt>
      <trkpt lat="40.439467" lon="-5.281150">
        <ele>2151.0</ele>
        <time>2014-06-30T11:41:29Z</time>
      </trkpt>
      <trkpt lat="40.439550" lon="-5.281117">
        <ele>2149.0</ele>
        <time>2014-06-30T11:41:30Z</time>
      </trkpt>
      <trkpt lat="40.439650" lon="-5.281083">
        <ele>2147.0</ele>
        <time>2014-06-30T11:41:31Z</time>
      </trkpt>
      <trkpt lat="40.439733" lon="-5.281033">
        <ele>2145.0</ele>
        <time>2014-06-30T11:41:32Z</time>
      </trkpt>
      <trkpt lat="40.439833" lon="-5.281000">
        <ele>2143.0</ele>
        <time>2014-06-30T11:41:33Z</time>
      </trkpt>
      <trkpt lat="40.439900" lon="-5.280967">
        <ele>2142.0</ele>
        <time>2014-06-30T11:41:34Z</time>
      </trkpt>
      <trkpt lat="40.439983" lon="-5.280950">
        <ele>2140.0</ele>
        <time>2014-06-30T11:41:35Z</time>
      </trkpt>
      <trkpt lat="40.440117" lon="-5.280917">
        <ele>2141.0</ele>
        <time>2014-06-30T11:41:36Z</time>
      </trkpt>
      <trkpt lat="40.440200" lon="-5.280900">
        <ele>2139.0</ele>
        <time>2014-06-30T11:41:37Z</time>
      </trkpt>
      <trkpt lat="40.440300" lon="-5.280867">
        <ele>2136.0</ele>
        <time>2014-06-30T11:41:38Z</time>
      </trkpt>
      <trkpt lat="40.440383" lon="-5.280850">
        <ele>2134.0</ele>
        <time>2014-06-30T11:41:39Z</time>
      </trkpt>
      <trkpt lat="40.440483" lon="-5.280833">
        <ele>2132.0</ele>
        <time>2014-06-30T11:41:40Z</time>
      </trkpt>
      <trkpt lat="40.440567" lon="-5.280817">
        <ele>2128.0</ele>
        <time>2014-06-30T11:41:41Z</time>
      </trkpt>
      <trkpt lat="40.440667" lon="-5.280800">
        <ele>2125.0</ele>
        <time>2014-06-30T11:41:42Z</time>
      </trkpt>
      <trkpt lat="40.440750" lon="-5.280783">
        <ele>2121.0</ele>
        <time>2014-06-30T11:41:43Z</time>
      </trkpt>
      <trkpt lat="40.440850" lon="-5.280750">
        <ele>2118.0</ele>
        <time>2014-06-30T11:41:44Z</time>
      </trkpt>
      <trkpt lat="40.440950" lon="-5.280717">
        <ele>2115.0</ele>
        <time>2014-06-30T11:41:45Z</time>
      </trkpt>
      <trkpt lat="40.441050" lon="-5.280683">
        <ele>2114.0</ele>
        <time>2014-06-30T11:41:46Z</time>
      </trkpt>
      <trkpt lat="40.441133" lon="-5.280650">
        <ele>2111.0</ele>
        <time>2014-06-30T11:41:47Z</time>
      </trkpt>
      <trkpt lat="40.441233" lon="-5.280600">
        <ele>2109.0</ele>
        <time>2014-06-30T11:41:48Z</time>
      </trkpt>
      <trkpt lat="40.441333" lon="-5.280550">
        <ele>2106.0</ele>
        <time>2014-06-30T11:41:49Z</time>
      </trkpt>
      <trkpt lat="40.441433" lon="-5.280517">
        <ele>2103.0</ele>
        <time>2014-06-30T11:41:50Z</time>
      </trkpt>
      <trkpt lat="40.441550" lon="-5.280467">
        <ele>2101.0</ele>
        <time>2014-06-30T11:41:51Z</time>
      </trkpt>
      <trkpt lat="40.441650" lon="-5.280417">
        <ele>2099.0</ele>
        <time>2014-06-30T11:41:52Z</time>
      </trkpt>
      <trkpt lat="40.441733" lon="-5.280383">
        <ele>2097.0</ele>
        <time>2014-06-30T11:41:53Z</time>
      </trkpt>
      <trkpt lat="40.441817" lon="-5.280333">
        <ele>2095.0</ele>
        <time>2014-06-30T11:41:54Z</time>
      </trkpt>
      <trkpt lat="40.441917" lon="-5.280300">
        <ele>2092.0</ele>
        <time>2014-06-30T11:41:55Z</time>
      </trkpt>
      <trkpt lat="40.442017" lon="-5.280267">
        <ele>2090.0</ele>
        <time>2014-06-30T11:41:56Z</time>
      </trkpt>
      <trkpt lat="40.442117" lon="-5.280267">
        <ele>2087.0</ele>
        <time>2014-06-30T11:41:57Z</time>
      </trkpt>
      <trkpt lat="40.442200" lon="-5.280283">
        <ele>2086.0</ele>
        <time>2014-06-30T11:41:58Z</time>
      </trkpt>
      <trkpt lat="40.442283" lon="-5.280317">
        <ele>2084.0</ele>
        <time>2014-06-30T11:41:59Z</time>
      </trkpt>
      <trkpt lat="40.442350" lon="-5.280367">
        <ele>2082.0</ele>
        <time>2014-06-30T11:42:00Z</time>
      </trkpt>
      <trkpt lat="40.442450" lon="-5.280400">
        <ele>2083.0</ele>
        <time>2014-06-30T11:42:01Z</time>
      </trkpt>
      <trkpt lat="40.442517" lon="-5.280467">
        <ele>2082.0</ele>
        <time>2014-06-30T11:42:02Z</time>
      </trkpt>
      <trkpt lat="40.442600" lon="-5.280533">
        <ele>2081.0</ele>
        <time>2014-06-30T11:42:03Z</time>
      </trkpt>
      <trkpt lat="40.442667" lon="-5.280600">
        <ele>2081.0</ele>
        <time>2014-06-30T11:42:04Z</time>
      </trkpt>
      <trkpt lat="40.442733" lon="-5.280650">
        <ele>2081.0</ele>
        <time>2014-06-30T11:42:05Z</time>
      </trkpt>
      <trkpt lat="40.442767" lon="-5.280700">
        <ele>2081.0</ele>
        <time>2014-06-30T11:42:06Z</time>
      </trkpt>
      <trkpt lat="40.442817" lon="-5.280750">
        <ele>2081.0</ele>
        <time>2014-06-30T11:42:07Z</time>
      </trkpt>
      <trkpt lat="40.442850" lon="-5.280800">
        <ele>2081.0</ele>
        <time>2014-06-30T11:42:08Z</time>
      </trkpt>
      <trkpt lat="40.442883" lon="-5.280850">
        <ele>2081.0</ele>
        <time>2014-06-30T11:42:09Z</time>
      </trkpt>
      <trkpt lat="40.442950" lon="-5.280900">
        <ele>2081.0</ele>
        <time>2014-06-30T11:42:10Z</time>
      </trkpt>
      <trkpt lat="40.443017" lon="-5.280967">
        <ele>2081.0</ele>
        <time>2014-06-30T11:42:11Z</time>
      </trkpt>
      <trkpt lat="40.443083" lon="-5.281050">
        <ele>2080.0</ele>
        <time>2014-06-30T11:42:12Z</time>
      </trkpt>
      <trkpt lat="40.443133" lon="-5.281133">
        <ele>2079.0</ele>
        <time>2014-06-30T11:42:13Z</time>
      </trkpt>
      <trkpt lat="40.443167" lon="-5.281217">
        <ele>2079.0</ele>
        <time>2014-06-30T11:42:14Z</time>
      </trkpt>
      <trkpt lat="40.443217" lon="-5.281300">
        <ele>2079.0</ele>
        <time>2014-06-30T11:42:15Z</time>
      </trkpt>
      <trkpt lat="40.443250" lon="-5.281383">
        <ele>2078.0</ele>
        <time>2014-06-30T11:42:16Z</time>
      </trkpt>
      <trkpt lat="40.443300" lon="-5.281467">
        <ele>2078.0</ele>
        <time>2014-06-30T11:42:17Z</time>
      </trkpt>
      <trkpt lat="40.443383" lon="-5.281550">
        <ele>2078.0</ele>
        <time>2014-06-30T11:42:18Z</time>
      </trkpt>
      <trkpt lat="40.443450" lon="-5.281633">
        <ele>2077.0</ele>
        <time>2014-06-30T11:42:19Z</time>
      </trkpt>
      <trkpt lat="40.443500" lon="-5.281700">
        <ele>2077.0</ele>
        <time>2014-06-30T11:42:20Z</time>
      </trkpt>
      <trkpt lat="40.443533" lon="-5.281750">
        <ele>2077.0</ele>
        <time>2014-06-30T11:42:21Z</time>
      </trkpt>
      <trkpt lat="40.443550" lon="-5.281800">
        <ele>2077.0</ele>
        <time>2014-06-30T11:42:22Z</time>
      </trkpt>
      <trkpt lat="40.443567" lon="-5.281850">
        <ele>2076.0</ele>
        <time>2014-06-30T11:42:23Z</time>
      </trkpt>
      <trkpt lat="40.443567" lon="-5.281900">
        <ele>2076.0</ele>
        <time>2014-06-30T11:42:24Z</time>
      </trkpt>
      <trkpt lat="40.443583" lon="-5.281933">
        <ele>2076.0</ele>
        <time>2014-06-30T11:42:25Z</time>
      </trkpt>
      <trkpt lat="40.443567" lon="-5.281967">
        <ele>2076.0</ele>
        <time>2014-06-30T11:42:26Z</time>
      </trkpt>
      <trkpt lat="40.443533" lon="-5.282017">
        <ele>2075.0</ele>
        <time>2014-06-30T11:42:27Z</time>
      </trkpt>
      <trkpt lat="40.443467" lon="-5.282050">
        <ele>2074.0</ele>
        <time>2014-06-30T11:42:28Z</time>
      </trkpt>
      <trkpt lat="40.443383" lon="-5.282067">
        <ele>2073.0</ele>
        <time>2014-06-30T11:42:29Z</time>
      </trkpt>
      <trkpt lat="40.443267" lon="-5.282067">
        <ele>2072.0</ele>
        <time>2014-06-30T11:42:30Z</time>
      </trkpt>
      <trkpt lat="40.443150" lon="-5.282017">
        <ele>2072.0</ele>
        <time>2014-06-30T11:42:31Z</time>
      </trkpt>
      <trkpt lat="40.443067" lon="-5.281950">
        <ele>2073.0</ele>
        <time>2014-06-30T11:42:32Z</time>
      </trkpt>
      <trkpt lat="40.442983" lon="-5.281850">
        <ele>2074.0</ele>
        <time>2014-06-30T11:42:33Z</time>
      </trkpt>
      <trkpt lat="40.442917" lon="-5.281767">
        <ele>2076.0</ele>
        <time>2014-06-30T11:42:34Z</time>
      </trkpt>
      <trkpt lat="40.442867" lon="-5.281667">
        <ele>2077.0</ele>
        <time>2014-06-30T11:42:35Z</time>
      </trkpt>
      <trkpt lat="40.442833" lon="-5.281550">
        <ele>2077.0</ele>
        <time>2014-06-30T11:42:36Z</time>
      </trkpt>
      <trkpt lat="40.442833" lon="-5.281450">
        <ele>2077.0</ele>
        <time>2014-06-30T11:42:37Z</time>
      </trkpt>
      <trkpt lat="40.442867" lon="-5.281333">
        <ele>2076.0</ele>
        <time>2014-06-30T11:42:38Z</time>
      </trkpt>
      <trkpt lat="40.442917" lon="-5.281233">
        <ele>2073.0</ele>
        <time>2014-06-30T11:42:39Z</time>
      </trkpt>
      <trkpt lat="40.443017" lon="-5.281167">
        <ele>2071.0</ele>
        <time>2014-06-30T11:42:40Z</time>
      </trkpt>
      <trkpt lat="40.443100" lon="-5.281100">
        <ele>2069.0</ele>
        <time>2014-06-30T11:42:41Z</time>
      </trkpt>
      <trkpt lat="40.443183" lon="-5.281050">
        <ele>2068.0</ele>
        <time>2014-06-30T11:42:42Z</time>
      </trkpt>
      <trkpt lat="40.443267" lon="-5.280983">
        <ele>2070.0</ele>
        <time>2014-06-30T11:42:43Z</time>
      </trkpt>
      <trkpt lat="40.443350" lon="-5.280917">
        <ele>2070.0</ele>
        <time>2014-06-30T11:42:44Z</time>
      </trkpt>
      <trkpt lat="40.443433" lon="-5.280867">
        <ele>2069.0</ele>
        <time>2014-06-30T11:42:45Z</time>
      </trkpt>
      <trkpt lat="40.443517" lon="-5.280833">
        <ele>2068.0</ele>
        <time>2014-06-30T11:42:46Z</time>
      </trkpt>
      <trkpt lat="40.443617" lon="-5.280800">
        <ele>2068.0</ele>
        <time>2014-06-30T11:42:47Z</time>
      </trkpt>
      <trkpt lat="40.443683" lon="-5.280767">
        <ele>2068.0</ele>
        <time>2014-06-30T11:42:48Z</time>
      </trkpt>
      <trkpt lat="40.443767" lon="-5.280733">
        <ele>2068.0</ele>
        <time>2014-06-30T11:42:49Z</time>
      </trkpt>
      <trkpt lat="40.443850" lon="-5.280717">
        <ele>2068.0</ele>
        <time>2014-06-30T11:42:50Z</time>
      </trkpt>
      <trkpt lat="40.443950" lon="-5.280700">
        <ele>2067.0</ele>
        <time>2014-06-30T11:42:51Z</time>
      </trkpt>
      <trkpt lat="40.444033" lon="-5.280700">
        <ele>2066.0</ele>
        <time>2014-06-30T11:42:52Z</time>
      </trkpt>
      <trkpt lat="40.444117" lon="-5.280717">
        <ele>2066.0</ele>
        <time>2014-06-30T11:42:53Z</time>
      </trkpt>
      <trkpt lat="40.444183" lon="-5.280717">
        <ele>2066.0</ele>
        <time>2014-06-30T11:42:54Z</time>
      </trkpt>
      <trkpt lat="40.444250" lon="-5.280717">
        <ele>2065.0</ele>
        <time>2014-06-30T11:42:55Z</time>
      </trkpt>
      <trkpt lat="40.444300" lon="-5.280717">
        <ele>2065.0</ele>
        <time>2014-06-30T11:42:56Z</time>
      </trkpt>
      <trkpt lat="40.444383" lon="-5.280733">
        <ele>2065.0</ele>
        <time>2014-06-30T11:42:57Z</time>
      </trkpt>
      <trkpt lat="40.444450" lon="-5.280733">
        <ele>2065.0</ele>
        <time>2014-06-30T11:42:58Z</time>
      </trkpt>
      <trkpt lat="40.444517" lon="-5.280767">
        <ele>2064.0</ele>
        <time>2014-06-30T11:42:59Z</time>
      </trkpt>
      <trkpt lat="40.444583" lon="-5.280800">
        <ele>2063.0</ele>
        <time>2014-06-30T11:43:00Z</time>
      </trkpt>
      <trkpt lat="40.444650" lon="-5.280833">
        <ele>2062.0</ele>
        <time>2014-06-30T11:43:01Z</time>
      </trkpt>
      <trkpt lat="40.444683" lon="-5.280867">
        <ele>2061.0</ele>
        <time>2014-06-30T11:43:02Z</time>
      </trkpt>
      <trkpt lat="40.444750" lon="-5.280900">
        <ele>2061.0</ele>
        <time>2014-06-30T11:43:03Z</time>
      </trkpt>
      <trkpt lat="40.444800" lon="-5.280950">
        <ele>2060.0</ele>
        <time>2014-06-30T11:43:04Z</time>
      </trkpt>
      <trkpt lat="40.444850" lon="-5.280983">
        <ele>2060.0</ele>
        <time>2014-06-30T11:43:05Z</time>
      </trkpt>
      <trkpt lat="40.444917" lon="-5.281033">
        <ele>2059.0</ele>
        <time>2014-06-30T11:43:06Z</time>
      </trkpt>
      <trkpt lat="40.444983" lon="-5.281067">
        <ele>2059.0</ele>
        <time>2014-06-30T11:43:07Z</time>
      </trkpt>
      <trkpt lat="40.445033" lon="-5.281117">
        <ele>2059.0</ele>
        <time>2014-06-30T11:43:08Z</time>
      </trkpt>
      <trkpt lat="40.445083" lon="-5.281167">
        <ele>2058.0</ele>
        <time>2014-06-30T11:43:09Z</time>
      </trkpt>
      <trkpt lat="40.445133" lon="-5.281200">
        <ele>2058.0</ele>
        <time>2014-06-30T11:43:10Z</time>
      </trkpt>
      <trkpt lat="40.445200" lon="-5.281233">
        <ele>2058.0</ele>
        <time>2014-06-30T11:43:11Z</time>
      </trkpt>
      <trkpt lat="40.445267" lon="-5.281267">
        <ele>2057.0</ele>
        <time>2014-06-30T11:43:12Z</time>
      </trkpt>
      <trkpt lat="40.445367" lon="-5.281300">
        <ele>2057.0</ele>
        <time>2014-06-30T11:43:13Z</time>
      </trkpt>
      <trkpt lat="40.445450" lon="-5.281333">
        <ele>2057.0</ele>
        <time>2014-06-30T11:43:14Z</time>
      </trkpt>
      <trkpt lat="40.445517" lon="-5.281367">
        <ele>2056.0</ele>
        <time>2014-06-30T11:43:15Z</time>
      </trkpt>
      <trkpt lat="40.445600" lon="-5.281400">
        <ele>2056.0</ele>
        <time>2014-06-30T11:43:16Z</time>
      </trkpt>
      <trkpt lat="40.445667" lon="-5.281417">
        <ele>2055.0</ele>
        <time>2014-06-30T11:43:17Z</time>
      </trkpt>
      <trkpt lat="40.445750" lon="-5.281450">
        <ele>2055.0</ele>
        <time>2014-06-30T11:43:18Z</time>
      </trkpt>
      <trkpt lat="40.445833" lon="-5.281450">
        <ele>2055.0</ele>
        <time>2014-06-30T11:43:19Z</time>
      </trkpt>
      <trkpt lat="40.445917" lon="-5.281467">
        <ele>2054.0</ele>
        <time>2014-06-30T11:43:20Z</time>
      </trkpt>
      <trkpt lat="40.446033" lon="-5.281450">
        <ele>2054.0</ele>
        <time>2014-06-30T11:43:21Z</time>
      </trkpt>
      <trkpt lat="40.446117" lon="-5.281467">
        <ele>2053.0</ele>
        <time>2014-06-30T11:43:22Z</time>
      </trkpt>
      <trkpt lat="40.446200" lon="-5.281483">
        <ele>2052.0</ele>
        <time>2014-06-30T11:43:23Z</time>
      </trkpt>
      <trkpt lat="40.446283" lon="-5.281517">
        <ele>2051.0</ele>
        <time>2014-06-30T11:43:24Z</time>
      </trkpt>
      <trkpt lat="40.446350" lon="-5.281533">
        <ele>2048.0</ele>
        <time>2014-06-30T11:43:25Z</time>
      </trkpt>
      <trkpt lat="40.446450" lon="-5.281550">
        <ele>2046.0</ele>
        <time>2014-06-30T11:43:26Z</time>
      </trkpt>
      <trkpt lat="40.446550" lon="-5.281567">
        <ele>2045.0</ele>
        <time>2014-06-30T11:43:27Z</time>
      </trkpt>
      <trkpt lat="40.446633" lon="-5.281583">
        <ele>2044.0</ele>
        <time>2014-06-30T11:43:28Z</time>
      </trkpt>
      <trkpt lat="40.446717" lon="-5.281600">
        <ele>2044.0</ele>
        <time>2014-06-30T11:43:29Z</time>
      </trkpt>
      <trkpt lat="40.446800" lon="-5.281600">
        <ele>2044.0</ele>
        <time>2014-06-30T11:43:30Z</time>
      </trkpt>
      <trkpt lat="40.446867" lon="-5.281567">
        <ele>2043.0</ele>
        <time>2014-06-30T11:43:31Z</time>
      </trkpt>
      <trkpt lat="40.446950" lon="-5.281517">
        <ele>2043.0</ele>
        <time>2014-06-30T11:43:32Z</time>
      </trkpt>
      <trkpt lat="40.447033" lon="-5.281483">
        <ele>2043.0</ele>
        <time>2014-06-30T11:43:33Z</time>
      </trkpt>
      <trkpt lat="40.447100" lon="-5.281467">
        <ele>2042.0</ele>
        <time>2014-06-30T11:43:34Z</time>
      </trkpt>
      <trkpt lat="40.447167" lon="-5.281417">
        <ele>2042.0</ele>
        <time>2014-06-30T11:43:35Z</time>
      </trkpt>
      <trkpt lat="40.447267" lon="-5.281383">
        <ele>2041.0</ele>
        <time>2014-06-30T11:43:36Z</time>
      </trkpt>
      <trkpt lat="40.447383" lon="-5.281350">
        <ele>2041.0</ele>
        <time>2014-06-30T11:43:37Z</time>
      </trkpt>
      <trkpt lat="40.447483" lon="-5.281350">
        <ele>2041.0</ele>
        <time>2014-06-30T11:43:38Z</time>
      </trkpt>
      <trkpt lat="40.447583" lon="-5.281350">
        <ele>2042.0</ele>
        <time>2014-06-30T11:43:39Z</time>
      </trkpt>
      <trkpt lat="40.447650" lon="-5.281333">
        <ele>2045.0</ele>
        <time>2014-06-30T11:43:40Z</time>
      </trkpt>
      <trkpt lat="40.447667" lon="-5.281333">
        <ele>2043.0</ele>
        <time>2014-06-30T11:43:41Z</time>
      </trkpt>
      <trkpt lat="40.447700" lon="-5.281317">
        <ele>2043.0</ele>
        <time>2014-06-30T11:43:42Z</time>
      </trkpt>
      <trkpt lat="40.447733" lon="-5.281317">
        <ele>2043.0</ele>
        <time>2014-06-30T11:43:43Z</time>
      </trkpt>
      <trkpt lat="40.447817" lon="-5.281317">
        <ele>2044.0</ele>
        <time>2014-06-30T11:43:44Z</time>
      </trkpt>
      <trkpt lat="40.447900" lon="-5.281350">
        <ele>2045.0</ele>
        <time>2014-06-30T11:43:45Z</time>
      </trkpt>
      <trkpt lat="40.447950" lon="-5.281433">
        <ele>2045.0</ele>
        <time>2014-06-30T11:43:46Z</time>
      </trkpt>
      <trkpt lat="40.447950" lon="-5.281517">
        <ele>2047.0</ele>
        <time>2014-06-30T11:43:47Z</time>
      </trkpt>
      <trkpt lat="40.447883" lon="-5.281567">
        <ele>2051.0</ele>
        <time>2014-06-30T11:43:48Z</time>
      </trkpt>
      <trkpt lat="40.447817" lon="-5.281583">
        <ele>2055.0</ele>
        <time>2014-06-30T11:43:49Z</time>
      </trkpt>
      <trkpt lat="40.447733" lon="-5.281567">
        <ele>2058.0</ele>
        <time>2014-06-30T11:43:50Z</time>
      </trkpt>
      <trkpt lat="40.447700" lon="-5.281533">
        <ele>2060.0</ele>
        <time>2014-06-30T11:43:51Z</time>
      </trkpt>
      <trkpt lat="40.447650" lon="-5.281500">
        <ele>2058.0</ele>
        <time>2014-06-30T11:43:52Z</time>
      </trkpt>
      <trkpt lat="40.447600" lon="-5.281450">
        <ele>2059.0</ele>
        <time>2014-06-30T11:43:53Z</time>
      </trkpt>
      <trkpt lat="40.447533" lon="-5.281350">
        <ele>2057.0</ele>
        <time>2014-06-30T11:43:54Z</time>
      </trkpt>
      <trkpt lat="40.447483" lon="-5.281217">
        <ele>2054.0</ele>
        <time>2014-06-30T11:43:55Z</time>
      </trkpt>
      <trkpt lat="40.447467" lon="-5.281033">
        <ele>2052.0</ele>
        <time>2014-06-30T11:43:56Z</time>
      </trkpt>
      <trkpt lat="40.447500" lon="-5.280850">
        <ele>2051.0</ele>
        <time>2014-06-30T11:43:57Z</time>
      </trkpt>
      <trkpt lat="40.447550" lon="-5.280667">
        <ele>2051.0</ele>
        <time>2014-06-30T11:43:58Z</time>
      </trkpt>
      <trkpt lat="40.447633" lon="-5.280517">
        <ele>2051.0</ele>
        <time>2014-06-30T11:43:59Z</time>
      </trkpt>
      <trkpt lat="40.447700" lon="-5.280333">
        <ele>2052.0</ele>
        <time>2014-06-30T11:44:00Z</time>
      </trkpt>
      <trkpt lat="40.447767" lon="-5.280200">
        <ele>2058.0</ele>
        <time>2014-06-30T11:44:01Z</time>
      </trkpt>
      <trkpt lat="40.447817" lon="-5.280100">
        <ele>2063.0</ele>
        <time>2014-06-30T11:44:02Z</time>
      </trkpt>
      <trkpt lat="40.447883" lon="-5.280050">
        <ele>2061.0</ele>
        <time>2014-06-30T11:44:03Z</time>
      </trkpt>
      <trkpt lat="40.447933" lon="-5.280017">
        <ele>2064.0</ele>
        <time>2014-06-30T11:44:04Z</time>
      </trkpt>
      <trkpt lat="40.448017" lon="-5.279983">
        <ele>2065.0</ele>
        <time>2014-06-30T11:44:05Z</time>
      </trkpt>
      <trkpt lat="40.448100" lon="-5.279967">
        <ele>2066.0</ele>
        <time>2014-06-30T11:44:06Z</time>
      </trkpt>
      <trkpt lat="40.448150" lon="-5.280000">
        <ele>2067.0</ele>
        <time>2014-06-30T11:44:07Z</time>
      </trkpt>
      <trkpt lat="40.448183" lon="-5.280067">
        <ele>2068.0</ele>
        <time>2014-06-30T11:44:08Z</time>
      </trkpt>
      <trkpt lat="40.448183" lon="-5.280150">
        <ele>2068.0</ele>
        <time>2014-06-30T11:44:09Z</time>
      </trkpt>
      <trkpt lat="40.448167" lon="-5.280233">
        <ele>2069.0</ele>
        <time>2014-06-30T11:44:10Z</time>
      </trkpt>
      <trkpt lat="40.448150" lon="-5.280300">
        <ele>2071.0</ele>
        <time>2014-06-30T11:44:11Z</time>
      </trkpt>
      <trkpt lat="40.448117" lon="-5.280367">
        <ele>2073.0</ele>
        <time>2014-06-30T11:44:12Z</time>
      </trkpt>
      <trkpt lat="40.448067" lon="-5.280417">
        <ele>2072.0</ele>
        <time>2014-06-30T11:44:13Z</time>
      </trkpt>
      <trkpt lat="40.448033" lon="-5.280467">
        <ele>2074.0</ele>
        <time>2014-06-30T11:44:14Z</time>
      </trkpt>
      <trkpt lat="40.447967" lon="-5.280450">
        <ele>2075.0</ele>
        <time>2014-06-30T11:44:15Z</time>
      </trkpt>
      <trkpt lat="40.447900" lon="-5.280383">
        <ele>2076.0</ele>
        <time>2014-06-30T11:44:16Z</time>
      </trkpt>
      <trkpt lat="40.447833" lon="-5.280283">
        <ele>2076.0</ele>
        <time>2014-06-30T11:44:17Z</time>
      </trkpt>
      <trkpt lat="40.447783" lon="-5.280150">
        <ele>2079.0</ele>
        <time>2014-06-30T11:44:18Z</time>
      </trkpt>
      <trkpt lat="40.447767" lon="-5.280033">
        <ele>2084.0</ele>
        <time>2014-06-30T11:44:19Z</time>
      </trkpt>
      <trkpt lat="40.447767" lon="-5.279933">
        <ele>2087.0</ele>
        <time>2014-06-30T11:44:20Z</time>
      </trkpt>
      <trkpt lat="40.447800" lon="-5.279833">
        <ele>2089.0</ele>
        <time>2014-06-30T11:44:21Z</time>
      </trkpt>
      <trkpt lat="40.447833" lon="-5.279700">
        <ele>2091.0</ele>
        <time>2014-06-30T11:44:22Z</time>
      </trkpt>
      <trkpt lat="40.447883" lon="-5.279567">
        <ele>2094.0</ele>
        <time>2014-06-30T11:44:23Z</time>
      </trkpt>
      <trkpt lat="40.447950" lon="-5.279450">
        <ele>2097.0</ele>
        <time>2014-06-30T11:44:24Z</time>
      </trkpt>
      <trkpt lat="40.448000" lon="-5.279350">
        <ele>2101.0</ele>
        <time>2014-06-30T11:44:25Z</time>
      </trkpt>
      <trkpt lat="40.448067" lon="-5.279267">
        <ele>2104.0</ele>
        <time>2014-06-30T11:44:26Z</time>
      </trkpt>
      <trkpt lat="40.448117" lon="-5.279200">
        <ele>2107.0</ele>
        <time>2014-06-30T11:44:27Z</time>
      </trkpt>
      <trkpt lat="40.448183" lon="-5.279133">
        <ele>2109.0</ele>
        <time>2014-06-30T11:44:28Z</time>
      </trkpt>
      <trkpt lat="40.448250" lon="-5.279067">
        <ele>2106.0</ele>
        <time>2014-06-30T11:44:29Z</time>
      </trkpt>
      <trkpt lat="40.448333" lon="-5.279017">
        <ele>2106.0</ele>
        <time>2014-06-30T11:44:30Z</time>
      </trkpt>
      <trkpt lat="40.448417" lon="-5.279000">
        <ele>2106.0</ele>
        <time>2014-06-30T11:44:31Z</time>
      </trkpt>
      <trkpt lat="40.448517" lon="-5.279000">
        <ele>2105.0</ele>
        <time>2014-06-30T11:44:32Z</time>
      </trkpt>
      <trkpt lat="40.448600" lon="-5.279000">
        <ele>2104.0</ele>
        <time>2014-06-30T11:44:33Z</time>
      </trkpt>
      <trkpt lat="40.448683" lon="-5.279017">
        <ele>2104.0</ele>
        <time>2014-06-30T11:44:34Z</time>
      </trkpt>
      <trkpt lat="40.448750" lon="-5.279033">
        <ele>2104.0</ele>
        <time>2014-06-30T11:44:35Z</time>
      </trkpt>
      <trkpt lat="40.448817" lon="-5.279083">
        <ele>2104.0</ele>
        <time>2014-06-30T11:44:36Z</time>
      </trkpt>
      <trkpt lat="40.448850" lon="-5.279150">
        <ele>2104.0</ele>
        <time>2014-06-30T11:44:37Z</time>
      </trkpt>
      <trkpt lat="40.448867" lon="-5.279217">
        <ele>2104.0</ele>
        <time>2014-06-30T11:44:38Z</time>
      </trkpt>
      <trkpt lat="40.448867" lon="-5.279300">
        <ele>2105.0</ele>
        <time>2014-06-30T11:44:39Z</time>
      </trkpt>
      <trkpt lat="40.448817" lon="-5.279367">
        <ele>2105.0</ele>
        <time>2014-06-30T11:44:40Z</time>
      </trkpt>
      <trkpt lat="40.448767" lon="-5.279400">
        <ele>2105.0</ele>
        <time>2014-06-30T11:44:41Z</time>
      </trkpt>
      <trkpt lat="40.448683" lon="-5.279433">
        <ele>2105.0</ele>
        <time>2014-06-30T11:44:42Z</time>
      </trkpt>
      <trkpt lat="40.448617" lon="-5.279450">
        <ele>2106.0</ele>
        <time>2014-06-30T11:44:43Z</time>
      </trkpt>
      <trkpt lat="40.448550" lon="-5.279450">
        <ele>2106.0</ele>
        <time>2014-06-30T11:44:44Z</time>
      </trkpt>
      <trkpt lat="40.448483" lon="-5.279433">
        <ele>2105.0</ele>
        <time>2014-06-30T11:44:45Z</time>
      </trkpt>
      <trkpt lat="40.448400" lon="-5.279383">
        <ele>2106.0</ele>
        <time>2014-06-30T11:44:46Z</time>
      </trkpt>
      <trkpt lat="40.448333" lon="-5.279283">
        <ele>2105.0</ele>
        <time>2014-06-30T11:44:47Z</time>
      </trkpt>
      <trkpt lat="40.448283" lon="-5.279150">
        <ele>2105.0</ele>
        <time>2014-06-30T11:44:48Z</time>
      </trkpt>
      <trkpt lat="40.448250" lon="-5.279000">
        <ele>2105.0</ele>
        <time>2014-06-30T11:44:49Z</time>
      </trkpt>
      <trkpt lat="40.448217" lon="-5.278850">
        <ele>2105.0</ele>
        <time>2014-06-30T11:44:50Z</time>
      </trkpt>
      <trkpt lat="40.448183" lon="-5.278700">
        <ele>2106.0</ele>
        <time>2014-06-30T11:44:51Z</time>
      </trkpt>
      <trkpt lat="40.448167" lon="-5.278567">
        <ele>2108.0</ele>
        <time>2014-06-30T11:44:52Z</time>
      </trkpt>
      <trkpt lat="40.448167" lon="-5.278450">
        <ele>2111.0</ele>
        <time>2014-06-30T11:44:53Z</time>
      </trkpt>
      <trkpt lat="40.448183" lon="-5.278333">
        <ele>2113.0</ele>
        <time>2014-06-30T11:44:54Z</time>
      </trkpt>
      <trkpt lat="40.448217" lon="-5.278233">
        <ele>2114.0</ele>
        <time>2014-06-30T11:44:55Z</time>
      </trkpt>
      <trkpt lat="40.448250" lon="-5.278100">
        <ele>2116.0</ele>
        <time>2014-06-30T11:44:56Z</time>
      </trkpt>
      <trkpt lat="40.448283" lon="-5.277967">
        <ele>2117.0</ele>
        <time>2014-06-30T11:44:57Z</time>
      </trkpt>
      <trkpt lat="40.448333" lon="-5.277850">
        <ele>2119.0</ele>
        <time>2014-06-30T11:44:58Z</time>
      </trkpt>
      <trkpt lat="40.448383" lon="-5.277750">
        <ele>2122.0</ele>
        <time>2014-06-30T11:44:59Z</time>
      </trkpt>
      <trkpt lat="40.448433" lon="-5.277650">
        <ele>2123.0</ele>
        <time>2014-06-30T11:45:00Z</time>
      </trkpt>
      <trkpt lat="40.448483" lon="-5.277550">
        <ele>2123.0</ele>
        <time>2014-06-30T11:45:01Z</time>
      </trkpt>
      <trkpt lat="40.448550" lon="-5.277467">
        <ele>2122.0</ele>
        <time>2014-06-30T11:45:02Z</time>
      </trkpt>
      <trkpt lat="40.448617" lon="-5.277400">
        <ele>2123.0</ele>
        <time>2014-06-30T11:45:03Z</time>
      </trkpt>
      <trkpt lat="40.448700" lon="-5.277350">
        <ele>2123.0</ele>
        <time>2014-06-30T11:45:04Z</time>
      </trkpt>
      <trkpt lat="40.448767" lon="-5.277317">
        <ele>2123.0</ele>
        <time>2014-06-30T11:45:05Z</time>
      </trkpt>
      <trkpt lat="40.448833" lon="-5.277300">
        <ele>2123.0</ele>
        <time>2014-06-30T11:45:06Z</time>
      </trkpt>
      <trkpt lat="40.448917" lon="-5.277300">
        <ele>2124.0</ele>
        <time>2014-06-30T11:45:07Z</time>
      </trkpt>
      <trkpt lat="40.449017" lon="-5.277283">
        <ele>2124.0</ele>
        <time>2014-06-30T11:45:08Z</time>
      </trkpt>
      <trkpt lat="40.449083" lon="-5.277283">
        <ele>2124.0</ele>
        <time>2014-06-30T11:45:09Z</time>
      </trkpt>
      <trkpt lat="40.449167" lon="-5.277283">
        <ele>2124.0</ele>
        <time>2014-06-30T11:45:10Z</time>
      </trkpt>
      <trkpt lat="40.449233" lon="-5.277283">
        <ele>2125.0</ele>
        <time>2014-06-30T11:45:11Z</time>
      </trkpt>
      <trkpt lat="40.449300" lon="-5.277283">
        <ele>2125.0</ele>
        <time>2014-06-30T11:45:12Z</time>
      </trkpt>
      <trkpt lat="40.449367" lon="-5.277317">
        <ele>2126.0</ele>
        <time>2014-06-30T11:45:13Z</time>
      </trkpt>
      <trkpt lat="40.449417" lon="-5.277383">
        <ele>2126.0</ele>
        <time>2014-06-30T11:45:14Z</time>
      </trkpt>
      <trkpt lat="40.449433" lon="-5.277450">
        <ele>2126.0</ele>
        <time>2014-06-30T11:45:15Z</time>
      </trkpt>
      <trkpt lat="40.449417" lon="-5.277517">
        <ele>2126.0</ele>
        <time>2014-06-30T11:45:16Z</time>
      </trkpt>
      <trkpt lat="40.449367" lon="-5.277567">
        <ele>2125.0</ele>
        <time>2014-06-30T11:45:17Z</time>
      </trkpt>
      <trkpt lat="40.449300" lon="-5.277583">
        <ele>2125.0</ele>
        <time>2014-06-30T11:45:18Z</time>
      </trkpt>
      <trkpt lat="40.449233" lon="-5.277617">
        <ele>2125.0</ele>
        <time>2014-06-30T11:45:19Z</time>
      </trkpt>
      <trkpt lat="40.449167" lon="-5.277633">
        <ele>2126.0</ele>
        <time>2014-06-30T11:45:20Z</time>
      </trkpt>
      <trkpt lat="40.449100" lon="-5.277667">
        <ele>2126.0</ele>
        <time>2014-06-30T11:45:21Z</time>
      </trkpt>
      <trkpt lat="40.449017" lon="-5.277667">
        <ele>2125.0</ele>
        <time>2014-06-30T11:45:22Z</time>
      </trkpt>
      <trkpt lat="40.448950" lon="-5.277650">
        <ele>2125.0</ele>
        <time>2014-06-30T11:45:23Z</time>
      </trkpt>
      <trkpt lat="40.448867" lon="-5.277583">
        <ele>2125.0</ele>
        <time>2014-06-30T11:45:24Z</time>
      </trkpt>
      <trkpt lat="40.448783" lon="-5.277517">
        <ele>2125.0</ele>
        <time>2014-06-30T11:45:25Z</time>
      </trkpt>
      <trkpt lat="40.448683" lon="-5.277450">
        <ele>2125.0</ele>
        <time>2014-06-30T11:45:26Z</time>
      </trkpt>
      <trkpt lat="40.448600" lon="-5.277367">
        <ele>2125.0</ele>
        <time>2014-06-30T11:45:27Z</time>
      </trkpt>
      <trkpt lat="40.448533" lon="-5.277283">
        <ele>2125.0</ele>
        <time>2014-06-30T11:45:28Z</time>
      </trkpt>
      <trkpt lat="40.448450" lon="-5.277183">
        <ele>2125.0</ele>
        <time>2014-06-30T11:45:29Z</time>
      </trkpt>
      <trkpt lat="40.448383" lon="-5.277083">
        <ele>2124.0</ele>
        <time>2014-06-30T11:45:30Z</time>
      </trkpt>
      <trkpt lat="40.448317" lon="-5.276983">
        <ele>2123.0</ele>
        <time>2014-06-30T11:45:31Z</time>
      </trkpt>
      <trkpt lat="40.448250" lon="-5.276900">
        <ele>2122.0</ele>
        <time>2014-06-30T11:45:32Z</time>
      </trkpt>
      <trkpt lat="40.448183" lon="-5.276817">
        <ele>2120.0</ele>
        <time>2014-06-30T11:45:33Z</time>
      </trkpt>
      <trkpt lat="40.448117" lon="-5.276750">
        <ele>2119.0</ele>
        <time>2014-06-30T11:45:34Z</time>
      </trkpt>
      <trkpt lat="40.448033" lon="-5.276650">
        <ele>2118.0</ele>
        <time>2014-06-30T11:45:35Z</time>
      </trkpt>
      <trkpt lat="40.447967" lon="-5.276533">
        <ele>2117.0</ele>
        <time>2014-06-30T11:45:36Z</time>
      </trkpt>
      <trkpt lat="40.447933" lon="-5.276400">
        <ele>2118.0</ele>
        <time>2014-06-30T11:45:37Z</time>
      </trkpt>
      <trkpt lat="40.447917" lon="-5.276267">
        <ele>2120.0</ele>
        <time>2014-06-30T11:45:38Z</time>
      </trkpt>
      <trkpt lat="40.447933" lon="-5.276117">
        <ele>2119.0</ele>
        <time>2014-06-30T11:45:39Z</time>
      </trkpt>
      <trkpt lat="40.447983" lon="-5.275983">
        <ele>2118.0</ele>
        <time>2014-06-30T11:45:40Z</time>
      </trkpt>
      <trkpt lat="40.448050" lon="-5.275850">
        <ele>2118.0</ele>
        <time>2014-06-30T11:45:41Z</time>
      </trkpt>
      <trkpt lat="40.448150" lon="-5.275717">
        <ele>2118.0</ele>
        <time>2014-06-30T11:45:42Z</time>
      </trkpt>
      <trkpt lat="40.448233" lon="-5.275583">
        <ele>2119.0</ele>
        <time>2014-06-30T11:45:43Z</time>
      </trkpt>
      <trkpt lat="40.448283" lon="-5.275433">
        <ele>2120.0</ele>
        <time>2014-06-30T11:45:44Z</time>
      </trkpt>
      <trkpt lat="40.448317" lon="-5.275300">
        <ele>2121.0</ele>
        <time>2014-06-30T11:45:45Z</time>
      </trkpt>
      <trkpt lat="40.448367" lon="-5.275167">
        <ele>2125.0</ele>
        <time>2014-06-30T11:45:46Z</time>
      </trkpt>
      <trkpt lat="40.448400" lon="-5.275050">
        <ele>2126.0</ele>
        <time>2014-06-30T11:45:47Z</time>
      </trkpt>
      <trkpt lat="40.448417" lon="-5.274933">
        <ele>2127.0</ele>
        <time>2014-06-30T11:45:48Z</time>
      </trkpt>
      <trkpt lat="40.448467" lon="-5.274800">
        <ele>2128.0</ele>
        <time>2014-06-30T11:45:49Z</time>
      </trkpt>
      <trkpt lat="40.448517" lon="-5.274667">
        <ele>2126.0</ele>
        <time>2014-06-30T11:45:50Z</time>
      </trkpt>
      <trkpt lat="40.448567" lon="-5.274533">
        <ele>2127.0</ele>
        <time>2014-06-30T11:45:51Z</time>
      </trkpt>
      <trkpt lat="40.448650" lon="-5.274433">
        <ele>2131.0</ele>
        <time>2014-06-30T11:45:52Z</time>
      </trkpt>
      <trkpt lat="40.448733" lon="-5.274383">
        <ele>2132.0</ele>
        <time>2014-06-30T11:45:53Z</time>
      </trkpt>
      <trkpt lat="40.448817" lon="-5.274367">
        <ele>2133.0</ele>
        <time>2014-06-30T11:45:54Z</time>
      </trkpt>
      <trkpt lat="40.448883" lon="-5.274367">
        <ele>2133.0</ele>
        <time>2014-06-30T11:45:55Z</time>
      </trkpt>
      <trkpt lat="40.448967" lon="-5.274383">
        <ele>2134.0</ele>
        <time>2014-06-30T11:45:56Z</time>
      </trkpt>
      <trkpt lat="40.449017" lon="-5.274417">
        <ele>2135.0</ele>
        <time>2014-06-30T11:45:57Z</time>
      </trkpt>
      <trkpt lat="40.449033" lon="-5.274483">
        <ele>2136.0</ele>
        <time>2014-06-30T11:45:58Z</time>
      </trkpt>
      <trkpt lat="40.449017" lon="-5.274567">
        <ele>2135.0</ele>
        <time>2014-06-30T11:45:59Z</time>
      </trkpt>
      <trkpt lat="40.448967" lon="-5.274617">
        <ele>2135.0</ele>
        <time>2014-06-30T11:46:00Z</time>
      </trkpt>
      <trkpt lat="40.448883" lon="-5.274617">
        <ele>2135.0</ele>
        <time>2014-06-30T11:46:01Z</time>
      </trkpt>
      <trkpt lat="40.448800" lon="-5.274567">
        <ele>2135.0</ele>
        <time>2014-06-30T11:46:02Z</time>
      </trkpt>
      <trkpt lat="40.448717" lon="-5.274500">
        <ele>2136.0</ele>
        <time>2014-06-30T11:46:03Z</time>
      </trkpt>
      <trkpt lat="40.448667" lon="-5.274433">
        <ele>2137.0</ele>
        <time>2014-06-30T11:46:04Z</time>
      </trkpt>
      <trkpt lat="40.448617" lon="-5.274367">
        <ele>2139.0</ele>
        <time>2014-06-30T11:46:05Z</time>
      </trkpt>
      <trkpt lat="40.448567" lon="-5.274300">
        <ele>2141.0</ele>
        <time>2014-06-30T11:46:06Z</time>
      </trkpt>
      <trkpt lat="40.448517" lon="-5.274233">
        <ele>2142.0</ele>
        <time>2014-06-30T11:46:07Z</time>
      </trkpt>
      <trkpt lat="40.448483" lon="-5.274167">
        <ele>2143.0</ele>
        <time>2014-06-30T11:46:08Z</time>
      </trkpt>
      <trkpt lat="40.448433" lon="-5.274083">
        <ele>2143.0</ele>
        <time>2014-06-30T11:46:09Z</time>
      </trkpt>
      <trkpt lat="40.448400" lon="-5.274000">
        <ele>2144.0</ele>
        <time>2014-06-30T11:46:10Z</time>
      </trkpt>
      <trkpt lat="40.448367" lon="-5.273883">
        <ele>2144.0</ele>
        <time>2014-06-30T11:46:11Z</time>
      </trkpt>
      <trkpt lat="40.448333" lon="-5.273783">
        <ele>2144.0</ele>
        <time>2014-06-30T11:46:12Z</time>
      </trkpt>
      <trkpt lat="40.448300" lon="-5.273683">
        <ele>2144.0</ele>
        <time>2014-06-30T11:46:13Z</time>
      </trkpt>
      <trkpt lat="40.448267" lon="-5.273567">
        <ele>2143.0</ele>
        <time>2014-06-30T11:46:14Z</time>
      </trkpt>
      <trkpt lat="40.448250" lon="-5.273450">
        <ele>2142.0</ele>
        <time>2014-06-30T11:46:15Z</time>
      </trkpt>
      <trkpt lat="40.448233" lon="-5.273300">
        <ele>2141.0</ele>
        <time>2014-06-30T11:46:16Z</time>
      </trkpt>
      <trkpt lat="40.448233" lon="-5.273150">
        <ele>2141.0</ele>
        <time>2014-06-30T11:46:17Z</time>
      </trkpt>
      <trkpt lat="40.448217" lon="-5.273033">
        <ele>2142.0</ele>
        <time>2014-06-30T11:46:18Z</time>
      </trkpt>
      <trkpt lat="40.448200" lon="-5.272933">
        <ele>2142.0</ele>
        <time>2014-06-30T11:46:19Z</time>
      </trkpt>
      <trkpt lat="40.448200" lon="-5.272867">
        <ele>2143.0</ele>
        <time>2014-06-30T11:46:20Z</time>
      </trkpt>
      <trkpt lat="40.448167" lon="-5.272783">
        <ele>2145.0</ele>
        <time>2014-06-30T11:46:21Z</time>
      </trkpt>
      <trkpt lat="40.448150" lon="-5.272667">
        <ele>2145.0</ele>
        <time>2014-06-30T11:46:22Z</time>
      </trkpt>
      <trkpt lat="40.448150" lon="-5.272533">
        <ele>2146.0</ele>
        <time>2014-06-30T11:46:23Z</time>
      </trkpt>
      <trkpt lat="40.448183" lon="-5.272400">
        <ele>2146.0</ele>
        <time>2014-06-30T11:46:24Z</time>
      </trkpt>
      <trkpt lat="40.448250" lon="-5.272283">
        <ele>2146.0</ele>
        <time>2014-06-30T11:46:25Z</time>
      </trkpt>
      <trkpt lat="40.448333" lon="-5.272200">
        <ele>2145.0</ele>
        <time>2014-06-30T11:46:26Z</time>
      </trkpt>
      <trkpt lat="40.448433" lon="-5.272167">
        <ele>2144.0</ele>
        <time>2014-06-30T11:46:27Z</time>
      </trkpt>
      <trkpt lat="40.448533" lon="-5.272200">
        <ele>2144.0</ele>
        <time>2014-06-30T11:46:28Z</time>
      </trkpt>
      <trkpt lat="40.448617" lon="-5.272233">
        <ele>2144.0</ele>
        <time>2014-06-30T11:46:29Z</time>
      </trkpt>
      <trkpt lat="40.448683" lon="-5.272283">
        <ele>2146.0</ele>
        <time>2014-06-30T11:46:30Z</time>
      </trkpt>
      <trkpt lat="40.448767" lon="-5.272283">
        <ele>2148.0</ele>
        <time>2014-06-30T11:46:31Z</time>
      </trkpt>
      <trkpt lat="40.448833" lon="-5.272300">
        <ele>2151.0</ele>
        <time>2014-06-30T11:46:32Z</time>
      </trkpt>
      <trkpt lat="40.448867" lon="-5.272317">
        <ele>2149.0</ele>
        <time>2014-06-30T11:46:33Z</time>
      </trkpt>
      <trkpt lat="40.448933" lon="-5.272350">
        <ele>2151.0</ele>
        <time>2014-06-30T11:46:34Z</time>
      </trkpt>
      <trkpt lat="40.448983" lon="-5.272367">
        <ele>2152.0</ele>
        <time>2014-06-30T11:46:35Z</time>
      </trkpt>
      <trkpt lat="40.449033" lon="-5.272417">
        <ele>2153.0</ele>
        <time>2014-06-30T11:46:36Z</time>
      </trkpt>
      <trkpt lat="40.449083" lon="-5.272467">
        <ele>2155.0</ele>
        <time>2014-06-30T11:46:37Z</time>
      </trkpt>
      <trkpt lat="40.449100" lon="-5.272517">
        <ele>2156.0</ele>
        <time>2014-06-30T11:46:38Z</time>
      </trkpt>
      <trkpt lat="40.449117" lon="-5.272550">
        <ele>2156.0</ele>
        <time>2014-06-30T11:46:39Z</time>
      </trkpt>
      <trkpt lat="40.449100" lon="-5.272600">
        <ele>2157.0</ele>
        <time>2014-06-30T11:46:40Z</time>
      </trkpt>
      <trkpt lat="40.449050" lon="-5.272633">
        <ele>2158.0</ele>
        <time>2014-06-30T11:46:41Z</time>
      </trkpt>
      <trkpt lat="40.448983" lon="-5.272667">
        <ele>2158.0</ele>
        <time>2014-06-30T11:46:42Z</time>
      </trkpt>
      <trkpt lat="40.448917" lon="-5.272633">
        <ele>2159.0</ele>
        <time>2014-06-30T11:46:43Z</time>
      </trkpt>
      <trkpt lat="40.448867" lon="-5.272533">
        <ele>2159.0</ele>
        <time>2014-06-30T11:46:44Z</time>
      </trkpt>
      <trkpt lat="40.448850" lon="-5.272400">
        <ele>2159.0</ele>
        <time>2014-06-30T11:46:45Z</time>
      </trkpt>
      <trkpt lat="40.448883" lon="-5.272250">
        <ele>2159.0</ele>
        <time>2014-06-30T11:46:46Z</time>
      </trkpt>
      <trkpt lat="40.448917" lon="-5.272117">
        <ele>2161.0</ele>
        <time>2014-06-30T11:46:47Z</time>
      </trkpt>
      <trkpt lat="40.448950" lon="-5.272000">
        <ele>2164.0</ele>
        <time>2014-06-30T11:46:48Z</time>
      </trkpt>
      <trkpt lat="40.448967" lon="-5.271917">
        <ele>2167.0</ele>
        <time>2014-06-30T11:46:49Z</time>
      </trkpt>
      <trkpt lat="40.448983" lon="-5.271850">
        <ele>2165.0</ele>
        <time>2014-06-30T11:46:50Z</time>
      </trkpt>
      <trkpt lat="40.449000" lon="-5.271783">
        <ele>2166.0</ele>
        <time>2014-06-30T11:46:51Z</time>
      </trkpt>
      <trkpt lat="40.449067" lon="-5.271717">
        <ele>2167.0</ele>
        <time>2014-06-30T11:46:52Z</time>
      </trkpt>
      <trkpt lat="40.449133" lon="-5.271650">
        <ele>2170.0</ele>
        <time>2014-06-30T11:46:53Z</time>
      </trkpt>
      <trkpt lat="40.449200" lon="-5.271617">
        <ele>2173.0</ele>
        <time>2014-06-30T11:46:54Z</time>
      </trkpt>
      <trkpt lat="40.449283" lon="-5.271600">
        <ele>2175.0</ele>
        <time>2014-06-30T11:46:55Z</time>
      </trkpt>
      <trkpt lat="40.449350" lon="-5.271633">
        <ele>2179.0</ele>
        <time>2014-06-30T11:46:56Z</time>
      </trkpt>
      <trkpt lat="40.449383" lon="-5.271683">
        <ele>2180.0</ele>
        <time>2014-06-30T11:46:57Z</time>
      </trkpt>
      <trkpt lat="40.449417" lon="-5.271750">
        <ele>2180.0</ele>
        <time>2014-06-30T11:46:58Z</time>
      </trkpt>
      <trkpt lat="40.449483" lon="-5.271783">
        <ele>2181.0</ele>
        <time>2014-06-30T11:46:59Z</time>
      </trkpt>
      <trkpt lat="40.449533" lon="-5.271833">
        <ele>2182.0</ele>
        <time>2014-06-30T11:47:00Z</time>
      </trkpt>
      <trkpt lat="40.449550" lon="-5.271900">
        <ele>2184.0</ele>
        <time>2014-06-30T11:47:01Z</time>
      </trkpt>
      <trkpt lat="40.449533" lon="-5.271950">
        <ele>2185.0</ele>
        <time>2014-06-30T11:47:02Z</time>
      </trkpt>
      <trkpt lat="40.449483" lon="-5.272000">
        <ele>2186.0</ele>
        <time>2014-06-30T11:47:03Z</time>
      </trkpt>
      <trkpt lat="40.449417" lon="-5.271967">
        <ele>2187.0</ele>
        <time>2014-06-30T11:47:04Z</time>
      </trkpt>
      <trkpt lat="40.449350" lon="-5.271900">
        <ele>2188.0</ele>
        <time>2014-06-30T11:47:05Z</time>
      </trkpt>
      <trkpt lat="40.449300" lon="-5.271750">
        <ele>2188.0</ele>
        <time>2014-06-30T11:47:06Z</time>
      </trkpt>
      <trkpt lat="40.449300" lon="-5.271600">
        <ele>2189.0</ele>
        <time>2014-06-30T11:47:07Z</time>
      </trkpt>
      <trkpt lat="40.449333" lon="-5.271433">
        <ele>2190.0</ele>
        <time>2014-06-30T11:47:08Z</time>
      </trkpt>
      <trkpt lat="40.449367" lon="-5.271300">
        <ele>2193.0</ele>
        <time>2014-06-30T11:47:09Z</time>
      </trkpt>
      <trkpt lat="40.449400" lon="-5.271167">
        <ele>2197.0</ele>
        <time>2014-06-30T11:47:10Z</time>
      </trkpt>
      <trkpt lat="40.449433" lon="-5.271067">
        <ele>2202.0</ele>
        <time>2014-06-30T11:47:11Z</time>
      </trkpt>
      <trkpt lat="40.449467" lon="-5.270967">
        <ele>2208.0</ele>
        <time>2014-06-30T11:47:12Z</time>
      </trkpt>
      <trkpt lat="40.449517" lon="-5.270900">
        <ele>2212.0</ele>
        <time>2014-06-30T11:47:13Z</time>
      </trkpt>
      <trkpt lat="40.449583" lon="-5.270867">
        <ele>2215.0</ele>
        <time>2014-06-30T11:47:14Z</time>
      </trkpt>
      <trkpt lat="40.449650" lon="-5.270883">
        <ele>2216.0</ele>
        <time>2014-06-30T11:47:15Z</time>
      </trkpt>
      <trkpt lat="40.449717" lon="-5.270950">
        <ele>2217.0</ele>
        <time>2014-06-30T11:47:16Z</time>
      </trkpt>
      <trkpt lat="40.449767" lon="-5.271050">
        <ele>2218.0</ele>
        <time>2014-06-30T11:47:17Z</time>
      </trkpt>
      <trkpt lat="40.449767" lon="-5.271150">
        <ele>2221.0</ele>
        <time>2014-06-30T11:47:18Z</time>
      </trkpt>
      <trkpt lat="40.449750" lon="-5.271217">
        <ele>2224.0</ele>
        <time>2014-06-30T11:47:19Z</time>
      </trkpt>
      <trkpt lat="40.449717" lon="-5.271267">
        <ele>2228.0</ele>
        <time>2014-06-30T11:47:20Z</time>
      </trkpt>
      <trkpt lat="40.449633" lon="-5.271233">
        <ele>2230.0</ele>
        <time>2014-06-30T11:47:21Z</time>
      </trkpt>
      <trkpt lat="40.449583" lon="-5.271183">
        <ele>2232.0</ele>
        <time>2014-06-30T11:47:22Z</time>
      </trkpt>
      <trkpt lat="40.449517" lon="-5.271083">
        <ele>2233.0</ele>
        <time>2014-06-30T11:47:23Z</time>
      </trkpt>
      <trkpt lat="40.449483" lon="-5.270967">
        <ele>2235.0</ele>
        <time>2014-06-30T11:47:24Z</time>
      </trkpt>
      <trkpt lat="40.449483" lon="-5.270850">
        <ele>2236.0</ele>
        <time>2014-06-30T11:47:25Z</time>
      </trkpt>
      <trkpt lat="40.449533" lon="-5.270750">
        <ele>2237.0</ele>
        <time>2014-06-30T11:47:26Z</time>
      </trkpt>
      <trkpt lat="40.449617" lon="-5.270683">
        <ele>2240.0</ele>
        <time>2014-06-30T11:47:27Z</time>
      </trkpt>
      <trkpt lat="40.449700" lon="-5.270667">
        <ele>2244.0</ele>
        <time>2014-06-30T11:47:28Z</time>
      </trkpt>
      <trkpt lat="40.449767" lon="-5.270683">
        <ele>2248.0</ele>
        <time>2014-06-30T11:47:29Z</time>
      </trkpt>
      <trkpt lat="40.449833" lon="-5.270717">
        <ele>2252.0</ele>
        <time>2014-06-30T11:47:30Z</time>
      </trkpt>
      <trkpt lat="40.449883" lon="-5.270767">
        <ele>2249.0</ele>
        <time>2014-06-30T11:47:31Z</time>
      </trkpt>
      <trkpt lat="40.449933" lon="-5.270817">
        <ele>2251.0</ele>
        <time>2014-06-30T11:47:32Z</time>
      </trkpt>
      <trkpt lat="40.449950" lon="-5.270900">
        <ele>2253.0</ele>
        <time>2014-06-30T11:47:33Z</time>
      </trkpt>
      <trkpt lat="40.449917" lon="-5.270983">
        <ele>2253.0</ele>
        <time>2014-06-30T11:47:34Z</time>
      </trkpt>
      <trkpt lat="40.449867" lon="-5.271050">
        <ele>2254.0</ele>
        <time>2014-06-30T11:47:35Z</time>
      </trkpt>
      <trkpt lat="40.449783" lon="-5.271067">
        <ele>2255.0</ele>
        <time>2014-06-30T11:47:36Z</time>
      </trkpt>
      <trkpt lat="40.449717" lon="-5.271017">
        <ele>2255.0</ele>
        <time>2014-06-30T11:47:37Z</time>
      </trkpt>
      <trkpt lat="40.449650" lon="-5.270933">
        <ele>2256.0</ele>
        <time>2014-06-30T11:47:38Z</time>
      </trkpt>
      <trkpt lat="40.449600" lon="-5.270833">
        <ele>2257.0</ele>
        <time>2014-06-30T11:47:39Z</time>
      </trkpt>
      <trkpt lat="40.449583" lon="-5.270717">
        <ele>2258.0</ele>
        <time>2014-06-30T11:47:40Z</time>
      </trkpt>
      <trkpt lat="40.449583" lon="-5.270617">
        <ele>2259.0</ele>
        <time>2014-06-30T11:47:41Z</time>
      </trkpt>
      <trkpt lat="40.449617" lon="-5.270500">
        <ele>2260.0</ele>
        <time>2014-06-30T11:47:42Z</time>
      </trkpt>
      <trkpt lat="40.449650" lon="-5.270400">
        <ele>2262.0</ele>
        <time>2014-06-30T11:47:43Z</time>
      </trkpt>
      <trkpt lat="40.449683" lon="-5.270300">
        <ele>2263.0</ele>
        <time>2014-06-30T11:47:44Z</time>
      </trkpt>
      <trkpt lat="40.449717" lon="-5.270200">
        <ele>2264.0</ele>
        <time>2014-06-30T11:47:45Z</time>
      </trkpt>
      <trkpt lat="40.449767" lon="-5.270100">
        <ele>2266.0</ele>
        <time>2014-06-30T11:47:46Z</time>
      </trkpt>
      <trkpt lat="40.449833" lon="-5.270017">
        <ele>2269.0</ele>
        <time>2014-06-30T11:47:47Z</time>
      </trkpt>
      <trkpt lat="40.449900" lon="-5.269967">
        <ele>2271.0</ele>
        <time>2014-06-30T11:47:48Z</time>
      </trkpt>
      <trkpt lat="40.449967" lon="-5.269900">
        <ele>2271.0</ele>
        <time>2014-06-30T11:47:49Z</time>
      </trkpt>
      <trkpt lat="40.450033" lon="-5.269867">
        <ele>2271.0</ele>
        <time>2014-06-30T11:47:50Z</time>
      </trkpt>
      <trkpt lat="40.450117" lon="-5.269850">
        <ele>2272.0</ele>
        <time>2014-06-30T11:47:51Z</time>
      </trkpt>
      <trkpt lat="40.450200" lon="-5.269833">
        <ele>2272.0</ele>
        <time>2014-06-30T11:47:52Z</time>
      </trkpt>
      <trkpt lat="40.450283" lon="-5.269850">
        <ele>2274.0</ele>
        <time>2014-06-30T11:47:53Z</time>
      </trkpt>
      <trkpt lat="40.450367" lon="-5.269867">
        <ele>2275.0</ele>
        <time>2014-06-30T11:47:54Z</time>
      </trkpt>
      <trkpt lat="40.450433" lon="-5.269900">
        <ele>2276.0</ele>
        <time>2014-06-30T11:47:55Z</time>
      </trkpt>
      <trkpt lat="40.450500" lon="-5.269950">
        <ele>2278.0</ele>
        <time>2014-06-30T11:47:56Z</time>
      </trkpt>
      <trkpt lat="40.450567" lon="-5.269983">
        <ele>2279.0</ele>
        <time>2014-06-30T11:47:57Z</time>
      </trkpt>
      <trkpt lat="40.450633" lon="-5.270033">
        <ele>2280.0</ele>
        <time>2014-06-30T11:47:58Z</time>
      </trkpt>
      <trkpt lat="40.450700" lon="-5.270067">
        <ele>2280.0</ele>
        <time>2014-06-30T11:47:59Z</time>
      </trkpt>
      <trkpt lat="40.450767" lon="-5.270100">
        <ele>2280.0</ele>
        <time>2014-06-30T11:48:00Z</time>
      </trkpt>
      <trkpt lat="40.450833" lon="-5.270167">
        <ele>2280.0</ele>
        <time>2014-06-30T11:48:01Z</time>
      </trkpt>
      <trkpt lat="40.450900" lon="-5.270217">
        <ele>2280.0</ele>
        <time>2014-06-30T11:48:02Z</time>
      </trkpt>
      <trkpt lat="40.450950" lon="-5.270300">
        <ele>2279.0</ele>
        <time>2014-06-30T11:48:03Z</time>
      </trkpt>
      <trkpt lat="40.451000" lon="-5.270367">
        <ele>2279.0</ele>
        <time>2014-06-30T11:48:04Z</time>
      </trkpt>
      <trkpt lat="40.451033" lon="-5.270433">
        <ele>2278.0</ele>
        <time>2014-06-30T11:48:05Z</time>
      </trkpt>
      <trkpt lat="40.451083" lon="-5.270517">
        <ele>2278.0</ele>
        <time>2014-06-30T11:48:06Z</time>
      </trkpt>
      <trkpt lat="40.451133" lon="-5.270583">
        <ele>2278.0</ele>
        <time>2014-06-30T11:48:07Z</time>
      </trkpt>
      <trkpt lat="40.451183" lon="-5.270667">
        <ele>2278.0</ele>
        <time>2014-06-30T11:48:08Z</time>
      </trkpt>
      <trkpt lat="40.451200" lon="-5.270750">
        <ele>2278.0</ele>
        <time>2014-06-30T11:48:09Z</time>
      </trkpt>
      <trkpt lat="40.451233" lon="-5.270833">
        <ele>2278.0</ele>
        <time>2014-06-30T11:48:10Z</time>
      </trkpt>
      <trkpt lat="40.451267" lon="-5.270933">
        <ele>2278.0</ele>
        <time>2014-06-30T11:48:11Z</time>
      </trkpt>
      <trkpt lat="40.451317" lon="-5.271017">
        <ele>2278.0</ele>
        <time>2014-06-30T11:48:12Z</time>
      </trkpt>
      <trkpt lat="40.451350" lon="-5.271100">
        <ele>2278.0</ele>
        <time>2014-06-30T11:48:13Z</time>
      </trkpt>
      <trkpt lat="40.451400" lon="-5.271167">
        <ele>2279.0</ele>
        <time>2014-06-30T11:48:14Z</time>
      </trkpt>
      <trkpt lat="40.451433" lon="-5.271233">
        <ele>2279.0</ele>
        <time>2014-06-30T11:48:15Z</time>
      </trkpt>
      <trkpt lat="40.451467" lon="-5.271300">
        <ele>2279.0</ele>
        <time>2014-06-30T11:48:16Z</time>
      </trkpt>
      <trkpt lat="40.451500" lon="-5.271350">
        <ele>2279.0</ele>
        <time>2014-06-30T11:48:17Z</time>
      </trkpt>
      <trkpt lat="40.451500" lon="-5.271383">
        <ele>2279.0</ele>
        <time>2014-06-30T11:48:18Z</time>
      </trkpt>
      <trkpt lat="40.451500" lon="-5.271433">
        <ele>2278.0</ele>
        <time>2014-06-30T11:48:19Z</time>
      </trkpt>
      <trkpt lat="40.451483" lon="-5.271500">
        <ele>2276.0</ele>
        <time>2014-06-30T11:48:20Z</time>
      </trkpt>
      <trkpt lat="40.451433" lon="-5.271533">
        <ele>2274.0</ele>
        <time>2014-06-30T11:48:21Z</time>
      </trkpt>
      <trkpt lat="40.451367" lon="-5.271533">
        <ele>2272.0</ele>
        <time>2014-06-30T11:48:22Z</time>
      </trkpt>
      <trkpt lat="40.451300" lon="-5.271467">
        <ele>2270.0</ele>
        <time>2014-06-30T11:48:23Z</time>
      </trkpt>
      <trkpt lat="40.451250" lon="-5.271350">
        <ele>2267.0</ele>
        <time>2014-06-30T11:48:24Z</time>
      </trkpt>
      <trkpt lat="40.451217" lon="-5.271200">
        <ele>2265.0</ele>
        <time>2014-06-30T11:48:25Z</time>
      </trkpt>
      <trkpt lat="40.451183" lon="-5.271050">
        <ele>2265.0</ele>
        <time>2014-06-30T11:48:26Z</time>
      </trkpt>
      <trkpt lat="40.451133" lon="-5.270933">
        <ele>2264.0</ele>
        <time>2014-06-30T11:48:27Z</time>
      </trkpt>
      <trkpt lat="40.451083" lon="-5.270817">
        <ele>2263.0</ele>
        <time>2014-06-30T11:48:28Z</time>
      </trkpt>
      <trkpt lat="40.451050" lon="-5.270683">
        <ele>2263.0</ele>
        <time>2014-06-30T11:48:29Z</time>
      </trkpt>
      <trkpt lat="40.451033" lon="-5.270517">
        <ele>2261.0</ele>
        <time>2014-06-30T11:48:30Z</time>
      </trkpt>
      <trkpt lat="40.451033" lon="-5.270333">
        <ele>2260.0</ele>
        <time>2014-06-30T11:48:31Z</time>
      </trkpt>
      <trkpt lat="40.451033" lon="-5.270167">
        <ele>2260.0</ele>
        <time>2014-06-30T11:48:32Z</time>
      </trkpt>
      <trkpt lat="40.451033" lon="-5.269983">
        <ele>2260.0</ele>
        <time>2014-06-30T11:48:33Z</time>
      </trkpt>
      <trkpt lat="40.451017" lon="-5.269833">
        <ele>2260.0</ele>
        <time>2014-06-30T11:48:34Z</time>
      </trkpt>
      <trkpt lat="40.451017" lon="-5.269667">
        <ele>2259.0</ele>
        <time>2014-06-30T11:48:35Z</time>
      </trkpt>
      <trkpt lat="40.451033" lon="-5.269500">
        <ele>2256.0</ele>
        <time>2014-06-30T11:48:36Z</time>
      </trkpt>
      <trkpt lat="40.451067" lon="-5.269317">
        <ele>2254.0</ele>
        <time>2014-06-30T11:48:37Z</time>
      </trkpt>
      <trkpt lat="40.451117" lon="-5.269150">
        <ele>2253.0</ele>
        <time>2014-06-30T11:48:38Z</time>
      </trkpt>
      <trkpt lat="40.451150" lon="-5.268967">
        <ele>2252.0</ele>
        <time>2014-06-30T11:48:39Z</time>
      </trkpt>
      <trkpt lat="40.451183" lon="-5.268800">
        <ele>2252.0</ele>
        <time>2014-06-30T11:48:40Z</time>
      </trkpt>
      <trkpt lat="40.451217" lon="-5.268650">
        <ele>2252.0</ele>
        <time>2014-06-30T11:48:41Z</time>
      </trkpt>
      <trkpt lat="40.451250" lon="-5.268500">
        <ele>2252.0</ele>
        <time>2014-06-30T11:48:42Z</time>
      </trkpt>
      <trkpt lat="40.451300" lon="-5.268350">
        <ele>2252.0</ele>
        <time>2014-06-30T11:48:43Z</time>
      </trkpt>
      <trkpt lat="40.451333" lon="-5.268200">
        <ele>2251.0</ele>
        <time>2014-06-30T11:48:44Z</time>
      </trkpt>
      <trkpt lat="40.451383" lon="-5.268033">
        <ele>2250.0</ele>
        <time>2014-06-30T11:48:45Z</time>
      </trkpt>
      <trkpt lat="40.451433" lon="-5.267867">
        <ele>2250.0</ele>
        <time>2014-06-30T11:48:46Z</time>
      </trkpt>
      <trkpt lat="40.451483" lon="-5.267717">
        <ele>2249.0</ele>
        <time>2014-06-30T11:48:47Z</time>
      </trkpt>
      <trkpt lat="40.451533" lon="-5.267567">
        <ele>2250.0</ele>
        <time>2014-06-30T11:48:48Z</time>
      </trkpt>
      <trkpt lat="40.451600" lon="-5.267417">
        <ele>2251.0</ele>
        <time>2014-06-30T11:48:49Z</time>
      </trkpt>
      <trkpt lat="40.451667" lon="-5.267283">
        <ele>2253.0</ele>
        <time>2014-06-30T11:48:50Z</time>
      </trkpt>
      <trkpt lat="40.451733" lon="-5.267200">
        <ele>2255.0</ele>
        <time>2014-06-30T11:48:51Z</time>
      </trkpt>
      <trkpt lat="40.451800" lon="-5.267117">
        <ele>2257.0</ele>
        <time>2014-06-30T11:48:52Z</time>
      </trkpt>
      <trkpt lat="40.451850" lon="-5.267050">
        <ele>2258.0</ele>
        <time>2014-06-30T11:48:53Z</time>
      </trkpt>
      <trkpt lat="40.451917" lon="-5.266967">
        <ele>2258.0</ele>
        <time>2014-06-30T11:48:54Z</time>
      </trkpt>
      <trkpt lat="40.451983" lon="-5.266900">
        <ele>2259.0</ele>
        <time>2014-06-30T11:48:55Z</time>
      </trkpt>
      <trkpt lat="40.452067" lon="-5.266833">
        <ele>2258.0</ele>
        <time>2014-06-30T11:48:56Z</time>
      </trkpt>
      <trkpt lat="40.452167" lon="-5.266800">
        <ele>2257.0</ele>
        <time>2014-06-30T11:48:57Z</time>
      </trkpt>
      <trkpt lat="40.452267" lon="-5.266783">
        <ele>2256.0</ele>
        <time>2014-06-30T11:48:58Z</time>
      </trkpt>
      <trkpt lat="40.452367" lon="-5.266750">
        <ele>2255.0</ele>
        <time>2014-06-30T11:48:59Z</time>
      </trkpt>
      <trkpt lat="40.452467" lon="-5.266733">
        <ele>2254.0</ele>
        <time>2014-06-30T11:49:00Z</time>
      </trkpt>
      <trkpt lat="40.452567" lon="-5.266717">
        <ele>2252.0</ele>
        <time>2014-06-30T11:49:01Z</time>
      </trkpt>
      <trkpt lat="40.452667" lon="-5.266717">
        <ele>2251.0</ele>
        <time>2014-06-30T11:49:02Z</time>
      </trkpt>
      <trkpt lat="40.452767" lon="-5.266700">
        <ele>2249.0</ele>
        <time>2014-06-30T11:49:03Z</time>
      </trkpt>
      <trkpt lat="40.452883" lon="-5.266683">
        <ele>2247.0</ele>
        <time>2014-06-30T11:49:04Z</time>
      </trkpt>
      <trkpt lat="40.452983" lon="-5.266683">
        <ele>2245.0</ele>
        <time>2014-06-30T11:49:05Z</time>
      </trkpt>
      <trkpt lat="40.453100" lon="-5.266683">
        <ele>2243.0</ele>
        <time>2014-06-30T11:49:06Z</time>
      </trkpt>
      <trkpt lat="40.453200" lon="-5.266700">
        <ele>2241.0</ele>
        <time>2014-06-30T11:49:07Z</time>
      </trkpt>
      <trkpt lat="40.453283" lon="-5.266733">
        <ele>2240.0</ele>
        <time>2014-06-30T11:49:08Z</time>
      </trkpt>
      <trkpt lat="40.453383" lon="-5.266767">
        <ele>2238.0</ele>
        <time>2014-06-30T11:49:09Z</time>
      </trkpt>
      <trkpt lat="40.453483" lon="-5.266800">
        <ele>2236.0</ele>
        <time>2014-06-30T11:49:10Z</time>
      </trkpt>
      <trkpt lat="40.453583" lon="-5.266850">
        <ele>2234.0</ele>
        <time>2014-06-30T11:49:11Z</time>
      </trkpt>
      <trkpt lat="40.453683" lon="-5.266883">
        <ele>2233.0</ele>
        <time>2014-06-30T11:49:12Z</time>
      </trkpt>
      <trkpt lat="40.453767" lon="-5.266917">
        <ele>2231.0</ele>
        <time>2014-06-30T11:49:13Z</time>
      </trkpt>
      <trkpt lat="40.453867" lon="-5.266950">
        <ele>2229.0</ele>
        <time>2014-06-30T11:49:14Z</time>
      </trkpt>
      <trkpt lat="40.453967" lon="-5.267000">
        <ele>2228.0</ele>
        <time>2014-06-30T11:49:15Z</time>
      </trkpt>
      <trkpt lat="40.454067" lon="-5.267050">
        <ele>2226.0</ele>
        <time>2014-06-30T11:49:16Z</time>
      </trkpt>
      <trkpt lat="40.454183" lon="-5.267100">
        <ele>2226.0</ele>
        <time>2014-06-30T11:49:17Z</time>
      </trkpt>
      <trkpt lat="40.454283" lon="-5.267150">
        <ele>2226.0</ele>
        <time>2014-06-30T11:49:18Z</time>
      </trkpt>
      <trkpt lat="40.454367" lon="-5.267183">
        <ele>2226.0</ele>
        <time>2014-06-30T11:49:19Z</time>
      </trkpt>
      <trkpt lat="40.454450" lon="-5.267233">
        <ele>2225.0</ele>
        <time>2014-06-30T11:49:20Z</time>
      </trkpt>
      <trkpt lat="40.454533" lon="-5.267267">
        <ele>2225.0</ele>
        <time>2014-06-30T11:49:21Z</time>
      </trkpt>
      <trkpt lat="40.454617" lon="-5.267300">
        <ele>2224.0</ele>
        <time>2014-06-30T11:49:22Z</time>
      </trkpt>
      <trkpt lat="40.454700" lon="-5.267350">
        <ele>2223.0</ele>
        <time>2014-06-30T11:49:23Z</time>
      </trkpt>
      <trkpt lat="40.454783" lon="-5.267417">
        <ele>2222.0</ele>
        <time>2014-06-30T11:49:24Z</time>
      </trkpt>
      <trkpt lat="40.454850" lon="-5.267483">
        <ele>2222.0</ele>
        <time>2014-06-30T11:49:25Z</time>
      </trkpt>
      <trkpt lat="40.454900" lon="-5.267550">
        <ele>2222.0</ele>
        <time>2014-06-30T11:49:26Z</time>
      </trkpt>
      <trkpt lat="40.454967" lon="-5.267600">
        <ele>2221.0</ele>
        <time>2014-06-30T11:49:27Z</time>
      </trkpt>
      <trkpt lat="40.455050" lon="-5.267633">
        <ele>2219.0</ele>
        <time>2014-06-30T11:49:28Z</time>
      </trkpt>
      <trkpt lat="40.455117" lon="-5.267700">
        <ele>2218.0</ele>
        <time>2014-06-30T11:49:29Z</time>
      </trkpt>
      <trkpt lat="40.455200" lon="-5.267767">
        <ele>2217.0</ele>
        <time>2014-06-30T11:49:30Z</time>
      </trkpt>
      <trkpt lat="40.455267" lon="-5.267850">
        <ele>2215.0</ele>
        <time>2014-06-30T11:49:31Z</time>
      </trkpt>
      <trkpt lat="40.455333" lon="-5.267917">
        <ele>2214.0</ele>
        <time>2014-06-30T11:49:32Z</time>
      </trkpt>
      <trkpt lat="40.455383" lon="-5.267983">
        <ele>2214.0</ele>
        <time>2014-06-30T11:49:33Z</time>
      </trkpt>
      <trkpt lat="40.455433" lon="-5.268033">
        <ele>2214.0</ele>
        <time>2014-06-30T11:49:34Z</time>
      </trkpt>
      <trkpt lat="40.455483" lon="-5.268083">
        <ele>2214.0</ele>
        <time>2014-06-30T11:49:35Z</time>
      </trkpt>
      <trkpt lat="40.455533" lon="-5.268133">
        <ele>2213.0</ele>
        <time>2014-06-30T11:49:36Z</time>
      </trkpt>
      <trkpt lat="40.455600" lon="-5.268167">
        <ele>2212.0</ele>
        <time>2014-06-30T11:49:37Z</time>
      </trkpt>
      <trkpt lat="40.455650" lon="-5.268233">
        <ele>2211.0</ele>
        <time>2014-06-30T11:49:38Z</time>
      </trkpt>
      <trkpt lat="40.455717" lon="-5.268283">
        <ele>2211.0</ele>
        <time>2014-06-30T11:49:39Z</time>
      </trkpt>
      <trkpt lat="40.455783" lon="-5.268367">
        <ele>2211.0</ele>
        <time>2014-06-30T11:49:40Z</time>
      </trkpt>
      <trkpt lat="40.455850" lon="-5.268433">
        <ele>2210.0</ele>
        <time>2014-06-30T11:49:41Z</time>
      </trkpt>
      <trkpt lat="40.455933" lon="-5.268483">
        <ele>2209.0</ele>
        <time>2014-06-30T11:49:42Z</time>
      </trkpt>
      <trkpt lat="40.456000" lon="-5.268550">
        <ele>2208.0</ele>
        <time>2014-06-30T11:49:43Z</time>
      </trkpt>
      <trkpt lat="40.456067" lon="-5.268600">
        <ele>2207.0</ele>
        <time>2014-06-30T11:49:44Z</time>
      </trkpt>
      <trkpt lat="40.456133" lon="-5.268650">
        <ele>2206.0</ele>
        <time>2014-06-30T11:49:45Z</time>
      </trkpt>
      <trkpt lat="40.456217" lon="-5.268717">
        <ele>2206.0</ele>
        <time>2014-06-30T11:49:46Z</time>
      </trkpt>
      <trkpt lat="40.456317" lon="-5.268783">
        <ele>2205.0</ele>
        <time>2014-06-30T11:49:47Z</time>
      </trkpt>
      <trkpt lat="40.456400" lon="-5.268850">
        <ele>2203.0</ele>
        <time>2014-06-30T11:49:48Z</time>
      </trkpt>
      <trkpt lat="40.456450" lon="-5.268917">
        <ele>2201.0</ele>
        <time>2014-06-30T11:49:49Z</time>
      </trkpt>
      <trkpt lat="40.456533" lon="-5.268967">
        <ele>2199.0</ele>
        <time>2014-06-30T11:49:50Z</time>
      </trkpt>
      <trkpt lat="40.456617" lon="-5.269033">
        <ele>2197.0</ele>
        <time>2014-06-30T11:49:51Z</time>
      </trkpt>
      <trkpt lat="40.456683" lon="-5.269100">
        <ele>2196.0</ele>
        <time>2014-06-30T11:49:52Z</time>
      </trkpt>
      <trkpt lat="40.456767" lon="-5.269150">
        <ele>2194.0</ele>
        <time>2014-06-30T11:49:53Z</time>
      </trkpt>
      <trkpt lat="40.456833" lon="-5.269217">
        <ele>2193.0</ele>
        <time>2014-06-30T11:49:54Z</time>
      </trkpt>
      <trkpt lat="40.456917" lon="-5.269283">
        <ele>2191.0</ele>
        <time>2014-06-30T11:49:55Z</time>
      </trkpt>
      <trkpt lat="40.457000" lon="-5.269333">
        <ele>2190.0</ele>
        <time>2014-06-30T11:49:56Z</time>
      </trkpt>
      <trkpt lat="40.457083" lon="-5.269383">
        <ele>2188.0</ele>
        <time>2014-06-30T11:49:57Z</time>
      </trkpt>
      <trkpt lat="40.457150" lon="-5.269433">
        <ele>2189.0</ele>
        <time>2014-06-30T11:49:58Z</time>
      </trkpt>
      <trkpt lat="40.457233" lon="-5.269483">
        <ele>2187.0</ele>
        <time>2014-06-30T11:49:59Z</time>
      </trkpt>
      <trkpt lat="40.457300" lon="-5.269533">
        <ele>2186.0</ele>
        <time>2014-06-30T11:50:00Z</time>
      </trkpt>
      <trkpt lat="40.457367" lon="-5.269600">
        <ele>2184.0</ele>
        <time>2014-06-30T11:50:01Z</time>
      </trkpt>
      <trkpt lat="40.457433" lon="-5.269667">
        <ele>2183.0</ele>
        <time>2014-06-30T11:50:02Z</time>
      </trkpt>
      <trkpt lat="40.457500" lon="-5.269733">
        <ele>2182.0</ele>
        <time>2014-06-30T11:50:03Z</time>
      </trkpt>
      <trkpt lat="40.457550" lon="-5.269800">
        <ele>2181.0</ele>
        <time>2014-06-30T11:50:04Z</time>
      </trkpt>
      <trkpt lat="40.457600" lon="-5.269867">
        <ele>2180.0</ele>
        <time>2014-06-30T11:50:05Z</time>
      </trkpt>
      <trkpt lat="40.457633" lon="-5.269933">
        <ele>2179.0</ele>
        <time>2014-06-30T11:50:06Z</time>
      </trkpt>
      <trkpt lat="40.457683" lon="-5.270000">
        <ele>2179.0</ele>
        <time>2014-06-30T11:50:07Z</time>
      </trkpt>
      <trkpt lat="40.457733" lon="-5.270067">
        <ele>2179.0</ele>
        <time>2014-06-30T11:50:08Z</time>
      </trkpt>
      <trkpt lat="40.457800" lon="-5.270117">
        <ele>2179.0</ele>
        <time>2014-06-30T11:50:09Z</time>
      </trkpt>
      <trkpt lat="40.457850" lon="-5.270183">
        <ele>2178.0</ele>
        <time>2014-06-30T11:50:10Z</time>
      </trkpt>
      <trkpt lat="40.457900" lon="-5.270250">
        <ele>2178.0</ele>
        <time>2014-06-30T11:50:11Z</time>
      </trkpt>
      <trkpt lat="40.457967" lon="-5.270317">
        <ele>2177.0</ele>
        <time>2014-06-30T11:50:12Z</time>
      </trkpt>
      <trkpt lat="40.458033" lon="-5.270367">
        <ele>2176.0</ele>
        <time>2014-06-30T11:50:13Z</time>
      </trkpt>
      <trkpt lat="40.458100" lon="-5.270433">
        <ele>2175.0</ele>
        <time>2014-06-30T11:50:14Z</time>
      </trkpt>
      <trkpt lat="40.458150" lon="-5.270500">
        <ele>2174.0</ele>
        <time>2014-06-30T11:50:15Z</time>
      </trkpt>
      <trkpt lat="40.458217" lon="-5.270550">
        <ele>2174.0</ele>
        <time>2014-06-30T11:50:16Z</time>
      </trkpt>
      <trkpt lat="40.458283" lon="-5.270617">
        <ele>2173.0</ele>
        <time>2014-06-30T11:50:17Z</time>
      </trkpt>
      <trkpt lat="40.458350" lon="-5.270667">
        <ele>2172.0</ele>
        <time>2014-06-30T11:50:18Z</time>
      </trkpt>
      <trkpt lat="40.458417" lon="-5.270733">
        <ele>2172.0</ele>
        <time>2014-06-30T11:50:19Z</time>
      </trkpt>
      <trkpt lat="40.458467" lon="-5.270817">
        <ele>2172.0</ele>
        <time>2014-06-30T11:50:20Z</time>
      </trkpt>
      <trkpt lat="40.458533" lon="-5.270900">
        <ele>2172.0</ele>
        <time>2014-06-30T11:50:21Z</time>
      </trkpt>
      <trkpt lat="40.458600" lon="-5.270983">
        <ele>2172.0</ele>
        <time>2014-06-30T11:50:22Z</time>
      </trkpt>
      <trkpt lat="40.458650" lon="-5.271067">
        <ele>2173.0</ele>
        <time>2014-06-30T11:50:23Z</time>
      </trkpt>
      <trkpt lat="40.458717" lon="-5.271117">
        <ele>2173.0</ele>
        <time>2014-06-30T11:50:24Z</time>
      </trkpt>
      <trkpt lat="40.458767" lon="-5.271183">
        <ele>2173.0</ele>
        <time>2014-06-30T11:50:25Z</time>
      </trkpt>
      <trkpt lat="40.458817" lon="-5.271233">
        <ele>2174.0</ele>
        <time>2014-06-30T11:50:26Z</time>
      </trkpt>
      <trkpt lat="40.458867" lon="-5.271283">
        <ele>2173.0</ele>
        <time>2014-06-30T11:50:27Z</time>
      </trkpt>
      <trkpt lat="40.458917" lon="-5.271333">
        <ele>2173.0</ele>
        <time>2014-06-30T11:50:28Z</time>
      </trkpt>
      <trkpt lat="40.458983" lon="-5.271367">
        <ele>2173.0</ele>
        <time>2014-06-30T11:50:29Z</time>
      </trkpt>
      <trkpt lat="40.459033" lon="-5.271417">
        <ele>2173.0</ele>
        <time>2014-06-30T11:50:30Z</time>
      </trkpt>
      <trkpt lat="40.459100" lon="-5.271450">
        <ele>2173.0</ele>
        <time>2014-06-30T11:50:31Z</time>
      </trkpt>
      <trkpt lat="40.459150" lon="-5.271483">
        <ele>2173.0</ele>
        <time>2014-06-30T11:50:32Z</time>
      </trkpt>
      <trkpt lat="40.459200" lon="-5.271500">
        <ele>2173.0</ele>
        <time>2014-06-30T11:50:33Z</time>
      </trkpt>
      <trkpt lat="40.459250" lon="-5.271500">
        <ele>2172.0</ele>
        <time>2014-06-30T11:50:34Z</time>
      </trkpt>
      <trkpt lat="40.459333" lon="-5.271533">
        <ele>2172.0</ele>
        <time>2014-06-30T11:50:35Z</time>
      </trkpt>
      <trkpt lat="40.459383" lon="-5.271583">
        <ele>2172.0</ele>
        <time>2014-06-30T11:50:36Z</time>
      </trkpt>
      <trkpt lat="40.459450" lon="-5.271633">
        <ele>2171.0</ele>
        <time>2014-06-30T11:50:37Z</time>
      </trkpt>
      <trkpt lat="40.459500" lon="-5.271717">
        <ele>2170.0</ele>
        <time>2014-06-30T11:50:38Z</time>
      </trkpt>
      <trkpt lat="40.459550" lon="-5.271783">
        <ele>2170.0</ele>
        <time>2014-06-30T11:50:39Z</time>
      </trkpt>
      <trkpt lat="40.459600" lon="-5.271867">
        <ele>2169.0</ele>
        <time>2014-06-30T11:50:40Z</time>
      </trkpt>
      <trkpt lat="40.459667" lon="-5.271933">
        <ele>2169.0</ele>
        <time>2014-06-30T11:50:41Z</time>
      </trkpt>
      <trkpt lat="40.459717" lon="-5.272000">
        <ele>2168.0</ele>
        <time>2014-06-30T11:50:42Z</time>
      </trkpt>
      <trkpt lat="40.459767" lon="-5.272067">
        <ele>2168.0</ele>
        <time>2014-06-30T11:50:43Z</time>
      </trkpt>
      <trkpt lat="40.459833" lon="-5.272117">
        <ele>2168.0</ele>
        <time>2014-06-30T11:50:44Z</time>
      </trkpt>
      <trkpt lat="40.459883" lon="-5.272167">
        <ele>2168.0</ele>
        <time>2014-06-30T11:50:45Z</time>
      </trkpt>
      <trkpt lat="40.459917" lon="-5.272200">
        <ele>2167.0</ele>
        <time>2014-06-30T11:50:46Z</time>
      </trkpt>
      <trkpt lat="40.459967" lon="-5.272250">
        <ele>2166.0</ele>
        <time>2014-06-30T11:50:47Z</time>
      </trkpt>
      <trkpt lat="40.460000" lon="-5.272317">
        <ele>2164.0</ele>
        <time>2014-06-30T11:50:48Z</time>
      </trkpt>
      <trkpt lat="40.460050" lon="-5.272383">
        <ele>2161.0</ele>
        <time>2014-06-30T11:50:49Z</time>
      </trkpt>
      <trkpt lat="40.460117" lon="-5.272450">
        <ele>2159.0</ele>
        <time>2014-06-30T11:50:50Z</time>
      </trkpt>
      <trkpt lat="40.460183" lon="-5.272533">
        <ele>2156.0</ele>
        <time>2014-06-30T11:50:51Z</time>
      </trkpt>
      <trkpt lat="40.460267" lon="-5.272600">
        <ele>2154.0</ele>
        <time>2014-06-30T11:50:52Z</time>
      </trkpt>
      <trkpt lat="40.460333" lon="-5.272667">
        <ele>2153.0</ele>
        <time>2014-06-30T11:50:53Z</time>
      </trkpt>
      <trkpt lat="40.460400" lon="-5.272750">
        <ele>2151.0</ele>
        <time>2014-06-30T11:50:54Z</time>
      </trkpt>
      <trkpt lat="40.460450" lon="-5.272833">
        <ele>2149.0</ele>
        <time>2014-06-30T11:50:55Z</time>
      </trkpt>
      <trkpt lat="40.460500" lon="-5.272917">
        <ele>2152.0</ele>
        <time>2014-06-30T11:50:56Z</time>
      </trkpt>
      <trkpt lat="40.460567" lon="-5.273000">
        <ele>2151.0</ele>
        <time>2014-06-30T11:50:57Z</time>
      </trkpt>
      <trkpt lat="40.460617" lon="-5.273067">
        <ele>2150.0</ele>
        <time>2014-06-30T11:50:58Z</time>
      </trkpt>
      <trkpt lat="40.460683" lon="-5.273150">
        <ele>2148.0</ele>
        <time>2014-06-30T11:50:59Z</time>
      </trkpt>
      <trkpt lat="40.460733" lon="-5.273200">
        <ele>2147.0</ele>
        <time>2014-06-30T11:51:00Z</time>
      </trkpt>
      <trkpt lat="40.460783" lon="-5.273267">
        <ele>2144.0</ele>
        <time>2014-06-30T11:51:01Z</time>
      </trkpt>
      <trkpt lat="40.460833" lon="-5.273317">
        <ele>2142.0</ele>
        <time>2014-06-30T11:51:02Z</time>
      </trkpt>
      <trkpt lat="40.460900" lon="-5.273367">
        <ele>2139.0</ele>
        <time>2014-06-30T11:51:03Z</time>
      </trkpt>
      <trkpt lat="40.460950" lon="-5.273417">
        <ele>2136.0</ele>
        <time>2014-06-30T11:51:04Z</time>
      </trkpt>
      <trkpt lat="40.460983" lon="-5.273483">
        <ele>2133.0</ele>
        <time>2014-06-30T11:51:05Z</time>
      </trkpt>
      <trkpt lat="40.461000" lon="-5.273550">
        <ele>2129.0</ele>
        <time>2014-06-30T11:51:06Z</time>
      </trkpt>
      <trkpt lat="40.461000" lon="-5.273617">
        <ele>2125.0</ele>
        <time>2014-06-30T11:51:07Z</time>
      </trkpt>
      <trkpt lat="40.460983" lon="-5.273667">
        <ele>2120.0</ele>
        <time>2014-06-30T11:51:08Z</time>
      </trkpt>
      <trkpt lat="40.460983" lon="-5.273767">
        <ele>2114.0</ele>
        <time>2014-06-30T11:51:09Z</time>
      </trkpt>
      <trkpt lat="40.460967" lon="-5.273850">
        <ele>2119.0</ele>
        <time>2014-06-30T11:51:10Z</time>
      </trkpt>
      <trkpt lat="40.460967" lon="-5.273933">
        <ele>2119.0</ele>
        <time>2014-06-30T11:51:11Z</time>
      </trkpt>
      <trkpt lat="40.460967" lon="-5.274033">
        <ele>2118.0</ele>
        <time>2014-06-30T11:51:12Z</time>
      </trkpt>
      <trkpt lat="40.460950" lon="-5.274117">
        <ele>2116.0</ele>
        <time>2014-06-30T11:51:13Z</time>
      </trkpt>
      <trkpt lat="40.460933" lon="-5.274217">
        <ele>2113.0</ele>
        <time>2014-06-30T11:51:14Z</time>
      </trkpt>
      <trkpt lat="40.460917" lon="-5.274300">
        <ele>2108.0</ele>
        <time>2014-06-30T11:51:15Z</time>
      </trkpt>
      <trkpt lat="40.460900" lon="-5.274400">
        <ele>2105.0</ele>
        <time>2014-06-30T11:51:16Z</time>
      </trkpt>
      <trkpt lat="40.460900" lon="-5.274500">
        <ele>2102.0</ele>
        <time>2014-06-30T11:51:17Z</time>
      </trkpt>
      <trkpt lat="40.460883" lon="-5.274583">
        <ele>2098.0</ele>
        <time>2014-06-30T11:51:18Z</time>
      </trkpt>
      <trkpt lat="40.460883" lon="-5.274683">
        <ele>2094.0</ele>
        <time>2014-06-30T11:51:19Z</time>
      </trkpt>
      <trkpt lat="40.460883" lon="-5.274767">
        <ele>2091.0</ele>
        <time>2014-06-30T11:51:20Z</time>
      </trkpt>
      <trkpt lat="40.460883" lon="-5.274850">
        <ele>2087.0</ele>
        <time>2014-06-30T11:51:21Z</time>
      </trkpt>
      <trkpt lat="40.460867" lon="-5.274950">
        <ele>2082.0</ele>
        <time>2014-06-30T11:51:22Z</time>
      </trkpt>
      <trkpt lat="40.460850" lon="-5.275067">
        <ele>2087.0</ele>
        <time>2014-06-30T11:51:23Z</time>
      </trkpt>
      <trkpt lat="40.460833" lon="-5.275167">
        <ele>2083.0</ele>
        <time>2014-06-30T11:51:24Z</time>
      </trkpt>
      <trkpt lat="40.460800" lon="-5.275267">
        <ele>2080.0</ele>
        <time>2014-06-30T11:51:25Z</time>
      </trkpt>
      <trkpt lat="40.460767" lon="-5.275350">
        <ele>2077.0</ele>
        <time>2014-06-30T11:51:26Z</time>
      </trkpt>
      <trkpt lat="40.460750" lon="-5.275433">
        <ele>2075.0</ele>
        <time>2014-06-30T11:51:27Z</time>
      </trkpt>
      <trkpt lat="40.460717" lon="-5.275517">
        <ele>2072.0</ele>
        <time>2014-06-30T11:51:28Z</time>
      </trkpt>
      <trkpt lat="40.460683" lon="-5.275617">
        <ele>2068.0</ele>
        <time>2014-06-30T11:51:29Z</time>
      </trkpt>
      <trkpt lat="40.460650" lon="-5.275700">
        <ele>2065.0</ele>
        <time>2014-06-30T11:51:30Z</time>
      </trkpt>
      <trkpt lat="40.460617" lon="-5.275817">
        <ele>2069.0</ele>
        <time>2014-06-30T11:51:31Z</time>
      </trkpt>
      <trkpt lat="40.460567" lon="-5.275917">
        <ele>2068.0</ele>
        <time>2014-06-30T11:51:32Z</time>
      </trkpt>
      <trkpt lat="40.460533" lon="-5.276017">
        <ele>2068.0</ele>
        <time>2014-06-30T11:51:33Z</time>
      </trkpt>
      <trkpt lat="40.460483" lon="-5.276117">
        <ele>2067.0</ele>
        <time>2014-06-30T11:51:34Z</time>
      </trkpt>
      <trkpt lat="40.460450" lon="-5.276217">
        <ele>2066.0</ele>
        <time>2014-06-30T11:51:35Z</time>
      </trkpt>
      <trkpt lat="40.460417" lon="-5.276283">
        <ele>2064.0</ele>
        <time>2014-06-30T11:51:36Z</time>
      </trkpt>
      <trkpt lat="40.460383" lon="-5.276350">
        <ele>2062.0</ele>
        <time>2014-06-30T11:51:37Z</time>
      </trkpt>
      <trkpt lat="40.460333" lon="-5.276450">
        <ele>2055.0</ele>
        <time>2014-06-30T11:51:38Z</time>
      </trkpt>
      <trkpt lat="40.460283" lon="-5.276567">
        <ele>2050.0</ele>
        <time>2014-06-30T11:51:39Z</time>
      </trkpt>
      <trkpt lat="40.460267" lon="-5.276700">
        <ele>2046.0</ele>
        <time>2014-06-30T11:51:40Z</time>
      </trkpt>
      <trkpt lat="40.460267" lon="-5.276817">
        <ele>2043.0</ele>
        <time>2014-06-30T11:51:41Z</time>
      </trkpt>
      <trkpt lat="40.460267" lon="-5.276950">
        <ele>2041.0</ele>
        <time>2014-06-30T11:51:42Z</time>
      </trkpt>
      <trkpt lat="40.460267" lon="-5.277050">
        <ele>2043.0</ele>
        <time>2014-06-30T11:51:43Z</time>
      </trkpt>
      <trkpt lat="40.460267" lon="-5.277133">
        <ele>2042.0</ele>
        <time>2014-06-30T11:51:44Z</time>
      </trkpt>
      <trkpt lat="40.460267" lon="-5.277233">
        <ele>2042.0</ele>
        <time>2014-06-30T11:51:45Z</time>
      </trkpt>
      <trkpt lat="40.460283" lon="-5.277333">
        <ele>2041.0</ele>
        <time>2014-06-30T11:51:46Z</time>
      </trkpt>
      <trkpt lat="40.460317" lon="-5.277450">
        <ele>2040.0</ele>
        <time>2014-06-30T11:51:47Z</time>
      </trkpt>
      <trkpt lat="40.460333" lon="-5.277567">
        <ele>2039.0</ele>
        <time>2014-06-30T11:51:48Z</time>
      </trkpt>
      <trkpt lat="40.460350" lon="-5.277667">
        <ele>2038.0</ele>
        <time>2014-06-30T11:51:49Z</time>
      </trkpt>
      <trkpt lat="40.460367" lon="-5.277767">
        <ele>2038.0</ele>
        <time>2014-06-30T11:51:50Z</time>
      </trkpt>
      <trkpt lat="40.460383" lon="-5.277867">
        <ele>2036.0</ele>
        <time>2014-06-30T11:51:51Z</time>
      </trkpt>
      <trkpt lat="40.460400" lon="-5.277983">
        <ele>2037.0</ele>
        <time>2014-06-30T11:51:52Z</time>
      </trkpt>
      <trkpt lat="40.460433" lon="-5.278083">
        <ele>2035.0</ele>
        <time>2014-06-30T11:51:53Z</time>
      </trkpt>
      <trkpt lat="40.460467" lon="-5.278217">
        <ele>2033.0</ele>
        <time>2014-06-30T11:51:54Z</time>
      </trkpt>
      <trkpt lat="40.460500" lon="-5.278333">
        <ele>2032.0</ele>
        <time>2014-06-30T11:51:55Z</time>
      </trkpt>
      <trkpt lat="40.460533" lon="-5.278450">
        <ele>2030.0</ele>
        <time>2014-06-30T11:51:56Z</time>
      </trkpt>
      <trkpt lat="40.460550" lon="-5.278550">
        <ele>2027.0</ele>
        <time>2014-06-30T11:51:57Z</time>
      </trkpt>
      <trkpt lat="40.460583" lon="-5.278633">
        <ele>2028.0</ele>
        <time>2014-06-30T11:51:58Z</time>
      </trkpt>
      <trkpt lat="40.460600" lon="-5.278717">
        <ele>2027.0</ele>
        <time>2014-06-30T11:51:59Z</time>
      </trkpt>
      <trkpt lat="40.460617" lon="-5.278817">
        <ele>2026.0</ele>
        <time>2014-06-30T11:52:00Z</time>
      </trkpt>
      <trkpt lat="40.460650" lon="-5.278933">
        <ele>2024.0</ele>
        <time>2014-06-30T11:52:01Z</time>
      </trkpt>
      <trkpt lat="40.460667" lon="-5.279050">
        <ele>2022.0</ele>
        <time>2014-06-30T11:52:02Z</time>
      </trkpt>
      <trkpt lat="40.460700" lon="-5.279133">
        <ele>2021.0</ele>
        <time>2014-06-30T11:52:03Z</time>
      </trkpt>
      <trkpt lat="40.460733" lon="-5.279217">
        <ele>2020.0</ele>
        <time>2014-06-30T11:52:04Z</time>
      </trkpt>
      <trkpt lat="40.460733" lon="-5.279283">
        <ele>2020.0</ele>
        <time>2014-06-30T11:52:05Z</time>
      </trkpt>
      <trkpt lat="40.460733" lon="-5.279350">
        <ele>2018.0</ele>
        <time>2014-06-30T11:52:06Z</time>
      </trkpt>
      <trkpt lat="40.460750" lon="-5.279433">
        <ele>2016.0</ele>
        <time>2014-06-30T11:52:07Z</time>
      </trkpt>
      <trkpt lat="40.460783" lon="-5.279533">
        <ele>2014.0</ele>
        <time>2014-06-30T11:52:08Z</time>
      </trkpt>
      <trkpt lat="40.460817" lon="-5.279650">
        <ele>2011.0</ele>
        <time>2014-06-30T11:52:09Z</time>
      </trkpt>
      <trkpt lat="40.460850" lon="-5.279750">
        <ele>2008.0</ele>
        <time>2014-06-30T11:52:10Z</time>
      </trkpt>
      <trkpt lat="40.460883" lon="-5.279833">
        <ele>2006.0</ele>
        <time>2014-06-30T11:52:11Z</time>
      </trkpt>
      <trkpt lat="40.460900" lon="-5.279917">
        <ele>2004.0</ele>
        <time>2014-06-30T11:52:12Z</time>
      </trkpt>
      <trkpt lat="40.460933" lon="-5.280000">
        <ele>2001.0</ele>
        <time>2014-06-30T11:52:13Z</time>
      </trkpt>
      <trkpt lat="40.460950" lon="-5.280067">
        <ele>1998.0</ele>
        <time>2014-06-30T11:52:14Z</time>
      </trkpt>
      <trkpt lat="40.460983" lon="-5.280167">
        <ele>1995.0</ele>
        <time>2014-06-30T11:52:15Z</time>
      </trkpt>
      <trkpt lat="40.461000" lon="-5.280267">
        <ele>1992.0</ele>
        <time>2014-06-30T11:52:16Z</time>
      </trkpt>
      <trkpt lat="40.461000" lon="-5.280367">
        <ele>1996.0</ele>
        <time>2014-06-30T11:52:17Z</time>
      </trkpt>
      <trkpt lat="40.461017" lon="-5.280467">
        <ele>1996.0</ele>
        <time>2014-06-30T11:52:18Z</time>
      </trkpt>
      <trkpt lat="40.461017" lon="-5.280533">
        <ele>1996.0</ele>
        <time>2014-06-30T11:52:19Z</time>
      </trkpt>
      <trkpt lat="40.461017" lon="-5.280617">
        <ele>1995.0</ele>
        <time>2014-06-30T11:52:20Z</time>
      </trkpt>
      <trkpt lat="40.461017" lon="-5.280717">
        <ele>1994.0</ele>
        <time>2014-06-30T11:52:21Z</time>
      </trkpt>
      <trkpt lat="40.461000" lon="-5.280817">
        <ele>1994.0</ele>
        <time>2014-06-30T11:52:22Z</time>
      </trkpt>
      <trkpt lat="40.461000" lon="-5.280933">
        <ele>1993.0</ele>
        <time>2014-06-30T11:52:23Z</time>
      </trkpt>
      <trkpt lat="40.461017" lon="-5.281033">
        <ele>1992.0</ele>
        <time>2014-06-30T11:52:24Z</time>
      </trkpt>
      <trkpt lat="40.461017" lon="-5.281133">
        <ele>1990.0</ele>
        <time>2014-06-30T11:52:25Z</time>
      </trkpt>
      <trkpt lat="40.461017" lon="-5.281217">
        <ele>1990.0</ele>
        <time>2014-06-30T11:52:26Z</time>
      </trkpt>
      <trkpt lat="40.461017" lon="-5.281300">
        <ele>1989.0</ele>
        <time>2014-06-30T11:52:27Z</time>
      </trkpt>
      <trkpt lat="40.461000" lon="-5.281400">
        <ele>1989.0</ele>
        <time>2014-06-30T11:52:28Z</time>
      </trkpt>
      <trkpt lat="40.461017" lon="-5.281533">
        <ele>1987.0</ele>
        <time>2014-06-30T11:52:29Z</time>
      </trkpt>
      <trkpt lat="40.461017" lon="-5.281650">
        <ele>1985.0</ele>
        <time>2014-06-30T11:52:30Z</time>
      </trkpt>
      <trkpt lat="40.461000" lon="-5.281750">
        <ele>1984.0</ele>
        <time>2014-06-30T11:52:31Z</time>
      </trkpt>
      <trkpt lat="40.461000" lon="-5.281833">
        <ele>1983.0</ele>
        <time>2014-06-30T11:52:32Z</time>
      </trkpt>
      <trkpt lat="40.461000" lon="-5.281917">
        <ele>1981.0</ele>
        <time>2014-06-30T11:52:33Z</time>
      </trkpt>
      <trkpt lat="40.461000" lon="-5.282017">
        <ele>1982.0</ele>
        <time>2014-06-30T11:52:34Z</time>
      </trkpt>
      <trkpt lat="40.461000" lon="-5.282150">
        <ele>1981.0</ele>
        <time>2014-06-30T11:52:35Z</time>
      </trkpt>
      <trkpt lat="40.461033" lon="-5.282283">
        <ele>1979.0</ele>
        <time>2014-06-30T11:52:36Z</time>
      </trkpt>
      <trkpt lat="40.461050" lon="-5.282417">
        <ele>1977.0</ele>
        <time>2014-06-30T11:52:37Z</time>
      </trkpt>
      <trkpt lat="40.461083" lon="-5.282517">
        <ele>1975.0</ele>
        <time>2014-06-30T11:52:38Z</time>
      </trkpt>
      <trkpt lat="40.461133" lon="-5.282617">
        <ele>1973.0</ele>
        <time>2014-06-30T11:52:39Z</time>
      </trkpt>
      <trkpt lat="40.461183" lon="-5.282717">
        <ele>1971.0</ele>
        <time>2014-06-30T11:52:40Z</time>
      </trkpt>
      <trkpt lat="40.461217" lon="-5.282833">
        <ele>1969.0</ele>
        <time>2014-06-30T11:52:41Z</time>
      </trkpt>
      <trkpt lat="40.461267" lon="-5.282933">
        <ele>1965.0</ele>
        <time>2014-06-30T11:52:42Z</time>
      </trkpt>
      <trkpt lat="40.461317" lon="-5.283050">
        <ele>1960.0</ele>
        <time>2014-06-30T11:52:43Z</time>
      </trkpt>
      <trkpt lat="40.461383" lon="-5.283150">
        <ele>1956.0</ele>
        <time>2014-06-30T11:52:44Z</time>
      </trkpt>
      <trkpt lat="40.461433" lon="-5.283250">
        <ele>1957.0</ele>
        <time>2014-06-30T11:52:45Z</time>
      </trkpt>
      <trkpt lat="40.461500" lon="-5.283350">
        <ele>1954.0</ele>
        <time>2014-06-30T11:52:46Z</time>
      </trkpt>
      <trkpt lat="40.461567" lon="-5.283450">
        <ele>1953.0</ele>
        <time>2014-06-30T11:52:47Z</time>
      </trkpt>
      <trkpt lat="40.461633" lon="-5.283533">
        <ele>1950.0</ele>
        <time>2014-06-30T11:52:48Z</time>
      </trkpt>
      <trkpt lat="40.461700" lon="-5.283617">
        <ele>1949.0</ele>
        <time>2014-06-30T11:52:49Z</time>
      </trkpt>
      <trkpt lat="40.461767" lon="-5.283717">
        <ele>1949.0</ele>
        <time>2014-06-30T11:52:50Z</time>
      </trkpt>
      <trkpt lat="40.461833" lon="-5.283800">
        <ele>1948.0</ele>
        <time>2014-06-30T11:52:51Z</time>
      </trkpt>
      <trkpt lat="40.461883" lon="-5.283900">
        <ele>1948.0</ele>
        <time>2014-06-30T11:52:52Z</time>
      </trkpt>
      <trkpt lat="40.461917" lon="-5.283983">
        <ele>1949.0</ele>
        <time>2014-06-30T11:52:53Z</time>
      </trkpt>
      <trkpt lat="40.461950" lon="-5.284067">
        <ele>1950.0</ele>
        <time>2014-06-30T11:52:54Z</time>
      </trkpt>
      <trkpt lat="40.461967" lon="-5.284133">
        <ele>1950.0</ele>
        <time>2014-06-30T11:52:55Z</time>
      </trkpt>
      <trkpt lat="40.461983" lon="-5.284183">
        <ele>1950.0</ele>
        <time>2014-06-30T11:52:56Z</time>
      </trkpt>
      <trkpt lat="40.461983" lon="-5.284267">
        <ele>1950.0</ele>
        <time>2014-06-30T11:52:57Z</time>
      </trkpt>
      <trkpt lat="40.461950" lon="-5.284367">
        <ele>1949.0</ele>
        <time>2014-06-30T11:52:58Z</time>
      </trkpt>
      <trkpt lat="40.461900" lon="-5.284450">
        <ele>1949.0</ele>
        <time>2014-06-30T11:52:59Z</time>
      </trkpt>
      <trkpt lat="40.461833" lon="-5.284533">
        <ele>1949.0</ele>
        <time>2014-06-30T11:53:00Z</time>
      </trkpt>
      <trkpt lat="40.461767" lon="-5.284583">
        <ele>1949.0</ele>
        <time>2014-06-30T11:53:01Z</time>
      </trkpt>
      <trkpt lat="40.461683" lon="-5.284617">
        <ele>1950.0</ele>
        <time>2014-06-30T11:53:02Z</time>
      </trkpt>
      <trkpt lat="40.461617" lon="-5.284667">
        <ele>1950.0</ele>
        <time>2014-06-30T11:53:03Z</time>
      </trkpt>
      <trkpt lat="40.461550" lon="-5.284700">
        <ele>1950.0</ele>
        <time>2014-06-30T11:53:04Z</time>
      </trkpt>
      <trkpt lat="40.461483" lon="-5.284717">
        <ele>1951.0</ele>
        <time>2014-06-30T11:53:05Z</time>
      </trkpt>
      <trkpt lat="40.461433" lon="-5.284750">
        <ele>1950.0</ele>
        <time>2014-06-30T11:53:06Z</time>
      </trkpt>
      <trkpt lat="40.461367" lon="-5.284767">
        <ele>1950.0</ele>
        <time>2014-06-30T11:53:07Z</time>
      </trkpt>
      <trkpt lat="40.461317" lon="-5.284767">
        <ele>1951.0</ele>
        <time>2014-06-30T11:53:08Z</time>
      </trkpt>
      <trkpt lat="40.461250" lon="-5.284783">
        <ele>1951.0</ele>
        <time>2014-06-30T11:53:09Z</time>
      </trkpt>
      <trkpt lat="40.461167" lon="-5.284767">
        <ele>1951.0</ele>
        <time>2014-06-30T11:53:10Z</time>
      </trkpt>
      <trkpt lat="40.461100" lon="-5.284733">
        <ele>1951.0</ele>
        <time>2014-06-30T11:53:11Z</time>
      </trkpt>
      <trkpt lat="40.461033" lon="-5.284650">
        <ele>1951.0</ele>
        <time>2014-06-30T11:53:12Z</time>
      </trkpt>
      <trkpt lat="40.460950" lon="-5.284567">
        <ele>1951.0</ele>
        <time>2014-06-30T11:53:13Z</time>
      </trkpt>
      <trkpt lat="40.460867" lon="-5.284533">
        <ele>1950.0</ele>
        <time>2014-06-30T11:53:14Z</time>
      </trkpt>
      <trkpt lat="40.460783" lon="-5.284500">
        <ele>1950.0</ele>
        <time>2014-06-30T11:53:15Z</time>
      </trkpt>
      <trkpt lat="40.460683" lon="-5.284483">
        <ele>1950.0</ele>
        <time>2014-06-30T11:53:16Z</time>
      </trkpt>
      <trkpt lat="40.460583" lon="-5.284467">
        <ele>1950.0</ele>
        <time>2014-06-30T11:53:17Z</time>
      </trkpt>
      <trkpt lat="40.460483" lon="-5.284450">
        <ele>1950.0</ele>
        <time>2014-06-30T11:53:18Z</time>
      </trkpt>
      <trkpt lat="40.460383" lon="-5.284433">
        <ele>1950.0</ele>
        <time>2014-06-30T11:53:19Z</time>
      </trkpt>
      <trkpt lat="40.460300" lon="-5.284417">
        <ele>1950.0</ele>
        <time>2014-06-30T11:53:20Z</time>
      </trkpt>
      <trkpt lat="40.460200" lon="-5.284383">
        <ele>1951.0</ele>
        <time>2014-06-30T11:53:21Z</time>
      </trkpt>
      <trkpt lat="40.460117" lon="-5.284367">
        <ele>1954.0</ele>
        <time>2014-06-30T11:53:22Z</time>
      </trkpt>
      <trkpt lat="40.460067" lon="-5.284350">
        <ele>1956.0</ele>
        <time>2014-06-30T11:53:23Z</time>
      </trkpt>
      <trkpt lat="40.460017" lon="-5.284350">
        <ele>1959.0</ele>
        <time>2014-06-30T11:53:24Z</time>
      </trkpt>
      <trkpt lat="40.459983" lon="-5.284367">
        <ele>1957.0</ele>
        <time>2014-06-30T11:53:25Z</time>
      </trkpt>
      <trkpt lat="40.459950" lon="-5.284383">
        <ele>1957.0</ele>
        <time>2014-06-30T11:53:26Z</time>
      </trkpt>
      <trkpt lat="40.459883" lon="-5.284383">
        <ele>1958.0</ele>
        <time>2014-06-30T11:53:27Z</time>
      </trkpt>
      <trkpt lat="40.459783" lon="-5.284350">
        <ele>1958.0</ele>
        <time>2014-06-30T11:53:28Z</time>
      </trkpt>
      <trkpt lat="40.459717" lon="-5.284250">
        <ele>1958.0</ele>
        <time>2014-06-30T11:53:29Z</time>
      </trkpt>
      <trkpt lat="40.459700" lon="-5.284100">
        <ele>1958.0</ele>
        <time>2014-06-30T11:53:30Z</time>
      </trkpt>
      <trkpt lat="40.459733" lon="-5.283950">
        <ele>1959.0</ele>
        <time>2014-06-30T11:53:31Z</time>
      </trkpt>
      <trkpt lat="40.459783" lon="-5.283833">
        <ele>1961.0</ele>
        <time>2014-06-30T11:53:32Z</time>
      </trkpt>
      <trkpt lat="40.459867" lon="-5.283767">
        <ele>1965.0</ele>
        <time>2014-06-30T11:53:33Z</time>
      </trkpt>
      <trkpt lat="40.459933" lon="-5.283717">
        <ele>1968.0</ele>
        <time>2014-06-30T11:53:34Z</time>
      </trkpt>
      <trkpt lat="40.459983" lon="-5.283700">
        <ele>1971.0</ele>
        <time>2014-06-30T11:53:35Z</time>
      </trkpt>
      <trkpt lat="40.460050" lon="-5.283683">
        <ele>1972.0</ele>
        <time>2014-06-30T11:53:36Z</time>
      </trkpt>
      <trkpt lat="40.460117" lon="-5.283700">
        <ele>1972.0</ele>
        <time>2014-06-30T11:53:37Z</time>
      </trkpt>
      <trkpt lat="40.460167" lon="-5.283733">
        <ele>1972.0</ele>
        <time>2014-06-30T11:53:38Z</time>
      </trkpt>
      <trkpt lat="40.460200" lon="-5.283800">
        <ele>1972.0</ele>
        <time>2014-06-30T11:53:39Z</time>
      </trkpt>
      <trkpt lat="40.460167" lon="-5.283883">
        <ele>1972.0</ele>
        <time>2014-06-30T11:53:40Z</time>
      </trkpt>
      <trkpt lat="40.460100" lon="-5.283933">
        <ele>1973.0</ele>
        <time>2014-06-30T11:53:41Z</time>
      </trkpt>
      <trkpt lat="40.460033" lon="-5.283950">
        <ele>1974.0</ele>
        <time>2014-06-30T11:53:42Z</time>
      </trkpt>
      <trkpt lat="40.459967" lon="-5.283950">
        <ele>1976.0</ele>
        <time>2014-06-30T11:53:43Z</time>
      </trkpt>
      <trkpt lat="40.459883" lon="-5.283933">
        <ele>1978.0</ele>
        <time>2014-06-30T11:53:44Z</time>
      </trkpt>
      <trkpt lat="40.459833" lon="-5.283900">
        <ele>1980.0</ele>
        <time>2014-06-30T11:53:45Z</time>
      </trkpt>
      <trkpt lat="40.459767" lon="-5.283867">
        <ele>1978.0</ele>
        <time>2014-06-30T11:53:46Z</time>
      </trkpt>
      <trkpt lat="40.459700" lon="-5.283800">
        <ele>1980.0</ele>
        <time>2014-06-30T11:53:47Z</time>
      </trkpt>
      <trkpt lat="40.459667" lon="-5.283700">
        <ele>1983.0</ele>
        <time>2014-06-30T11:53:48Z</time>
      </trkpt>
      <trkpt lat="40.459650" lon="-5.283567">
        <ele>1984.0</ele>
        <time>2014-06-30T11:53:49Z</time>
      </trkpt>
      <trkpt lat="40.459650" lon="-5.283433">
        <ele>1985.0</ele>
        <time>2014-06-30T11:53:50Z</time>
      </trkpt>
      <trkpt lat="40.459667" lon="-5.283283">
        <ele>1987.0</ele>
        <time>2014-06-30T11:53:51Z</time>
      </trkpt>
      <trkpt lat="40.459700" lon="-5.283133">
        <ele>1990.0</ele>
        <time>2014-06-30T11:53:52Z</time>
      </trkpt>
      <trkpt lat="40.459733" lon="-5.283017">
        <ele>1994.0</ele>
        <time>2014-06-30T11:53:53Z</time>
      </trkpt>
      <trkpt lat="40.459783" lon="-5.282950">
        <ele>1998.0</ele>
        <time>2014-06-30T11:53:54Z</time>
      </trkpt>
      <trkpt lat="40.459833" lon="-5.282900">
        <ele>2000.0</ele>
        <time>2014-06-30T11:53:55Z</time>
      </trkpt>
      <trkpt lat="40.459883" lon="-5.282850">
        <ele>2002.0</ele>
        <time>2014-06-30T11:53:56Z</time>
      </trkpt>
      <trkpt lat="40.459950" lon="-5.282817">
        <ele>2003.0</ele>
        <time>2014-06-30T11:53:57Z</time>
      </trkpt>
      <trkpt lat="40.460000" lon="-5.282800">
        <ele>2002.0</ele>
        <time>2014-06-30T11:53:58Z</time>
      </trkpt>
      <trkpt lat="40.460033" lon="-5.282817">
        <ele>2002.0</ele>
        <time>2014-06-30T11:53:59Z</time>
      </trkpt>
      <trkpt lat="40.460050" lon="-5.282883">
        <ele>2002.0</ele>
        <time>2014-06-30T11:54:00Z</time>
      </trkpt>
      <trkpt lat="40.460050" lon="-5.282983">
        <ele>2002.0</ele>
        <time>2014-06-30T11:54:01Z</time>
      </trkpt>
      <trkpt lat="40.460017" lon="-5.283067">
        <ele>2002.0</ele>
        <time>2014-06-30T11:54:02Z</time>
      </trkpt>
      <trkpt lat="40.459950" lon="-5.283133">
        <ele>2002.0</ele>
        <time>2014-06-30T11:54:03Z</time>
      </trkpt>
      <trkpt lat="40.459883" lon="-5.283183">
        <ele>2002.0</ele>
        <time>2014-06-30T11:54:04Z</time>
      </trkpt>
      <trkpt lat="40.459783" lon="-5.283200">
        <ele>2003.0</ele>
        <time>2014-06-30T11:54:05Z</time>
      </trkpt>
      <trkpt lat="40.459700" lon="-5.283183">
        <ele>2004.0</ele>
        <time>2014-06-30T11:54:06Z</time>
      </trkpt>
      <trkpt lat="40.459617" lon="-5.283133">
        <ele>2006.0</ele>
        <time>2014-06-30T11:54:07Z</time>
      </trkpt>
      <trkpt lat="40.459550" lon="-5.283050">
        <ele>2007.0</ele>
        <time>2014-06-30T11:54:08Z</time>
      </trkpt>
      <trkpt lat="40.459483" lon="-5.282967">
        <ele>2008.0</ele>
        <time>2014-06-30T11:54:09Z</time>
      </trkpt>
      <trkpt lat="40.459400" lon="-5.282833">
        <ele>2010.0</ele>
        <time>2014-06-30T11:54:10Z</time>
      </trkpt>
      <trkpt lat="40.459367" lon="-5.282700">
        <ele>2015.0</ele>
        <time>2014-06-30T11:54:11Z</time>
      </trkpt>
      <trkpt lat="40.459350" lon="-5.282567">
        <ele>2020.0</ele>
        <time>2014-06-30T11:54:12Z</time>
      </trkpt>
      <trkpt lat="40.459350" lon="-5.282450">
        <ele>2024.0</ele>
        <time>2014-06-30T11:54:13Z</time>
      </trkpt>
      <trkpt lat="40.459367" lon="-5.282367">
        <ele>2021.0</ele>
        <time>2014-06-30T11:54:14Z</time>
      </trkpt>
      <trkpt lat="40.459400" lon="-5.282250">
        <ele>2023.0</ele>
        <time>2014-06-30T11:54:15Z</time>
      </trkpt>
      <trkpt lat="40.459433" lon="-5.282133">
        <ele>2023.0</ele>
        <time>2014-06-30T11:54:16Z</time>
      </trkpt>
      <trkpt lat="40.459500" lon="-5.282017">
        <ele>2024.0</ele>
        <time>2014-06-30T11:54:17Z</time>
      </trkpt>
      <trkpt lat="40.459583" lon="-5.281950">
        <ele>2026.0</ele>
        <time>2014-06-30T11:54:18Z</time>
      </trkpt>
      <trkpt lat="40.459650" lon="-5.281950">
        <ele>2027.0</ele>
        <time>2014-06-30T11:54:19Z</time>
      </trkpt>
      <trkpt lat="40.459700" lon="-5.281983">
        <ele>2028.0</ele>
        <time>2014-06-30T11:54:20Z</time>
      </trkpt>
      <trkpt lat="40.459700" lon="-5.282067">
        <ele>2029.0</ele>
        <time>2014-06-30T11:54:21Z</time>
      </trkpt>
      <trkpt lat="40.459667" lon="-5.282150">
        <ele>2027.0</ele>
        <time>2014-06-30T11:54:22Z</time>
      </trkpt>
      <trkpt lat="40.459600" lon="-5.282217">
        <ele>2027.0</ele>
        <time>2014-06-30T11:54:23Z</time>
      </trkpt>
      <trkpt lat="40.459517" lon="-5.282267">
        <ele>2028.0</ele>
        <time>2014-06-30T11:54:24Z</time>
      </trkpt>
      <trkpt lat="40.459433" lon="-5.282317">
        <ele>2029.0</ele>
        <time>2014-06-30T11:54:25Z</time>
      </trkpt>
      <trkpt lat="40.459367" lon="-5.282333">
        <ele>2030.0</ele>
        <time>2014-06-30T11:54:26Z</time>
      </trkpt>
      <trkpt lat="40.459300" lon="-5.282367">
        <ele>2033.0</ele>
        <time>2014-06-30T11:54:27Z</time>
      </trkpt>
      <trkpt lat="40.459233" lon="-5.282400">
        <ele>2037.0</ele>
        <time>2014-06-30T11:54:28Z</time>
      </trkpt>
      <trkpt lat="40.459167" lon="-5.282417">
        <ele>2039.0</ele>
        <time>2014-06-30T11:54:29Z</time>
      </trkpt>
      <trkpt lat="40.459117" lon="-5.282450">
        <ele>2041.0</ele>
        <time>2014-06-30T11:54:30Z</time>
      </trkpt>
      <trkpt lat="40.459067" lon="-5.282500">
        <ele>2044.0</ele>
        <time>2014-06-30T11:54:31Z</time>
      </trkpt>
      <trkpt lat="40.459033" lon="-5.282533">
        <ele>2046.0</ele>
        <time>2014-06-30T11:54:32Z</time>
      </trkpt>
      <trkpt lat="40.459017" lon="-5.282600">
        <ele>2048.0</ele>
        <time>2014-06-30T11:54:33Z</time>
      </trkpt>
      <trkpt lat="40.459017" lon="-5.282650">
        <ele>2050.0</ele>
        <time>2014-06-30T11:54:34Z</time>
      </trkpt>
      <trkpt lat="40.459033" lon="-5.282717">
        <ele>2050.0</ele>
        <time>2014-06-30T11:54:35Z</time>
      </trkpt>
      <trkpt lat="40.459083" lon="-5.282783">
        <ele>2049.0</ele>
        <time>2014-06-30T11:54:36Z</time>
      </trkpt>
      <trkpt lat="40.459150" lon="-5.282800">
        <ele>2049.0</ele>
        <time>2014-06-30T11:54:37Z</time>
      </trkpt>
      <trkpt lat="40.459233" lon="-5.282783">
        <ele>2050.0</ele>
        <time>2014-06-30T11:54:38Z</time>
      </trkpt>
      <trkpt lat="40.459317" lon="-5.282717">
        <ele>2053.0</ele>
        <time>2014-06-30T11:54:39Z</time>
      </trkpt>
      <trkpt lat="40.459350" lon="-5.282583">
        <ele>2056.0</ele>
        <time>2014-06-30T11:54:40Z</time>
      </trkpt>
      <trkpt lat="40.459350" lon="-5.282467">
        <ele>2059.0</ele>
        <time>2014-06-30T11:54:41Z</time>
      </trkpt>
      <trkpt lat="40.459300" lon="-5.282350">
        <ele>2061.0</ele>
        <time>2014-06-30T11:54:42Z</time>
      </trkpt>
      <trkpt lat="40.459267" lon="-5.282233">
        <ele>2064.0</ele>
        <time>2014-06-30T11:54:43Z</time>
      </trkpt>
      <trkpt lat="40.459233" lon="-5.282117">
        <ele>2066.0</ele>
        <time>2014-06-30T11:54:44Z</time>
      </trkpt>
      <trkpt lat="40.459183" lon="-5.282000">
        <ele>2068.0</ele>
        <time>2014-06-30T11:54:45Z</time>
      </trkpt>
      <trkpt lat="40.459117" lon="-5.281883">
        <ele>2070.0</ele>
        <time>2014-06-30T11:54:46Z</time>
      </trkpt>
      <trkpt lat="40.459033" lon="-5.281817">
        <ele>2072.0</ele>
        <time>2014-06-30T11:54:47Z</time>
      </trkpt>
      <trkpt lat="40.458950" lon="-5.281783">
        <ele>2074.0</ele>
        <time>2014-06-30T11:54:48Z</time>
      </trkpt>
      <trkpt lat="40.458867" lon="-5.281783">
        <ele>2075.0</ele>
        <time>2014-06-30T11:54:49Z</time>
      </trkpt>
      <trkpt lat="40.458800" lon="-5.281783">
        <ele>2078.0</ele>
        <time>2014-06-30T11:54:50Z</time>
      </trkpt>
      <trkpt lat="40.458750" lon="-5.281817">
        <ele>2079.0</ele>
        <time>2014-06-30T11:54:51Z</time>
      </trkpt>
      <trkpt lat="40.458700" lon="-5.281850">
        <ele>2080.0</ele>
        <time>2014-06-30T11:54:52Z</time>
      </trkpt>
      <trkpt lat="40.458667" lon="-5.281917">
        <ele>2081.0</ele>
        <time>2014-06-30T11:54:53Z</time>
      </trkpt>
      <trkpt lat="40.458667" lon="-5.282000">
        <ele>2081.0</ele>
        <time>2014-06-30T11:54:54Z</time>
      </trkpt>
      <trkpt lat="40.458683" lon="-5.282067">
        <ele>2082.0</ele>
        <time>2014-06-30T11:54:55Z</time>
      </trkpt>
      <trkpt lat="40.458700" lon="-5.282150">
        <ele>2082.0</ele>
        <time>2014-06-30T11:54:56Z</time>
      </trkpt>
      <trkpt lat="40.458733" lon="-5.282217">
        <ele>2083.0</ele>
        <time>2014-06-30T11:54:57Z</time>
      </trkpt>
      <trkpt lat="40.458750" lon="-5.282300">
        <ele>2084.0</ele>
        <time>2014-06-30T11:54:58Z</time>
      </trkpt>
      <trkpt lat="40.458767" lon="-5.282383">
        <ele>2084.0</ele>
        <time>2014-06-30T11:54:59Z</time>
      </trkpt>
      <trkpt lat="40.458800" lon="-5.282450">
        <ele>2085.0</ele>
        <time>2014-06-30T11:55:00Z</time>
      </trkpt>
      <trkpt lat="40.458833" lon="-5.282533">
        <ele>2086.0</ele>
        <time>2014-06-30T11:55:01Z</time>
      </trkpt>
      <trkpt lat="40.458867" lon="-5.282617">
        <ele>2087.0</ele>
        <time>2014-06-30T11:55:02Z</time>
      </trkpt>
      <trkpt lat="40.458883" lon="-5.282700">
        <ele>2089.0</ele>
        <time>2014-06-30T11:55:03Z</time>
      </trkpt>
      <trkpt lat="40.458900" lon="-5.282800">
        <ele>2090.0</ele>
        <time>2014-06-30T11:55:04Z</time>
      </trkpt>
      <trkpt lat="40.458917" lon="-5.282883">
        <ele>2088.0</ele>
        <time>2014-06-30T11:55:05Z</time>
      </trkpt>
      <trkpt lat="40.458933" lon="-5.282967">
        <ele>2089.0</ele>
        <time>2014-06-30T11:55:06Z</time>
      </trkpt>
      <trkpt lat="40.458950" lon="-5.283050">
        <ele>2090.0</ele>
        <time>2014-06-30T11:55:07Z</time>
      </trkpt>
      <trkpt lat="40.458950" lon="-5.283133">
        <ele>2092.0</ele>
        <time>2014-06-30T11:55:08Z</time>
      </trkpt>
      <trkpt lat="40.458950" lon="-5.283217">
        <ele>2094.0</ele>
        <time>2014-06-30T11:55:09Z</time>
      </trkpt>
      <trkpt lat="40.458933" lon="-5.283300">
        <ele>2096.0</ele>
        <time>2014-06-30T11:55:10Z</time>
      </trkpt>
      <trkpt lat="40.458917" lon="-5.283383">
        <ele>2100.0</ele>
        <time>2014-06-30T11:55:11Z</time>
      </trkpt>
      <trkpt lat="40.458900" lon="-5.283450">
        <ele>2103.0</ele>
        <time>2014-06-30T11:55:12Z</time>
      </trkpt>
      <trkpt lat="40.458850" lon="-5.283517">
        <ele>2107.0</ele>
        <time>2014-06-30T11:55:13Z</time>
      </trkpt>
      <trkpt lat="40.458817" lon="-5.283550">
        <ele>2110.0</ele>
        <time>2014-06-30T11:55:14Z</time>
      </trkpt>
      <trkpt lat="40.458767" lon="-5.283600">
        <ele>2113.0</ele>
        <time>2014-06-30T11:55:15Z</time>
      </trkpt>
      <trkpt lat="40.458717" lon="-5.283633">
        <ele>2115.0</ele>
        <time>2014-06-30T11:55:16Z</time>
      </trkpt>
      <trkpt lat="40.458650" lon="-5.283650">
        <ele>2116.0</ele>
        <time>2014-06-30T11:55:17Z</time>
      </trkpt>
      <trkpt lat="40.458550" lon="-5.283667">
        <ele>2117.0</ele>
        <time>2014-06-30T11:55:18Z</time>
      </trkpt>
      <trkpt lat="40.458450" lon="-5.283617">
        <ele>2116.0</ele>
        <time>2014-06-30T11:55:19Z</time>
      </trkpt>
      <trkpt lat="40.458367" lon="-5.283500">
        <ele>2114.0</ele>
        <time>2014-06-30T11:55:20Z</time>
      </trkpt>
      <trkpt lat="40.458300" lon="-5.283367">
        <ele>2116.0</ele>
        <time>2014-06-30T11:55:21Z</time>
      </trkpt>
      <trkpt lat="40.458250" lon="-5.283250">
        <ele>2119.0</ele>
        <time>2014-06-30T11:55:22Z</time>
      </trkpt>
      <trkpt lat="40.458200" lon="-5.283133">
        <ele>2121.0</ele>
        <time>2014-06-30T11:55:23Z</time>
      </trkpt>
      <trkpt lat="40.458150" lon="-5.283067">
        <ele>2123.0</ele>
        <time>2014-06-30T11:55:24Z</time>
      </trkpt>
      <trkpt lat="40.458133" lon="-5.282983">
        <ele>2124.0</ele>
        <time>2014-06-30T11:55:25Z</time>
      </trkpt>
      <trkpt lat="40.458117" lon="-5.282867">
        <ele>2124.0</ele>
        <time>2014-06-30T11:55:26Z</time>
      </trkpt>
      <trkpt lat="40.458150" lon="-5.282733">
        <ele>2123.0</ele>
        <time>2014-06-30T11:55:27Z</time>
      </trkpt>
      <trkpt lat="40.458183" lon="-5.282583">
        <ele>2124.0</ele>
        <time>2014-06-30T11:55:28Z</time>
      </trkpt>
      <trkpt lat="40.458233" lon="-5.282450">
        <ele>2125.0</ele>
        <time>2014-06-30T11:55:29Z</time>
      </trkpt>
      <trkpt lat="40.458267" lon="-5.282317">
        <ele>2127.0</ele>
        <time>2014-06-30T11:55:30Z</time>
      </trkpt>
      <trkpt lat="40.458300" lon="-5.282200">
        <ele>2130.0</ele>
        <time>2014-06-30T11:55:31Z</time>
      </trkpt>
      <trkpt lat="40.458350" lon="-5.282100">
        <ele>2132.0</ele>
        <time>2014-06-30T11:55:32Z</time>
      </trkpt>
      <trkpt lat="40.458400" lon="-5.282033">
        <ele>2134.0</ele>
        <time>2014-06-30T11:55:33Z</time>
      </trkpt>
      <trkpt lat="40.458467" lon="-5.281983">
        <ele>2135.0</ele>
        <time>2014-06-30T11:55:34Z</time>
      </trkpt>
      <trkpt lat="40.458533" lon="-5.281967">
        <ele>2136.0</ele>
        <time>2014-06-30T11:55:35Z</time>
      </trkpt>
      <trkpt lat="40.458600" lon="-5.281950">
        <ele>2133.0</ele>
        <time>2014-06-30T11:55:36Z</time>
      </trkpt>
      <trkpt lat="40.458683" lon="-5.281950">
        <ele>2133.0</ele>
        <time>2014-06-30T11:55:37Z</time>
      </trkpt>
      <trkpt lat="40.458750" lon="-5.281933">
        <ele>2135.0</ele>
        <time>2014-06-30T11:55:38Z</time>
      </trkpt>
      <trkpt lat="40.458817" lon="-5.281933">
        <ele>2136.0</ele>
        <time>2014-06-30T11:55:39Z</time>
      </trkpt>
      <trkpt lat="40.458883" lon="-5.281933">
        <ele>2137.0</ele>
        <time>2014-06-30T11:55:40Z</time>
      </trkpt>
      <trkpt lat="40.458950" lon="-5.281950">
        <ele>2137.0</ele>
        <time>2014-06-30T11:55:41Z</time>
      </trkpt>
      <trkpt lat="40.459033" lon="-5.281967">
        <ele>2137.0</ele>
        <time>2014-06-30T11:55:42Z</time>
      </trkpt>
      <trkpt lat="40.459100" lon="-5.282000">
        <ele>2139.0</ele>
        <time>2014-06-30T11:55:43Z</time>
      </trkpt>
      <trkpt lat="40.459167" lon="-5.282017">
        <ele>2140.0</ele>
        <time>2014-06-30T11:55:44Z</time>
      </trkpt>
      <trkpt lat="40.459233" lon="-5.282050">
        <ele>2140.0</ele>
        <time>2014-06-30T11:55:45Z</time>
      </trkpt>
      <trkpt lat="40.459300" lon="-5.282067">
        <ele>2141.0</ele>
        <time>2014-06-30T11:55:46Z</time>
      </trkpt>
      <trkpt lat="40.459367" lon="-5.282083">
        <ele>2144.0</ele>
        <time>2014-06-30T11:55:47Z</time>
      </trkpt>
      <trkpt lat="40.459417" lon="-5.282100">
        <ele>2146.0</ele>
        <time>2014-06-30T11:55:48Z</time>
      </trkpt>
      <trkpt lat="40.459450" lon="-5.282150">
        <ele>2146.0</ele>
        <time>2014-06-30T11:55:49Z</time>
      </trkpt>
      <trkpt lat="40.459467" lon="-5.282217">
        <ele>2147.0</ele>
        <time>2014-06-30T11:55:50Z</time>
      </trkpt>
      <trkpt lat="40.459467" lon="-5.282300">
        <ele>2148.0</ele>
        <time>2014-06-30T11:55:51Z</time>
      </trkpt>
      <trkpt lat="40.459450" lon="-5.282383">
        <ele>2149.0</ele>
        <time>2014-06-30T11:55:52Z</time>
      </trkpt>
      <trkpt lat="40.459417" lon="-5.282433">
        <ele>2150.0</ele>
        <time>2014-06-30T11:55:53Z</time>
      </trkpt>
      <trkpt lat="40.459383" lon="-5.282467">
        <ele>2151.0</ele>
        <time>2014-06-30T11:55:54Z</time>
      </trkpt>
      <trkpt lat="40.459333" lon="-5.282500">
        <ele>2152.0</ele>
        <time>2014-06-30T11:55:55Z</time>
      </trkpt>
      <trkpt lat="40.459283" lon="-5.282517">
        <ele>2154.0</ele>
        <time>2014-06-30T11:55:56Z</time>
      </trkpt>
      <trkpt lat="40.459217" lon="-5.282550">
        <ele>2155.0</ele>
        <time>2014-06-30T11:55:57Z</time>
      </trkpt>
      <trkpt lat="40.459167" lon="-5.282600">
        <ele>2157.0</ele>
        <time>2014-06-30T11:55:58Z</time>
      </trkpt>
      <trkpt lat="40.459117" lon="-5.282617">
        <ele>2155.0</ele>
        <time>2014-06-30T11:55:59Z</time>
      </trkpt>
      <trkpt lat="40.459067" lon="-5.282650">
        <ele>2155.0</ele>
        <time>2014-06-30T11:56:00Z</time>
      </trkpt>
      <trkpt lat="40.459000" lon="-5.282667">
        <ele>2156.0</ele>
        <time>2014-06-30T11:56:01Z</time>
      </trkpt>
      <trkpt lat="40.458933" lon="-5.282650">
        <ele>2156.0</ele>
        <time>2014-06-30T11:56:02Z</time>
      </trkpt>
      <trkpt lat="40.458850" lon="-5.282617">
        <ele>2156.0</ele>
        <time>2014-06-30T11:56:03Z</time>
      </trkpt>
      <trkpt lat="40.458767" lon="-5.282567">
        <ele>2157.0</ele>
        <time>2014-06-30T11:56:04Z</time>
      </trkpt>
      <trkpt lat="40.458683" lon="-5.282467">
        <ele>2158.0</ele>
        <time>2014-06-30T11:56:05Z</time>
      </trkpt>
      <trkpt lat="40.458617" lon="-5.282350">
        <ele>2158.0</ele>
        <time>2014-06-30T11:56:06Z</time>
      </trkpt>
      <trkpt lat="40.458583" lon="-5.282217">
        <ele>2159.0</ele>
        <time>2014-06-30T11:56:07Z</time>
      </trkpt>
      <trkpt lat="40.458583" lon="-5.282083">
        <ele>2160.0</ele>
        <time>2014-06-30T11:56:08Z</time>
      </trkpt>
      <trkpt lat="40.458617" lon="-5.281967">
        <ele>2163.0</ele>
        <time>2014-06-30T11:56:09Z</time>
      </trkpt>
      <trkpt lat="40.458650" lon="-5.281867">
        <ele>2165.0</ele>
        <time>2014-06-30T11:56:10Z</time>
      </trkpt>
      <trkpt lat="40.458700" lon="-5.281800">
        <ele>2168.0</ele>
        <time>2014-06-30T11:56:11Z</time>
      </trkpt>
      <trkpt lat="40.458750" lon="-5.281733">
        <ele>2169.0</ele>
        <time>2014-06-30T11:56:12Z</time>
      </trkpt>
      <trkpt lat="40.458817" lon="-5.281683">
        <ele>2170.0</ele>
        <time>2014-06-30T11:56:13Z</time>
      </trkpt>
      <trkpt lat="40.458883" lon="-5.281650">
        <ele>2171.0</ele>
        <time>2014-06-30T11:56:14Z</time>
      </trkpt>
      <trkpt lat="40.458967" lon="-5.281667">
        <ele>2172.0</ele>
        <time>2014-06-30T11:56:15Z</time>
      </trkpt>
      <trkpt lat="40.459017" lon="-5.281700">
        <ele>2173.0</ele>
        <time>2014-06-30T11:56:16Z</time>
      </trkpt>
      <trkpt lat="40.459067" lon="-5.281733">
        <ele>2175.0</ele>
        <time>2014-06-30T11:56:17Z</time>
      </trkpt>
      <trkpt lat="40.459117" lon="-5.281767">
        <ele>2176.0</ele>
        <time>2014-06-30T11:56:18Z</time>
      </trkpt>
      <trkpt lat="40.459150" lon="-5.281817">
        <ele>2178.0</ele>
        <time>2014-06-30T11:56:19Z</time>
      </trkpt>
      <trkpt lat="40.459183" lon="-5.281883">
        <ele>2179.0</ele>
        <time>2014-06-30T11:56:20Z</time>
      </trkpt>
      <trkpt lat="40.459217" lon="-5.281950">
        <ele>2180.0</ele>
        <time>2014-06-30T11:56:21Z</time>
      </trkpt>
      <trkpt lat="40.459233" lon="-5.282017">
        <ele>2181.0</ele>
        <time>2014-06-30T11:56:22Z</time>
      </trkpt>
      <trkpt lat="40.459233" lon="-5.282067">
        <ele>2182.0</ele>
        <time>2014-06-30T11:56:23Z</time>
      </trkpt>
      <trkpt lat="40.459217" lon="-5.282117">
        <ele>2180.0</ele>
        <time>2014-06-30T11:56:24Z</time>
      </trkpt>
      <trkpt lat="40.459150" lon="-5.282150">
        <ele>2179.0</ele>
        <time>2014-06-30T11:56:25Z</time>
      </trkpt>
      <trkpt lat="40.459083" lon="-5.282183">
        <ele>2178.0</ele>
        <time>2014-06-30T11:56:26Z</time>
      </trkpt>
      <trkpt lat="40.459000" lon="-5.282183">
        <ele>2178.0</ele>
        <time>2014-06-30T11:56:27Z</time>
      </trkpt>
      <trkpt lat="40.458917" lon="-5.282167">
        <ele>2178.0</ele>
        <time>2014-06-30T11:56:28Z</time>
      </trkpt>
      <trkpt lat="40.458850" lon="-5.282117">
        <ele>2177.0</ele>
        <time>2014-06-30T11:56:29Z</time>
      </trkpt>
      <trkpt lat="40.458783" lon="-5.282050">
        <ele>2176.0</ele>
        <time>2014-06-30T11:56:30Z</time>
      </trkpt>
      <trkpt lat="40.458700" lon="-5.281983">
        <ele>2175.0</ele>
        <time>2014-06-30T11:56:31Z</time>
      </trkpt>
      <trkpt lat="40.458633" lon="-5.281883">
        <ele>2174.0</ele>
        <time>2014-06-30T11:56:32Z</time>
      </trkpt>
      <trkpt lat="40.458583" lon="-5.281750">
        <ele>2174.0</ele>
        <time>2014-06-30T11:56:33Z</time>
      </trkpt>
      <trkpt lat="40.458567" lon="-5.281600">
        <ele>2172.0</ele>
        <time>2014-06-30T11:56:34Z</time>
      </trkpt>
      <trkpt lat="40.458600" lon="-5.281433">
        <ele>2172.0</ele>
        <time>2014-06-30T11:56:35Z</time>
      </trkpt>
      <trkpt lat="40.458650" lon="-5.281317">
        <ele>2173.0</ele>
        <time>2014-06-30T11:56:36Z</time>
      </trkpt>
      <trkpt lat="40.458733" lon="-5.281267">
        <ele>2175.0</ele>
        <time>2014-06-30T11:56:37Z</time>
      </trkpt>
      <trkpt lat="40.458800" lon="-5.281217">
        <ele>2178.0</ele>
        <time>2014-06-30T11:56:38Z</time>
      </trkpt>
      <trkpt lat="40.458850" lon="-5.281183">
        <ele>2179.0</ele>
        <time>2014-06-30T11:56:39Z</time>
      </trkpt>
      <trkpt lat="40.458917" lon="-5.281133">
        <ele>2180.0</ele>
        <time>2014-06-30T11:56:40Z</time>
      </trkpt>
      <trkpt lat="40.458983" lon="-5.281100">
        <ele>2180.0</ele>
        <time>2014-06-30T11:56:41Z</time>
      </trkpt>
      <trkpt lat="40.459067" lon="-5.281050">
        <ele>2180.0</ele>
        <time>2014-06-30T11:56:42Z</time>
      </trkpt>
      <trkpt lat="40.459150" lon="-5.281017">
        <ele>2177.0</ele>
        <time>2014-06-30T11:56:43Z</time>
      </trkpt>
      <trkpt lat="40.459250" lon="-5.281000">
        <ele>2176.0</ele>
        <time>2014-06-30T11:56:44Z</time>
      </trkpt>
      <trkpt lat="40.459367" lon="-5.280967">
        <ele>2176.0</ele>
        <time>2014-06-30T11:56:45Z</time>
      </trkpt>
      <trkpt lat="40.459450" lon="-5.280950">
        <ele>2176.0</ele>
        <time>2014-06-30T11:56:46Z</time>
      </trkpt>
      <trkpt lat="40.459550" lon="-5.280933">
        <ele>2177.0</ele>
        <time>2014-06-30T11:56:47Z</time>
      </trkpt>
      <trkpt lat="40.459617" lon="-5.280917">
        <ele>2178.0</ele>
        <time>2014-06-30T11:56:48Z</time>
      </trkpt>
      <trkpt lat="40.459717" lon="-5.280900">
        <ele>2177.0</ele>
        <time>2014-06-30T11:56:49Z</time>
      </trkpt>
      <trkpt lat="40.459800" lon="-5.280900">
        <ele>2177.0</ele>
        <time>2014-06-30T11:56:50Z</time>
      </trkpt>
      <trkpt lat="40.459900" lon="-5.280900">
        <ele>2177.0</ele>
        <time>2014-06-30T11:56:51Z</time>
      </trkpt>
      <trkpt lat="40.460017" lon="-5.280917">
        <ele>2178.0</ele>
        <time>2014-06-30T11:56:52Z</time>
      </trkpt>
      <trkpt lat="40.460100" lon="-5.280933">
        <ele>2181.0</ele>
        <time>2014-06-30T11:56:53Z</time>
      </trkpt>
      <trkpt lat="40.460183" lon="-5.280967">
        <ele>2186.0</ele>
        <time>2014-06-30T11:56:54Z</time>
      </trkpt>
      <trkpt lat="40.460233" lon="-5.281000">
        <ele>2189.0</ele>
        <time>2014-06-30T11:56:55Z</time>
      </trkpt>
      <trkpt lat="40.460267" lon="-5.281033">
        <ele>2186.0</ele>
        <time>2014-06-30T11:56:56Z</time>
      </trkpt>
      <trkpt lat="40.460317" lon="-5.281050">
        <ele>2186.0</ele>
        <time>2014-06-30T11:56:57Z</time>
      </trkpt>
      <trkpt lat="40.460350" lon="-5.281083">
        <ele>2187.0</ele>
        <time>2014-06-30T11:56:58Z</time>
      </trkpt>
      <trkpt lat="40.460400" lon="-5.281133">
        <ele>2189.0</ele>
        <time>2014-06-30T11:56:59Z</time>
      </trkpt>
      <trkpt lat="40.460433" lon="-5.281217">
        <ele>2190.0</ele>
        <time>2014-06-30T11:57:00Z</time>
      </trkpt>
      <trkpt lat="40.460450" lon="-5.281283">
        <ele>2193.0</ele>
        <time>2014-06-30T11:57:01Z</time>
      </trkpt>
      <trkpt lat="40.460450" lon="-5.281367">
        <ele>2195.0</ele>
        <time>2014-06-30T11:57:02Z</time>
      </trkpt>
      <trkpt lat="40.460450" lon="-5.281450">
        <ele>2198.0</ele>
        <time>2014-06-30T11:57:03Z</time>
      </trkpt>
      <trkpt lat="40.460450" lon="-5.281533">
        <ele>2200.0</ele>
        <time>2014-06-30T11:57:04Z</time>
      </trkpt>
      <trkpt lat="40.460433" lon="-5.281600">
        <ele>2203.0</ele>
        <time>2014-06-30T11:57:05Z</time>
      </trkpt>
      <trkpt lat="40.460383" lon="-5.281683">
        <ele>2206.0</ele>
        <time>2014-06-30T11:57:06Z</time>
      </trkpt>
      <trkpt lat="40.460333" lon="-5.281750">
        <ele>2211.0</ele>
        <time>2014-06-30T11:57:07Z</time>
      </trkpt>
      <trkpt lat="40.460283" lon="-5.281817">
        <ele>2215.0</ele>
        <time>2014-06-30T11:57:08Z</time>
      </trkpt>
      <trkpt lat="40.460217" lon="-5.281850">
        <ele>2220.0</ele>
        <time>2014-06-30T11:57:09Z</time>
      </trkpt>
      <trkpt lat="40.460167" lon="-5.281867">
        <ele>2222.0</ele>
        <time>2014-06-30T11:57:10Z</time>
      </trkpt>
      <trkpt lat="40.460100" lon="-5.281867">
        <ele>2225.0</ele>
        <time>2014-06-30T11:57:11Z</time>
      </trkpt>
      <trkpt lat="40.460017" lon="-5.281850">
        <ele>2227.0</ele>
        <time>2014-06-30T11:57:12Z</time>
      </trkpt>
      <trkpt lat="40.459933" lon="-5.281800">
        <ele>2228.0</ele>
        <time>2014-06-30T11:57:13Z</time>
      </trkpt>
      <trkpt lat="40.459867" lon="-5.281717">
        <ele>2230.0</ele>
        <time>2014-06-30T11:57:14Z</time>
      </trkpt>
      <trkpt lat="40.459833" lon="-5.281600">
        <ele>2231.0</ele>
        <time>2014-06-30T11:57:15Z</time>
      </trkpt>
      <trkpt lat="40.459850" lon="-5.281467">
        <ele>2233.0</ele>
        <time>2014-06-30T11:57:16Z</time>
      </trkpt>
      <trkpt lat="40.459900" lon="-5.281350">
        <ele>2235.0</ele>
        <time>2014-06-30T11:57:17Z</time>
      </trkpt>
      <trkpt lat="40.459950" lon="-5.281267">
        <ele>2238.0</ele>
        <time>2014-06-30T11:57:18Z</time>
      </trkpt>
      <trkpt lat="40.460033" lon="-5.281217">
        <ele>2242.0</ele>
        <time>2014-06-30T11:57:19Z</time>
      </trkpt>
      <trkpt lat="40.460100" lon="-5.281183">
        <ele>2245.0</ele>
        <time>2014-06-30T11:57:20Z</time>
      </trkpt>
      <trkpt lat="40.460150" lon="-5.281167">
        <ele>2248.0</ele>
        <time>2014-06-30T11:57:21Z</time>
      </trkpt>
      <trkpt lat="40.460217" lon="-5.281150">
        <ele>2251.0</ele>
        <time>2014-06-30T11:57:22Z</time>
      </trkpt>
      <trkpt lat="40.460283" lon="-5.281150">
        <ele>2254.0</ele>
        <time>2014-06-30T11:57:23Z</time>
      </trkpt>
      <trkpt lat="40.460350" lon="-5.281167">
        <ele>2257.0</ele>
        <time>2014-06-30T11:57:24Z</time>
      </trkpt>
      <trkpt lat="40.460417" lon="-5.281200">
        <ele>2258.0</ele>
        <time>2014-06-30T11:57:25Z</time>
      </trkpt>
      <trkpt lat="40.460467" lon="-5.281250">
        <ele>2261.0</ele>
        <time>2014-06-30T11:57:26Z</time>
      </trkpt>
      <trkpt lat="40.460517" lon="-5.281317">
        <ele>2264.0</ele>
        <time>2014-06-30T11:57:27Z</time>
      </trkpt>
      <trkpt lat="40.460550" lon="-5.281383">
        <ele>2267.0</ele>
        <time>2014-06-30T11:57:28Z</time>
      </trkpt>
      <trkpt lat="40.460567" lon="-5.281450">
        <ele>2269.0</ele>
        <time>2014-06-30T11:57:29Z</time>
      </trkpt>
      <trkpt lat="40.460583" lon="-5.281517">
        <ele>2271.0</ele>
        <time>2014-06-30T11:57:30Z</time>
      </trkpt>
      <trkpt lat="40.460583" lon="-5.281600">
        <ele>2273.0</ele>
        <time>2014-06-30T11:57:31Z</time>
      </trkpt>
      <trkpt lat="40.460583" lon="-5.281700">
        <ele>2275.0</ele>
        <time>2014-06-30T11:57:32Z</time>
      </trkpt>
      <trkpt lat="40.460567" lon="-5.281783">
        <ele>2278.0</ele>
        <time>2014-06-30T11:57:33Z</time>
      </trkpt>
      <trkpt lat="40.460550" lon="-5.281883">
        <ele>2280.0</ele>
        <time>2014-06-30T11:57:34Z</time>
      </trkpt>
      <trkpt lat="40.460533" lon="-5.281950">
        <ele>2282.0</ele>
        <time>2014-06-30T11:57:35Z</time>
      </trkpt>
      <trkpt lat="40.460500" lon="-5.282017">
        <ele>2284.0</ele>
        <time>2014-06-30T11:57:36Z</time>
      </trkpt>
      <trkpt lat="40.460483" lon="-5.282083">
        <ele>2286.0</ele>
        <time>2014-06-30T11:57:37Z</time>
      </trkpt>
      <trkpt lat="40.460450" lon="-5.282133">
        <ele>2284.0</ele>
        <time>2014-06-30T11:57:38Z</time>
      </trkpt>
      <trkpt lat="40.460400" lon="-5.282183">
        <ele>2285.0</ele>
        <time>2014-06-30T11:57:39Z</time>
      </trkpt>
      <trkpt lat="40.460333" lon="-5.282217">
        <ele>2286.0</ele>
        <time>2014-06-30T11:57:40Z</time>
      </trkpt>
      <trkpt lat="40.460267" lon="-5.282217">
        <ele>2287.0</ele>
        <time>2014-06-30T11:57:41Z</time>
      </trkpt>
      <trkpt lat="40.460200" lon="-5.282183">
        <ele>2287.0</ele>
        <time>2014-06-30T11:57:42Z</time>
      </trkpt>
      <trkpt lat="40.460150" lon="-5.282117">
        <ele>2287.0</ele>
        <time>2014-06-30T11:57:43Z</time>
      </trkpt>
      <trkpt lat="40.460100" lon="-5.282017">
        <ele>2287.0</ele>
        <time>2014-06-30T11:57:44Z</time>
      </trkpt>
      <trkpt lat="40.460083" lon="-5.281917">
        <ele>2288.0</ele>
        <time>2014-06-30T11:57:45Z</time>
      </trkpt>
      <trkpt lat="40.460067" lon="-5.281800">
        <ele>2288.0</ele>
        <time>2014-06-30T11:57:46Z</time>
      </trkpt>
      <trkpt lat="40.460067" lon="-5.281700">
        <ele>2288.0</ele>
        <time>2014-06-30T11:57:47Z</time>
      </trkpt>
      <trkpt lat="40.460083" lon="-5.281583">
        <ele>2288.0</ele>
        <time>2014-06-30T11:57:48Z</time>
      </trkpt>
      <trkpt lat="40.460100" lon="-5.281483">
        <ele>2289.0</ele>
        <time>2014-06-30T11:57:49Z</time>
      </trkpt>
      <trkpt lat="40.460117" lon="-5.281367">
        <ele>2290.0</ele>
        <time>2014-06-30T11:57:50Z</time>
      </trkpt>
      <trkpt lat="40.460150" lon="-5.281267">
        <ele>2290.0</ele>
        <time>2014-06-30T11:57:51Z</time>
      </trkpt>
      <trkpt lat="40.460183" lon="-5.281150">
        <ele>2291.0</ele>
        <time>2014-06-30T11:57:52Z</time>
      </trkpt>
      <trkpt lat="40.460233" lon="-5.281033">
        <ele>2293.0</ele>
        <time>2014-06-30T11:57:53Z</time>
      </trkpt>
      <trkpt lat="40.460267" lon="-5.280933">
        <ele>2295.0</ele>
        <time>2014-06-30T11:57:54Z</time>
      </trkpt>
      <trkpt lat="40.460317" lon="-5.280867">
        <ele>2297.0</ele>
        <time>2014-06-30T11:57:55Z</time>
      </trkpt>
      <trkpt lat="40.460350" lon="-5.280817">
        <ele>2300.0</ele>
        <time>2014-06-30T11:57:56Z</time>
      </trkpt>
      <trkpt lat="40.460400" lon="-5.280767">
        <ele>2302.0</ele>
        <time>2014-06-30T11:57:57Z</time>
      </trkpt>
      <trkpt lat="40.460483" lon="-5.280733">
        <ele>2303.0</ele>
        <time>2014-06-30T11:57:58Z</time>
      </trkpt>
      <trkpt lat="40.460550" lon="-5.280717">
        <ele>2305.0</ele>
        <time>2014-06-30T11:57:59Z</time>
      </trkpt>
      <trkpt lat="40.460617" lon="-5.280733">
        <ele>2308.0</ele>
        <time>2014-06-30T11:58:00Z</time>
      </trkpt>
      <trkpt lat="40.460683" lon="-5.280767">
        <ele>2310.0</ele>
        <time>2014-06-30T11:58:01Z</time>
      </trkpt>
      <trkpt lat="40.460733" lon="-5.280817">
        <ele>2312.0</ele>
        <time>2014-06-30T11:58:02Z</time>
      </trkpt>
      <trkpt lat="40.460783" lon="-5.280867">
        <ele>2315.0</ele>
        <time>2014-06-30T11:58:03Z</time>
      </trkpt>
      <trkpt lat="40.460800" lon="-5.280933">
        <ele>2317.0</ele>
        <time>2014-06-30T11:58:04Z</time>
      </trkpt>
      <trkpt lat="40.460833" lon="-5.281000">
        <ele>2319.0</ele>
        <time>2014-06-30T11:58:05Z</time>
      </trkpt>
      <trkpt lat="40.460850" lon="-5.281067">
        <ele>2320.0</ele>
        <time>2014-06-30T11:58:06Z</time>
      </trkpt>
      <trkpt lat="40.460850" lon="-5.281150">
        <ele>2318.0</ele>
        <time>2014-06-30T11:58:07Z</time>
      </trkpt>
      <trkpt lat="40.460850" lon="-5.281217">
        <ele>2318.0</ele>
        <time>2014-06-30T11:58:08Z</time>
      </trkpt>
      <trkpt lat="40.460817" lon="-5.281283">
        <ele>2318.0</ele>
        <time>2014-06-30T11:58:09Z</time>
      </trkpt>
      <trkpt lat="40.460767" lon="-5.281333">
        <ele>2318.0</ele>
        <time>2014-06-30T11:58:10Z</time>
      </trkpt>
      <trkpt lat="40.460717" lon="-5.281383">
        <ele>2319.0</ele>
        <time>2014-06-30T11:58:11Z</time>
      </trkpt>
      <trkpt lat="40.460650" lon="-5.281417">
        <ele>2320.0</ele>
        <time>2014-06-30T11:58:12Z</time>
      </trkpt>
      <trkpt lat="40.460583" lon="-5.281450">
        <ele>2320.0</ele>
        <time>2014-06-30T11:58:13Z</time>
      </trkpt>
      <trkpt lat="40.460500" lon="-5.281467">
        <ele>2321.0</ele>
        <time>2014-06-30T11:58:14Z</time>
      </trkpt>
      <trkpt lat="40.460433" lon="-5.281483">
        <ele>2321.0</ele>
        <time>2014-06-30T11:58:15Z</time>
      </trkpt>
      <trkpt lat="40.460350" lon="-5.281483">
        <ele>2323.0</ele>
        <time>2014-06-30T11:58:16Z</time>
      </trkpt>
      <trkpt lat="40.460267" lon="-5.281433">
        <ele>2324.0</ele>
        <time>2014-06-30T11:58:17Z</time>
      </trkpt>
      <trkpt lat="40.460200" lon="-5.281350">
        <ele>2325.0</ele>
        <time>2014-06-30T11:58:18Z</time>
      </trkpt>
      <trkpt lat="40.460150" lon="-5.281233">
        <ele>2326.0</ele>
        <time>2014-06-30T11:58:19Z</time>
      </trkpt>
      <trkpt lat="40.460117" lon="-5.281117">
        <ele>2329.0</ele>
        <time>2014-06-30T11:58:20Z</time>
      </trkpt>
      <trkpt lat="40.460083" lon="-5.281000">
        <ele>2331.0</ele>
        <time>2014-06-30T11:58:21Z</time>
      </trkpt>
      <trkpt lat="40.460050" lon="-5.280900">
        <ele>2332.0</ele>
        <time>2014-06-30T11:58:22Z</time>
      </trkpt>
      <trkpt lat="40.460017" lon="-5.280783">
        <ele>2333.0</ele>
        <time>2014-06-30T11:58:23Z</time>
      </trkpt>
      <trkpt lat="40.459983" lon="-5.280650">
        <ele>2335.0</ele>
        <time>2014-06-30T11:58:24Z</time>
      </trkpt>
      <trkpt lat="40.459983" lon="-5.280517">
        <ele>2337.0</ele>
        <time>2014-06-30T11:58:25Z</time>
      </trkpt>
      <trkpt lat="40.460000" lon="-5.280383">
        <ele>2340.0</ele>
        <time>2014-06-30T11:58:26Z</time>
      </trkpt>
      <trkpt lat="40.460033" lon="-5.280283">
        <ele>2344.0</ele>
        <time>2014-06-30T11:58:27Z</time>
      </trkpt>
      <trkpt lat="40.460067" lon="-5.280200">
        <ele>2351.0</ele>
        <time>2014-06-30T11:58:28Z</time>
      </trkpt>
      <trkpt lat="40.460117" lon="-5.280150">
        <ele>2353.0</ele>
        <time>2014-06-30T11:58:29Z</time>
      </trkpt>
      <trkpt lat="40.460167" lon="-5.280100">
        <ele>2354.0</ele>
        <time>2014-06-30T11:58:30Z</time>
      </trkpt>
      <trkpt lat="40.460233" lon="-5.280050">
        <ele>2356.0</ele>
        <time>2014-06-30T11:58:31Z</time>
      </trkpt>
      <trkpt lat="40.460317" lon="-5.280000">
        <ele>2357.0</ele>
        <time>2014-06-30T11:58:32Z</time>
      </trkpt>
      <trkpt lat="40.460400" lon="-5.280000">
        <ele>2358.0</ele>
        <time>2014-06-30T11:58:33Z</time>
      </trkpt>
      <trkpt lat="40.460467" lon="-5.280033">
        <ele>2359.0</ele>
        <time>2014-06-30T11:58:34Z</time>
      </trkpt>
      <trkpt lat="40.460517" lon="-5.280100">
        <ele>2360.0</ele>
        <time>2014-06-30T11:58:35Z</time>
      </trkpt>
      <trkpt lat="40.460550" lon="-5.280167">
        <ele>2362.0</ele>
        <time>2014-06-30T11:58:36Z</time>
      </trkpt>
      <trkpt lat="40.460583" lon="-5.280233">
        <ele>2364.0</ele>
        <time>2014-06-30T11:58:37Z</time>
      </trkpt>
      <trkpt lat="40.460617" lon="-5.280283">
        <ele>2365.0</ele>
        <time>2014-06-30T11:58:38Z</time>
      </trkpt>
      <trkpt lat="40.460650" lon="-5.280350">
        <ele>2364.0</ele>
        <time>2014-06-30T11:58:39Z</time>
      </trkpt>
      <trkpt lat="40.460667" lon="-5.280417">
        <ele>2363.0</ele>
        <time>2014-06-30T11:58:40Z</time>
      </trkpt>
      <trkpt lat="40.460650" lon="-5.280500">
        <ele>2363.0</ele>
        <time>2014-06-30T11:58:41Z</time>
      </trkpt>
      <trkpt lat="40.460633" lon="-5.280567">
        <ele>2364.0</ele>
        <time>2014-06-30T11:58:42Z</time>
      </trkpt>
      <trkpt lat="40.460600" lon="-5.280633">
        <ele>2364.0</ele>
        <time>2014-06-30T11:58:43Z</time>
      </trkpt>
      <trkpt lat="40.460550" lon="-5.280700">
        <ele>2365.0</ele>
        <time>2014-06-30T11:58:44Z</time>
      </trkpt>
      <trkpt lat="40.460500" lon="-5.280767">
        <ele>2366.0</ele>
        <time>2014-06-30T11:58:45Z</time>
      </trkpt>
      <trkpt lat="40.460450" lon="-5.280800">
        <ele>2367.0</ele>
        <time>2014-06-30T11:58:46Z</time>
      </trkpt>
      <trkpt lat="40.460383" lon="-5.280817">
        <ele>2367.0</ele>
        <time>2014-06-30T11:58:47Z</time>
      </trkpt>
      <trkpt lat="40.460317" lon="-5.280800">
        <ele>2367.0</ele>
        <time>2014-06-30T11:58:48Z</time>
      </trkpt>
      <trkpt lat="40.460250" lon="-5.280733">
        <ele>2368.0</ele>
        <time>2014-06-30T11:58:49Z</time>
      </trkpt>
      <trkpt lat="40.460183" lon="-5.280667">
        <ele>2369.0</ele>
        <time>2014-06-30T11:58:50Z</time>
      </trkpt>
      <trkpt lat="40.460133" lon="-5.280583">
        <ele>2370.0</ele>
        <time>2014-06-30T11:58:51Z</time>
      </trkpt>
      <trkpt lat="40.460083" lon="-5.280517">
        <ele>2371.0</ele>
        <time>2014-06-30T11:58:52Z</time>
      </trkpt>
      <trkpt lat="40.460033" lon="-5.280417">
        <ele>2372.0</ele>
        <time>2014-06-30T11:58:53Z</time>
      </trkpt>
      <trkpt lat="40.460000" lon="-5.280333">
        <ele>2372.0</ele>
        <time>2014-06-30T11:58:54Z</time>
      </trkpt>
      <trkpt lat="40.459950" lon="-5.280250">
        <ele>2373.0</ele>
        <time>2014-06-30T11:58:55Z</time>
      </trkpt>
      <trkpt lat="40.459900" lon="-5.280167">
        <ele>2373.0</ele>
        <time>2014-06-30T11:58:56Z</time>
      </trkpt>
      <trkpt lat="40.459867" lon="-5.280083">
        <ele>2374.0</ele>
        <time>2014-06-30T11:58:57Z</time>
      </trkpt>
      <trkpt lat="40.459817" lon="-5.280000">
        <ele>2375.0</ele>
        <time>2014-06-30T11:58:58Z</time>
      </trkpt>
      <trkpt lat="40.459767" lon="-5.279917">
        <ele>2377.0</ele>
        <time>2014-06-30T11:58:59Z</time>
      </trkpt>
      <trkpt lat="40.459717" lon="-5.279833">
        <ele>2378.0</ele>
        <time>2014-06-30T11:59:00Z</time>
      </trkpt>
      <trkpt lat="40.459667" lon="-5.279733">
        <ele>2380.0</ele>
        <time>2014-06-30T11:59:01Z</time>
      </trkpt>
      <trkpt lat="40.459650" lon="-5.279633">
        <ele>2381.0</ele>
        <time>2014-06-30T11:59:02Z</time>
      </trkpt>
      <trkpt lat="40.459650" lon="-5.279517">
        <ele>2383.0</ele>
        <time>2014-06-30T11:59:03Z</time>
      </trkpt>
      <trkpt lat="40.459667" lon="-5.279383">
        <ele>2386.0</ele>
        <time>2014-06-30T11:59:04Z</time>
      </trkpt>
      <trkpt lat="40.459700" lon="-5.279267">
        <ele>2389.0</ele>
        <time>2014-06-30T11:59:05Z</time>
      </trkpt>
      <trkpt lat="40.459733" lon="-5.279183">
        <ele>2392.0</ele>
        <time>2014-06-30T11:59:06Z</time>
      </trkpt>
      <trkpt lat="40.459783" lon="-5.279100">
        <ele>2395.0</ele>
        <time>2014-06-30T11:59:07Z</time>
      </trkpt>
      <trkpt lat="40.459850" lon="-5.279050">
        <ele>2398.0</ele>
        <time>2014-06-30T11:59:08Z</time>
      </trkpt>
      <trkpt lat="40.459917" lon="-5.279017">
        <ele>2400.0</ele>
        <time>2014-06-30T11:59:09Z</time>
      </trkpt>
      <trkpt lat="40.459983" lon="-5.279000">
        <ele>2403.0</ele>
        <time>2014-06-30T11:59:10Z</time>
      </trkpt>
      <trkpt lat="40.460067" lon="-5.279000">
        <ele>2404.0</ele>
        <time>2014-06-30T11:59:11Z</time>
      </trkpt>
      <trkpt lat="40.460117" lon="-5.279033">
        <ele>2406.0</ele>
        <time>2014-06-30T11:59:12Z</time>
      </trkpt>
      <trkpt lat="40.460167" lon="-5.279083">
        <ele>2407.0</ele>
        <time>2014-06-30T11:59:13Z</time>
      </trkpt>
      <trkpt lat="40.460183" lon="-5.279167">
        <ele>2408.0</ele>
        <time>2014-06-30T11:59:14Z</time>
      </trkpt>
      <trkpt lat="40.460167" lon="-5.279250">
        <ele>2409.0</ele>
        <time>2014-06-30T11:59:15Z</time>
      </trkpt>
      <trkpt lat="40.460150" lon="-5.279333">
        <ele>2411.0</ele>
        <time>2014-06-30T11:59:16Z</time>
      </trkpt>
      <trkpt lat="40.460133" lon="-5.279400">
        <ele>2409.0</ele>
        <time>2014-06-30T11:59:17Z</time>
      </trkpt>
      <trkpt lat="40.460100" lon="-5.279467">
        <ele>2409.0</ele>
        <time>2014-06-30T11:59:18Z</time>
      </trkpt>
      <trkpt lat="40.460067" lon="-5.279517">
        <ele>2409.0</ele>
        <time>2014-06-30T11:59:19Z</time>
      </trkpt>
      <trkpt lat="40.460033" lon="-5.279567">
        <ele>2410.0</ele>
        <time>2014-06-30T11:59:20Z</time>
      </trkpt>
      <trkpt lat="40.459967" lon="-5.279633">
        <ele>2410.0</ele>
        <time>2014-06-30T11:59:21Z</time>
      </trkpt>
      <trkpt lat="40.459900" lon="-5.279700">
        <ele>2410.0</ele>
        <time>2014-06-30T11:59:22Z</time>
      </trkpt>
      <trkpt lat="40.459833" lon="-5.279733">
        <ele>2411.0</ele>
        <time>2014-06-30T11:59:23Z</time>
      </trkpt>
      <trkpt lat="40.459750" lon="-5.279733">
        <ele>2412.0</ele>
        <time>2014-06-30T11:59:24Z</time>
      </trkpt>
      <trkpt lat="40.459683" lon="-5.279717">
        <ele>2413.0</ele>
        <time>2014-06-30T11:59:25Z</time>
      </trkpt>
      <trkpt lat="40.459617" lon="-5.279667">
        <ele>2414.0</ele>
        <time>2014-06-30T11:59:26Z</time>
      </trkpt>
      <trkpt lat="40.459550" lon="-5.279617">
        <ele>2416.0</ele>
        <time>2014-06-30T11:59:27Z</time>
      </trkpt>
      <trkpt lat="40.459467" lon="-5.279550">
        <ele>2414.0</ele>
        <time>2014-06-30T11:59:28Z</time>
      </trkpt>
      <trkpt lat="40.459383" lon="-5.279450">
        <ele>2415.0</ele>
        <time>2014-06-30T11:59:29Z</time>
      </trkpt>
      <trkpt lat="40.459333" lon="-5.279317">
        <ele>2415.0</ele>
        <time>2014-06-30T11:59:30Z</time>
      </trkpt>
      <trkpt lat="40.459300" lon="-5.279167">
        <ele>2416.0</ele>
        <time>2014-06-30T11:59:31Z</time>
      </trkpt>
      <trkpt lat="40.459300" lon="-5.279033">
        <ele>2417.0</ele>
        <time>2014-06-30T11:59:32Z</time>
      </trkpt>
      <trkpt lat="40.459300" lon="-5.278900">
        <ele>2418.0</ele>
        <time>2014-06-30T11:59:33Z</time>
      </trkpt>
      <trkpt lat="40.459317" lon="-5.278750">
        <ele>2419.0</ele>
        <time>2014-06-30T11:59:34Z</time>
      </trkpt>
      <trkpt lat="40.459333" lon="-5.278633">
        <ele>2421.0</ele>
        <time>2014-06-30T11:59:35Z</time>
      </trkpt>
      <trkpt lat="40.459350" lon="-5.278517">
        <ele>2423.0</ele>
        <time>2014-06-30T11:59:36Z</time>
      </trkpt>
      <trkpt lat="40.459367" lon="-5.278417">
        <ele>2425.0</ele>
        <time>2014-06-30T11:59:37Z</time>
      </trkpt>
      <trkpt lat="40.459400" lon="-5.278333">
        <ele>2427.0</ele>
        <time>2014-06-30T11:59:38Z</time>
      </trkpt>
      <trkpt lat="40.459417" lon="-5.278233">
        <ele>2429.0</ele>
        <time>2014-06-30T11:59:39Z</time>
      </trkpt>
      <trkpt lat="40.459450" lon="-5.278133">
        <ele>2431.0</ele>
        <time>2014-06-30T11:59:40Z</time>
      </trkpt>
      <trkpt lat="40.459500" lon="-5.278050">
        <ele>2433.0</ele>
        <time>2014-06-30T11:59:41Z</time>
      </trkpt>
      <trkpt lat="40.459550" lon="-5.277967">
        <ele>2435.0</ele>
        <time>2014-06-30T11:59:42Z</time>
      </trkpt>
      <trkpt lat="40.459600" lon="-5.277883">
        <ele>2437.0</ele>
        <time>2014-06-30T11:59:43Z</time>
      </trkpt>
      <trkpt lat="40.459667" lon="-5.277833">
        <ele>2438.0</ele>
        <time>2014-06-30T11:59:44Z</time>
      </trkpt>
      <trkpt lat="40.459717" lon="-5.277800">
        <ele>2440.0</ele>
        <time>2014-06-30T11:59:45Z</time>
      </trkpt>
      <trkpt lat="40.459783" lon="-5.277767">
        <ele>2438.0</ele>
        <time>2014-06-30T11:59:46Z</time>
      </trkpt>
      <trkpt lat="40.459850" lon="-5.277733">
        <ele>2438.0</ele>
        <time>2014-06-30T11:59:47Z</time>
      </trkpt>
      <trkpt lat="40.459933" lon="-5.277733">
        <ele>2439.0</ele>
        <time>2014-06-30T11:59:48Z</time>
      </trkpt>
      <trkpt lat="40.460000" lon="-5.277733">
        <ele>2440.0</ele>
        <time>2014-06-30T11:59:49Z</time>
      </trkpt>
      <trkpt lat="40.460083" lon="-5.277750">
        <ele>2441.0</ele>
        <time>2014-06-30T11:59:50Z</time>
      </trkpt>
      <trkpt lat="40.460150" lon="-5.277783">
        <ele>2441.0</ele>
        <time>2014-06-30T11:59:51Z</time>
      </trkpt>
      <trkpt lat="40.460217" lon="-5.277817">
        <ele>2442.0</ele>
        <time>2014-06-30T11:59:52Z</time>
      </trkpt>
      <trkpt lat="40.460267" lon="-5.277867">
        <ele>2442.0</ele>
        <time>2014-06-30T11:59:53Z</time>
      </trkpt>
      <trkpt lat="40.460300" lon="-5.277933">
        <ele>2442.0</ele>
        <time>2014-06-30T11:59:54Z</time>
      </trkpt>
      <trkpt lat="40.460317" lon="-5.278000">
        <ele>2443.0</ele>
        <time>2014-06-30T11:59:55Z</time>
      </trkpt>
      <trkpt lat="40.460317" lon="-5.278100">
        <ele>2443.0</ele>
        <time>2014-06-30T11:59:56Z</time>
      </trkpt>
      <trkpt lat="40.460317" lon="-5.278200">
        <ele>2443.0</ele>
        <time>2014-06-30T11:59:57Z</time>
      </trkpt>
      <trkpt lat="40.460300" lon="-5.278317">
        <ele>2443.0</ele>
        <time>2014-06-30T11:59:58Z</time>
      </trkpt>
      <trkpt lat="40.460300" lon="-5.278417">
        <ele>2443.0</ele>
        <time>2014-06-30T11:59:59Z</time>
      </trkpt>
      <trkpt lat="40.460283" lon="-5.278533">
        <ele>2444.0</ele>
        <time>2014-06-30T12:00:00Z</time>
      </trkpt>
      <trkpt lat="40.460267" lon="-5.278633">
        <ele>2444.0</ele>
        <time>2014-06-30T12:00:01Z</time>
      </trkpt>
      <trkpt lat="40.460217" lon="-5.278717">
        <ele>2445.0</ele>
        <time>2014-06-30T12:00:02Z</time>
      </trkpt>
      <trkpt lat="40.460183" lon="-5.278783">
        <ele>2445.0</ele>
        <time>2014-06-30T12:00:03Z</time>
      </trkpt>
      <trkpt lat="40.460133" lon="-5.278850">
        <ele>2445.0</ele>
        <time>2014-06-30T12:00:04Z</time>
      </trkpt>
      <trkpt lat="40.460067" lon="-5.278900">
        <ele>2445.0</ele>
        <time>2014-06-30T12:00:05Z</time>
      </trkpt>
      <trkpt lat="40.459983" lon="-5.278950">
        <ele>2446.0</ele>
        <time>2014-06-30T12:00:06Z</time>
      </trkpt>
      <trkpt lat="40.459900" lon="-5.278983">
        <ele>2446.0</ele>
        <time>2014-06-30T12:00:07Z</time>
      </trkpt>
      <trkpt lat="40.459800" lon="-5.278983">
        <ele>2446.0</ele>
        <time>2014-06-30T12:00:08Z</time>
      </trkpt>
      <trkpt lat="40.459717" lon="-5.278933">
        <ele>2447.0</ele>
        <time>2014-06-30T12:00:09Z</time>
      </trkpt>
      <trkpt lat="40.459633" lon="-5.278883">
        <ele>2447.0</ele>
        <time>2014-06-30T12:00:10Z</time>
      </trkpt>
      <trkpt lat="40.459550" lon="-5.278800">
        <ele>2447.0</ele>
        <time>2014-06-30T12:00:11Z</time>
      </trkpt>
      <trkpt lat="40.459483" lon="-5.278700">
        <ele>2447.0</ele>
        <time>2014-06-30T12:00:12Z</time>
      </trkpt>
      <trkpt lat="40.459417" lon="-5.278617">
        <ele>2448.0</ele>
        <time>2014-06-30T12:00:13Z</time>
      </trkpt>
      <trkpt lat="40.459367" lon="-5.278533">
        <ele>2447.0</ele>
        <time>2014-06-30T12:00:14Z</time>
      </trkpt>
      <trkpt lat="40.459300" lon="-5.278450">
        <ele>2447.0</ele>
        <time>2014-06-30T12:00:15Z</time>
      </trkpt>
      <trkpt lat="40.459233" lon="-5.278333">
        <ele>2445.0</ele>
        <time>2014-06-30T12:00:16Z</time>
      </trkpt>
      <trkpt lat="40.459167" lon="-5.278183">
        <ele>2444.0</ele>
        <time>2014-06-30T12:00:17Z</time>
      </trkpt>
      <trkpt lat="40.459117" lon="-5.278033">
        <ele>2443.0</ele>
        <time>2014-06-30T12:00:18Z</time>
      </trkpt>
      <trkpt lat="40.459067" lon="-5.277900">
        <ele>2442.0</ele>
        <time>2014-06-30T12:00:19Z</time>
      </trkpt>
      <trkpt lat="40.459033" lon="-5.277750">
        <ele>2442.0</ele>
        <time>2014-06-30T12:00:20Z</time>
      </trkpt>
      <trkpt lat="40.459000" lon="-5.277617">
        <ele>2442.0</ele>
        <time>2014-06-30T12:00:21Z</time>
      </trkpt>
      <trkpt lat="40.458967" lon="-5.277483">
        <ele>2442.0</ele>
        <time>2014-06-30T12:00:22Z</time>
      </trkpt>
      <trkpt lat="40.458950" lon="-5.277350">
        <ele>2444.0</ele>
        <time>2014-06-30T12:00:23Z</time>
      </trkpt>
      <trkpt lat="40.458933" lon="-5.277233">
        <ele>2445.0</ele>
        <time>2014-06-30T12:00:24Z</time>
      </trkpt>
      <trkpt lat="40.458917" lon="-5.277133">
        <ele>2445.0</ele>
        <time>2014-06-30T12:00:25Z</time>
      </trkpt>
      <trkpt lat="40.458900" lon="-5.277033">
        <ele>2446.0</ele>
        <time>2014-06-30T12:00:26Z</time>
      </trkpt>
      <trkpt lat="40.458900" lon="-5.276933">
        <ele>2446.0</ele>
        <time>2014-06-30T12:00:27Z</time>
      </trkpt>
      <trkpt lat="40.458917" lon="-5.276817">
        <ele>2446.0</ele>
        <time>2014-06-30T12:00:28Z</time>
      </trkpt>
      <trkpt lat="40.458950" lon="-5.276700">
        <ele>2445.0</ele>
        <time>2014-06-30T12:00:29Z</time>
      </trkpt>
      <trkpt lat="40.459000" lon="-5.276583">
        <ele>2446.0</ele>
        <time>2014-06-30T12:00:30Z</time>
      </trkpt>
      <trkpt lat="40.459033" lon="-5.276467">
        <ele>2446.0</ele>
        <time>2014-06-30T12:00:31Z</time>
      </trkpt>
      <trkpt lat="40.459083" lon="-5.276350">
        <ele>2446.0</ele>
        <time>2014-06-30T12:00:32Z</time>
      </trkpt>
      <trkpt lat="40.459133" lon="-5.276250">
        <ele>2446.0</ele>
        <time>2014-06-30T12:00:33Z</time>
      </trkpt>
      <trkpt lat="40.459183" lon="-5.276150">
        <ele>2444.0</ele>
        <time>2014-06-30T12:00:34Z</time>
      </trkpt>
      <trkpt lat="40.459250" lon="-5.276050">
        <ele>2443.0</ele>
        <time>2014-06-30T12:00:35Z</time>
      </trkpt>
      <trkpt lat="40.459317" lon="-5.275933">
        <ele>2443.0</ele>
        <time>2014-06-30T12:00:36Z</time>
      </trkpt>
      <trkpt lat="40.459400" lon="-5.275817">
        <ele>2444.0</ele>
        <time>2014-06-30T12:00:37Z</time>
      </trkpt>
      <trkpt lat="40.459467" lon="-5.275717">
        <ele>2445.0</ele>
        <time>2014-06-30T12:00:38Z</time>
      </trkpt>
      <trkpt lat="40.459517" lon="-5.275633">
        <ele>2446.0</ele>
        <time>2014-06-30T12:00:39Z</time>
      </trkpt>
      <trkpt lat="40.459583" lon="-5.275567">
        <ele>2448.0</ele>
        <time>2014-06-30T12:00:40Z</time>
      </trkpt>
      <trkpt lat="40.459633" lon="-5.275500">
        <ele>2449.0</ele>
        <time>2014-06-30T12:00:41Z</time>
      </trkpt>
      <trkpt lat="40.459683" lon="-5.275450">
        <ele>2448.0</ele>
        <time>2014-06-30T12:00:42Z</time>
      </trkpt>
      <trkpt lat="40.459750" lon="-5.275383">
        <ele>2448.0</ele>
        <time>2014-06-30T12:00:43Z</time>
      </trkpt>
      <trkpt lat="40.459817" lon="-5.275350">
        <ele>2449.0</ele>
        <time>2014-06-30T12:00:44Z</time>
      </trkpt>
      <trkpt lat="40.459883" lon="-5.275333">
        <ele>2449.0</ele>
        <time>2014-06-30T12:00:45Z</time>
      </trkpt>
      <trkpt lat="40.459933" lon="-5.275333">
        <ele>2449.0</ele>
        <time>2014-06-30T12:00:46Z</time>
      </trkpt>
      <trkpt lat="40.460000" lon="-5.275367">
        <ele>2449.0</ele>
        <time>2014-06-30T12:00:47Z</time>
      </trkpt>
      <trkpt lat="40.460050" lon="-5.275383">
        <ele>2449.0</ele>
        <time>2014-06-30T12:00:48Z</time>
      </trkpt>
      <trkpt lat="40.460100" lon="-5.275433">
        <ele>2448.0</ele>
        <time>2014-06-30T12:00:49Z</time>
      </trkpt>
      <trkpt lat="40.460150" lon="-5.275483">
        <ele>2448.0</ele>
        <time>2014-06-30T12:00:50Z</time>
      </trkpt>
      <trkpt lat="40.460183" lon="-5.275550">
        <ele>2447.0</ele>
        <time>2014-06-30T12:00:51Z</time>
      </trkpt>
      <trkpt lat="40.460200" lon="-5.275617">
        <ele>2446.0</ele>
        <time>2014-06-30T12:00:52Z</time>
      </trkpt>
      <trkpt lat="40.460183" lon="-5.275700">
        <ele>2445.0</ele>
        <time>2014-06-30T12:00:53Z</time>
      </trkpt>
      <trkpt lat="40.460133" lon="-5.275750">
        <ele>2443.0</ele>
        <time>2014-06-30T12:00:54Z</time>
      </trkpt>
      <trkpt lat="40.460033" lon="-5.275800">
        <ele>2441.0</ele>
        <time>2014-06-30T12:00:55Z</time>
      </trkpt>
      <trkpt lat="40.459933" lon="-5.275783">
        <ele>2440.0</ele>
        <time>2014-06-30T12:00:56Z</time>
      </trkpt>
      <trkpt lat="40.459850" lon="-5.275717">
        <ele>2439.0</ele>
        <time>2014-06-30T12:00:57Z</time>
      </trkpt>
      <trkpt lat="40.459767" lon="-5.275600">
        <ele>2438.0</ele>
        <time>2014-06-30T12:00:58Z</time>
      </trkpt>
      <trkpt lat="40.459733" lon="-5.275467">
        <ele>2437.0</ele>
        <time>2014-06-30T12:00:59Z</time>
      </trkpt>
      <trkpt lat="40.459717" lon="-5.275317">
        <ele>2437.0</ele>
        <time>2014-06-30T12:01:00Z</time>
      </trkpt>
      <trkpt lat="40.459700" lon="-5.275183">
        <ele>2437.0</ele>
        <time>2014-06-30T12:01:01Z</time>
      </trkpt>
      <trkpt lat="40.459700" lon="-5.275050">
        <ele>2438.0</ele>
        <time>2014-06-30T12:01:02Z</time>
      </trkpt>
      <trkpt lat="40.459733" lon="-5.274917">
        <ele>2439.0</ele>
        <time>2014-06-30T12:01:03Z</time>
      </trkpt>
      <trkpt lat="40.459767" lon="-5.274783">
        <ele>2440.0</ele>
        <time>2014-06-30T12:01:04Z</time>
      </trkpt>
      <trkpt lat="40.459833" lon="-5.274683">
        <ele>2441.0</ele>
        <time>2014-06-30T12:01:05Z</time>
      </trkpt>
      <trkpt lat="40.459883" lon="-5.274583">
        <ele>2441.0</ele>
        <time>2014-06-30T12:01:06Z</time>
      </trkpt>
      <trkpt lat="40.459933" lon="-5.274517">
        <ele>2442.0</ele>
        <time>2014-06-30T12:01:07Z</time>
      </trkpt>
      <trkpt lat="40.460000" lon="-5.274433">
        <ele>2442.0</ele>
        <time>2014-06-30T12:01:08Z</time>
      </trkpt>
      <trkpt lat="40.460050" lon="-5.274333">
        <ele>2442.0</ele>
        <time>2014-06-30T12:01:09Z</time>
      </trkpt>
      <trkpt lat="40.460083" lon="-5.274233">
        <ele>2442.0</ele>
        <time>2014-06-30T12:01:10Z</time>
      </trkpt>
      <trkpt lat="40.460150" lon="-5.274133">
        <ele>2442.0</ele>
        <time>2014-06-30T12:01:11Z</time>
      </trkpt>
      <trkpt lat="40.460233" lon="-5.274033">
        <ele>2442.0</ele>
        <time>2014-06-30T12:01:12Z</time>
      </trkpt>
      <trkpt lat="40.460300" lon="-5.273917">
        <ele>2442.0</ele>
        <time>2014-06-30T12:01:13Z</time>
      </trkpt>
      <trkpt lat="40.460367" lon="-5.273817">
        <ele>2442.0</ele>
        <time>2014-06-30T12:01:14Z</time>
      </trkpt>
      <trkpt lat="40.460433" lon="-5.273700">
        <ele>2443.0</ele>
        <time>2014-06-30T12:01:15Z</time>
      </trkpt>
      <trkpt lat="40.460517" lon="-5.273600">
        <ele>2443.0</ele>
        <time>2014-06-30T12:01:16Z</time>
      </trkpt>
      <trkpt lat="40.460583" lon="-5.273517">
        <ele>2443.0</ele>
        <time>2014-06-30T12:01:17Z</time>
      </trkpt>
      <trkpt lat="40.460650" lon="-5.273450">
        <ele>2444.0</ele>
        <time>2014-06-30T12:01:18Z</time>
      </trkpt>
      <trkpt lat="40.460717" lon="-5.273383">
        <ele>2444.0</ele>
        <time>2014-06-30T12:01:19Z</time>
      </trkpt>
      <trkpt lat="40.460800" lon="-5.273317">
        <ele>2444.0</ele>
        <time>2014-06-30T12:01:20Z</time>
      </trkpt>
      <trkpt lat="40.460883" lon="-5.273250">
        <ele>2444.0</ele>
        <time>2014-06-30T12:01:21Z</time>
      </trkpt>
      <trkpt lat="40.460950" lon="-5.273217">
        <ele>2444.0</ele>
        <time>2014-06-30T12:01:22Z</time>
      </trkpt>
      <trkpt lat="40.461033" lon="-5.273183">
        <ele>2444.0</ele>
        <time>2014-06-30T12:01:23Z</time>
      </trkpt>
      <trkpt lat="40.461100" lon="-5.273167">
        <ele>2445.0</ele>
        <time>2014-06-30T12:01:24Z</time>
      </trkpt>
      <trkpt lat="40.461150" lon="-5.273167">
        <ele>2445.0</ele>
        <time>2014-06-30T12:01:25Z</time>
      </trkpt>
      <trkpt lat="40.461217" lon="-5.273167">
        <ele>2444.0</ele>
        <time>2014-06-30T12:01:26Z</time>
      </trkpt>
      <trkpt lat="40.461300" lon="-5.273183">
        <ele>2443.0</ele>
        <time>2014-06-30T12:01:27Z</time>
      </trkpt>
      <trkpt lat="40.461367" lon="-5.273217">
        <ele>2442.0</ele>
        <time>2014-06-30T12:01:28Z</time>
      </trkpt>
      <trkpt lat="40.461450" lon="-5.273250">
        <ele>2441.0</ele>
        <time>2014-06-30T12:01:29Z</time>
      </trkpt>
      <trkpt lat="40.461533" lon="-5.273283">
        <ele>2441.0</ele>
        <time>2014-06-30T12:01:30Z</time>
      </trkpt>
      <trkpt lat="40.461633" lon="-5.273317">
        <ele>2441.0</ele>
        <time>2014-06-30T12:01:31Z</time>
      </trkpt>
      <trkpt lat="40.461717" lon="-5.273367">
        <ele>2441.0</ele>
        <time>2014-06-30T12:01:32Z</time>
      </trkpt>
      <trkpt lat="40.461783" lon="-5.273400">
        <ele>2442.0</ele>
        <time>2014-06-30T12:01:33Z</time>
      </trkpt>
      <trkpt lat="40.461850" lon="-5.273450">
        <ele>2442.0</ele>
        <time>2014-06-30T12:01:34Z</time>
      </trkpt>
      <trkpt lat="40.461900" lon="-5.273517">
        <ele>2442.0</ele>
        <time>2014-06-30T12:01:35Z</time>
      </trkpt>
      <trkpt lat="40.461950" lon="-5.273567">
        <ele>2442.0</ele>
        <time>2014-06-30T12:01:36Z</time>
      </trkpt>
      <trkpt lat="40.462017" lon="-5.273617">
        <ele>2442.0</ele>
        <time>2014-06-30T12:01:37Z</time>
      </trkpt>
      <trkpt lat="40.462050" lon="-5.273650">
        <ele>2442.0</ele>
        <time>2014-06-30T12:01:38Z</time>
      </trkpt>
      <trkpt lat="40.462117" lon="-5.273700">
        <ele>2442.0</ele>
        <time>2014-06-30T12:01:39Z</time>
      </trkpt>
      <trkpt lat="40.462150" lon="-5.273767">
        <ele>2441.0</ele>
        <time>2014-06-30T12:01:40Z</time>
      </trkpt>
      <trkpt lat="40.462167" lon="-5.273850">
        <ele>2440.0</ele>
        <time>2014-06-30T12:01:41Z</time>
      </trkpt>
      <trkpt lat="40.462200" lon="-5.273933">
        <ele>2439.0</ele>
        <time>2014-06-30T12:01:42Z</time>
      </trkpt>
      <trkpt lat="40.462233" lon="-5.274017">
        <ele>2438.0</ele>
        <time>2014-06-30T12:01:43Z</time>
      </trkpt>
      <trkpt lat="40.462267" lon="-5.274100">
        <ele>2436.0</ele>
        <time>2014-06-30T12:01:44Z</time>
      </trkpt>
      <trkpt lat="40.462300" lon="-5.274183">
        <ele>2435.0</ele>
        <time>2014-06-30T12:01:45Z</time>
      </trkpt>
      <trkpt lat="40.462333" lon="-5.274267">
        <ele>2433.0</ele>
        <time>2014-06-30T12:01:46Z</time>
      </trkpt>
      <trkpt lat="40.462367" lon="-5.274350">
        <ele>2434.0</ele>
        <time>2014-06-30T12:01:47Z</time>
      </trkpt>
      <trkpt lat="40.462383" lon="-5.274433">
        <ele>2434.0</ele>
        <time>2014-06-30T12:01:48Z</time>
      </trkpt>
      <trkpt lat="40.462400" lon="-5.274533">
        <ele>2434.0</ele>
        <time>2014-06-30T12:01:49Z</time>
      </trkpt>
      <trkpt lat="40.462417" lon="-5.274633">
        <ele>2434.0</ele>
        <time>2014-06-30T12:01:50Z</time>
      </trkpt>
      <trkpt lat="40.462417" lon="-5.274733">
        <ele>2433.0</ele>
        <time>2014-06-30T12:01:51Z</time>
      </trkpt>
      <trkpt lat="40.462433" lon="-5.274850">
        <ele>2432.0</ele>
        <time>2014-06-30T12:01:52Z</time>
      </trkpt>
      <trkpt lat="40.462450" lon="-5.274950">
        <ele>2431.0</ele>
        <time>2014-06-30T12:01:53Z</time>
      </trkpt>
      <trkpt lat="40.462483" lon="-5.275050">
        <ele>2430.0</ele>
        <time>2014-06-30T12:01:54Z</time>
      </trkpt>
      <trkpt lat="40.462517" lon="-5.275167">
        <ele>2428.0</ele>
        <time>2014-06-30T12:01:55Z</time>
      </trkpt>
      <trkpt lat="40.462550" lon="-5.275267">
        <ele>2427.0</ele>
        <time>2014-06-30T12:01:56Z</time>
      </trkpt>
      <trkpt lat="40.462583" lon="-5.275367">
        <ele>2429.0</ele>
        <time>2014-06-30T12:01:57Z</time>
      </trkpt>
      <trkpt lat="40.462617" lon="-5.275483">
        <ele>2428.0</ele>
        <time>2014-06-30T12:01:58Z</time>
      </trkpt>
      <trkpt lat="40.462683" lon="-5.275583">
        <ele>2427.0</ele>
        <time>2014-06-30T12:01:59Z</time>
      </trkpt>
      <trkpt lat="40.462733" lon="-5.275683">
        <ele>2426.0</ele>
        <time>2014-06-30T12:02:00Z</time>
      </trkpt>
      <trkpt lat="40.462783" lon="-5.275783">
        <ele>2425.0</ele>
        <time>2014-06-30T12:02:01Z</time>
      </trkpt>
      <trkpt lat="40.462833" lon="-5.275867">
        <ele>2423.0</ele>
        <time>2014-06-30T12:02:02Z</time>
      </trkpt>
      <trkpt lat="40.462900" lon="-5.275950">
        <ele>2421.0</ele>
        <time>2014-06-30T12:02:03Z</time>
      </trkpt>
      <trkpt lat="40.462967" lon="-5.276050">
        <ele>2416.0</ele>
        <time>2014-06-30T12:02:04Z</time>
      </trkpt>
      <trkpt lat="40.463033" lon="-5.276133">
        <ele>2413.0</ele>
        <time>2014-06-30T12:02:05Z</time>
      </trkpt>
      <trkpt lat="40.463100" lon="-5.276233">
        <ele>2410.0</ele>
        <time>2014-06-30T12:02:06Z</time>
      </trkpt>
      <trkpt lat="40.463167" lon="-5.276333">
        <ele>2406.0</ele>
        <time>2014-06-30T12:02:07Z</time>
      </trkpt>
      <trkpt lat="40.463217" lon="-5.276417">
        <ele>2401.0</ele>
        <time>2014-06-30T12:02:08Z</time>
      </trkpt>
      <trkpt lat="40.463283" lon="-5.276500">
        <ele>2397.0</ele>
        <time>2014-06-30T12:02:09Z</time>
      </trkpt>
      <trkpt lat="40.463350" lon="-5.276567">
        <ele>2394.0</ele>
        <time>2014-06-30T12:02:10Z</time>
      </trkpt>
      <trkpt lat="40.463433" lon="-5.276650">
        <ele>2391.0</ele>
        <time>2014-06-30T12:02:11Z</time>
      </trkpt>
      <trkpt lat="40.463483" lon="-5.276733">
        <ele>2388.0</ele>
        <time>2014-06-30T12:02:12Z</time>
      </trkpt>
      <trkpt lat="40.463533" lon="-5.276817">
        <ele>2384.0</ele>
        <time>2014-06-30T12:02:13Z</time>
      </trkpt>
      <trkpt lat="40.463600" lon="-5.276917">
        <ele>2382.0</ele>
        <time>2014-06-30T12:02:14Z</time>
      </trkpt>
      <trkpt lat="40.463683" lon="-5.277000">
        <ele>2379.0</ele>
        <time>2014-06-30T12:02:15Z</time>
      </trkpt>
      <trkpt lat="40.463750" lon="-5.277067">
        <ele>2377.0</ele>
        <time>2014-06-30T12:02:16Z</time>
      </trkpt>
      <trkpt lat="40.463817" lon="-5.277167">
        <ele>2374.0</ele>
        <time>2014-06-30T12:02:17Z</time>
      </trkpt>
      <trkpt lat="40.463867" lon="-5.277250">
        <ele>2372.0</ele>
        <time>2014-06-30T12:02:18Z</time>
      </trkpt>
      <trkpt lat="40.463933" lon="-5.277350">
        <ele>2370.0</ele>
        <time>2014-06-30T12:02:19Z</time>
      </trkpt>
      <trkpt lat="40.464000" lon="-5.277417">
        <ele>2369.0</ele>
        <time>2014-06-30T12:02:20Z</time>
      </trkpt>
      <trkpt lat="40.464067" lon="-5.277483">
        <ele>2368.0</ele>
        <time>2014-06-30T12:02:21Z</time>
      </trkpt>
      <trkpt lat="40.464133" lon="-5.277567">
        <ele>2367.0</ele>
        <time>2014-06-30T12:02:22Z</time>
      </trkpt>
      <trkpt lat="40.464200" lon="-5.277650">
        <ele>2366.0</ele>
        <time>2014-06-30T12:02:23Z</time>
      </trkpt>
      <trkpt lat="40.464267" lon="-5.277733">
        <ele>2365.0</ele>
        <time>2014-06-30T12:02:24Z</time>
      </trkpt>
      <trkpt lat="40.464333" lon="-5.277800">
        <ele>2364.0</ele>
        <time>2014-06-30T12:02:25Z</time>
      </trkpt>
      <trkpt lat="40.464400" lon="-5.277883">
        <ele>2363.0</ele>
        <time>2014-06-30T12:02:26Z</time>
      </trkpt>
      <trkpt lat="40.464467" lon="-5.277967">
        <ele>2363.0</ele>
        <time>2014-06-30T12:02:27Z</time>
      </trkpt>
      <trkpt lat="40.464533" lon="-5.278033">
        <ele>2362.0</ele>
        <time>2014-06-30T12:02:28Z</time>
      </trkpt>
      <trkpt lat="40.464600" lon="-5.278117">
        <ele>2362.0</ele>
        <time>2014-06-30T12:02:29Z</time>
      </trkpt>
      <trkpt lat="40.464667" lon="-5.278183">
        <ele>2362.0</ele>
        <time>2014-06-30T12:02:30Z</time>
      </trkpt>
      <trkpt lat="40.464717" lon="-5.278250">
        <ele>2362.0</ele>
        <time>2014-06-30T12:02:31Z</time>
      </trkpt>
      <trkpt lat="40.464800" lon="-5.278317">
        <ele>2361.0</ele>
        <time>2014-06-30T12:02:32Z</time>
      </trkpt>
      <trkpt lat="40.464883" lon="-5.278367">
        <ele>2361.0</ele>
        <time>2014-06-30T12:02:33Z</time>
      </trkpt>
      <trkpt lat="40.464950" lon="-5.278433">
        <ele>2359.0</ele>
        <time>2014-06-30T12:02:34Z</time>
      </trkpt>
      <trkpt lat="40.465017" lon="-5.278483">
        <ele>2358.0</ele>
        <time>2014-06-30T12:02:35Z</time>
      </trkpt>
      <trkpt lat="40.465083" lon="-5.278550">
        <ele>2358.0</ele>
        <time>2014-06-30T12:02:36Z</time>
      </trkpt>
      <trkpt lat="40.465150" lon="-5.278617">
        <ele>2357.0</ele>
        <time>2014-06-30T12:02:37Z</time>
      </trkpt>
      <trkpt lat="40.465233" lon="-5.278683">
        <ele>2355.0</ele>
        <time>2014-06-30T12:02:38Z</time>
      </trkpt>
      <trkpt lat="40.465300" lon="-5.278733">
        <ele>2354.0</ele>
        <time>2014-06-30T12:02:39Z</time>
      </trkpt>
      <trkpt lat="40.465383" lon="-5.278800">
        <ele>2353.0</ele>
        <time>2014-06-30T12:02:40Z</time>
      </trkpt>
      <trkpt lat="40.465433" lon="-5.278900">
        <ele>2351.0</ele>
        <time>2014-06-30T12:02:41Z</time>
      </trkpt>
      <trkpt lat="40.465500" lon="-5.278983">
        <ele>2350.0</ele>
        <time>2014-06-30T12:02:42Z</time>
      </trkpt>
      <trkpt lat="40.465550" lon="-5.279067">
        <ele>2350.0</ele>
        <time>2014-06-30T12:02:43Z</time>
      </trkpt>
      <trkpt lat="40.465600" lon="-5.279117">
        <ele>2349.0</ele>
        <time>2014-06-30T12:02:44Z</time>
      </trkpt>
      <trkpt lat="40.465650" lon="-5.279183">
        <ele>2347.0</ele>
        <time>2014-06-30T12:02:45Z</time>
      </trkpt>
      <trkpt lat="40.465700" lon="-5.279267">
        <ele>2345.0</ele>
        <time>2014-06-30T12:02:46Z</time>
      </trkpt>
      <trkpt lat="40.465767" lon="-5.279350">
        <ele>2343.0</ele>
        <time>2014-06-30T12:02:47Z</time>
      </trkpt>
      <trkpt lat="40.465817" lon="-5.279450">
        <ele>2342.0</ele>
        <time>2014-06-30T12:02:48Z</time>
      </trkpt>
      <trkpt lat="40.465883" lon="-5.279533">
        <ele>2341.0</ele>
        <time>2014-06-30T12:02:49Z</time>
      </trkpt>
      <trkpt lat="40.465933" lon="-5.279600">
        <ele>2340.0</ele>
        <time>2014-06-30T12:02:50Z</time>
      </trkpt>
      <trkpt lat="40.465983" lon="-5.279700">
        <ele>2338.0</ele>
        <time>2014-06-30T12:02:51Z</time>
      </trkpt>
      <trkpt lat="40.466033" lon="-5.279800">
        <ele>2337.0</ele>
        <time>2014-06-30T12:02:52Z</time>
      </trkpt>
      <trkpt lat="40.466100" lon="-5.279900">
        <ele>2336.0</ele>
        <time>2014-06-30T12:02:53Z</time>
      </trkpt>
      <trkpt lat="40.466150" lon="-5.279983">
        <ele>2336.0</ele>
        <time>2014-06-30T12:02:54Z</time>
      </trkpt>
      <trkpt lat="40.466217" lon="-5.280050">
        <ele>2336.0</ele>
        <time>2014-06-30T12:02:55Z</time>
      </trkpt>
      <trkpt lat="40.466283" lon="-5.280117">
        <ele>2337.0</ele>
        <time>2014-06-30T12:02:56Z</time>
      </trkpt>
      <trkpt lat="40.466333" lon="-5.280183">
        <ele>2337.0</ele>
        <time>2014-06-30T12:02:57Z</time>
      </trkpt>
      <trkpt lat="40.466400" lon="-5.280250">
        <ele>2338.0</ele>
        <time>2014-06-30T12:02:58Z</time>
      </trkpt>
      <trkpt lat="40.466467" lon="-5.280300">
        <ele>2339.0</ele>
        <time>2014-06-30T12:02:59Z</time>
      </trkpt>
      <trkpt lat="40.466517" lon="-5.280317">
        <ele>2340.0</ele>
        <time>2014-06-30T12:03:00Z</time>
      </trkpt>
      <trkpt lat="40.466550" lon="-5.280350">
        <ele>2341.0</ele>
        <time>2014-06-30T12:03:01Z</time>
      </trkpt>
      <trkpt lat="40.466583" lon="-5.280400">
        <ele>2341.0</ele>
        <time>2014-06-30T12:03:02Z</time>
      </trkpt>
      <trkpt lat="40.466633" lon="-5.280450">
        <ele>2340.0</ele>
        <time>2014-06-30T12:03:03Z</time>
      </trkpt>
      <trkpt lat="40.466683" lon="-5.280517">
        <ele>2339.0</ele>
        <time>2014-06-30T12:03:04Z</time>
      </trkpt>
      <trkpt lat="40.466733" lon="-5.280583">
        <ele>2338.0</ele>
        <time>2014-06-30T12:03:05Z</time>
      </trkpt>
      <trkpt lat="40.466800" lon="-5.280667">
        <ele>2338.0</ele>
        <time>2014-06-30T12:03:06Z</time>
      </trkpt>
      <trkpt lat="40.466850" lon="-5.280733">
        <ele>2339.0</ele>
        <time>2014-06-30T12:03:07Z</time>
      </trkpt>
      <trkpt lat="40.466917" lon="-5.280767">
        <ele>2338.0</ele>
        <time>2014-06-30T12:03:08Z</time>
      </trkpt>
      <trkpt lat="40.467000" lon="-5.280800">
        <ele>2337.0</ele>
        <time>2014-06-30T12:03:09Z</time>
      </trkpt>
      <trkpt lat="40.467083" lon="-5.280833">
        <ele>2338.0</ele>
        <time>2014-06-30T12:03:10Z</time>
      </trkpt>
      <trkpt lat="40.467200" lon="-5.280900">
        <ele>2338.0</ele>
        <time>2014-06-30T12:03:11Z</time>
      </trkpt>
      <trkpt lat="40.467283" lon="-5.280967">
        <ele>2337.0</ele>
        <time>2014-06-30T12:03:12Z</time>
      </trkpt>
      <trkpt lat="40.467350" lon="-5.281033">
        <ele>2336.0</ele>
        <time>2014-06-30T12:03:13Z</time>
      </trkpt>
      <trkpt lat="40.467417" lon="-5.281100">
        <ele>2336.0</ele>
        <time>2014-06-30T12:03:14Z</time>
      </trkpt>
      <trkpt lat="40.467483" lon="-5.281150">
        <ele>2335.0</ele>
        <time>2014-06-30T12:03:15Z</time>
      </trkpt>
      <trkpt lat="40.467567" lon="-5.281200">
        <ele>2335.0</ele>
        <time>2014-06-30T12:03:16Z</time>
      </trkpt>
      <trkpt lat="40.467650" lon="-5.281267">
        <ele>2334.0</ele>
        <time>2014-06-30T12:03:17Z</time>
      </trkpt>
      <trkpt lat="40.467750" lon="-5.281333">
        <ele>2332.0</ele>
        <time>2014-06-30T12:03:18Z</time>
      </trkpt>
      <trkpt lat="40.467833" lon="-5.281383">
        <ele>2330.0</ele>
        <time>2014-06-30T12:03:19Z</time>
      </trkpt>
      <trkpt lat="40.467900" lon="-5.281450">
        <ele>2329.0</ele>
        <time>2014-06-30T12:03:20Z</time>
      </trkpt>
      <trkpt lat="40.467967" lon="-5.281517">
        <ele>2328.0</ele>
        <time>2014-06-30T12:03:21Z</time>
      </trkpt>
      <trkpt lat="40.468050" lon="-5.281583">
        <ele>2327.0</ele>
        <time>2014-06-30T12:03:22Z</time>
      </trkpt>
      <trkpt lat="40.468117" lon="-5.281667">
        <ele>2326.0</ele>
        <time>2014-06-30T12:03:23Z</time>
      </trkpt>
      <trkpt lat="40.468200" lon="-5.281750">
        <ele>2325.0</ele>
        <time>2014-06-30T12:03:24Z</time>
      </trkpt>
      <trkpt lat="40.468283" lon="-5.281833">
        <ele>2323.0</ele>
        <time>2014-06-30T12:03:25Z</time>
      </trkpt>
      <trkpt lat="40.468350" lon="-5.281900">
        <ele>2322.0</ele>
        <time>2014-06-30T12:03:26Z</time>
      </trkpt>
      <trkpt lat="40.468433" lon="-5.281950">
        <ele>2321.0</ele>
        <time>2014-06-30T12:03:27Z</time>
      </trkpt>
      <trkpt lat="40.468500" lon="-5.282000">
        <ele>2321.0</ele>
        <time>2014-06-30T12:03:28Z</time>
      </trkpt>
      <trkpt lat="40.468600" lon="-5.282067">
        <ele>2320.0</ele>
        <time>2014-06-30T12:03:29Z</time>
      </trkpt>
      <trkpt lat="40.468683" lon="-5.282133">
        <ele>2320.0</ele>
        <time>2014-06-30T12:03:30Z</time>
      </trkpt>
      <trkpt lat="40.468767" lon="-5.282217">
        <ele>2319.0</ele>
        <time>2014-06-30T12:03:31Z</time>
      </trkpt>
      <trkpt lat="40.468867" lon="-5.282300">
        <ele>2318.0</ele>
        <time>2014-06-30T12:03:32Z</time>
      </trkpt>
      <trkpt lat="40.468933" lon="-5.282367">
        <ele>2318.0</ele>
        <time>2014-06-30T12:03:33Z</time>
      </trkpt>
      <trkpt lat="40.469017" lon="-5.282450">
        <ele>2317.0</ele>
        <time>2014-06-30T12:03:34Z</time>
      </trkpt>
      <trkpt lat="40.469083" lon="-5.282517">
        <ele>2317.0</ele>
        <time>2014-06-30T12:03:35Z</time>
      </trkpt>
      <trkpt lat="40.469167" lon="-5.282600">
        <ele>2315.0</ele>
        <time>2014-06-30T12:03:36Z</time>
      </trkpt>
      <trkpt lat="40.469233" lon="-5.282667">
        <ele>2314.0</ele>
        <time>2014-06-30T12:03:37Z</time>
      </trkpt>
      <trkpt lat="40.469317" lon="-5.282717">
        <ele>2313.0</ele>
        <time>2014-06-30T12:03:38Z</time>
      </trkpt>
      <trkpt lat="40.469383" lon="-5.282767">
        <ele>2313.0</ele>
        <time>2014-06-30T12:03:39Z</time>
      </trkpt>
      <trkpt lat="40.469450" lon="-5.282800">
        <ele>2314.0</ele>
        <time>2014-06-30T12:03:40Z</time>
      </trkpt>
      <trkpt lat="40.469517" lon="-5.282833">
        <ele>2314.0</ele>
        <time>2014-06-30T12:03:41Z</time>
      </trkpt>
      <trkpt lat="40.469567" lon="-5.282850">
        <ele>2314.0</ele>
        <time>2014-06-30T12:03:42Z</time>
      </trkpt>
      <trkpt lat="40.469617" lon="-5.282867">
        <ele>2314.0</ele>
        <time>2014-06-30T12:03:43Z</time>
      </trkpt>
      <trkpt lat="40.469683" lon="-5.282883">
        <ele>2314.0</ele>
        <time>2014-06-30T12:03:44Z</time>
      </trkpt>
      <trkpt lat="40.469767" lon="-5.282900">
        <ele>2314.0</ele>
        <time>2014-06-30T12:03:45Z</time>
      </trkpt>
      <trkpt lat="40.469867" lon="-5.282950">
        <ele>2314.0</ele>
        <time>2014-06-30T12:03:46Z</time>
      </trkpt>
      <trkpt lat="40.469950" lon="-5.283000">
        <ele>2313.0</ele>
        <time>2014-06-30T12:03:47Z</time>
      </trkpt>
      <trkpt lat="40.470033" lon="-5.283050">
        <ele>2312.0</ele>
        <time>2014-06-30T12:03:48Z</time>
      </trkpt>
      <trkpt lat="40.470133" lon="-5.283100">
        <ele>2311.0</ele>
        <time>2014-06-30T12:03:49Z</time>
      </trkpt>
      <trkpt lat="40.470217" lon="-5.283117">
        <ele>2311.0</ele>
        <time>2014-06-30T12:03:50Z</time>
      </trkpt>
      <trkpt lat="40.470300" lon="-5.283150">
        <ele>2311.0</ele>
        <time>2014-06-30T12:03:51Z</time>
      </trkpt>
      <trkpt lat="40.470367" lon="-5.283167">
        <ele>2311.0</ele>
        <time>2014-06-30T12:03:52Z</time>
      </trkpt>
      <trkpt lat="40.470417" lon="-5.283183">
        <ele>2311.0</ele>
        <time>2014-06-30T12:03:53Z</time>
      </trkpt>
      <trkpt lat="40.470467" lon="-5.283183">
        <ele>2311.0</ele>
        <time>2014-06-30T12:03:54Z</time>
      </trkpt>
      <trkpt lat="40.470517" lon="-5.283167">
        <ele>2310.0</ele>
        <time>2014-06-30T12:03:55Z</time>
      </trkpt>
      <trkpt lat="40.470583" lon="-5.283133">
        <ele>2308.0</ele>
        <time>2014-06-30T12:03:56Z</time>
      </trkpt>
      <trkpt lat="40.470667" lon="-5.283117">
        <ele>2306.0</ele>
        <time>2014-06-30T12:03:57Z</time>
      </trkpt>
      <trkpt lat="40.470750" lon="-5.283083">
        <ele>2306.0</ele>
        <time>2014-06-30T12:03:58Z</time>
      </trkpt>
      <trkpt lat="40.470817" lon="-5.283017">
        <ele>2307.0</ele>
        <time>2014-06-30T12:03:59Z</time>
      </trkpt>
      <trkpt lat="40.470867" lon="-5.282933">
        <ele>2307.0</ele>
        <time>2014-06-30T12:04:00Z</time>
      </trkpt>
      <trkpt lat="40.470900" lon="-5.282850">
        <ele>2307.0</ele>
        <time>2014-06-30T12:04:01Z</time>
      </trkpt>
      <trkpt lat="40.470933" lon="-5.282750">
        <ele>2306.0</ele>
        <time>2014-06-30T12:04:02Z</time>
      </trkpt>
      <trkpt lat="40.470967" lon="-5.282667">
        <ele>2306.0</ele>
        <time>2014-06-30T12:04:03Z</time>
      </trkpt>
      <trkpt lat="40.471017" lon="-5.282567">
        <ele>2306.0</ele>
        <time>2014-06-30T12:04:04Z</time>
      </trkpt>
      <trkpt lat="40.471050" lon="-5.282467">
        <ele>2306.0</ele>
        <time>2014-06-30T12:04:05Z</time>
      </trkpt>
      <trkpt lat="40.471083" lon="-5.282350">
        <ele>2306.0</ele>
        <time>2014-06-30T12:04:06Z</time>
      </trkpt>
      <trkpt lat="40.471100" lon="-5.282233">
        <ele>2306.0</ele>
        <time>2014-06-30T12:04:07Z</time>
      </trkpt>
      <trkpt lat="40.471117" lon="-5.282117">
        <ele>2307.0</ele>
        <time>2014-06-30T12:04:08Z</time>
      </trkpt>
      <trkpt lat="40.471133" lon="-5.282000">
        <ele>2307.0</ele>
        <time>2014-06-30T12:04:09Z</time>
      </trkpt>
      <trkpt lat="40.471117" lon="-5.281883">
        <ele>2307.0</ele>
        <time>2014-06-30T12:04:10Z</time>
      </trkpt>
      <trkpt lat="40.471100" lon="-5.281783">
        <ele>2308.0</ele>
        <time>2014-06-30T12:04:11Z</time>
      </trkpt>
      <trkpt lat="40.471067" lon="-5.281683">
        <ele>2309.0</ele>
        <time>2014-06-30T12:04:12Z</time>
      </trkpt>
      <trkpt lat="40.471017" lon="-5.281583">
        <ele>2311.0</ele>
        <time>2014-06-30T12:04:13Z</time>
      </trkpt>
      <trkpt lat="40.470967" lon="-5.281500">
        <ele>2312.0</ele>
        <time>2014-06-30T12:04:14Z</time>
      </trkpt>
      <trkpt lat="40.470933" lon="-5.281450">
        <ele>2313.0</ele>
        <time>2014-06-30T12:04:15Z</time>
      </trkpt>
      <trkpt lat="40.470883" lon="-5.281400">
        <ele>2313.0</ele>
        <time>2014-06-30T12:04:16Z</time>
      </trkpt>
      <trkpt lat="40.470817" lon="-5.281350">
        <ele>2312.0</ele>
        <time>2014-06-30T12:04:17Z</time>
      </trkpt>
      <trkpt lat="40.470750" lon="-5.281317">
        <ele>2312.0</ele>
        <time>2014-06-30T12:04:18Z</time>
      </trkpt>
      <trkpt lat="40.470667" lon="-5.281283">
        <ele>2312.0</ele>
        <time>2014-06-30T12:04:19Z</time>
      </trkpt>
      <trkpt lat="40.470583" lon="-5.281267">
        <ele>2312.0</ele>
        <time>2014-06-30T12:04:20Z</time>
      </trkpt>
      <trkpt lat="40.470500" lon="-5.281283">
        <ele>2312.0</ele>
        <time>2014-06-30T12:04:21Z</time>
      </trkpt>
      <trkpt lat="40.470417" lon="-5.281300">
        <ele>2312.0</ele>
        <time>2014-06-30T12:04:22Z</time>
      </trkpt>
      <trkpt lat="40.470333" lon="-5.281350">
        <ele>2312.0</ele>
        <time>2014-06-30T12:04:23Z</time>
      </trkpt>
      <trkpt lat="40.470267" lon="-5.281417">
        <ele>2312.0</ele>
        <time>2014-06-30T12:04:24Z</time>
      </trkpt>
      <trkpt lat="40.470200" lon="-5.281483">
        <ele>2312.0</ele>
        <time>2014-06-30T12:04:25Z</time>
      </trkpt>
      <trkpt lat="40.470133" lon="-5.281550">
        <ele>2313.0</ele>
        <time>2014-06-30T12:04:26Z</time>
      </trkpt>
      <trkpt lat="40.470100" lon="-5.281583">
        <ele>2313.0</ele>
        <time>2014-06-30T12:04:27Z</time>
      </trkpt>
      <trkpt lat="40.470050" lon="-5.281617">
        <ele>2313.0</ele>
        <time>2014-06-30T12:04:28Z</time>
      </trkpt>
      <trkpt lat="40.470017" lon="-5.281650">
        <ele>2314.0</ele>
        <time>2014-06-30T12:04:29Z</time>
      </trkpt>
      <trkpt lat="40.469983" lon="-5.281683">
        <ele>2314.0</ele>
        <time>2014-06-30T12:04:30Z</time>
      </trkpt>
      <trkpt lat="40.469933" lon="-5.281750">
        <ele>2314.0</ele>
        <time>2014-06-30T12:04:31Z</time>
      </trkpt>
      <trkpt lat="40.469900" lon="-5.281817">
        <ele>2314.0</ele>
        <time>2014-06-30T12:04:32Z</time>
      </trkpt>
      <trkpt lat="40.469883" lon="-5.281883">
        <ele>2314.0</ele>
        <time>2014-06-30T12:04:33Z</time>
      </trkpt>
      <trkpt lat="40.469883" lon="-5.281967">
        <ele>2314.0</ele>
        <time>2014-06-30T12:04:34Z</time>
      </trkpt>
      <trkpt lat="40.469900" lon="-5.282017">
        <ele>2314.0</ele>
        <time>2014-06-30T12:04:35Z</time>
      </trkpt>
      <trkpt lat="40.469917" lon="-5.282067">
        <ele>2314.0</ele>
        <time>2014-06-30T12:04:36Z</time>
      </trkpt>
      <trkpt lat="40.469917" lon="-5.282133">
        <ele>2315.0</ele>
        <time>2014-06-30T12:04:37Z</time>
      </trkpt>
      <trkpt lat="40.469950" lon="-5.282217">
        <ele>2314.0</ele>
        <time>2014-06-30T12:04:38Z</time>
      </trkpt>
      <trkpt lat="40.469967" lon="-5.282300">
        <ele>2314.0</ele>
        <time>2014-06-30T12:04:39Z</time>
      </trkpt>
      <trkpt lat="40.469983" lon="-5.282383">
        <ele>2314.0</ele>
        <time>2014-06-30T12:04:40Z</time>
      </trkpt>
      <trkpt lat="40.470033" lon="-5.282467">
        <ele>2313.0</ele>
        <time>2014-06-30T12:04:41Z</time>
      </trkpt>
      <trkpt lat="40.470067" lon="-5.282550">
        <ele>2313.0</ele>
        <time>2014-06-30T12:04:42Z</time>
      </trkpt>
      <trkpt lat="40.470117" lon="-5.282617">
        <ele>2312.0</ele>
        <time>2014-06-30T12:04:43Z</time>
      </trkpt>
      <trkpt lat="40.470167" lon="-5.282683">
        <ele>2312.0</ele>
        <time>2014-06-30T12:04:44Z</time>
      </trkpt>
      <trkpt lat="40.470233" lon="-5.282750">
        <ele>2312.0</ele>
        <time>2014-06-30T12:04:45Z</time>
      </trkpt>
      <trkpt lat="40.470300" lon="-5.282817">
        <ele>2312.0</ele>
        <time>2014-06-30T12:04:46Z</time>
      </trkpt>
      <trkpt lat="40.470383" lon="-5.282867">
        <ele>2312.0</ele>
        <time>2014-06-30T12:04:47Z</time>
      </trkpt>
      <trkpt lat="40.470467" lon="-5.282917">
        <ele>2312.0</ele>
        <time>2014-06-30T12:04:48Z</time>
      </trkpt>
      <trkpt lat="40.470550" lon="-5.282967">
        <ele>2311.0</ele>
        <time>2014-06-30T12:04:49Z</time>
      </trkpt>
      <trkpt lat="40.470633" lon="-5.283000">
        <ele>2311.0</ele>
        <time>2014-06-30T12:04:50Z</time>
      </trkpt>
      <trkpt lat="40.470717" lon="-5.283050">
        <ele>2310.0</ele>
        <time>2014-06-30T12:04:51Z</time>
      </trkpt>
      <trkpt lat="40.470800" lon="-5.283100">
        <ele>2310.0</ele>
        <time>2014-06-30T12:04:52Z</time>
      </trkpt>
      <trkpt lat="40.470883" lon="-5.283167">
        <ele>2310.0</ele>
        <time>2014-06-30T12:04:53Z</time>
      </trkpt>
      <trkpt lat="40.470967" lon="-5.283250">
        <ele>2309.0</ele>
        <time>2014-06-30T12:04:54Z</time>
      </trkpt>
      <trkpt lat="40.471050" lon="-5.283333">
        <ele>2308.0</ele>
        <time>2014-06-30T12:04:55Z</time>
      </trkpt>
      <trkpt lat="40.471117" lon="-5.283417">
        <ele>2308.0</ele>
        <time>2014-06-30T12:04:56Z</time>
      </trkpt>
      <trkpt lat="40.471183" lon="-5.283500">
        <ele>2307.0</ele>
        <time>2014-06-30T12:04:57Z</time>
      </trkpt>
      <trkpt lat="40.471233" lon="-5.283567">
        <ele>2307.0</ele>
        <time>2014-06-30T12:04:58Z</time>
      </trkpt>
      <trkpt lat="40.471300" lon="-5.283650">
        <ele>2306.0</ele>
        <time>2014-06-30T12:04:59Z</time>
      </trkpt>
      <trkpt lat="40.471400" lon="-5.283717">
        <ele>2306.0</ele>
        <time>2014-06-30T12:05:00Z</time>
      </trkpt>
      <trkpt lat="40.471483" lon="-5.283800">
        <ele>2305.0</ele>
        <time>2014-06-30T12:05:01Z</time>
      </trkpt>
      <trkpt lat="40.471550" lon="-5.283867">
        <ele>2305.0</ele>
        <time>2014-06-30T12:05:02Z</time>
      </trkpt>
      <trkpt lat="40.471617" lon="-5.283933">
        <ele>2306.0</ele>
        <time>2014-06-30T12:05:03Z</time>
      </trkpt>
      <trkpt lat="40.471683" lon="-5.283983">
        <ele>2306.0</ele>
        <time>2014-06-30T12:05:04Z</time>
      </trkpt>
      <trkpt lat="40.471733" lon="-5.284033">
        <ele>2306.0</ele>
        <time>2014-06-30T12:05:05Z</time>
      </trkpt>
      <trkpt lat="40.471767" lon="-5.284067">
        <ele>2307.0</ele>
        <time>2014-06-30T12:05:06Z</time>
      </trkpt>
      <trkpt lat="40.471817" lon="-5.284117">
        <ele>2308.0</ele>
        <time>2014-06-30T12:05:07Z</time>
      </trkpt>
      <trkpt lat="40.471867" lon="-5.284183">
        <ele>2307.0</ele>
        <time>2014-06-30T12:05:08Z</time>
      </trkpt>
      <trkpt lat="40.471900" lon="-5.284250">
        <ele>2307.0</ele>
        <time>2014-06-30T12:05:09Z</time>
      </trkpt>
      <trkpt lat="40.471917" lon="-5.284333">
        <ele>2307.0</ele>
        <time>2014-06-30T12:05:10Z</time>
      </trkpt>
      <trkpt lat="40.471933" lon="-5.284400">
        <ele>2307.0</ele>
        <time>2014-06-30T12:05:11Z</time>
      </trkpt>
      <trkpt lat="40.471933" lon="-5.284483">
        <ele>2307.0</ele>
        <time>2014-06-30T12:05:12Z</time>
      </trkpt>
      <trkpt lat="40.471917" lon="-5.284550">
        <ele>2309.0</ele>
        <time>2014-06-30T12:05:13Z</time>
      </trkpt>
      <trkpt lat="40.471850" lon="-5.284617">
        <ele>2310.0</ele>
        <time>2014-06-30T12:05:14Z</time>
      </trkpt>
      <trkpt lat="40.471783" lon="-5.284633">
        <ele>2310.0</ele>
        <time>2014-06-30T12:05:15Z</time>
      </trkpt>
      <trkpt lat="40.471717" lon="-5.284617">
        <ele>2311.0</ele>
        <time>2014-06-30T12:05:16Z</time>
      </trkpt>
      <trkpt lat="40.471650" lon="-5.284567">
        <ele>2313.0</ele>
        <time>2014-06-30T12:05:17Z</time>
      </trkpt>
      <trkpt lat="40.471583" lon="-5.284500">
        <ele>2315.0</ele>
        <time>2014-06-30T12:05:18Z</time>
      </trkpt>
      <trkpt lat="40.471533" lon="-5.284417">
        <ele>2316.0</ele>
        <time>2014-06-30T12:05:19Z</time>
      </trkpt>
      <trkpt lat="40.471517" lon="-5.284317">
        <ele>2316.0</ele>
        <time>2014-06-30T12:05:20Z</time>
      </trkpt>
      <trkpt lat="40.471517" lon="-5.284200">
        <ele>2316.0</ele>
        <time>2014-06-30T12:05:21Z</time>
      </trkpt>
      <trkpt lat="40.471533" lon="-5.284067">
        <ele>2315.0</ele>
        <time>2014-06-30T12:05:22Z</time>
      </trkpt>
      <trkpt lat="40.471567" lon="-5.283933">
        <ele>2315.0</ele>
        <time>2014-06-30T12:05:23Z</time>
      </trkpt>
      <trkpt lat="40.471617" lon="-5.283800">
        <ele>2316.0</ele>
        <time>2014-06-30T12:05:24Z</time>
      </trkpt>
      <trkpt lat="40.471667" lon="-5.283700">
        <ele>2317.0</ele>
        <time>2014-06-30T12:05:25Z</time>
      </trkpt>
      <trkpt lat="40.471717" lon="-5.283600">
        <ele>2317.0</ele>
        <time>2014-06-30T12:05:26Z</time>
      </trkpt>
      <trkpt lat="40.471800" lon="-5.283517">
        <ele>2317.0</ele>
        <time>2014-06-30T12:05:27Z</time>
      </trkpt>
      <trkpt lat="40.471883" lon="-5.283450">
        <ele>2317.0</ele>
        <time>2014-06-30T12:05:28Z</time>
      </trkpt>
      <trkpt lat="40.471967" lon="-5.283400">
        <ele>2318.0</ele>
        <time>2014-06-30T12:05:29Z</time>
      </trkpt>
      <trkpt lat="40.472050" lon="-5.283333">
        <ele>2318.0</ele>
        <time>2014-06-30T12:05:30Z</time>
      </trkpt>
      <trkpt lat="40.472133" lon="-5.283283">
        <ele>2318.0</ele>
        <time>2014-06-30T12:05:31Z</time>
      </trkpt>
      <trkpt lat="40.472200" lon="-5.283233">
        <ele>2319.0</ele>
        <time>2014-06-30T12:05:32Z</time>
      </trkpt>
      <trkpt lat="40.472283" lon="-5.283183">
        <ele>2319.0</ele>
        <time>2014-06-30T12:05:33Z</time>
      </trkpt>
      <trkpt lat="40.472367" lon="-5.283133">
        <ele>2318.0</ele>
        <time>2014-06-30T12:05:34Z</time>
      </trkpt>
      <trkpt lat="40.472450" lon="-5.283083">
        <ele>2317.0</ele>
        <time>2014-06-30T12:05:35Z</time>
      </trkpt>
      <trkpt lat="40.472550" lon="-5.283017">
        <ele>2317.0</ele>
        <time>2014-06-30T12:05:36Z</time>
      </trkpt>
      <trkpt lat="40.472633" lon="-5.282933">
        <ele>2318.0</ele>
        <time>2014-06-30T12:05:37Z</time>
      </trkpt>
      <trkpt lat="40.472717" lon="-5.282850">
        <ele>2319.0</ele>
        <time>2014-06-30T12:05:38Z</time>
      </trkpt>
      <trkpt lat="40.472817" lon="-5.282767">
        <ele>2319.0</ele>
        <time>2014-06-30T12:05:39Z</time>
      </trkpt>
      <trkpt lat="40.472900" lon="-5.282683">
        <ele>2320.0</ele>
        <time>2014-06-30T12:05:40Z</time>
      </trkpt>
      <trkpt lat="40.472983" lon="-5.282617">
        <ele>2320.0</ele>
        <time>2014-06-30T12:05:41Z</time>
      </trkpt>
      <trkpt lat="40.473083" lon="-5.282567">
        <ele>2320.0</ele>
        <time>2014-06-30T12:05:42Z</time>
      </trkpt>
      <trkpt lat="40.473183" lon="-5.282517">
        <ele>2320.0</ele>
        <time>2014-06-30T12:05:43Z</time>
      </trkpt>
      <trkpt lat="40.473283" lon="-5.282483">
        <ele>2320.0</ele>
        <time>2014-06-30T12:05:44Z</time>
      </trkpt>
      <trkpt lat="40.473383" lon="-5.282450">
        <ele>2320.0</ele>
        <time>2014-06-30T12:05:45Z</time>
      </trkpt>
      <trkpt lat="40.473500" lon="-5.282400">
        <ele>2320.0</ele>
        <time>2014-06-30T12:05:46Z</time>
      </trkpt>
      <trkpt lat="40.473600" lon="-5.282383">
        <ele>2320.0</ele>
        <time>2014-06-30T12:05:47Z</time>
      </trkpt>
      <trkpt lat="40.473700" lon="-5.282350">
        <ele>2321.0</ele>
        <time>2014-06-30T12:05:48Z</time>
      </trkpt>
      <trkpt lat="40.473800" lon="-5.282333">
        <ele>2321.0</ele>
        <time>2014-06-30T12:05:49Z</time>
      </trkpt>
      <trkpt lat="40.473883" lon="-5.282317">
        <ele>2322.0</ele>
        <time>2014-06-30T12:05:50Z</time>
      </trkpt>
      <trkpt lat="40.473967" lon="-5.282300">
        <ele>2322.0</ele>
        <time>2014-06-30T12:05:51Z</time>
      </trkpt>
      <trkpt lat="40.474050" lon="-5.282283">
        <ele>2322.0</ele>
        <time>2014-06-30T12:05:52Z</time>
      </trkpt>
      <trkpt lat="40.474133" lon="-5.282267">
        <ele>2322.0</ele>
        <time>2014-06-30T12:05:53Z</time>
      </trkpt>
      <trkpt lat="40.474233" lon="-5.282250">
        <ele>2322.0</ele>
        <time>2014-06-30T12:05:54Z</time>
      </trkpt>
      <trkpt lat="40.474333" lon="-5.282267">
        <ele>2323.0</ele>
        <time>2014-06-30T12:05:55Z</time>
      </trkpt>
      <trkpt lat="40.474417" lon="-5.282283">
        <ele>2323.0</ele>
        <time>2014-06-30T12:05:56Z</time>
      </trkpt>
      <trkpt lat="40.474500" lon="-5.282300">
        <ele>2323.0</ele>
        <time>2014-06-30T12:05:57Z</time>
      </trkpt>
      <trkpt lat="40.474583" lon="-5.282317">
        <ele>2324.0</ele>
        <time>2014-06-30T12:05:58Z</time>
      </trkpt>
      <trkpt lat="40.474650" lon="-5.282350">
        <ele>2324.0</ele>
        <time>2014-06-30T12:05:59Z</time>
      </trkpt>
      <trkpt lat="40.474733" lon="-5.282383">
        <ele>2324.0</ele>
        <time>2014-06-30T12:06:00Z</time>
      </trkpt>
      <trkpt lat="40.474800" lon="-5.282433">
        <ele>2323.0</ele>
        <time>2014-06-30T12:06:01Z</time>
      </trkpt>
      <trkpt lat="40.474850" lon="-5.282500">
        <ele>2323.0</ele>
        <time>2014-06-30T12:06:02Z</time>
      </trkpt>
      <trkpt lat="40.474867" lon="-5.282600">
        <ele>2322.0</ele>
        <time>2014-06-30T12:06:03Z</time>
      </trkpt>
      <trkpt lat="40.474850" lon="-5.282717">
        <ele>2321.0</ele>
        <time>2014-06-30T12:06:04Z</time>
      </trkpt>
      <trkpt lat="40.474800" lon="-5.282817">
        <ele>2321.0</ele>
        <time>2014-06-30T12:06:05Z</time>
      </trkpt>
      <trkpt lat="40.474733" lon="-5.282867">
        <ele>2321.0</ele>
        <time>2014-06-30T12:06:06Z</time>
      </trkpt>
      <trkpt lat="40.474650" lon="-5.282867">
        <ele>2320.0</ele>
        <time>2014-06-30T12:06:07Z</time>
      </trkpt>
      <trkpt lat="40.474583" lon="-5.282833">
        <ele>2319.0</ele>
        <time>2014-06-30T12:06:08Z</time>
      </trkpt>
      <trkpt lat="40.474533" lon="-5.282783">
        <ele>2317.0</ele>
        <time>2014-06-30T12:06:09Z</time>
      </trkpt>
      <trkpt lat="40.474467" lon="-5.282733">
        <ele>2315.0</ele>
        <time>2014-06-30T12:06:10Z</time>
      </trkpt>
      <trkpt lat="40.474400" lon="-5.282683">
        <ele>2314.0</ele>
        <time>2014-06-30T12:06:11Z</time>
      </trkpt>
      <trkpt lat="40.474333" lon="-5.282600">
        <ele>2312.0</ele>
        <time>2014-06-30T12:06:12Z</time>
      </trkpt>
      <trkpt lat="40.474283" lon="-5.282500">
        <ele>2310.0</ele>
        <time>2014-06-30T12:06:13Z</time>
      </trkpt>
      <trkpt lat="40.474233" lon="-5.282383">
        <ele>2308.0</ele>
        <time>2014-06-30T12:06:14Z</time>
      </trkpt>
      <trkpt lat="40.474183" lon="-5.282283">
        <ele>2307.0</ele>
        <time>2014-06-30T12:06:15Z</time>
      </trkpt>
      <trkpt lat="40.474117" lon="-5.282150">
        <ele>2305.0</ele>
        <time>2014-06-30T12:06:16Z</time>
      </trkpt>
      <trkpt lat="40.474067" lon="-5.282033">
        <ele>2305.0</ele>
        <time>2014-06-30T12:06:17Z</time>
      </trkpt>
      <trkpt lat="40.474033" lon="-5.281900">
        <ele>2305.0</ele>
        <time>2014-06-30T12:06:18Z</time>
      </trkpt>
      <trkpt lat="40.474000" lon="-5.281767">
        <ele>2305.0</ele>
        <time>2014-06-30T12:06:19Z</time>
      </trkpt>
      <trkpt lat="40.473967" lon="-5.281633">
        <ele>2304.0</ele>
        <time>2014-06-30T12:06:20Z</time>
      </trkpt>
      <trkpt lat="40.473950" lon="-5.281500">
        <ele>2303.0</ele>
        <time>2014-06-30T12:06:21Z</time>
      </trkpt>
      <trkpt lat="40.473933" lon="-5.281367">
        <ele>2303.0</ele>
        <time>2014-06-30T12:06:22Z</time>
      </trkpt>
      <trkpt lat="40.473917" lon="-5.281250">
        <ele>2302.0</ele>
        <time>2014-06-30T12:06:23Z</time>
      </trkpt>
      <trkpt lat="40.473917" lon="-5.281100">
        <ele>2301.0</ele>
        <time>2014-06-30T12:06:24Z</time>
      </trkpt>
      <trkpt lat="40.473917" lon="-5.280967">
        <ele>2300.0</ele>
        <time>2014-06-30T12:06:25Z</time>
      </trkpt>
      <trkpt lat="40.473950" lon="-5.280817">
        <ele>2299.0</ele>
        <time>2014-06-30T12:06:26Z</time>
      </trkpt>
      <trkpt lat="40.473983" lon="-5.280667">
        <ele>2299.0</ele>
        <time>2014-06-30T12:06:27Z</time>
      </trkpt>
      <trkpt lat="40.474017" lon="-5.280517">
        <ele>2299.0</ele>
        <time>2014-06-30T12:06:28Z</time>
      </trkpt>
      <trkpt lat="40.474050" lon="-5.280383">
        <ele>2298.0</ele>
        <time>2014-06-30T12:06:29Z</time>
      </trkpt>
      <trkpt lat="40.474083" lon="-5.280250">
        <ele>2298.0</ele>
        <time>2014-06-30T12:06:30Z</time>
      </trkpt>
      <trkpt lat="40.474133" lon="-5.280117">
        <ele>2297.0</ele>
        <time>2014-06-30T12:06:31Z</time>
      </trkpt>
      <trkpt lat="40.474200" lon="-5.280000">
        <ele>2295.0</ele>
        <time>2014-06-30T12:06:32Z</time>
      </trkpt>
      <trkpt lat="40.474267" lon="-5.279867">
        <ele>2294.0</ele>
        <time>2014-06-30T12:06:33Z</time>
      </trkpt>
      <trkpt lat="40.474333" lon="-5.279750">
        <ele>2293.0</ele>
        <time>2014-06-30T12:06:34Z</time>
      </trkpt>
      <trkpt lat="40.474383" lon="-5.279650">
        <ele>2291.0</ele>
        <time>2014-06-30T12:06:35Z</time>
      </trkpt>
      <trkpt lat="40.474450" lon="-5.279533">
        <ele>2289.0</ele>
        <time>2014-06-30T12:06:36Z</time>
      </trkpt>
      <trkpt lat="40.474517" lon="-5.279433">
        <ele>2286.0</ele>
        <time>2014-06-30T12:06:37Z</time>
      </trkpt>
      <trkpt lat="40.474600" lon="-5.279317">
        <ele>2282.0</ele>
        <time>2014-06-30T12:06:38Z</time>
      </trkpt>
      <trkpt lat="40.474683" lon="-5.279217">
        <ele>2280.0</ele>
        <time>2014-06-30T12:06:39Z</time>
      </trkpt>
      <trkpt lat="40.474767" lon="-5.279117">
        <ele>2278.0</ele>
        <time>2014-06-30T12:06:40Z</time>
      </trkpt>
      <trkpt lat="40.474850" lon="-5.279033">
        <ele>2277.0</ele>
        <time>2014-06-30T12:06:41Z</time>
      </trkpt>
      <trkpt lat="40.474950" lon="-5.278967">
        <ele>2277.0</ele>
        <time>2014-06-30T12:06:42Z</time>
      </trkpt>
      <trkpt lat="40.475017" lon="-5.278917">
        <ele>2276.0</ele>
        <time>2014-06-30T12:06:43Z</time>
      </trkpt>
      <trkpt lat="40.475117" lon="-5.278850">
        <ele>2274.0</ele>
        <time>2014-06-30T12:06:44Z</time>
      </trkpt>
      <trkpt lat="40.475200" lon="-5.278783">
        <ele>2271.0</ele>
        <time>2014-06-30T12:06:45Z</time>
      </trkpt>
      <trkpt lat="40.475300" lon="-5.278717">
        <ele>2269.0</ele>
        <time>2014-06-30T12:06:46Z</time>
      </trkpt>
      <trkpt lat="40.475400" lon="-5.278650">
        <ele>2267.0</ele>
        <time>2014-06-30T12:06:47Z</time>
      </trkpt>
      <trkpt lat="40.475500" lon="-5.278583">
        <ele>2267.0</ele>
        <time>2014-06-30T12:06:48Z</time>
      </trkpt>
      <trkpt lat="40.475583" lon="-5.278533">
        <ele>2266.0</ele>
        <time>2014-06-30T12:06:49Z</time>
      </trkpt>
      <trkpt lat="40.475683" lon="-5.278483">
        <ele>2265.0</ele>
        <time>2014-06-30T12:06:50Z</time>
      </trkpt>
      <trkpt lat="40.475783" lon="-5.278450">
        <ele>2262.0</ele>
        <time>2014-06-30T12:06:51Z</time>
      </trkpt>
      <trkpt lat="40.475900" lon="-5.278400">
        <ele>2259.0</ele>
        <time>2014-06-30T12:06:52Z</time>
      </trkpt>
      <trkpt lat="40.476017" lon="-5.278350">
        <ele>2257.0</ele>
        <time>2014-06-30T12:06:53Z</time>
      </trkpt>
      <trkpt lat="40.476133" lon="-5.278283">
        <ele>2255.0</ele>
        <time>2014-06-30T12:06:54Z</time>
      </trkpt>
      <trkpt lat="40.476250" lon="-5.278217">
        <ele>2254.0</ele>
        <time>2014-06-30T12:06:55Z</time>
      </trkpt>
      <trkpt lat="40.476367" lon="-5.278150">
        <ele>2254.0</ele>
        <time>2014-06-30T12:06:56Z</time>
      </trkpt>
      <trkpt lat="40.476467" lon="-5.278083">
        <ele>2253.0</ele>
        <time>2014-06-30T12:06:57Z</time>
      </trkpt>
      <trkpt lat="40.476567" lon="-5.278033">
        <ele>2253.0</ele>
        <time>2014-06-30T12:06:58Z</time>
      </trkpt>
      <trkpt lat="40.476667" lon="-5.277967">
        <ele>2251.0</ele>
        <time>2014-06-30T12:06:59Z</time>
      </trkpt>
      <trkpt lat="40.476783" lon="-5.277933">
        <ele>2250.0</ele>
        <time>2014-06-30T12:07:00Z</time>
      </trkpt>
      <trkpt lat="40.476900" lon="-5.277917">
        <ele>2248.0</ele>
        <time>2014-06-30T12:07:01Z</time>
      </trkpt>
      <trkpt lat="40.477017" lon="-5.277900">
        <ele>2247.0</ele>
        <time>2014-06-30T12:07:02Z</time>
      </trkpt>
      <trkpt lat="40.477117" lon="-5.277900">
        <ele>2246.0</ele>
        <time>2014-06-30T12:07:03Z</time>
      </trkpt>
      <trkpt lat="40.477233" lon="-5.277883">
        <ele>2245.0</ele>
        <time>2014-06-30T12:07:04Z</time>
      </trkpt>
      <trkpt lat="40.477350" lon="-5.277850">
        <ele>2244.0</ele>
        <time>2014-06-30T12:07:05Z</time>
      </trkpt>
      <trkpt lat="40.477467" lon="-5.277833">
        <ele>2242.0</ele>
        <time>2014-06-30T12:07:06Z</time>
      </trkpt>
      <trkpt lat="40.477583" lon="-5.277817">
        <ele>2242.0</ele>
        <time>2014-06-30T12:07:07Z</time>
      </trkpt>
      <trkpt lat="40.477700" lon="-5.277817">
        <ele>2242.0</ele>
        <time>2014-06-30T12:07:08Z</time>
      </trkpt>
      <trkpt lat="40.477817" lon="-5.277800">
        <ele>2242.0</ele>
        <time>2014-06-30T12:07:09Z</time>
      </trkpt>
      <trkpt lat="40.477917" lon="-5.277783">
        <ele>2242.0</ele>
        <time>2014-06-30T12:07:10Z</time>
      </trkpt>
      <trkpt lat="40.478033" lon="-5.277767">
        <ele>2240.0</ele>
        <time>2014-06-30T12:07:11Z</time>
      </trkpt>
      <trkpt lat="40.478150" lon="-5.277733">
        <ele>2238.0</ele>
        <time>2014-06-30T12:07:12Z</time>
      </trkpt>
      <trkpt lat="40.478267" lon="-5.277700">
        <ele>2237.0</ele>
        <time>2014-06-30T12:07:13Z</time>
      </trkpt>
      <trkpt lat="40.478383" lon="-5.277667">
        <ele>2236.0</ele>
        <time>2014-06-30T12:07:14Z</time>
      </trkpt>
      <trkpt lat="40.478517" lon="-5.277650">
        <ele>2236.0</ele>
        <time>2014-06-30T12:07:15Z</time>
      </trkpt>
      <trkpt lat="40.478617" lon="-5.277617">
        <ele>2236.0</ele>
        <time>2014-06-30T12:07:16Z</time>
      </trkpt>
      <trkpt lat="40.478733" lon="-5.277600">
        <ele>2234.0</ele>
        <time>2014-06-30T12:07:17Z</time>
      </trkpt>
      <trkpt lat="40.478850" lon="-5.277567">
        <ele>2232.0</ele>
        <time>2014-06-30T12:07:18Z</time>
      </trkpt>
      <trkpt lat="40.478967" lon="-5.277550">
        <ele>2230.0</ele>
        <time>2014-06-30T12:07:19Z</time>
      </trkpt>
      <trkpt lat="40.479083" lon="-5.277517">
        <ele>2229.0</ele>
        <time>2014-06-30T12:07:20Z</time>
      </trkpt>
      <trkpt lat="40.479200" lon="-5.277500">
        <ele>2228.0</ele>
        <time>2014-06-30T12:07:21Z</time>
      </trkpt>
      <trkpt lat="40.479317" lon="-5.277483">
        <ele>2228.0</ele>
        <time>2014-06-30T12:07:22Z</time>
      </trkpt>
      <trkpt lat="40.479417" lon="-5.277467">
        <ele>2227.0</ele>
        <time>2014-06-30T12:07:23Z</time>
      </trkpt>
      <trkpt lat="40.479533" lon="-5.277433">
        <ele>2225.0</ele>
        <time>2014-06-30T12:07:24Z</time>
      </trkpt>
      <trkpt lat="40.479633" lon="-5.277417">
        <ele>2224.0</ele>
        <time>2014-06-30T12:07:25Z</time>
      </trkpt>
      <trkpt lat="40.479750" lon="-5.277400">
        <ele>2223.0</ele>
        <time>2014-06-30T12:07:26Z</time>
      </trkpt>
      <trkpt lat="40.479850" lon="-5.277383">
        <ele>2221.0</ele>
        <time>2014-06-30T12:07:27Z</time>
      </trkpt>
      <trkpt lat="40.479950" lon="-5.277350">
        <ele>2218.0</ele>
        <time>2014-06-30T12:07:28Z</time>
      </trkpt>
      <trkpt lat="40.480067" lon="-5.277333">
        <ele>2215.0</ele>
        <time>2014-06-30T12:07:29Z</time>
      </trkpt>
      <trkpt lat="40.480183" lon="-5.277300">
        <ele>2213.0</ele>
        <time>2014-06-30T12:07:30Z</time>
      </trkpt>
      <trkpt lat="40.480283" lon="-5.277267">
        <ele>2208.0</ele>
        <time>2014-06-30T12:07:31Z</time>
      </trkpt>
      <trkpt lat="40.480417" lon="-5.277233">
        <ele>2205.0</ele>
        <time>2014-06-30T12:07:32Z</time>
      </trkpt>
      <trkpt lat="40.480533" lon="-5.277200">
        <ele>2202.0</ele>
        <time>2014-06-30T12:07:33Z</time>
      </trkpt>
      <trkpt lat="40.480667" lon="-5.277150">
        <ele>2199.0</ele>
        <time>2014-06-30T12:07:34Z</time>
      </trkpt>
      <trkpt lat="40.480767" lon="-5.277133">
        <ele>2197.0</ele>
        <time>2014-06-30T12:07:35Z</time>
      </trkpt>
      <trkpt lat="40.480883" lon="-5.277100">
        <ele>2193.0</ele>
        <time>2014-06-30T12:07:36Z</time>
      </trkpt>
      <trkpt lat="40.481017" lon="-5.277067">
        <ele>2188.0</ele>
        <time>2014-06-30T12:07:37Z</time>
      </trkpt>
      <trkpt lat="40.481150" lon="-5.277017">
        <ele>2185.0</ele>
        <time>2014-06-30T12:07:38Z</time>
      </trkpt>
      <trkpt lat="40.481283" lon="-5.276967">
        <ele>2183.0</ele>
        <time>2014-06-30T12:07:39Z</time>
      </trkpt>
      <trkpt lat="40.481417" lon="-5.276917">
        <ele>2181.0</ele>
        <time>2014-06-30T12:07:40Z</time>
      </trkpt>
      <trkpt lat="40.481550" lon="-5.276900">
        <ele>2180.0</ele>
        <time>2014-06-30T12:07:41Z</time>
      </trkpt>
      <trkpt lat="40.481667" lon="-5.276867">
        <ele>2177.0</ele>
        <time>2014-06-30T12:07:42Z</time>
      </trkpt>
      <trkpt lat="40.481800" lon="-5.276800">
        <ele>2174.0</ele>
        <time>2014-06-30T12:07:43Z</time>
      </trkpt>
      <trkpt lat="40.481933" lon="-5.276733">
        <ele>2170.0</ele>
        <time>2014-06-30T12:07:44Z</time>
      </trkpt>
      <trkpt lat="40.482083" lon="-5.276683">
        <ele>2167.0</ele>
        <time>2014-06-30T12:07:45Z</time>
      </trkpt>
      <trkpt lat="40.482217" lon="-5.276650">
        <ele>2164.0</ele>
        <time>2014-06-30T12:07:46Z</time>
      </trkpt>
      <trkpt lat="40.482333" lon="-5.276583">
        <ele>2162.0</ele>
        <time>2014-06-30T12:07:47Z</time>
      </trkpt>
      <trkpt lat="40.482467" lon="-5.276517">
        <ele>2160.0</ele>
        <time>2014-06-30T12:07:48Z</time>
      </trkpt>
      <trkpt lat="40.482583" lon="-5.276433">
        <ele>2157.0</ele>
        <time>2014-06-30T12:07:49Z</time>
      </trkpt>
      <trkpt lat="40.482717" lon="-5.276383">
        <ele>2155.0</ele>
        <time>2014-06-30T12:07:50Z</time>
      </trkpt>
      <trkpt lat="40.482867" lon="-5.276317">
        <ele>2153.0</ele>
        <time>2014-06-30T12:07:51Z</time>
      </trkpt>
      <trkpt lat="40.483000" lon="-5.276250">
        <ele>2153.0</ele>
        <time>2014-06-30T12:07:52Z</time>
      </trkpt>
      <trkpt lat="40.483133" lon="-5.276150">
        <ele>2151.0</ele>
        <time>2014-06-30T12:07:53Z</time>
      </trkpt>
      <trkpt lat="40.483267" lon="-5.276083">
        <ele>2150.0</ele>
        <time>2014-06-30T12:07:54Z</time>
      </trkpt>
      <trkpt lat="40.483400" lon="-5.276017">
        <ele>2149.0</ele>
        <time>2014-06-30T12:07:55Z</time>
      </trkpt>
      <trkpt lat="40.483533" lon="-5.275967">
        <ele>2148.0</ele>
        <time>2014-06-30T12:07:56Z</time>
      </trkpt>
      <trkpt lat="40.483650" lon="-5.275917">
        <ele>2146.0</ele>
        <time>2014-06-30T12:07:57Z</time>
      </trkpt>
      <trkpt lat="40.483783" lon="-5.275850">
        <ele>2144.0</ele>
        <time>2014-06-30T12:07:58Z</time>
      </trkpt>
      <trkpt lat="40.483900" lon="-5.275783">
        <ele>2141.0</ele>
        <time>2014-06-30T12:07:59Z</time>
      </trkpt>
      <trkpt lat="40.484033" lon="-5.275733">
        <ele>2139.0</ele>
        <time>2014-06-30T12:08:00Z</time>
      </trkpt>
      <trkpt lat="40.484150" lon="-5.275700">
        <ele>2136.0</ele>
        <time>2014-06-30T12:08:01Z</time>
      </trkpt>
      <trkpt lat="40.484283" lon="-5.275650">
        <ele>2135.0</ele>
        <time>2014-06-30T12:08:02Z</time>
      </trkpt>
      <trkpt lat="40.484417" lon="-5.275583">
        <ele>2133.0</ele>
        <time>2014-06-30T12:08:03Z</time>
      </trkpt>
      <trkpt lat="40.484533" lon="-5.275517">
        <ele>2132.0</ele>
        <time>2014-06-30T12:08:04Z</time>
      </trkpt>
      <trkpt lat="40.484650" lon="-5.275483">
        <ele>2130.0</ele>
        <time>2014-06-30T12:08:05Z</time>
      </trkpt>
      <trkpt lat="40.484767" lon="-5.275450">
        <ele>2129.0</ele>
        <time>2014-06-30T12:08:06Z</time>
      </trkpt>
      <trkpt lat="40.484900" lon="-5.275400">
        <ele>2128.0</ele>
        <time>2014-06-30T12:08:07Z</time>
      </trkpt>
      <trkpt lat="40.485017" lon="-5.275317">
        <ele>2126.0</ele>
        <time>2014-06-30T12:08:08Z</time>
      </trkpt>
      <trkpt lat="40.485150" lon="-5.275250">
        <ele>2125.0</ele>
        <time>2014-06-30T12:08:09Z</time>
      </trkpt>
      <trkpt lat="40.485283" lon="-5.275200">
        <ele>2124.0</ele>
        <time>2014-06-30T12:08:10Z</time>
      </trkpt>
      <trkpt lat="40.485400" lon="-5.275167">
        <ele>2124.0</ele>
        <time>2014-06-30T12:08:11Z</time>
      </trkpt>
      <trkpt lat="40.485517" lon="-5.275117">
        <ele>2123.0</ele>
        <time>2014-06-30T12:08:12Z</time>
      </trkpt>
      <trkpt lat="40.485633" lon="-5.275050">
        <ele>2122.0</ele>
        <time>2014-06-30T12:08:13Z</time>
      </trkpt>
      <trkpt lat="40.485750" lon="-5.274983">
        <ele>2120.0</ele>
        <time>2014-06-30T12:08:14Z</time>
      </trkpt>
      <trkpt lat="40.485883" lon="-5.274933">
        <ele>2119.0</ele>
        <time>2014-06-30T12:08:15Z</time>
      </trkpt>
      <trkpt lat="40.486000" lon="-5.274883">
        <ele>2117.0</ele>
        <time>2014-06-30T12:08:16Z</time>
      </trkpt>
      <trkpt lat="40.486133" lon="-5.274833">
        <ele>2115.0</ele>
        <time>2014-06-30T12:08:17Z</time>
      </trkpt>
      <trkpt lat="40.486250" lon="-5.274767">
        <ele>2113.0</ele>
        <time>2014-06-30T12:08:18Z</time>
      </trkpt>
      <trkpt lat="40.486367" lon="-5.274717">
        <ele>2112.0</ele>
        <time>2014-06-30T12:08:19Z</time>
      </trkpt>
      <trkpt lat="40.486500" lon="-5.274667">
        <ele>2110.0</ele>
        <time>2014-06-30T12:08:20Z</time>
      </trkpt>
      <trkpt lat="40.486617" lon="-5.274633">
        <ele>2106.0</ele>
        <time>2014-06-30T12:08:21Z</time>
      </trkpt>
      <trkpt lat="40.486750" lon="-5.274567">
        <ele>2103.0</ele>
        <time>2014-06-30T12:08:22Z</time>
      </trkpt>
      <trkpt lat="40.486883" lon="-5.274500">
        <ele>2101.0</ele>
        <time>2014-06-30T12:08:23Z</time>
      </trkpt>
      <trkpt lat="40.487000" lon="-5.274433">
        <ele>2098.0</ele>
        <time>2014-06-30T12:08:24Z</time>
      </trkpt>
      <trkpt lat="40.487133" lon="-5.274367">
        <ele>2097.0</ele>
        <time>2014-06-30T12:08:25Z</time>
      </trkpt>
      <trkpt lat="40.487250" lon="-5.274317">
        <ele>2095.0</ele>
        <time>2014-06-30T12:08:26Z</time>
      </trkpt>
      <trkpt lat="40.487383" lon="-5.274267">
        <ele>2093.0</ele>
        <time>2014-06-30T12:08:27Z</time>
      </trkpt>
      <trkpt lat="40.487500" lon="-5.274200">
        <ele>2090.0</ele>
        <time>2014-06-30T12:08:28Z</time>
      </trkpt>
      <trkpt lat="40.487617" lon="-5.274133">
        <ele>2088.0</ele>
        <time>2014-06-30T12:08:29Z</time>
      </trkpt>
      <trkpt lat="40.487750" lon="-5.274067">
        <ele>2086.0</ele>
        <time>2014-06-30T12:08:30Z</time>
      </trkpt>
      <trkpt lat="40.487867" lon="-5.274000">
        <ele>2083.0</ele>
        <time>2014-06-30T12:08:31Z</time>
      </trkpt>
      <trkpt lat="40.487983" lon="-5.273933">
        <ele>2080.0</ele>
        <time>2014-06-30T12:08:32Z</time>
      </trkpt>
      <trkpt lat="40.488100" lon="-5.273883">
        <ele>2076.0</ele>
        <time>2014-06-30T12:08:33Z</time>
      </trkpt>
      <trkpt lat="40.488233" lon="-5.273833">
        <ele>2072.0</ele>
        <time>2014-06-30T12:08:34Z</time>
      </trkpt>
      <trkpt lat="40.488350" lon="-5.273767">
        <ele>2068.0</ele>
        <time>2014-06-30T12:08:35Z</time>
      </trkpt>
      <trkpt lat="40.488483" lon="-5.273717">
        <ele>2063.0</ele>
        <time>2014-06-30T12:08:36Z</time>
      </trkpt>
      <trkpt lat="40.488600" lon="-5.273667">
        <ele>2059.0</ele>
        <time>2014-06-30T12:08:37Z</time>
      </trkpt>
      <trkpt lat="40.488717" lon="-5.273617">
        <ele>2054.0</ele>
        <time>2014-06-30T12:08:38Z</time>
      </trkpt>
      <trkpt lat="40.488833" lon="-5.273550">
        <ele>2050.0</ele>
        <time>2014-06-30T12:08:39Z</time>
      </trkpt>
      <trkpt lat="40.488967" lon="-5.273467">
        <ele>2046.0</ele>
        <time>2014-06-30T12:08:40Z</time>
      </trkpt>
      <trkpt lat="40.489083" lon="-5.273383">
        <ele>2041.0</ele>
        <time>2014-06-30T12:08:41Z</time>
      </trkpt>
      <trkpt lat="40.489217" lon="-5.273317">
        <ele>2036.0</ele>
        <time>2014-06-30T12:08:42Z</time>
      </trkpt>
      <trkpt lat="40.489333" lon="-5.273267">
        <ele>2032.0</ele>
        <time>2014-06-30T12:08:43Z</time>
      </trkpt>
      <trkpt lat="40.489467" lon="-5.273200">
        <ele>2027.0</ele>
        <time>2014-06-30T12:08:44Z</time>
      </trkpt>
      <trkpt lat="40.489600" lon="-5.273133">
        <ele>2024.0</ele>
        <time>2014-06-30T12:08:45Z</time>
      </trkpt>
      <trkpt lat="40.489733" lon="-5.273050">
        <ele>2021.0</ele>
        <time>2014-06-30T12:08:46Z</time>
      </trkpt>
      <trkpt lat="40.489850" lon="-5.272983">
        <ele>2018.0</ele>
        <time>2014-06-30T12:08:47Z</time>
      </trkpt>
      <trkpt lat="40.489983" lon="-5.272883">
        <ele>2020.0</ele>
        <time>2014-06-30T12:08:48Z</time>
      </trkpt>
      <trkpt lat="40.490083" lon="-5.272800">
        <ele>2021.0</ele>
        <time>2014-06-30T12:08:49Z</time>
      </trkpt>
      <trkpt lat="40.490183" lon="-5.272717">
        <ele>2021.0</ele>
        <time>2014-06-30T12:08:50Z</time>
      </trkpt>
      <trkpt lat="40.490283" lon="-5.272650">
        <ele>2020.0</ele>
        <time>2014-06-30T12:08:51Z</time>
      </trkpt>
      <trkpt lat="40.490383" lon="-5.272600">
        <ele>2020.0</ele>
        <time>2014-06-30T12:08:52Z</time>
      </trkpt>
      <trkpt lat="40.490500" lon="-5.272567">
        <ele>2019.0</ele>
        <time>2014-06-30T12:08:53Z</time>
      </trkpt>
      <trkpt lat="40.490617" lon="-5.272517">
        <ele>2020.0</ele>
        <time>2014-06-30T12:08:54Z</time>
      </trkpt>
      <trkpt lat="40.490733" lon="-5.272433">
        <ele>2022.0</ele>
        <time>2014-06-30T12:08:55Z</time>
      </trkpt>
      <trkpt lat="40.490833" lon="-5.272367">
        <ele>2024.0</ele>
        <time>2014-06-30T12:08:56Z</time>
      </trkpt>
      <trkpt lat="40.490933" lon="-5.272283">
        <ele>2026.0</ele>
        <time>2014-06-30T12:08:57Z</time>
      </trkpt>
      <trkpt lat="40.491017" lon="-5.272233">
        <ele>2028.0</ele>
        <time>2014-06-30T12:08:58Z</time>
      </trkpt>
      <trkpt lat="40.491083" lon="-5.272167">
        <ele>2030.0</ele>
        <time>2014-06-30T12:08:59Z</time>
      </trkpt>
      <trkpt lat="40.491167" lon="-5.272083">
        <ele>2032.0</ele>
        <time>2014-06-30T12:09:00Z</time>
      </trkpt>
      <trkpt lat="40.491233" lon="-5.271983">
        <ele>2032.0</ele>
        <time>2014-06-30T12:09:01Z</time>
      </trkpt>
      <trkpt lat="40.491317" lon="-5.271883">
        <ele>2033.0</ele>
        <time>2014-06-30T12:09:02Z</time>
      </trkpt>
      <trkpt lat="40.491400" lon="-5.271783">
        <ele>2034.0</ele>
        <time>2014-06-30T12:09:03Z</time>
      </trkpt>
      <trkpt lat="40.491500" lon="-5.271700">
        <ele>2035.0</ele>
        <time>2014-06-30T12:09:04Z</time>
      </trkpt>
      <trkpt lat="40.491600" lon="-5.271600">
        <ele>2037.0</ele>
        <time>2014-06-30T12:09:05Z</time>
      </trkpt>
      <trkpt lat="40.491683" lon="-5.271500">
        <ele>2040.0</ele>
        <time>2014-06-30T12:09:06Z</time>
      </trkpt>
      <trkpt lat="40.491783" lon="-5.271417">
        <ele>2043.0</ele>
        <time>2014-06-30T12:09:07Z</time>
      </trkpt>
      <trkpt lat="40.491867" lon="-5.271333">
        <ele>2047.0</ele>
        <time>2014-06-30T12:09:08Z</time>
      </trkpt>
      <trkpt lat="40.491933" lon="-5.271283">
        <ele>2050.0</ele>
        <time>2014-06-30T12:09:09Z</time>
      </trkpt>
      <trkpt lat="40.492000" lon="-5.271267">
        <ele>2053.0</ele>
        <time>2014-06-30T12:09:10Z</time>
      </trkpt>
      <trkpt lat="40.492067" lon="-5.271250">
        <ele>2053.0</ele>
        <time>2014-06-30T12:09:11Z</time>
      </trkpt>
      <trkpt lat="40.492133" lon="-5.271267">
        <ele>2054.0</ele>
        <time>2014-06-30T12:09:12Z</time>
      </trkpt>
      <trkpt lat="40.492200" lon="-5.271300">
        <ele>2055.0</ele>
        <time>2014-06-30T12:09:13Z</time>
      </trkpt>
      <trkpt lat="40.492250" lon="-5.271333">
        <ele>2056.0</ele>
        <time>2014-06-30T12:09:14Z</time>
      </trkpt>
      <trkpt lat="40.492250" lon="-5.271367">
        <ele>2057.0</ele>
        <time>2014-06-30T12:09:15Z</time>
      </trkpt>
      <trkpt lat="40.492217" lon="-5.271400">
        <ele>2058.0</ele>
        <time>2014-06-30T12:09:16Z</time>
      </trkpt>
      <trkpt lat="40.492167" lon="-5.271400">
        <ele>2059.0</ele>
        <time>2014-06-30T12:09:17Z</time>
      </trkpt>
      <trkpt lat="40.492100" lon="-5.271383">
        <ele>2059.0</ele>
        <time>2014-06-30T12:09:18Z</time>
      </trkpt>
      <trkpt lat="40.492017" lon="-5.271333">
        <ele>2059.0</ele>
        <time>2014-06-30T12:09:19Z</time>
      </trkpt>
      <trkpt lat="40.491950" lon="-5.271233">
        <ele>2058.0</ele>
        <time>2014-06-30T12:09:20Z</time>
      </trkpt>
      <trkpt lat="40.491900" lon="-5.271100">
        <ele>2058.0</ele>
        <time>2014-06-30T12:09:21Z</time>
      </trkpt>
      <trkpt lat="40.491833" lon="-5.270950">
        <ele>2058.0</ele>
        <time>2014-06-30T12:09:22Z</time>
      </trkpt>
      <trkpt lat="40.491783" lon="-5.270783">
        <ele>2058.0</ele>
        <time>2014-06-30T12:09:23Z</time>
      </trkpt>
      <trkpt lat="40.491750" lon="-5.270633">
        <ele>2059.0</ele>
        <time>2014-06-30T12:09:24Z</time>
      </trkpt>
      <trkpt lat="40.491717" lon="-5.270500">
        <ele>2063.0</ele>
        <time>2014-06-30T12:09:25Z</time>
      </trkpt>
      <trkpt lat="40.491717" lon="-5.270383">
        <ele>2066.0</ele>
        <time>2014-06-30T12:09:26Z</time>
      </trkpt>
      <trkpt lat="40.491717" lon="-5.270250">
        <ele>2067.0</ele>
        <time>2014-06-30T12:09:27Z</time>
      </trkpt>
      <trkpt lat="40.491750" lon="-5.270117">
        <ele>2067.0</ele>
        <time>2014-06-30T12:09:28Z</time>
      </trkpt>
      <trkpt lat="40.491783" lon="-5.269983">
        <ele>2068.0</ele>
        <time>2014-06-30T12:09:29Z</time>
      </trkpt>
      <trkpt lat="40.491833" lon="-5.269850">
        <ele>2069.0</ele>
        <time>2014-06-30T12:09:30Z</time>
      </trkpt>
      <trkpt lat="40.491900" lon="-5.269733">
        <ele>2069.0</ele>
        <time>2014-06-30T12:09:31Z</time>
      </trkpt>
      <trkpt lat="40.491983" lon="-5.269617">
        <ele>2070.0</ele>
        <time>2014-06-30T12:09:32Z</time>
      </trkpt>
      <trkpt lat="40.492067" lon="-5.269517">
        <ele>2071.0</ele>
        <time>2014-06-30T12:09:33Z</time>
      </trkpt>
      <trkpt lat="40.492167" lon="-5.269417">
        <ele>2071.0</ele>
        <time>2014-06-30T12:09:34Z</time>
      </trkpt>
      <trkpt lat="40.492283" lon="-5.269333">
        <ele>2071.0</ele>
        <time>2014-06-30T12:09:35Z</time>
      </trkpt>
      <trkpt lat="40.492383" lon="-5.269267">
        <ele>2073.0</ele>
        <time>2014-06-30T12:09:36Z</time>
      </trkpt>
      <trkpt lat="40.492500" lon="-5.269217">
        <ele>2075.0</ele>
        <time>2014-06-30T12:09:37Z</time>
      </trkpt>
      <trkpt lat="40.492600" lon="-5.269167">
        <ele>2077.0</ele>
        <time>2014-06-30T12:09:38Z</time>
      </trkpt>
      <trkpt lat="40.492683" lon="-5.269100">
        <ele>2079.0</ele>
        <time>2014-06-30T12:09:39Z</time>
      </trkpt>
      <trkpt lat="40.492767" lon="-5.269033">
        <ele>2080.0</ele>
        <time>2014-06-30T12:09:40Z</time>
      </trkpt>
      <trkpt lat="40.492833" lon="-5.269000">
        <ele>2081.0</ele>
        <time>2014-06-30T12:09:41Z</time>
      </trkpt>
      <trkpt lat="40.492917" lon="-5.268983">
        <ele>2082.0</ele>
        <time>2014-06-30T12:09:42Z</time>
      </trkpt>
      <trkpt lat="40.492983" lon="-5.269017">
        <ele>2082.0</ele>
        <time>2014-06-30T12:09:43Z</time>
      </trkpt>
      <trkpt lat="40.493033" lon="-5.269050">
        <ele>2083.0</ele>
        <time>2014-06-30T12:09:44Z</time>
      </trkpt>
      <trkpt lat="40.493067" lon="-5.269083">
        <ele>2085.0</ele>
        <time>2014-06-30T12:09:45Z</time>
      </trkpt>
      <trkpt lat="40.493083" lon="-5.269100">
        <ele>2086.0</ele>
        <time>2014-06-30T12:09:46Z</time>
      </trkpt>
      <trkpt lat="40.493083" lon="-5.269133">
        <ele>2087.0</ele>
        <time>2014-06-30T12:09:47Z</time>
      </trkpt>
      <trkpt lat="40.493067" lon="-5.269167">
        <ele>2087.0</ele>
        <time>2014-06-30T12:09:48Z</time>
      </trkpt>
      <trkpt lat="40.493050" lon="-5.269183">
        <ele>2087.0</ele>
        <time>2014-06-30T12:09:49Z</time>
      </trkpt>
      <trkpt lat="40.493050" lon="-5.269233">
        <ele>2087.0</ele>
        <time>2014-06-30T12:09:50Z</time>
      </trkpt>
      <trkpt lat="40.493017" lon="-5.269267">
        <ele>2087.0</ele>
        <time>2014-06-30T12:09:51Z</time>
      </trkpt>
      <trkpt lat="40.493000" lon="-5.269300">
        <ele>2087.0</ele>
        <time>2014-06-30T12:09:52Z</time>
      </trkpt>
      <trkpt lat="40.492950" lon="-5.269333">
        <ele>2087.0</ele>
        <time>2014-06-30T12:09:53Z</time>
      </trkpt>
      <trkpt lat="40.492900" lon="-5.269333">
        <ele>2088.0</ele>
        <time>2014-06-30T12:09:54Z</time>
      </trkpt>
      <trkpt lat="40.492833" lon="-5.269333">
        <ele>2089.0</ele>
        <time>2014-06-30T12:09:55Z</time>
      </trkpt>
      <trkpt lat="40.492767" lon="-5.269317">
        <ele>2090.0</ele>
        <time>2014-06-30T12:09:56Z</time>
      </trkpt>
      <trkpt lat="40.492700" lon="-5.269300">
        <ele>2092.0</ele>
        <time>2014-06-30T12:09:57Z</time>
      </trkpt>
      <trkpt lat="40.492633" lon="-5.269267">
        <ele>2093.0</ele>
        <time>2014-06-30T12:09:58Z</time>
      </trkpt>
      <trkpt lat="40.492583" lon="-5.269200">
        <ele>2094.0</ele>
        <time>2014-06-30T12:09:59Z</time>
      </trkpt>
      <trkpt lat="40.492533" lon="-5.269133">
        <ele>2094.0</ele>
        <time>2014-06-30T12:10:00Z</time>
      </trkpt>
      <trkpt lat="40.492467" lon="-5.269033">
        <ele>2090.0</ele>
        <time>2014-06-30T12:10:01Z</time>
      </trkpt>
      <trkpt lat="40.492417" lon="-5.268900">
        <ele>2089.0</ele>
        <time>2014-06-30T12:10:02Z</time>
      </trkpt>
      <trkpt lat="40.492383" lon="-5.268733">
        <ele>2089.0</ele>
        <time>2014-06-30T12:10:03Z</time>
      </trkpt>
      <trkpt lat="40.492367" lon="-5.268550">
        <ele>2090.0</ele>
        <time>2014-06-30T12:10:04Z</time>
      </trkpt>
      <trkpt lat="40.492383" lon="-5.268383">
        <ele>2090.0</ele>
        <time>2014-06-30T12:10:05Z</time>
      </trkpt>
      <trkpt lat="40.492383" lon="-5.268217">
        <ele>2091.0</ele>
        <time>2014-06-30T12:10:06Z</time>
      </trkpt>
      <trkpt lat="40.492417" lon="-5.268050">
        <ele>2092.0</ele>
        <time>2014-06-30T12:10:07Z</time>
      </trkpt>
      <trkpt lat="40.492433" lon="-5.267883">
        <ele>2094.0</ele>
        <time>2014-06-30T12:10:08Z</time>
      </trkpt>
      <trkpt lat="40.492450" lon="-5.267733">
        <ele>2096.0</ele>
        <time>2014-06-30T12:10:09Z</time>
      </trkpt>
      <trkpt lat="40.492467" lon="-5.267600">
        <ele>2097.0</ele>
        <time>2014-06-30T12:10:10Z</time>
      </trkpt>
      <trkpt lat="40.492500" lon="-5.267467">
        <ele>2098.0</ele>
        <time>2014-06-30T12:10:11Z</time>
      </trkpt>
      <trkpt lat="40.492550" lon="-5.267317">
        <ele>2099.0</ele>
        <time>2014-06-30T12:10:12Z</time>
      </trkpt>
      <trkpt lat="40.492617" lon="-5.267183">
        <ele>2099.0</ele>
        <time>2014-06-30T12:10:13Z</time>
      </trkpt>
      <trkpt lat="40.492700" lon="-5.267067">
        <ele>2101.0</ele>
        <time>2014-06-30T12:10:14Z</time>
      </trkpt>
      <trkpt lat="40.492783" lon="-5.266983">
        <ele>2102.0</ele>
        <time>2014-06-30T12:10:15Z</time>
      </trkpt>
      <trkpt lat="40.492883" lon="-5.266917">
        <ele>2103.0</ele>
        <time>2014-06-30T12:10:16Z</time>
      </trkpt>
      <trkpt lat="40.492967" lon="-5.266850">
        <ele>2104.0</ele>
        <time>2014-06-30T12:10:17Z</time>
      </trkpt>
      <trkpt lat="40.493067" lon="-5.266800">
        <ele>2105.0</ele>
        <time>2014-06-30T12:10:18Z</time>
      </trkpt>
      <trkpt lat="40.493150" lon="-5.266750">
        <ele>2106.0</ele>
        <time>2014-06-30T12:10:19Z</time>
      </trkpt>
      <trkpt lat="40.493233" lon="-5.266717">
        <ele>2106.0</ele>
        <time>2014-06-30T12:10:20Z</time>
      </trkpt>
      <trkpt lat="40.493317" lon="-5.266700">
        <ele>2106.0</ele>
        <time>2014-06-30T12:10:21Z</time>
      </trkpt>
      <trkpt lat="40.493400" lon="-5.266683">
        <ele>2106.0</ele>
        <time>2014-06-30T12:10:22Z</time>
      </trkpt>
      <trkpt lat="40.493483" lon="-5.266683">
        <ele>2106.0</ele>
        <time>2014-06-30T12:10:23Z</time>
      </trkpt>
      <trkpt lat="40.493550" lon="-5.266700">
        <ele>2106.0</ele>
        <time>2014-06-30T12:10:24Z</time>
      </trkpt>
      <trkpt lat="40.493633" lon="-5.266733">
        <ele>2106.0</ele>
        <time>2014-06-30T12:10:25Z</time>
      </trkpt>
      <trkpt lat="40.493700" lon="-5.266767">
        <ele>2106.0</ele>
        <time>2014-06-30T12:10:26Z</time>
      </trkpt>
      <trkpt lat="40.493767" lon="-5.266800">
        <ele>2106.0</ele>
        <time>2014-06-30T12:10:27Z</time>
      </trkpt>
      <trkpt lat="40.493817" lon="-5.266850">
        <ele>2106.0</ele>
        <time>2014-06-30T12:10:28Z</time>
      </trkpt>
      <trkpt lat="40.493850" lon="-5.266900">
        <ele>2107.0</ele>
        <time>2014-06-30T12:10:29Z</time>
      </trkpt>
      <trkpt lat="40.493900" lon="-5.266950">
        <ele>2107.0</ele>
        <time>2014-06-30T12:10:30Z</time>
      </trkpt>
      <trkpt lat="40.493933" lon="-5.267000">
        <ele>2107.0</ele>
        <time>2014-06-30T12:10:31Z</time>
      </trkpt>
      <trkpt lat="40.493967" lon="-5.267050">
        <ele>2108.0</ele>
        <time>2014-06-30T12:10:32Z</time>
      </trkpt>
      <trkpt lat="40.493983" lon="-5.267100">
        <ele>2108.0</ele>
        <time>2014-06-30T12:10:33Z</time>
      </trkpt>
      <trkpt lat="40.493983" lon="-5.267133">
        <ele>2108.0</ele>
        <time>2014-06-30T12:10:34Z</time>
      </trkpt>
      <trkpt lat="40.493967" lon="-5.267167">
        <ele>2108.0</ele>
        <time>2014-06-30T12:10:35Z</time>
      </trkpt>
      <trkpt lat="40.493917" lon="-5.267183">
        <ele>2108.0</ele>
        <time>2014-06-30T12:10:36Z</time>
      </trkpt>
      <trkpt lat="40.493867" lon="-5.267200">
        <ele>2108.0</ele>
        <time>2014-06-30T12:10:37Z</time>
      </trkpt>
      <trkpt lat="40.493800" lon="-5.267233">
        <ele>2105.0</ele>
        <time>2014-06-30T12:10:38Z</time>
      </trkpt>
      <trkpt lat="40.493733" lon="-5.267250">
        <ele>2105.0</ele>
        <time>2014-06-30T12:10:39Z</time>
      </trkpt>
      <trkpt lat="40.493683" lon="-5.267267">
        <ele>2104.0</ele>
        <time>2014-06-30T12:10:40Z</time>
      </trkpt>
      <trkpt lat="40.493600" lon="-5.267250">
        <ele>2103.0</ele>
        <time>2014-06-30T12:10:41Z</time>
      </trkpt>
      <trkpt lat="40.493517" lon="-5.267233">
        <ele>2102.0</ele>
        <time>2014-06-30T12:10:42Z</time>
      </trkpt>
      <trkpt lat="40.493417" lon="-5.267183">
        <ele>2102.0</ele>
        <time>2014-06-30T12:10:43Z</time>
      </trkpt>
      <trkpt lat="40.493333" lon="-5.267117">
        <ele>2102.0</ele>
        <time>2014-06-30T12:10:44Z</time>
      </trkpt>
      <trkpt lat="40.493233" lon="-5.267050">
        <ele>2102.0</ele>
        <time>2014-06-30T12:10:45Z</time>
      </trkpt>
      <trkpt lat="40.493150" lon="-5.266983">
        <ele>2102.0</ele>
        <time>2014-06-30T12:10:46Z</time>
      </trkpt>
      <trkpt lat="40.493067" lon="-5.266917">
        <ele>2101.0</ele>
        <time>2014-06-30T12:10:47Z</time>
      </trkpt>
      <trkpt lat="40.492983" lon="-5.266817">
        <ele>2101.0</ele>
        <time>2014-06-30T12:10:48Z</time>
      </trkpt>
      <trkpt lat="40.492917" lon="-5.266683">
        <ele>2103.0</ele>
        <time>2014-06-30T12:10:49Z</time>
      </trkpt>
      <trkpt lat="40.492850" lon="-5.266550">
        <ele>2104.0</ele>
        <time>2014-06-30T12:10:50Z</time>
      </trkpt>
      <trkpt lat="40.492817" lon="-5.266400">
        <ele>2104.0</ele>
        <time>2014-06-30T12:10:51Z</time>
      </trkpt>
      <trkpt lat="40.492783" lon="-5.266233">
        <ele>2105.0</ele>
        <time>2014-06-30T12:10:52Z</time>
      </trkpt>
      <trkpt lat="40.492767" lon="-5.266050">
        <ele>2105.0</ele>
        <time>2014-06-30T12:10:53Z</time>
      </trkpt>
      <trkpt lat="40.492767" lon="-5.265883">
        <ele>2106.0</ele>
        <time>2014-06-30T12:10:54Z</time>
      </trkpt>
      <trkpt lat="40.492767" lon="-5.265717">
        <ele>2106.0</ele>
        <time>2014-06-30T12:10:55Z</time>
      </trkpt>
      <trkpt lat="40.492783" lon="-5.265550">
        <ele>2107.0</ele>
        <time>2014-06-30T12:10:56Z</time>
      </trkpt>
      <trkpt lat="40.492817" lon="-5.265383">
        <ele>2107.0</ele>
        <time>2014-06-30T12:10:57Z</time>
      </trkpt>
      <trkpt lat="40.492833" lon="-5.265217">
        <ele>2108.0</ele>
        <time>2014-06-30T12:10:58Z</time>
      </trkpt>
      <trkpt lat="40.492850" lon="-5.265050">
        <ele>2109.0</ele>
        <time>2014-06-30T12:10:59Z</time>
      </trkpt>
      <trkpt lat="40.492883" lon="-5.264883">
        <ele>2110.0</ele>
        <time>2014-06-30T12:11:00Z</time>
      </trkpt>
      <trkpt lat="40.492933" lon="-5.264750">
        <ele>2112.0</ele>
        <time>2014-06-30T12:11:01Z</time>
      </trkpt>
      <trkpt lat="40.492967" lon="-5.264600">
        <ele>2113.0</ele>
        <time>2014-06-30T12:11:02Z</time>
      </trkpt>
      <trkpt lat="40.493033" lon="-5.264483">
        <ele>2114.0</ele>
        <time>2014-06-30T12:11:03Z</time>
      </trkpt>
      <trkpt lat="40.493100" lon="-5.264367">
        <ele>2115.0</ele>
        <time>2014-06-30T12:11:04Z</time>
      </trkpt>
      <trkpt lat="40.493183" lon="-5.264250">
        <ele>2115.0</ele>
        <time>2014-06-30T12:11:05Z</time>
      </trkpt>
      <trkpt lat="40.493267" lon="-5.264133">
        <ele>2118.0</ele>
        <time>2014-06-30T12:11:06Z</time>
      </trkpt>
      <trkpt lat="40.493333" lon="-5.264033">
        <ele>2120.0</ele>
        <time>2014-06-30T12:11:07Z</time>
      </trkpt>
      <trkpt lat="40.493400" lon="-5.263933">
        <ele>2122.0</ele>
        <time>2014-06-30T12:11:08Z</time>
      </trkpt>
      <trkpt lat="40.493467" lon="-5.263833">
        <ele>2123.0</ele>
        <time>2014-06-30T12:11:09Z</time>
      </trkpt>
      <trkpt lat="40.493517" lon="-5.263750">
        <ele>2122.0</ele>
        <time>2014-06-30T12:11:10Z</time>
      </trkpt>
      <trkpt lat="40.493600" lon="-5.263667">
        <ele>2121.0</ele>
        <time>2014-06-30T12:11:11Z</time>
      </trkpt>
      <trkpt lat="40.493683" lon="-5.263600">
        <ele>2121.0</ele>
        <time>2014-06-30T12:11:12Z</time>
      </trkpt>
      <trkpt lat="40.493767" lon="-5.263550">
        <ele>2121.0</ele>
        <time>2014-06-30T12:11:13Z</time>
      </trkpt>
      <trkpt lat="40.493850" lon="-5.263533">
        <ele>2121.0</ele>
        <time>2014-06-30T12:11:14Z</time>
      </trkpt>
      <trkpt lat="40.493933" lon="-5.263533">
        <ele>2121.0</ele>
        <time>2014-06-30T12:11:15Z</time>
      </trkpt>
      <trkpt lat="40.493983" lon="-5.263550">
        <ele>2121.0</ele>
        <time>2014-06-30T12:11:16Z</time>
      </trkpt>
      <trkpt lat="40.494033" lon="-5.263567">
        <ele>2122.0</ele>
        <time>2014-06-30T12:11:17Z</time>
      </trkpt>
      <trkpt lat="40.494067" lon="-5.263583">
        <ele>2122.0</ele>
        <time>2014-06-30T12:11:18Z</time>
      </trkpt>
      <trkpt lat="40.494100" lon="-5.263600">
        <ele>2122.0</ele>
        <time>2014-06-30T12:11:19Z</time>
      </trkpt>
      <trkpt lat="40.494133" lon="-5.263650">
        <ele>2122.0</ele>
        <time>2014-06-30T12:11:20Z</time>
      </trkpt>
      <trkpt lat="40.494150" lon="-5.263683">
        <ele>2122.0</ele>
        <time>2014-06-30T12:11:21Z</time>
      </trkpt>
      <trkpt lat="40.494150" lon="-5.263717">
        <ele>2122.0</ele>
        <time>2014-06-30T12:11:22Z</time>
      </trkpt>
      <trkpt lat="40.494150" lon="-5.263733">
        <ele>2122.0</ele>
        <time>2014-06-30T12:11:23Z</time>
      </trkpt>
      <trkpt lat="40.494133" lon="-5.263750">
        <ele>2122.0</ele>
        <time>2014-06-30T12:11:24Z</time>
      </trkpt>
      <trkpt lat="40.494100" lon="-5.263750">
        <ele>2122.0</ele>
        <time>2014-06-30T12:11:25Z</time>
      </trkpt>
      <trkpt lat="40.494067" lon="-5.263750">
        <ele>2122.0</ele>
        <time>2014-06-30T12:11:26Z</time>
      </trkpt>
      <trkpt lat="40.494017" lon="-5.263767">
        <ele>2122.0</ele>
        <time>2014-06-30T12:11:27Z</time>
      </trkpt>
      <trkpt lat="40.493967" lon="-5.263750">
        <ele>2122.0</ele>
        <time>2014-06-30T12:11:28Z</time>
      </trkpt>
      <trkpt lat="40.493900" lon="-5.263717">
        <ele>2123.0</ele>
        <time>2014-06-30T12:11:29Z</time>
      </trkpt>
      <trkpt lat="40.493833" lon="-5.263667">
        <ele>2123.0</ele>
        <time>2014-06-30T12:11:30Z</time>
      </trkpt>
      <trkpt lat="40.493767" lon="-5.263600">
        <ele>2122.0</ele>
        <time>2014-06-30T12:11:31Z</time>
      </trkpt>
      <trkpt lat="40.493700" lon="-5.263517">
        <ele>2122.0</ele>
        <time>2014-06-30T12:11:32Z</time>
      </trkpt>
      <trkpt lat="40.493617" lon="-5.263417">
        <ele>2122.0</ele>
        <time>2014-06-30T12:11:33Z</time>
      </trkpt>
      <trkpt lat="40.493550" lon="-5.263300">
        <ele>2122.0</ele>
        <time>2014-06-30T12:11:34Z</time>
      </trkpt>
      <trkpt lat="40.493500" lon="-5.263150">
        <ele>2122.0</ele>
        <time>2014-06-30T12:11:35Z</time>
      </trkpt>
      <trkpt lat="40.493433" lon="-5.262983">
        <ele>2122.0</ele>
        <time>2014-06-30T12:11:36Z</time>
      </trkpt>
      <trkpt lat="40.493383" lon="-5.262833">
        <ele>2122.0</ele>
        <time>2014-06-30T12:11:37Z</time>
      </trkpt>
      <trkpt lat="40.493317" lon="-5.262683">
        <ele>2122.0</ele>
        <time>2014-06-30T12:11:38Z</time>
      </trkpt>
      <trkpt lat="40.493267" lon="-5.262517">
        <ele>2122.0</ele>
        <time>2014-06-30T12:11:39Z</time>
      </trkpt>
      <trkpt lat="40.493217" lon="-5.262350">
        <ele>2123.0</ele>
        <time>2014-06-30T12:11:40Z</time>
      </trkpt>
      <trkpt lat="40.493183" lon="-5.262183">
        <ele>2124.0</ele>
        <time>2014-06-30T12:11:41Z</time>
      </trkpt>
      <trkpt lat="40.493150" lon="-5.262017">
        <ele>2125.0</ele>
        <time>2014-06-30T12:11:42Z</time>
      </trkpt>
      <trkpt lat="40.493133" lon="-5.261850">
        <ele>2126.0</ele>
        <time>2014-06-30T12:11:43Z</time>
      </trkpt>
      <trkpt lat="40.493117" lon="-5.261700">
        <ele>2127.0</ele>
        <time>2014-06-30T12:11:44Z</time>
      </trkpt>
      <trkpt lat="40.493100" lon="-5.261550">
        <ele>2128.0</ele>
        <time>2014-06-30T12:11:45Z</time>
      </trkpt>
      <trkpt lat="40.493100" lon="-5.261400">
        <ele>2130.0</ele>
        <time>2014-06-30T12:11:46Z</time>
      </trkpt>
      <trkpt lat="40.493100" lon="-5.261233">
        <ele>2130.0</ele>
        <time>2014-06-30T12:11:47Z</time>
      </trkpt>
      <trkpt lat="40.493100" lon="-5.261067">
        <ele>2131.0</ele>
        <time>2014-06-30T12:11:48Z</time>
      </trkpt>
      <trkpt lat="40.493100" lon="-5.260900">
        <ele>2132.0</ele>
        <time>2014-06-30T12:11:49Z</time>
      </trkpt>
      <trkpt lat="40.493117" lon="-5.260733">
        <ele>2134.0</ele>
        <time>2014-06-30T12:11:50Z</time>
      </trkpt>
      <trkpt lat="40.493133" lon="-5.260550">
        <ele>2136.0</ele>
        <time>2014-06-30T12:11:51Z</time>
      </trkpt>
      <trkpt lat="40.493167" lon="-5.260400">
        <ele>2138.0</ele>
        <time>2014-06-30T12:11:52Z</time>
      </trkpt>
      <trkpt lat="40.493183" lon="-5.260250">
        <ele>2140.0</ele>
        <time>2014-06-30T12:11:53Z</time>
      </trkpt>
      <trkpt lat="40.493217" lon="-5.260083">
        <ele>2141.0</ele>
        <time>2014-06-30T12:11:54Z</time>
      </trkpt>
      <trkpt lat="40.493233" lon="-5.259900">
        <ele>2142.0</ele>
        <time>2014-06-30T12:11:55Z</time>
      </trkpt>
      <trkpt lat="40.493283" lon="-5.259733">
        <ele>2142.0</ele>
        <time>2014-06-30T12:11:56Z</time>
      </trkpt>
      <trkpt lat="40.493333" lon="-5.259567">
        <ele>2143.0</ele>
        <time>2014-06-30T12:11:57Z</time>
      </trkpt>
      <trkpt lat="40.493400" lon="-5.259433">
        <ele>2145.0</ele>
        <time>2014-06-30T12:11:58Z</time>
      </trkpt>
      <trkpt lat="40.493450" lon="-5.259300">
        <ele>2147.0</ele>
        <time>2014-06-30T12:11:59Z</time>
      </trkpt>
      <trkpt lat="40.493517" lon="-5.259167">
        <ele>2149.0</ele>
        <time>2014-06-30T12:12:00Z</time>
      </trkpt>
      <trkpt lat="40.493550" lon="-5.259017">
        <ele>2152.0</ele>
        <time>2014-06-30T12:12:01Z</time>
      </trkpt>
      <trkpt lat="40.493600" lon="-5.258900">
        <ele>2155.0</ele>
        <time>2014-06-30T12:12:02Z</time>
      </trkpt>
      <trkpt lat="40.493650" lon="-5.258783">
        <ele>2158.0</ele>
        <time>2014-06-30T12:12:03Z</time>
      </trkpt>
      <trkpt lat="40.493700" lon="-5.258683">
        <ele>2160.0</ele>
        <time>2014-06-30T12:12:04Z</time>
      </trkpt>
      <trkpt lat="40.493750" lon="-5.258583">
        <ele>2160.0</ele>
        <time>2014-06-30T12:12:05Z</time>
      </trkpt>
      <trkpt lat="40.493817" lon="-5.258517">
        <ele>2160.0</ele>
        <time>2014-06-30T12:12:06Z</time>
      </trkpt>
      <trkpt lat="40.493900" lon="-5.258483">
        <ele>2161.0</ele>
        <time>2014-06-30T12:12:07Z</time>
      </trkpt>
      <trkpt lat="40.493967" lon="-5.258517">
        <ele>2161.0</ele>
        <time>2014-06-30T12:12:08Z</time>
      </trkpt>
      <trkpt lat="40.493983" lon="-5.258583">
        <ele>2161.0</ele>
        <time>2014-06-30T12:12:09Z</time>
      </trkpt>
      <trkpt lat="40.493967" lon="-5.258633">
        <ele>2162.0</ele>
        <time>2014-06-30T12:12:10Z</time>
      </trkpt>
      <trkpt lat="40.493917" lon="-5.258683">
        <ele>2163.0</ele>
        <time>2014-06-30T12:12:11Z</time>
      </trkpt>
      <trkpt lat="40.493850" lon="-5.258700">
        <ele>2165.0</ele>
        <time>2014-06-30T12:12:12Z</time>
      </trkpt>
      <trkpt lat="40.493783" lon="-5.258700">
        <ele>2167.0</ele>
        <time>2014-06-30T12:12:13Z</time>
      </trkpt>
      <trkpt lat="40.493700" lon="-5.258683">
        <ele>2170.0</ele>
        <time>2014-06-30T12:12:14Z</time>
      </trkpt>
      <trkpt lat="40.493633" lon="-5.258650">
        <ele>2174.0</ele>
        <time>2014-06-30T12:12:15Z</time>
      </trkpt>
      <trkpt lat="40.493550" lon="-5.258583">
        <ele>2177.0</ele>
        <time>2014-06-30T12:12:16Z</time>
      </trkpt>
      <trkpt lat="40.493483" lon="-5.258500">
        <ele>2179.0</ele>
        <time>2014-06-30T12:12:17Z</time>
      </trkpt>
      <trkpt lat="40.493400" lon="-5.258383">
        <ele>2180.0</ele>
        <time>2014-06-30T12:12:18Z</time>
      </trkpt>
      <trkpt lat="40.493333" lon="-5.258233">
        <ele>2181.0</ele>
        <time>2014-06-30T12:12:19Z</time>
      </trkpt>
      <trkpt lat="40.493300" lon="-5.258067">
        <ele>2182.0</ele>
        <time>2014-06-30T12:12:20Z</time>
      </trkpt>
      <trkpt lat="40.493300" lon="-5.257867">
        <ele>2183.0</ele>
        <time>2014-06-30T12:12:21Z</time>
      </trkpt>
      <trkpt lat="40.493350" lon="-5.257717">
        <ele>2185.0</ele>
        <time>2014-06-30T12:12:22Z</time>
      </trkpt>
      <trkpt lat="40.493417" lon="-5.257600">
        <ele>2187.0</ele>
        <time>2014-06-30T12:12:23Z</time>
      </trkpt>
      <trkpt lat="40.493483" lon="-5.257533">
        <ele>2190.0</ele>
        <time>2014-06-30T12:12:24Z</time>
      </trkpt>
      <trkpt lat="40.493567" lon="-5.257483">
        <ele>2192.0</ele>
        <time>2014-06-30T12:12:25Z</time>
      </trkpt>
      <trkpt lat="40.493617" lon="-5.257433">
        <ele>2193.0</ele>
        <time>2014-06-30T12:12:26Z</time>
      </trkpt>
      <trkpt lat="40.493683" lon="-5.257417">
        <ele>2194.0</ele>
        <time>2014-06-30T12:12:27Z</time>
      </trkpt>
      <trkpt lat="40.493717" lon="-5.257433">
        <ele>2194.0</ele>
        <time>2014-06-30T12:12:28Z</time>
      </trkpt>
      <trkpt lat="40.493750" lon="-5.257467">
        <ele>2194.0</ele>
        <time>2014-06-30T12:12:29Z</time>
      </trkpt>
      <trkpt lat="40.493750" lon="-5.257550">
        <ele>2195.0</ele>
        <time>2014-06-30T12:12:30Z</time>
      </trkpt>
      <trkpt lat="40.493717" lon="-5.257617">
        <ele>2195.0</ele>
        <time>2014-06-30T12:12:31Z</time>
      </trkpt>
      <trkpt lat="40.493700" lon="-5.257683">
        <ele>2197.0</ele>
        <time>2014-06-30T12:12:32Z</time>
      </trkpt>
      <trkpt lat="40.493683" lon="-5.257717">
        <ele>2199.0</ele>
        <time>2014-06-30T12:12:33Z</time>
      </trkpt>
      <trkpt lat="40.493667" lon="-5.257750">
        <ele>2201.0</ele>
        <time>2014-06-30T12:12:34Z</time>
      </trkpt>
      <trkpt lat="40.493650" lon="-5.257750">
        <ele>2203.0</ele>
        <time>2014-06-30T12:12:35Z</time>
      </trkpt>
      <trkpt lat="40.493617" lon="-5.257750">
        <ele>2205.0</ele>
        <time>2014-06-30T12:12:36Z</time>
      </trkpt>
      <trkpt lat="40.493567" lon="-5.257733">
        <ele>2205.0</ele>
        <time>2014-06-30T12:12:37Z</time>
      </trkpt>
      <trkpt lat="40.493483" lon="-5.257700">
        <ele>2205.0</ele>
        <time>2014-06-30T12:12:38Z</time>
      </trkpt>
      <trkpt lat="40.493383" lon="-5.257617">
        <ele>2205.0</ele>
        <time>2014-06-30T12:12:39Z</time>
      </trkpt>
      <trkpt lat="40.493283" lon="-5.257500">
        <ele>2205.0</ele>
        <time>2014-06-30T12:12:40Z</time>
      </trkpt>
      <trkpt lat="40.493233" lon="-5.257333">
        <ele>2205.0</ele>
        <time>2014-06-30T12:12:41Z</time>
      </trkpt>
      <trkpt lat="40.493233" lon="-5.257150">
        <ele>2206.0</ele>
        <time>2014-06-30T12:12:42Z</time>
      </trkpt>
      <trkpt lat="40.493250" lon="-5.256983">
        <ele>2205.0</ele>
        <time>2014-06-30T12:12:43Z</time>
      </trkpt>
      <trkpt lat="40.493283" lon="-5.256833">
        <ele>2205.0</ele>
        <time>2014-06-30T12:12:44Z</time>
      </trkpt>
      <trkpt lat="40.493333" lon="-5.256683">
        <ele>2203.0</ele>
        <time>2014-06-30T12:12:45Z</time>
      </trkpt>
      <trkpt lat="40.493417" lon="-5.256550">
        <ele>2200.0</ele>
        <time>2014-06-30T12:12:46Z</time>
      </trkpt>
      <trkpt lat="40.493517" lon="-5.256433">
        <ele>2200.0</ele>
        <time>2014-06-30T12:12:47Z</time>
      </trkpt>
      <trkpt lat="40.493600" lon="-5.256300">
        <ele>2201.0</ele>
        <time>2014-06-30T12:12:48Z</time>
      </trkpt>
      <trkpt lat="40.493683" lon="-5.256200">
        <ele>2204.0</ele>
        <time>2014-06-30T12:12:49Z</time>
      </trkpt>
      <trkpt lat="40.493750" lon="-5.256117">
        <ele>2205.0</ele>
        <time>2014-06-30T12:12:50Z</time>
      </trkpt>
      <trkpt lat="40.493833" lon="-5.256067">
        <ele>2206.0</ele>
        <time>2014-06-30T12:12:51Z</time>
      </trkpt>
      <trkpt lat="40.493883" lon="-5.256033">
        <ele>2205.0</ele>
        <time>2014-06-30T12:12:52Z</time>
      </trkpt>
      <trkpt lat="40.493967" lon="-5.255983">
        <ele>2205.0</ele>
        <time>2014-06-30T12:12:53Z</time>
      </trkpt>
      <trkpt lat="40.494050" lon="-5.255950">
        <ele>2205.0</ele>
        <time>2014-06-30T12:12:54Z</time>
      </trkpt>
      <trkpt lat="40.494133" lon="-5.255900">
        <ele>2205.0</ele>
        <time>2014-06-30T12:12:55Z</time>
      </trkpt>
      <trkpt lat="40.494233" lon="-5.255867">
        <ele>2204.0</ele>
        <time>2014-06-30T12:12:56Z</time>
      </trkpt>
      <trkpt lat="40.494350" lon="-5.255817">
        <ele>2203.0</ele>
        <time>2014-06-30T12:12:57Z</time>
      </trkpt>
      <trkpt lat="40.494450" lon="-5.255783">
        <ele>2204.0</ele>
        <time>2014-06-30T12:12:58Z</time>
      </trkpt>
      <trkpt lat="40.494550" lon="-5.255733">
        <ele>2209.0</ele>
        <time>2014-06-30T12:12:59Z</time>
      </trkpt>
      <trkpt lat="40.494633" lon="-5.255700">
        <ele>2212.0</ele>
        <time>2014-06-30T12:13:00Z</time>
      </trkpt>
      <trkpt lat="40.494700" lon="-5.255650">
        <ele>2215.0</ele>
        <time>2014-06-30T12:13:01Z</time>
      </trkpt>
      <trkpt lat="40.494767" lon="-5.255633">
        <ele>2213.0</ele>
        <time>2014-06-30T12:13:02Z</time>
      </trkpt>
      <trkpt lat="40.494833" lon="-5.255600">
        <ele>2215.0</ele>
        <time>2014-06-30T12:13:03Z</time>
      </trkpt>
      <trkpt lat="40.494900" lon="-5.255600">
        <ele>2216.0</ele>
        <time>2014-06-30T12:13:04Z</time>
      </trkpt>
      <trkpt lat="40.494950" lon="-5.255633">
        <ele>2218.0</ele>
        <time>2014-06-30T12:13:05Z</time>
      </trkpt>
      <trkpt lat="40.495017" lon="-5.255650">
        <ele>2221.0</ele>
        <time>2014-06-30T12:13:06Z</time>
      </trkpt>
      <trkpt lat="40.495067" lon="-5.255667">
        <ele>2223.0</ele>
        <time>2014-06-30T12:13:07Z</time>
      </trkpt>
      <trkpt lat="40.495117" lon="-5.255683">
        <ele>2225.0</ele>
        <time>2014-06-30T12:13:08Z</time>
      </trkpt>
      <trkpt lat="40.495167" lon="-5.255717">
        <ele>2227.0</ele>
        <time>2014-06-30T12:13:09Z</time>
      </trkpt>
      <trkpt lat="40.495217" lon="-5.255733">
        <ele>2228.0</ele>
        <time>2014-06-30T12:13:10Z</time>
      </trkpt>
      <trkpt lat="40.495267" lon="-5.255783">
        <ele>2230.0</ele>
        <time>2014-06-30T12:13:11Z</time>
      </trkpt>
      <trkpt lat="40.495300" lon="-5.255833">
        <ele>2229.0</ele>
        <time>2014-06-30T12:13:12Z</time>
      </trkpt>
      <trkpt lat="40.495317" lon="-5.255883">
        <ele>2229.0</ele>
        <time>2014-06-30T12:13:13Z</time>
      </trkpt>
      <trkpt lat="40.495300" lon="-5.255917">
        <ele>2230.0</ele>
        <time>2014-06-30T12:13:14Z</time>
      </trkpt>
      <trkpt lat="40.495250" lon="-5.255917">
        <ele>2231.0</ele>
        <time>2014-06-30T12:13:15Z</time>
      </trkpt>
      <trkpt lat="40.495183" lon="-5.255917">
        <ele>2232.0</ele>
        <time>2014-06-30T12:13:16Z</time>
      </trkpt>
      <trkpt lat="40.495150" lon="-5.255917">
        <ele>2232.0</ele>
        <time>2014-06-30T12:13:17Z</time>
      </trkpt>
      <trkpt lat="40.495117" lon="-5.255933">
        <ele>2233.0</ele>
        <time>2014-06-30T12:13:18Z</time>
      </trkpt>
      <trkpt lat="40.495100" lon="-5.255967">
        <ele>2234.0</ele>
        <time>2014-06-30T12:13:19Z</time>
      </trkpt>
      <trkpt lat="40.495050" lon="-5.255967">
        <ele>2235.0</ele>
        <time>2014-06-30T12:13:20Z</time>
      </trkpt>
      <trkpt lat="40.495000" lon="-5.255967">
        <ele>2236.0</ele>
        <time>2014-06-30T12:13:21Z</time>
      </trkpt>
      <trkpt lat="40.494950" lon="-5.255933">
        <ele>2236.0</ele>
        <time>2014-06-30T12:13:22Z</time>
      </trkpt>
      <trkpt lat="40.494883" lon="-5.255900">
        <ele>2237.0</ele>
        <time>2014-06-30T12:13:23Z</time>
      </trkpt>
      <trkpt lat="40.494817" lon="-5.255867">
        <ele>2237.0</ele>
        <time>2014-06-30T12:13:24Z</time>
      </trkpt>
      <trkpt lat="40.494750" lon="-5.255817">
        <ele>2236.0</ele>
        <time>2014-06-30T12:13:25Z</time>
      </trkpt>
      <trkpt lat="40.494700" lon="-5.255733">
        <ele>2236.0</ele>
        <time>2014-06-30T12:13:26Z</time>
      </trkpt>
      <trkpt lat="40.494633" lon="-5.255633">
        <ele>2236.0</ele>
        <time>2014-06-30T12:13:27Z</time>
      </trkpt>
      <trkpt lat="40.494583" lon="-5.255483">
        <ele>2236.0</ele>
        <time>2014-06-30T12:13:28Z</time>
      </trkpt>
      <trkpt lat="40.494533" lon="-5.255317">
        <ele>2237.0</ele>
        <time>2014-06-30T12:13:29Z</time>
      </trkpt>
      <trkpt lat="40.494483" lon="-5.255167">
        <ele>2240.0</ele>
        <time>2014-06-30T12:13:30Z</time>
      </trkpt>
      <trkpt lat="40.494450" lon="-5.255017">
        <ele>2242.0</ele>
        <time>2014-06-30T12:13:31Z</time>
      </trkpt>
      <trkpt lat="40.494433" lon="-5.254867">
        <ele>2244.0</ele>
        <time>2014-06-30T12:13:32Z</time>
      </trkpt>
      <trkpt lat="40.494467" lon="-5.254733">
        <ele>2245.0</ele>
        <time>2014-06-30T12:13:33Z</time>
      </trkpt>
      <trkpt lat="40.494517" lon="-5.254600">
        <ele>2248.0</ele>
        <time>2014-06-30T12:13:34Z</time>
      </trkpt>
      <trkpt lat="40.494567" lon="-5.254500">
        <ele>2250.0</ele>
        <time>2014-06-30T12:13:35Z</time>
      </trkpt>
      <trkpt lat="40.494617" lon="-5.254400">
        <ele>2252.0</ele>
        <time>2014-06-30T12:13:36Z</time>
      </trkpt>
      <trkpt lat="40.494667" lon="-5.254317">
        <ele>2251.0</ele>
        <time>2014-06-30T12:13:37Z</time>
      </trkpt>
      <trkpt lat="40.494717" lon="-5.254233">
        <ele>2253.0</ele>
        <time>2014-06-30T12:13:38Z</time>
      </trkpt>
      <trkpt lat="40.494800" lon="-5.254167">
        <ele>2254.0</ele>
        <time>2014-06-30T12:13:39Z</time>
      </trkpt>
      <trkpt lat="40.494867" lon="-5.254100">
        <ele>2256.0</ele>
        <time>2014-06-30T12:13:40Z</time>
      </trkpt>
      <trkpt lat="40.494933" lon="-5.254067">
        <ele>2258.0</ele>
        <time>2014-06-30T12:13:41Z</time>
      </trkpt>
      <trkpt lat="40.494983" lon="-5.254017">
        <ele>2261.0</ele>
        <time>2014-06-30T12:13:42Z</time>
      </trkpt>
      <trkpt lat="40.495050" lon="-5.253967">
        <ele>2263.0</ele>
        <time>2014-06-30T12:13:43Z</time>
      </trkpt>
      <trkpt lat="40.495117" lon="-5.253933">
        <ele>2264.0</ele>
        <time>2014-06-30T12:13:44Z</time>
      </trkpt>
      <trkpt lat="40.495183" lon="-5.253917">
        <ele>2265.0</ele>
        <time>2014-06-30T12:13:45Z</time>
      </trkpt>
      <trkpt lat="40.495250" lon="-5.253933">
        <ele>2266.0</ele>
        <time>2014-06-30T12:13:46Z</time>
      </trkpt>
      <trkpt lat="40.495283" lon="-5.253983">
        <ele>2267.0</ele>
        <time>2014-06-30T12:13:47Z</time>
      </trkpt>
      <trkpt lat="40.495300" lon="-5.254050">
        <ele>2267.0</ele>
        <time>2014-06-30T12:13:48Z</time>
      </trkpt>
      <trkpt lat="40.495267" lon="-5.254100">
        <ele>2268.0</ele>
        <time>2014-06-30T12:13:49Z</time>
      </trkpt>
      <trkpt lat="40.495200" lon="-5.254117">
        <ele>2269.0</ele>
        <time>2014-06-30T12:13:50Z</time>
      </trkpt>
      <trkpt lat="40.495133" lon="-5.254083">
        <ele>2269.0</ele>
        <time>2014-06-30T12:13:51Z</time>
      </trkpt>
      <trkpt lat="40.495067" lon="-5.254017">
        <ele>2270.0</ele>
        <time>2014-06-30T12:13:52Z</time>
      </trkpt>
      <trkpt lat="40.495000" lon="-5.253917">
        <ele>2272.0</ele>
        <time>2014-06-30T12:13:53Z</time>
      </trkpt>
      <trkpt lat="40.494933" lon="-5.253833">
        <ele>2273.0</ele>
        <time>2014-06-30T12:13:54Z</time>
      </trkpt>
      <trkpt lat="40.494900" lon="-5.253717">
        <ele>2274.0</ele>
        <time>2014-06-30T12:13:55Z</time>
      </trkpt>
      <trkpt lat="40.494867" lon="-5.253600">
        <ele>2275.0</ele>
        <time>2014-06-30T12:13:56Z</time>
      </trkpt>
      <trkpt lat="40.494850" lon="-5.253467">
        <ele>2275.0</ele>
        <time>2014-06-30T12:13:57Z</time>
      </trkpt>
      <trkpt lat="40.494817" lon="-5.253350">
        <ele>2276.0</ele>
        <time>2014-06-30T12:13:58Z</time>
      </trkpt>
      <trkpt lat="40.494783" lon="-5.253233">
        <ele>2278.0</ele>
        <time>2014-06-30T12:13:59Z</time>
      </trkpt>
      <trkpt lat="40.494783" lon="-5.253117">
        <ele>2280.0</ele>
        <time>2014-06-30T12:14:00Z</time>
      </trkpt>
      <trkpt lat="40.494783" lon="-5.253000">
        <ele>2282.0</ele>
        <time>2014-06-30T12:14:01Z</time>
      </trkpt>
      <trkpt lat="40.494800" lon="-5.252883">
        <ele>2283.0</ele>
        <time>2014-06-30T12:14:02Z</time>
      </trkpt>
      <trkpt lat="40.494817" lon="-5.252767">
        <ele>2285.0</ele>
        <time>2014-06-30T12:14:03Z</time>
      </trkpt>
      <trkpt lat="40.494850" lon="-5.252650">
        <ele>2287.0</ele>
        <time>2014-06-30T12:14:04Z</time>
      </trkpt>
      <trkpt lat="40.494900" lon="-5.252567">
        <ele>2289.0</ele>
        <time>2014-06-30T12:14:05Z</time>
      </trkpt>
      <trkpt lat="40.494950" lon="-5.252467">
        <ele>2291.0</ele>
        <time>2014-06-30T12:14:06Z</time>
      </trkpt>
      <trkpt lat="40.495017" lon="-5.252400">
        <ele>2293.0</ele>
        <time>2014-06-30T12:14:07Z</time>
      </trkpt>
      <trkpt lat="40.495083" lon="-5.252333">
        <ele>2296.0</ele>
        <time>2014-06-30T12:14:08Z</time>
      </trkpt>
      <trkpt lat="40.495150" lon="-5.252283">
        <ele>2298.0</ele>
        <time>2014-06-30T12:14:09Z</time>
      </trkpt>
      <trkpt lat="40.495200" lon="-5.252233">
        <ele>2300.0</ele>
        <time>2014-06-30T12:14:10Z</time>
      </trkpt>
      <trkpt lat="40.495267" lon="-5.252200">
        <ele>2302.0</ele>
        <time>2014-06-30T12:14:11Z</time>
      </trkpt>
      <trkpt lat="40.495333" lon="-5.252167">
        <ele>2303.0</ele>
        <time>2014-06-30T12:14:12Z</time>
      </trkpt>
      <trkpt lat="40.495417" lon="-5.252150">
        <ele>2305.0</ele>
        <time>2014-06-30T12:14:13Z</time>
      </trkpt>
      <trkpt lat="40.495483" lon="-5.252133">
        <ele>2304.0</ele>
        <time>2014-06-30T12:14:14Z</time>
      </trkpt>
      <trkpt lat="40.495550" lon="-5.252150">
        <ele>2305.0</ele>
        <time>2014-06-30T12:14:15Z</time>
      </trkpt>
      <trkpt lat="40.495600" lon="-5.252183">
        <ele>2306.0</ele>
        <time>2014-06-30T12:14:16Z</time>
      </trkpt>
      <trkpt lat="40.495617" lon="-5.252250">
        <ele>2307.0</ele>
        <time>2014-06-30T12:14:17Z</time>
      </trkpt>
      <trkpt lat="40.495617" lon="-5.252300">
        <ele>2306.0</ele>
        <time>2014-06-30T12:14:18Z</time>
      </trkpt>
      <trkpt lat="40.495600" lon="-5.252317">
        <ele>2307.0</ele>
        <time>2014-06-30T12:14:19Z</time>
      </trkpt>
      <trkpt lat="40.495550" lon="-5.252333">
        <ele>2307.0</ele>
        <time>2014-06-30T12:14:20Z</time>
      </trkpt>
      <trkpt lat="40.495500" lon="-5.252317">
        <ele>2307.0</ele>
        <time>2014-06-30T12:14:21Z</time>
      </trkpt>
      <trkpt lat="40.495433" lon="-5.252300">
        <ele>2308.0</ele>
        <time>2014-06-30T12:14:22Z</time>
      </trkpt>
      <trkpt lat="40.495350" lon="-5.252233">
        <ele>2308.0</ele>
        <time>2014-06-30T12:14:23Z</time>
      </trkpt>
      <trkpt lat="40.495283" lon="-5.252117">
        <ele>2309.0</ele>
        <time>2014-06-30T12:14:24Z</time>
      </trkpt>
      <trkpt lat="40.495217" lon="-5.251983">
        <ele>2310.0</ele>
        <time>2014-06-30T12:14:25Z</time>
      </trkpt>
      <trkpt lat="40.495167" lon="-5.251850">
        <ele>2312.0</ele>
        <time>2014-06-30T12:14:26Z</time>
      </trkpt>
      <trkpt lat="40.495133" lon="-5.251733">
        <ele>2314.0</ele>
        <time>2014-06-30T12:14:27Z</time>
      </trkpt>
      <trkpt lat="40.495117" lon="-5.251617">
        <ele>2316.0</ele>
        <time>2014-06-30T12:14:28Z</time>
      </trkpt>
      <trkpt lat="40.495100" lon="-5.251500">
        <ele>2315.0</ele>
        <time>2014-06-30T12:14:29Z</time>
      </trkpt>
      <trkpt lat="40.495100" lon="-5.251383">
        <ele>2316.0</ele>
        <time>2014-06-30T12:14:30Z</time>
      </trkpt>
      <trkpt lat="40.495100" lon="-5.251267">
        <ele>2317.0</ele>
        <time>2014-06-30T12:14:31Z</time>
      </trkpt>
      <trkpt lat="40.495117" lon="-5.251150">
        <ele>2319.0</ele>
        <time>2014-06-30T12:14:32Z</time>
      </trkpt>
      <trkpt lat="40.495150" lon="-5.251033">
        <ele>2320.0</ele>
        <time>2014-06-30T12:14:33Z</time>
      </trkpt>
      <trkpt lat="40.495217" lon="-5.250950">
        <ele>2321.0</ele>
        <time>2014-06-30T12:14:34Z</time>
      </trkpt>
      <trkpt lat="40.495283" lon="-5.250850">
        <ele>2322.0</ele>
        <time>2014-06-30T12:14:35Z</time>
      </trkpt>
      <trkpt lat="40.495350" lon="-5.250767">
        <ele>2323.0</ele>
        <time>2014-06-30T12:14:36Z</time>
      </trkpt>
      <trkpt lat="40.495433" lon="-5.250717">
        <ele>2325.0</ele>
        <time>2014-06-30T12:14:37Z</time>
      </trkpt>
      <trkpt lat="40.495500" lon="-5.250683">
        <ele>2326.0</ele>
        <time>2014-06-30T12:14:38Z</time>
      </trkpt>
      <trkpt lat="40.495567" lon="-5.250683">
        <ele>2327.0</ele>
        <time>2014-06-30T12:14:39Z</time>
      </trkpt>
      <trkpt lat="40.495633" lon="-5.250717">
        <ele>2328.0</ele>
        <time>2014-06-30T12:14:40Z</time>
      </trkpt>
      <trkpt lat="40.495700" lon="-5.250767">
        <ele>2330.0</ele>
        <time>2014-06-30T12:14:41Z</time>
      </trkpt>
      <trkpt lat="40.495733" lon="-5.250800">
        <ele>2332.0</ele>
        <time>2014-06-30T12:14:42Z</time>
      </trkpt>
      <trkpt lat="40.495783" lon="-5.250833">
        <ele>2334.0</ele>
        <time>2014-06-30T12:14:43Z</time>
      </trkpt>
      <trkpt lat="40.495833" lon="-5.250850">
        <ele>2335.0</ele>
        <time>2014-06-30T12:14:44Z</time>
      </trkpt>
      <trkpt lat="40.495867" lon="-5.250867">
        <ele>2337.0</ele>
        <time>2014-06-30T12:14:45Z</time>
      </trkpt>
      <trkpt lat="40.495900" lon="-5.250883">
        <ele>2338.0</ele>
        <time>2014-06-30T12:14:46Z</time>
      </trkpt>
      <trkpt lat="40.495900" lon="-5.250933">
        <ele>2337.0</ele>
        <time>2014-06-30T12:14:47Z</time>
      </trkpt>
      <trkpt lat="40.495883" lon="-5.250983">
        <ele>2337.0</ele>
        <time>2014-06-30T12:14:48Z</time>
      </trkpt>
      <trkpt lat="40.495833" lon="-5.251033">
        <ele>2337.0</ele>
        <time>2014-06-30T12:14:49Z</time>
      </trkpt>
      <trkpt lat="40.495783" lon="-5.251050">
        <ele>2338.0</ele>
        <time>2014-06-30T12:14:50Z</time>
      </trkpt>
      <trkpt lat="40.495717" lon="-5.251067">
        <ele>2337.0</ele>
        <time>2014-06-30T12:14:51Z</time>
      </trkpt>
      <trkpt lat="40.495650" lon="-5.251083">
        <ele>2337.0</ele>
        <time>2014-06-30T12:14:52Z</time>
      </trkpt>
      <trkpt lat="40.495583" lon="-5.251083">
        <ele>2337.0</ele>
        <time>2014-06-30T12:14:53Z</time>
      </trkpt>
      <trkpt lat="40.495517" lon="-5.251067">
        <ele>2337.0</ele>
        <time>2014-06-30T12:14:54Z</time>
      </trkpt>
      <trkpt lat="40.495450" lon="-5.251017">
        <ele>2338.0</ele>
        <time>2014-06-30T12:14:55Z</time>
      </trkpt>
      <trkpt lat="40.495383" lon="-5.250917">
        <ele>2339.0</ele>
        <time>2014-06-30T12:14:56Z</time>
      </trkpt>
      <trkpt lat="40.495317" lon="-5.250817">
        <ele>2340.0</ele>
        <time>2014-06-30T12:14:57Z</time>
      </trkpt>
      <trkpt lat="40.495267" lon="-5.250733">
        <ele>2341.0</ele>
        <time>2014-06-30T12:14:58Z</time>
      </trkpt>
      <trkpt lat="40.495217" lon="-5.250633">
        <ele>2342.0</ele>
        <time>2014-06-30T12:14:59Z</time>
      </trkpt>
      <trkpt lat="40.495150" lon="-5.250517">
        <ele>2342.0</ele>
        <time>2014-06-30T12:15:00Z</time>
      </trkpt>
      <trkpt lat="40.495117" lon="-5.250383">
        <ele>2343.0</ele>
        <time>2014-06-30T12:15:01Z</time>
      </trkpt>
      <trkpt lat="40.495083" lon="-5.250233">
        <ele>2344.0</ele>
        <time>2014-06-30T12:15:02Z</time>
      </trkpt>
      <trkpt lat="40.495083" lon="-5.250100">
        <ele>2345.0</ele>
        <time>2014-06-30T12:15:03Z</time>
      </trkpt>
      <trkpt lat="40.495083" lon="-5.249967">
        <ele>2347.0</ele>
        <time>2014-06-30T12:15:04Z</time>
      </trkpt>
      <trkpt lat="40.495083" lon="-5.249850">
        <ele>2348.0</ele>
        <time>2014-06-30T12:15:05Z</time>
      </trkpt>
      <trkpt lat="40.495083" lon="-5.249733">
        <ele>2349.0</ele>
        <time>2014-06-30T12:15:06Z</time>
      </trkpt>
      <trkpt lat="40.495100" lon="-5.249600">
        <ele>2349.0</ele>
        <time>2014-06-30T12:15:07Z</time>
      </trkpt>
      <trkpt lat="40.495150" lon="-5.249467">
        <ele>2348.0</ele>
        <time>2014-06-30T12:15:08Z</time>
      </trkpt>
      <trkpt lat="40.495217" lon="-5.249367">
        <ele>2349.0</ele>
        <time>2014-06-30T12:15:09Z</time>
      </trkpt>
      <trkpt lat="40.495300" lon="-5.249267">
        <ele>2350.0</ele>
        <time>2014-06-30T12:15:10Z</time>
      </trkpt>
      <trkpt lat="40.495350" lon="-5.249200">
        <ele>2351.0</ele>
        <time>2014-06-30T12:15:11Z</time>
      </trkpt>
      <trkpt lat="40.495417" lon="-5.249117">
        <ele>2351.0</ele>
        <time>2014-06-30T12:15:12Z</time>
      </trkpt>
      <trkpt lat="40.495483" lon="-5.249067">
        <ele>2351.0</ele>
        <time>2014-06-30T12:15:13Z</time>
      </trkpt>
      <trkpt lat="40.495550" lon="-5.249017">
        <ele>2351.0</ele>
        <time>2014-06-30T12:15:14Z</time>
      </trkpt>
      <trkpt lat="40.495633" lon="-5.248983">
        <ele>2350.0</ele>
        <time>2014-06-30T12:15:15Z</time>
      </trkpt>
      <trkpt lat="40.495733" lon="-5.248967">
        <ele>2350.0</ele>
        <time>2014-06-30T12:15:16Z</time>
      </trkpt>
      <trkpt lat="40.495833" lon="-5.248967">
        <ele>2350.0</ele>
        <time>2014-06-30T12:15:17Z</time>
      </trkpt>
      <trkpt lat="40.495933" lon="-5.248967">
        <ele>2351.0</ele>
        <time>2014-06-30T12:15:18Z</time>
      </trkpt>
      <trkpt lat="40.496033" lon="-5.248950">
        <ele>2352.0</ele>
        <time>2014-06-30T12:15:19Z</time>
      </trkpt>
      <trkpt lat="40.496117" lon="-5.248950">
        <ele>2353.0</ele>
        <time>2014-06-30T12:15:20Z</time>
      </trkpt>
      <trkpt lat="40.496200" lon="-5.248967">
        <ele>2355.0</ele>
        <time>2014-06-30T12:15:21Z</time>
      </trkpt>
      <trkpt lat="40.496250" lon="-5.248967">
        <ele>2355.0</ele>
        <time>2014-06-30T12:15:22Z</time>
      </trkpt>
      <trkpt lat="40.496300" lon="-5.249000">
        <ele>2356.0</ele>
        <time>2014-06-30T12:15:23Z</time>
      </trkpt>
      <trkpt lat="40.496350" lon="-5.249033">
        <ele>2356.0</ele>
        <time>2014-06-30T12:15:24Z</time>
      </trkpt>
      <trkpt lat="40.496383" lon="-5.249067">
        <ele>2356.0</ele>
        <time>2014-06-30T12:15:25Z</time>
      </trkpt>
      <trkpt lat="40.496417" lon="-5.249117">
        <ele>2355.0</ele>
        <time>2014-06-30T12:15:26Z</time>
      </trkpt>
      <trkpt lat="40.496433" lon="-5.249183">
        <ele>2355.0</ele>
        <time>2014-06-30T12:15:27Z</time>
      </trkpt>
      <trkpt lat="40.496450" lon="-5.249233">
        <ele>2355.0</ele>
        <time>2014-06-30T12:15:28Z</time>
      </trkpt>
      <trkpt lat="40.496433" lon="-5.249283">
        <ele>2355.0</ele>
        <time>2014-06-30T12:15:29Z</time>
      </trkpt>
      <trkpt lat="40.496417" lon="-5.249317">
        <ele>2355.0</ele>
        <time>2014-06-30T12:15:30Z</time>
      </trkpt>
      <trkpt lat="40.496383" lon="-5.249333">
        <ele>2355.0</ele>
        <time>2014-06-30T12:15:31Z</time>
      </trkpt>
      <trkpt lat="40.496317" lon="-5.249350">
        <ele>2355.0</ele>
        <time>2014-06-30T12:15:32Z</time>
      </trkpt>
      <trkpt lat="40.496250" lon="-5.249333">
        <ele>2355.0</ele>
        <time>2014-06-30T12:15:33Z</time>
      </trkpt>
      <trkpt lat="40.496167" lon="-5.249283">
        <ele>2354.0</ele>
        <time>2014-06-30T12:15:34Z</time>
      </trkpt>
      <trkpt lat="40.496100" lon="-5.249200">
        <ele>2354.0</ele>
        <time>2014-06-30T12:15:35Z</time>
      </trkpt>
      <trkpt lat="40.496033" lon="-5.249083">
        <ele>2354.0</ele>
        <time>2014-06-30T12:15:36Z</time>
      </trkpt>
      <trkpt lat="40.495983" lon="-5.248950">
        <ele>2354.0</ele>
        <time>2014-06-30T12:15:37Z</time>
      </trkpt>
      <trkpt lat="40.495933" lon="-5.248817">
        <ele>2354.0</ele>
        <time>2014-06-30T12:15:38Z</time>
      </trkpt>
      <trkpt lat="40.495883" lon="-5.248700">
        <ele>2354.0</ele>
        <time>2014-06-30T12:15:39Z</time>
      </trkpt>
      <trkpt lat="40.495833" lon="-5.248550">
        <ele>2354.0</ele>
        <time>2014-06-30T12:15:40Z</time>
      </trkpt>
      <trkpt lat="40.495817" lon="-5.248400">
        <ele>2354.0</ele>
        <time>2014-06-30T12:15:41Z</time>
      </trkpt>
      <trkpt lat="40.495800" lon="-5.248250">
        <ele>2355.0</ele>
        <time>2014-06-30T12:15:42Z</time>
      </trkpt>
      <trkpt lat="40.495783" lon="-5.248117">
        <ele>2356.0</ele>
        <time>2014-06-30T12:15:43Z</time>
      </trkpt>
      <trkpt lat="40.495767" lon="-5.247983">
        <ele>2357.0</ele>
        <time>2014-06-30T12:15:44Z</time>
      </trkpt>
      <trkpt lat="40.495767" lon="-5.247850">
        <ele>2357.0</ele>
        <time>2014-06-30T12:15:45Z</time>
      </trkpt>
      <trkpt lat="40.495767" lon="-5.247700">
        <ele>2357.0</ele>
        <time>2014-06-30T12:15:46Z</time>
      </trkpt>
      <trkpt lat="40.495767" lon="-5.247567">
        <ele>2358.0</ele>
        <time>2014-06-30T12:15:47Z</time>
      </trkpt>
      <trkpt lat="40.495800" lon="-5.247433">
        <ele>2359.0</ele>
        <time>2014-06-30T12:15:48Z</time>
      </trkpt>
      <trkpt lat="40.495817" lon="-5.247317">
        <ele>2359.0</ele>
        <time>2014-06-30T12:15:49Z</time>
      </trkpt>
      <trkpt lat="40.495833" lon="-5.247183">
        <ele>2358.0</ele>
        <time>2014-06-30T12:15:50Z</time>
      </trkpt>
      <trkpt lat="40.495850" lon="-5.247067">
        <ele>2358.0</ele>
        <time>2014-06-30T12:15:51Z</time>
      </trkpt>
      <trkpt lat="40.495883" lon="-5.246933">
        <ele>2357.0</ele>
        <time>2014-06-30T12:15:52Z</time>
      </trkpt>
      <trkpt lat="40.495900" lon="-5.246783">
        <ele>2357.0</ele>
        <time>2014-06-30T12:15:53Z</time>
      </trkpt>
      <trkpt lat="40.495933" lon="-5.246650">
        <ele>2357.0</ele>
        <time>2014-06-30T12:15:54Z</time>
      </trkpt>
      <trkpt lat="40.495967" lon="-5.246517">
        <ele>2357.0</ele>
        <time>2014-06-30T12:15:55Z</time>
      </trkpt>
      <trkpt lat="40.496000" lon="-5.246367">
        <ele>2359.0</ele>
        <time>2014-06-30T12:15:56Z</time>
      </trkpt>
      <trkpt lat="40.496033" lon="-5.246250">
        <ele>2360.0</ele>
        <time>2014-06-30T12:15:57Z</time>
      </trkpt>
      <trkpt lat="40.496067" lon="-5.246117">
        <ele>2360.0</ele>
        <time>2014-06-30T12:15:58Z</time>
      </trkpt>
      <trkpt lat="40.496100" lon="-5.245983">
        <ele>2361.0</ele>
        <time>2014-06-30T12:15:59Z</time>
      </trkpt>
      <trkpt lat="40.496150" lon="-5.245867">
        <ele>2362.0</ele>
        <time>2014-06-30T12:16:00Z</time>
      </trkpt>
      <trkpt lat="40.496183" lon="-5.245733">
        <ele>2363.0</ele>
        <time>2014-06-30T12:16:01Z</time>
      </trkpt>
      <trkpt lat="40.496217" lon="-5.245617">
        <ele>2364.0</ele>
        <time>2014-06-30T12:16:02Z</time>
      </trkpt>
      <trkpt lat="40.496267" lon="-5.245517">
        <ele>2364.0</ele>
        <time>2014-06-30T12:16:03Z</time>
      </trkpt>
      <trkpt lat="40.496317" lon="-5.245417">
        <ele>2365.0</ele>
        <time>2014-06-30T12:16:04Z</time>
      </trkpt>
      <trkpt lat="40.496367" lon="-5.245300">
        <ele>2365.0</ele>
        <time>2014-06-30T12:16:05Z</time>
      </trkpt>
      <trkpt lat="40.496417" lon="-5.245183">
        <ele>2364.0</ele>
        <time>2014-06-30T12:16:06Z</time>
      </trkpt>
      <trkpt lat="40.496467" lon="-5.245067">
        <ele>2364.0</ele>
        <time>2014-06-30T12:16:07Z</time>
      </trkpt>
      <trkpt lat="40.496550" lon="-5.244967">
        <ele>2363.0</ele>
        <time>2014-06-30T12:16:08Z</time>
      </trkpt>
      <trkpt lat="40.496633" lon="-5.244867">
        <ele>2362.0</ele>
        <time>2014-06-30T12:16:09Z</time>
      </trkpt>
      <trkpt lat="40.496733" lon="-5.244800">
        <ele>2362.0</ele>
        <time>2014-06-30T12:16:10Z</time>
      </trkpt>
      <trkpt lat="40.496817" lon="-5.244717">
        <ele>2361.0</ele>
        <time>2014-06-30T12:16:11Z</time>
      </trkpt>
      <trkpt lat="40.496917" lon="-5.244617">
        <ele>2361.0</ele>
        <time>2014-06-30T12:16:12Z</time>
      </trkpt>
      <trkpt lat="40.497033" lon="-5.244533">
        <ele>2360.0</ele>
        <time>2014-06-30T12:16:13Z</time>
      </trkpt>
      <trkpt lat="40.497150" lon="-5.244450">
        <ele>2359.0</ele>
        <time>2014-06-30T12:16:14Z</time>
      </trkpt>
      <trkpt lat="40.497250" lon="-5.244400">
        <ele>2358.0</ele>
        <time>2014-06-30T12:16:15Z</time>
      </trkpt>
      <trkpt lat="40.497350" lon="-5.244350">
        <ele>2359.0</ele>
        <time>2014-06-30T12:16:16Z</time>
      </trkpt>
      <trkpt lat="40.497450" lon="-5.244300">
        <ele>2359.0</ele>
        <time>2014-06-30T12:16:17Z</time>
      </trkpt>
      <trkpt lat="40.497550" lon="-5.244233">
        <ele>2360.0</ele>
        <time>2014-06-30T12:16:18Z</time>
      </trkpt>
      <trkpt lat="40.497633" lon="-5.244183">
        <ele>2361.0</ele>
        <time>2014-06-30T12:16:19Z</time>
      </trkpt>
      <trkpt lat="40.497717" lon="-5.244133">
        <ele>2361.0</ele>
        <time>2014-06-30T12:16:20Z</time>
      </trkpt>
      <trkpt lat="40.497817" lon="-5.244083">
        <ele>2362.0</ele>
        <time>2014-06-30T12:16:21Z</time>
      </trkpt>
      <trkpt lat="40.497900" lon="-5.244050">
        <ele>2363.0</ele>
        <time>2014-06-30T12:16:22Z</time>
      </trkpt>
      <trkpt lat="40.497983" lon="-5.244000">
        <ele>2364.0</ele>
        <time>2014-06-30T12:16:23Z</time>
      </trkpt>
      <trkpt lat="40.498067" lon="-5.243967">
        <ele>2365.0</ele>
        <time>2014-06-30T12:16:24Z</time>
      </trkpt>
      <trkpt lat="40.498133" lon="-5.243917">
        <ele>2365.0</ele>
        <time>2014-06-30T12:16:25Z</time>
      </trkpt>
      <trkpt lat="40.498183" lon="-5.243900">
        <ele>2365.0</ele>
        <time>2014-06-30T12:16:26Z</time>
      </trkpt>
      <trkpt lat="40.498267" lon="-5.243900">
        <ele>2364.0</ele>
        <time>2014-06-30T12:16:27Z</time>
      </trkpt>
      <trkpt lat="40.498333" lon="-5.243933">
        <ele>2363.0</ele>
        <time>2014-06-30T12:16:28Z</time>
      </trkpt>
      <trkpt lat="40.498367" lon="-5.244000">
        <ele>2363.0</ele>
        <time>2014-06-30T12:16:29Z</time>
      </trkpt>
      <trkpt lat="40.498367" lon="-5.244067">
        <ele>2362.0</ele>
        <time>2014-06-30T12:16:30Z</time>
      </trkpt>
      <trkpt lat="40.498333" lon="-5.244117">
        <ele>2361.0</ele>
        <time>2014-06-30T12:16:31Z</time>
      </trkpt>
      <trkpt lat="40.498267" lon="-5.244133">
        <ele>2361.0</ele>
        <time>2014-06-30T12:16:32Z</time>
      </trkpt>
      <trkpt lat="40.498200" lon="-5.244100">
        <ele>2360.0</ele>
        <time>2014-06-30T12:16:33Z</time>
      </trkpt>
      <trkpt lat="40.498150" lon="-5.244033">
        <ele>2360.0</ele>
        <time>2014-06-30T12:16:34Z</time>
      </trkpt>
      <trkpt lat="40.498100" lon="-5.243950">
        <ele>2360.0</ele>
        <time>2014-06-30T12:16:35Z</time>
      </trkpt>
      <trkpt lat="40.498050" lon="-5.243867">
        <ele>2360.0</ele>
        <time>2014-06-30T12:16:36Z</time>
      </trkpt>
      <trkpt lat="40.497983" lon="-5.243783">
        <ele>2360.0</ele>
        <time>2014-06-30T12:16:37Z</time>
      </trkpt>
      <trkpt lat="40.497933" lon="-5.243667">
        <ele>2360.0</ele>
        <time>2014-06-30T12:16:38Z</time>
      </trkpt>
      <trkpt lat="40.497883" lon="-5.243533">
        <ele>2359.0</ele>
        <time>2014-06-30T12:16:39Z</time>
      </trkpt>
      <trkpt lat="40.497817" lon="-5.243400">
        <ele>2360.0</ele>
        <time>2014-06-30T12:16:40Z</time>
      </trkpt>
      <trkpt lat="40.497767" lon="-5.243283">
        <ele>2361.0</ele>
        <time>2014-06-30T12:16:41Z</time>
      </trkpt>
      <trkpt lat="40.497717" lon="-5.243183">
        <ele>2362.0</ele>
        <time>2014-06-30T12:16:42Z</time>
      </trkpt>
      <trkpt lat="40.497683" lon="-5.243083">
        <ele>2362.0</ele>
        <time>2014-06-30T12:16:43Z</time>
      </trkpt>
      <trkpt lat="40.497633" lon="-5.242967">
        <ele>2361.0</ele>
        <time>2014-06-30T12:16:44Z</time>
      </trkpt>
      <trkpt lat="40.497567" lon="-5.242850">
        <ele>2361.0</ele>
        <time>2014-06-30T12:16:45Z</time>
      </trkpt>
      <trkpt lat="40.497500" lon="-5.242717">
        <ele>2361.0</ele>
        <time>2014-06-30T12:16:46Z</time>
      </trkpt>
      <trkpt lat="40.497433" lon="-5.242567">
        <ele>2361.0</ele>
        <time>2014-06-30T12:16:47Z</time>
      </trkpt>
      <trkpt lat="40.497383" lon="-5.242400">
        <ele>2362.0</ele>
        <time>2014-06-30T12:16:48Z</time>
      </trkpt>
      <trkpt lat="40.497333" lon="-5.242233">
        <ele>2363.0</ele>
        <time>2014-06-30T12:16:49Z</time>
      </trkpt>
      <trkpt lat="40.497283" lon="-5.242083">
        <ele>2364.0</ele>
        <time>2014-06-30T12:16:50Z</time>
      </trkpt>
      <trkpt lat="40.497250" lon="-5.241967">
        <ele>2365.0</ele>
        <time>2014-06-30T12:16:51Z</time>
      </trkpt>
      <trkpt lat="40.497200" lon="-5.241867">
        <ele>2364.0</ele>
        <time>2014-06-30T12:16:52Z</time>
      </trkpt>
      <trkpt lat="40.497150" lon="-5.241783">
        <ele>2364.0</ele>
        <time>2014-06-30T12:16:53Z</time>
      </trkpt>
      <trkpt lat="40.497083" lon="-5.241700">
        <ele>2363.0</ele>
        <time>2014-06-30T12:16:54Z</time>
      </trkpt>
      <trkpt lat="40.497000" lon="-5.241617">
        <ele>2362.0</ele>
        <time>2014-06-30T12:16:55Z</time>
      </trkpt>
      <trkpt lat="40.496917" lon="-5.241550">
        <ele>2361.0</ele>
        <time>2014-06-30T12:16:56Z</time>
      </trkpt>
      <trkpt lat="40.496833" lon="-5.241483">
        <ele>2360.0</ele>
        <time>2014-06-30T12:16:57Z</time>
      </trkpt>
      <trkpt lat="40.496733" lon="-5.241433">
        <ele>2360.0</ele>
        <time>2014-06-30T12:16:58Z</time>
      </trkpt>
      <trkpt lat="40.496633" lon="-5.241383">
        <ele>2360.0</ele>
        <time>2014-06-30T12:16:59Z</time>
      </trkpt>
      <trkpt lat="40.496567" lon="-5.241333">
        <ele>2361.0</ele>
        <time>2014-06-30T12:17:00Z</time>
      </trkpt>
      <trkpt lat="40.496500" lon="-5.241283">
        <ele>2361.0</ele>
        <time>2014-06-30T12:17:01Z</time>
      </trkpt>
      <trkpt lat="40.496450" lon="-5.241250">
        <ele>2362.0</ele>
        <time>2014-06-30T12:17:02Z</time>
      </trkpt>
      <trkpt lat="40.496400" lon="-5.241200">
        <ele>2362.0</ele>
        <time>2014-06-30T12:17:03Z</time>
      </trkpt>
      <trkpt lat="40.496350" lon="-5.241183">
        <ele>2363.0</ele>
        <time>2014-06-30T12:17:04Z</time>
      </trkpt>
      <trkpt lat="40.496300" lon="-5.241167">
        <ele>2363.0</ele>
        <time>2014-06-30T12:17:05Z</time>
      </trkpt>
      <trkpt lat="40.496250" lon="-5.241167">
        <ele>2363.0</ele>
        <time>2014-06-30T12:17:06Z</time>
      </trkpt>
      <trkpt lat="40.496233" lon="-5.241200">
        <ele>2363.0</ele>
        <time>2014-06-30T12:17:07Z</time>
      </trkpt>
      <trkpt lat="40.496250" lon="-5.241233">
        <ele>2362.0</ele>
        <time>2014-06-30T12:17:08Z</time>
      </trkpt>
      <trkpt lat="40.496300" lon="-5.241283">
        <ele>2362.0</ele>
        <time>2014-06-30T12:17:09Z</time>
      </trkpt>
      <trkpt lat="40.496383" lon="-5.241300">
        <ele>2362.0</ele>
        <time>2014-06-30T12:17:10Z</time>
      </trkpt>
      <trkpt lat="40.496467" lon="-5.241317">
        <ele>2363.0</ele>
        <time>2014-06-30T12:17:11Z</time>
      </trkpt>
      <trkpt lat="40.496550" lon="-5.241317">
        <ele>2363.0</ele>
        <time>2014-06-30T12:17:12Z</time>
      </trkpt>
      <trkpt lat="40.496650" lon="-5.241317">
        <ele>2364.0</ele>
        <time>2014-06-30T12:17:13Z</time>
      </trkpt>
      <trkpt lat="40.496750" lon="-5.241300">
        <ele>2364.0</ele>
        <time>2014-06-30T12:17:14Z</time>
      </trkpt>
      <trkpt lat="40.496833" lon="-5.241233">
        <ele>2365.0</ele>
        <time>2014-06-30T12:17:15Z</time>
      </trkpt>
      <trkpt lat="40.496900" lon="-5.241150">
        <ele>2367.0</ele>
        <time>2014-06-30T12:17:16Z</time>
      </trkpt>
      <trkpt lat="40.496967" lon="-5.241033">
        <ele>2369.0</ele>
        <time>2014-06-30T12:17:17Z</time>
      </trkpt>
      <trkpt lat="40.497017" lon="-5.240917">
        <ele>2371.0</ele>
        <time>2014-06-30T12:17:18Z</time>
      </trkpt>
      <trkpt lat="40.497083" lon="-5.240783">
        <ele>2371.0</ele>
        <time>2014-06-30T12:17:19Z</time>
      </trkpt>
      <trkpt lat="40.497150" lon="-5.240650">
        <ele>2372.0</ele>
        <time>2014-06-30T12:17:20Z</time>
      </trkpt>
      <trkpt lat="40.497183" lon="-5.240483">
        <ele>2371.0</ele>
        <time>2014-06-30T12:17:21Z</time>
      </trkpt>
      <trkpt lat="40.497200" lon="-5.240300">
        <ele>2371.0</ele>
        <time>2014-06-30T12:17:22Z</time>
      </trkpt>
      <trkpt lat="40.497200" lon="-5.240133">
        <ele>2371.0</ele>
        <time>2014-06-30T12:17:23Z</time>
      </trkpt>
      <trkpt lat="40.497167" lon="-5.239983">
        <ele>2371.0</ele>
        <time>2014-06-30T12:17:24Z</time>
      </trkpt>
      <trkpt lat="40.497100" lon="-5.239867">
        <ele>2371.0</ele>
        <time>2014-06-30T12:17:25Z</time>
      </trkpt>
      <trkpt lat="40.497033" lon="-5.239767">
        <ele>2370.0</ele>
        <time>2014-06-30T12:17:26Z</time>
      </trkpt>
      <trkpt lat="40.496967" lon="-5.239683">
        <ele>2370.0</ele>
        <time>2014-06-30T12:17:27Z</time>
      </trkpt>
      <trkpt lat="40.496900" lon="-5.239567">
        <ele>2370.0</ele>
        <time>2014-06-30T12:17:28Z</time>
      </trkpt>
      <trkpt lat="40.496850" lon="-5.239483">
        <ele>2370.0</ele>
        <time>2014-06-30T12:17:29Z</time>
      </trkpt>
      <trkpt lat="40.496783" lon="-5.239433">
        <ele>2368.0</ele>
        <time>2014-06-30T12:17:30Z</time>
      </trkpt>
      <trkpt lat="40.496717" lon="-5.239417">
        <ele>2367.0</ele>
        <time>2014-06-30T12:17:31Z</time>
      </trkpt>
      <trkpt lat="40.496667" lon="-5.239400">
        <ele>2366.0</ele>
        <time>2014-06-30T12:17:32Z</time>
      </trkpt>
      <trkpt lat="40.496617" lon="-5.239433">
        <ele>2369.0</ele>
        <time>2014-06-30T12:17:33Z</time>
      </trkpt>
      <trkpt lat="40.496600" lon="-5.239467">
        <ele>2368.0</ele>
        <time>2014-06-30T12:17:34Z</time>
      </trkpt>
      <trkpt lat="40.496567" lon="-5.239483">
        <ele>2368.0</ele>
        <time>2014-06-30T12:17:35Z</time>
      </trkpt>
      <trkpt lat="40.496550" lon="-5.239517">
        <ele>2367.0</ele>
        <time>2014-06-30T12:17:36Z</time>
      </trkpt>
      <trkpt lat="40.496533" lon="-5.239550">
        <ele>2367.0</ele>
        <time>2014-06-30T12:17:37Z</time>
      </trkpt>
      <trkpt lat="40.496517" lon="-5.239583">
        <ele>2367.0</ele>
        <time>2014-06-30T12:17:38Z</time>
      </trkpt>
      <trkpt lat="40.496500" lon="-5.239633">
        <ele>2367.0</ele>
        <time>2014-06-30T12:17:39Z</time>
      </trkpt>
      <trkpt lat="40.496467" lon="-5.239667">
        <ele>2367.0</ele>
        <time>2014-06-30T12:17:40Z</time>
      </trkpt>
      <trkpt lat="40.496450" lon="-5.239683">
        <ele>2367.0</ele>
        <time>2014-06-30T12:17:41Z</time>
      </trkpt>
      <trkpt lat="40.496450" lon="-5.239717">
        <ele>2368.0</ele>
        <time>2014-06-30T12:17:42Z</time>
      </trkpt>
      <trkpt lat="40.496450" lon="-5.239750">
        <ele>2369.0</ele>
        <time>2014-06-30T12:17:43Z</time>
      </trkpt>
      <trkpt lat="40.496483" lon="-5.239783">
        <ele>2370.0</ele>
        <time>2014-06-30T12:17:44Z</time>
      </trkpt>
      <trkpt lat="40.496500" lon="-5.239833">
        <ele>2371.0</ele>
        <time>2014-06-30T12:17:45Z</time>
      </trkpt>
      <trkpt lat="40.496550" lon="-5.239867">
        <ele>2373.0</ele>
        <time>2014-06-30T12:17:46Z</time>
      </trkpt>
      <trkpt lat="40.496617" lon="-5.239867">
        <ele>2375.0</ele>
        <time>2014-06-30T12:17:47Z</time>
      </trkpt>
      <trkpt lat="40.496683" lon="-5.239850">
        <ele>2376.0</ele>
        <time>2014-06-30T12:17:48Z</time>
      </trkpt>
      <trkpt lat="40.496767" lon="-5.239833">
        <ele>2378.0</ele>
        <time>2014-06-30T12:17:49Z</time>
      </trkpt>
      <trkpt lat="40.496850" lon="-5.239800">
        <ele>2377.0</ele>
        <time>2014-06-30T12:17:50Z</time>
      </trkpt>
      <trkpt lat="40.496917" lon="-5.239717">
        <ele>2378.0</ele>
        <time>2014-06-30T12:17:51Z</time>
      </trkpt>
      <trkpt lat="40.497000" lon="-5.239617">
        <ele>2379.0</ele>
        <time>2014-06-30T12:17:52Z</time>
      </trkpt>
      <trkpt lat="40.497067" lon="-5.239483">
        <ele>2380.0</ele>
        <time>2014-06-30T12:17:53Z</time>
      </trkpt>
      <trkpt lat="40.497117" lon="-5.239333">
        <ele>2381.0</ele>
        <time>2014-06-30T12:17:54Z</time>
      </trkpt>
      <trkpt lat="40.497167" lon="-5.239183">
        <ele>2381.0</ele>
        <time>2014-06-30T12:17:55Z</time>
      </trkpt>
      <trkpt lat="40.497200" lon="-5.239033">
        <ele>2382.0</ele>
        <time>2014-06-30T12:17:56Z</time>
      </trkpt>
      <trkpt lat="40.497233" lon="-5.238867">
        <ele>2382.0</ele>
        <time>2014-06-30T12:17:57Z</time>
      </trkpt>
      <trkpt lat="40.497250" lon="-5.238700">
        <ele>2383.0</ele>
        <time>2014-06-30T12:17:58Z</time>
      </trkpt>
      <trkpt lat="40.497233" lon="-5.238533">
        <ele>2383.0</ele>
        <time>2014-06-30T12:17:59Z</time>
      </trkpt>
      <trkpt lat="40.497217" lon="-5.238383">
        <ele>2383.0</ele>
        <time>2014-06-30T12:18:00Z</time>
      </trkpt>
      <trkpt lat="40.497150" lon="-5.238267">
        <ele>2383.0</ele>
        <time>2014-06-30T12:18:01Z</time>
      </trkpt>
      <trkpt lat="40.497083" lon="-5.238167">
        <ele>2383.0</ele>
        <time>2014-06-30T12:18:02Z</time>
      </trkpt>
      <trkpt lat="40.497000" lon="-5.238083">
        <ele>2385.0</ele>
        <time>2014-06-30T12:18:03Z</time>
      </trkpt>
      <trkpt lat="40.496933" lon="-5.238017">
        <ele>2386.0</ele>
        <time>2014-06-30T12:18:04Z</time>
      </trkpt>
      <trkpt lat="40.496883" lon="-5.237950">
        <ele>2387.0</ele>
        <time>2014-06-30T12:18:05Z</time>
      </trkpt>
      <trkpt lat="40.496833" lon="-5.237900">
        <ele>2388.0</ele>
        <time>2014-06-30T12:18:06Z</time>
      </trkpt>
      <trkpt lat="40.496767" lon="-5.237867">
        <ele>2389.0</ele>
        <time>2014-06-30T12:18:07Z</time>
      </trkpt>
      <trkpt lat="40.496700" lon="-5.237833">
        <ele>2389.0</ele>
        <time>2014-06-30T12:18:08Z</time>
      </trkpt>
      <trkpt lat="40.496650" lon="-5.237817">
        <ele>2390.0</ele>
        <time>2014-06-30T12:18:09Z</time>
      </trkpt>
      <trkpt lat="40.496600" lon="-5.237817">
        <ele>2391.0</ele>
        <time>2014-06-30T12:18:10Z</time>
      </trkpt>
      <trkpt lat="40.496567" lon="-5.237833">
        <ele>2391.0</ele>
        <time>2014-06-30T12:18:11Z</time>
      </trkpt>
      <trkpt lat="40.496567" lon="-5.237867">
        <ele>2392.0</ele>
        <time>2014-06-30T12:18:12Z</time>
      </trkpt>
      <trkpt lat="40.496567" lon="-5.237900">
        <ele>2392.0</ele>
        <time>2014-06-30T12:18:13Z</time>
      </trkpt>
      <trkpt lat="40.496583" lon="-5.237917">
        <ele>2393.0</ele>
        <time>2014-06-30T12:18:14Z</time>
      </trkpt>
      <trkpt lat="40.496600" lon="-5.237950">
        <ele>2391.0</ele>
        <time>2014-06-30T12:18:15Z</time>
      </trkpt>
      <trkpt lat="40.496650" lon="-5.237967">
        <ele>2391.0</ele>
        <time>2014-06-30T12:18:16Z</time>
      </trkpt>
      <trkpt lat="40.496717" lon="-5.237983">
        <ele>2392.0</ele>
        <time>2014-06-30T12:18:17Z</time>
      </trkpt>
      <trkpt lat="40.496783" lon="-5.237967">
        <ele>2392.0</ele>
        <time>2014-06-30T12:18:18Z</time>
      </trkpt>
      <trkpt lat="40.496883" lon="-5.237950">
        <ele>2393.0</ele>
        <time>2014-06-30T12:18:19Z</time>
      </trkpt>
      <trkpt lat="40.496967" lon="-5.237900">
        <ele>2394.0</ele>
        <time>2014-06-30T12:18:20Z</time>
      </trkpt>
      <trkpt lat="40.497033" lon="-5.237817">
        <ele>2394.0</ele>
        <time>2014-06-30T12:18:21Z</time>
      </trkpt>
      <trkpt lat="40.497117" lon="-5.237733">
        <ele>2395.0</ele>
        <time>2014-06-30T12:18:22Z</time>
      </trkpt>
      <trkpt lat="40.497183" lon="-5.237633">
        <ele>2395.0</ele>
        <time>2014-06-30T12:18:23Z</time>
      </trkpt>
      <trkpt lat="40.497267" lon="-5.237533">
        <ele>2394.0</ele>
        <time>2014-06-30T12:18:24Z</time>
      </trkpt>
      <trkpt lat="40.497333" lon="-5.237417">
        <ele>2394.0</ele>
        <time>2014-06-30T12:18:25Z</time>
      </trkpt>
      <trkpt lat="40.497400" lon="-5.237283">
        <ele>2394.0</ele>
        <time>2014-06-30T12:18:26Z</time>
      </trkpt>
      <trkpt lat="40.497433" lon="-5.237133">
        <ele>2393.0</ele>
        <time>2014-06-30T12:18:27Z</time>
      </trkpt>
      <trkpt lat="40.497467" lon="-5.236950">
        <ele>2392.0</ele>
        <time>2014-06-30T12:18:28Z</time>
      </trkpt>
      <trkpt lat="40.497467" lon="-5.236783">
        <ele>2391.0</ele>
        <time>2014-06-30T12:18:29Z</time>
      </trkpt>
      <trkpt lat="40.497450" lon="-5.236633">
        <ele>2391.0</ele>
        <time>2014-06-30T12:18:30Z</time>
      </trkpt>
      <trkpt lat="40.497417" lon="-5.236483">
        <ele>2390.0</ele>
        <time>2014-06-30T12:18:31Z</time>
      </trkpt>
      <trkpt lat="40.497350" lon="-5.236367">
        <ele>2388.0</ele>
        <time>2014-06-30T12:18:32Z</time>
      </trkpt>
      <trkpt lat="40.497283" lon="-5.236250">
        <ele>2387.0</ele>
        <time>2014-06-30T12:18:33Z</time>
      </trkpt>
      <trkpt lat="40.497217" lon="-5.236183">
        <ele>2386.0</ele>
        <time>2014-06-30T12:18:34Z</time>
      </trkpt>
      <trkpt lat="40.497150" lon="-5.236150">
        <ele>2385.0</ele>
        <time>2014-06-30T12:18:35Z</time>
      </trkpt>
      <trkpt lat="40.497083" lon="-5.236133">
        <ele>2384.0</ele>
        <time>2014-06-30T12:18:36Z</time>
      </trkpt>
      <trkpt lat="40.497033" lon="-5.236117">
        <ele>2383.0</ele>
        <time>2014-06-30T12:18:37Z</time>
      </trkpt>
      <trkpt lat="40.496983" lon="-5.236133">
        <ele>2383.0</ele>
        <time>2014-06-30T12:18:38Z</time>
      </trkpt>
      <trkpt lat="40.496950" lon="-5.236167">
        <ele>2382.0</ele>
        <time>2014-06-30T12:18:39Z</time>
      </trkpt>
      <trkpt lat="40.496933" lon="-5.236200">
        <ele>2382.0</ele>
        <time>2014-06-30T12:18:40Z</time>
      </trkpt>
      <trkpt lat="40.496933" lon="-5.236250">
        <ele>2381.0</ele>
        <time>2014-06-30T12:18:41Z</time>
      </trkpt>
      <trkpt lat="40.496933" lon="-5.236283">
        <ele>2381.0</ele>
        <time>2014-06-30T12:18:42Z</time>
      </trkpt>
      <trkpt lat="40.496917" lon="-5.236350">
        <ele>2380.0</ele>
        <time>2014-06-30T12:18:43Z</time>
      </trkpt>
      <trkpt lat="40.496917" lon="-5.236417">
        <ele>2380.0</ele>
        <time>2014-06-30T12:18:44Z</time>
      </trkpt>
      <trkpt lat="40.496933" lon="-5.236483">
        <ele>2379.0</ele>
        <time>2014-06-30T12:18:45Z</time>
      </trkpt>
      <trkpt lat="40.496967" lon="-5.236550">
        <ele>2379.0</ele>
        <time>2014-06-30T12:18:46Z</time>
      </trkpt>
      <trkpt lat="40.497000" lon="-5.236600">
        <ele>2381.0</ele>
        <time>2014-06-30T12:18:47Z</time>
      </trkpt>
      <trkpt lat="40.497033" lon="-5.236667">
        <ele>2382.0</ele>
        <time>2014-06-30T12:18:48Z</time>
      </trkpt>
      <trkpt lat="40.497083" lon="-5.236700">
        <ele>2382.0</ele>
        <time>2014-06-30T12:18:49Z</time>
      </trkpt>
      <trkpt lat="40.497150" lon="-5.236750">
        <ele>2381.0</ele>
        <time>2014-06-30T12:18:50Z</time>
      </trkpt>
      <trkpt lat="40.497217" lon="-5.236767">
        <ele>2381.0</ele>
        <time>2014-06-30T12:18:51Z</time>
      </trkpt>
      <trkpt lat="40.497300" lon="-5.236783">
        <ele>2381.0</ele>
        <time>2014-06-30T12:18:52Z</time>
      </trkpt>
      <trkpt lat="40.497383" lon="-5.236800">
        <ele>2381.0</ele>
        <time>2014-06-30T12:18:53Z</time>
      </trkpt>
      <trkpt lat="40.497483" lon="-5.236800">
        <ele>2380.0</ele>
        <time>2014-06-30T12:18:54Z</time>
      </trkpt>
      <trkpt lat="40.497583" lon="-5.236783">
        <ele>2379.0</ele>
        <time>2014-06-30T12:18:55Z</time>
      </trkpt>
      <trkpt lat="40.497700" lon="-5.236750">
        <ele>2377.0</ele>
        <time>2014-06-30T12:18:56Z</time>
      </trkpt>
      <trkpt lat="40.497817" lon="-5.236683">
        <ele>2376.0</ele>
        <time>2014-06-30T12:18:57Z</time>
      </trkpt>
      <trkpt lat="40.497933" lon="-5.236617">
        <ele>2376.0</ele>
        <time>2014-06-30T12:18:58Z</time>
      </trkpt>
      <trkpt lat="40.498033" lon="-5.236550">
        <ele>2375.0</ele>
        <time>2014-06-30T12:18:59Z</time>
      </trkpt>
      <trkpt lat="40.498150" lon="-5.236500">
        <ele>2374.0</ele>
        <time>2014-06-30T12:19:00Z</time>
      </trkpt>
      <trkpt lat="40.498250" lon="-5.236433">
        <ele>2373.0</ele>
        <time>2014-06-30T12:19:01Z</time>
      </trkpt>
      <trkpt lat="40.498367" lon="-5.236350">
        <ele>2371.0</ele>
        <time>2014-06-30T12:19:02Z</time>
      </trkpt>
      <trkpt lat="40.498483" lon="-5.236267">
        <ele>2370.0</ele>
        <time>2014-06-30T12:19:03Z</time>
      </trkpt>
      <trkpt lat="40.498583" lon="-5.236167">
        <ele>2369.0</ele>
        <time>2014-06-30T12:19:04Z</time>
      </trkpt>
      <trkpt lat="40.498683" lon="-5.236067">
        <ele>2368.0</ele>
        <time>2014-06-30T12:19:05Z</time>
      </trkpt>
      <trkpt lat="40.498800" lon="-5.235967">
        <ele>2367.0</ele>
        <time>2014-06-30T12:19:06Z</time>
      </trkpt>
      <trkpt lat="40.498917" lon="-5.235867">
        <ele>2368.0</ele>
        <time>2014-06-30T12:19:07Z</time>
      </trkpt>
      <trkpt lat="40.499017" lon="-5.235750">
        <ele>2368.0</ele>
        <time>2014-06-30T12:19:08Z</time>
      </trkpt>
      <trkpt lat="40.499100" lon="-5.235633">
        <ele>2368.0</ele>
        <time>2014-06-30T12:19:09Z</time>
      </trkpt>
      <trkpt lat="40.499183" lon="-5.235533">
        <ele>2366.0</ele>
        <time>2014-06-30T12:19:10Z</time>
      </trkpt>
      <trkpt lat="40.499283" lon="-5.235433">
        <ele>2363.0</ele>
        <time>2014-06-30T12:19:11Z</time>
      </trkpt>
      <trkpt lat="40.499400" lon="-5.235333">
        <ele>2361.0</ele>
        <time>2014-06-30T12:19:12Z</time>
      </trkpt>
      <trkpt lat="40.499517" lon="-5.235200">
        <ele>2360.0</ele>
        <time>2014-06-30T12:19:13Z</time>
      </trkpt>
      <trkpt lat="40.499617" lon="-5.235067">
        <ele>2359.0</ele>
        <time>2014-06-30T12:19:14Z</time>
      </trkpt>
      <trkpt lat="40.499700" lon="-5.234933">
        <ele>2358.0</ele>
        <time>2014-06-30T12:19:15Z</time>
      </trkpt>
      <trkpt lat="40.499783" lon="-5.234817">
        <ele>2356.0</ele>
        <time>2014-06-30T12:19:16Z</time>
      </trkpt>
      <trkpt lat="40.499883" lon="-5.234700">
        <ele>2354.0</ele>
        <time>2014-06-30T12:19:17Z</time>
      </trkpt>
      <trkpt lat="40.499983" lon="-5.234567">
        <ele>2350.0</ele>
        <time>2014-06-30T12:19:18Z</time>
      </trkpt>
      <trkpt lat="40.500083" lon="-5.234433">
        <ele>2347.0</ele>
        <time>2014-06-30T12:19:19Z</time>
      </trkpt>
      <trkpt lat="40.500183" lon="-5.234283">
        <ele>2343.0</ele>
        <time>2014-06-30T12:19:20Z</time>
      </trkpt>
      <trkpt lat="40.500283" lon="-5.234150">
        <ele>2339.0</ele>
        <time>2014-06-30T12:19:21Z</time>
      </trkpt>
      <trkpt lat="40.500383" lon="-5.234000">
        <ele>2336.0</ele>
        <time>2014-06-30T12:19:22Z</time>
      </trkpt>
      <trkpt lat="40.500483" lon="-5.233867">
        <ele>2334.0</ele>
        <time>2014-06-30T12:19:23Z</time>
      </trkpt>
      <trkpt lat="40.500583" lon="-5.233717">
        <ele>2333.0</ele>
        <time>2014-06-30T12:19:24Z</time>
      </trkpt>
      <trkpt lat="40.500667" lon="-5.233583">
        <ele>2331.0</ele>
        <time>2014-06-30T12:19:25Z</time>
      </trkpt>
      <trkpt lat="40.500767" lon="-5.233450">
        <ele>2328.0</ele>
        <time>2014-06-30T12:19:26Z</time>
      </trkpt>
      <trkpt lat="40.500867" lon="-5.233300">
        <ele>2326.0</ele>
        <time>2014-06-30T12:19:27Z</time>
      </trkpt>
      <trkpt lat="40.500950" lon="-5.233150">
        <ele>2323.0</ele>
        <time>2014-06-30T12:19:28Z</time>
      </trkpt>
      <trkpt lat="40.501050" lon="-5.233000">
        <ele>2320.0</ele>
        <time>2014-06-30T12:19:29Z</time>
      </trkpt>
      <trkpt lat="40.501150" lon="-5.232883">
        <ele>2318.0</ele>
        <time>2014-06-30T12:19:30Z</time>
      </trkpt>
      <trkpt lat="40.501267" lon="-5.232783">
        <ele>2315.0</ele>
        <time>2014-06-30T12:19:31Z</time>
      </trkpt>
      <trkpt lat="40.501367" lon="-5.232667">
        <ele>2312.0</ele>
        <time>2014-06-30T12:19:32Z</time>
      </trkpt>
      <trkpt lat="40.501450" lon="-5.232517">
        <ele>2309.0</ele>
        <time>2014-06-30T12:19:33Z</time>
      </trkpt>
      <trkpt lat="40.501517" lon="-5.232350">
        <ele>2306.0</ele>
        <time>2014-06-30T12:19:34Z</time>
      </trkpt>
      <trkpt lat="40.501600" lon="-5.232200">
        <ele>2304.0</ele>
        <time>2014-06-30T12:19:35Z</time>
      </trkpt>
      <trkpt lat="40.501683" lon="-5.232050">
        <ele>2302.0</ele>
        <time>2014-06-30T12:19:36Z</time>
      </trkpt>
      <trkpt lat="40.501783" lon="-5.231900">
        <ele>2302.0</ele>
        <time>2014-06-30T12:19:37Z</time>
      </trkpt>
      <trkpt lat="40.501867" lon="-5.231733">
        <ele>2300.0</ele>
        <time>2014-06-30T12:19:38Z</time>
      </trkpt>
      <trkpt lat="40.501933" lon="-5.231583">
        <ele>2299.0</ele>
        <time>2014-06-30T12:19:39Z</time>
      </trkpt>
      <trkpt lat="40.502017" lon="-5.231433">
        <ele>2298.0</ele>
        <time>2014-06-30T12:19:40Z</time>
      </trkpt>
      <trkpt lat="40.502067" lon="-5.231283">
        <ele>2297.0</ele>
        <time>2014-06-30T12:19:41Z</time>
      </trkpt>
      <trkpt lat="40.502133" lon="-5.231150">
        <ele>2296.0</ele>
        <time>2014-06-30T12:19:42Z</time>
      </trkpt>
      <trkpt lat="40.502200" lon="-5.231000">
        <ele>2295.0</ele>
        <time>2014-06-30T12:19:43Z</time>
      </trkpt>
      <trkpt lat="40.502267" lon="-5.230867">
        <ele>2295.0</ele>
        <time>2014-06-30T12:19:44Z</time>
      </trkpt>
      <trkpt lat="40.502333" lon="-5.230733">
        <ele>2295.0</ele>
        <time>2014-06-30T12:19:45Z</time>
      </trkpt>
      <trkpt lat="40.502417" lon="-5.230600">
        <ele>2294.0</ele>
        <time>2014-06-30T12:19:46Z</time>
      </trkpt>
      <trkpt lat="40.502500" lon="-5.230483">
        <ele>2294.0</ele>
        <time>2014-06-30T12:19:47Z</time>
      </trkpt>
      <trkpt lat="40.502567" lon="-5.230367">
        <ele>2294.0</ele>
        <time>2014-06-30T12:19:48Z</time>
      </trkpt>
      <trkpt lat="40.502650" lon="-5.230233">
        <ele>2294.0</ele>
        <time>2014-06-30T12:19:49Z</time>
      </trkpt>
      <trkpt lat="40.502733" lon="-5.230117">
        <ele>2293.0</ele>
        <time>2014-06-30T12:19:50Z</time>
      </trkpt>
      <trkpt lat="40.502817" lon="-5.230017">
        <ele>2293.0</ele>
        <time>2014-06-30T12:19:51Z</time>
      </trkpt>
      <trkpt lat="40.502900" lon="-5.229917">
        <ele>2293.0</ele>
        <time>2014-06-30T12:19:52Z</time>
      </trkpt>
      <trkpt lat="40.502983" lon="-5.229833">
        <ele>2291.0</ele>
        <time>2014-06-30T12:19:53Z</time>
      </trkpt>
      <trkpt lat="40.503050" lon="-5.229733">
        <ele>2290.0</ele>
        <time>2014-06-30T12:19:54Z</time>
      </trkpt>
      <trkpt lat="40.503133" lon="-5.229617">
        <ele>2289.0</ele>
        <time>2014-06-30T12:19:55Z</time>
      </trkpt>
      <trkpt lat="40.503217" lon="-5.229500">
        <ele>2287.0</ele>
        <time>2014-06-30T12:19:56Z</time>
      </trkpt>
      <trkpt lat="40.503300" lon="-5.229367">
        <ele>2286.0</ele>
        <time>2014-06-30T12:19:57Z</time>
      </trkpt>
      <trkpt lat="40.503383" lon="-5.229250">
        <ele>2285.0</ele>
        <time>2014-06-30T12:19:58Z</time>
      </trkpt>
      <trkpt lat="40.503467" lon="-5.229133">
        <ele>2284.0</ele>
        <time>2014-06-30T12:19:59Z</time>
      </trkpt>
      <trkpt lat="40.503550" lon="-5.229033">
        <ele>2283.0</ele>
        <time>2014-06-30T12:20:00Z</time>
      </trkpt>
      <trkpt lat="40.503633" lon="-5.228933">
        <ele>2282.0</ele>
        <time>2014-06-30T12:20:01Z</time>
      </trkpt>
      <trkpt lat="40.503717" lon="-5.228833">
        <ele>2280.0</ele>
        <time>2014-06-30T12:20:02Z</time>
      </trkpt>
      <trkpt lat="40.503817" lon="-5.228700">
        <ele>2279.0</ele>
        <time>2014-06-30T12:20:03Z</time>
      </trkpt>
      <trkpt lat="40.503900" lon="-5.228583">
        <ele>2278.0</ele>
        <time>2014-06-30T12:20:04Z</time>
      </trkpt>
      <trkpt lat="40.503983" lon="-5.228483">
        <ele>2278.0</ele>
        <time>2014-06-30T12:20:05Z</time>
      </trkpt>
      <trkpt lat="40.504050" lon="-5.228367">
        <ele>2277.0</ele>
        <time>2014-06-30T12:20:06Z</time>
      </trkpt>
      <trkpt lat="40.504133" lon="-5.228267">
        <ele>2276.0</ele>
        <time>2014-06-30T12:20:07Z</time>
      </trkpt>
      <trkpt lat="40.504217" lon="-5.228167">
        <ele>2275.0</ele>
        <time>2014-06-30T12:20:08Z</time>
      </trkpt>
      <trkpt lat="40.504300" lon="-5.228083">
        <ele>2274.0</ele>
        <time>2014-06-30T12:20:09Z</time>
      </trkpt>
      <trkpt lat="40.504383" lon="-5.227983">
        <ele>2273.0</ele>
        <time>2014-06-30T12:20:10Z</time>
      </trkpt>
      <trkpt lat="40.504450" lon="-5.227883">
        <ele>2271.0</ele>
        <time>2014-06-30T12:20:11Z</time>
      </trkpt>
      <trkpt lat="40.504533" lon="-5.227800">
        <ele>2270.0</ele>
        <time>2014-06-30T12:20:12Z</time>
      </trkpt>
      <trkpt lat="40.504600" lon="-5.227700">
        <ele>2270.0</ele>
        <time>2014-06-30T12:20:13Z</time>
      </trkpt>
      <trkpt lat="40.504667" lon="-5.227617">
        <ele>2269.0</ele>
        <time>2014-06-30T12:20:14Z</time>
      </trkpt>
      <trkpt lat="40.504717" lon="-5.227533">
        <ele>2268.0</ele>
        <time>2014-06-30T12:20:15Z</time>
      </trkpt>
      <trkpt lat="40.504800" lon="-5.227467">
        <ele>2268.0</ele>
        <time>2014-06-30T12:20:16Z</time>
      </trkpt>
      <trkpt lat="40.504883" lon="-5.227367">
        <ele>2266.0</ele>
        <time>2014-06-30T12:20:17Z</time>
      </trkpt>
      <trkpt lat="40.504967" lon="-5.227267">
        <ele>2264.0</ele>
        <time>2014-06-30T12:20:18Z</time>
      </trkpt>
      <trkpt lat="40.505050" lon="-5.227133">
        <ele>2260.0</ele>
        <time>2014-06-30T12:20:19Z</time>
      </trkpt>
      <trkpt lat="40.505133" lon="-5.226983">
        <ele>2258.0</ele>
        <time>2014-06-30T12:20:20Z</time>
      </trkpt>
      <trkpt lat="40.505200" lon="-5.226833">
        <ele>2257.0</ele>
        <time>2014-06-30T12:20:21Z</time>
      </trkpt>
      <trkpt lat="40.505267" lon="-5.226717">
        <ele>2256.0</ele>
        <time>2014-06-30T12:20:22Z</time>
      </trkpt>
      <trkpt lat="40.505333" lon="-5.226600">
        <ele>2254.0</ele>
        <time>2014-06-30T12:20:23Z</time>
      </trkpt>
      <trkpt lat="40.505383" lon="-5.226467">
        <ele>2252.0</ele>
        <time>2014-06-30T12:20:24Z</time>
      </trkpt>
      <trkpt lat="40.505450" lon="-5.226317">
        <ele>2249.0</ele>
        <time>2014-06-30T12:20:25Z</time>
      </trkpt>
      <trkpt lat="40.505517" lon="-5.226183">
        <ele>2246.0</ele>
        <time>2014-06-30T12:20:26Z</time>
      </trkpt>
      <trkpt lat="40.505600" lon="-5.226050">
        <ele>2243.0</ele>
        <time>2014-06-30T12:20:27Z</time>
      </trkpt>
      <trkpt lat="40.505667" lon="-5.225917">
        <ele>2241.0</ele>
        <time>2014-06-30T12:20:28Z</time>
      </trkpt>
      <trkpt lat="40.505733" lon="-5.225783">
        <ele>2238.0</ele>
        <time>2014-06-30T12:20:29Z</time>
      </trkpt>
      <trkpt lat="40.505800" lon="-5.225667">
        <ele>2236.0</ele>
        <time>2014-06-30T12:20:30Z</time>
      </trkpt>
      <trkpt lat="40.505867" lon="-5.225533">
        <ele>2232.0</ele>
        <time>2014-06-30T12:20:31Z</time>
      </trkpt>
      <trkpt lat="40.505933" lon="-5.225383">
        <ele>2228.0</ele>
        <time>2014-06-30T12:20:32Z</time>
      </trkpt>
      <trkpt lat="40.506017" lon="-5.225250">
        <ele>2225.0</ele>
        <time>2014-06-30T12:20:33Z</time>
      </trkpt>
      <trkpt lat="40.506100" lon="-5.225100">
        <ele>2223.0</ele>
        <time>2014-06-30T12:20:34Z</time>
      </trkpt>
      <trkpt lat="40.506150" lon="-5.224950">
        <ele>2223.0</ele>
        <time>2014-06-30T12:20:35Z</time>
      </trkpt>
      <trkpt lat="40.506217" lon="-5.224817">
        <ele>2222.0</ele>
        <time>2014-06-30T12:20:36Z</time>
      </trkpt>
      <trkpt lat="40.506267" lon="-5.224683">
        <ele>2220.0</ele>
        <time>2014-06-30T12:20:37Z</time>
      </trkpt>
      <trkpt lat="40.506333" lon="-5.224550">
        <ele>2218.0</ele>
        <time>2014-06-30T12:20:38Z</time>
      </trkpt>
      <trkpt lat="40.506400" lon="-5.224417">
        <ele>2215.0</ele>
        <time>2014-06-30T12:20:39Z</time>
      </trkpt>
      <trkpt lat="40.506467" lon="-5.224283">
        <ele>2212.0</ele>
        <time>2014-06-30T12:20:40Z</time>
      </trkpt>
      <trkpt lat="40.506517" lon="-5.224133">
        <ele>2210.0</ele>
        <time>2014-06-30T12:20:41Z</time>
      </trkpt>
      <trkpt lat="40.506583" lon="-5.223983">
        <ele>2207.0</ele>
        <time>2014-06-30T12:20:42Z</time>
      </trkpt>
      <trkpt lat="40.506650" lon="-5.223833">
        <ele>2204.0</ele>
        <time>2014-06-30T12:20:43Z</time>
      </trkpt>
      <trkpt lat="40.506717" lon="-5.223700">
        <ele>2202.0</ele>
        <time>2014-06-30T12:20:44Z</time>
      </trkpt>
      <trkpt lat="40.506767" lon="-5.223550">
        <ele>2199.0</ele>
        <time>2014-06-30T12:20:45Z</time>
      </trkpt>
      <trkpt lat="40.506833" lon="-5.223417">
        <ele>2195.0</ele>
        <time>2014-06-30T12:20:46Z</time>
      </trkpt>
      <trkpt lat="40.506900" lon="-5.223267">
        <ele>2192.0</ele>
        <time>2014-06-30T12:20:47Z</time>
      </trkpt>
      <trkpt lat="40.506983" lon="-5.223117">
        <ele>2189.0</ele>
        <time>2014-06-30T12:20:48Z</time>
      </trkpt>
      <trkpt lat="40.507050" lon="-5.222967">
        <ele>2187.0</ele>
        <time>2014-06-30T12:20:49Z</time>
      </trkpt>
      <trkpt lat="40.507133" lon="-5.222833">
        <ele>2184.0</ele>
        <time>2014-06-30T12:20:50Z</time>
      </trkpt>
      <trkpt lat="40.507217" lon="-5.222700">
        <ele>2182.0</ele>
        <time>2014-06-30T12:20:51Z</time>
      </trkpt>
      <trkpt lat="40.507283" lon="-5.222567">
        <ele>2179.0</ele>
        <time>2014-06-30T12:20:52Z</time>
      </trkpt>
      <trkpt lat="40.507367" lon="-5.222433">
        <ele>2177.0</ele>
        <time>2014-06-30T12:20:53Z</time>
      </trkpt>
      <trkpt lat="40.507450" lon="-5.222300">
        <ele>2174.0</ele>
        <time>2014-06-30T12:20:54Z</time>
      </trkpt>
      <trkpt lat="40.507517" lon="-5.222167">
        <ele>2172.0</ele>
        <time>2014-06-30T12:20:55Z</time>
      </trkpt>
      <trkpt lat="40.507600" lon="-5.222017">
        <ele>2170.0</ele>
        <time>2014-06-30T12:20:56Z</time>
      </trkpt>
      <trkpt lat="40.507667" lon="-5.221883">
        <ele>2170.0</ele>
        <time>2014-06-30T12:20:57Z</time>
      </trkpt>
      <trkpt lat="40.507717" lon="-5.221767">
        <ele>2170.0</ele>
        <time>2014-06-30T12:20:58Z</time>
      </trkpt>
      <trkpt lat="40.507750" lon="-5.221633">
        <ele>2170.0</ele>
        <time>2014-06-30T12:20:59Z</time>
      </trkpt>
      <trkpt lat="40.507800" lon="-5.221517">
        <ele>2168.0</ele>
        <time>2014-06-30T12:21:00Z</time>
      </trkpt>
      <trkpt lat="40.507850" lon="-5.221400">
        <ele>2165.0</ele>
        <time>2014-06-30T12:21:01Z</time>
      </trkpt>
      <trkpt lat="40.507917" lon="-5.221267">
        <ele>2162.0</ele>
        <time>2014-06-30T12:21:02Z</time>
      </trkpt>
      <trkpt lat="40.507983" lon="-5.221117">
        <ele>2160.0</ele>
        <time>2014-06-30T12:21:03Z</time>
      </trkpt>
      <trkpt lat="40.508050" lon="-5.220967">
        <ele>2158.0</ele>
        <time>2014-06-30T12:21:04Z</time>
      </trkpt>
      <trkpt lat="40.508117" lon="-5.220833">
        <ele>2157.0</ele>
        <time>2014-06-30T12:21:05Z</time>
      </trkpt>
      <trkpt lat="40.508183" lon="-5.220700">
        <ele>2156.0</ele>
        <time>2014-06-30T12:21:06Z</time>
      </trkpt>
      <trkpt lat="40.508250" lon="-5.220583">
        <ele>2154.0</ele>
        <time>2014-06-30T12:21:07Z</time>
      </trkpt>
      <trkpt lat="40.508317" lon="-5.220467">
        <ele>2152.0</ele>
        <time>2014-06-30T12:21:08Z</time>
      </trkpt>
      <trkpt lat="40.508400" lon="-5.220350">
        <ele>2148.0</ele>
        <time>2014-06-30T12:21:09Z</time>
      </trkpt>
      <trkpt lat="40.508483" lon="-5.220217">
        <ele>2145.0</ele>
        <time>2014-06-30T12:21:10Z</time>
      </trkpt>
      <trkpt lat="40.508550" lon="-5.220067">
        <ele>2143.0</ele>
        <time>2014-06-30T12:21:11Z</time>
      </trkpt>
      <trkpt lat="40.508617" lon="-5.219917">
        <ele>2140.0</ele>
        <time>2014-06-30T12:21:12Z</time>
      </trkpt>
      <trkpt lat="40.508683" lon="-5.219767">
        <ele>2138.0</ele>
        <time>2014-06-30T12:21:13Z</time>
      </trkpt>
      <trkpt lat="40.508767" lon="-5.219633">
        <ele>2136.0</ele>
        <time>2014-06-30T12:21:14Z</time>
      </trkpt>
      <trkpt lat="40.508850" lon="-5.219517">
        <ele>2134.0</ele>
        <time>2014-06-30T12:21:15Z</time>
      </trkpt>
      <trkpt lat="40.508917" lon="-5.219383">
        <ele>2132.0</ele>
        <time>2014-06-30T12:21:16Z</time>
      </trkpt>
      <trkpt lat="40.508967" lon="-5.219233">
        <ele>2130.0</ele>
        <time>2014-06-30T12:21:17Z</time>
      </trkpt>
      <trkpt lat="40.509017" lon="-5.219067">
        <ele>2128.0</ele>
        <time>2014-06-30T12:21:18Z</time>
      </trkpt>
      <trkpt lat="40.509083" lon="-5.218917">
        <ele>2126.0</ele>
        <time>2014-06-30T12:21:19Z</time>
      </trkpt>
      <trkpt lat="40.509150" lon="-5.218767">
        <ele>2125.0</ele>
        <time>2014-06-30T12:21:20Z</time>
      </trkpt>
      <trkpt lat="40.509217" lon="-5.218617">
        <ele>2124.0</ele>
        <time>2014-06-30T12:21:21Z</time>
      </trkpt>
      <trkpt lat="40.509267" lon="-5.218467">
        <ele>2123.0</ele>
        <time>2014-06-30T12:21:22Z</time>
      </trkpt>
      <trkpt lat="40.509333" lon="-5.218317">
        <ele>2121.0</ele>
        <time>2014-06-30T12:21:23Z</time>
      </trkpt>
      <trkpt lat="40.509400" lon="-5.218167">
        <ele>2120.0</ele>
        <time>2014-06-30T12:21:24Z</time>
      </trkpt>
      <trkpt lat="40.509483" lon="-5.218017">
        <ele>2118.0</ele>
        <time>2014-06-30T12:21:25Z</time>
      </trkpt>
      <trkpt lat="40.509567" lon="-5.217867">
        <ele>2117.0</ele>
        <time>2014-06-30T12:21:26Z</time>
      </trkpt>
      <trkpt lat="40.509633" lon="-5.217717">
        <ele>2116.0</ele>
        <time>2014-06-30T12:21:27Z</time>
      </trkpt>
      <trkpt lat="40.509667" lon="-5.217583">
        <ele>2116.0</ele>
        <time>2014-06-30T12:21:28Z</time>
      </trkpt>
      <trkpt lat="40.509717" lon="-5.217450">
        <ele>2115.0</ele>
        <time>2014-06-30T12:21:29Z</time>
      </trkpt>
      <trkpt lat="40.509767" lon="-5.217317">
        <ele>2113.0</ele>
        <time>2014-06-30T12:21:30Z</time>
      </trkpt>
      <trkpt lat="40.509833" lon="-5.217167">
        <ele>2110.0</ele>
        <time>2014-06-30T12:21:31Z</time>
      </trkpt>
      <trkpt lat="40.509900" lon="-5.217000">
        <ele>2109.0</ele>
        <time>2014-06-30T12:21:32Z</time>
      </trkpt>
      <trkpt lat="40.509933" lon="-5.216833">
        <ele>2107.0</ele>
        <time>2014-06-30T12:21:33Z</time>
      </trkpt>
      <trkpt lat="40.509983" lon="-5.216683">
        <ele>2106.0</ele>
        <time>2014-06-30T12:21:34Z</time>
      </trkpt>
      <trkpt lat="40.510017" lon="-5.216533">
        <ele>2105.0</ele>
        <time>2014-06-30T12:21:35Z</time>
      </trkpt>
      <trkpt lat="40.510067" lon="-5.216383">
        <ele>2104.0</ele>
        <time>2014-06-30T12:21:36Z</time>
      </trkpt>
      <trkpt lat="40.510100" lon="-5.216233">
        <ele>2103.0</ele>
        <time>2014-06-30T12:21:37Z</time>
      </trkpt>
      <trkpt lat="40.510150" lon="-5.216083">
        <ele>2102.0</ele>
        <time>2014-06-30T12:21:38Z</time>
      </trkpt>
      <trkpt lat="40.510200" lon="-5.215917">
        <ele>2101.0</ele>
        <time>2014-06-30T12:21:39Z</time>
      </trkpt>
      <trkpt lat="40.510233" lon="-5.215750">
        <ele>2100.0</ele>
        <time>2014-06-30T12:21:40Z</time>
      </trkpt>
      <trkpt lat="40.510267" lon="-5.215583">
        <ele>2100.0</ele>
        <time>2014-06-30T12:21:41Z</time>
      </trkpt>
      <trkpt lat="40.510300" lon="-5.215417">
        <ele>2101.0</ele>
        <time>2014-06-30T12:21:42Z</time>
      </trkpt>
      <trkpt lat="40.510300" lon="-5.215267">
        <ele>2101.0</ele>
        <time>2014-06-30T12:21:43Z</time>
      </trkpt>
      <trkpt lat="40.510300" lon="-5.215100">
        <ele>2101.0</ele>
        <time>2014-06-30T12:21:44Z</time>
      </trkpt>
      <trkpt lat="40.510283" lon="-5.214933">
        <ele>2100.0</ele>
        <time>2014-06-30T12:21:45Z</time>
      </trkpt>
      <trkpt lat="40.510267" lon="-5.214767">
        <ele>2098.0</ele>
        <time>2014-06-30T12:21:46Z</time>
      </trkpt>
      <trkpt lat="40.510250" lon="-5.214600">
        <ele>2096.0</ele>
        <time>2014-06-30T12:21:47Z</time>
      </trkpt>
      <trkpt lat="40.510250" lon="-5.214433">
        <ele>2095.0</ele>
        <time>2014-06-30T12:21:48Z</time>
      </trkpt>
      <trkpt lat="40.510267" lon="-5.214250">
        <ele>2093.0</ele>
        <time>2014-06-30T12:21:49Z</time>
      </trkpt>
      <trkpt lat="40.510283" lon="-5.214067">
        <ele>2091.0</ele>
        <time>2014-06-30T12:21:50Z</time>
      </trkpt>
      <trkpt lat="40.510300" lon="-5.213900">
        <ele>2089.0</ele>
        <time>2014-06-30T12:21:51Z</time>
      </trkpt>
      <trkpt lat="40.510317" lon="-5.213733">
        <ele>2088.0</ele>
        <time>2014-06-30T12:21:52Z</time>
      </trkpt>
      <trkpt lat="40.510333" lon="-5.213567">
        <ele>2086.0</ele>
        <time>2014-06-30T12:21:53Z</time>
      </trkpt>
      <trkpt lat="40.510367" lon="-5.213400">
        <ele>2084.0</ele>
        <time>2014-06-30T12:21:54Z</time>
      </trkpt>
      <trkpt lat="40.510400" lon="-5.213233">
        <ele>2083.0</ele>
        <time>2014-06-30T12:21:55Z</time>
      </trkpt>
      <trkpt lat="40.510400" lon="-5.213050">
        <ele>2081.0</ele>
        <time>2014-06-30T12:21:56Z</time>
      </trkpt>
      <trkpt lat="40.510417" lon="-5.212883">
        <ele>2080.0</ele>
        <time>2014-06-30T12:21:57Z</time>
      </trkpt>
      <trkpt lat="40.510433" lon="-5.212717">
        <ele>2079.0</ele>
        <time>2014-06-30T12:21:58Z</time>
      </trkpt>
      <trkpt lat="40.510450" lon="-5.212567">
        <ele>2078.0</ele>
        <time>2014-06-30T12:21:59Z</time>
      </trkpt>
      <trkpt lat="40.510467" lon="-5.212400">
        <ele>2077.0</ele>
        <time>2014-06-30T12:22:00Z</time>
      </trkpt>
      <trkpt lat="40.510483" lon="-5.212233">
        <ele>2076.0</ele>
        <time>2014-06-30T12:22:01Z</time>
      </trkpt>
      <trkpt lat="40.510500" lon="-5.212067">
        <ele>2076.0</ele>
        <time>2014-06-30T12:22:02Z</time>
      </trkpt>
      <trkpt lat="40.510517" lon="-5.211900">
        <ele>2075.0</ele>
        <time>2014-06-30T12:22:03Z</time>
      </trkpt>
      <trkpt lat="40.510533" lon="-5.211717">
        <ele>2076.0</ele>
        <time>2014-06-30T12:22:04Z</time>
      </trkpt>
      <trkpt lat="40.510550" lon="-5.211567">
        <ele>2076.0</ele>
        <time>2014-06-30T12:22:05Z</time>
      </trkpt>
      <trkpt lat="40.510567" lon="-5.211400">
        <ele>2079.0</ele>
        <time>2014-06-30T12:22:06Z</time>
      </trkpt>
      <trkpt lat="40.510567" lon="-5.211233">
        <ele>2083.0</ele>
        <time>2014-06-30T12:22:07Z</time>
      </trkpt>
      <trkpt lat="40.510567" lon="-5.211100">
        <ele>2086.0</ele>
        <time>2014-06-30T12:22:08Z</time>
      </trkpt>
      <trkpt lat="40.510550" lon="-5.210967">
        <ele>2089.0</ele>
        <time>2014-06-30T12:22:09Z</time>
      </trkpt>
      <trkpt lat="40.510533" lon="-5.210883">
        <ele>2086.0</ele>
        <time>2014-06-30T12:22:10Z</time>
      </trkpt>
      <trkpt lat="40.510517" lon="-5.210767">
        <ele>2087.0</ele>
        <time>2014-06-30T12:22:11Z</time>
      </trkpt>
      <trkpt lat="40.510500" lon="-5.210633">
        <ele>2088.0</ele>
        <time>2014-06-30T12:22:12Z</time>
      </trkpt>
      <trkpt lat="40.510483" lon="-5.210467">
        <ele>2089.0</ele>
        <time>2014-06-30T12:22:13Z</time>
      </trkpt>
      <trkpt lat="40.510500" lon="-5.210317">
        <ele>2091.0</ele>
        <time>2014-06-30T12:22:14Z</time>
      </trkpt>
      <trkpt lat="40.510533" lon="-5.210150">
        <ele>2093.0</ele>
        <time>2014-06-30T12:22:15Z</time>
      </trkpt>
      <trkpt lat="40.510617" lon="-5.210033">
        <ele>2095.0</ele>
        <time>2014-06-30T12:22:16Z</time>
      </trkpt>
      <trkpt lat="40.510717" lon="-5.209950">
        <ele>2097.0</ele>
        <time>2014-06-30T12:22:17Z</time>
      </trkpt>
      <trkpt lat="40.510800" lon="-5.209933">
        <ele>2101.0</ele>
        <time>2014-06-30T12:22:18Z</time>
      </trkpt>
      <trkpt lat="40.510883" lon="-5.209917">
        <ele>2104.0</ele>
        <time>2014-06-30T12:22:19Z</time>
      </trkpt>
      <trkpt lat="40.510933" lon="-5.209900">
        <ele>2106.0</ele>
        <time>2014-06-30T12:22:20Z</time>
      </trkpt>
      <trkpt lat="40.511000" lon="-5.209883">
        <ele>2108.0</ele>
        <time>2014-06-30T12:22:21Z</time>
      </trkpt>
      <trkpt lat="40.511050" lon="-5.209883">
        <ele>2107.0</ele>
        <time>2014-06-30T12:22:22Z</time>
      </trkpt>
      <trkpt lat="40.511117" lon="-5.209883">
        <ele>2108.0</ele>
        <time>2014-06-30T12:22:23Z</time>
      </trkpt>
      <trkpt lat="40.511167" lon="-5.209933">
        <ele>2109.0</ele>
        <time>2014-06-30T12:22:24Z</time>
      </trkpt>
      <trkpt lat="40.511200" lon="-5.209983">
        <ele>2110.0</ele>
        <time>2014-06-30T12:22:25Z</time>
      </trkpt>
      <trkpt lat="40.511183" lon="-5.210050">
        <ele>2111.0</ele>
        <time>2014-06-30T12:22:26Z</time>
      </trkpt>
      <trkpt lat="40.511150" lon="-5.210083">
        <ele>2111.0</ele>
        <time>2014-06-30T12:22:27Z</time>
      </trkpt>
      <trkpt lat="40.511083" lon="-5.210100">
        <ele>2111.0</ele>
        <time>2014-06-30T12:22:28Z</time>
      </trkpt>
      <trkpt lat="40.511000" lon="-5.210100">
        <ele>2112.0</ele>
        <time>2014-06-30T12:22:29Z</time>
      </trkpt>
      <trkpt lat="40.510933" lon="-5.210083">
        <ele>2113.0</ele>
        <time>2014-06-30T12:22:30Z</time>
      </trkpt>
      <trkpt lat="40.510850" lon="-5.210050">
        <ele>2114.0</ele>
        <time>2014-06-30T12:22:31Z</time>
      </trkpt>
      <trkpt lat="40.510750" lon="-5.210017">
        <ele>2117.0</ele>
        <time>2014-06-30T12:22:32Z</time>
      </trkpt>
      <trkpt lat="40.510683" lon="-5.209967">
        <ele>2121.0</ele>
        <time>2014-06-30T12:22:33Z</time>
      </trkpt>
      <trkpt lat="40.510633" lon="-5.209917">
        <ele>2123.0</ele>
        <time>2014-06-30T12:22:34Z</time>
      </trkpt>
      <trkpt lat="40.510583" lon="-5.209867">
        <ele>2125.0</ele>
        <time>2014-06-30T12:22:35Z</time>
      </trkpt>
      <trkpt lat="40.510550" lon="-5.209817">
        <ele>2127.0</ele>
        <time>2014-06-30T12:22:36Z</time>
      </trkpt>
      <trkpt lat="40.510500" lon="-5.209750">
        <ele>2128.0</ele>
        <time>2014-06-30T12:22:37Z</time>
      </trkpt>
      <trkpt lat="40.510433" lon="-5.209667">
        <ele>2132.0</ele>
        <time>2014-06-30T12:22:38Z</time>
      </trkpt>
      <trkpt lat="40.510383" lon="-5.209583">
        <ele>2138.0</ele>
        <time>2014-06-30T12:22:39Z</time>
      </trkpt>
      <trkpt lat="40.510333" lon="-5.209517">
        <ele>2142.0</ele>
        <time>2014-06-30T12:22:40Z</time>
      </trkpt>
      <trkpt lat="40.510300" lon="-5.209433">
        <ele>2145.0</ele>
        <time>2014-06-30T12:22:41Z</time>
      </trkpt>
      <trkpt lat="40.510267" lon="-5.209350">
        <ele>2146.0</ele>
        <time>2014-06-30T12:22:42Z</time>
      </trkpt>
      <trkpt lat="40.510233" lon="-5.209233">
        <ele>2145.0</ele>
        <time>2014-06-30T12:22:43Z</time>
      </trkpt>
      <trkpt lat="40.510233" lon="-5.209100">
        <ele>2147.0</ele>
        <time>2014-06-30T12:22:44Z</time>
      </trkpt>
      <trkpt lat="40.510233" lon="-5.208967">
        <ele>2149.0</ele>
        <time>2014-06-30T12:22:45Z</time>
      </trkpt>
      <trkpt lat="40.510267" lon="-5.208850">
        <ele>2152.0</ele>
        <time>2014-06-30T12:22:46Z</time>
      </trkpt>
      <trkpt lat="40.510317" lon="-5.208733">
        <ele>2155.0</ele>
        <time>2014-06-30T12:22:47Z</time>
      </trkpt>
      <trkpt lat="40.510383" lon="-5.208650">
        <ele>2156.0</ele>
        <time>2014-06-30T12:22:48Z</time>
      </trkpt>
      <trkpt lat="40.510483" lon="-5.208567">
        <ele>2157.0</ele>
        <time>2014-06-30T12:22:49Z</time>
      </trkpt>
      <trkpt lat="40.510567" lon="-5.208533">
        <ele>2160.0</ele>
        <time>2014-06-30T12:22:50Z</time>
      </trkpt>
      <trkpt lat="40.510650" lon="-5.208550">
        <ele>2163.0</ele>
        <time>2014-06-30T12:22:51Z</time>
      </trkpt>
      <trkpt lat="40.510700" lon="-5.208617">
        <ele>2165.0</ele>
        <time>2014-06-30T12:22:52Z</time>
      </trkpt>
      <trkpt lat="40.510717" lon="-5.208667">
        <ele>2168.0</ele>
        <time>2014-06-30T12:22:53Z</time>
      </trkpt>
      <trkpt lat="40.510717" lon="-5.208733">
        <ele>2170.0</ele>
        <time>2014-06-30T12:22:54Z</time>
      </trkpt>
      <trkpt lat="40.510700" lon="-5.208767">
        <ele>2173.0</ele>
        <time>2014-06-30T12:22:55Z</time>
      </trkpt>
      <trkpt lat="40.510683" lon="-5.208800">
        <ele>2176.0</ele>
        <time>2014-06-30T12:22:56Z</time>
      </trkpt>
      <trkpt lat="40.510667" lon="-5.208833">
        <ele>2178.0</ele>
        <time>2014-06-30T12:22:57Z</time>
      </trkpt>
      <trkpt lat="40.510617" lon="-5.208833">
        <ele>2179.0</ele>
        <time>2014-06-30T12:22:58Z</time>
      </trkpt>
      <trkpt lat="40.510550" lon="-5.208783">
        <ele>2181.0</ele>
        <time>2014-06-30T12:22:59Z</time>
      </trkpt>
      <trkpt lat="40.510483" lon="-5.208683">
        <ele>2182.0</ele>
        <time>2014-06-30T12:23:00Z</time>
      </trkpt>
      <trkpt lat="40.510450" lon="-5.208550">
        <ele>2184.0</ele>
        <time>2014-06-30T12:23:01Z</time>
      </trkpt>
      <trkpt lat="40.510450" lon="-5.208433">
        <ele>2187.0</ele>
        <time>2014-06-30T12:23:02Z</time>
      </trkpt>
      <trkpt lat="40.510450" lon="-5.208317">
        <ele>2190.0</ele>
        <time>2014-06-30T12:23:03Z</time>
      </trkpt>
      <trkpt lat="40.510467" lon="-5.208217">
        <ele>2191.0</ele>
        <time>2014-06-30T12:23:04Z</time>
      </trkpt>
      <trkpt lat="40.510500" lon="-5.208100">
        <ele>2193.0</ele>
        <time>2014-06-30T12:23:05Z</time>
      </trkpt>
      <trkpt lat="40.510533" lon="-5.207983">
        <ele>2194.0</ele>
        <time>2014-06-30T12:23:06Z</time>
      </trkpt>
      <trkpt lat="40.510600" lon="-5.207867">
        <ele>2194.0</ele>
        <time>2014-06-30T12:23:07Z</time>
      </trkpt>
      <trkpt lat="40.510683" lon="-5.207783">
        <ele>2195.0</ele>
        <time>2014-06-30T12:23:08Z</time>
      </trkpt>
      <trkpt lat="40.510783" lon="-5.207733">
        <ele>2196.0</ele>
        <time>2014-06-30T12:23:09Z</time>
      </trkpt>
      <trkpt lat="40.510883" lon="-5.207717">
        <ele>2198.0</ele>
        <time>2014-06-30T12:23:10Z</time>
      </trkpt>
      <trkpt lat="40.510950" lon="-5.207717">
        <ele>2200.0</ele>
        <time>2014-06-30T12:23:11Z</time>
      </trkpt>
      <trkpt lat="40.511017" lon="-5.207717">
        <ele>2201.0</ele>
        <time>2014-06-30T12:23:12Z</time>
      </trkpt>
      <trkpt lat="40.511067" lon="-5.207717">
        <ele>2202.0</ele>
        <time>2014-06-30T12:23:13Z</time>
      </trkpt>
      <trkpt lat="40.511133" lon="-5.207717">
        <ele>2204.0</ele>
        <time>2014-06-30T12:23:14Z</time>
      </trkpt>
      <trkpt lat="40.511217" lon="-5.207750">
        <ele>2204.0</ele>
        <time>2014-06-30T12:23:15Z</time>
      </trkpt>
      <trkpt lat="40.511283" lon="-5.207783">
        <ele>2205.0</ele>
        <time>2014-06-30T12:23:16Z</time>
      </trkpt>
      <trkpt lat="40.511333" lon="-5.207850">
        <ele>2205.0</ele>
        <time>2014-06-30T12:23:17Z</time>
      </trkpt>
      <trkpt lat="40.511350" lon="-5.207900">
        <ele>2206.0</ele>
        <time>2014-06-30T12:23:18Z</time>
      </trkpt>
      <trkpt lat="40.511333" lon="-5.207967">
        <ele>2204.0</ele>
        <time>2014-06-30T12:23:19Z</time>
      </trkpt>
      <trkpt lat="40.511283" lon="-5.208017">
        <ele>2205.0</ele>
        <time>2014-06-30T12:23:20Z</time>
      </trkpt>
      <trkpt lat="40.511217" lon="-5.208050">
        <ele>2205.0</ele>
        <time>2014-06-30T12:23:21Z</time>
      </trkpt>
      <trkpt lat="40.511133" lon="-5.208067">
        <ele>2206.0</ele>
        <time>2014-06-30T12:23:22Z</time>
      </trkpt>
      <trkpt lat="40.511050" lon="-5.208050">
        <ele>2206.0</ele>
        <time>2014-06-30T12:23:23Z</time>
      </trkpt>
      <trkpt lat="40.510967" lon="-5.208000">
        <ele>2209.0</ele>
        <time>2014-06-30T12:23:24Z</time>
      </trkpt>
      <trkpt lat="40.510900" lon="-5.207933">
        <ele>2213.0</ele>
        <time>2014-06-30T12:23:25Z</time>
      </trkpt>
      <trkpt lat="40.510833" lon="-5.207867">
        <ele>2216.0</ele>
        <time>2014-06-30T12:23:26Z</time>
      </trkpt>
      <trkpt lat="40.510783" lon="-5.207800">
        <ele>2218.0</ele>
        <time>2014-06-30T12:23:27Z</time>
      </trkpt>
      <trkpt lat="40.510750" lon="-5.207717">
        <ele>2219.0</ele>
        <time>2014-06-30T12:23:28Z</time>
      </trkpt>
      <trkpt lat="40.510700" lon="-5.207617">
        <ele>2221.0</ele>
        <time>2014-06-30T12:23:29Z</time>
      </trkpt>
      <trkpt lat="40.510683" lon="-5.207483">
        <ele>2222.0</ele>
        <time>2014-06-30T12:23:30Z</time>
      </trkpt>
      <trkpt lat="40.510667" lon="-5.207350">
        <ele>2222.0</ele>
        <time>2014-06-30T12:23:31Z</time>
      </trkpt>
      <trkpt lat="40.510683" lon="-5.207200">
        <ele>2223.0</ele>
        <time>2014-06-30T12:23:32Z</time>
      </trkpt>
      <trkpt lat="40.510733" lon="-5.207067">
        <ele>2225.0</ele>
        <time>2014-06-30T12:23:33Z</time>
      </trkpt>
      <trkpt lat="40.510783" lon="-5.206950">
        <ele>2229.0</ele>
        <time>2014-06-30T12:23:34Z</time>
      </trkpt>
      <trkpt lat="40.510850" lon="-5.206850">
        <ele>2232.0</ele>
        <time>2014-06-30T12:23:35Z</time>
      </trkpt>
      <trkpt lat="40.510933" lon="-5.206800">
        <ele>2234.0</ele>
        <time>2014-06-30T12:23:36Z</time>
      </trkpt>
      <trkpt lat="40.511000" lon="-5.206750">
        <ele>2235.0</ele>
        <time>2014-06-30T12:23:37Z</time>
      </trkpt>
      <trkpt lat="40.511100" lon="-5.206733">
        <ele>2237.0</ele>
        <time>2014-06-30T12:23:38Z</time>
      </trkpt>
      <trkpt lat="40.511183" lon="-5.206750">
        <ele>2239.0</ele>
        <time>2014-06-30T12:23:39Z</time>
      </trkpt>
      <trkpt lat="40.511267" lon="-5.206800">
        <ele>2241.0</ele>
        <time>2014-06-30T12:23:40Z</time>
      </trkpt>
      <trkpt lat="40.511317" lon="-5.206850">
        <ele>2243.0</ele>
        <time>2014-06-30T12:23:41Z</time>
      </trkpt>
      <trkpt lat="40.511333" lon="-5.206917">
        <ele>2245.0</ele>
        <time>2014-06-30T12:23:42Z</time>
      </trkpt>
      <trkpt lat="40.511300" lon="-5.206983">
        <ele>2245.0</ele>
        <time>2014-06-30T12:23:43Z</time>
      </trkpt>
      <trkpt lat="40.511233" lon="-5.207000">
        <ele>2246.0</ele>
        <time>2014-06-30T12:23:44Z</time>
      </trkpt>
      <trkpt lat="40.511167" lon="-5.206983">
        <ele>2247.0</ele>
        <time>2014-06-30T12:23:45Z</time>
      </trkpt>
      <trkpt lat="40.511100" lon="-5.206933">
        <ele>2247.0</ele>
        <time>2014-06-30T12:23:46Z</time>
      </trkpt>
      <trkpt lat="40.511033" lon="-5.206833">
        <ele>2249.0</ele>
        <time>2014-06-30T12:23:47Z</time>
      </trkpt>
      <trkpt lat="40.511000" lon="-5.206733">
        <ele>2250.0</ele>
        <time>2014-06-30T12:23:48Z</time>
      </trkpt>
      <trkpt lat="40.510967" lon="-5.206633">
        <ele>2255.0</ele>
        <time>2014-06-30T12:23:49Z</time>
      </trkpt>
      <trkpt lat="40.510950" lon="-5.206533">
        <ele>2257.0</ele>
        <time>2014-06-30T12:23:50Z</time>
      </trkpt>
      <trkpt lat="40.510950" lon="-5.206417">
        <ele>2258.0</ele>
        <time>2014-06-30T12:23:51Z</time>
      </trkpt>
      <trkpt lat="40.510950" lon="-5.206300">
        <ele>2260.0</ele>
        <time>2014-06-30T12:23:52Z</time>
      </trkpt>
      <trkpt lat="40.510967" lon="-5.206150">
        <ele>2262.0</ele>
        <time>2014-06-30T12:23:53Z</time>
      </trkpt>
      <trkpt lat="40.511017" lon="-5.206033">
        <ele>2265.0</ele>
        <time>2014-06-30T12:23:54Z</time>
      </trkpt>
      <trkpt lat="40.511100" lon="-5.205933">
        <ele>2267.0</ele>
        <time>2014-06-30T12:23:55Z</time>
      </trkpt>
      <trkpt lat="40.511200" lon="-5.205900">
        <ele>2268.0</ele>
        <time>2014-06-30T12:23:56Z</time>
      </trkpt>
      <trkpt lat="40.511300" lon="-5.205900">
        <ele>2270.0</ele>
        <time>2014-06-30T12:23:57Z</time>
      </trkpt>
      <trkpt lat="40.511400" lon="-5.205950">
        <ele>2271.0</ele>
        <time>2014-06-30T12:23:58Z</time>
      </trkpt>
      <trkpt lat="40.511450" lon="-5.206017">
        <ele>2273.0</ele>
        <time>2014-06-30T12:23:59Z</time>
      </trkpt>
      <trkpt lat="40.511483" lon="-5.206083">
        <ele>2275.0</ele>
        <time>2014-06-30T12:24:00Z</time>
      </trkpt>
      <trkpt lat="40.511450" lon="-5.206150">
        <ele>2277.0</ele>
        <time>2014-06-30T12:24:01Z</time>
      </trkpt>
      <trkpt lat="40.511400" lon="-5.206183">
        <ele>2278.0</ele>
        <time>2014-06-30T12:24:02Z</time>
      </trkpt>
      <trkpt lat="40.511317" lon="-5.206167">
        <ele>2279.0</ele>
        <time>2014-06-30T12:24:03Z</time>
      </trkpt>
      <trkpt lat="40.511233" lon="-5.206100">
        <ele>2281.0</ele>
        <time>2014-06-30T12:24:04Z</time>
      </trkpt>
      <trkpt lat="40.511167" lon="-5.206033">
        <ele>2285.0</ele>
        <time>2014-06-30T12:24:05Z</time>
      </trkpt>
      <trkpt lat="40.511117" lon="-5.205917">
        <ele>2288.0</ele>
        <time>2014-06-30T12:24:06Z</time>
      </trkpt>
      <trkpt lat="40.511117" lon="-5.205800">
        <ele>2290.0</ele>
        <time>2014-06-30T12:24:07Z</time>
      </trkpt>
      <trkpt lat="40.511167" lon="-5.205683">
        <ele>2292.0</ele>
        <time>2014-06-30T12:24:08Z</time>
      </trkpt>
      <trkpt lat="40.511250" lon="-5.205583">
        <ele>2293.0</ele>
        <time>2014-06-30T12:24:09Z</time>
      </trkpt>
      <trkpt lat="40.511350" lon="-5.205533">
        <ele>2295.0</ele>
        <time>2014-06-30T12:24:10Z</time>
      </trkpt>
      <trkpt lat="40.511450" lon="-5.205550">
        <ele>2297.0</ele>
        <time>2014-06-30T12:24:11Z</time>
      </trkpt>
      <trkpt lat="40.511500" lon="-5.205617">
        <ele>2299.0</ele>
        <time>2014-06-30T12:24:12Z</time>
      </trkpt>
      <trkpt lat="40.511517" lon="-5.205700">
        <ele>2301.0</ele>
        <time>2014-06-30T12:24:13Z</time>
      </trkpt>
      <trkpt lat="40.511500" lon="-5.205783">
        <ele>2304.0</ele>
        <time>2014-06-30T12:24:14Z</time>
      </trkpt>
      <trkpt lat="40.511450" lon="-5.205817">
        <ele>2307.0</ele>
        <time>2014-06-30T12:24:15Z</time>
      </trkpt>
      <trkpt lat="40.511383" lon="-5.205800">
        <ele>2309.0</ele>
        <time>2014-06-30T12:24:16Z</time>
      </trkpt>
      <trkpt lat="40.511300" lon="-5.205750">
        <ele>2311.0</ele>
        <time>2014-06-30T12:24:17Z</time>
      </trkpt>
      <trkpt lat="40.511217" lon="-5.205683">
        <ele>2313.0</ele>
        <time>2014-06-30T12:24:18Z</time>
      </trkpt>
      <trkpt lat="40.511167" lon="-5.205567">
        <ele>2316.0</ele>
        <time>2014-06-30T12:24:19Z</time>
      </trkpt>
      <trkpt lat="40.511150" lon="-5.205433">
        <ele>2319.0</ele>
        <time>2014-06-30T12:24:20Z</time>
      </trkpt>
      <trkpt lat="40.511200" lon="-5.205300">
        <ele>2321.0</ele>
        <time>2014-06-30T12:24:21Z</time>
      </trkpt>
      <trkpt lat="40.511267" lon="-5.205183">
        <ele>2322.0</ele>
        <time>2014-06-30T12:24:22Z</time>
      </trkpt>
      <trkpt lat="40.511350" lon="-5.205117">
        <ele>2324.0</ele>
        <time>2014-06-30T12:24:23Z</time>
      </trkpt>
      <trkpt lat="40.511433" lon="-5.205100">
        <ele>2326.0</ele>
        <time>2014-06-30T12:24:24Z</time>
      </trkpt>
      <trkpt lat="40.511517" lon="-5.205117">
        <ele>2328.0</ele>
        <time>2014-06-30T12:24:25Z</time>
      </trkpt>
      <trkpt lat="40.511567" lon="-5.205167">
        <ele>2329.0</ele>
        <time>2014-06-30T12:24:26Z</time>
      </trkpt>
      <trkpt lat="40.511617" lon="-5.205233">
        <ele>2331.0</ele>
        <time>2014-06-30T12:24:27Z</time>
      </trkpt>
      <trkpt lat="40.511633" lon="-5.205300">
        <ele>2333.0</ele>
        <time>2014-06-30T12:24:28Z</time>
      </trkpt>
      <trkpt lat="40.511633" lon="-5.205383">
        <ele>2335.0</ele>
        <time>2014-06-30T12:24:29Z</time>
      </trkpt>
      <trkpt lat="40.511583" lon="-5.205450">
        <ele>2336.0</ele>
        <time>2014-06-30T12:24:30Z</time>
      </trkpt>
      <trkpt lat="40.511517" lon="-5.205467">
        <ele>2337.0</ele>
        <time>2014-06-30T12:24:31Z</time>
      </trkpt>
      <trkpt lat="40.511433" lon="-5.205417">
        <ele>2338.0</ele>
        <time>2014-06-30T12:24:32Z</time>
      </trkpt>
      <trkpt lat="40.511367" lon="-5.205317">
        <ele>2339.0</ele>
        <time>2014-06-30T12:24:33Z</time>
      </trkpt>
      <trkpt lat="40.511333" lon="-5.205183">
        <ele>2341.0</ele>
        <time>2014-06-30T12:24:34Z</time>
      </trkpt>
      <trkpt lat="40.511350" lon="-5.205050">
        <ele>2345.0</ele>
        <time>2014-06-30T12:24:35Z</time>
      </trkpt>
      <trkpt lat="40.511383" lon="-5.204950">
        <ele>2347.0</ele>
        <time>2014-06-30T12:24:36Z</time>
      </trkpt>
      <trkpt lat="40.511417" lon="-5.204850">
        <ele>2350.0</ele>
        <time>2014-06-30T12:24:37Z</time>
      </trkpt>
      <trkpt lat="40.511450" lon="-5.204767">
        <ele>2351.0</ele>
        <time>2014-06-30T12:24:38Z</time>
      </trkpt>
      <trkpt lat="40.511483" lon="-5.204683">
        <ele>2352.0</ele>
        <time>2014-06-30T12:24:39Z</time>
      </trkpt>
      <trkpt lat="40.511550" lon="-5.204600">
        <ele>2351.0</ele>
        <time>2014-06-30T12:24:40Z</time>
      </trkpt>
      <trkpt lat="40.511650" lon="-5.204550">
        <ele>2351.0</ele>
        <time>2014-06-30T12:24:41Z</time>
      </trkpt>
      <trkpt lat="40.511733" lon="-5.204550">
        <ele>2351.0</ele>
        <time>2014-06-30T12:24:42Z</time>
      </trkpt>
      <trkpt lat="40.511833" lon="-5.204583">
        <ele>2352.0</ele>
        <time>2014-06-30T12:24:43Z</time>
      </trkpt>
      <trkpt lat="40.511883" lon="-5.204650">
        <ele>2353.0</ele>
        <time>2014-06-30T12:24:44Z</time>
      </trkpt>
      <trkpt lat="40.511917" lon="-5.204717">
        <ele>2354.0</ele>
        <time>2014-06-30T12:24:45Z</time>
      </trkpt>
      <trkpt lat="40.511917" lon="-5.204783">
        <ele>2356.0</ele>
        <time>2014-06-30T12:24:46Z</time>
      </trkpt>
      <trkpt lat="40.511917" lon="-5.204833">
        <ele>2357.0</ele>
        <time>2014-06-30T12:24:47Z</time>
      </trkpt>
      <trkpt lat="40.511883" lon="-5.204900">
        <ele>2358.0</ele>
        <time>2014-06-30T12:24:48Z</time>
      </trkpt>
      <trkpt lat="40.511850" lon="-5.204933">
        <ele>2360.0</ele>
        <time>2014-06-30T12:24:49Z</time>
      </trkpt>
      <trkpt lat="40.511783" lon="-5.204933">
        <ele>2360.0</ele>
        <time>2014-06-30T12:24:50Z</time>
      </trkpt>
      <trkpt lat="40.511717" lon="-5.204883">
        <ele>2361.0</ele>
        <time>2014-06-30T12:24:51Z</time>
      </trkpt>
      <trkpt lat="40.511650" lon="-5.204800">
        <ele>2363.0</ele>
        <time>2014-06-30T12:24:52Z</time>
      </trkpt>
      <trkpt lat="40.511600" lon="-5.204700">
        <ele>2366.0</ele>
        <time>2014-06-30T12:24:53Z</time>
      </trkpt>
      <trkpt lat="40.511567" lon="-5.204583">
        <ele>2368.0</ele>
        <time>2014-06-30T12:24:54Z</time>
      </trkpt>
      <trkpt lat="40.511550" lon="-5.204483">
        <ele>2370.0</ele>
        <time>2014-06-30T12:24:55Z</time>
      </trkpt>
      <trkpt lat="40.511533" lon="-5.204400">
        <ele>2372.0</ele>
        <time>2014-06-30T12:24:56Z</time>
      </trkpt>
      <trkpt lat="40.511533" lon="-5.204300">
        <ele>2372.0</ele>
        <time>2014-06-30T12:24:57Z</time>
      </trkpt>
      <trkpt lat="40.511567" lon="-5.204200">
        <ele>2372.0</ele>
        <time>2014-06-30T12:24:58Z</time>
      </trkpt>
      <trkpt lat="40.511633" lon="-5.204117">
        <ele>2370.0</ele>
        <time>2014-06-30T12:24:59Z</time>
      </trkpt>
      <trkpt lat="40.511733" lon="-5.204050">
        <ele>2368.0</ele>
        <time>2014-06-30T12:25:00Z</time>
      </trkpt>
      <trkpt lat="40.511833" lon="-5.204017">
        <ele>2369.0</ele>
        <time>2014-06-30T12:25:01Z</time>
      </trkpt>
      <trkpt lat="40.511917" lon="-5.204033">
        <ele>2369.0</ele>
        <time>2014-06-30T12:25:02Z</time>
      </trkpt>
      <trkpt lat="40.512000" lon="-5.204067">
        <ele>2370.0</ele>
        <time>2014-06-30T12:25:03Z</time>
      </trkpt>
      <trkpt lat="40.512050" lon="-5.204117">
        <ele>2372.0</ele>
        <time>2014-06-30T12:25:04Z</time>
      </trkpt>
      <trkpt lat="40.512100" lon="-5.204167">
        <ele>2373.0</ele>
        <time>2014-06-30T12:25:05Z</time>
      </trkpt>
      <trkpt lat="40.512133" lon="-5.204233">
        <ele>2374.0</ele>
        <time>2014-06-30T12:25:06Z</time>
      </trkpt>
      <trkpt lat="40.512183" lon="-5.204317">
        <ele>2375.0</ele>
        <time>2014-06-30T12:25:07Z</time>
      </trkpt>
      <trkpt lat="40.512233" lon="-5.204400">
        <ele>2376.0</ele>
        <time>2014-06-30T12:25:08Z</time>
      </trkpt>
      <trkpt lat="40.512267" lon="-5.204483">
        <ele>2377.0</ele>
        <time>2014-06-30T12:25:09Z</time>
      </trkpt>
      <trkpt lat="40.512267" lon="-5.204550">
        <ele>2377.0</ele>
        <time>2014-06-30T12:25:10Z</time>
      </trkpt>
      <trkpt lat="40.512250" lon="-5.204617">
        <ele>2375.0</ele>
        <time>2014-06-30T12:25:11Z</time>
      </trkpt>
      <trkpt lat="40.512200" lon="-5.204650">
        <ele>2374.0</ele>
        <time>2014-06-30T12:25:12Z</time>
      </trkpt>
      <trkpt lat="40.512117" lon="-5.204667">
        <ele>2372.0</ele>
        <time>2014-06-30T12:25:13Z</time>
      </trkpt>
      <trkpt lat="40.512033" lon="-5.204617">
        <ele>2370.0</ele>
        <time>2014-06-30T12:25:14Z</time>
      </trkpt>
      <trkpt lat="40.511967" lon="-5.204517">
        <ele>2368.0</ele>
        <time>2014-06-30T12:25:15Z</time>
      </trkpt>
      <trkpt lat="40.511900" lon="-5.204400">
        <ele>2367.0</ele>
        <time>2014-06-30T12:25:16Z</time>
      </trkpt>
      <trkpt lat="40.511833" lon="-5.204283">
        <ele>2367.0</ele>
        <time>2014-06-30T12:25:17Z</time>
      </trkpt>
      <trkpt lat="40.511800" lon="-5.204167">
        <ele>2369.0</ele>
        <time>2014-06-30T12:25:18Z</time>
      </trkpt>
      <trkpt lat="40.511800" lon="-5.204067">
        <ele>2370.0</ele>
        <time>2014-06-30T12:25:19Z</time>
      </trkpt>
      <trkpt lat="40.511817" lon="-5.203983">
        <ele>2371.0</ele>
        <time>2014-06-30T12:25:20Z</time>
      </trkpt>
      <trkpt lat="40.511867" lon="-5.203900">
        <ele>2372.0</ele>
        <time>2014-06-30T12:25:21Z</time>
      </trkpt>
      <trkpt lat="40.511917" lon="-5.203800">
        <ele>2373.0</ele>
        <time>2014-06-30T12:25:22Z</time>
      </trkpt>
      <trkpt lat="40.511950" lon="-5.203683">
        <ele>2373.0</ele>
        <time>2014-06-30T12:25:23Z</time>
      </trkpt>
      <trkpt lat="40.512017" lon="-5.203583">
        <ele>2374.0</ele>
        <time>2014-06-30T12:25:24Z</time>
      </trkpt>
      <trkpt lat="40.512083" lon="-5.203517">
        <ele>2373.0</ele>
        <time>2014-06-30T12:25:25Z</time>
      </trkpt>
      <trkpt lat="40.512167" lon="-5.203467">
        <ele>2373.0</ele>
        <time>2014-06-30T12:25:26Z</time>
      </trkpt>
      <trkpt lat="40.512267" lon="-5.203450">
        <ele>2374.0</ele>
        <time>2014-06-30T12:25:27Z</time>
      </trkpt>
      <trkpt lat="40.512350" lon="-5.203433">
        <ele>2375.0</ele>
        <time>2014-06-30T12:25:28Z</time>
      </trkpt>
      <trkpt lat="40.512417" lon="-5.203433">
        <ele>2377.0</ele>
        <time>2014-06-30T12:25:29Z</time>
      </trkpt>
      <trkpt lat="40.512500" lon="-5.203450">
        <ele>2378.0</ele>
        <time>2014-06-30T12:25:30Z</time>
      </trkpt>
      <trkpt lat="40.512550" lon="-5.203483">
        <ele>2378.0</ele>
        <time>2014-06-30T12:25:31Z</time>
      </trkpt>
      <trkpt lat="40.512600" lon="-5.203533">
        <ele>2379.0</ele>
        <time>2014-06-30T12:25:32Z</time>
      </trkpt>
      <trkpt lat="40.512650" lon="-5.203583">
        <ele>2378.0</ele>
        <time>2014-06-30T12:25:33Z</time>
      </trkpt>
      <trkpt lat="40.512667" lon="-5.203667">
        <ele>2377.0</ele>
        <time>2014-06-30T12:25:34Z</time>
      </trkpt>
      <trkpt lat="40.512633" lon="-5.203767">
        <ele>2373.0</ele>
        <time>2014-06-30T12:25:35Z</time>
      </trkpt>
      <trkpt lat="40.512567" lon="-5.203817">
        <ele>2371.0</ele>
        <time>2014-06-30T12:25:36Z</time>
      </trkpt>
      <trkpt lat="40.512500" lon="-5.203817">
        <ele>2370.0</ele>
        <time>2014-06-30T12:25:37Z</time>
      </trkpt>
      <trkpt lat="40.512417" lon="-5.203783">
        <ele>2368.0</ele>
        <time>2014-06-30T12:25:38Z</time>
      </trkpt>
      <trkpt lat="40.512350" lon="-5.203717">
        <ele>2368.0</ele>
        <time>2014-06-30T12:25:39Z</time>
      </trkpt>
      <trkpt lat="40.512317" lon="-5.203633">
        <ele>2368.0</ele>
        <time>2014-06-30T12:25:40Z</time>
      </trkpt>
      <trkpt lat="40.512267" lon="-5.203567">
        <ele>2367.0</ele>
        <time>2014-06-30T12:25:41Z</time>
      </trkpt>
      <trkpt lat="40.512217" lon="-5.203483">
        <ele>2368.0</ele>
        <time>2014-06-30T12:25:42Z</time>
      </trkpt>
      <trkpt lat="40.512167" lon="-5.203383">
        <ele>2366.0</ele>
        <time>2014-06-30T12:25:43Z</time>
      </trkpt>
      <trkpt lat="40.512117" lon="-5.203283">
        <ele>2364.0</ele>
        <time>2014-06-30T12:25:44Z</time>
      </trkpt>
      <trkpt lat="40.512067" lon="-5.203167">
        <ele>2364.0</ele>
        <time>2014-06-30T12:25:45Z</time>
      </trkpt>
      <trkpt lat="40.512033" lon="-5.203033">
        <ele>2364.0</ele>
        <time>2014-06-30T12:25:46Z</time>
      </trkpt>
      <trkpt lat="40.512017" lon="-5.202917">
        <ele>2366.0</ele>
        <time>2014-06-30T12:25:47Z</time>
      </trkpt>
      <trkpt lat="40.512017" lon="-5.202800">
        <ele>2367.0</ele>
        <time>2014-06-30T12:25:48Z</time>
      </trkpt>
      <trkpt lat="40.512033" lon="-5.202700">
        <ele>2367.0</ele>
        <time>2014-06-30T12:25:49Z</time>
      </trkpt>
      <trkpt lat="40.512067" lon="-5.202600">
        <ele>2368.0</ele>
        <time>2014-06-30T12:25:50Z</time>
      </trkpt>
      <trkpt lat="40.512100" lon="-5.202500">
        <ele>2368.0</ele>
        <time>2014-06-30T12:25:51Z</time>
      </trkpt>
      <trkpt lat="40.512150" lon="-5.202383">
        <ele>2368.0</ele>
        <time>2014-06-30T12:25:52Z</time>
      </trkpt>
      <trkpt lat="40.512233" lon="-5.202283">
        <ele>2367.0</ele>
        <time>2014-06-30T12:25:53Z</time>
      </trkpt>
      <trkpt lat="40.512317" lon="-5.202183">
        <ele>2367.0</ele>
        <time>2014-06-30T12:25:54Z</time>
      </trkpt>
      <trkpt lat="40.512417" lon="-5.202083">
        <ele>2367.0</ele>
        <time>2014-06-30T12:25:55Z</time>
      </trkpt>
      <trkpt lat="40.512517" lon="-5.202000">
        <ele>2368.0</ele>
        <time>2014-06-30T12:25:56Z</time>
      </trkpt>
      <trkpt lat="40.512617" lon="-5.201933">
        <ele>2368.0</ele>
        <time>2014-06-30T12:25:57Z</time>
      </trkpt>
      <trkpt lat="40.512717" lon="-5.201867">
        <ele>2369.0</ele>
        <time>2014-06-30T12:25:58Z</time>
      </trkpt>
      <trkpt lat="40.512800" lon="-5.201800">
        <ele>2370.0</ele>
        <time>2014-06-30T12:25:59Z</time>
      </trkpt>
      <trkpt lat="40.512900" lon="-5.201717">
        <ele>2370.0</ele>
        <time>2014-06-30T12:26:00Z</time>
      </trkpt>
      <trkpt lat="40.513000" lon="-5.201667">
        <ele>2371.0</ele>
        <time>2014-06-30T12:26:01Z</time>
      </trkpt>
      <trkpt lat="40.513117" lon="-5.201600">
        <ele>2372.0</ele>
        <time>2014-06-30T12:26:02Z</time>
      </trkpt>
      <trkpt lat="40.513200" lon="-5.201550">
        <ele>2373.0</ele>
        <time>2014-06-30T12:26:03Z</time>
      </trkpt>
      <trkpt lat="40.513283" lon="-5.201500">
        <ele>2373.0</ele>
        <time>2014-06-30T12:26:04Z</time>
      </trkpt>
      <trkpt lat="40.513367" lon="-5.201467">
        <ele>2372.0</ele>
        <time>2014-06-30T12:26:05Z</time>
      </trkpt>
      <trkpt lat="40.513467" lon="-5.201417">
        <ele>2368.0</ele>
        <time>2014-06-30T12:26:06Z</time>
      </trkpt>
      <trkpt lat="40.513567" lon="-5.201350">
        <ele>2364.0</ele>
        <time>2014-06-30T12:26:07Z</time>
      </trkpt>
      <trkpt lat="40.513683" lon="-5.201300">
        <ele>2361.0</ele>
        <time>2014-06-30T12:26:08Z</time>
      </trkpt>
      <trkpt lat="40.513800" lon="-5.201233">
        <ele>2360.0</ele>
        <time>2014-06-30T12:26:09Z</time>
      </trkpt>
      <trkpt lat="40.513900" lon="-5.201183">
        <ele>2357.0</ele>
        <time>2014-06-30T12:26:10Z</time>
      </trkpt>
      <trkpt lat="40.514017" lon="-5.201117">
        <ele>2355.0</ele>
        <time>2014-06-30T12:26:11Z</time>
      </trkpt>
      <trkpt lat="40.514117" lon="-5.201050">
        <ele>2352.0</ele>
        <time>2014-06-30T12:26:12Z</time>
      </trkpt>
      <trkpt lat="40.514217" lon="-5.200983">
        <ele>2350.0</ele>
        <time>2014-06-30T12:26:13Z</time>
      </trkpt>
      <trkpt lat="40.514317" lon="-5.200917">
        <ele>2346.0</ele>
        <time>2014-06-30T12:26:14Z</time>
      </trkpt>
      <trkpt lat="40.514417" lon="-5.200850">
        <ele>2342.0</ele>
        <time>2014-06-30T12:26:15Z</time>
      </trkpt>
      <trkpt lat="40.514517" lon="-5.200767">
        <ele>2338.0</ele>
        <time>2014-06-30T12:26:16Z</time>
      </trkpt>
      <trkpt lat="40.514617" lon="-5.200683">
        <ele>2335.0</ele>
        <time>2014-06-30T12:26:17Z</time>
      </trkpt>
      <trkpt lat="40.514700" lon="-5.200600">
        <ele>2332.0</ele>
        <time>2014-06-30T12:26:18Z</time>
      </trkpt>
      <trkpt lat="40.514800" lon="-5.200550">
        <ele>2330.0</ele>
        <time>2014-06-30T12:26:19Z</time>
      </trkpt>
      <trkpt lat="40.514900" lon="-5.200483">
        <ele>2327.0</ele>
        <time>2014-06-30T12:26:20Z</time>
      </trkpt>
      <trkpt lat="40.515000" lon="-5.200433">
        <ele>2324.0</ele>
        <time>2014-06-30T12:26:21Z</time>
      </trkpt>
      <trkpt lat="40.515083" lon="-5.200383">
        <ele>2322.0</ele>
        <time>2014-06-30T12:26:22Z</time>
      </trkpt>
      <trkpt lat="40.515167" lon="-5.200350">
        <ele>2321.0</ele>
        <time>2014-06-30T12:26:23Z</time>
      </trkpt>
      <trkpt lat="40.515267" lon="-5.200300">
        <ele>2318.0</ele>
        <time>2014-06-30T12:26:24Z</time>
      </trkpt>
      <trkpt lat="40.515367" lon="-5.200233">
        <ele>2315.0</ele>
        <time>2014-06-30T12:26:25Z</time>
      </trkpt>
      <trkpt lat="40.515483" lon="-5.200167">
        <ele>2312.0</ele>
        <time>2014-06-30T12:26:26Z</time>
      </trkpt>
      <trkpt lat="40.515583" lon="-5.200117">
        <ele>2310.0</ele>
        <time>2014-06-30T12:26:27Z</time>
      </trkpt>
      <trkpt lat="40.515667" lon="-5.200083">
        <ele>2309.0</ele>
        <time>2014-06-30T12:26:28Z</time>
      </trkpt>
      <trkpt lat="40.515767" lon="-5.200050">
        <ele>2306.0</ele>
        <time>2014-06-30T12:26:29Z</time>
      </trkpt>
      <trkpt lat="40.515867" lon="-5.200000">
        <ele>2304.0</ele>
        <time>2014-06-30T12:26:30Z</time>
      </trkpt>
      <trkpt lat="40.515967" lon="-5.199950">
        <ele>2302.0</ele>
        <time>2014-06-30T12:26:31Z</time>
      </trkpt>
      <trkpt lat="40.516067" lon="-5.199900">
        <ele>2302.0</ele>
        <time>2014-06-30T12:26:32Z</time>
      </trkpt>
      <trkpt lat="40.516183" lon="-5.199833">
        <ele>2303.0</ele>
        <time>2014-06-30T12:26:33Z</time>
      </trkpt>
      <trkpt lat="40.516283" lon="-5.199783">
        <ele>2305.0</ele>
        <time>2014-06-30T12:26:34Z</time>
      </trkpt>
      <trkpt lat="40.516367" lon="-5.199717">
        <ele>2306.0</ele>
        <time>2014-06-30T12:26:35Z</time>
      </trkpt>
      <trkpt lat="40.516450" lon="-5.199633">
        <ele>2307.0</ele>
        <time>2014-06-30T12:26:36Z</time>
      </trkpt>
      <trkpt lat="40.516533" lon="-5.199533">
        <ele>2309.0</ele>
        <time>2014-06-30T12:26:37Z</time>
      </trkpt>
      <trkpt lat="40.516600" lon="-5.199450">
        <ele>2310.0</ele>
        <time>2014-06-30T12:26:38Z</time>
      </trkpt>
      <trkpt lat="40.516650" lon="-5.199383">
        <ele>2312.0</ele>
        <time>2014-06-30T12:26:39Z</time>
      </trkpt>
      <trkpt lat="40.516717" lon="-5.199300">
        <ele>2314.0</ele>
        <time>2014-06-30T12:26:40Z</time>
      </trkpt>
      <trkpt lat="40.516767" lon="-5.199217">
        <ele>2316.0</ele>
        <time>2014-06-30T12:26:41Z</time>
      </trkpt>
      <trkpt lat="40.516850" lon="-5.199117">
        <ele>2317.0</ele>
        <time>2014-06-30T12:26:42Z</time>
      </trkpt>
      <trkpt lat="40.516917" lon="-5.199000">
        <ele>2318.0</ele>
        <time>2014-06-30T12:26:43Z</time>
      </trkpt>
      <trkpt lat="40.517000" lon="-5.198883">
        <ele>2320.0</ele>
        <time>2014-06-30T12:26:44Z</time>
      </trkpt>
      <trkpt lat="40.517050" lon="-5.198750">
        <ele>2323.0</ele>
        <time>2014-06-30T12:26:45Z</time>
      </trkpt>
      <trkpt lat="40.517067" lon="-5.198617">
        <ele>2326.0</ele>
        <time>2014-06-30T12:26:46Z</time>
      </trkpt>
      <trkpt lat="40.517083" lon="-5.198483">
        <ele>2329.0</ele>
        <time>2014-06-30T12:26:47Z</time>
      </trkpt>
      <trkpt lat="40.517100" lon="-5.198350">
        <ele>2331.0</ele>
        <time>2014-06-30T12:26:48Z</time>
      </trkpt>
      <trkpt lat="40.517133" lon="-5.198183">
        <ele>2333.0</ele>
        <time>2014-06-30T12:26:49Z</time>
      </trkpt>
      <trkpt lat="40.517167" lon="-5.198033">
        <ele>2337.0</ele>
        <time>2014-06-30T12:26:50Z</time>
      </trkpt>
      <trkpt lat="40.517200" lon="-5.197883">
        <ele>2341.0</ele>
        <time>2014-06-30T12:26:51Z</time>
      </trkpt>
      <trkpt lat="40.517250" lon="-5.197767">
        <ele>2350.0</ele>
        <time>2014-06-30T12:26:52Z</time>
      </trkpt>
      <trkpt lat="40.517300" lon="-5.197683">
        <ele>2354.0</ele>
        <time>2014-06-30T12:26:53Z</time>
      </trkpt>
      <trkpt lat="40.517367" lon="-5.197600">
        <ele>2357.0</ele>
        <time>2014-06-30T12:26:54Z</time>
      </trkpt>
      <trkpt lat="40.517450" lon="-5.197533">
        <ele>2360.0</ele>
        <time>2014-06-30T12:26:55Z</time>
      </trkpt>
      <trkpt lat="40.517550" lon="-5.197483">
        <ele>2364.0</ele>
        <time>2014-06-30T12:26:56Z</time>
      </trkpt>
      <trkpt lat="40.517633" lon="-5.197483">
        <ele>2367.0</ele>
        <time>2014-06-30T12:26:57Z</time>
      </trkpt>
      <trkpt lat="40.517700" lon="-5.197533">
        <ele>2369.0</ele>
        <time>2014-06-30T12:26:58Z</time>
      </trkpt>
      <trkpt lat="40.517733" lon="-5.197600">
        <ele>2371.0</ele>
        <time>2014-06-30T12:26:59Z</time>
      </trkpt>
      <trkpt lat="40.517750" lon="-5.197683">
        <ele>2374.0</ele>
        <time>2014-06-30T12:27:00Z</time>
      </trkpt>
      <trkpt lat="40.517733" lon="-5.197767">
        <ele>2377.0</ele>
        <time>2014-06-30T12:27:01Z</time>
      </trkpt>
      <trkpt lat="40.517700" lon="-5.197833">
        <ele>2370.0</ele>
        <time>2014-06-30T12:27:02Z</time>
      </trkpt>
      <trkpt lat="40.517683" lon="-5.197900">
        <ele>2371.0</ele>
        <time>2014-06-30T12:27:03Z</time>
      </trkpt>
      <trkpt lat="40.517667" lon="-5.197933">
        <ele>2374.0</ele>
        <time>2014-06-30T12:27:04Z</time>
      </trkpt>
      <trkpt lat="40.517633" lon="-5.197967">
        <ele>2373.0</ele>
        <time>2014-06-30T12:27:05Z</time>
      </trkpt>
      <trkpt lat="40.517600" lon="-5.198000">
        <ele>2374.0</ele>
        <time>2014-06-30T12:27:06Z</time>
      </trkpt>
      <trkpt lat="40.517550" lon="-5.198033">
        <ele>2375.0</ele>
        <time>2014-06-30T12:27:07Z</time>
      </trkpt>
      <trkpt lat="40.517500" lon="-5.198050">
        <ele>2377.0</ele>
        <time>2014-06-30T12:27:08Z</time>
      </trkpt>
      <trkpt lat="40.517433" lon="-5.198033">
        <ele>2380.0</ele>
        <time>2014-06-30T12:27:09Z</time>
      </trkpt>
      <trkpt lat="40.517367" lon="-5.197967">
        <ele>2382.0</ele>
        <time>2014-06-30T12:27:10Z</time>
      </trkpt>
      <trkpt lat="40.517300" lon="-5.197867">
        <ele>2385.0</ele>
        <time>2014-06-30T12:27:11Z</time>
      </trkpt>
      <trkpt lat="40.517250" lon="-5.197717">
        <ele>2387.0</ele>
        <time>2014-06-30T12:27:12Z</time>
      </trkpt>
      <trkpt lat="40.517233" lon="-5.197567">
        <ele>2390.0</ele>
        <time>2014-06-30T12:27:13Z</time>
      </trkpt>
      <trkpt lat="40.517233" lon="-5.197417">
        <ele>2394.0</ele>
        <time>2014-06-30T12:27:14Z</time>
      </trkpt>
      <trkpt lat="40.517233" lon="-5.197267">
        <ele>2397.0</ele>
        <time>2014-06-30T12:27:15Z</time>
      </trkpt>
      <trkpt lat="40.517250" lon="-5.197117">
        <ele>2399.0</ele>
        <time>2014-06-30T12:27:16Z</time>
      </trkpt>
      <trkpt lat="40.517267" lon="-5.196967">
        <ele>2402.0</ele>
        <time>2014-06-30T12:27:17Z</time>
      </trkpt>
      <trkpt lat="40.517317" lon="-5.196800">
        <ele>2403.0</ele>
        <time>2014-06-30T12:27:18Z</time>
      </trkpt>
      <trkpt lat="40.517383" lon="-5.196667">
        <ele>2406.0</ele>
        <time>2014-06-30T12:27:19Z</time>
      </trkpt>
      <trkpt lat="40.517450" lon="-5.196533">
        <ele>2408.0</ele>
        <time>2014-06-30T12:27:20Z</time>
      </trkpt>
      <trkpt lat="40.517517" lon="-5.196433">
        <ele>2411.0</ele>
        <time>2014-06-30T12:27:21Z</time>
      </trkpt>
      <trkpt lat="40.517583" lon="-5.196350">
        <ele>2414.0</ele>
        <time>2014-06-30T12:27:22Z</time>
      </trkpt>
      <trkpt lat="40.517667" lon="-5.196283">
        <ele>2416.0</ele>
        <time>2014-06-30T12:27:23Z</time>
      </trkpt>
      <trkpt lat="40.517750" lon="-5.196233">
        <ele>2418.0</ele>
        <time>2014-06-30T12:27:24Z</time>
      </trkpt>
      <trkpt lat="40.517850" lon="-5.196183">
        <ele>2420.0</ele>
        <time>2014-06-30T12:27:25Z</time>
      </trkpt>
      <trkpt lat="40.517950" lon="-5.196150">
        <ele>2424.0</ele>
        <time>2014-06-30T12:27:26Z</time>
      </trkpt>
      <trkpt lat="40.518067" lon="-5.196117">
        <ele>2429.0</ele>
        <time>2014-06-30T12:27:27Z</time>
      </trkpt>
      <trkpt lat="40.518150" lon="-5.196083">
        <ele>2433.0</ele>
        <time>2014-06-30T12:27:28Z</time>
      </trkpt>
      <trkpt lat="40.518233" lon="-5.196050">
        <ele>2436.0</ele>
        <time>2014-06-30T12:27:29Z</time>
      </trkpt>
      <trkpt lat="40.518317" lon="-5.196033">
        <ele>2440.0</ele>
        <time>2014-06-30T12:27:30Z</time>
      </trkpt>
      <trkpt lat="40.518383" lon="-5.196017">
        <ele>2443.0</ele>
        <time>2014-06-30T12:27:31Z</time>
      </trkpt>
      <trkpt lat="40.518483" lon="-5.196017">
        <ele>2446.0</ele>
        <time>2014-06-30T12:27:32Z</time>
      </trkpt>
      <trkpt lat="40.518567" lon="-5.196017">
        <ele>2450.0</ele>
        <time>2014-06-30T12:27:33Z</time>
      </trkpt>
      <trkpt lat="40.518650" lon="-5.196050">
        <ele>2454.0</ele>
        <time>2014-06-30T12:27:34Z</time>
      </trkpt>
      <trkpt lat="40.518700" lon="-5.196100">
        <ele>2458.0</ele>
        <time>2014-06-30T12:27:35Z</time>
      </trkpt>
      <trkpt lat="40.518733" lon="-5.196183">
        <ele>2460.0</ele>
        <time>2014-06-30T12:27:36Z</time>
      </trkpt>
      <trkpt lat="40.518750" lon="-5.196267">
        <ele>2461.0</ele>
        <time>2014-06-30T12:27:37Z</time>
      </trkpt>
      <trkpt lat="40.518733" lon="-5.196333">
        <ele>2464.0</ele>
        <time>2014-06-30T12:27:38Z</time>
      </trkpt>
      <trkpt lat="40.518700" lon="-5.196333">
        <ele>2467.0</ele>
        <time>2014-06-30T12:27:39Z</time>
      </trkpt>
      <trkpt lat="40.518667" lon="-5.196317">
        <ele>2470.0</ele>
        <time>2014-06-30T12:27:40Z</time>
      </trkpt>
      <trkpt lat="40.518633" lon="-5.196300">
        <ele>2472.0</ele>
        <time>2014-06-30T12:27:41Z</time>
      </trkpt>
      <trkpt lat="40.518600" lon="-5.196283">
        <ele>2474.0</ele>
        <time>2014-06-30T12:27:42Z</time>
      </trkpt>
      <trkpt lat="40.518533" lon="-5.196300">
        <ele>2476.0</ele>
        <time>2014-06-30T12:27:43Z</time>
      </trkpt>
      <trkpt lat="40.518450" lon="-5.196317">
        <ele>2479.0</ele>
        <time>2014-06-30T12:27:44Z</time>
      </trkpt>
      <trkpt lat="40.518367" lon="-5.196300">
        <ele>2484.0</ele>
        <time>2014-06-30T12:27:45Z</time>
      </trkpt>
      <trkpt lat="40.518300" lon="-5.196250">
        <ele>2490.0</ele>
        <time>2014-06-30T12:27:46Z</time>
      </trkpt>
      <trkpt lat="40.518267" lon="-5.196167">
        <ele>2494.0</ele>
        <time>2014-06-30T12:27:47Z</time>
      </trkpt>
      <trkpt lat="40.518217" lon="-5.196083">
        <ele>2497.0</ele>
        <time>2014-06-30T12:27:48Z</time>
      </trkpt>
      <trkpt lat="40.518167" lon="-5.196000">
        <ele>2499.0</ele>
        <time>2014-06-30T12:27:49Z</time>
      </trkpt>
      <trkpt lat="40.518100" lon="-5.195883">
        <ele>2502.0</ele>
        <time>2014-06-30T12:27:50Z</time>
      </trkpt>
      <trkpt lat="40.518067" lon="-5.195733">
        <ele>2504.0</ele>
        <time>2014-06-30T12:27:51Z</time>
      </trkpt>
      <trkpt lat="40.518083" lon="-5.195567">
        <ele>2506.0</ele>
        <time>2014-06-30T12:27:52Z</time>
      </trkpt>
      <trkpt lat="40.518117" lon="-5.195400">
        <ele>2508.0</ele>
        <time>2014-06-30T12:27:53Z</time>
      </trkpt>
      <trkpt lat="40.518183" lon="-5.195267">
        <ele>2512.0</ele>
        <time>2014-06-30T12:27:54Z</time>
      </trkpt>
      <trkpt lat="40.518267" lon="-5.195200">
        <ele>2516.0</ele>
        <time>2014-06-30T12:27:55Z</time>
      </trkpt>
      <trkpt lat="40.518333" lon="-5.195167">
        <ele>2519.0</ele>
        <time>2014-06-30T12:27:56Z</time>
      </trkpt>
      <trkpt lat="40.518400" lon="-5.195150">
        <ele>2522.0</ele>
        <time>2014-06-30T12:27:57Z</time>
      </trkpt>
      <trkpt lat="40.518467" lon="-5.195133">
        <ele>2524.0</ele>
        <time>2014-06-30T12:27:58Z</time>
      </trkpt>
      <trkpt lat="40.518567" lon="-5.195100">
        <ele>2527.0</ele>
        <time>2014-06-30T12:27:59Z</time>
      </trkpt>
      <trkpt lat="40.518650" lon="-5.195083">
        <ele>2532.0</ele>
        <time>2014-06-30T12:28:00Z</time>
      </trkpt>
      <trkpt lat="40.518733" lon="-5.195100">
        <ele>2535.0</ele>
        <time>2014-06-30T12:28:01Z</time>
      </trkpt>
      <trkpt lat="40.518767" lon="-5.195150">
        <ele>2538.0</ele>
        <time>2014-06-30T12:28:02Z</time>
      </trkpt>
      <trkpt lat="40.518783" lon="-5.195233">
        <ele>2541.0</ele>
        <time>2014-06-30T12:28:03Z</time>
      </trkpt>
      <trkpt lat="40.518800" lon="-5.195317">
        <ele>2544.0</ele>
        <time>2014-06-30T12:28:04Z</time>
      </trkpt>
      <trkpt lat="40.518817" lon="-5.195383">
        <ele>2548.0</ele>
        <time>2014-06-30T12:28:05Z</time>
      </trkpt>
      <trkpt lat="40.518817" lon="-5.195433">
        <ele>2551.0</ele>
        <time>2014-06-30T12:28:06Z</time>
      </trkpt>
      <trkpt lat="40.518783" lon="-5.195450">
        <ele>2555.0</ele>
        <time>2014-06-30T12:28:07Z</time>
      </trkpt>
      <trkpt lat="40.518750" lon="-5.195467">
        <ele>2559.0</ele>
        <time>2014-06-30T12:28:08Z</time>
      </trkpt>
      <trkpt lat="40.518700" lon="-5.195483">
        <ele>2563.0</ele>
        <time>2014-06-30T12:28:09Z</time>
      </trkpt>
      <trkpt lat="40.518650" lon="-5.195500">
        <ele>2568.0</ele>
        <time>2014-06-30T12:28:10Z</time>
      </trkpt>
      <trkpt lat="40.518583" lon="-5.195483">
        <ele>2572.0</ele>
        <time>2014-06-30T12:28:11Z</time>
      </trkpt>
      <trkpt lat="40.518517" lon="-5.195417">
        <ele>2575.0</ele>
        <time>2014-06-30T12:28:12Z</time>
      </trkpt>
      <trkpt lat="40.518450" lon="-5.195317">
        <ele>2577.0</ele>
        <time>2014-06-30T12:28:13Z</time>
      </trkpt>
      <trkpt lat="40.518400" lon="-5.195200">
        <ele>2579.0</ele>
        <time>2014-06-30T12:28:14Z</time>
      </trkpt>
      <trkpt lat="40.518350" lon="-5.195050">
        <ele>2583.0</ele>
        <time>2014-06-30T12:28:15Z</time>
      </trkpt>
      <trkpt lat="40.518350" lon="-5.194900">
        <ele>2586.0</ele>
        <time>2014-06-30T12:28:16Z</time>
      </trkpt>
      <trkpt lat="40.518367" lon="-5.194750">
        <ele>2588.0</ele>
        <time>2014-06-30T12:28:17Z</time>
      </trkpt>
      <trkpt lat="40.518433" lon="-5.194633">
        <ele>2590.0</ele>
        <time>2014-06-30T12:28:18Z</time>
      </trkpt>
      <trkpt lat="40.518500" lon="-5.194533">
        <ele>2591.0</ele>
        <time>2014-06-30T12:28:19Z</time>
      </trkpt>
      <trkpt lat="40.518600" lon="-5.194450">
        <ele>2593.0</ele>
        <time>2014-06-30T12:28:20Z</time>
      </trkpt>
      <trkpt lat="40.518683" lon="-5.194417">
        <ele>2595.0</ele>
        <time>2014-06-30T12:28:21Z</time>
      </trkpt>
      <trkpt lat="40.518783" lon="-5.194383">
        <ele>2598.0</ele>
        <time>2014-06-30T12:28:22Z</time>
      </trkpt>
      <trkpt lat="40.518850" lon="-5.194350">
        <ele>2601.0</ele>
        <time>2014-06-30T12:28:23Z</time>
      </trkpt>
      <trkpt lat="40.518933" lon="-5.194333">
        <ele>2603.0</ele>
        <time>2014-06-30T12:28:24Z</time>
      </trkpt>
      <trkpt lat="40.519000" lon="-5.194350">
        <ele>2606.0</ele>
        <time>2014-06-30T12:28:25Z</time>
      </trkpt>
      <trkpt lat="40.519067" lon="-5.194400">
        <ele>2607.0</ele>
        <time>2014-06-30T12:28:26Z</time>
      </trkpt>
      <trkpt lat="40.519133" lon="-5.194467">
        <ele>2608.0</ele>
        <time>2014-06-30T12:28:27Z</time>
      </trkpt>
      <trkpt lat="40.519183" lon="-5.194533">
        <ele>2611.0</ele>
        <time>2014-06-30T12:28:28Z</time>
      </trkpt>
      <trkpt lat="40.519200" lon="-5.194600">
        <ele>2613.0</ele>
        <time>2014-06-30T12:28:29Z</time>
      </trkpt>
      <trkpt lat="40.519217" lon="-5.194667">
        <ele>2615.0</ele>
        <time>2014-06-30T12:28:30Z</time>
      </trkpt>
      <trkpt lat="40.519233" lon="-5.194717">
        <ele>2618.0</ele>
        <time>2014-06-30T12:28:31Z</time>
      </trkpt>
      <trkpt lat="40.519233" lon="-5.194733">
        <ele>2622.0</ele>
        <time>2014-06-30T12:28:32Z</time>
      </trkpt>
      <trkpt lat="40.519217" lon="-5.194750">
        <ele>2624.0</ele>
        <time>2014-06-30T12:28:33Z</time>
      </trkpt>
      <trkpt lat="40.519200" lon="-5.194750">
        <ele>2625.0</ele>
        <time>2014-06-30T12:28:34Z</time>
      </trkpt>
      <trkpt lat="40.519167" lon="-5.194767">
        <ele>2627.0</ele>
        <time>2014-06-30T12:28:35Z</time>
      </trkpt>
      <trkpt lat="40.519100" lon="-5.194767">
        <ele>2629.0</ele>
        <time>2014-06-30T12:28:36Z</time>
      </trkpt>
      <trkpt lat="40.519033" lon="-5.194717">
        <ele>2630.0</ele>
        <time>2014-06-30T12:28:37Z</time>
      </trkpt>
      <trkpt lat="40.518967" lon="-5.194633">
        <ele>2632.0</ele>
        <time>2014-06-30T12:28:38Z</time>
      </trkpt>
      <trkpt lat="40.518900" lon="-5.194533">
        <ele>2634.0</ele>
        <time>2014-06-30T12:28:39Z</time>
      </trkpt>
      <trkpt lat="40.518850" lon="-5.194450">
        <ele>2636.0</ele>
        <time>2014-06-30T12:28:40Z</time>
      </trkpt>
      <trkpt lat="40.518800" lon="-5.194350">
        <ele>2637.0</ele>
        <time>2014-06-30T12:28:41Z</time>
      </trkpt>
      <trkpt lat="40.518767" lon="-5.194233">
        <ele>2637.0</ele>
        <time>2014-06-30T12:28:42Z</time>
      </trkpt>
      <trkpt lat="40.518733" lon="-5.194083">
        <ele>2638.0</ele>
        <time>2014-06-30T12:28:43Z</time>
      </trkpt>
      <trkpt lat="40.518717" lon="-5.193917">
        <ele>2639.0</ele>
        <time>2014-06-30T12:28:44Z</time>
      </trkpt>
      <trkpt lat="40.518717" lon="-5.193750">
        <ele>2640.0</ele>
        <time>2014-06-30T12:28:45Z</time>
      </trkpt>
      <trkpt lat="40.518717" lon="-5.193583">
        <ele>2642.0</ele>
        <time>2014-06-30T12:28:46Z</time>
      </trkpt>
      <trkpt lat="40.518717" lon="-5.193450">
        <ele>2643.0</ele>
        <time>2014-06-30T12:28:47Z</time>
      </trkpt>
      <trkpt lat="40.518733" lon="-5.193317">
        <ele>2645.0</ele>
        <time>2014-06-30T12:28:48Z</time>
      </trkpt>
      <trkpt lat="40.518767" lon="-5.193183">
        <ele>2646.0</ele>
        <time>2014-06-30T12:28:49Z</time>
      </trkpt>
      <trkpt lat="40.518800" lon="-5.193067">
        <ele>2647.0</ele>
        <time>2014-06-30T12:28:50Z</time>
      </trkpt>
      <trkpt lat="40.518850" lon="-5.192967">
        <ele>2649.0</ele>
        <time>2014-06-30T12:28:51Z</time>
      </trkpt>
      <trkpt lat="40.518900" lon="-5.192900">
        <ele>2649.0</ele>
        <time>2014-06-30T12:28:52Z</time>
      </trkpt>
      <trkpt lat="40.518967" lon="-5.192833">
        <ele>2648.0</ele>
        <time>2014-06-30T12:28:53Z</time>
      </trkpt>
      <trkpt lat="40.519017" lon="-5.192750">
        <ele>2646.0</ele>
        <time>2014-06-30T12:28:54Z</time>
      </trkpt>
      <trkpt lat="40.519067" lon="-5.192667">
        <ele>2644.0</ele>
        <time>2014-06-30T12:28:55Z</time>
      </trkpt>
      <trkpt lat="40.519133" lon="-5.192600">
        <ele>2643.0</ele>
        <time>2014-06-30T12:28:56Z</time>
      </trkpt>
      <trkpt lat="40.519233" lon="-5.192533">
        <ele>2642.0</ele>
        <time>2014-06-30T12:28:57Z</time>
      </trkpt>
      <trkpt lat="40.519333" lon="-5.192500">
        <ele>2641.0</ele>
        <time>2014-06-30T12:28:58Z</time>
      </trkpt>
      <trkpt lat="40.519450" lon="-5.192500">
        <ele>2642.0</ele>
        <time>2014-06-30T12:28:59Z</time>
      </trkpt>
      <trkpt lat="40.519550" lon="-5.192500">
        <ele>2642.0</ele>
        <time>2014-06-30T12:29:00Z</time>
      </trkpt>
      <trkpt lat="40.519667" lon="-5.192517">
        <ele>2642.0</ele>
        <time>2014-06-30T12:29:01Z</time>
      </trkpt>
      <trkpt lat="40.519767" lon="-5.192517">
        <ele>2643.0</ele>
        <time>2014-06-30T12:29:02Z</time>
      </trkpt>
      <trkpt lat="40.519867" lon="-5.192533">
        <ele>2644.0</ele>
        <time>2014-06-30T12:29:03Z</time>
      </trkpt>
      <trkpt lat="40.519983" lon="-5.192550">
        <ele>2644.0</ele>
        <time>2014-06-30T12:29:04Z</time>
      </trkpt>
      <trkpt lat="40.520100" lon="-5.192583">
        <ele>2645.0</ele>
        <time>2014-06-30T12:29:05Z</time>
      </trkpt>
      <trkpt lat="40.520183" lon="-5.192617">
        <ele>2646.0</ele>
        <time>2014-06-30T12:29:06Z</time>
      </trkpt>
      <trkpt lat="40.520267" lon="-5.192633">
        <ele>2647.0</ele>
        <time>2014-06-30T12:29:07Z</time>
      </trkpt>
      <trkpt lat="40.520317" lon="-5.192650">
        <ele>2649.0</ele>
        <time>2014-06-30T12:29:08Z</time>
      </trkpt>
      <trkpt lat="40.520383" lon="-5.192667">
        <ele>2649.0</ele>
        <time>2014-06-30T12:29:09Z</time>
      </trkpt>
      <trkpt lat="40.520433" lon="-5.192700">
        <ele>2647.0</ele>
        <time>2014-06-30T12:29:10Z</time>
      </trkpt>
      <trkpt lat="40.520483" lon="-5.192767">
        <ele>2648.0</ele>
        <time>2014-06-30T12:29:11Z</time>
      </trkpt>
      <trkpt lat="40.520500" lon="-5.192833">
        <ele>2647.0</ele>
        <time>2014-06-30T12:29:12Z</time>
      </trkpt>
      <trkpt lat="40.520500" lon="-5.192917">
        <ele>2647.0</ele>
        <time>2014-06-30T12:29:13Z</time>
      </trkpt>
      <trkpt lat="40.520483" lon="-5.192967">
        <ele>2647.0</ele>
        <time>2014-06-30T12:29:14Z</time>
      </trkpt>
      <trkpt lat="40.520483" lon="-5.193050">
        <ele>2646.0</ele>
        <time>2014-06-30T12:29:15Z</time>
      </trkpt>
      <trkpt lat="40.520483" lon="-5.193117">
        <ele>2646.0</ele>
        <time>2014-06-30T12:29:16Z</time>
      </trkpt>
      <trkpt lat="40.520467" lon="-5.193183">
        <ele>2646.0</ele>
        <time>2014-06-30T12:29:17Z</time>
      </trkpt>
      <trkpt lat="40.520433" lon="-5.193217">
        <ele>2646.0</ele>
        <time>2014-06-30T12:29:18Z</time>
      </trkpt>
      <trkpt lat="40.520383" lon="-5.193233">
        <ele>2646.0</ele>
        <time>2014-06-30T12:29:19Z</time>
      </trkpt>
      <trkpt lat="40.520350" lon="-5.193233">
        <ele>2645.0</ele>
        <time>2014-06-30T12:29:20Z</time>
      </trkpt>
      <trkpt lat="40.520300" lon="-5.193217">
        <ele>2645.0</ele>
        <time>2014-06-30T12:29:21Z</time>
      </trkpt>
      <trkpt lat="40.520233" lon="-5.193217">
        <ele>2643.0</ele>
        <time>2014-06-30T12:29:22Z</time>
      </trkpt>
      <trkpt lat="40.520167" lon="-5.193217">
        <ele>2641.0</ele>
        <time>2014-06-30T12:29:23Z</time>
      </trkpt>
      <trkpt lat="40.520083" lon="-5.193200">
        <ele>2638.0</ele>
        <time>2014-06-30T12:29:24Z</time>
      </trkpt>
      <trkpt lat="40.519983" lon="-5.193150">
        <ele>2636.0</ele>
        <time>2014-06-30T12:29:25Z</time>
      </trkpt>
      <trkpt lat="40.519900" lon="-5.193083">
        <ele>2636.0</ele>
        <time>2014-06-30T12:29:26Z</time>
      </trkpt>
      <trkpt lat="40.519817" lon="-5.192983">
        <ele>2640.0</ele>
        <time>2014-06-30T12:29:27Z</time>
      </trkpt>
      <trkpt lat="40.519750" lon="-5.192900">
        <ele>2642.0</ele>
        <time>2014-06-30T12:29:28Z</time>
      </trkpt>
      <trkpt lat="40.519700" lon="-5.192817">
        <ele>2642.0</ele>
        <time>2014-06-30T12:29:29Z</time>
      </trkpt>
      <trkpt lat="40.519667" lon="-5.192733">
        <ele>2643.0</ele>
        <time>2014-06-30T12:29:30Z</time>
      </trkpt>
      <trkpt lat="40.519633" lon="-5.192650">
        <ele>2643.0</ele>
        <time>2014-06-30T12:29:31Z</time>
      </trkpt>
      <trkpt lat="40.519600" lon="-5.192567">
        <ele>2644.0</ele>
        <time>2014-06-30T12:29:32Z</time>
      </trkpt>
      <trkpt lat="40.519583" lon="-5.192450">
        <ele>2642.0</ele>
        <time>2014-06-30T12:29:33Z</time>
      </trkpt>
      <trkpt lat="40.519583" lon="-5.192300">
        <ele>2640.0</ele>
        <time>2014-06-30T12:29:34Z</time>
      </trkpt>
      <trkpt lat="40.519600" lon="-5.192150">
        <ele>2640.0</ele>
        <time>2014-06-30T12:29:35Z</time>
      </trkpt>
      <trkpt lat="40.519633" lon="-5.191983">
        <ele>2639.0</ele>
        <time>2014-06-30T12:29:36Z</time>
      </trkpt>
      <trkpt lat="40.519683" lon="-5.191833">
        <ele>2639.0</ele>
        <time>2014-06-30T12:29:37Z</time>
      </trkpt>
      <trkpt lat="40.519733" lon="-5.191683">
        <ele>2640.0</ele>
        <time>2014-06-30T12:29:38Z</time>
      </trkpt>
      <trkpt lat="40.519783" lon="-5.191533">
        <ele>2640.0</ele>
        <time>2014-06-30T12:29:39Z</time>
      </trkpt>
      <trkpt lat="40.519833" lon="-5.191417">
        <ele>2640.0</ele>
        <time>2014-06-30T12:29:40Z</time>
      </trkpt>
      <trkpt lat="40.519883" lon="-5.191283">
        <ele>2640.0</ele>
        <time>2014-06-30T12:29:41Z</time>
      </trkpt>
      <trkpt lat="40.519950" lon="-5.191167">
        <ele>2639.0</ele>
        <time>2014-06-30T12:29:42Z</time>
      </trkpt>
      <trkpt lat="40.520033" lon="-5.191033">
        <ele>2638.0</ele>
        <time>2014-06-30T12:29:43Z</time>
      </trkpt>
      <trkpt lat="40.520100" lon="-5.190883">
        <ele>2637.0</ele>
        <time>2014-06-30T12:29:44Z</time>
      </trkpt>
      <trkpt lat="40.520183" lon="-5.190733">
        <ele>2637.0</ele>
        <time>2014-06-30T12:29:45Z</time>
      </trkpt>
      <trkpt lat="40.520283" lon="-5.190600">
        <ele>2638.0</ele>
        <time>2014-06-30T12:29:46Z</time>
      </trkpt>
      <trkpt lat="40.520400" lon="-5.190500">
        <ele>2638.0</ele>
        <time>2014-06-30T12:29:47Z</time>
      </trkpt>
      <trkpt lat="40.520517" lon="-5.190400">
        <ele>2639.0</ele>
        <time>2014-06-30T12:29:48Z</time>
      </trkpt>
      <trkpt lat="40.520633" lon="-5.190300">
        <ele>2640.0</ele>
        <time>2014-06-30T12:29:49Z</time>
      </trkpt>
      <trkpt lat="40.520733" lon="-5.190200">
        <ele>2641.0</ele>
        <time>2014-06-30T12:29:50Z</time>
      </trkpt>
      <trkpt lat="40.520833" lon="-5.190100">
        <ele>2642.0</ele>
        <time>2014-06-30T12:29:51Z</time>
      </trkpt>
      <trkpt lat="40.520933" lon="-5.190017">
        <ele>2644.0</ele>
        <time>2014-06-30T12:29:52Z</time>
      </trkpt>
      <trkpt lat="40.521017" lon="-5.189967">
        <ele>2645.0</ele>
        <time>2014-06-30T12:29:53Z</time>
      </trkpt>
      <trkpt lat="40.521117" lon="-5.189950">
        <ele>2646.0</ele>
        <time>2014-06-30T12:29:54Z</time>
      </trkpt>
      <trkpt lat="40.521200" lon="-5.189950">
        <ele>2644.0</ele>
        <time>2014-06-30T12:29:55Z</time>
      </trkpt>
      <trkpt lat="40.521317" lon="-5.189950">
        <ele>2640.0</ele>
        <time>2014-06-30T12:29:56Z</time>
      </trkpt>
      <trkpt lat="40.521433" lon="-5.189933">
        <ele>2639.0</ele>
        <time>2014-06-30T12:29:57Z</time>
      </trkpt>
      <trkpt lat="40.521567" lon="-5.189917">
        <ele>2632.0</ele>
        <time>2014-06-30T12:29:58Z</time>
      </trkpt>
      <trkpt lat="40.521683" lon="-5.189883">
        <ele>2629.0</ele>
        <time>2014-06-30T12:29:59Z</time>
      </trkpt>
      <trkpt lat="40.521800" lon="-5.189850">
        <ele>2628.0</ele>
        <time>2014-06-30T12:30:00Z</time>
      </trkpt>
      <trkpt lat="40.521900" lon="-5.189817">
        <ele>2624.0</ele>
        <time>2014-06-30T12:30:01Z</time>
      </trkpt>
      <trkpt lat="40.522000" lon="-5.189783">
        <ele>2620.0</ele>
        <time>2014-06-30T12:30:02Z</time>
      </trkpt>
      <trkpt lat="40.522117" lon="-5.189750">
        <ele>2617.0</ele>
        <time>2014-06-30T12:30:03Z</time>
      </trkpt>
      <trkpt lat="40.522233" lon="-5.189700">
        <ele>2614.0</ele>
        <time>2014-06-30T12:30:04Z</time>
      </trkpt>
      <trkpt lat="40.522350" lon="-5.189633">
        <ele>2611.0</ele>
        <time>2014-06-30T12:30:05Z</time>
      </trkpt>
      <trkpt lat="40.522483" lon="-5.189567">
        <ele>2610.0</ele>
        <time>2014-06-30T12:30:06Z</time>
      </trkpt>
      <trkpt lat="40.522583" lon="-5.189500">
        <ele>2609.0</ele>
        <time>2014-06-30T12:30:07Z</time>
      </trkpt>
      <trkpt lat="40.522700" lon="-5.189450">
        <ele>2606.0</ele>
        <time>2014-06-30T12:30:08Z</time>
      </trkpt>
      <trkpt lat="40.522817" lon="-5.189383">
        <ele>2604.0</ele>
        <time>2014-06-30T12:30:09Z</time>
      </trkpt>
      <trkpt lat="40.522917" lon="-5.189333">
        <ele>2602.0</ele>
        <time>2014-06-30T12:30:10Z</time>
      </trkpt>
      <trkpt lat="40.523033" lon="-5.189267">
        <ele>2599.0</ele>
        <time>2014-06-30T12:30:11Z</time>
      </trkpt>
      <trkpt lat="40.523167" lon="-5.189200">
        <ele>2597.0</ele>
        <time>2014-06-30T12:30:12Z</time>
      </trkpt>
      <trkpt lat="40.523283" lon="-5.189133">
        <ele>2594.0</ele>
        <time>2014-06-30T12:30:13Z</time>
      </trkpt>
      <trkpt lat="40.523400" lon="-5.189067">
        <ele>2592.0</ele>
        <time>2014-06-30T12:30:14Z</time>
      </trkpt>
      <trkpt lat="40.523517" lon="-5.188983">
        <ele>2589.0</ele>
        <time>2014-06-30T12:30:15Z</time>
      </trkpt>
      <trkpt lat="40.523633" lon="-5.188917">
        <ele>2587.0</ele>
        <time>2014-06-30T12:30:16Z</time>
      </trkpt>
      <trkpt lat="40.523750" lon="-5.188833">
        <ele>2585.0</ele>
        <time>2014-06-30T12:30:17Z</time>
      </trkpt>
      <trkpt lat="40.523883" lon="-5.188783">
        <ele>2583.0</ele>
        <time>2014-06-30T12:30:18Z</time>
      </trkpt>
      <trkpt lat="40.524000" lon="-5.188733">
        <ele>2581.0</ele>
        <time>2014-06-30T12:30:19Z</time>
      </trkpt>
      <trkpt lat="40.524133" lon="-5.188700">
        <ele>2579.0</ele>
        <time>2014-06-30T12:30:20Z</time>
      </trkpt>
      <trkpt lat="40.524267" lon="-5.188667">
        <ele>2577.0</ele>
        <time>2014-06-30T12:30:21Z</time>
      </trkpt>
      <trkpt lat="40.524400" lon="-5.188617">
        <ele>2575.0</ele>
        <time>2014-06-30T12:30:22Z</time>
      </trkpt>
      <trkpt lat="40.524533" lon="-5.188550">
        <ele>2575.0</ele>
        <time>2014-06-30T12:30:23Z</time>
      </trkpt>
      <trkpt lat="40.524667" lon="-5.188500">
        <ele>2573.0</ele>
        <time>2014-06-30T12:30:24Z</time>
      </trkpt>
      <trkpt lat="40.524800" lon="-5.188433">
        <ele>2572.0</ele>
        <time>2014-06-30T12:30:25Z</time>
      </trkpt>
      <trkpt lat="40.524917" lon="-5.188383">
        <ele>2572.0</ele>
        <time>2014-06-30T12:30:26Z</time>
      </trkpt>
      <trkpt lat="40.525033" lon="-5.188333">
        <ele>2571.0</ele>
        <time>2014-06-30T12:30:27Z</time>
      </trkpt>
      <trkpt lat="40.525150" lon="-5.188267">
        <ele>2570.0</ele>
        <time>2014-06-30T12:30:28Z</time>
      </trkpt>
      <trkpt lat="40.525267" lon="-5.188200">
        <ele>2569.0</ele>
        <time>2014-06-30T12:30:29Z</time>
      </trkpt>
      <trkpt lat="40.525383" lon="-5.188133">
        <ele>2568.0</ele>
        <time>2014-06-30T12:30:30Z</time>
      </trkpt>
      <trkpt lat="40.525517" lon="-5.188083">
        <ele>2567.0</ele>
        <time>2014-06-30T12:30:31Z</time>
      </trkpt>
      <trkpt lat="40.525633" lon="-5.188033">
        <ele>2566.0</ele>
        <time>2014-06-30T12:30:32Z</time>
      </trkpt>
      <trkpt lat="40.525750" lon="-5.187983">
        <ele>2566.0</ele>
        <time>2014-06-30T12:30:33Z</time>
      </trkpt>
      <trkpt lat="40.525867" lon="-5.187933">
        <ele>2565.0</ele>
        <time>2014-06-30T12:30:34Z</time>
      </trkpt>
      <trkpt lat="40.525983" lon="-5.187867">
        <ele>2564.0</ele>
        <time>2014-06-30T12:30:35Z</time>
      </trkpt>
      <trkpt lat="40.526100" lon="-5.187800">
        <ele>2563.0</ele>
        <time>2014-06-30T12:30:36Z</time>
      </trkpt>
      <trkpt lat="40.526200" lon="-5.187750">
        <ele>2562.0</ele>
        <time>2014-06-30T12:30:37Z</time>
      </trkpt>
      <trkpt lat="40.526333" lon="-5.187700">
        <ele>2560.0</ele>
        <time>2014-06-30T12:30:38Z</time>
      </trkpt>
      <trkpt lat="40.526450" lon="-5.187650">
        <ele>2559.0</ele>
        <time>2014-06-30T12:30:39Z</time>
      </trkpt>
      <trkpt lat="40.526567" lon="-5.187600">
        <ele>2558.0</ele>
        <time>2014-06-30T12:30:40Z</time>
      </trkpt>
      <trkpt lat="40.526667" lon="-5.187550">
        <ele>2557.0</ele>
        <time>2014-06-30T12:30:41Z</time>
      </trkpt>
      <trkpt lat="40.526783" lon="-5.187517">
        <ele>2555.0</ele>
        <time>2014-06-30T12:30:42Z</time>
      </trkpt>
      <trkpt lat="40.526900" lon="-5.187467">
        <ele>2552.0</ele>
        <time>2014-06-30T12:30:43Z</time>
      </trkpt>
      <trkpt lat="40.527033" lon="-5.187417">
        <ele>2550.0</ele>
        <time>2014-06-30T12:30:44Z</time>
      </trkpt>
      <trkpt lat="40.527167" lon="-5.187350">
        <ele>2548.0</ele>
        <time>2014-06-30T12:30:45Z</time>
      </trkpt>
      <trkpt lat="40.527283" lon="-5.187300">
        <ele>2547.0</ele>
        <time>2014-06-30T12:30:46Z</time>
      </trkpt>
      <trkpt lat="40.527417" lon="-5.187233">
        <ele>2545.0</ele>
        <time>2014-06-30T12:30:47Z</time>
      </trkpt>
      <trkpt lat="40.527533" lon="-5.187167">
        <ele>2543.0</ele>
        <time>2014-06-30T12:30:48Z</time>
      </trkpt>
      <trkpt lat="40.527650" lon="-5.187117">
        <ele>2541.0</ele>
        <time>2014-06-30T12:30:49Z</time>
      </trkpt>
      <trkpt lat="40.527767" lon="-5.187050">
        <ele>2540.0</ele>
        <time>2014-06-30T12:30:50Z</time>
      </trkpt>
      <trkpt lat="40.527883" lon="-5.186983">
        <ele>2538.0</ele>
        <time>2014-06-30T12:30:51Z</time>
      </trkpt>
      <trkpt lat="40.528000" lon="-5.186917">
        <ele>2536.0</ele>
        <time>2014-06-30T12:30:52Z</time>
      </trkpt>
      <trkpt lat="40.528133" lon="-5.186867">
        <ele>2533.0</ele>
        <time>2014-06-30T12:30:53Z</time>
      </trkpt>
      <trkpt lat="40.528267" lon="-5.186800">
        <ele>2531.0</ele>
        <time>2014-06-30T12:30:54Z</time>
      </trkpt>
      <trkpt lat="40.528383" lon="-5.186750">
        <ele>2529.0</ele>
        <time>2014-06-30T12:30:55Z</time>
      </trkpt>
      <trkpt lat="40.528517" lon="-5.186700">
        <ele>2527.0</ele>
        <time>2014-06-30T12:30:56Z</time>
      </trkpt>
      <trkpt lat="40.528650" lon="-5.186633">
        <ele>2526.0</ele>
        <time>2014-06-30T12:30:57Z</time>
      </trkpt>
      <trkpt lat="40.528783" lon="-5.186567">
        <ele>2524.0</ele>
        <time>2014-06-30T12:30:58Z</time>
      </trkpt>
      <trkpt lat="40.528900" lon="-5.186500">
        <ele>2522.0</ele>
        <time>2014-06-30T12:30:59Z</time>
      </trkpt>
      <trkpt lat="40.529033" lon="-5.186433">
        <ele>2521.0</ele>
        <time>2014-06-30T12:31:00Z</time>
      </trkpt>
      <trkpt lat="40.529150" lon="-5.186367">
        <ele>2519.0</ele>
        <time>2014-06-30T12:31:01Z</time>
      </trkpt>
      <trkpt lat="40.529267" lon="-5.186317">
        <ele>2517.0</ele>
        <time>2014-06-30T12:31:02Z</time>
      </trkpt>
      <trkpt lat="40.529383" lon="-5.186250">
        <ele>2515.0</ele>
        <time>2014-06-30T12:31:03Z</time>
      </trkpt>
      <trkpt lat="40.529517" lon="-5.186183">
        <ele>2513.0</ele>
        <time>2014-06-30T12:31:04Z</time>
      </trkpt>
      <trkpt lat="40.529633" lon="-5.186133">
        <ele>2510.0</ele>
        <time>2014-06-30T12:31:05Z</time>
      </trkpt>
      <trkpt lat="40.529767" lon="-5.186083">
        <ele>2508.0</ele>
        <time>2014-06-30T12:31:06Z</time>
      </trkpt>
      <trkpt lat="40.529883" lon="-5.186033">
        <ele>2507.0</ele>
        <time>2014-06-30T12:31:07Z</time>
      </trkpt>
      <trkpt lat="40.530000" lon="-5.185967">
        <ele>2505.0</ele>
        <time>2014-06-30T12:31:08Z</time>
      </trkpt>
      <trkpt lat="40.530117" lon="-5.185883">
        <ele>2504.0</ele>
        <time>2014-06-30T12:31:09Z</time>
      </trkpt>
      <trkpt lat="40.530233" lon="-5.185817">
        <ele>2502.0</ele>
        <time>2014-06-30T12:31:10Z</time>
      </trkpt>
      <trkpt lat="40.530350" lon="-5.185750">
        <ele>2500.0</ele>
        <time>2014-06-30T12:31:11Z</time>
      </trkpt>
      <trkpt lat="40.530483" lon="-5.185683">
        <ele>2498.0</ele>
        <time>2014-06-30T12:31:12Z</time>
      </trkpt>
      <trkpt lat="40.530600" lon="-5.185617">
        <ele>2495.0</ele>
        <time>2014-06-30T12:31:13Z</time>
      </trkpt>
      <trkpt lat="40.530733" lon="-5.185550">
        <ele>2493.0</ele>
        <time>2014-06-30T12:31:14Z</time>
      </trkpt>
      <trkpt lat="40.530867" lon="-5.185467">
        <ele>2492.0</ele>
        <time>2014-06-30T12:31:15Z</time>
      </trkpt>
      <trkpt lat="40.530983" lon="-5.185383">
        <ele>2490.0</ele>
        <time>2014-06-30T12:31:16Z</time>
      </trkpt>
      <trkpt lat="40.531100" lon="-5.185317">
        <ele>2489.0</ele>
        <time>2014-06-30T12:31:17Z</time>
      </trkpt>
      <trkpt lat="40.531217" lon="-5.185250">
        <ele>2487.0</ele>
        <time>2014-06-30T12:31:18Z</time>
      </trkpt>
      <trkpt lat="40.531333" lon="-5.185183">
        <ele>2484.0</ele>
        <time>2014-06-30T12:31:19Z</time>
      </trkpt>
      <trkpt lat="40.531433" lon="-5.185100">
        <ele>2478.0</ele>
        <time>2014-06-30T12:31:20Z</time>
      </trkpt>
      <trkpt lat="40.531550" lon="-5.185033">
        <ele>2474.0</ele>
        <time>2014-06-30T12:31:21Z</time>
      </trkpt>
      <trkpt lat="40.531667" lon="-5.184933">
        <ele>2470.0</ele>
        <time>2014-06-30T12:31:22Z</time>
      </trkpt>
      <trkpt lat="40.531800" lon="-5.184850">
        <ele>2467.0</ele>
        <time>2014-06-30T12:31:23Z</time>
      </trkpt>
      <trkpt lat="40.531917" lon="-5.184750">
        <ele>2464.0</ele>
        <time>2014-06-30T12:31:24Z</time>
      </trkpt>
      <trkpt lat="40.532033" lon="-5.184650">
        <ele>2462.0</ele>
        <time>2014-06-30T12:31:25Z</time>
      </trkpt>
      <trkpt lat="40.532150" lon="-5.184550">
        <ele>2459.0</ele>
        <time>2014-06-30T12:31:26Z</time>
      </trkpt>
      <trkpt lat="40.532267" lon="-5.184450">
        <ele>2457.0</ele>
        <time>2014-06-30T12:31:27Z</time>
      </trkpt>
      <trkpt lat="40.532383" lon="-5.184350">
        <ele>2455.0</ele>
        <time>2014-06-30T12:31:28Z</time>
      </trkpt>
      <trkpt lat="40.532517" lon="-5.184233">
        <ele>2452.0</ele>
        <time>2014-06-30T12:31:29Z</time>
      </trkpt>
      <trkpt lat="40.532633" lon="-5.184133">
        <ele>2448.0</ele>
        <time>2014-06-30T12:31:30Z</time>
      </trkpt>
      <trkpt lat="40.532750" lon="-5.184050">
        <ele>2445.0</ele>
        <time>2014-06-30T12:31:31Z</time>
      </trkpt>
      <trkpt lat="40.532883" lon="-5.183950">
        <ele>2441.0</ele>
        <time>2014-06-30T12:31:32Z</time>
      </trkpt>
      <trkpt lat="40.533017" lon="-5.183850">
        <ele>2438.0</ele>
        <time>2014-06-30T12:31:33Z</time>
      </trkpt>
      <trkpt lat="40.533133" lon="-5.183750">
        <ele>2436.0</ele>
        <time>2014-06-30T12:31:34Z</time>
      </trkpt>
      <trkpt lat="40.533250" lon="-5.183633">
        <ele>2433.0</ele>
        <time>2014-06-30T12:31:35Z</time>
      </trkpt>
      <trkpt lat="40.533383" lon="-5.183517">
        <ele>2429.0</ele>
        <time>2014-06-30T12:31:36Z</time>
      </trkpt>
      <trkpt lat="40.533500" lon="-5.183400">
        <ele>2426.0</ele>
        <time>2014-06-30T12:31:37Z</time>
      </trkpt>
      <trkpt lat="40.533617" lon="-5.183283">
        <ele>2423.0</ele>
        <time>2014-06-30T12:31:38Z</time>
      </trkpt>
      <trkpt lat="40.533733" lon="-5.183183">
        <ele>2421.0</ele>
        <time>2014-06-30T12:31:39Z</time>
      </trkpt>
      <trkpt lat="40.533850" lon="-5.183083">
        <ele>2417.0</ele>
        <time>2014-06-30T12:31:40Z</time>
      </trkpt>
      <trkpt lat="40.533967" lon="-5.182967">
        <ele>2414.0</ele>
        <time>2014-06-30T12:31:41Z</time>
      </trkpt>
      <trkpt lat="40.534083" lon="-5.182833">
        <ele>2411.0</ele>
        <time>2014-06-30T12:31:42Z</time>
      </trkpt>
      <trkpt lat="40.534217" lon="-5.182717">
        <ele>2407.0</ele>
        <time>2014-06-30T12:31:43Z</time>
      </trkpt>
      <trkpt lat="40.534350" lon="-5.182617">
        <ele>2404.0</ele>
        <time>2014-06-30T12:31:44Z</time>
      </trkpt>
      <trkpt lat="40.534483" lon="-5.182500">
        <ele>2402.0</ele>
        <time>2014-06-30T12:31:45Z</time>
      </trkpt>
      <trkpt lat="40.534600" lon="-5.182400">
        <ele>2399.0</ele>
        <time>2014-06-30T12:31:46Z</time>
      </trkpt>
      <trkpt lat="40.534717" lon="-5.182300">
        <ele>2396.0</ele>
        <time>2014-06-30T12:31:47Z</time>
      </trkpt>
      <trkpt lat="40.534833" lon="-5.182200">
        <ele>2393.0</ele>
        <time>2014-06-30T12:31:48Z</time>
      </trkpt>
      <trkpt lat="40.534950" lon="-5.182100">
        <ele>2390.0</ele>
        <time>2014-06-30T12:31:49Z</time>
      </trkpt>
      <trkpt lat="40.535067" lon="-5.181983">
        <ele>2386.0</ele>
        <time>2014-06-30T12:31:50Z</time>
      </trkpt>
      <trkpt lat="40.535167" lon="-5.181850">
        <ele>2382.0</ele>
        <time>2014-06-30T12:31:51Z</time>
      </trkpt>
      <trkpt lat="40.535267" lon="-5.181700">
        <ele>2379.0</ele>
        <time>2014-06-30T12:31:52Z</time>
      </trkpt>
      <trkpt lat="40.535367" lon="-5.181550">
        <ele>2375.0</ele>
        <time>2014-06-30T12:31:53Z</time>
      </trkpt>
      <trkpt lat="40.535483" lon="-5.181417">
        <ele>2372.0</ele>
        <time>2014-06-30T12:31:54Z</time>
      </trkpt>
      <trkpt lat="40.535600" lon="-5.181283">
        <ele>2368.0</ele>
        <time>2014-06-30T12:31:55Z</time>
      </trkpt>
      <trkpt lat="40.535717" lon="-5.181150">
        <ele>2364.0</ele>
        <time>2014-06-30T12:31:56Z</time>
      </trkpt>
      <trkpt lat="40.535833" lon="-5.181000">
        <ele>2360.0</ele>
        <time>2014-06-30T12:31:57Z</time>
      </trkpt>
      <trkpt lat="40.535950" lon="-5.180850">
        <ele>2356.0</ele>
        <time>2014-06-30T12:31:58Z</time>
      </trkpt>
      <trkpt lat="40.536067" lon="-5.180717">
        <ele>2352.0</ele>
        <time>2014-06-30T12:31:59Z</time>
      </trkpt>
      <trkpt lat="40.536200" lon="-5.180600">
        <ele>2348.0</ele>
        <time>2014-06-30T12:32:00Z</time>
      </trkpt>
      <trkpt lat="40.536333" lon="-5.180483">
        <ele>2346.0</ele>
        <time>2014-06-30T12:32:01Z</time>
      </trkpt>
      <trkpt lat="40.536467" lon="-5.180367">
        <ele>2343.0</ele>
        <time>2014-06-30T12:32:02Z</time>
      </trkpt>
      <trkpt lat="40.536583" lon="-5.180250">
        <ele>2340.0</ele>
        <time>2014-06-30T12:32:03Z</time>
      </trkpt>
      <trkpt lat="40.536717" lon="-5.180150">
        <ele>2337.0</ele>
        <time>2014-06-30T12:32:04Z</time>
      </trkpt>
      <trkpt lat="40.536833" lon="-5.180050">
        <ele>2334.0</ele>
        <time>2014-06-30T12:32:05Z</time>
      </trkpt>
      <trkpt lat="40.536967" lon="-5.179950">
        <ele>2331.0</ele>
        <time>2014-06-30T12:32:06Z</time>
      </trkpt>
      <trkpt lat="40.537100" lon="-5.179850">
        <ele>2328.0</ele>
        <time>2014-06-30T12:32:07Z</time>
      </trkpt>
      <trkpt lat="40.537233" lon="-5.179733">
        <ele>2325.0</ele>
        <time>2014-06-30T12:32:08Z</time>
      </trkpt>
      <trkpt lat="40.537367" lon="-5.179633">
        <ele>2322.0</ele>
        <time>2014-06-30T12:32:09Z</time>
      </trkpt>
      <trkpt lat="40.537500" lon="-5.179550">
        <ele>2319.0</ele>
        <time>2014-06-30T12:32:10Z</time>
      </trkpt>
      <trkpt lat="40.537617" lon="-5.179467">
        <ele>2316.0</ele>
        <time>2014-06-30T12:32:11Z</time>
      </trkpt>
      <trkpt lat="40.537750" lon="-5.179383">
        <ele>2314.0</ele>
        <time>2014-06-30T12:32:12Z</time>
      </trkpt>
      <trkpt lat="40.537867" lon="-5.179300">
        <ele>2311.0</ele>
        <time>2014-06-30T12:32:13Z</time>
      </trkpt>
      <trkpt lat="40.538000" lon="-5.179200">
        <ele>2308.0</ele>
        <time>2014-06-30T12:32:14Z</time>
      </trkpt>
      <trkpt lat="40.538133" lon="-5.179100">
        <ele>2305.0</ele>
        <time>2014-06-30T12:32:15Z</time>
      </trkpt>
      <trkpt lat="40.538250" lon="-5.179000">
        <ele>2302.0</ele>
        <time>2014-06-30T12:32:16Z</time>
      </trkpt>
      <trkpt lat="40.538367" lon="-5.178883">
        <ele>2300.0</ele>
        <time>2014-06-30T12:32:17Z</time>
      </trkpt>
      <trkpt lat="40.538500" lon="-5.178767">
        <ele>2301.0</ele>
        <time>2014-06-30T12:32:18Z</time>
      </trkpt>
      <trkpt lat="40.538600" lon="-5.178667">
        <ele>2300.0</ele>
        <time>2014-06-30T12:32:19Z</time>
      </trkpt>
      <trkpt lat="40.538717" lon="-5.178600">
        <ele>2299.0</ele>
        <time>2014-06-30T12:32:20Z</time>
      </trkpt>
      <trkpt lat="40.538833" lon="-5.178533">
        <ele>2297.0</ele>
        <time>2014-06-30T12:32:21Z</time>
      </trkpt>
      <trkpt lat="40.538950" lon="-5.178467">
        <ele>2294.0</ele>
        <time>2014-06-30T12:32:22Z</time>
      </trkpt>
      <trkpt lat="40.539083" lon="-5.178383">
        <ele>2291.0</ele>
        <time>2014-06-30T12:32:23Z</time>
      </trkpt>
      <trkpt lat="40.539200" lon="-5.178300">
        <ele>2289.0</ele>
        <time>2014-06-30T12:32:24Z</time>
      </trkpt>
      <trkpt lat="40.539333" lon="-5.178233">
        <ele>2286.0</ele>
        <time>2014-06-30T12:32:25Z</time>
      </trkpt>
      <trkpt lat="40.539450" lon="-5.178183">
        <ele>2284.0</ele>
        <time>2014-06-30T12:32:26Z</time>
      </trkpt>
      <trkpt lat="40.539567" lon="-5.178133">
        <ele>2282.0</ele>
        <time>2014-06-30T12:32:27Z</time>
      </trkpt>
      <trkpt lat="40.539700" lon="-5.178067">
        <ele>2279.0</ele>
        <time>2014-06-30T12:32:28Z</time>
      </trkpt>
      <trkpt lat="40.539817" lon="-5.178000">
        <ele>2277.0</ele>
        <time>2014-06-30T12:32:29Z</time>
      </trkpt>
      <trkpt lat="40.539950" lon="-5.177933">
        <ele>2274.0</ele>
        <time>2014-06-30T12:32:30Z</time>
      </trkpt>
      <trkpt lat="40.540067" lon="-5.177867">
        <ele>2271.0</ele>
        <time>2014-06-30T12:32:31Z</time>
      </trkpt>
      <trkpt lat="40.540200" lon="-5.177800">
        <ele>2268.0</ele>
        <time>2014-06-30T12:32:32Z</time>
      </trkpt>
      <trkpt lat="40.540317" lon="-5.177750">
        <ele>2264.0</ele>
        <time>2014-06-30T12:32:33Z</time>
      </trkpt>
      <trkpt lat="40.540467" lon="-5.177683">
        <ele>2261.0</ele>
        <time>2014-06-30T12:32:34Z</time>
      </trkpt>
      <trkpt lat="40.540600" lon="-5.177633">
        <ele>2258.0</ele>
        <time>2014-06-30T12:32:35Z</time>
      </trkpt>
      <trkpt lat="40.540733" lon="-5.177583">
        <ele>2256.0</ele>
        <time>2014-06-30T12:32:36Z</time>
      </trkpt>
      <trkpt lat="40.540850" lon="-5.177550">
        <ele>2254.0</ele>
        <time>2014-06-30T12:32:37Z</time>
      </trkpt>
      <trkpt lat="40.540983" lon="-5.177517">
        <ele>2253.0</ele>
        <time>2014-06-30T12:32:38Z</time>
      </trkpt>
      <trkpt lat="40.541100" lon="-5.177483">
        <ele>2251.0</ele>
        <time>2014-06-30T12:32:39Z</time>
      </trkpt>
      <trkpt lat="40.541217" lon="-5.177450">
        <ele>2249.0</ele>
        <time>2014-06-30T12:32:40Z</time>
      </trkpt>
      <trkpt lat="40.541333" lon="-5.177417">
        <ele>2247.0</ele>
        <time>2014-06-30T12:32:41Z</time>
      </trkpt>
      <trkpt lat="40.541433" lon="-5.177400">
        <ele>2246.0</ele>
        <time>2014-06-30T12:32:42Z</time>
      </trkpt>
      <trkpt lat="40.541533" lon="-5.177367">
        <ele>2243.0</ele>
        <time>2014-06-30T12:32:43Z</time>
      </trkpt>
      <trkpt lat="40.541650" lon="-5.177350">
        <ele>2240.0</ele>
        <time>2014-06-30T12:32:44Z</time>
      </trkpt>
      <trkpt lat="40.541750" lon="-5.177333">
        <ele>2238.0</ele>
        <time>2014-06-30T12:32:45Z</time>
      </trkpt>
      <trkpt lat="40.541867" lon="-5.177317">
        <ele>2235.0</ele>
        <time>2014-06-30T12:32:46Z</time>
      </trkpt>
      <trkpt lat="40.541967" lon="-5.177300">
        <ele>2232.0</ele>
        <time>2014-06-30T12:32:47Z</time>
      </trkpt>
      <trkpt lat="40.542083" lon="-5.177267">
        <ele>2230.0</ele>
        <time>2014-06-30T12:32:48Z</time>
      </trkpt>
      <trkpt lat="40.542183" lon="-5.177250">
        <ele>2227.0</ele>
        <time>2014-06-30T12:32:49Z</time>
      </trkpt>
      <trkpt lat="40.542283" lon="-5.177217">
        <ele>2226.0</ele>
        <time>2014-06-30T12:32:50Z</time>
      </trkpt>
      <trkpt lat="40.542383" lon="-5.177200">
        <ele>2224.0</ele>
        <time>2014-06-30T12:32:51Z</time>
      </trkpt>
      <trkpt lat="40.542483" lon="-5.177183">
        <ele>2222.0</ele>
        <time>2014-06-30T12:32:52Z</time>
      </trkpt>
      <trkpt lat="40.542600" lon="-5.177150">
        <ele>2219.0</ele>
        <time>2014-06-30T12:32:53Z</time>
      </trkpt>
      <trkpt lat="40.542700" lon="-5.177117">
        <ele>2217.0</ele>
        <time>2014-06-30T12:32:54Z</time>
      </trkpt>
      <trkpt lat="40.542817" lon="-5.177067">
        <ele>2215.0</ele>
        <time>2014-06-30T12:32:55Z</time>
      </trkpt>
      <trkpt lat="40.542933" lon="-5.177017">
        <ele>2213.0</ele>
        <time>2014-06-30T12:32:56Z</time>
      </trkpt>
      <trkpt lat="40.543033" lon="-5.177000">
        <ele>2210.0</ele>
        <time>2014-06-30T12:32:57Z</time>
      </trkpt>
      <trkpt lat="40.543150" lon="-5.176967">
        <ele>2208.0</ele>
        <time>2014-06-30T12:32:58Z</time>
      </trkpt>
      <trkpt lat="40.543250" lon="-5.176933">
        <ele>2205.0</ele>
        <time>2014-06-30T12:32:59Z</time>
      </trkpt>
      <trkpt lat="40.543350" lon="-5.176900">
        <ele>2203.0</ele>
        <time>2014-06-30T12:33:00Z</time>
      </trkpt>
      <trkpt lat="40.543467" lon="-5.176850">
        <ele>2201.0</ele>
        <time>2014-06-30T12:33:01Z</time>
      </trkpt>
      <trkpt lat="40.543567" lon="-5.176800">
        <ele>2198.0</ele>
        <time>2014-06-30T12:33:02Z</time>
      </trkpt>
      <trkpt lat="40.543667" lon="-5.176750">
        <ele>2196.0</ele>
        <time>2014-06-30T12:33:03Z</time>
      </trkpt>
      <trkpt lat="40.543783" lon="-5.176683">
        <ele>2193.0</ele>
        <time>2014-06-30T12:33:04Z</time>
      </trkpt>
      <trkpt lat="40.543900" lon="-5.176633">
        <ele>2192.0</ele>
        <time>2014-06-30T12:33:05Z</time>
      </trkpt>
      <trkpt lat="40.544000" lon="-5.176567">
        <ele>2192.0</ele>
        <time>2014-06-30T12:33:06Z</time>
      </trkpt>
      <trkpt lat="40.544100" lon="-5.176483">
        <ele>2190.0</ele>
        <time>2014-06-30T12:33:07Z</time>
      </trkpt>
      <trkpt lat="40.544183" lon="-5.176417">
        <ele>2188.0</ele>
        <time>2014-06-30T12:33:08Z</time>
      </trkpt>
      <trkpt lat="40.544283" lon="-5.176350">
        <ele>2184.0</ele>
        <time>2014-06-30T12:33:09Z</time>
      </trkpt>
      <trkpt lat="40.544400" lon="-5.176300">
        <ele>2181.0</ele>
        <time>2014-06-30T12:33:10Z</time>
      </trkpt>
      <trkpt lat="40.544500" lon="-5.176233">
        <ele>2179.0</ele>
        <time>2014-06-30T12:33:11Z</time>
      </trkpt>
      <trkpt lat="40.544600" lon="-5.176183">
        <ele>2177.0</ele>
        <time>2014-06-30T12:33:12Z</time>
      </trkpt>
      <trkpt lat="40.544700" lon="-5.176150">
        <ele>2175.0</ele>
        <time>2014-06-30T12:33:13Z</time>
      </trkpt>
      <trkpt lat="40.544783" lon="-5.176117">
        <ele>2173.0</ele>
        <time>2014-06-30T12:33:14Z</time>
      </trkpt>
      <trkpt lat="40.544867" lon="-5.176100">
        <ele>2172.0</ele>
        <time>2014-06-30T12:33:15Z</time>
      </trkpt>
      <trkpt lat="40.544967" lon="-5.176083">
        <ele>2169.0</ele>
        <time>2014-06-30T12:33:16Z</time>
      </trkpt>
      <trkpt lat="40.545067" lon="-5.176050">
        <ele>2171.0</ele>
        <time>2014-06-30T12:33:17Z</time>
      </trkpt>
      <trkpt lat="40.545167" lon="-5.176033">
        <ele>2169.0</ele>
        <time>2014-06-30T12:33:18Z</time>
      </trkpt>
      <trkpt lat="40.545250" lon="-5.176000">
        <ele>2168.0</ele>
        <time>2014-06-30T12:33:19Z</time>
      </trkpt>
      <trkpt lat="40.545350" lon="-5.175950">
        <ele>2166.0</ele>
        <time>2014-06-30T12:33:20Z</time>
      </trkpt>
      <trkpt lat="40.545450" lon="-5.175917">
        <ele>2165.0</ele>
        <time>2014-06-30T12:33:21Z</time>
      </trkpt>
      <trkpt lat="40.545533" lon="-5.175867">
        <ele>2164.0</ele>
        <time>2014-06-30T12:33:22Z</time>
      </trkpt>
      <trkpt lat="40.545617" lon="-5.175817">
        <ele>2160.0</ele>
        <time>2014-06-30T12:33:23Z</time>
      </trkpt>
      <trkpt lat="40.545717" lon="-5.175783">
        <ele>2158.0</ele>
        <time>2014-06-30T12:33:24Z</time>
      </trkpt>
      <trkpt lat="40.545817" lon="-5.175783">
        <ele>2155.0</ele>
        <time>2014-06-30T12:33:25Z</time>
      </trkpt>
      <trkpt lat="40.545900" lon="-5.175767">
        <ele>2154.0</ele>
        <time>2014-06-30T12:33:26Z</time>
      </trkpt>
      <trkpt lat="40.546000" lon="-5.175767">
        <ele>2152.0</ele>
        <time>2014-06-30T12:33:27Z</time>
      </trkpt>
      <trkpt lat="40.546083" lon="-5.175767">
        <ele>2150.0</ele>
        <time>2014-06-30T12:33:28Z</time>
      </trkpt>
      <trkpt lat="40.546183" lon="-5.175767">
        <ele>2152.0</ele>
        <time>2014-06-30T12:33:29Z</time>
      </trkpt>
      <trkpt lat="40.546283" lon="-5.175750">
        <ele>2150.0</ele>
        <time>2014-06-30T12:33:30Z</time>
      </trkpt>
      <trkpt lat="40.546383" lon="-5.175750">
        <ele>2148.0</ele>
        <time>2014-06-30T12:33:31Z</time>
      </trkpt>
      <trkpt lat="40.546483" lon="-5.175750">
        <ele>2147.0</ele>
        <time>2014-06-30T12:33:32Z</time>
      </trkpt>
      <trkpt lat="40.546550" lon="-5.175767">
        <ele>2146.0</ele>
        <time>2014-06-30T12:33:33Z</time>
      </trkpt>
      <trkpt lat="40.546633" lon="-5.175767">
        <ele>2145.0</ele>
        <time>2014-06-30T12:33:34Z</time>
      </trkpt>
      <trkpt lat="40.546700" lon="-5.175767">
        <ele>2142.0</ele>
        <time>2014-06-30T12:33:35Z</time>
      </trkpt>
      <trkpt lat="40.546783" lon="-5.175767">
        <ele>2136.0</ele>
        <time>2014-06-30T12:33:36Z</time>
      </trkpt>
      <trkpt lat="40.546900" lon="-5.175767">
        <ele>2131.0</ele>
        <time>2014-06-30T12:33:37Z</time>
      </trkpt>
      <trkpt lat="40.547017" lon="-5.175767">
        <ele>2128.0</ele>
        <time>2014-06-30T12:33:38Z</time>
      </trkpt>
      <trkpt lat="40.547133" lon="-5.175767">
        <ele>2125.0</ele>
        <time>2014-06-30T12:33:39Z</time>
      </trkpt>
      <trkpt lat="40.547233" lon="-5.175733">
        <ele>2124.0</ele>
        <time>2014-06-30T12:33:40Z</time>
      </trkpt>
      <trkpt lat="40.547333" lon="-5.175700">
        <ele>2122.0</ele>
        <time>2014-06-30T12:33:41Z</time>
      </trkpt>
      <trkpt lat="40.547433" lon="-5.175683">
        <ele>2120.0</ele>
        <time>2014-06-30T12:33:42Z</time>
      </trkpt>
      <trkpt lat="40.547533" lon="-5.175650">
        <ele>2116.0</ele>
        <time>2014-06-30T12:33:43Z</time>
      </trkpt>
      <trkpt lat="40.547633" lon="-5.175617">
        <ele>2112.0</ele>
        <time>2014-06-30T12:33:44Z</time>
      </trkpt>
      <trkpt lat="40.547750" lon="-5.175600">
        <ele>2109.0</ele>
        <time>2014-06-30T12:33:45Z</time>
      </trkpt>
      <trkpt lat="40.547867" lon="-5.175583">
        <ele>2105.0</ele>
        <time>2014-06-30T12:33:46Z</time>
      </trkpt>
      <trkpt lat="40.547983" lon="-5.175550">
        <ele>2102.0</ele>
        <time>2014-06-30T12:33:47Z</time>
      </trkpt>
      <trkpt lat="40.548083" lon="-5.175533">
        <ele>2100.0</ele>
        <time>2014-06-30T12:33:48Z</time>
      </trkpt>
      <trkpt lat="40.548200" lon="-5.175483">
        <ele>2097.0</ele>
        <time>2014-06-30T12:33:49Z</time>
      </trkpt>
      <trkpt lat="40.548300" lon="-5.175450">
        <ele>2094.0</ele>
        <time>2014-06-30T12:33:50Z</time>
      </trkpt>
      <trkpt lat="40.548400" lon="-5.175400">
        <ele>2091.0</ele>
        <time>2014-06-30T12:33:51Z</time>
      </trkpt>
      <trkpt lat="40.548517" lon="-5.175367">
        <ele>2087.0</ele>
        <time>2014-06-30T12:33:52Z</time>
      </trkpt>
      <trkpt lat="40.548633" lon="-5.175317">
        <ele>2083.0</ele>
        <time>2014-06-30T12:33:53Z</time>
      </trkpt>
      <trkpt lat="40.548750" lon="-5.175267">
        <ele>2080.0</ele>
        <time>2014-06-30T12:33:54Z</time>
      </trkpt>
      <trkpt lat="40.548867" lon="-5.175217">
        <ele>2079.0</ele>
        <time>2014-06-30T12:33:55Z</time>
      </trkpt>
      <trkpt lat="40.548983" lon="-5.175183">
        <ele>2077.0</ele>
        <time>2014-06-30T12:33:56Z</time>
      </trkpt>
      <trkpt lat="40.549100" lon="-5.175150">
        <ele>2076.0</ele>
        <time>2014-06-30T12:33:57Z</time>
      </trkpt>
      <trkpt lat="40.549217" lon="-5.175083">
        <ele>2074.0</ele>
        <time>2014-06-30T12:33:58Z</time>
      </trkpt>
      <trkpt lat="40.549333" lon="-5.175033">
        <ele>2072.0</ele>
        <time>2014-06-30T12:33:59Z</time>
      </trkpt>
      <trkpt lat="40.549450" lon="-5.174983">
        <ele>2070.0</ele>
        <time>2014-06-30T12:34:00Z</time>
      </trkpt>
      <trkpt lat="40.549567" lon="-5.174933">
        <ele>2067.0</ele>
        <time>2014-06-30T12:34:01Z</time>
      </trkpt>
      <trkpt lat="40.549700" lon="-5.174867">
        <ele>2065.0</ele>
        <time>2014-06-30T12:34:02Z</time>
      </trkpt>
      <trkpt lat="40.549833" lon="-5.174800">
        <ele>2062.0</ele>
        <time>2014-06-30T12:34:03Z</time>
      </trkpt>
      <trkpt lat="40.549967" lon="-5.174733">
        <ele>2061.0</ele>
        <time>2014-06-30T12:34:04Z</time>
      </trkpt>
      <trkpt lat="40.550083" lon="-5.174667">
        <ele>2061.0</ele>
        <time>2014-06-30T12:34:05Z</time>
      </trkpt>
      <trkpt lat="40.550183" lon="-5.174633">
        <ele>2060.0</ele>
        <time>2014-06-30T12:34:06Z</time>
      </trkpt>
      <trkpt lat="40.550283" lon="-5.174583">
        <ele>2059.0</ele>
        <time>2014-06-30T12:34:07Z</time>
      </trkpt>
      <trkpt lat="40.550400" lon="-5.174550">
        <ele>2058.0</ele>
        <time>2014-06-30T12:34:08Z</time>
      </trkpt>
      <trkpt lat="40.550517" lon="-5.174533">
        <ele>2056.0</ele>
        <time>2014-06-30T12:34:09Z</time>
      </trkpt>
      <trkpt lat="40.550633" lon="-5.174500">
        <ele>2055.0</ele>
        <time>2014-06-30T12:34:10Z</time>
      </trkpt>
      <trkpt lat="40.550750" lon="-5.174483">
        <ele>2055.0</ele>
        <time>2014-06-30T12:34:11Z</time>
      </trkpt>
      <trkpt lat="40.550850" lon="-5.174450">
        <ele>2055.0</ele>
        <time>2014-06-30T12:34:12Z</time>
      </trkpt>
      <trkpt lat="40.550950" lon="-5.174417">
        <ele>2055.0</ele>
        <time>2014-06-30T12:34:13Z</time>
      </trkpt>
      <trkpt lat="40.551067" lon="-5.174400">
        <ele>2053.0</ele>
        <time>2014-06-30T12:34:14Z</time>
      </trkpt>
      <trkpt lat="40.551183" lon="-5.174367">
        <ele>2053.0</ele>
        <time>2014-06-30T12:34:15Z</time>
      </trkpt>
      <trkpt lat="40.551333" lon="-5.174333">
        <ele>2054.0</ele>
        <time>2014-06-30T12:34:16Z</time>
      </trkpt>
      <trkpt lat="40.551450" lon="-5.174317">
        <ele>2056.0</ele>
        <time>2014-06-30T12:34:17Z</time>
      </trkpt>
      <trkpt lat="40.551550" lon="-5.174267">
        <ele>2059.0</ele>
        <time>2014-06-30T12:34:18Z</time>
      </trkpt>
      <trkpt lat="40.551633" lon="-5.174217">
        <ele>2062.0</ele>
        <time>2014-06-30T12:34:19Z</time>
      </trkpt>
      <trkpt lat="40.551717" lon="-5.174167">
        <ele>2066.0</ele>
        <time>2014-06-30T12:34:20Z</time>
      </trkpt>
      <trkpt lat="40.551783" lon="-5.174100">
        <ele>2068.0</ele>
        <time>2014-06-30T12:34:21Z</time>
      </trkpt>
      <trkpt lat="40.551850" lon="-5.174050">
        <ele>2065.0</ele>
        <time>2014-06-30T12:34:22Z</time>
      </trkpt>
      <trkpt lat="40.551933" lon="-5.174017">
        <ele>2066.0</ele>
        <time>2014-06-30T12:34:23Z</time>
      </trkpt>
      <trkpt lat="40.552033" lon="-5.173983">
        <ele>2065.0</ele>
        <time>2014-06-30T12:34:24Z</time>
      </trkpt>
      <trkpt lat="40.552133" lon="-5.173967">
        <ele>2065.0</ele>
        <time>2014-06-30T12:34:25Z</time>
      </trkpt>
      <trkpt lat="40.552217" lon="-5.173933">
        <ele>2065.0</ele>
        <time>2014-06-30T12:34:26Z</time>
      </trkpt>
      <trkpt lat="40.552317" lon="-5.173883">
        <ele>2065.0</ele>
        <time>2014-06-30T12:34:27Z</time>
      </trkpt>
      <trkpt lat="40.552417" lon="-5.173817">
        <ele>2065.0</ele>
        <time>2014-06-30T12:34:28Z</time>
      </trkpt>
      <trkpt lat="40.552533" lon="-5.173750">
        <ele>2064.0</ele>
        <time>2014-06-30T12:34:29Z</time>
      </trkpt>
      <trkpt lat="40.552650" lon="-5.173700">
        <ele>2063.0</ele>
        <time>2014-06-30T12:34:30Z</time>
      </trkpt>
      <trkpt lat="40.552767" lon="-5.173667">
        <ele>2064.0</ele>
        <time>2014-06-30T12:34:31Z</time>
      </trkpt>
      <trkpt lat="40.552850" lon="-5.173633">
        <ele>2064.0</ele>
        <time>2014-06-30T12:34:32Z</time>
      </trkpt>
      <trkpt lat="40.552950" lon="-5.173567">
        <ele>2063.0</ele>
        <time>2014-06-30T12:34:33Z</time>
      </trkpt>
      <trkpt lat="40.553050" lon="-5.173500">
        <ele>2063.0</ele>
        <time>2014-06-30T12:34:34Z</time>
      </trkpt>
      <trkpt lat="40.553150" lon="-5.173450">
        <ele>2062.0</ele>
        <time>2014-06-30T12:34:35Z</time>
      </trkpt>
      <trkpt lat="40.553250" lon="-5.173417">
        <ele>2062.0</ele>
        <time>2014-06-30T12:34:36Z</time>
      </trkpt>
      <trkpt lat="40.553367" lon="-5.173383">
        <ele>2062.0</ele>
        <time>2014-06-30T12:34:37Z</time>
      </trkpt>
      <trkpt lat="40.553467" lon="-5.173350">
        <ele>2062.0</ele>
        <time>2014-06-30T12:34:38Z</time>
      </trkpt>
      <trkpt lat="40.553583" lon="-5.173283">
        <ele>2062.0</ele>
        <time>2014-06-30T12:34:39Z</time>
      </trkpt>
      <trkpt lat="40.553683" lon="-5.173233">
        <ele>2062.0</ele>
        <time>2014-06-30T12:34:40Z</time>
      </trkpt>
      <trkpt lat="40.553800" lon="-5.173217">
        <ele>2061.0</ele>
        <time>2014-06-30T12:34:41Z</time>
      </trkpt>
      <trkpt lat="40.553917" lon="-5.173200">
        <ele>2060.0</ele>
        <time>2014-06-30T12:34:42Z</time>
      </trkpt>
      <trkpt lat="40.554033" lon="-5.173183">
        <ele>2060.0</ele>
        <time>2014-06-30T12:34:43Z</time>
      </trkpt>
      <trkpt lat="40.554183" lon="-5.173150">
        <ele>2064.0</ele>
        <time>2014-06-30T12:34:44Z</time>
      </trkpt>
      <trkpt lat="40.554283" lon="-5.173100">
        <ele>2070.0</ele>
        <time>2014-06-30T12:34:45Z</time>
      </trkpt>
      <trkpt lat="40.554350" lon="-5.173033">
        <ele>2073.0</ele>
        <time>2014-06-30T12:34:46Z</time>
      </trkpt>
      <trkpt lat="40.554400" lon="-5.173000">
        <ele>2075.0</ele>
        <time>2014-06-30T12:34:47Z</time>
      </trkpt>
      <trkpt lat="40.554450" lon="-5.172967">
        <ele>2077.0</ele>
        <time>2014-06-30T12:34:48Z</time>
      </trkpt>
      <trkpt lat="40.554517" lon="-5.172967">
        <ele>2077.0</ele>
        <time>2014-06-30T12:34:49Z</time>
      </trkpt>
      <trkpt lat="40.554600" lon="-5.172967">
        <ele>2077.0</ele>
        <time>2014-06-30T12:34:50Z</time>
      </trkpt>
      <trkpt lat="40.554667" lon="-5.172933">
        <ele>2078.0</ele>
        <time>2014-06-30T12:34:51Z</time>
      </trkpt>
      <trkpt lat="40.554750" lon="-5.172867">
        <ele>2078.0</ele>
        <time>2014-06-30T12:34:52Z</time>
      </trkpt>
      <trkpt lat="40.554833" lon="-5.172783">
        <ele>2079.0</ele>
        <time>2014-06-30T12:34:53Z</time>
      </trkpt>
      <trkpt lat="40.554900" lon="-5.172650">
        <ele>2080.0</ele>
        <time>2014-06-30T12:34:54Z</time>
      </trkpt>
      <trkpt lat="40.554950" lon="-5.172517">
        <ele>2083.0</ele>
        <time>2014-06-30T12:34:55Z</time>
      </trkpt>
      <trkpt lat="40.554967" lon="-5.172383">
        <ele>2087.0</ele>
        <time>2014-06-30T12:34:56Z</time>
      </trkpt>
      <trkpt lat="40.554967" lon="-5.172267">
        <ele>2090.0</ele>
        <time>2014-06-30T12:34:57Z</time>
      </trkpt>
      <trkpt lat="40.554950" lon="-5.172167">
        <ele>2085.0</ele>
        <time>2014-06-30T12:34:58Z</time>
      </trkpt>
      <trkpt lat="40.554950" lon="-5.172067">
        <ele>2086.0</ele>
        <time>2014-06-30T12:34:59Z</time>
      </trkpt>
      <trkpt lat="40.554950" lon="-5.171950">
        <ele>2085.0</ele>
        <time>2014-06-30T12:35:00Z</time>
      </trkpt>
      <trkpt lat="40.554917" lon="-5.171817">
        <ele>2085.0</ele>
        <time>2014-06-30T12:35:01Z</time>
      </trkpt>
      <trkpt lat="40.554850" lon="-5.171700">
        <ele>2086.0</ele>
        <time>2014-06-30T12:35:02Z</time>
      </trkpt>
      <trkpt lat="40.554783" lon="-5.171617">
        <ele>2087.0</ele>
        <time>2014-06-30T12:35:03Z</time>
      </trkpt>
      <trkpt lat="40.554733" lon="-5.171500">
        <ele>2089.0</ele>
        <time>2014-06-30T12:35:04Z</time>
      </trkpt>
      <trkpt lat="40.554700" lon="-5.171383">
        <ele>2092.0</ele>
        <time>2014-06-30T12:35:05Z</time>
      </trkpt>
      <trkpt lat="40.554683" lon="-5.171300">
        <ele>2094.0</ele>
        <time>2014-06-30T12:35:06Z</time>
      </trkpt>
      <trkpt lat="40.554650" lon="-5.171233">
        <ele>2096.0</ele>
        <time>2014-06-30T12:35:07Z</time>
      </trkpt>
      <trkpt lat="40.554617" lon="-5.171167">
        <ele>2097.0</ele>
        <time>2014-06-30T12:35:08Z</time>
      </trkpt>
      <trkpt lat="40.554567" lon="-5.171117">
        <ele>2098.0</ele>
        <time>2014-06-30T12:35:09Z</time>
      </trkpt>
      <trkpt lat="40.554517" lon="-5.171067">
        <ele>2099.0</ele>
        <time>2014-06-30T12:35:10Z</time>
      </trkpt>
      <trkpt lat="40.554483" lon="-5.171067">
        <ele>2099.0</ele>
        <time>2014-06-30T12:35:11Z</time>
      </trkpt>
      <trkpt lat="40.554467" lon="-5.171100">
        <ele>2097.0</ele>
        <time>2014-06-30T12:35:12Z</time>
      </trkpt>
      <trkpt lat="40.554500" lon="-5.171133">
        <ele>2096.0</ele>
        <time>2014-06-30T12:35:13Z</time>
      </trkpt>
      <trkpt lat="40.554583" lon="-5.171167">
        <ele>2093.0</ele>
        <time>2014-06-30T12:35:14Z</time>
      </trkpt>
      <trkpt lat="40.554683" lon="-5.171150">
        <ele>2093.0</ele>
        <time>2014-06-30T12:35:15Z</time>
      </trkpt>
      <trkpt lat="40.554767" lon="-5.171117">
        <ele>2095.0</ele>
        <time>2014-06-30T12:35:16Z</time>
      </trkpt>
      <trkpt lat="40.554850" lon="-5.171100">
        <ele>2097.0</ele>
        <time>2014-06-30T12:35:17Z</time>
      </trkpt>
      <trkpt lat="40.554917" lon="-5.171100">
        <ele>2099.0</ele>
        <time>2014-06-30T12:35:18Z</time>
      </trkpt>
      <trkpt lat="40.554967" lon="-5.171100">
        <ele>2099.0</ele>
        <time>2014-06-30T12:35:19Z</time>
      </trkpt>
      <trkpt lat="40.555050" lon="-5.171100">
        <ele>2099.0</ele>
        <time>2014-06-30T12:35:20Z</time>
      </trkpt>
      <trkpt lat="40.555150" lon="-5.171083">
        <ele>2101.0</ele>
        <time>2014-06-30T12:35:21Z</time>
      </trkpt>
      <trkpt lat="40.555233" lon="-5.171067">
        <ele>2103.0</ele>
        <time>2014-06-30T12:35:22Z</time>
      </trkpt>
      <trkpt lat="40.555317" lon="-5.171033">
        <ele>2105.0</ele>
        <time>2014-06-30T12:35:23Z</time>
      </trkpt>
      <trkpt lat="40.555383" lon="-5.171017">
        <ele>2107.0</ele>
        <time>2014-06-30T12:35:24Z</time>
      </trkpt>
      <trkpt lat="40.555450" lon="-5.171000">
        <ele>2110.0</ele>
        <time>2014-06-30T12:35:25Z</time>
      </trkpt>
      <trkpt lat="40.555517" lon="-5.170967">
        <ele>2112.0</ele>
        <time>2014-06-30T12:35:26Z</time>
      </trkpt>
      <trkpt lat="40.555583" lon="-5.170917">
        <ele>2114.0</ele>
        <time>2014-06-30T12:35:27Z</time>
      </trkpt>
      <trkpt lat="40.555650" lon="-5.170850">
        <ele>2117.0</ele>
        <time>2014-06-30T12:35:28Z</time>
      </trkpt>
      <trkpt lat="40.555717" lon="-5.170817">
        <ele>2115.0</ele>
        <time>2014-06-30T12:35:29Z</time>
      </trkpt>
      <trkpt lat="40.555767" lon="-5.170783">
        <ele>2116.0</ele>
        <time>2014-06-30T12:35:30Z</time>
      </trkpt>
      <trkpt lat="40.555833" lon="-5.170750">
        <ele>2118.0</ele>
        <time>2014-06-30T12:35:31Z</time>
      </trkpt>
      <trkpt lat="40.555883" lon="-5.170750">
        <ele>2119.0</ele>
        <time>2014-06-30T12:35:32Z</time>
      </trkpt>
      <trkpt lat="40.555917" lon="-5.170750">
        <ele>2121.0</ele>
        <time>2014-06-30T12:35:33Z</time>
      </trkpt>
      <trkpt lat="40.555950" lon="-5.170767">
        <ele>2123.0</ele>
        <time>2014-06-30T12:35:34Z</time>
      </trkpt>
      <trkpt lat="40.555983" lon="-5.170800">
        <ele>2125.0</ele>
        <time>2014-06-30T12:35:35Z</time>
      </trkpt>
      <trkpt lat="40.555983" lon="-5.170833">
        <ele>2127.0</ele>
        <time>2014-06-30T12:35:36Z</time>
      </trkpt>
      <trkpt lat="40.555967" lon="-5.170883">
        <ele>2129.0</ele>
        <time>2014-06-30T12:35:37Z</time>
      </trkpt>
      <trkpt lat="40.555967" lon="-5.170917">
        <ele>2131.0</ele>
        <time>2014-06-30T12:35:38Z</time>
      </trkpt>
      <trkpt lat="40.555950" lon="-5.170950">
        <ele>2134.0</ele>
        <time>2014-06-30T12:35:39Z</time>
      </trkpt>
      <trkpt lat="40.555933" lon="-5.170983">
        <ele>2136.0</ele>
        <time>2014-06-30T12:35:40Z</time>
      </trkpt>
      <trkpt lat="40.555883" lon="-5.171000">
        <ele>2137.0</ele>
        <time>2014-06-30T12:35:41Z</time>
      </trkpt>
      <trkpt lat="40.555817" lon="-5.171000">
        <ele>2139.0</ele>
        <time>2014-06-30T12:35:42Z</time>
      </trkpt>
      <trkpt lat="40.555783" lon="-5.170950">
        <ele>2141.0</ele>
        <time>2014-06-30T12:35:43Z</time>
      </trkpt>
      <trkpt lat="40.555750" lon="-5.170867">
        <ele>2143.0</ele>
        <time>2014-06-30T12:35:44Z</time>
      </trkpt>
      <trkpt lat="40.555700" lon="-5.170800">
        <ele>2141.0</ele>
        <time>2014-06-30T12:35:45Z</time>
      </trkpt>
      <trkpt lat="40.555667" lon="-5.170700">
        <ele>2141.0</ele>
        <time>2014-06-30T12:35:46Z</time>
      </trkpt>
      <trkpt lat="40.555600" lon="-5.170600">
        <ele>2141.0</ele>
        <time>2014-06-30T12:35:47Z</time>
      </trkpt>
      <trkpt lat="40.555550" lon="-5.170483">
        <ele>2141.0</ele>
        <time>2014-06-30T12:35:48Z</time>
      </trkpt>
      <trkpt lat="40.555517" lon="-5.170350">
        <ele>2142.0</ele>
        <time>2014-06-30T12:35:49Z</time>
      </trkpt>
      <trkpt lat="40.555483" lon="-5.170200">
        <ele>2145.0</ele>
        <time>2014-06-30T12:35:50Z</time>
      </trkpt>
      <trkpt lat="40.555450" lon="-5.170067">
        <ele>2146.0</ele>
        <time>2014-06-30T12:35:51Z</time>
      </trkpt>
      <trkpt lat="40.555433" lon="-5.169933">
        <ele>2148.0</ele>
        <time>2014-06-30T12:35:52Z</time>
      </trkpt>
      <trkpt lat="40.555417" lon="-5.169800">
        <ele>2149.0</ele>
        <time>2014-06-30T12:35:53Z</time>
      </trkpt>
      <trkpt lat="40.555417" lon="-5.169650">
        <ele>2150.0</ele>
        <time>2014-06-30T12:35:54Z</time>
      </trkpt>
      <trkpt lat="40.555417" lon="-5.169500">
        <ele>2151.0</ele>
        <time>2014-06-30T12:35:55Z</time>
      </trkpt>
      <trkpt lat="40.555433" lon="-5.169350">
        <ele>2151.0</ele>
        <time>2014-06-30T12:35:56Z</time>
      </trkpt>
      <trkpt lat="40.555467" lon="-5.169200">
        <ele>2150.0</ele>
        <time>2014-06-30T12:35:57Z</time>
      </trkpt>
      <trkpt lat="40.555467" lon="-5.169033">
        <ele>2150.0</ele>
        <time>2014-06-30T12:35:58Z</time>
      </trkpt>
      <trkpt lat="40.555483" lon="-5.168850">
        <ele>2150.0</ele>
        <time>2014-06-30T12:35:59Z</time>
      </trkpt>
      <trkpt lat="40.555517" lon="-5.168683">
        <ele>2151.0</ele>
        <time>2014-06-30T12:36:00Z</time>
      </trkpt>
      <trkpt lat="40.555600" lon="-5.168550">
        <ele>2151.0</ele>
        <time>2014-06-30T12:36:01Z</time>
      </trkpt>
      <trkpt lat="40.555667" lon="-5.168433">
        <ele>2151.0</ele>
        <time>2014-06-30T12:36:02Z</time>
      </trkpt>
      <trkpt lat="40.555767" lon="-5.168300">
        <ele>2152.0</ele>
        <time>2014-06-30T12:36:03Z</time>
      </trkpt>
      <trkpt lat="40.555850" lon="-5.168183">
        <ele>2153.0</ele>
        <time>2014-06-30T12:36:04Z</time>
      </trkpt>
      <trkpt lat="40.555933" lon="-5.168067">
        <ele>2155.0</ele>
        <time>2014-06-30T12:36:05Z</time>
      </trkpt>
      <trkpt lat="40.556017" lon="-5.167967">
        <ele>2156.0</ele>
        <time>2014-06-30T12:36:06Z</time>
      </trkpt>
      <trkpt lat="40.556100" lon="-5.167900">
        <ele>2156.0</ele>
        <time>2014-06-30T12:36:07Z</time>
      </trkpt>
      <trkpt lat="40.556200" lon="-5.167833">
        <ele>2156.0</ele>
        <time>2014-06-30T12:36:08Z</time>
      </trkpt>
      <trkpt lat="40.556300" lon="-5.167767">
        <ele>2156.0</ele>
        <time>2014-06-30T12:36:09Z</time>
      </trkpt>
      <trkpt lat="40.556400" lon="-5.167750">
        <ele>2156.0</ele>
        <time>2014-06-30T12:36:10Z</time>
      </trkpt>
      <trkpt lat="40.556500" lon="-5.167767">
        <ele>2156.0</ele>
        <time>2014-06-30T12:36:11Z</time>
      </trkpt>
      <trkpt lat="40.556567" lon="-5.167800">
        <ele>2157.0</ele>
        <time>2014-06-30T12:36:12Z</time>
      </trkpt>
      <trkpt lat="40.556650" lon="-5.167833">
        <ele>2158.0</ele>
        <time>2014-06-30T12:36:13Z</time>
      </trkpt>
      <trkpt lat="40.556733" lon="-5.167850">
        <ele>2159.0</ele>
        <time>2014-06-30T12:36:14Z</time>
      </trkpt>
      <trkpt lat="40.556817" lon="-5.167850">
        <ele>2161.0</ele>
        <time>2014-06-30T12:36:15Z</time>
      </trkpt>
      <trkpt lat="40.556900" lon="-5.167833">
        <ele>2163.0</ele>
        <time>2014-06-30T12:36:16Z</time>
      </trkpt>
      <trkpt lat="40.556983" lon="-5.167800">
        <ele>2165.0</ele>
        <time>2014-06-30T12:36:17Z</time>
      </trkpt>
      <trkpt lat="40.557067" lon="-5.167767">
        <ele>2168.0</ele>
        <time>2014-06-30T12:36:18Z</time>
      </trkpt>
      <trkpt lat="40.557150" lon="-5.167717">
        <ele>2171.0</ele>
        <time>2014-06-30T12:36:19Z</time>
      </trkpt>
      <trkpt lat="40.557217" lon="-5.167683">
        <ele>2170.0</ele>
        <time>2014-06-30T12:36:20Z</time>
      </trkpt>
      <trkpt lat="40.557283" lon="-5.167667">
        <ele>2172.0</ele>
        <time>2014-06-30T12:36:21Z</time>
      </trkpt>
      <trkpt lat="40.557367" lon="-5.167650">
        <ele>2173.0</ele>
        <time>2014-06-30T12:36:22Z</time>
      </trkpt>
      <trkpt lat="40.557433" lon="-5.167650">
        <ele>2175.0</ele>
        <time>2014-06-30T12:36:23Z</time>
      </trkpt>
      <trkpt lat="40.557467" lon="-5.167683">
        <ele>2173.0</ele>
        <time>2014-06-30T12:36:24Z</time>
      </trkpt>
      <trkpt lat="40.557467" lon="-5.167717">
        <ele>2174.0</ele>
        <time>2014-06-30T12:36:25Z</time>
      </trkpt>
      <trkpt lat="40.557417" lon="-5.167733">
        <ele>2175.0</ele>
        <time>2014-06-30T12:36:26Z</time>
      </trkpt>
      <trkpt lat="40.557367" lon="-5.167700">
        <ele>2178.0</ele>
        <time>2014-06-30T12:36:27Z</time>
      </trkpt>
      <trkpt lat="40.557317" lon="-5.167633">
        <ele>2179.0</ele>
        <time>2014-06-30T12:36:28Z</time>
      </trkpt>
      <trkpt lat="40.557283" lon="-5.167533">
        <ele>2181.0</ele>
        <time>2014-06-30T12:36:29Z</time>
      </trkpt>
      <trkpt lat="40.557267" lon="-5.167417">
        <ele>2183.0</ele>
        <time>2014-06-30T12:36:30Z</time>
      </trkpt>
      <trkpt lat="40.557233" lon="-5.167317">
        <ele>2185.0</ele>
        <time>2014-06-30T12:36:31Z</time>
      </trkpt>
      <trkpt lat="40.557183" lon="-5.167200">
        <ele>2187.0</ele>
        <time>2014-06-30T12:36:32Z</time>
      </trkpt>
      <trkpt lat="40.557150" lon="-5.167050">
        <ele>2190.0</ele>
        <time>2014-06-30T12:36:33Z</time>
      </trkpt>
      <trkpt lat="40.557133" lon="-5.166900">
        <ele>2195.0</ele>
        <time>2014-06-30T12:36:34Z</time>
      </trkpt>
      <trkpt lat="40.557150" lon="-5.166750">
        <ele>2199.0</ele>
        <time>2014-06-30T12:36:35Z</time>
      </trkpt>
      <trkpt lat="40.557183" lon="-5.166617">
        <ele>2202.0</ele>
        <time>2014-06-30T12:36:36Z</time>
      </trkpt>
      <trkpt lat="40.557217" lon="-5.166483">
        <ele>2206.0</ele>
        <time>2014-06-30T12:36:37Z</time>
      </trkpt>
      <trkpt lat="40.557250" lon="-5.166333">
        <ele>2209.0</ele>
        <time>2014-06-30T12:36:38Z</time>
      </trkpt>
      <trkpt lat="40.557300" lon="-5.166183">
        <ele>2212.0</ele>
        <time>2014-06-30T12:36:39Z</time>
      </trkpt>
      <trkpt lat="40.557383" lon="-5.166067">
        <ele>2215.0</ele>
        <time>2014-06-30T12:36:40Z</time>
      </trkpt>
      <trkpt lat="40.557483" lon="-5.165983">
        <ele>2217.0</ele>
        <time>2014-06-30T12:36:41Z</time>
      </trkpt>
      <trkpt lat="40.557600" lon="-5.165950">
        <ele>2219.0</ele>
        <time>2014-06-30T12:36:42Z</time>
      </trkpt>
      <trkpt lat="40.557683" lon="-5.165967">
        <ele>2222.0</ele>
        <time>2014-06-30T12:36:43Z</time>
      </trkpt>
      <trkpt lat="40.557717" lon="-5.166000">
        <ele>2225.0</ele>
        <time>2014-06-30T12:36:44Z</time>
      </trkpt>
      <trkpt lat="40.557733" lon="-5.166050">
        <ele>2226.0</ele>
        <time>2014-06-30T12:36:45Z</time>
      </trkpt>
      <trkpt lat="40.557733" lon="-5.166083">
        <ele>2228.0</ele>
        <time>2014-06-30T12:36:46Z</time>
      </trkpt>
      <trkpt lat="40.557733" lon="-5.166133">
        <ele>2230.0</ele>
        <time>2014-06-30T12:36:47Z</time>
      </trkpt>
      <trkpt lat="40.557700" lon="-5.166167">
        <ele>2224.0</ele>
        <time>2014-06-30T12:36:48Z</time>
      </trkpt>
      <trkpt lat="40.557683" lon="-5.166183">
        <ele>2223.0</ele>
        <time>2014-06-30T12:36:49Z</time>
      </trkpt>
      <trkpt lat="40.557650" lon="-5.166183">
        <ele>2224.0</ele>
        <time>2014-06-30T12:36:50Z</time>
      </trkpt>
      <trkpt lat="40.557617" lon="-5.166167">
        <ele>2225.0</ele>
        <time>2014-06-30T12:36:51Z</time>
      </trkpt>
      <trkpt lat="40.557567" lon="-5.166100">
        <ele>2227.0</ele>
        <time>2014-06-30T12:36:52Z</time>
      </trkpt>
      <trkpt lat="40.557517" lon="-5.166017">
        <ele>2229.0</ele>
        <time>2014-06-30T12:36:53Z</time>
      </trkpt>
      <trkpt lat="40.557467" lon="-5.165867">
        <ele>2232.0</ele>
        <time>2014-06-30T12:36:54Z</time>
      </trkpt>
      <trkpt lat="40.557467" lon="-5.165717">
        <ele>2237.0</ele>
        <time>2014-06-30T12:36:55Z</time>
      </trkpt>
      <trkpt lat="40.557500" lon="-5.165567">
        <ele>2241.0</ele>
        <time>2014-06-30T12:36:56Z</time>
      </trkpt>
      <trkpt lat="40.557583" lon="-5.165450">
        <ele>2245.0</ele>
        <time>2014-06-30T12:36:57Z</time>
      </trkpt>
      <trkpt lat="40.557683" lon="-5.165383">
        <ele>2248.0</ele>
        <time>2014-06-30T12:36:58Z</time>
      </trkpt>
      <trkpt lat="40.557783" lon="-5.165367">
        <ele>2251.0</ele>
        <time>2014-06-30T12:36:59Z</time>
      </trkpt>
      <trkpt lat="40.557867" lon="-5.165383">
        <ele>2257.0</ele>
        <time>2014-06-30T12:37:00Z</time>
      </trkpt>
      <trkpt lat="40.557933" lon="-5.165417">
        <ele>2261.0</ele>
        <time>2014-06-30T12:37:01Z</time>
      </trkpt>
      <trkpt lat="40.557967" lon="-5.165467">
        <ele>2264.0</ele>
        <time>2014-06-30T12:37:02Z</time>
      </trkpt>
      <trkpt lat="40.557983" lon="-5.165500">
        <ele>2268.0</ele>
        <time>2014-06-30T12:37:03Z</time>
      </trkpt>
      <trkpt lat="40.557983" lon="-5.165550">
        <ele>2271.0</ele>
        <time>2014-06-30T12:37:04Z</time>
      </trkpt>
      <trkpt lat="40.557983" lon="-5.165583">
        <ele>2274.0</ele>
        <time>2014-06-30T12:37:05Z</time>
      </trkpt>
      <trkpt lat="40.557950" lon="-5.165583">
        <ele>2277.0</ele>
        <time>2014-06-30T12:37:06Z</time>
      </trkpt>
      <trkpt lat="40.557917" lon="-5.165567">
        <ele>2279.0</ele>
        <time>2014-06-30T12:37:07Z</time>
      </trkpt>
      <trkpt lat="40.557850" lon="-5.165517">
        <ele>2282.0</ele>
        <time>2014-06-30T12:37:08Z</time>
      </trkpt>
      <trkpt lat="40.557783" lon="-5.165450">
        <ele>2284.0</ele>
        <time>2014-06-30T12:37:09Z</time>
      </trkpt>
      <trkpt lat="40.557717" lon="-5.165333">
        <ele>2287.0</ele>
        <time>2014-06-30T12:37:10Z</time>
      </trkpt>
      <trkpt lat="40.557700" lon="-5.165200">
        <ele>2290.0</ele>
        <time>2014-06-30T12:37:11Z</time>
      </trkpt>
      <trkpt lat="40.557700" lon="-5.165050">
        <ele>2292.0</ele>
        <time>2014-06-30T12:37:12Z</time>
      </trkpt>
      <trkpt lat="40.557750" lon="-5.164900">
        <ele>2294.0</ele>
        <time>2014-06-30T12:37:13Z</time>
      </trkpt>
      <trkpt lat="40.557817" lon="-5.164783">
        <ele>2298.0</ele>
        <time>2014-06-30T12:37:14Z</time>
      </trkpt>
      <trkpt lat="40.557900" lon="-5.164683">
        <ele>2302.0</ele>
        <time>2014-06-30T12:37:15Z</time>
      </trkpt>
      <trkpt lat="40.557967" lon="-5.164633">
        <ele>2305.0</ele>
        <time>2014-06-30T12:37:16Z</time>
      </trkpt>
      <trkpt lat="40.558050" lon="-5.164600">
        <ele>2308.0</ele>
        <time>2014-06-30T12:37:17Z</time>
      </trkpt>
      <trkpt lat="40.558133" lon="-5.164567">
        <ele>2311.0</ele>
        <time>2014-06-30T12:37:18Z</time>
      </trkpt>
      <trkpt lat="40.558217" lon="-5.164567">
        <ele>2313.0</ele>
        <time>2014-06-30T12:37:19Z</time>
      </trkpt>
      <trkpt lat="40.558283" lon="-5.164583">
        <ele>2316.0</ele>
        <time>2014-06-30T12:37:20Z</time>
      </trkpt>
      <trkpt lat="40.558333" lon="-5.164650">
        <ele>2318.0</ele>
        <time>2014-06-30T12:37:21Z</time>
      </trkpt>
      <trkpt lat="40.558350" lon="-5.164733">
        <ele>2320.0</ele>
        <time>2014-06-30T12:37:22Z</time>
      </trkpt>
      <trkpt lat="40.558333" lon="-5.164800">
        <ele>2322.0</ele>
        <time>2014-06-30T12:37:23Z</time>
      </trkpt>
      <trkpt lat="40.558300" lon="-5.164850">
        <ele>2324.0</ele>
        <time>2014-06-30T12:37:24Z</time>
      </trkpt>
      <trkpt lat="40.558250" lon="-5.164867">
        <ele>2326.0</ele>
        <time>2014-06-30T12:37:25Z</time>
      </trkpt>
      <trkpt lat="40.558200" lon="-5.164883">
        <ele>2330.0</ele>
        <time>2014-06-30T12:37:26Z</time>
      </trkpt>
      <trkpt lat="40.558150" lon="-5.164867">
        <ele>2334.0</ele>
        <time>2014-06-30T12:37:27Z</time>
      </trkpt>
      <trkpt lat="40.558117" lon="-5.164817">
        <ele>2337.0</ele>
        <time>2014-06-30T12:37:28Z</time>
      </trkpt>
      <trkpt lat="40.558067" lon="-5.164733">
        <ele>2340.0</ele>
        <time>2014-06-30T12:37:29Z</time>
      </trkpt>
      <trkpt lat="40.558017" lon="-5.164633">
        <ele>2342.0</ele>
        <time>2014-06-30T12:37:30Z</time>
      </trkpt>
      <trkpt lat="40.557983" lon="-5.164517">
        <ele>2343.0</ele>
        <time>2014-06-30T12:37:31Z</time>
      </trkpt>
      <trkpt lat="40.557950" lon="-5.164400">
        <ele>2342.0</ele>
        <time>2014-06-30T12:37:32Z</time>
      </trkpt>
      <trkpt lat="40.557950" lon="-5.164233">
        <ele>2343.0</ele>
        <time>2014-06-30T12:37:33Z</time>
      </trkpt>
      <trkpt lat="40.557983" lon="-5.164083">
        <ele>2344.0</ele>
        <time>2014-06-30T12:37:34Z</time>
      </trkpt>
      <trkpt lat="40.558033" lon="-5.163933">
        <ele>2347.0</ele>
        <time>2014-06-30T12:37:35Z</time>
      </trkpt>
      <trkpt lat="40.558100" lon="-5.163800">
        <ele>2351.0</ele>
        <time>2014-06-30T12:37:36Z</time>
      </trkpt>
      <trkpt lat="40.558150" lon="-5.163683">
        <ele>2355.0</ele>
        <time>2014-06-30T12:37:37Z</time>
      </trkpt>
      <trkpt lat="40.558217" lon="-5.163583">
        <ele>2358.0</ele>
        <time>2014-06-30T12:37:38Z</time>
      </trkpt>
      <trkpt lat="40.558283" lon="-5.163500">
        <ele>2360.0</ele>
        <time>2014-06-30T12:37:39Z</time>
      </trkpt>
      <trkpt lat="40.558367" lon="-5.163400">
        <ele>2363.0</ele>
        <time>2014-06-30T12:37:40Z</time>
      </trkpt>
      <trkpt lat="40.558467" lon="-5.163350">
        <ele>2365.0</ele>
        <time>2014-06-30T12:37:41Z</time>
      </trkpt>
      <trkpt lat="40.558567" lon="-5.163333">
        <ele>2366.0</ele>
        <time>2014-06-30T12:37:42Z</time>
      </trkpt>
      <trkpt lat="40.558650" lon="-5.163367">
        <ele>2368.0</ele>
        <time>2014-06-30T12:37:43Z</time>
      </trkpt>
      <trkpt lat="40.558700" lon="-5.163417">
        <ele>2364.0</ele>
        <time>2014-06-30T12:37:44Z</time>
      </trkpt>
      <trkpt lat="40.558767" lon="-5.163450">
        <ele>2366.0</ele>
        <time>2014-06-30T12:37:45Z</time>
      </trkpt>
      <trkpt lat="40.558833" lon="-5.163483">
        <ele>2367.0</ele>
        <time>2014-06-30T12:37:46Z</time>
      </trkpt>
      <trkpt lat="40.558883" lon="-5.163500">
        <ele>2369.0</ele>
        <time>2014-06-30T12:37:47Z</time>
      </trkpt>
      <trkpt lat="40.558917" lon="-5.163550">
        <ele>2370.0</ele>
        <time>2014-06-30T12:37:48Z</time>
      </trkpt>
      <trkpt lat="40.558950" lon="-5.163600">
        <ele>2372.0</ele>
        <time>2014-06-30T12:37:49Z</time>
      </trkpt>
      <trkpt lat="40.558967" lon="-5.163667">
        <ele>2374.0</ele>
        <time>2014-06-30T12:37:50Z</time>
      </trkpt>
      <trkpt lat="40.558933" lon="-5.163717">
        <ele>2378.0</ele>
        <time>2014-06-30T12:37:51Z</time>
      </trkpt>
      <trkpt lat="40.558900" lon="-5.163733">
        <ele>2381.0</ele>
        <time>2014-06-30T12:37:52Z</time>
      </trkpt>
      <trkpt lat="40.558850" lon="-5.163717">
        <ele>2385.0</ele>
        <time>2014-06-30T12:37:53Z</time>
      </trkpt>
      <trkpt lat="40.558800" lon="-5.163667">
        <ele>2387.0</ele>
        <time>2014-06-30T12:37:54Z</time>
      </trkpt>
      <trkpt lat="40.558750" lon="-5.163600">
        <ele>2390.0</ele>
        <time>2014-06-30T12:37:55Z</time>
      </trkpt>
      <trkpt lat="40.558700" lon="-5.163517">
        <ele>2393.0</ele>
        <time>2014-06-30T12:37:56Z</time>
      </trkpt>
      <trkpt lat="40.558633" lon="-5.163417">
        <ele>2396.0</ele>
        <time>2014-06-30T12:37:57Z</time>
      </trkpt>
      <trkpt lat="40.558600" lon="-5.163317">
        <ele>2399.0</ele>
        <time>2014-06-30T12:37:58Z</time>
      </trkpt>
      <trkpt lat="40.558583" lon="-5.163183">
        <ele>2402.0</ele>
        <time>2014-06-30T12:37:59Z</time>
      </trkpt>
      <trkpt lat="40.558583" lon="-5.163050">
        <ele>2404.0</ele>
        <time>2014-06-30T12:38:00Z</time>
      </trkpt>
      <trkpt lat="40.558600" lon="-5.162900">
        <ele>2407.0</ele>
        <time>2014-06-30T12:38:01Z</time>
      </trkpt>
      <trkpt lat="40.558633" lon="-5.162767">
        <ele>2409.0</ele>
        <time>2014-06-30T12:38:02Z</time>
      </trkpt>
      <trkpt lat="40.558683" lon="-5.162650">
        <ele>2412.0</ele>
        <time>2014-06-30T12:38:03Z</time>
      </trkpt>
      <trkpt lat="40.558750" lon="-5.162550">
        <ele>2414.0</ele>
        <time>2014-06-30T12:38:04Z</time>
      </trkpt>
      <trkpt lat="40.558833" lon="-5.162450">
        <ele>2416.0</ele>
        <time>2014-06-30T12:38:05Z</time>
      </trkpt>
      <trkpt lat="40.558917" lon="-5.162383">
        <ele>2418.0</ele>
        <time>2014-06-30T12:38:06Z</time>
      </trkpt>
      <trkpt lat="40.559000" lon="-5.162333">
        <ele>2420.0</ele>
        <time>2014-06-30T12:38:07Z</time>
      </trkpt>
      <trkpt lat="40.559100" lon="-5.162300">
        <ele>2422.0</ele>
        <time>2014-06-30T12:38:08Z</time>
      </trkpt>
      <trkpt lat="40.559183" lon="-5.162300">
        <ele>2424.0</ele>
        <time>2014-06-30T12:38:09Z</time>
      </trkpt>
      <trkpt lat="40.559267" lon="-5.162333">
        <ele>2426.0</ele>
        <time>2014-06-30T12:38:10Z</time>
      </trkpt>
      <trkpt lat="40.559333" lon="-5.162400">
        <ele>2427.0</ele>
        <time>2014-06-30T12:38:11Z</time>
      </trkpt>
      <trkpt lat="40.559400" lon="-5.162467">
        <ele>2429.0</ele>
        <time>2014-06-30T12:38:12Z</time>
      </trkpt>
      <trkpt lat="40.559417" lon="-5.162533">
        <ele>2424.0</ele>
        <time>2014-06-30T12:38:13Z</time>
      </trkpt>
      <trkpt lat="40.559433" lon="-5.162583">
        <ele>2425.0</ele>
        <time>2014-06-30T12:38:14Z</time>
      </trkpt>
      <trkpt lat="40.559433" lon="-5.162650">
        <ele>2426.0</ele>
        <time>2014-06-30T12:38:15Z</time>
      </trkpt>
      <trkpt lat="40.559433" lon="-5.162683">
        <ele>2426.0</ele>
        <time>2014-06-30T12:38:16Z</time>
      </trkpt>
      <trkpt lat="40.559417" lon="-5.162733">
        <ele>2427.0</ele>
        <time>2014-06-30T12:38:17Z</time>
      </trkpt>
      <trkpt lat="40.559383" lon="-5.162750">
        <ele>2429.0</ele>
        <time>2014-06-30T12:38:18Z</time>
      </trkpt>
      <trkpt lat="40.559333" lon="-5.162767">
        <ele>2430.0</ele>
        <time>2014-06-30T12:38:19Z</time>
      </trkpt>
      <trkpt lat="40.559267" lon="-5.162733">
        <ele>2431.0</ele>
        <time>2014-06-30T12:38:20Z</time>
      </trkpt>
      <trkpt lat="40.559217" lon="-5.162650">
        <ele>2432.0</ele>
        <time>2014-06-30T12:38:21Z</time>
      </trkpt>
      <trkpt lat="40.559167" lon="-5.162550">
        <ele>2435.0</ele>
        <time>2014-06-30T12:38:22Z</time>
      </trkpt>
      <trkpt lat="40.559117" lon="-5.162450">
        <ele>2438.0</ele>
        <time>2014-06-30T12:38:23Z</time>
      </trkpt>
      <trkpt lat="40.559083" lon="-5.162333">
        <ele>2442.0</ele>
        <time>2014-06-30T12:38:24Z</time>
      </trkpt>
      <trkpt lat="40.559067" lon="-5.162233">
        <ele>2444.0</ele>
        <time>2014-06-30T12:38:25Z</time>
      </trkpt>
      <trkpt lat="40.559033" lon="-5.162133">
        <ele>2442.0</ele>
        <time>2014-06-30T12:38:26Z</time>
      </trkpt>
      <trkpt lat="40.559000" lon="-5.162017">
        <ele>2444.0</ele>
        <time>2014-06-30T12:38:27Z</time>
      </trkpt>
      <trkpt lat="40.559000" lon="-5.161883">
        <ele>2446.0</ele>
        <time>2014-06-30T12:38:28Z</time>
      </trkpt>
      <trkpt lat="40.559000" lon="-5.161733">
        <ele>2448.0</ele>
        <time>2014-06-30T12:38:29Z</time>
      </trkpt>
      <trkpt lat="40.559033" lon="-5.161583">
        <ele>2449.0</ele>
        <time>2014-06-30T12:38:30Z</time>
      </trkpt>
      <trkpt lat="40.559067" lon="-5.161467">
        <ele>2451.0</ele>
        <time>2014-06-30T12:38:31Z</time>
      </trkpt>
      <trkpt lat="40.559100" lon="-5.161333">
        <ele>2452.0</ele>
        <time>2014-06-30T12:38:32Z</time>
      </trkpt>
      <trkpt lat="40.559167" lon="-5.161217">
        <ele>2453.0</ele>
        <time>2014-06-30T12:38:33Z</time>
      </trkpt>
      <trkpt lat="40.559233" lon="-5.161100">
        <ele>2454.0</ele>
        <time>2014-06-30T12:38:34Z</time>
      </trkpt>
      <trkpt lat="40.559317" lon="-5.161017">
        <ele>2456.0</ele>
        <time>2014-06-30T12:38:35Z</time>
      </trkpt>
      <trkpt lat="40.559400" lon="-5.160933">
        <ele>2459.0</ele>
        <time>2014-06-30T12:38:36Z</time>
      </trkpt>
      <trkpt lat="40.559483" lon="-5.160900">
        <ele>2460.0</ele>
        <time>2014-06-30T12:38:37Z</time>
      </trkpt>
      <trkpt lat="40.559583" lon="-5.160883">
        <ele>2462.0</ele>
        <time>2014-06-30T12:38:38Z</time>
      </trkpt>
      <trkpt lat="40.559667" lon="-5.160917">
        <ele>2463.0</ele>
        <time>2014-06-30T12:38:39Z</time>
      </trkpt>
      <trkpt lat="40.559767" lon="-5.160950">
        <ele>2464.0</ele>
        <time>2014-06-30T12:38:40Z</time>
      </trkpt>
      <trkpt lat="40.559833" lon="-5.161000">
        <ele>2466.0</ele>
        <time>2014-06-30T12:38:41Z</time>
      </trkpt>
      <trkpt lat="40.559883" lon="-5.161050">
        <ele>2467.0</ele>
        <time>2014-06-30T12:38:42Z</time>
      </trkpt>
      <trkpt lat="40.559900" lon="-5.161100">
        <ele>2468.0</ele>
        <time>2014-06-30T12:38:43Z</time>
      </trkpt>
      <trkpt lat="40.559917" lon="-5.161150">
        <ele>2470.0</ele>
        <time>2014-06-30T12:38:44Z</time>
      </trkpt>
      <trkpt lat="40.559917" lon="-5.161217">
        <ele>2471.0</ele>
        <time>2014-06-30T12:38:45Z</time>
      </trkpt>
      <trkpt lat="40.559900" lon="-5.161267">
        <ele>2468.0</ele>
        <time>2014-06-30T12:38:46Z</time>
      </trkpt>
      <trkpt lat="40.559867" lon="-5.161283">
        <ele>2468.0</ele>
        <time>2014-06-30T12:38:47Z</time>
      </trkpt>
      <trkpt lat="40.559850" lon="-5.161283">
        <ele>2470.0</ele>
        <time>2014-06-30T12:38:48Z</time>
      </trkpt>
      <trkpt lat="40.559800" lon="-5.161267">
        <ele>2471.0</ele>
        <time>2014-06-30T12:38:49Z</time>
      </trkpt>
      <trkpt lat="40.559750" lon="-5.161233">
        <ele>2473.0</ele>
        <time>2014-06-30T12:38:50Z</time>
      </trkpt>
      <trkpt lat="40.559700" lon="-5.161200">
        <ele>2472.0</ele>
        <time>2014-06-30T12:38:51Z</time>
      </trkpt>
      <trkpt lat="40.559633" lon="-5.161150">
        <ele>2473.0</ele>
        <time>2014-06-30T12:38:52Z</time>
      </trkpt>
      <trkpt lat="40.559583" lon="-5.161033">
        <ele>2474.0</ele>
        <time>2014-06-30T12:38:53Z</time>
      </trkpt>
      <trkpt lat="40.559567" lon="-5.160883">
        <ele>2476.0</ele>
        <time>2014-06-30T12:38:54Z</time>
      </trkpt>
      <trkpt lat="40.559583" lon="-5.160733">
        <ele>2481.0</ele>
        <time>2014-06-30T12:38:55Z</time>
      </trkpt>
      <trkpt lat="40.559600" lon="-5.160583">
        <ele>2484.0</ele>
        <time>2014-06-30T12:38:56Z</time>
      </trkpt>
      <trkpt lat="40.559633" lon="-5.160433">
        <ele>2487.0</ele>
        <time>2014-06-30T12:38:57Z</time>
      </trkpt>
      <trkpt lat="40.559683" lon="-5.160317">
        <ele>2489.0</ele>
        <time>2014-06-30T12:38:58Z</time>
      </trkpt>
      <trkpt lat="40.559750" lon="-5.160200">
        <ele>2491.0</ele>
        <time>2014-06-30T12:38:59Z</time>
      </trkpt>
      <trkpt lat="40.559833" lon="-5.160100">
        <ele>2492.0</ele>
        <time>2014-06-30T12:39:00Z</time>
      </trkpt>
      <trkpt lat="40.559933" lon="-5.160000">
        <ele>2493.0</ele>
        <time>2014-06-30T12:39:01Z</time>
      </trkpt>
      <trkpt lat="40.560033" lon="-5.159933">
        <ele>2494.0</ele>
        <time>2014-06-30T12:39:02Z</time>
      </trkpt>
      <trkpt lat="40.560133" lon="-5.159900">
        <ele>2493.0</ele>
        <time>2014-06-30T12:39:03Z</time>
      </trkpt>
      <trkpt lat="40.560233" lon="-5.159917">
        <ele>2492.0</ele>
        <time>2014-06-30T12:39:04Z</time>
      </trkpt>
      <trkpt lat="40.560300" lon="-5.160000">
        <ele>2492.0</ele>
        <time>2014-06-30T12:39:05Z</time>
      </trkpt>
      <trkpt lat="40.560333" lon="-5.160083">
        <ele>2493.0</ele>
        <time>2014-06-30T12:39:06Z</time>
      </trkpt>
      <trkpt lat="40.560317" lon="-5.160133">
        <ele>2495.0</ele>
        <time>2014-06-30T12:39:07Z</time>
      </trkpt>
      <trkpt lat="40.560267" lon="-5.160150">
        <ele>2495.0</ele>
        <time>2014-06-30T12:39:08Z</time>
      </trkpt>
      <trkpt lat="40.560217" lon="-5.160133">
        <ele>2495.0</ele>
        <time>2014-06-30T12:39:09Z</time>
      </trkpt>
      <trkpt lat="40.560150" lon="-5.160117">
        <ele>2496.0</ele>
        <time>2014-06-30T12:39:10Z</time>
      </trkpt>
      <trkpt lat="40.560100" lon="-5.160100">
        <ele>2496.0</ele>
        <time>2014-06-30T12:39:11Z</time>
      </trkpt>
      <trkpt lat="40.560050" lon="-5.160083">
        <ele>2496.0</ele>
        <time>2014-06-30T12:39:12Z</time>
      </trkpt>
      <trkpt lat="40.559983" lon="-5.160050">
        <ele>2497.0</ele>
        <time>2014-06-30T12:39:13Z</time>
      </trkpt>
      <trkpt lat="40.559917" lon="-5.160000">
        <ele>2497.0</ele>
        <time>2014-06-30T12:39:14Z</time>
      </trkpt>
      <trkpt lat="40.559850" lon="-5.159933">
        <ele>2499.0</ele>
        <time>2014-06-30T12:39:15Z</time>
      </trkpt>
      <trkpt lat="40.559783" lon="-5.159850">
        <ele>2500.0</ele>
        <time>2014-06-30T12:39:16Z</time>
      </trkpt>
      <trkpt lat="40.559733" lon="-5.159733">
        <ele>2502.0</ele>
        <time>2014-06-30T12:39:17Z</time>
      </trkpt>
      <trkpt lat="40.559700" lon="-5.159617">
        <ele>2504.0</ele>
        <time>2014-06-30T12:39:18Z</time>
      </trkpt>
      <trkpt lat="40.559683" lon="-5.159500">
        <ele>2506.0</ele>
        <time>2014-06-30T12:39:19Z</time>
      </trkpt>
      <trkpt lat="40.559683" lon="-5.159383">
        <ele>2508.0</ele>
        <time>2014-06-30T12:39:20Z</time>
      </trkpt>
      <trkpt lat="40.559700" lon="-5.159250">
        <ele>2509.0</ele>
        <time>2014-06-30T12:39:21Z</time>
      </trkpt>
      <trkpt lat="40.559717" lon="-5.159117">
        <ele>2510.0</ele>
        <time>2014-06-30T12:39:22Z</time>
      </trkpt>
      <trkpt lat="40.559767" lon="-5.159000">
        <ele>2511.0</ele>
        <time>2014-06-30T12:39:23Z</time>
      </trkpt>
      <trkpt lat="40.559817" lon="-5.158900">
        <ele>2512.0</ele>
        <time>2014-06-30T12:39:24Z</time>
      </trkpt>
      <trkpt lat="40.559867" lon="-5.158817">
        <ele>2514.0</ele>
        <time>2014-06-30T12:39:25Z</time>
      </trkpt>
      <trkpt lat="40.559933" lon="-5.158733">
        <ele>2515.0</ele>
        <time>2014-06-30T12:39:26Z</time>
      </trkpt>
      <trkpt lat="40.559983" lon="-5.158650">
        <ele>2516.0</ele>
        <time>2014-06-30T12:39:27Z</time>
      </trkpt>
      <trkpt lat="40.560050" lon="-5.158567">
        <ele>2516.0</ele>
        <time>2014-06-30T12:39:28Z</time>
      </trkpt>
      <trkpt lat="40.560133" lon="-5.158517">
        <ele>2517.0</ele>
        <time>2014-06-30T12:39:29Z</time>
      </trkpt>
      <trkpt lat="40.560217" lon="-5.158483">
        <ele>2518.0</ele>
        <time>2014-06-30T12:39:30Z</time>
      </trkpt>
      <trkpt lat="40.560283" lon="-5.158500">
        <ele>2519.0</ele>
        <time>2014-06-30T12:39:31Z</time>
      </trkpt>
      <trkpt lat="40.560350" lon="-5.158517">
        <ele>2519.0</ele>
        <time>2014-06-30T12:39:32Z</time>
      </trkpt>
      <trkpt lat="40.560417" lon="-5.158550">
        <ele>2520.0</ele>
        <time>2014-06-30T12:39:33Z</time>
      </trkpt>
      <trkpt lat="40.560467" lon="-5.158583">
        <ele>2519.0</ele>
        <time>2014-06-30T12:39:34Z</time>
      </trkpt>
      <trkpt lat="40.560533" lon="-5.158633">
        <ele>2518.0</ele>
        <time>2014-06-30T12:39:35Z</time>
      </trkpt>
      <trkpt lat="40.560567" lon="-5.158700">
        <ele>2519.0</ele>
        <time>2014-06-30T12:39:36Z</time>
      </trkpt>
      <trkpt lat="40.560583" lon="-5.158783">
        <ele>2518.0</ele>
        <time>2014-06-30T12:39:37Z</time>
      </trkpt>
      <trkpt lat="40.560583" lon="-5.158850">
        <ele>2519.0</ele>
        <time>2014-06-30T12:39:38Z</time>
      </trkpt>
      <trkpt lat="40.560550" lon="-5.158933">
        <ele>2519.0</ele>
        <time>2014-06-30T12:39:39Z</time>
      </trkpt>
      <trkpt lat="40.560500" lon="-5.158967">
        <ele>2520.0</ele>
        <time>2014-06-30T12:39:40Z</time>
      </trkpt>
      <trkpt lat="40.560433" lon="-5.158967">
        <ele>2521.0</ele>
        <time>2014-06-30T12:39:41Z</time>
      </trkpt>
      <trkpt lat="40.560383" lon="-5.158933">
        <ele>2522.0</ele>
        <time>2014-06-30T12:39:42Z</time>
      </trkpt>
      <trkpt lat="40.560333" lon="-5.158850">
        <ele>2523.0</ele>
        <time>2014-06-30T12:39:43Z</time>
      </trkpt>
      <trkpt lat="40.560283" lon="-5.158783">
        <ele>2523.0</ele>
        <time>2014-06-30T12:39:44Z</time>
      </trkpt>
      <trkpt lat="40.560250" lon="-5.158683">
        <ele>2522.0</ele>
        <time>2014-06-30T12:39:45Z</time>
      </trkpt>
      <trkpt lat="40.560200" lon="-5.158567">
        <ele>2521.0</ele>
        <time>2014-06-30T12:39:46Z</time>
      </trkpt>
      <trkpt lat="40.560183" lon="-5.158433">
        <ele>2520.0</ele>
        <time>2014-06-30T12:39:47Z</time>
      </trkpt>
      <trkpt lat="40.560183" lon="-5.158283">
        <ele>2520.0</ele>
        <time>2014-06-30T12:39:48Z</time>
      </trkpt>
      <trkpt lat="40.560200" lon="-5.158117">
        <ele>2520.0</ele>
        <time>2014-06-30T12:39:49Z</time>
      </trkpt>
      <trkpt lat="40.560217" lon="-5.157967">
        <ele>2520.0</ele>
        <time>2014-06-30T12:39:50Z</time>
      </trkpt>
      <trkpt lat="40.560267" lon="-5.157833">
        <ele>2520.0</ele>
        <time>2014-06-30T12:39:51Z</time>
      </trkpt>
      <trkpt lat="40.560300" lon="-5.157683">
        <ele>2520.0</ele>
        <time>2014-06-30T12:39:52Z</time>
      </trkpt>
      <trkpt lat="40.560333" lon="-5.157550">
        <ele>2521.0</ele>
        <time>2014-06-30T12:39:53Z</time>
      </trkpt>
      <trkpt lat="40.560367" lon="-5.157400">
        <ele>2521.0</ele>
        <time>2014-06-30T12:39:54Z</time>
      </trkpt>
      <trkpt lat="40.560400" lon="-5.157267">
        <ele>2523.0</ele>
        <time>2014-06-30T12:39:55Z</time>
      </trkpt>
      <trkpt lat="40.560450" lon="-5.157133">
        <ele>2524.0</ele>
        <time>2014-06-30T12:39:56Z</time>
      </trkpt>
      <trkpt lat="40.560500" lon="-5.157017">
        <ele>2525.0</ele>
        <time>2014-06-30T12:39:57Z</time>
      </trkpt>
      <trkpt lat="40.560567" lon="-5.156900">
        <ele>2525.0</ele>
        <time>2014-06-30T12:39:58Z</time>
      </trkpt>
      <trkpt lat="40.560633" lon="-5.156800">
        <ele>2525.0</ele>
        <time>2014-06-30T12:39:59Z</time>
      </trkpt>
      <trkpt lat="40.560717" lon="-5.156717">
        <ele>2525.0</ele>
        <time>2014-06-30T12:40:00Z</time>
      </trkpt>
      <trkpt lat="40.560817" lon="-5.156650">
        <ele>2526.0</ele>
        <time>2014-06-30T12:40:01Z</time>
      </trkpt>
      <trkpt lat="40.560900" lon="-5.156600">
        <ele>2526.0</ele>
        <time>2014-06-30T12:40:02Z</time>
      </trkpt>
      <trkpt lat="40.561000" lon="-5.156567">
        <ele>2526.0</ele>
        <time>2014-06-30T12:40:03Z</time>
      </trkpt>
      <trkpt lat="40.561083" lon="-5.156517">
        <ele>2527.0</ele>
        <time>2014-06-30T12:40:04Z</time>
      </trkpt>
      <trkpt lat="40.561183" lon="-5.156483">
        <ele>2528.0</ele>
        <time>2014-06-30T12:40:05Z</time>
      </trkpt>
      <trkpt lat="40.561267" lon="-5.156433">
        <ele>2528.0</ele>
        <time>2014-06-30T12:40:06Z</time>
      </trkpt>
      <trkpt lat="40.561367" lon="-5.156383">
        <ele>2528.0</ele>
        <time>2014-06-30T12:40:07Z</time>
      </trkpt>
      <trkpt lat="40.561450" lon="-5.156333">
        <ele>2527.0</ele>
        <time>2014-06-30T12:40:08Z</time>
      </trkpt>
      <trkpt lat="40.561567" lon="-5.156233">
        <ele>2526.0</ele>
        <time>2014-06-30T12:40:09Z</time>
      </trkpt>
      <trkpt lat="40.561667" lon="-5.156133">
        <ele>2525.0</ele>
        <time>2014-06-30T12:40:10Z</time>
      </trkpt>
      <trkpt lat="40.561783" lon="-5.156000">
        <ele>2524.0</ele>
        <time>2014-06-30T12:40:11Z</time>
      </trkpt>
      <trkpt lat="40.561900" lon="-5.155867">
        <ele>2524.0</ele>
        <time>2014-06-30T12:40:12Z</time>
      </trkpt>
      <trkpt lat="40.562017" lon="-5.155733">
        <ele>2527.0</ele>
        <time>2014-06-30T12:40:13Z</time>
      </trkpt>
      <trkpt lat="40.562117" lon="-5.155600">
        <ele>2529.0</ele>
        <time>2014-06-30T12:40:14Z</time>
      </trkpt>
      <trkpt lat="40.562200" lon="-5.155467">
        <ele>2530.0</ele>
        <time>2014-06-30T12:40:15Z</time>
      </trkpt>
      <trkpt lat="40.562267" lon="-5.155317">
        <ele>2532.0</ele>
        <time>2014-06-30T12:40:16Z</time>
      </trkpt>
      <trkpt lat="40.562317" lon="-5.155183">
        <ele>2533.0</ele>
        <time>2014-06-30T12:40:17Z</time>
      </trkpt>
      <trkpt lat="40.562367" lon="-5.155050">
        <ele>2535.0</ele>
        <time>2014-06-30T12:40:18Z</time>
      </trkpt>
      <trkpt lat="40.562417" lon="-5.154900">
        <ele>2536.0</ele>
        <time>2014-06-30T12:40:19Z</time>
      </trkpt>
      <trkpt lat="40.562450" lon="-5.154767">
        <ele>2537.0</ele>
        <time>2014-06-30T12:40:20Z</time>
      </trkpt>
      <trkpt lat="40.562467" lon="-5.154617">
        <ele>2538.0</ele>
        <time>2014-06-30T12:40:21Z</time>
      </trkpt>
      <trkpt lat="40.562467" lon="-5.154483">
        <ele>2539.0</ele>
        <time>2014-06-30T12:40:22Z</time>
      </trkpt>
      <trkpt lat="40.562467" lon="-5.154367">
        <ele>2540.0</ele>
        <time>2014-06-30T12:40:23Z</time>
      </trkpt>
      <trkpt lat="40.562450" lon="-5.154250">
        <ele>2541.0</ele>
        <time>2014-06-30T12:40:24Z</time>
      </trkpt>
      <trkpt lat="40.562417" lon="-5.154167">
        <ele>2542.0</ele>
        <time>2014-06-30T12:40:25Z</time>
      </trkpt>
      <trkpt lat="40.562383" lon="-5.154100">
        <ele>2542.0</ele>
        <time>2014-06-30T12:40:26Z</time>
      </trkpt>
      <trkpt lat="40.562350" lon="-5.154033">
        <ele>2542.0</ele>
        <time>2014-06-30T12:40:27Z</time>
      </trkpt>
      <trkpt lat="40.562317" lon="-5.154000">
        <ele>2543.0</ele>
        <time>2014-06-30T12:40:28Z</time>
      </trkpt>
      <trkpt lat="40.562283" lon="-5.153967">
        <ele>2543.0</ele>
        <time>2014-06-30T12:40:29Z</time>
      </trkpt>
      <trkpt lat="40.562250" lon="-5.153967">
        <ele>2543.0</ele>
        <time>2014-06-30T12:40:30Z</time>
      </trkpt>
      <trkpt lat="40.562217" lon="-5.153983">
        <ele>2543.0</ele>
        <time>2014-06-30T12:40:31Z</time>
      </trkpt>
      <trkpt lat="40.562200" lon="-5.154017">
        <ele>2543.0</ele>
        <time>2014-06-30T12:40:32Z</time>
      </trkpt>
      <trkpt lat="40.562200" lon="-5.154067">
        <ele>2543.0</ele>
        <time>2014-06-30T12:40:33Z</time>
      </trkpt>
      <trkpt lat="40.562200" lon="-5.154133">
        <ele>2543.0</ele>
        <time>2014-06-30T12:40:34Z</time>
      </trkpt>
      <trkpt lat="40.562217" lon="-5.154183">
        <ele>2545.0</ele>
        <time>2014-06-30T12:40:35Z</time>
      </trkpt>
      <trkpt lat="40.562250" lon="-5.154233">
        <ele>2547.0</ele>
        <time>2014-06-30T12:40:36Z</time>
      </trkpt>
      <trkpt lat="40.562267" lon="-5.154267">
        <ele>2548.0</ele>
        <time>2014-06-30T12:40:37Z</time>
      </trkpt>
      <trkpt lat="40.562300" lon="-5.154300">
        <ele>2549.0</ele>
        <time>2014-06-30T12:40:38Z</time>
      </trkpt>
      <trkpt lat="40.562333" lon="-5.154333">
        <ele>2546.0</ele>
        <time>2014-06-30T12:40:39Z</time>
      </trkpt>
      <trkpt lat="40.562383" lon="-5.154400">
        <ele>2544.0</ele>
        <time>2014-06-30T12:40:40Z</time>
      </trkpt>
      <trkpt lat="40.562467" lon="-5.154433">
        <ele>2542.0</ele>
        <time>2014-06-30T12:40:41Z</time>
      </trkpt>
      <trkpt lat="40.562583" lon="-5.154450">
        <ele>2541.0</ele>
        <time>2014-06-30T12:40:42Z</time>
      </trkpt>
      <trkpt lat="40.562700" lon="-5.154433">
        <ele>2541.0</ele>
        <time>2014-06-30T12:40:43Z</time>
      </trkpt>
      <trkpt lat="40.562817" lon="-5.154367">
        <ele>2542.0</ele>
        <time>2014-06-30T12:40:44Z</time>
      </trkpt>
      <trkpt lat="40.562917" lon="-5.154283">
        <ele>2543.0</ele>
        <time>2014-06-30T12:40:45Z</time>
      </trkpt>
      <trkpt lat="40.563000" lon="-5.154183">
        <ele>2542.0</ele>
        <time>2014-06-30T12:40:46Z</time>
      </trkpt>
      <trkpt lat="40.563083" lon="-5.154083">
        <ele>2542.0</ele>
        <time>2014-06-30T12:40:47Z</time>
      </trkpt>
      <trkpt lat="40.563183" lon="-5.153950">
        <ele>2541.0</ele>
        <time>2014-06-30T12:40:48Z</time>
      </trkpt>
      <trkpt lat="40.563267" lon="-5.153800">
        <ele>2541.0</ele>
        <time>2014-06-30T12:40:49Z</time>
      </trkpt>
      <trkpt lat="40.563350" lon="-5.153650">
        <ele>2542.0</ele>
        <time>2014-06-30T12:40:50Z</time>
      </trkpt>
      <trkpt lat="40.563417" lon="-5.153517">
        <ele>2543.0</ele>
        <time>2014-06-30T12:40:51Z</time>
      </trkpt>
      <trkpt lat="40.563483" lon="-5.153367">
        <ele>2544.0</ele>
        <time>2014-06-30T12:40:52Z</time>
      </trkpt>
      <trkpt lat="40.563533" lon="-5.153217">
        <ele>2545.0</ele>
        <time>2014-06-30T12:40:53Z</time>
      </trkpt>
      <trkpt lat="40.563567" lon="-5.153083">
        <ele>2546.0</ele>
        <time>2014-06-30T12:40:54Z</time>
      </trkpt>
      <trkpt lat="40.563617" lon="-5.152933">
        <ele>2546.0</ele>
        <time>2014-06-30T12:40:55Z</time>
      </trkpt>
      <trkpt lat="40.563633" lon="-5.152800">
        <ele>2546.0</ele>
        <time>2014-06-30T12:40:56Z</time>
      </trkpt>
      <trkpt lat="40.563633" lon="-5.152667">
        <ele>2546.0</ele>
        <time>2014-06-30T12:40:57Z</time>
      </trkpt>
      <trkpt lat="40.563633" lon="-5.152533">
        <ele>2545.0</ele>
        <time>2014-06-30T12:40:58Z</time>
      </trkpt>
      <trkpt lat="40.563617" lon="-5.152400">
        <ele>2545.0</ele>
        <time>2014-06-30T12:40:59Z</time>
      </trkpt>
      <trkpt lat="40.563600" lon="-5.152283">
        <ele>2545.0</ele>
        <time>2014-06-30T12:41:00Z</time>
      </trkpt>
      <trkpt lat="40.563567" lon="-5.152183">
        <ele>2545.0</ele>
        <time>2014-06-30T12:41:01Z</time>
      </trkpt>
      <trkpt lat="40.563550" lon="-5.152083">
        <ele>2544.0</ele>
        <time>2014-06-30T12:41:02Z</time>
      </trkpt>
      <trkpt lat="40.563517" lon="-5.152000">
        <ele>2545.0</ele>
        <time>2014-06-30T12:41:03Z</time>
      </trkpt>
      <trkpt lat="40.563467" lon="-5.151917">
        <ele>2544.0</ele>
        <time>2014-06-30T12:41:04Z</time>
      </trkpt>
      <trkpt lat="40.563417" lon="-5.151817">
        <ele>2543.0</ele>
        <time>2014-06-30T12:41:05Z</time>
      </trkpt>
      <trkpt lat="40.563367" lon="-5.151733">
        <ele>2541.0</ele>
        <time>2014-06-30T12:41:06Z</time>
      </trkpt>
      <trkpt lat="40.563300" lon="-5.151617">
        <ele>2540.0</ele>
        <time>2014-06-30T12:41:07Z</time>
      </trkpt>
      <trkpt lat="40.563250" lon="-5.151500">
        <ele>2540.0</ele>
        <time>2014-06-30T12:41:08Z</time>
      </trkpt>
      <trkpt lat="40.563200" lon="-5.151383">
        <ele>2541.0</ele>
        <time>2014-06-30T12:41:09Z</time>
      </trkpt>
      <trkpt lat="40.563183" lon="-5.151283">
        <ele>2541.0</ele>
        <time>2014-06-30T12:41:10Z</time>
      </trkpt>
      <trkpt lat="40.563150" lon="-5.151167">
        <ele>2542.0</ele>
        <time>2014-06-30T12:41:11Z</time>
      </trkpt>
      <trkpt lat="40.563133" lon="-5.151050">
        <ele>2541.0</ele>
        <time>2014-06-30T12:41:12Z</time>
      </trkpt>
      <trkpt lat="40.563117" lon="-5.150950">
        <ele>2542.0</ele>
        <time>2014-06-30T12:41:13Z</time>
      </trkpt>
      <trkpt lat="40.563117" lon="-5.150833">
        <ele>2542.0</ele>
        <time>2014-06-30T12:41:14Z</time>
      </trkpt>
      <trkpt lat="40.563117" lon="-5.150700">
        <ele>2542.0</ele>
        <time>2014-06-30T12:41:15Z</time>
      </trkpt>
      <trkpt lat="40.563133" lon="-5.150550">
        <ele>2542.0</ele>
        <time>2014-06-30T12:41:16Z</time>
      </trkpt>
      <trkpt lat="40.563150" lon="-5.150400">
        <ele>2541.0</ele>
        <time>2014-06-30T12:41:17Z</time>
      </trkpt>
      <trkpt lat="40.563200" lon="-5.150250">
        <ele>2542.0</ele>
        <time>2014-06-30T12:41:18Z</time>
      </trkpt>
      <trkpt lat="40.563250" lon="-5.150100">
        <ele>2541.0</ele>
        <time>2014-06-30T12:41:19Z</time>
      </trkpt>
      <trkpt lat="40.563283" lon="-5.149950">
        <ele>2541.0</ele>
        <time>2014-06-30T12:41:20Z</time>
      </trkpt>
      <trkpt lat="40.563333" lon="-5.149783">
        <ele>2540.0</ele>
        <time>2014-06-30T12:41:21Z</time>
      </trkpt>
      <trkpt lat="40.563383" lon="-5.149617">
        <ele>2539.0</ele>
        <time>2014-06-30T12:41:22Z</time>
      </trkpt>
      <trkpt lat="40.563433" lon="-5.149450">
        <ele>2539.0</ele>
        <time>2014-06-30T12:41:23Z</time>
      </trkpt>
      <trkpt lat="40.563483" lon="-5.149317">
        <ele>2538.0</ele>
        <time>2014-06-30T12:41:24Z</time>
      </trkpt>
      <trkpt lat="40.563533" lon="-5.149183">
        <ele>2538.0</ele>
        <time>2014-06-30T12:41:25Z</time>
      </trkpt>
      <trkpt lat="40.563600" lon="-5.149050">
        <ele>2536.0</ele>
        <time>2014-06-30T12:41:26Z</time>
      </trkpt>
      <trkpt lat="40.563683" lon="-5.148900">
        <ele>2535.0</ele>
        <time>2014-06-30T12:41:27Z</time>
      </trkpt>
      <trkpt lat="40.563750" lon="-5.148733">
        <ele>2531.0</ele>
        <time>2014-06-30T12:41:28Z</time>
      </trkpt>
      <trkpt lat="40.563850" lon="-5.148567">
        <ele>2527.0</ele>
        <time>2014-06-30T12:41:29Z</time>
      </trkpt>
      <trkpt lat="40.563950" lon="-5.148400">
        <ele>2524.0</ele>
        <time>2014-06-30T12:41:30Z</time>
      </trkpt>
      <trkpt lat="40.564067" lon="-5.148250">
        <ele>2522.0</ele>
        <time>2014-06-30T12:41:31Z</time>
      </trkpt>
      <trkpt lat="40.564167" lon="-5.148083">
        <ele>2521.0</ele>
        <time>2014-06-30T12:41:32Z</time>
      </trkpt>
      <trkpt lat="40.564250" lon="-5.147933">
        <ele>2520.0</ele>
        <time>2014-06-30T12:41:33Z</time>
      </trkpt>
      <trkpt lat="40.564333" lon="-5.147783">
        <ele>2518.0</ele>
        <time>2014-06-30T12:41:34Z</time>
      </trkpt>
      <trkpt lat="40.564417" lon="-5.147617">
        <ele>2516.0</ele>
        <time>2014-06-30T12:41:35Z</time>
      </trkpt>
      <trkpt lat="40.564517" lon="-5.147467">
        <ele>2514.0</ele>
        <time>2014-06-30T12:41:36Z</time>
      </trkpt>
      <trkpt lat="40.564633" lon="-5.147317">
        <ele>2513.0</ele>
        <time>2014-06-30T12:41:37Z</time>
      </trkpt>
      <trkpt lat="40.564733" lon="-5.147183">
        <ele>2514.0</ele>
        <time>2014-06-30T12:41:38Z</time>
      </trkpt>
      <trkpt lat="40.564817" lon="-5.147050">
        <ele>2513.0</ele>
        <time>2014-06-30T12:41:39Z</time>
      </trkpt>
      <trkpt lat="40.564883" lon="-5.146933">
        <ele>2511.0</ele>
        <time>2014-06-30T12:41:40Z</time>
      </trkpt>
      <trkpt lat="40.564950" lon="-5.146800">
        <ele>2509.0</ele>
        <time>2014-06-30T12:41:41Z</time>
      </trkpt>
      <trkpt lat="40.565050" lon="-5.146650">
        <ele>2507.0</ele>
        <time>2014-06-30T12:41:42Z</time>
      </trkpt>
      <trkpt lat="40.565133" lon="-5.146500">
        <ele>2505.0</ele>
        <time>2014-06-30T12:41:43Z</time>
      </trkpt>
      <trkpt lat="40.565217" lon="-5.146333">
        <ele>2504.0</ele>
        <time>2014-06-30T12:41:44Z</time>
      </trkpt>
      <trkpt lat="40.565283" lon="-5.146183">
        <ele>2504.0</ele>
        <time>2014-06-30T12:41:45Z</time>
      </trkpt>
      <trkpt lat="40.565350" lon="-5.146050">
        <ele>2504.0</ele>
        <time>2014-06-30T12:41:46Z</time>
      </trkpt>
      <trkpt lat="40.565433" lon="-5.145917">
        <ele>2502.0</ele>
        <time>2014-06-30T12:41:47Z</time>
      </trkpt>
      <trkpt lat="40.565517" lon="-5.145767">
        <ele>2501.0</ele>
        <time>2014-06-30T12:41:48Z</time>
      </trkpt>
      <trkpt lat="40.565583" lon="-5.145600">
        <ele>2500.0</ele>
        <time>2014-06-30T12:41:49Z</time>
      </trkpt>
      <trkpt lat="40.565633" lon="-5.145417">
        <ele>2500.0</ele>
        <time>2014-06-30T12:41:50Z</time>
      </trkpt>
      <trkpt lat="40.565683" lon="-5.145250">
        <ele>2499.0</ele>
        <time>2014-06-30T12:41:51Z</time>
      </trkpt>
      <trkpt lat="40.565750" lon="-5.145100">
        <ele>2499.0</ele>
        <time>2014-06-30T12:41:52Z</time>
      </trkpt>
      <trkpt lat="40.565817" lon="-5.144967">
        <ele>2498.0</ele>
        <time>2014-06-30T12:41:53Z</time>
      </trkpt>
      <trkpt lat="40.565867" lon="-5.144817">
        <ele>2497.0</ele>
        <time>2014-06-30T12:41:54Z</time>
      </trkpt>
      <trkpt lat="40.565917" lon="-5.144650">
        <ele>2495.0</ele>
        <time>2014-06-30T12:41:55Z</time>
      </trkpt>
      <trkpt lat="40.566000" lon="-5.144483">
        <ele>2492.0</ele>
        <time>2014-06-30T12:41:56Z</time>
      </trkpt>
      <trkpt lat="40.566067" lon="-5.144333">
        <ele>2491.0</ele>
        <time>2014-06-30T12:41:57Z</time>
      </trkpt>
      <trkpt lat="40.566150" lon="-5.144200">
        <ele>2490.0</ele>
        <time>2014-06-30T12:41:58Z</time>
      </trkpt>
      <trkpt lat="40.566217" lon="-5.144067">
        <ele>2488.0</ele>
        <time>2014-06-30T12:41:59Z</time>
      </trkpt>
      <trkpt lat="40.566283" lon="-5.143917">
        <ele>2485.0</ele>
        <time>2014-06-30T12:42:00Z</time>
      </trkpt>
      <trkpt lat="40.566350" lon="-5.143750">
        <ele>2482.0</ele>
        <time>2014-06-30T12:42:01Z</time>
      </trkpt>
      <trkpt lat="40.566417" lon="-5.143583">
        <ele>2479.0</ele>
        <time>2014-06-30T12:42:02Z</time>
      </trkpt>
      <trkpt lat="40.566483" lon="-5.143400">
        <ele>2477.0</ele>
        <time>2014-06-30T12:42:03Z</time>
      </trkpt>
      <trkpt lat="40.566550" lon="-5.143250">
        <ele>2475.0</ele>
        <time>2014-06-30T12:42:04Z</time>
      </trkpt>
      <trkpt lat="40.566633" lon="-5.143100">
        <ele>2473.0</ele>
        <time>2014-06-30T12:42:05Z</time>
      </trkpt>
      <trkpt lat="40.566717" lon="-5.142950">
        <ele>2471.0</ele>
        <time>2014-06-30T12:42:06Z</time>
      </trkpt>
      <trkpt lat="40.566800" lon="-5.142800">
        <ele>2469.0</ele>
        <time>2014-06-30T12:42:07Z</time>
      </trkpt>
      <trkpt lat="40.566867" lon="-5.142633">
        <ele>2467.0</ele>
        <time>2014-06-30T12:42:08Z</time>
      </trkpt>
      <trkpt lat="40.566950" lon="-5.142483">
        <ele>2464.0</ele>
        <time>2014-06-30T12:42:09Z</time>
      </trkpt>
      <trkpt lat="40.567017" lon="-5.142333">
        <ele>2462.0</ele>
        <time>2014-06-30T12:42:10Z</time>
      </trkpt>
      <trkpt lat="40.567100" lon="-5.142167">
        <ele>2459.0</ele>
        <time>2014-06-30T12:42:11Z</time>
      </trkpt>
      <trkpt lat="40.567167" lon="-5.142017">
        <ele>2457.0</ele>
        <time>2014-06-30T12:42:12Z</time>
      </trkpt>
      <trkpt lat="40.567217" lon="-5.141850">
        <ele>2454.0</ele>
        <time>2014-06-30T12:42:13Z</time>
      </trkpt>
      <trkpt lat="40.567250" lon="-5.141667">
        <ele>2451.0</ele>
        <time>2014-06-30T12:42:14Z</time>
      </trkpt>
      <trkpt lat="40.567300" lon="-5.141500">
        <ele>2450.0</ele>
        <time>2014-06-30T12:42:15Z</time>
      </trkpt>
      <trkpt lat="40.567350" lon="-5.141333">
        <ele>2449.0</ele>
        <time>2014-06-30T12:42:16Z</time>
      </trkpt>
      <trkpt lat="40.567417" lon="-5.141167">
        <ele>2447.0</ele>
        <time>2014-06-30T12:42:17Z</time>
      </trkpt>
      <trkpt lat="40.567483" lon="-5.140983">
        <ele>2445.0</ele>
        <time>2014-06-30T12:42:18Z</time>
      </trkpt>
      <trkpt lat="40.567533" lon="-5.140817">
        <ele>2444.0</ele>
        <time>2014-06-30T12:42:19Z</time>
      </trkpt>
      <trkpt lat="40.567583" lon="-5.140633">
        <ele>2443.0</ele>
        <time>2014-06-30T12:42:20Z</time>
      </trkpt>
      <trkpt lat="40.567650" lon="-5.140450">
        <ele>2442.0</ele>
        <time>2014-06-30T12:42:21Z</time>
      </trkpt>
      <trkpt lat="40.567717" lon="-5.140267">
        <ele>2442.0</ele>
        <time>2014-06-30T12:42:22Z</time>
      </trkpt>
      <trkpt lat="40.567767" lon="-5.140100">
        <ele>2441.0</ele>
        <time>2014-06-30T12:42:23Z</time>
      </trkpt>
      <trkpt lat="40.567833" lon="-5.139933">
        <ele>2440.0</ele>
        <time>2014-06-30T12:42:24Z</time>
      </trkpt>
      <trkpt lat="40.567883" lon="-5.139750">
        <ele>2438.0</ele>
        <time>2014-06-30T12:42:25Z</time>
      </trkpt>
      <trkpt lat="40.567950" lon="-5.139567">
        <ele>2437.0</ele>
        <time>2014-06-30T12:42:26Z</time>
      </trkpt>
      <trkpt lat="40.568017" lon="-5.139400">
        <ele>2435.0</ele>
        <time>2014-06-30T12:42:27Z</time>
      </trkpt>
      <trkpt lat="40.568083" lon="-5.139217">
        <ele>2435.0</ele>
        <time>2014-06-30T12:42:28Z</time>
      </trkpt>
      <trkpt lat="40.568133" lon="-5.139067">
        <ele>2435.0</ele>
        <time>2014-06-30T12:42:29Z</time>
      </trkpt>
      <trkpt lat="40.568200" lon="-5.138900">
        <ele>2433.0</ele>
        <time>2014-06-30T12:42:30Z</time>
      </trkpt>
      <trkpt lat="40.568250" lon="-5.138750">
        <ele>2431.0</ele>
        <time>2014-06-30T12:42:31Z</time>
      </trkpt>
      <trkpt lat="40.568317" lon="-5.138600">
        <ele>2429.0</ele>
        <time>2014-06-30T12:42:32Z</time>
      </trkpt>
      <trkpt lat="40.568383" lon="-5.138433">
        <ele>2426.0</ele>
        <time>2014-06-30T12:42:33Z</time>
      </trkpt>
      <trkpt lat="40.568433" lon="-5.138267">
        <ele>2423.0</ele>
        <time>2014-06-30T12:42:34Z</time>
      </trkpt>
      <trkpt lat="40.568517" lon="-5.138100">
        <ele>2420.0</ele>
        <time>2014-06-30T12:42:35Z</time>
      </trkpt>
      <trkpt lat="40.568583" lon="-5.137933">
        <ele>2418.0</ele>
        <time>2014-06-30T12:42:36Z</time>
      </trkpt>
      <trkpt lat="40.568667" lon="-5.137783">
        <ele>2415.0</ele>
        <time>2014-06-30T12:42:37Z</time>
      </trkpt>
      <trkpt lat="40.568767" lon="-5.137650">
        <ele>2412.0</ele>
        <time>2014-06-30T12:42:38Z</time>
      </trkpt>
      <trkpt lat="40.568867" lon="-5.137483">
        <ele>2409.0</ele>
        <time>2014-06-30T12:42:39Z</time>
      </trkpt>
      <trkpt lat="40.568950" lon="-5.137333">
        <ele>2404.0</ele>
        <time>2014-06-30T12:42:40Z</time>
      </trkpt>
      <trkpt lat="40.569067" lon="-5.137150">
        <ele>2400.0</ele>
        <time>2014-06-30T12:42:41Z</time>
      </trkpt>
      <trkpt lat="40.569167" lon="-5.136967">
        <ele>2399.0</ele>
        <time>2014-06-30T12:42:42Z</time>
      </trkpt>
      <trkpt lat="40.569250" lon="-5.136800">
        <ele>2397.0</ele>
        <time>2014-06-30T12:42:43Z</time>
      </trkpt>
      <trkpt lat="40.569350" lon="-5.136633">
        <ele>2395.0</ele>
        <time>2014-06-30T12:42:44Z</time>
      </trkpt>
      <trkpt lat="40.569433" lon="-5.136467">
        <ele>2393.0</ele>
        <time>2014-06-30T12:42:45Z</time>
      </trkpt>
      <trkpt lat="40.569533" lon="-5.136317">
        <ele>2391.0</ele>
        <time>2014-06-30T12:42:46Z</time>
      </trkpt>
      <trkpt lat="40.569617" lon="-5.136133">
        <ele>2388.0</ele>
        <time>2014-06-30T12:42:47Z</time>
      </trkpt>
      <trkpt lat="40.569717" lon="-5.135950">
        <ele>2386.0</ele>
        <time>2014-06-30T12:42:48Z</time>
      </trkpt>
      <trkpt lat="40.569800" lon="-5.135783">
        <ele>2385.0</ele>
        <time>2014-06-30T12:42:49Z</time>
      </trkpt>
      <trkpt lat="40.569900" lon="-5.135617">
        <ele>2384.0</ele>
        <time>2014-06-30T12:42:50Z</time>
      </trkpt>
      <trkpt lat="40.569983" lon="-5.135467">
        <ele>2382.0</ele>
        <time>2014-06-30T12:42:51Z</time>
      </trkpt>
      <trkpt lat="40.570083" lon="-5.135300">
        <ele>2380.0</ele>
        <time>2014-06-30T12:42:52Z</time>
      </trkpt>
      <trkpt lat="40.570167" lon="-5.135133">
        <ele>2377.0</ele>
        <time>2014-06-30T12:42:53Z</time>
      </trkpt>
      <trkpt lat="40.570267" lon="-5.134967">
        <ele>2375.0</ele>
        <time>2014-06-30T12:42:54Z</time>
      </trkpt>
      <trkpt lat="40.570367" lon="-5.134800">
        <ele>2372.0</ele>
        <time>2014-06-30T12:42:55Z</time>
      </trkpt>
      <trkpt lat="40.570483" lon="-5.134633">
        <ele>2370.0</ele>
        <time>2014-06-30T12:42:56Z</time>
      </trkpt>
      <trkpt lat="40.570600" lon="-5.134483">
        <ele>2370.0</ele>
        <time>2014-06-30T12:42:57Z</time>
      </trkpt>
      <trkpt lat="40.570683" lon="-5.134317">
        <ele>2369.0</ele>
        <time>2014-06-30T12:42:58Z</time>
      </trkpt>
      <trkpt lat="40.570767" lon="-5.134167">
        <ele>2367.0</ele>
        <time>2014-06-30T12:42:59Z</time>
      </trkpt>
      <trkpt lat="40.570850" lon="-5.134017">
        <ele>2365.0</ele>
        <time>2014-06-30T12:43:00Z</time>
      </trkpt>
      <trkpt lat="40.570933" lon="-5.133867">
        <ele>2363.0</ele>
        <time>2014-06-30T12:43:01Z</time>
      </trkpt>
      <trkpt lat="40.571033" lon="-5.133700">
        <ele>2361.0</ele>
        <time>2014-06-30T12:43:02Z</time>
      </trkpt>
      <trkpt lat="40.571117" lon="-5.133533">
        <ele>2358.0</ele>
        <time>2014-06-30T12:43:03Z</time>
      </trkpt>
      <trkpt lat="40.571200" lon="-5.133367">
        <ele>2356.0</ele>
        <time>2014-06-30T12:43:04Z</time>
      </trkpt>
      <trkpt lat="40.571283" lon="-5.133200">
        <ele>2353.0</ele>
        <time>2014-06-30T12:43:05Z</time>
      </trkpt>
      <trkpt lat="40.571367" lon="-5.133033">
        <ele>2351.0</ele>
        <time>2014-06-30T12:43:06Z</time>
      </trkpt>
      <trkpt lat="40.571467" lon="-5.132900">
        <ele>2348.0</ele>
        <time>2014-06-30T12:43:07Z</time>
      </trkpt>
      <trkpt lat="40.571550" lon="-5.132750">
        <ele>2346.0</ele>
        <time>2014-06-30T12:43:08Z</time>
      </trkpt>
      <trkpt lat="40.571633" lon="-5.132583">
        <ele>2341.0</ele>
        <time>2014-06-30T12:43:09Z</time>
      </trkpt>
      <trkpt lat="40.571717" lon="-5.132417">
        <ele>2338.0</ele>
        <time>2014-06-30T12:43:10Z</time>
      </trkpt>
      <trkpt lat="40.571817" lon="-5.132250">
        <ele>2335.0</ele>
        <time>2014-06-30T12:43:11Z</time>
      </trkpt>
      <trkpt lat="40.571900" lon="-5.132100">
        <ele>2334.0</ele>
        <time>2014-06-30T12:43:12Z</time>
      </trkpt>
      <trkpt lat="40.571983" lon="-5.131950">
        <ele>2333.0</ele>
        <time>2014-06-30T12:43:13Z</time>
      </trkpt>
      <trkpt lat="40.572067" lon="-5.131800">
        <ele>2330.0</ele>
        <time>2014-06-30T12:43:14Z</time>
      </trkpt>
      <trkpt lat="40.572133" lon="-5.131650">
        <ele>2327.0</ele>
        <time>2014-06-30T12:43:15Z</time>
      </trkpt>
      <trkpt lat="40.572200" lon="-5.131467">
        <ele>2324.0</ele>
        <time>2014-06-30T12:43:16Z</time>
      </trkpt>
      <trkpt lat="40.572267" lon="-5.131283">
        <ele>2321.0</ele>
        <time>2014-06-30T12:43:17Z</time>
      </trkpt>
      <trkpt lat="40.572333" lon="-5.131100">
        <ele>2318.0</ele>
        <time>2014-06-30T12:43:18Z</time>
      </trkpt>
      <trkpt lat="40.572417" lon="-5.130933">
        <ele>2316.0</ele>
        <time>2014-06-30T12:43:19Z</time>
      </trkpt>
      <trkpt lat="40.572483" lon="-5.130767">
        <ele>2314.0</ele>
        <time>2014-06-30T12:43:20Z</time>
      </trkpt>
      <trkpt lat="40.572550" lon="-5.130600">
        <ele>2312.0</ele>
        <time>2014-06-30T12:43:21Z</time>
      </trkpt>
      <trkpt lat="40.572617" lon="-5.130433">
        <ele>2310.0</ele>
        <time>2014-06-30T12:43:22Z</time>
      </trkpt>
      <trkpt lat="40.572667" lon="-5.130283">
        <ele>2309.0</ele>
        <time>2014-06-30T12:43:23Z</time>
      </trkpt>
      <trkpt lat="40.572733" lon="-5.130133">
        <ele>2308.0</ele>
        <time>2014-06-30T12:43:24Z</time>
      </trkpt>
      <trkpt lat="40.572783" lon="-5.129983">
        <ele>2307.0</ele>
        <time>2014-06-30T12:43:25Z</time>
      </trkpt>
      <trkpt lat="40.572850" lon="-5.129833">
        <ele>2307.0</ele>
        <time>2014-06-30T12:43:26Z</time>
      </trkpt>
      <trkpt lat="40.572900" lon="-5.129700">
        <ele>2306.0</ele>
        <time>2014-06-30T12:43:27Z</time>
      </trkpt>
      <trkpt lat="40.572967" lon="-5.129567">
        <ele>2304.0</ele>
        <time>2014-06-30T12:43:28Z</time>
      </trkpt>
      <trkpt lat="40.573050" lon="-5.129417">
        <ele>2302.0</ele>
        <time>2014-06-30T12:43:29Z</time>
      </trkpt>
      <trkpt lat="40.573117" lon="-5.129267">
        <ele>2300.0</ele>
        <time>2014-06-30T12:43:30Z</time>
      </trkpt>
      <trkpt lat="40.573200" lon="-5.129117">
        <ele>2298.0</ele>
        <time>2014-06-30T12:43:31Z</time>
      </trkpt>
      <trkpt lat="40.573267" lon="-5.128967">
        <ele>2298.0</ele>
        <time>2014-06-30T12:43:32Z</time>
      </trkpt>
      <trkpt lat="40.573350" lon="-5.128833">
        <ele>2296.0</ele>
        <time>2014-06-30T12:43:33Z</time>
      </trkpt>
      <trkpt lat="40.573433" lon="-5.128717">
        <ele>2296.0</ele>
        <time>2014-06-30T12:43:34Z</time>
      </trkpt>
      <trkpt lat="40.573517" lon="-5.128600">
        <ele>2295.0</ele>
        <time>2014-06-30T12:43:35Z</time>
      </trkpt>
      <trkpt lat="40.573583" lon="-5.128483">
        <ele>2294.0</ele>
        <time>2014-06-30T12:43:36Z</time>
      </trkpt>
      <trkpt lat="40.573667" lon="-5.128367">
        <ele>2292.0</ele>
        <time>2014-06-30T12:43:37Z</time>
      </trkpt>
      <trkpt lat="40.573733" lon="-5.128250">
        <ele>2290.0</ele>
        <time>2014-06-30T12:43:38Z</time>
      </trkpt>
      <trkpt lat="40.573817" lon="-5.128133">
        <ele>2287.0</ele>
        <time>2014-06-30T12:43:39Z</time>
      </trkpt>
      <trkpt lat="40.573883" lon="-5.128000">
        <ele>2284.0</ele>
        <time>2014-06-30T12:43:40Z</time>
      </trkpt>
      <trkpt lat="40.573967" lon="-5.127883">
        <ele>2280.0</ele>
        <time>2014-06-30T12:43:41Z</time>
      </trkpt>
      <trkpt lat="40.574050" lon="-5.127750">
        <ele>2277.0</ele>
        <time>2014-06-30T12:43:42Z</time>
      </trkpt>
      <trkpt lat="40.574133" lon="-5.127633">
        <ele>2275.0</ele>
        <time>2014-06-30T12:43:43Z</time>
      </trkpt>
      <trkpt lat="40.574217" lon="-5.127500">
        <ele>2272.0</ele>
        <time>2014-06-30T12:43:44Z</time>
      </trkpt>
      <trkpt lat="40.574300" lon="-5.127383">
        <ele>2270.0</ele>
        <time>2014-06-30T12:43:45Z</time>
      </trkpt>
      <trkpt lat="40.574367" lon="-5.127250">
        <ele>2267.0</ele>
        <time>2014-06-30T12:43:46Z</time>
      </trkpt>
      <trkpt lat="40.574433" lon="-5.127117">
        <ele>2265.0</ele>
        <time>2014-06-30T12:43:47Z</time>
      </trkpt>
      <trkpt lat="40.574500" lon="-5.126967">
        <ele>2262.0</ele>
        <time>2014-06-30T12:43:48Z</time>
      </trkpt>
      <trkpt lat="40.574550" lon="-5.126800">
        <ele>2260.0</ele>
        <time>2014-06-30T12:43:49Z</time>
      </trkpt>
      <trkpt lat="40.574600" lon="-5.126650">
        <ele>2257.0</ele>
        <time>2014-06-30T12:43:50Z</time>
      </trkpt>
      <trkpt lat="40.574633" lon="-5.126483">
        <ele>2255.0</ele>
        <time>2014-06-30T12:43:51Z</time>
      </trkpt>
      <trkpt lat="40.574700" lon="-5.126333">
        <ele>2254.0</ele>
        <time>2014-06-30T12:43:52Z</time>
      </trkpt>
      <trkpt lat="40.574750" lon="-5.126183">
        <ele>2253.0</ele>
        <time>2014-06-30T12:43:53Z</time>
      </trkpt>
      <trkpt lat="40.574800" lon="-5.126033">
        <ele>2251.0</ele>
        <time>2014-06-30T12:43:54Z</time>
      </trkpt>
      <trkpt lat="40.574850" lon="-5.125883">
        <ele>2248.0</ele>
        <time>2014-06-30T12:43:55Z</time>
      </trkpt>
      <trkpt lat="40.574917" lon="-5.125733">
        <ele>2245.0</ele>
        <time>2014-06-30T12:43:56Z</time>
      </trkpt>
      <trkpt lat="40.574967" lon="-5.125583">
        <ele>2242.0</ele>
        <time>2014-06-30T12:43:57Z</time>
      </trkpt>
      <trkpt lat="40.575017" lon="-5.125433">
        <ele>2238.0</ele>
        <time>2014-06-30T12:43:58Z</time>
      </trkpt>
      <trkpt lat="40.575083" lon="-5.125267">
        <ele>2234.0</ele>
        <time>2014-06-30T12:43:59Z</time>
      </trkpt>
      <trkpt lat="40.575133" lon="-5.125100">
        <ele>2232.0</ele>
        <time>2014-06-30T12:44:00Z</time>
      </trkpt>
      <trkpt lat="40.575200" lon="-5.124933">
        <ele>2231.0</ele>
        <time>2014-06-30T12:44:01Z</time>
      </trkpt>
      <trkpt lat="40.575250" lon="-5.124783">
        <ele>2230.0</ele>
        <time>2014-06-30T12:44:02Z</time>
      </trkpt>
      <trkpt lat="40.575317" lon="-5.124633">
        <ele>2227.0</ele>
        <time>2014-06-30T12:44:03Z</time>
      </trkpt>
      <trkpt lat="40.575367" lon="-5.124467">
        <ele>2224.0</ele>
        <time>2014-06-30T12:44:04Z</time>
      </trkpt>
      <trkpt lat="40.575433" lon="-5.124300">
        <ele>2221.0</ele>
        <time>2014-06-30T12:44:05Z</time>
      </trkpt>
      <trkpt lat="40.575500" lon="-5.124100">
        <ele>2217.0</ele>
        <time>2014-06-30T12:44:06Z</time>
      </trkpt>
      <trkpt lat="40.575583" lon="-5.123917">
        <ele>2215.0</ele>
        <time>2014-06-30T12:44:07Z</time>
      </trkpt>
      <trkpt lat="40.575683" lon="-5.123750">
        <ele>2218.0</ele>
        <time>2014-06-30T12:44:08Z</time>
      </trkpt>
      <trkpt lat="40.575750" lon="-5.123583">
        <ele>2220.0</ele>
        <time>2014-06-30T12:44:09Z</time>
      </trkpt>
      <trkpt lat="40.575800" lon="-5.123433">
        <ele>2221.0</ele>
        <time>2014-06-30T12:44:10Z</time>
      </trkpt>
      <trkpt lat="40.575850" lon="-5.123300">
        <ele>2221.0</ele>
        <time>2014-06-30T12:44:11Z</time>
      </trkpt>
      <trkpt lat="40.575917" lon="-5.123167">
        <ele>2220.0</ele>
        <time>2014-06-30T12:44:12Z</time>
      </trkpt>
      <trkpt lat="40.575983" lon="-5.123033">
        <ele>2217.0</ele>
        <time>2014-06-30T12:44:13Z</time>
      </trkpt>
      <trkpt lat="40.576083" lon="-5.122883">
        <ele>2215.0</ele>
        <time>2014-06-30T12:44:14Z</time>
      </trkpt>
      <trkpt lat="40.576150" lon="-5.122733">
        <ele>2213.0</ele>
        <time>2014-06-30T12:44:15Z</time>
      </trkpt>
      <trkpt lat="40.576233" lon="-5.122583">
        <ele>2213.0</ele>
        <time>2014-06-30T12:44:16Z</time>
      </trkpt>
      <trkpt lat="40.576283" lon="-5.122433">
        <ele>2211.0</ele>
        <time>2014-06-30T12:44:17Z</time>
      </trkpt>
      <trkpt lat="40.576350" lon="-5.122300">
        <ele>2209.0</ele>
        <time>2014-06-30T12:44:18Z</time>
      </trkpt>
      <trkpt lat="40.576400" lon="-5.122167">
        <ele>2207.0</ele>
        <time>2014-06-30T12:44:19Z</time>
      </trkpt>
      <trkpt lat="40.576467" lon="-5.122000">
        <ele>2205.0</ele>
        <time>2014-06-30T12:44:20Z</time>
      </trkpt>
      <trkpt lat="40.576550" lon="-5.121850">
        <ele>2204.0</ele>
        <time>2014-06-30T12:44:21Z</time>
      </trkpt>
      <trkpt lat="40.576617" lon="-5.121700">
        <ele>2202.0</ele>
        <time>2014-06-30T12:44:22Z</time>
      </trkpt>
      <trkpt lat="40.576683" lon="-5.121550">
        <ele>2202.0</ele>
        <time>2014-06-30T12:44:23Z</time>
      </trkpt>
      <trkpt lat="40.576733" lon="-5.121417">
        <ele>2201.0</ele>
        <time>2014-06-30T12:44:24Z</time>
      </trkpt>
      <trkpt lat="40.576800" lon="-5.121283">
        <ele>2199.0</ele>
        <time>2014-06-30T12:44:25Z</time>
      </trkpt>
      <trkpt lat="40.576883" lon="-5.121150">
        <ele>2197.0</ele>
        <time>2014-06-30T12:44:26Z</time>
      </trkpt>
      <trkpt lat="40.576967" lon="-5.121000">
        <ele>2195.0</ele>
        <time>2014-06-30T12:44:27Z</time>
      </trkpt>
      <trkpt lat="40.577050" lon="-5.120850">
        <ele>2193.0</ele>
        <time>2014-06-30T12:44:28Z</time>
      </trkpt>
      <trkpt lat="40.577117" lon="-5.120700">
        <ele>2193.0</ele>
        <time>2014-06-30T12:44:29Z</time>
      </trkpt>
      <trkpt lat="40.577183" lon="-5.120567">
        <ele>2193.0</ele>
        <time>2014-06-30T12:44:30Z</time>
      </trkpt>
      <trkpt lat="40.577250" lon="-5.120433">
        <ele>2192.0</ele>
        <time>2014-06-30T12:44:31Z</time>
      </trkpt>
      <trkpt lat="40.577300" lon="-5.120267">
        <ele>2191.0</ele>
        <time>2014-06-30T12:44:32Z</time>
      </trkpt>
      <trkpt lat="40.577367" lon="-5.120100">
        <ele>2191.0</ele>
        <time>2014-06-30T12:44:33Z</time>
      </trkpt>
      <trkpt lat="40.577433" lon="-5.119950">
        <ele>2191.0</ele>
        <time>2014-06-30T12:44:34Z</time>
      </trkpt>
      <trkpt lat="40.577533" lon="-5.119817">
        <ele>2190.0</ele>
        <time>2014-06-30T12:44:35Z</time>
      </trkpt>
      <trkpt lat="40.577617" lon="-5.119700">
        <ele>2190.0</ele>
        <time>2014-06-30T12:44:36Z</time>
      </trkpt>
      <trkpt lat="40.577700" lon="-5.119583">
        <ele>2190.0</ele>
        <time>2014-06-30T12:44:37Z</time>
      </trkpt>
      <trkpt lat="40.577783" lon="-5.119450">
        <ele>2188.0</ele>
        <time>2014-06-30T12:44:38Z</time>
      </trkpt>
      <trkpt lat="40.577867" lon="-5.119317">
        <ele>2188.0</ele>
        <time>2014-06-30T12:44:39Z</time>
      </trkpt>
      <trkpt lat="40.577950" lon="-5.119200">
        <ele>2187.0</ele>
        <time>2014-06-30T12:44:40Z</time>
      </trkpt>
      <trkpt lat="40.578033" lon="-5.119083">
        <ele>2188.0</ele>
        <time>2014-06-30T12:44:41Z</time>
      </trkpt>
      <trkpt lat="40.578133" lon="-5.119000">
        <ele>2188.0</ele>
        <time>2014-06-30T12:44:42Z</time>
      </trkpt>
      <trkpt lat="40.578233" lon="-5.118917">
        <ele>2188.0</ele>
        <time>2014-06-30T12:44:43Z</time>
      </trkpt>
      <trkpt lat="40.578333" lon="-5.118800">
        <ele>2188.0</ele>
        <time>2014-06-30T12:44:44Z</time>
      </trkpt>
      <trkpt lat="40.578417" lon="-5.118667">
        <ele>2189.0</ele>
        <time>2014-06-30T12:44:45Z</time>
      </trkpt>
      <trkpt lat="40.578500" lon="-5.118517">
        <ele>2189.0</ele>
        <time>2014-06-30T12:44:46Z</time>
      </trkpt>
      <trkpt lat="40.578600" lon="-5.118400">
        <ele>2194.0</ele>
        <time>2014-06-30T12:44:47Z</time>
      </trkpt>
      <trkpt lat="40.578683" lon="-5.118300">
        <ele>2198.0</ele>
        <time>2014-06-30T12:44:48Z</time>
      </trkpt>
      <trkpt lat="40.578750" lon="-5.118217">
        <ele>2201.0</ele>
        <time>2014-06-30T12:44:49Z</time>
      </trkpt>
      <trkpt lat="40.578817" lon="-5.118117">
        <ele>2203.0</ele>
        <time>2014-06-30T12:44:50Z</time>
      </trkpt>
      <trkpt lat="40.578867" lon="-5.118033">
        <ele>2204.0</ele>
        <time>2014-06-30T12:44:51Z</time>
      </trkpt>
      <trkpt lat="40.578967" lon="-5.117933">
        <ele>2205.0</ele>
        <time>2014-06-30T12:44:52Z</time>
      </trkpt>
      <trkpt lat="40.579083" lon="-5.117833">
        <ele>2205.0</ele>
        <time>2014-06-30T12:44:53Z</time>
      </trkpt>
      <trkpt lat="40.579200" lon="-5.117750">
        <ele>2205.0</ele>
        <time>2014-06-30T12:44:54Z</time>
      </trkpt>
      <trkpt lat="40.579317" lon="-5.117650">
        <ele>2205.0</ele>
        <time>2014-06-30T12:44:55Z</time>
      </trkpt>
      <trkpt lat="40.579433" lon="-5.117550">
        <ele>2206.0</ele>
        <time>2014-06-30T12:44:56Z</time>
      </trkpt>
      <trkpt lat="40.579533" lon="-5.117433">
        <ele>2207.0</ele>
        <time>2014-06-30T12:44:57Z</time>
      </trkpt>
      <trkpt lat="40.579617" lon="-5.117333">
        <ele>2207.0</ele>
        <time>2014-06-30T12:44:58Z</time>
      </trkpt>
      <trkpt lat="40.579700" lon="-5.117233">
        <ele>2207.0</ele>
        <time>2014-06-30T12:44:59Z</time>
      </trkpt>
      <trkpt lat="40.579783" lon="-5.117117">
        <ele>2208.0</ele>
        <time>2014-06-30T12:45:00Z</time>
      </trkpt>
      <trkpt lat="40.579867" lon="-5.117017">
        <ele>2208.0</ele>
        <time>2014-06-30T12:45:01Z</time>
      </trkpt>
      <trkpt lat="40.579933" lon="-5.116883">
        <ele>2207.0</ele>
        <time>2014-06-30T12:45:02Z</time>
      </trkpt>
      <trkpt lat="40.580017" lon="-5.116750">
        <ele>2205.0</ele>
        <time>2014-06-30T12:45:03Z</time>
      </trkpt>
      <trkpt lat="40.580083" lon="-5.116600">
        <ele>2204.0</ele>
        <time>2014-06-30T12:45:04Z</time>
      </trkpt>
      <trkpt lat="40.580117" lon="-5.116417">
        <ele>2203.0</ele>
        <time>2014-06-30T12:45:05Z</time>
      </trkpt>
      <trkpt lat="40.580133" lon="-5.116217">
        <ele>2201.0</ele>
        <time>2014-06-30T12:45:06Z</time>
      </trkpt>
      <trkpt lat="40.580117" lon="-5.116033">
        <ele>2200.0</ele>
        <time>2014-06-30T12:45:07Z</time>
      </trkpt>
      <trkpt lat="40.580083" lon="-5.115850">
        <ele>2200.0</ele>
        <time>2014-06-30T12:45:08Z</time>
      </trkpt>
      <trkpt lat="40.580050" lon="-5.115683">
        <ele>2200.0</ele>
        <time>2014-06-30T12:45:09Z</time>
      </trkpt>
      <trkpt lat="40.580000" lon="-5.115533">
        <ele>2201.0</ele>
        <time>2014-06-30T12:45:10Z</time>
      </trkpt>
      <trkpt lat="40.579933" lon="-5.115400">
        <ele>2202.0</ele>
        <time>2014-06-30T12:45:11Z</time>
      </trkpt>
      <trkpt lat="40.579883" lon="-5.115250">
        <ele>2202.0</ele>
        <time>2014-06-30T12:45:12Z</time>
      </trkpt>
      <trkpt lat="40.579850" lon="-5.115117">
        <ele>2203.0</ele>
        <time>2014-06-30T12:45:13Z</time>
      </trkpt>
      <trkpt lat="40.579817" lon="-5.114983">
        <ele>2204.0</ele>
        <time>2014-06-30T12:45:14Z</time>
      </trkpt>
      <trkpt lat="40.579783" lon="-5.114867">
        <ele>2205.0</ele>
        <time>2014-06-30T12:45:15Z</time>
      </trkpt>
      <trkpt lat="40.579750" lon="-5.114750">
        <ele>2205.0</ele>
        <time>2014-06-30T12:45:16Z</time>
      </trkpt>
      <trkpt lat="40.579717" lon="-5.114617">
        <ele>2205.0</ele>
        <time>2014-06-30T12:45:17Z</time>
      </trkpt>
      <trkpt lat="40.579683" lon="-5.114483">
        <ele>2205.0</ele>
        <time>2014-06-30T12:45:18Z</time>
      </trkpt>
      <trkpt lat="40.579650" lon="-5.114333">
        <ele>2206.0</ele>
        <time>2014-06-30T12:45:19Z</time>
      </trkpt>
      <trkpt lat="40.579650" lon="-5.114183">
        <ele>2206.0</ele>
        <time>2014-06-30T12:45:20Z</time>
      </trkpt>
      <trkpt lat="40.579650" lon="-5.114033">
        <ele>2206.0</ele>
        <time>2014-06-30T12:45:21Z</time>
      </trkpt>
      <trkpt lat="40.579700" lon="-5.113867">
        <ele>2205.0</ele>
        <time>2014-06-30T12:45:22Z</time>
      </trkpt>
      <trkpt lat="40.579750" lon="-5.113717">
        <ele>2203.0</ele>
        <time>2014-06-30T12:45:23Z</time>
      </trkpt>
      <trkpt lat="40.579833" lon="-5.113567">
        <ele>2203.0</ele>
        <time>2014-06-30T12:45:24Z</time>
      </trkpt>
      <trkpt lat="40.579917" lon="-5.113450">
        <ele>2203.0</ele>
        <time>2014-06-30T12:45:25Z</time>
      </trkpt>
      <trkpt lat="40.580000" lon="-5.113367">
        <ele>2204.0</ele>
        <time>2014-06-30T12:45:26Z</time>
      </trkpt>
      <trkpt lat="40.580083" lon="-5.113333">
        <ele>2204.0</ele>
        <time>2014-06-30T12:45:27Z</time>
      </trkpt>
      <trkpt lat="40.580167" lon="-5.113317">
        <ele>2205.0</ele>
        <time>2014-06-30T12:45:28Z</time>
      </trkpt>
      <trkpt lat="40.580217" lon="-5.113317">
        <ele>2205.0</ele>
        <time>2014-06-30T12:45:29Z</time>
      </trkpt>
      <trkpt lat="40.580283" lon="-5.113317">
        <ele>2205.0</ele>
        <time>2014-06-30T12:45:30Z</time>
      </trkpt>
      <trkpt lat="40.580350" lon="-5.113333">
        <ele>2205.0</ele>
        <time>2014-06-30T12:45:31Z</time>
      </trkpt>
      <trkpt lat="40.580400" lon="-5.113383">
        <ele>2205.0</ele>
        <time>2014-06-30T12:45:32Z</time>
      </trkpt>
      <trkpt lat="40.580450" lon="-5.113433">
        <ele>2205.0</ele>
        <time>2014-06-30T12:45:33Z</time>
      </trkpt>
      <trkpt lat="40.580467" lon="-5.113483">
        <ele>2206.0</ele>
        <time>2014-06-30T12:45:34Z</time>
      </trkpt>
      <trkpt lat="40.580467" lon="-5.113533">
        <ele>2206.0</ele>
        <time>2014-06-30T12:45:35Z</time>
      </trkpt>
      <trkpt lat="40.580467" lon="-5.113600">
        <ele>2205.0</ele>
        <time>2014-06-30T12:45:36Z</time>
      </trkpt>
      <trkpt lat="40.580467" lon="-5.113667">
        <ele>2205.0</ele>
        <time>2014-06-30T12:45:37Z</time>
      </trkpt>
      <trkpt lat="40.580450" lon="-5.113733">
        <ele>2205.0</ele>
        <time>2014-06-30T12:45:38Z</time>
      </trkpt>
      <trkpt lat="40.580433" lon="-5.113783">
        <ele>2205.0</ele>
        <time>2014-06-30T12:45:39Z</time>
      </trkpt>
      <trkpt lat="40.580417" lon="-5.113833">
        <ele>2206.0</ele>
        <time>2014-06-30T12:45:40Z</time>
      </trkpt>
      <trkpt lat="40.580400" lon="-5.113867">
        <ele>2206.0</ele>
        <time>2014-06-30T12:45:41Z</time>
      </trkpt>
      <trkpt lat="40.580400" lon="-5.113917">
        <ele>2207.0</ele>
        <time>2014-06-30T12:45:42Z</time>
      </trkpt>
      <trkpt lat="40.580400" lon="-5.113967">
        <ele>2207.0</ele>
        <time>2014-06-30T12:45:43Z</time>
      </trkpt>
      <trkpt lat="40.580383" lon="-5.114017">
        <ele>2207.0</ele>
        <time>2014-06-30T12:45:44Z</time>
      </trkpt>
      <trkpt lat="40.580350" lon="-5.114067">
        <ele>2206.0</ele>
        <time>2014-06-30T12:45:45Z</time>
      </trkpt>
      <trkpt lat="40.580333" lon="-5.114117">
        <ele>2206.0</ele>
        <time>2014-06-30T12:45:46Z</time>
      </trkpt>
      <trkpt lat="40.580300" lon="-5.114150">
        <ele>2206.0</ele>
        <time>2014-06-30T12:45:47Z</time>
      </trkpt>
      <trkpt lat="40.580267" lon="-5.114183">
        <ele>2206.0</ele>
        <time>2014-06-30T12:45:48Z</time>
      </trkpt>
      <trkpt lat="40.580233" lon="-5.114217">
        <ele>2205.0</ele>
        <time>2014-06-30T12:45:49Z</time>
      </trkpt>
      <trkpt lat="40.580200" lon="-5.114250">
        <ele>2205.0</ele>
        <time>2014-06-30T12:45:50Z</time>
      </trkpt>
      <trkpt lat="40.580183" lon="-5.114283">
        <ele>2205.0</ele>
        <time>2014-06-30T12:45:51Z</time>
      </trkpt>
      <trkpt lat="40.580150" lon="-5.114317">
        <ele>2205.0</ele>
        <time>2014-06-30T12:45:52Z</time>
      </trkpt>
      <trkpt lat="40.580100" lon="-5.114350">
        <ele>2203.0</ele>
        <time>2014-06-30T12:45:53Z</time>
      </trkpt>
      <trkpt lat="40.580067" lon="-5.114383">
        <ele>2203.0</ele>
        <time>2014-06-30T12:45:54Z</time>
      </trkpt>
      <trkpt lat="40.580017" lon="-5.114417">
        <ele>2202.0</ele>
        <time>2014-06-30T12:45:55Z</time>
      </trkpt>
      <trkpt lat="40.579967" lon="-5.114450">
        <ele>2201.0</ele>
        <time>2014-06-30T12:45:56Z</time>
      </trkpt>
      <trkpt lat="40.579933" lon="-5.114483">
        <ele>2200.0</ele>
        <time>2014-06-30T12:45:57Z</time>
      </trkpt>
      <trkpt lat="40.579883" lon="-5.114500">
        <ele>2201.0</ele>
        <time>2014-06-30T12:45:58Z</time>
      </trkpt>
      <trkpt lat="40.579850" lon="-5.114533">
        <ele>2201.0</ele>
        <time>2014-06-30T12:45:59Z</time>
      </trkpt>
      <trkpt lat="40.579817" lon="-5.114533">
        <ele>2201.0</ele>
        <time>2014-06-30T12:46:00Z</time>
      </trkpt>
      <trkpt lat="40.579783" lon="-5.114517">
        <ele>2200.0</ele>
        <time>2014-06-30T12:46:01Z</time>
      </trkpt>
      <trkpt lat="40.579733" lon="-5.114467">
        <ele>2200.0</ele>
        <time>2014-06-30T12:46:02Z</time>
      </trkpt>
      <trkpt lat="40.579667" lon="-5.114433">
        <ele>2198.0</ele>
        <time>2014-06-30T12:46:03Z</time>
      </trkpt>
      <trkpt lat="40.579583" lon="-5.114367">
        <ele>2196.0</ele>
        <time>2014-06-30T12:46:04Z</time>
      </trkpt>
      <trkpt lat="40.579517" lon="-5.114283">
        <ele>2195.0</ele>
        <time>2014-06-30T12:46:05Z</time>
      </trkpt>
      <trkpt lat="40.579467" lon="-5.114133">
        <ele>2193.0</ele>
        <time>2014-06-30T12:46:06Z</time>
      </trkpt>
      <trkpt lat="40.579450" lon="-5.113933">
        <ele>2191.0</ele>
        <time>2014-06-30T12:46:07Z</time>
      </trkpt>
      <trkpt lat="40.579483" lon="-5.113717">
        <ele>2190.0</ele>
        <time>2014-06-30T12:46:08Z</time>
      </trkpt>
      <trkpt lat="40.579500" lon="-5.113483">
        <ele>2193.0</ele>
        <time>2014-06-30T12:46:09Z</time>
      </trkpt>
      <trkpt lat="40.579500" lon="-5.113300">
        <ele>2194.0</ele>
        <time>2014-06-30T12:46:10Z</time>
      </trkpt>
      <trkpt lat="40.579483" lon="-5.113150">
        <ele>2195.0</ele>
        <time>2014-06-30T12:46:11Z</time>
      </trkpt>
      <trkpt lat="40.579467" lon="-5.113000">
        <ele>2195.0</ele>
        <time>2014-06-30T12:46:12Z</time>
      </trkpt>
      <trkpt lat="40.579483" lon="-5.112850">
        <ele>2194.0</ele>
        <time>2014-06-30T12:46:13Z</time>
      </trkpt>
      <trkpt lat="40.579517" lon="-5.112667">
        <ele>2192.0</ele>
        <time>2014-06-30T12:46:14Z</time>
      </trkpt>
      <trkpt lat="40.579567" lon="-5.112483">
        <ele>2191.0</ele>
        <time>2014-06-30T12:46:15Z</time>
      </trkpt>
      <trkpt lat="40.579617" lon="-5.112333">
        <ele>2192.0</ele>
        <time>2014-06-30T12:46:16Z</time>
      </trkpt>
      <trkpt lat="40.579700" lon="-5.112183">
        <ele>2192.0</ele>
        <time>2014-06-30T12:46:17Z</time>
      </trkpt>
      <trkpt lat="40.579783" lon="-5.112083">
        <ele>2191.0</ele>
        <time>2014-06-30T12:46:18Z</time>
      </trkpt>
      <trkpt lat="40.579883" lon="-5.112017">
        <ele>2191.0</ele>
        <time>2014-06-30T12:46:19Z</time>
      </trkpt>
      <trkpt lat="40.579967" lon="-5.111967">
        <ele>2192.0</ele>
        <time>2014-06-30T12:46:20Z</time>
      </trkpt>
      <trkpt lat="40.580017" lon="-5.111933">
        <ele>2192.0</ele>
        <time>2014-06-30T12:46:21Z</time>
      </trkpt>
      <trkpt lat="40.580067" lon="-5.111917">
        <ele>2191.0</ele>
        <time>2014-06-30T12:46:22Z</time>
      </trkpt>
      <trkpt lat="40.580133" lon="-5.111917">
        <ele>2191.0</ele>
        <time>2014-06-30T12:46:23Z</time>
      </trkpt>
      <trkpt lat="40.580167" lon="-5.111933">
        <ele>2192.0</ele>
        <time>2014-06-30T12:46:24Z</time>
      </trkpt>
      <trkpt lat="40.580183" lon="-5.111983">
        <ele>2191.0</ele>
        <time>2014-06-30T12:46:25Z</time>
      </trkpt>
      <trkpt lat="40.580167" lon="-5.112017">
        <ele>2189.0</ele>
        <time>2014-06-30T12:46:26Z</time>
      </trkpt>
      <trkpt lat="40.580117" lon="-5.112067">
        <ele>2186.0</ele>
        <time>2014-06-30T12:46:27Z</time>
      </trkpt>
      <trkpt lat="40.580050" lon="-5.112100">
        <ele>2184.0</ele>
        <time>2014-06-30T12:46:28Z</time>
      </trkpt>
      <trkpt lat="40.580000" lon="-5.112133">
        <ele>2183.0</ele>
        <time>2014-06-30T12:46:29Z</time>
      </trkpt>
      <trkpt lat="40.579967" lon="-5.112167">
        <ele>2182.0</ele>
        <time>2014-06-30T12:46:30Z</time>
      </trkpt>
      <trkpt lat="40.579917" lon="-5.112183">
        <ele>2183.0</ele>
        <time>2014-06-30T12:46:31Z</time>
      </trkpt>
      <trkpt lat="40.579867" lon="-5.112217">
        <ele>2182.0</ele>
        <time>2014-06-30T12:46:32Z</time>
      </trkpt>
      <trkpt lat="40.579817" lon="-5.112250">
        <ele>2182.0</ele>
        <time>2014-06-30T12:46:33Z</time>
      </trkpt>
      <trkpt lat="40.579750" lon="-5.112267">
        <ele>2181.0</ele>
        <time>2014-06-30T12:46:34Z</time>
      </trkpt>
      <trkpt lat="40.579700" lon="-5.112267">
        <ele>2180.0</ele>
        <time>2014-06-30T12:46:35Z</time>
      </trkpt>
      <trkpt lat="40.579667" lon="-5.112300">
        <ele>2180.0</ele>
        <time>2014-06-30T12:46:36Z</time>
      </trkpt>
      <trkpt lat="40.579617" lon="-5.112317">
        <ele>2178.0</ele>
        <time>2014-06-30T12:46:37Z</time>
      </trkpt>
      <trkpt lat="40.579567" lon="-5.112317">
        <ele>2176.0</ele>
        <time>2014-06-30T12:46:38Z</time>
      </trkpt>
      <trkpt lat="40.579483" lon="-5.112317">
        <ele>2176.0</ele>
        <time>2014-06-30T12:46:39Z</time>
      </trkpt>
      <trkpt lat="40.579400" lon="-5.112317">
        <ele>2174.0</ele>
        <time>2014-06-30T12:46:40Z</time>
      </trkpt>
      <trkpt lat="40.579317" lon="-5.112367">
        <ele>2173.0</ele>
        <time>2014-06-30T12:46:41Z</time>
      </trkpt>
      <trkpt lat="40.579250" lon="-5.112417">
        <ele>2171.0</ele>
        <time>2014-06-30T12:46:42Z</time>
      </trkpt>
      <trkpt lat="40.579167" lon="-5.112450">
        <ele>2171.0</ele>
        <time>2014-06-30T12:46:43Z</time>
      </trkpt>
      <trkpt lat="40.579083" lon="-5.112450">
        <ele>2170.0</ele>
        <time>2014-06-30T12:46:44Z</time>
      </trkpt>
      <trkpt lat="40.579000" lon="-5.112433">
        <ele>2169.0</ele>
        <time>2014-06-30T12:46:45Z</time>
      </trkpt>
      <trkpt lat="40.578917" lon="-5.112417">
        <ele>2169.0</ele>
        <time>2014-06-30T12:46:46Z</time>
      </trkpt>
      <trkpt lat="40.578833" lon="-5.112417">
        <ele>2168.0</ele>
        <time>2014-06-30T12:46:47Z</time>
      </trkpt>
      <trkpt lat="40.578717" lon="-5.112467">
        <ele>2168.0</ele>
        <time>2014-06-30T12:46:48Z</time>
      </trkpt>
      <trkpt lat="40.578633" lon="-5.112500">
        <ele>2169.0</ele>
        <time>2014-06-30T12:46:49Z</time>
      </trkpt>
      <trkpt lat="40.578550" lon="-5.112517">
        <ele>2171.0</ele>
        <time>2014-06-30T12:46:50Z</time>
      </trkpt>
      <trkpt lat="40.578483" lon="-5.112483">
        <ele>2172.0</ele>
        <time>2014-06-30T12:46:51Z</time>
      </trkpt>
      <trkpt lat="40.578417" lon="-5.112450">
        <ele>2173.0</ele>
        <time>2014-06-30T12:46:52Z</time>
      </trkpt>
      <trkpt lat="40.578367" lon="-5.112433">
        <ele>2174.0</ele>
        <time>2014-06-30T12:46:53Z</time>
      </trkpt>
      <trkpt lat="40.578317" lon="-5.112417">
        <ele>2174.0</ele>
        <time>2014-06-30T12:46:54Z</time>
      </trkpt>
      <trkpt lat="40.578250" lon="-5.112417">
        <ele>2174.0</ele>
        <time>2014-06-30T12:46:55Z</time>
      </trkpt>
      <trkpt lat="40.578167" lon="-5.112383">
        <ele>2174.0</ele>
        <time>2014-06-30T12:46:56Z</time>
      </trkpt>
      <trkpt lat="40.578083" lon="-5.112317">
        <ele>2173.0</ele>
        <time>2014-06-30T12:46:57Z</time>
      </trkpt>
      <trkpt lat="40.578000" lon="-5.112183">
        <ele>2171.0</ele>
        <time>2014-06-30T12:46:58Z</time>
      </trkpt>
      <trkpt lat="40.577950" lon="-5.112017">
        <ele>2168.0</ele>
        <time>2014-06-30T12:46:59Z</time>
      </trkpt>
      <trkpt lat="40.577900" lon="-5.111850">
        <ele>2167.0</ele>
        <time>2014-06-30T12:47:00Z</time>
      </trkpt>
      <trkpt lat="40.577883" lon="-5.111700">
        <ele>2168.0</ele>
        <time>2014-06-30T12:47:01Z</time>
      </trkpt>
      <trkpt lat="40.577883" lon="-5.111567">
        <ele>2169.0</ele>
        <time>2014-06-30T12:47:02Z</time>
      </trkpt>
      <trkpt lat="40.577900" lon="-5.111450">
        <ele>2170.0</ele>
        <time>2014-06-30T12:47:03Z</time>
      </trkpt>
      <trkpt lat="40.577917" lon="-5.111333">
        <ele>2170.0</ele>
        <time>2014-06-30T12:47:04Z</time>
      </trkpt>
      <trkpt lat="40.577933" lon="-5.111233">
        <ele>2170.0</ele>
        <time>2014-06-30T12:47:05Z</time>
      </trkpt>
      <trkpt lat="40.577983" lon="-5.111117">
        <ele>2169.0</ele>
        <time>2014-06-30T12:47:06Z</time>
      </trkpt>
      <trkpt lat="40.578033" lon="-5.111017">
        <ele>2169.0</ele>
        <time>2014-06-30T12:47:07Z</time>
      </trkpt>
      <trkpt lat="40.578117" lon="-5.110950">
        <ele>2169.0</ele>
        <time>2014-06-30T12:47:08Z</time>
      </trkpt>
      <trkpt lat="40.578200" lon="-5.110933">
        <ele>2169.0</ele>
        <time>2014-06-30T12:47:09Z</time>
      </trkpt>
      <trkpt lat="40.578267" lon="-5.110967">
        <ele>2169.0</ele>
        <time>2014-06-30T12:47:10Z</time>
      </trkpt>
      <trkpt lat="40.578300" lon="-5.111033">
        <ele>2170.0</ele>
        <time>2014-06-30T12:47:11Z</time>
      </trkpt>
      <trkpt lat="40.578267" lon="-5.111083">
        <ele>2172.0</ele>
        <time>2014-06-30T12:47:12Z</time>
      </trkpt>
      <trkpt lat="40.578217" lon="-5.111100">
        <ele>2172.0</ele>
        <time>2014-06-30T12:47:13Z</time>
      </trkpt>
      <trkpt lat="40.578167" lon="-5.111100">
        <ele>2173.0</ele>
        <time>2014-06-30T12:47:14Z</time>
      </trkpt>
      <trkpt lat="40.578117" lon="-5.111117">
        <ele>2171.0</ele>
        <time>2014-06-30T12:47:15Z</time>
      </trkpt>
      <trkpt lat="40.578067" lon="-5.111117">
        <ele>2171.0</ele>
        <time>2014-06-30T12:47:16Z</time>
      </trkpt>
      <trkpt lat="40.578017" lon="-5.111133">
        <ele>2171.0</ele>
        <time>2014-06-30T12:47:17Z</time>
      </trkpt>
      <trkpt lat="40.577950" lon="-5.111117">
        <ele>2171.0</ele>
        <time>2014-06-30T12:47:18Z</time>
      </trkpt>
      <trkpt lat="40.577867" lon="-5.111067">
        <ele>2171.0</ele>
        <time>2014-06-30T12:47:19Z</time>
      </trkpt>
      <trkpt lat="40.577767" lon="-5.110950">
        <ele>2170.0</ele>
        <time>2014-06-30T12:47:20Z</time>
      </trkpt>
      <trkpt lat="40.577683" lon="-5.110783">
        <ele>2168.0</ele>
        <time>2014-06-30T12:47:21Z</time>
      </trkpt>
      <trkpt lat="40.577650" lon="-5.110583">
        <ele>2167.0</ele>
        <time>2014-06-30T12:47:22Z</time>
      </trkpt>
      <trkpt lat="40.577667" lon="-5.110383">
        <ele>2166.0</ele>
        <time>2014-06-30T12:47:23Z</time>
      </trkpt>
      <trkpt lat="40.577700" lon="-5.110233">
        <ele>2168.0</ele>
        <time>2014-06-30T12:47:24Z</time>
      </trkpt>
      <trkpt lat="40.577750" lon="-5.110117">
        <ele>2171.0</ele>
        <time>2014-06-30T12:47:25Z</time>
      </trkpt>
      <trkpt lat="40.577783" lon="-5.110017">
        <ele>2172.0</ele>
        <time>2014-06-30T12:47:26Z</time>
      </trkpt>
      <trkpt lat="40.577800" lon="-5.109917">
        <ele>2173.0</ele>
        <time>2014-06-30T12:47:27Z</time>
      </trkpt>
      <trkpt lat="40.577850" lon="-5.109783">
        <ele>2173.0</ele>
        <time>2014-06-30T12:47:28Z</time>
      </trkpt>
      <trkpt lat="40.577917" lon="-5.109650">
        <ele>2173.0</ele>
        <time>2014-06-30T12:47:29Z</time>
      </trkpt>
      <trkpt lat="40.577983" lon="-5.109517">
        <ele>2174.0</ele>
        <time>2014-06-30T12:47:30Z</time>
      </trkpt>
      <trkpt lat="40.578067" lon="-5.109400">
        <ele>2176.0</ele>
        <time>2014-06-30T12:47:31Z</time>
      </trkpt>
      <trkpt lat="40.578150" lon="-5.109283">
        <ele>2178.0</ele>
        <time>2014-06-30T12:47:32Z</time>
      </trkpt>
      <trkpt lat="40.578233" lon="-5.109183">
        <ele>2181.0</ele>
        <time>2014-06-30T12:47:33Z</time>
      </trkpt>
      <trkpt lat="40.578300" lon="-5.109100">
        <ele>2184.0</ele>
        <time>2014-06-30T12:47:34Z</time>
      </trkpt>
      <trkpt lat="40.578367" lon="-5.109033">
        <ele>2187.0</ele>
        <time>2014-06-30T12:47:35Z</time>
      </trkpt>
      <trkpt lat="40.578450" lon="-5.108983">
        <ele>2191.0</ele>
        <time>2014-06-30T12:47:36Z</time>
      </trkpt>
      <trkpt lat="40.578517" lon="-5.108950">
        <ele>2193.0</ele>
        <time>2014-06-30T12:47:37Z</time>
      </trkpt>
      <trkpt lat="40.578567" lon="-5.108933">
        <ele>2196.0</ele>
        <time>2014-06-30T12:47:38Z</time>
      </trkpt>
      <trkpt lat="40.578617" lon="-5.108950">
        <ele>2199.0</ele>
        <time>2014-06-30T12:47:39Z</time>
      </trkpt>
      <trkpt lat="40.578650" lon="-5.108967">
        <ele>2193.0</ele>
        <time>2014-06-30T12:47:40Z</time>
      </trkpt>
      <trkpt lat="40.578667" lon="-5.109000">
        <ele>2195.0</ele>
        <time>2014-06-30T12:47:41Z</time>
      </trkpt>
      <trkpt lat="40.578683" lon="-5.109033">
        <ele>2195.0</ele>
        <time>2014-06-30T12:47:42Z</time>
      </trkpt>
      <trkpt lat="40.578650" lon="-5.109083">
        <ele>2195.0</ele>
        <time>2014-06-30T12:47:43Z</time>
      </trkpt>
      <trkpt lat="40.578583" lon="-5.109100">
        <ele>2194.0</ele>
        <time>2014-06-30T12:47:44Z</time>
      </trkpt>
      <trkpt lat="40.578483" lon="-5.109067">
        <ele>2193.0</ele>
        <time>2014-06-30T12:47:45Z</time>
      </trkpt>
      <trkpt lat="40.578367" lon="-5.108983">
        <ele>2193.0</ele>
        <time>2014-06-30T12:47:46Z</time>
      </trkpt>
      <trkpt lat="40.578300" lon="-5.108850">
        <ele>2194.0</ele>
        <time>2014-06-30T12:47:47Z</time>
      </trkpt>
      <trkpt lat="40.578250" lon="-5.108700">
        <ele>2197.0</ele>
        <time>2014-06-30T12:47:48Z</time>
      </trkpt>
      <trkpt lat="40.578217" lon="-5.108583">
        <ele>2200.0</ele>
        <time>2014-06-30T12:47:49Z</time>
      </trkpt>
      <trkpt lat="40.578167" lon="-5.108467">
        <ele>2202.0</ele>
        <time>2014-06-30T12:47:50Z</time>
      </trkpt>
      <trkpt lat="40.578117" lon="-5.108367">
        <ele>2203.0</ele>
        <time>2014-06-30T12:47:51Z</time>
      </trkpt>
      <trkpt lat="40.578067" lon="-5.108217">
        <ele>2205.0</ele>
        <time>2014-06-30T12:47:52Z</time>
      </trkpt>
      <trkpt lat="40.578033" lon="-5.108050">
        <ele>2204.0</ele>
        <time>2014-06-30T12:47:53Z</time>
      </trkpt>
      <trkpt lat="40.578033" lon="-5.107883">
        <ele>2205.0</ele>
        <time>2014-06-30T12:47:54Z</time>
      </trkpt>
      <trkpt lat="40.578050" lon="-5.107717">
        <ele>2208.0</ele>
        <time>2014-06-30T12:47:55Z</time>
      </trkpt>
      <trkpt lat="40.578100" lon="-5.107567">
        <ele>2210.0</ele>
        <time>2014-06-30T12:47:56Z</time>
      </trkpt>
      <trkpt lat="40.578167" lon="-5.107433">
        <ele>2211.0</ele>
        <time>2014-06-30T12:47:57Z</time>
      </trkpt>
      <trkpt lat="40.578233" lon="-5.107317">
        <ele>2212.0</ele>
        <time>2014-06-30T12:47:58Z</time>
      </trkpt>
      <trkpt lat="40.578300" lon="-5.107200">
        <ele>2215.0</ele>
        <time>2014-06-30T12:47:59Z</time>
      </trkpt>
      <trkpt lat="40.578367" lon="-5.107117">
        <ele>2216.0</ele>
        <time>2014-06-30T12:48:00Z</time>
      </trkpt>
      <trkpt lat="40.578450" lon="-5.107083">
        <ele>2218.0</ele>
        <time>2014-06-30T12:48:01Z</time>
      </trkpt>
      <trkpt lat="40.578517" lon="-5.107067">
        <ele>2219.0</ele>
        <time>2014-06-30T12:48:02Z</time>
      </trkpt>
      <trkpt lat="40.578567" lon="-5.107100">
        <ele>2220.0</ele>
        <time>2014-06-30T12:48:03Z</time>
      </trkpt>
      <trkpt lat="40.578600" lon="-5.107150">
        <ele>2221.0</ele>
        <time>2014-06-30T12:48:04Z</time>
      </trkpt>
      <trkpt lat="40.578583" lon="-5.107200">
        <ele>2223.0</ele>
        <time>2014-06-30T12:48:05Z</time>
      </trkpt>
      <trkpt lat="40.578550" lon="-5.107217">
        <ele>2224.0</ele>
        <time>2014-06-30T12:48:06Z</time>
      </trkpt>
      <trkpt lat="40.578483" lon="-5.107183">
        <ele>2224.0</ele>
        <time>2014-06-30T12:48:07Z</time>
      </trkpt>
      <trkpt lat="40.578400" lon="-5.107117">
        <ele>2225.0</ele>
        <time>2014-06-30T12:48:08Z</time>
      </trkpt>
      <trkpt lat="40.578333" lon="-5.107033">
        <ele>2226.0</ele>
        <time>2014-06-30T12:48:09Z</time>
      </trkpt>
      <trkpt lat="40.578267" lon="-5.106917">
        <ele>2228.0</ele>
        <time>2014-06-30T12:48:10Z</time>
      </trkpt>
      <trkpt lat="40.578217" lon="-5.106767">
        <ele>2229.0</ele>
        <time>2014-06-30T12:48:11Z</time>
      </trkpt>
      <trkpt lat="40.578167" lon="-5.106583">
        <ele>2232.0</ele>
        <time>2014-06-30T12:48:12Z</time>
      </trkpt>
      <trkpt lat="40.578133" lon="-5.106417">
        <ele>2235.0</ele>
        <time>2014-06-30T12:48:13Z</time>
      </trkpt>
      <trkpt lat="40.578117" lon="-5.106250">
        <ele>2238.0</ele>
        <time>2014-06-30T12:48:14Z</time>
      </trkpt>
      <trkpt lat="40.578117" lon="-5.106117">
        <ele>2240.0</ele>
        <time>2014-06-30T12:48:15Z</time>
      </trkpt>
      <trkpt lat="40.578133" lon="-5.105983">
        <ele>2242.0</ele>
        <time>2014-06-30T12:48:16Z</time>
      </trkpt>
      <trkpt lat="40.578150" lon="-5.105833">
        <ele>2243.0</ele>
        <time>2014-06-30T12:48:17Z</time>
      </trkpt>
      <trkpt lat="40.578167" lon="-5.105683">
        <ele>2245.0</ele>
        <time>2014-06-30T12:48:18Z</time>
      </trkpt>
      <trkpt lat="40.578200" lon="-5.105533">
        <ele>2249.0</ele>
        <time>2014-06-30T12:48:19Z</time>
      </trkpt>
      <trkpt lat="40.578283" lon="-5.105417">
        <ele>2250.0</ele>
        <time>2014-06-30T12:48:20Z</time>
      </trkpt>
      <trkpt lat="40.578367" lon="-5.105350">
        <ele>2250.0</ele>
        <time>2014-06-30T12:48:21Z</time>
      </trkpt>
      <trkpt lat="40.578483" lon="-5.105333">
        <ele>2250.0</ele>
        <time>2014-06-30T12:48:22Z</time>
      </trkpt>
      <trkpt lat="40.578567" lon="-5.105333">
        <ele>2251.0</ele>
        <time>2014-06-30T12:48:23Z</time>
      </trkpt>
      <trkpt lat="40.578617" lon="-5.105350">
        <ele>2252.0</ele>
        <time>2014-06-30T12:48:24Z</time>
      </trkpt>
      <trkpt lat="40.578667" lon="-5.105350">
        <ele>2254.0</ele>
        <time>2014-06-30T12:48:25Z</time>
      </trkpt>
      <trkpt lat="40.578717" lon="-5.105350">
        <ele>2255.0</ele>
        <time>2014-06-30T12:48:26Z</time>
      </trkpt>
      <trkpt lat="40.578783" lon="-5.105350">
        <ele>2255.0</ele>
        <time>2014-06-30T12:48:27Z</time>
      </trkpt>
      <trkpt lat="40.578850" lon="-5.105367">
        <ele>2256.0</ele>
        <time>2014-06-30T12:48:28Z</time>
      </trkpt>
      <trkpt lat="40.578900" lon="-5.105383">
        <ele>2257.0</ele>
        <time>2014-06-30T12:48:29Z</time>
      </trkpt>
      <trkpt lat="40.578933" lon="-5.105400">
        <ele>2259.0</ele>
        <time>2014-06-30T12:48:30Z</time>
      </trkpt>
      <trkpt lat="40.578967" lon="-5.105417">
        <ele>2261.0</ele>
        <time>2014-06-30T12:48:31Z</time>
      </trkpt>
      <trkpt lat="40.578983" lon="-5.105417">
        <ele>2262.0</ele>
        <time>2014-06-30T12:48:32Z</time>
      </trkpt>
      <trkpt lat="40.579017" lon="-5.105417">
        <ele>2262.0</ele>
        <time>2014-06-30T12:48:33Z</time>
      </trkpt>
      <trkpt lat="40.579050" lon="-5.105433">
        <ele>2263.0</ele>
        <time>2014-06-30T12:48:34Z</time>
      </trkpt>
      <trkpt lat="40.579067" lon="-5.105450">
        <ele>2264.0</ele>
        <time>2014-06-30T12:48:35Z</time>
      </trkpt>
      <trkpt lat="40.579083" lon="-5.105467">
        <ele>2264.0</ele>
        <time>2014-06-30T12:48:36Z</time>
      </trkpt>
      <trkpt lat="40.579100" lon="-5.105483">
        <ele>2261.0</ele>
        <time>2014-06-30T12:48:37Z</time>
      </trkpt>
      <trkpt lat="40.579100" lon="-5.105500">
        <ele>2260.0</ele>
        <time>2014-06-30T12:48:38Z</time>
      </trkpt>
      <trkpt lat="40.579100" lon="-5.105533">
        <ele>2260.0</ele>
        <time>2014-06-30T12:48:39Z</time>
      </trkpt>
      <trkpt lat="40.579050" lon="-5.105567">
        <ele>2259.0</ele>
        <time>2014-06-30T12:48:40Z</time>
      </trkpt>
      <trkpt lat="40.578967" lon="-5.105583">
        <ele>2257.0</ele>
        <time>2014-06-30T12:48:41Z</time>
      </trkpt>
      <trkpt lat="40.578867" lon="-5.105550">
        <ele>2256.0</ele>
        <time>2014-06-30T12:48:42Z</time>
      </trkpt>
      <trkpt lat="40.578783" lon="-5.105450">
        <ele>2255.0</ele>
        <time>2014-06-30T12:48:43Z</time>
      </trkpt>
      <trkpt lat="40.578717" lon="-5.105317">
        <ele>2254.0</ele>
        <time>2014-06-30T12:48:44Z</time>
      </trkpt>
      <trkpt lat="40.578650" lon="-5.105150">
        <ele>2253.0</ele>
        <time>2014-06-30T12:48:45Z</time>
      </trkpt>
      <trkpt lat="40.578600" lon="-5.104983">
        <ele>2252.0</ele>
        <time>2014-06-30T12:48:46Z</time>
      </trkpt>
      <trkpt lat="40.578550" lon="-5.104800">
        <ele>2252.0</ele>
        <time>2014-06-30T12:48:47Z</time>
      </trkpt>
      <trkpt lat="40.578517" lon="-5.104633">
        <ele>2252.0</ele>
        <time>2014-06-30T12:48:48Z</time>
      </trkpt>
      <trkpt lat="40.578517" lon="-5.104467">
        <ele>2253.0</ele>
        <time>2014-06-30T12:48:49Z</time>
      </trkpt>
      <trkpt lat="40.578500" lon="-5.104300">
        <ele>2253.0</ele>
        <time>2014-06-30T12:48:50Z</time>
      </trkpt>
      <trkpt lat="40.578517" lon="-5.104133">
        <ele>2254.0</ele>
        <time>2014-06-30T12:48:51Z</time>
      </trkpt>
      <trkpt lat="40.578517" lon="-5.103983">
        <ele>2255.0</ele>
        <time>2014-06-30T12:48:52Z</time>
      </trkpt>
      <trkpt lat="40.578533" lon="-5.103833">
        <ele>2255.0</ele>
        <time>2014-06-30T12:48:53Z</time>
      </trkpt>
      <trkpt lat="40.578550" lon="-5.103667">
        <ele>2255.0</ele>
        <time>2014-06-30T12:48:54Z</time>
      </trkpt>
      <trkpt lat="40.578567" lon="-5.103517">
        <ele>2256.0</ele>
        <time>2014-06-30T12:48:55Z</time>
      </trkpt>
      <trkpt lat="40.578600" lon="-5.103350">
        <ele>2256.0</ele>
        <time>2014-06-30T12:48:56Z</time>
      </trkpt>
      <trkpt lat="40.578650" lon="-5.103217">
        <ele>2256.0</ele>
        <time>2014-06-30T12:48:57Z</time>
      </trkpt>
      <trkpt lat="40.578717" lon="-5.103100">
        <ele>2257.0</ele>
        <time>2014-06-30T12:48:58Z</time>
      </trkpt>
      <trkpt lat="40.578767" lon="-5.103000">
        <ele>2257.0</ele>
        <time>2014-06-30T12:48:59Z</time>
      </trkpt>
      <trkpt lat="40.578833" lon="-5.102900">
        <ele>2257.0</ele>
        <time>2014-06-30T12:49:00Z</time>
      </trkpt>
      <trkpt lat="40.578900" lon="-5.102800">
        <ele>2258.0</ele>
        <time>2014-06-30T12:49:01Z</time>
      </trkpt>
      <trkpt lat="40.578967" lon="-5.102700">
        <ele>2258.0</ele>
        <time>2014-06-30T12:49:02Z</time>
      </trkpt>
      <trkpt lat="40.579033" lon="-5.102633">
        <ele>2258.0</ele>
        <time>2014-06-30T12:49:03Z</time>
      </trkpt>
      <trkpt lat="40.579117" lon="-5.102600">
        <ele>2258.0</ele>
        <time>2014-06-30T12:49:04Z</time>
      </trkpt>
      <trkpt lat="40.579183" lon="-5.102550">
        <ele>2259.0</ele>
        <time>2014-06-30T12:49:05Z</time>
      </trkpt>
      <trkpt lat="40.579250" lon="-5.102500">
        <ele>2261.0</ele>
        <time>2014-06-30T12:49:06Z</time>
      </trkpt>
      <trkpt lat="40.579300" lon="-5.102450">
        <ele>2262.0</ele>
        <time>2014-06-30T12:49:07Z</time>
      </trkpt>
      <trkpt lat="40.579367" lon="-5.102417">
        <ele>2263.0</ele>
        <time>2014-06-30T12:49:08Z</time>
      </trkpt>
      <trkpt lat="40.579433" lon="-5.102417">
        <ele>2264.0</ele>
        <time>2014-06-30T12:49:09Z</time>
      </trkpt>
      <trkpt lat="40.579500" lon="-5.102417">
        <ele>2266.0</ele>
        <time>2014-06-30T12:49:10Z</time>
      </trkpt>
      <trkpt lat="40.579550" lon="-5.102433">
        <ele>2268.0</ele>
        <time>2014-06-30T12:49:11Z</time>
      </trkpt>
      <trkpt lat="40.579583" lon="-5.102433">
        <ele>2270.0</ele>
        <time>2014-06-30T12:49:12Z</time>
      </trkpt>
      <trkpt lat="40.579617" lon="-5.102450">
        <ele>2270.0</ele>
        <time>2014-06-30T12:49:13Z</time>
      </trkpt>
      <trkpt lat="40.579633" lon="-5.102483">
        <ele>2269.0</ele>
        <time>2014-06-30T12:49:14Z</time>
      </trkpt>
      <trkpt lat="40.579650" lon="-5.102517">
        <ele>2269.0</ele>
        <time>2014-06-30T12:49:15Z</time>
      </trkpt>
      <trkpt lat="40.579633" lon="-5.102533">
        <ele>2268.0</ele>
        <time>2014-06-30T12:49:16Z</time>
      </trkpt>
      <trkpt lat="40.579550" lon="-5.102517">
        <ele>2266.0</ele>
        <time>2014-06-30T12:49:17Z</time>
      </trkpt>
      <trkpt lat="40.579450" lon="-5.102467">
        <ele>2264.0</ele>
        <time>2014-06-30T12:49:18Z</time>
      </trkpt>
      <trkpt lat="40.579333" lon="-5.102350">
        <ele>2262.0</ele>
        <time>2014-06-30T12:49:19Z</time>
      </trkpt>
      <trkpt lat="40.579250" lon="-5.102200">
        <ele>2260.0</ele>
        <time>2014-06-30T12:49:20Z</time>
      </trkpt>
      <trkpt lat="40.579217" lon="-5.102033">
        <ele>2261.0</ele>
        <time>2014-06-30T12:49:21Z</time>
      </trkpt>
      <trkpt lat="40.579200" lon="-5.101867">
        <ele>2263.0</ele>
        <time>2014-06-30T12:49:22Z</time>
      </trkpt>
      <trkpt lat="40.579217" lon="-5.101733">
        <ele>2264.0</ele>
        <time>2014-06-30T12:49:23Z</time>
      </trkpt>
      <trkpt lat="40.579233" lon="-5.101617">
        <ele>2265.0</ele>
        <time>2014-06-30T12:49:24Z</time>
      </trkpt>
      <trkpt lat="40.579267" lon="-5.101517">
        <ele>2266.0</ele>
        <time>2014-06-30T12:49:25Z</time>
      </trkpt>
      <trkpt lat="40.579317" lon="-5.101400">
        <ele>2266.0</ele>
        <time>2014-06-30T12:49:26Z</time>
      </trkpt>
      <trkpt lat="40.579383" lon="-5.101317">
        <ele>2266.0</ele>
        <time>2014-06-30T12:49:27Z</time>
      </trkpt>
      <trkpt lat="40.579450" lon="-5.101250">
        <ele>2265.0</ele>
        <time>2014-06-30T12:49:28Z</time>
      </trkpt>
      <trkpt lat="40.579517" lon="-5.101217">
        <ele>2264.0</ele>
        <time>2014-06-30T12:49:29Z</time>
      </trkpt>
      <trkpt lat="40.579600" lon="-5.101217">
        <ele>2263.0</ele>
        <time>2014-06-30T12:49:30Z</time>
      </trkpt>
      <trkpt lat="40.579683" lon="-5.101250">
        <ele>2261.0</ele>
        <time>2014-06-30T12:49:31Z</time>
      </trkpt>
      <trkpt lat="40.579783" lon="-5.101250">
        <ele>2260.0</ele>
        <time>2014-06-30T12:49:32Z</time>
      </trkpt>
      <trkpt lat="40.579867" lon="-5.101217">
        <ele>2259.0</ele>
        <time>2014-06-30T12:49:33Z</time>
      </trkpt>
      <trkpt lat="40.579950" lon="-5.101183">
        <ele>2257.0</ele>
        <time>2014-06-30T12:49:34Z</time>
      </trkpt>
      <trkpt lat="40.580033" lon="-5.101167">
        <ele>2256.0</ele>
        <time>2014-06-30T12:49:35Z</time>
      </trkpt>
      <trkpt lat="40.580100" lon="-5.101183">
        <ele>2254.0</ele>
        <time>2014-06-30T12:49:36Z</time>
      </trkpt>
      <trkpt lat="40.580150" lon="-5.101183">
        <ele>2252.0</ele>
        <time>2014-06-30T12:49:37Z</time>
      </trkpt>
      <trkpt lat="40.580233" lon="-5.101200">
        <ele>2250.0</ele>
        <time>2014-06-30T12:49:38Z</time>
      </trkpt>
      <trkpt lat="40.580317" lon="-5.101200">
        <ele>2249.0</ele>
        <time>2014-06-30T12:49:39Z</time>
      </trkpt>
      <trkpt lat="40.580417" lon="-5.101217">
        <ele>2248.0</ele>
        <time>2014-06-30T12:49:40Z</time>
      </trkpt>
      <trkpt lat="40.580500" lon="-5.101250">
        <ele>2247.0</ele>
        <time>2014-06-30T12:49:41Z</time>
      </trkpt>
      <trkpt lat="40.580583" lon="-5.101300">
        <ele>2248.0</ele>
        <time>2014-06-30T12:49:42Z</time>
      </trkpt>
      <trkpt lat="40.580650" lon="-5.101333">
        <ele>2249.0</ele>
        <time>2014-06-30T12:49:43Z</time>
      </trkpt>
      <trkpt lat="40.580717" lon="-5.101367">
        <ele>2249.0</ele>
        <time>2014-06-30T12:49:44Z</time>
      </trkpt>
      <trkpt lat="40.580783" lon="-5.101383">
        <ele>2251.0</ele>
        <time>2014-06-30T12:49:45Z</time>
      </trkpt>
      <trkpt lat="40.580850" lon="-5.101367">
        <ele>2253.0</ele>
        <time>2014-06-30T12:49:46Z</time>
      </trkpt>
      <trkpt lat="40.580900" lon="-5.101333">
        <ele>2254.0</ele>
        <time>2014-06-30T12:49:47Z</time>
      </trkpt>
      <trkpt lat="40.580933" lon="-5.101317">
        <ele>2255.0</ele>
        <time>2014-06-30T12:49:48Z</time>
      </trkpt>
      <trkpt lat="40.580967" lon="-5.101300">
        <ele>2253.0</ele>
        <time>2014-06-30T12:49:49Z</time>
      </trkpt>
      <trkpt lat="40.581000" lon="-5.101317">
        <ele>2252.0</ele>
        <time>2014-06-30T12:49:50Z</time>
      </trkpt>
      <trkpt lat="40.581017" lon="-5.101367">
        <ele>2251.0</ele>
        <time>2014-06-30T12:49:51Z</time>
      </trkpt>
      <trkpt lat="40.581000" lon="-5.101417">
        <ele>2249.0</ele>
        <time>2014-06-30T12:49:52Z</time>
      </trkpt>
      <trkpt lat="40.580950" lon="-5.101450">
        <ele>2248.0</ele>
        <time>2014-06-30T12:49:53Z</time>
      </trkpt>
      <trkpt lat="40.580867" lon="-5.101417">
        <ele>2247.0</ele>
        <time>2014-06-30T12:49:54Z</time>
      </trkpt>
      <trkpt lat="40.580767" lon="-5.101333">
        <ele>2246.0</ele>
        <time>2014-06-30T12:49:55Z</time>
      </trkpt>
      <trkpt lat="40.580683" lon="-5.101200">
        <ele>2245.0</ele>
        <time>2014-06-30T12:49:56Z</time>
      </trkpt>
      <trkpt lat="40.580633" lon="-5.101033">
        <ele>2246.0</ele>
        <time>2014-06-30T12:49:57Z</time>
      </trkpt>
      <trkpt lat="40.580633" lon="-5.100883">
        <ele>2246.0</ele>
        <time>2014-06-30T12:49:58Z</time>
      </trkpt>
      <trkpt lat="40.580633" lon="-5.100717">
        <ele>2247.0</ele>
        <time>2014-06-30T12:49:59Z</time>
      </trkpt>
      <trkpt lat="40.580667" lon="-5.100583">
        <ele>2248.0</ele>
        <time>2014-06-30T12:50:00Z</time>
      </trkpt>
      <trkpt lat="40.580700" lon="-5.100450">
        <ele>2248.0</ele>
        <time>2014-06-30T12:50:01Z</time>
      </trkpt>
      <trkpt lat="40.580717" lon="-5.100300">
        <ele>2248.0</ele>
        <time>2014-06-30T12:50:02Z</time>
      </trkpt>
      <trkpt lat="40.580767" lon="-5.100167">
        <ele>2249.0</ele>
        <time>2014-06-30T12:50:03Z</time>
      </trkpt>
      <trkpt lat="40.580817" lon="-5.100050">
        <ele>2248.0</ele>
        <time>2014-06-30T12:50:04Z</time>
      </trkpt>
      <trkpt lat="40.580900" lon="-5.099967">
        <ele>2248.0</ele>
        <time>2014-06-30T12:50:05Z</time>
      </trkpt>
      <trkpt lat="40.580983" lon="-5.099900">
        <ele>2247.0</ele>
        <time>2014-06-30T12:50:06Z</time>
      </trkpt>
      <trkpt lat="40.581067" lon="-5.099883">
        <ele>2247.0</ele>
        <time>2014-06-30T12:50:07Z</time>
      </trkpt>
      <trkpt lat="40.581150" lon="-5.099883">
        <ele>2247.0</ele>
        <time>2014-06-30T12:50:08Z</time>
      </trkpt>
      <trkpt lat="40.581217" lon="-5.099900">
        <ele>2247.0</ele>
        <time>2014-06-30T12:50:09Z</time>
      </trkpt>
      <trkpt lat="40.581250" lon="-5.099900">
        <ele>2247.0</ele>
        <time>2014-06-30T12:50:10Z</time>
      </trkpt>
      <trkpt lat="40.581283" lon="-5.099900">
        <ele>2247.0</ele>
        <time>2014-06-30T12:50:11Z</time>
      </trkpt>
      <trkpt lat="40.581333" lon="-5.099917">
        <ele>2247.0</ele>
        <time>2014-06-30T12:50:12Z</time>
      </trkpt>
      <trkpt lat="40.581367" lon="-5.099933">
        <ele>2246.0</ele>
        <time>2014-06-30T12:50:13Z</time>
      </trkpt>
      <trkpt lat="40.581400" lon="-5.099967">
        <ele>2247.0</ele>
        <time>2014-06-30T12:50:14Z</time>
      </trkpt>
      <trkpt lat="40.581433" lon="-5.100033">
        <ele>2246.0</ele>
        <time>2014-06-30T12:50:15Z</time>
      </trkpt>
      <trkpt lat="40.581467" lon="-5.100117">
        <ele>2246.0</ele>
        <time>2014-06-30T12:50:16Z</time>
      </trkpt>
      <trkpt lat="40.581500" lon="-5.100183">
        <ele>2246.0</ele>
        <time>2014-06-30T12:50:17Z</time>
      </trkpt>
      <trkpt lat="40.581550" lon="-5.100217">
        <ele>2245.0</ele>
        <time>2014-06-30T12:50:18Z</time>
      </trkpt>
      <trkpt lat="40.581600" lon="-5.100250">
        <ele>2244.0</ele>
        <time>2014-06-30T12:50:19Z</time>
      </trkpt>
      <trkpt lat="40.581667" lon="-5.100283">
        <ele>2244.0</ele>
        <time>2014-06-30T12:50:20Z</time>
      </trkpt>
      <trkpt lat="40.581717" lon="-5.100333">
        <ele>2244.0</ele>
        <time>2014-06-30T12:50:21Z</time>
      </trkpt>
      <trkpt lat="40.581750" lon="-5.100400">
        <ele>2242.0</ele>
        <time>2014-06-30T12:50:22Z</time>
      </trkpt>
      <trkpt lat="40.581800" lon="-5.100467">
        <ele>2240.0</ele>
        <time>2014-06-30T12:50:23Z</time>
      </trkpt>
      <trkpt lat="40.581867" lon="-5.100517">
        <ele>2238.0</ele>
        <time>2014-06-30T12:50:24Z</time>
      </trkpt>
      <trkpt lat="40.581933" lon="-5.100533">
        <ele>2236.0</ele>
        <time>2014-06-30T12:50:25Z</time>
      </trkpt>
      <trkpt lat="40.581983" lon="-5.100550">
        <ele>2235.0</ele>
        <time>2014-06-30T12:50:26Z</time>
      </trkpt>
      <trkpt lat="40.582050" lon="-5.100583">
        <ele>2234.0</ele>
        <time>2014-06-30T12:50:27Z</time>
      </trkpt>
      <trkpt lat="40.582117" lon="-5.100617">
        <ele>2233.0</ele>
        <time>2014-06-30T12:50:28Z</time>
      </trkpt>
      <trkpt lat="40.582200" lon="-5.100633">
        <ele>2233.0</ele>
        <time>2014-06-30T12:50:29Z</time>
      </trkpt>
      <trkpt lat="40.582283" lon="-5.100650">
        <ele>2231.0</ele>
        <time>2014-06-30T12:50:30Z</time>
      </trkpt>
      <trkpt lat="40.582367" lon="-5.100667">
        <ele>2230.0</ele>
        <time>2014-06-30T12:50:31Z</time>
      </trkpt>
      <trkpt lat="40.582450" lon="-5.100667">
        <ele>2228.0</ele>
        <time>2014-06-30T12:50:32Z</time>
      </trkpt>
      <trkpt lat="40.582517" lon="-5.100683">
        <ele>2226.0</ele>
        <time>2014-06-30T12:50:33Z</time>
      </trkpt>
      <trkpt lat="40.582600" lon="-5.100683">
        <ele>2224.0</ele>
        <time>2014-06-30T12:50:34Z</time>
      </trkpt>
      <trkpt lat="40.582700" lon="-5.100667">
        <ele>2222.0</ele>
        <time>2014-06-30T12:50:35Z</time>
      </trkpt>
      <trkpt lat="40.582783" lon="-5.100650">
        <ele>2220.0</ele>
        <time>2014-06-30T12:50:36Z</time>
      </trkpt>
      <trkpt lat="40.582867" lon="-5.100633">
        <ele>2218.0</ele>
        <time>2014-06-30T12:50:37Z</time>
      </trkpt>
      <trkpt lat="40.582967" lon="-5.100600">
        <ele>2216.0</ele>
        <time>2014-06-30T12:50:38Z</time>
      </trkpt>
      <trkpt lat="40.583050" lon="-5.100567">
        <ele>2214.0</ele>
        <time>2014-06-30T12:50:39Z</time>
      </trkpt>
      <trkpt lat="40.583133" lon="-5.100517">
        <ele>2212.0</ele>
        <time>2014-06-30T12:50:40Z</time>
      </trkpt>
      <trkpt lat="40.583233" lon="-5.100467">
        <ele>2210.0</ele>
        <time>2014-06-30T12:50:41Z</time>
      </trkpt>
      <trkpt lat="40.583333" lon="-5.100433">
        <ele>2208.0</ele>
        <time>2014-06-30T12:50:42Z</time>
      </trkpt>
      <trkpt lat="40.583433" lon="-5.100417">
        <ele>2206.0</ele>
        <time>2014-06-30T12:50:43Z</time>
      </trkpt>
      <trkpt lat="40.583533" lon="-5.100400">
        <ele>2204.0</ele>
        <time>2014-06-30T12:50:44Z</time>
      </trkpt>
      <trkpt lat="40.583650" lon="-5.100383">
        <ele>2205.0</ele>
        <time>2014-06-30T12:50:45Z</time>
      </trkpt>
      <trkpt lat="40.583750" lon="-5.100350">
        <ele>2205.0</ele>
        <time>2014-06-30T12:50:46Z</time>
      </trkpt>
      <trkpt lat="40.583833" lon="-5.100317">
        <ele>2204.0</ele>
        <time>2014-06-30T12:50:47Z</time>
      </trkpt>
      <trkpt lat="40.583933" lon="-5.100267">
        <ele>2203.0</ele>
        <time>2014-06-30T12:50:48Z</time>
      </trkpt>
      <trkpt lat="40.584017" lon="-5.100217">
        <ele>2202.0</ele>
        <time>2014-06-30T12:50:49Z</time>
      </trkpt>
      <trkpt lat="40.584133" lon="-5.100183">
        <ele>2200.0</ele>
        <time>2014-06-30T12:50:50Z</time>
      </trkpt>
      <trkpt lat="40.584233" lon="-5.100167">
        <ele>2198.0</ele>
        <time>2014-06-30T12:50:51Z</time>
      </trkpt>
      <trkpt lat="40.584333" lon="-5.100133">
        <ele>2198.0</ele>
        <time>2014-06-30T12:50:52Z</time>
      </trkpt>
      <trkpt lat="40.584433" lon="-5.100100">
        <ele>2197.0</ele>
        <time>2014-06-30T12:50:53Z</time>
      </trkpt>
      <trkpt lat="40.584533" lon="-5.100067">
        <ele>2196.0</ele>
        <time>2014-06-30T12:50:54Z</time>
      </trkpt>
      <trkpt lat="40.584633" lon="-5.100033">
        <ele>2195.0</ele>
        <time>2014-06-30T12:50:55Z</time>
      </trkpt>
      <trkpt lat="40.584750" lon="-5.100017">
        <ele>2193.0</ele>
        <time>2014-06-30T12:50:56Z</time>
      </trkpt>
      <trkpt lat="40.584850" lon="-5.100000">
        <ele>2192.0</ele>
        <time>2014-06-30T12:50:57Z</time>
      </trkpt>
      <trkpt lat="40.584933" lon="-5.099967">
        <ele>2192.0</ele>
        <time>2014-06-30T12:50:58Z</time>
      </trkpt>
      <trkpt lat="40.585033" lon="-5.099950">
        <ele>2191.0</ele>
        <time>2014-06-30T12:50:59Z</time>
      </trkpt>
      <trkpt lat="40.585117" lon="-5.099900">
        <ele>2190.0</ele>
        <time>2014-06-30T12:51:00Z</time>
      </trkpt>
      <trkpt lat="40.585200" lon="-5.099867">
        <ele>2189.0</ele>
        <time>2014-06-30T12:51:01Z</time>
      </trkpt>
      <trkpt lat="40.585300" lon="-5.099817">
        <ele>2188.0</ele>
        <time>2014-06-30T12:51:02Z</time>
      </trkpt>
      <trkpt lat="40.585400" lon="-5.099800">
        <ele>2186.0</ele>
        <time>2014-06-30T12:51:03Z</time>
      </trkpt>
      <trkpt lat="40.585483" lon="-5.099783">
        <ele>2183.0</ele>
        <time>2014-06-30T12:51:04Z</time>
      </trkpt>
      <trkpt lat="40.585567" lon="-5.099767">
        <ele>2181.0</ele>
        <time>2014-06-30T12:51:05Z</time>
      </trkpt>
      <trkpt lat="40.585667" lon="-5.099733">
        <ele>2178.0</ele>
        <time>2014-06-30T12:51:06Z</time>
      </trkpt>
      <trkpt lat="40.585750" lon="-5.099700">
        <ele>2176.0</ele>
        <time>2014-06-30T12:51:07Z</time>
      </trkpt>
      <trkpt lat="40.585850" lon="-5.099667">
        <ele>2174.0</ele>
        <time>2014-06-30T12:51:08Z</time>
      </trkpt>
      <trkpt lat="40.585950" lon="-5.099633">
        <ele>2171.0</ele>
        <time>2014-06-30T12:51:09Z</time>
      </trkpt>
      <trkpt lat="40.586033" lon="-5.099600">
        <ele>2169.0</ele>
        <time>2014-06-30T12:51:10Z</time>
      </trkpt>
      <trkpt lat="40.586133" lon="-5.099550">
        <ele>2166.0</ele>
        <time>2014-06-30T12:51:11Z</time>
      </trkpt>
      <trkpt lat="40.586250" lon="-5.099483">
        <ele>2164.0</ele>
        <time>2014-06-30T12:51:12Z</time>
      </trkpt>
      <trkpt lat="40.586350" lon="-5.099400">
        <ele>2160.0</ele>
        <time>2014-06-30T12:51:13Z</time>
      </trkpt>
      <trkpt lat="40.586467" lon="-5.099317">
        <ele>2158.0</ele>
        <time>2014-06-30T12:51:14Z</time>
      </trkpt>
      <trkpt lat="40.586567" lon="-5.099200">
        <ele>2155.0</ele>
        <time>2014-06-30T12:51:15Z</time>
      </trkpt>
      <trkpt lat="40.586667" lon="-5.099100">
        <ele>2153.0</ele>
        <time>2014-06-30T12:51:16Z</time>
      </trkpt>
      <trkpt lat="40.586750" lon="-5.098983">
        <ele>2151.0</ele>
        <time>2014-06-30T12:51:17Z</time>
      </trkpt>
      <trkpt lat="40.586850" lon="-5.098850">
        <ele>2149.0</ele>
        <time>2014-06-30T12:51:18Z</time>
      </trkpt>
      <trkpt lat="40.586933" lon="-5.098700">
        <ele>2147.0</ele>
        <time>2014-06-30T12:51:19Z</time>
      </trkpt>
      <trkpt lat="40.587033" lon="-5.098550">
        <ele>2146.0</ele>
        <time>2014-06-30T12:51:20Z</time>
      </trkpt>
      <trkpt lat="40.587117" lon="-5.098417">
        <ele>2144.0</ele>
        <time>2014-06-30T12:51:21Z</time>
      </trkpt>
      <trkpt lat="40.587200" lon="-5.098267">
        <ele>2143.0</ele>
        <time>2014-06-30T12:51:22Z</time>
      </trkpt>
      <trkpt lat="40.587283" lon="-5.098117">
        <ele>2142.0</ele>
        <time>2014-06-30T12:51:23Z</time>
      </trkpt>
      <trkpt lat="40.587367" lon="-5.097967">
        <ele>2139.0</ele>
        <time>2014-06-30T12:51:24Z</time>
      </trkpt>
      <trkpt lat="40.587467" lon="-5.097833">
        <ele>2137.0</ele>
        <time>2014-06-30T12:51:25Z</time>
      </trkpt>
      <trkpt lat="40.587583" lon="-5.097683">
        <ele>2135.0</ele>
        <time>2014-06-30T12:51:26Z</time>
      </trkpt>
      <trkpt lat="40.587667" lon="-5.097533">
        <ele>2134.0</ele>
        <time>2014-06-30T12:51:27Z</time>
      </trkpt>
      <trkpt lat="40.587750" lon="-5.097400">
        <ele>2132.0</ele>
        <time>2014-06-30T12:51:28Z</time>
      </trkpt>
      <trkpt lat="40.587850" lon="-5.097267">
        <ele>2131.0</ele>
        <time>2014-06-30T12:51:29Z</time>
      </trkpt>
      <trkpt lat="40.587933" lon="-5.097150">
        <ele>2129.0</ele>
        <time>2014-06-30T12:51:30Z</time>
      </trkpt>
      <trkpt lat="40.588033" lon="-5.097050">
        <ele>2127.0</ele>
        <time>2014-06-30T12:51:31Z</time>
      </trkpt>
      <trkpt lat="40.588133" lon="-5.096950">
        <ele>2125.0</ele>
        <time>2014-06-30T12:51:32Z</time>
      </trkpt>
      <trkpt lat="40.588233" lon="-5.096833">
        <ele>2122.0</ele>
        <time>2014-06-30T12:51:33Z</time>
      </trkpt>
      <trkpt lat="40.588367" lon="-5.096717">
        <ele>2121.0</ele>
        <time>2014-06-30T12:51:34Z</time>
      </trkpt>
      <trkpt lat="40.588483" lon="-5.096600">
        <ele>2119.0</ele>
        <time>2014-06-30T12:51:35Z</time>
      </trkpt>
      <trkpt lat="40.588600" lon="-5.096500">
        <ele>2118.0</ele>
        <time>2014-06-30T12:51:36Z</time>
      </trkpt>
      <trkpt lat="40.588700" lon="-5.096400">
        <ele>2118.0</ele>
        <time>2014-06-30T12:51:37Z</time>
      </trkpt>
      <trkpt lat="40.588817" lon="-5.096300">
        <ele>2118.0</ele>
        <time>2014-06-30T12:51:38Z</time>
      </trkpt>
      <trkpt lat="40.588917" lon="-5.096167">
        <ele>2118.0</ele>
        <time>2014-06-30T12:51:39Z</time>
      </trkpt>
      <trkpt lat="40.589000" lon="-5.096017">
        <ele>2119.0</ele>
        <time>2014-06-30T12:51:40Z</time>
      </trkpt>
      <trkpt lat="40.589083" lon="-5.095867">
        <ele>2119.0</ele>
        <time>2014-06-30T12:51:41Z</time>
      </trkpt>
      <trkpt lat="40.589183" lon="-5.095750">
        <ele>2119.0</ele>
        <time>2014-06-30T12:51:42Z</time>
      </trkpt>
      <trkpt lat="40.589300" lon="-5.095650">
        <ele>2118.0</ele>
        <time>2014-06-30T12:51:43Z</time>
      </trkpt>
      <trkpt lat="40.589433" lon="-5.095550">
        <ele>2116.0</ele>
        <time>2014-06-30T12:51:44Z</time>
      </trkpt>
      <trkpt lat="40.589550" lon="-5.095400">
        <ele>2114.0</ele>
        <time>2014-06-30T12:51:45Z</time>
      </trkpt>
      <trkpt lat="40.589667" lon="-5.095250">
        <ele>2114.0</ele>
        <time>2014-06-30T12:51:46Z</time>
      </trkpt>
      <trkpt lat="40.589783" lon="-5.095100">
        <ele>2114.0</ele>
        <time>2014-06-30T12:51:47Z</time>
      </trkpt>
      <trkpt lat="40.589883" lon="-5.094967">
        <ele>2115.0</ele>
        <time>2014-06-30T12:51:48Z</time>
      </trkpt>
      <trkpt lat="40.589983" lon="-5.094867">
        <ele>2115.0</ele>
        <time>2014-06-30T12:51:49Z</time>
      </trkpt>
      <trkpt lat="40.590083" lon="-5.094783">
        <ele>2115.0</ele>
        <time>2014-06-30T12:51:50Z</time>
      </trkpt>
      <trkpt lat="40.590167" lon="-5.094700">
        <ele>2115.0</ele>
        <time>2014-06-30T12:51:51Z</time>
      </trkpt>
      <trkpt lat="40.590233" lon="-5.094617">
        <ele>2116.0</ele>
        <time>2014-06-30T12:51:52Z</time>
      </trkpt>
      <trkpt lat="40.590317" lon="-5.094533">
        <ele>2116.0</ele>
        <time>2014-06-30T12:51:53Z</time>
      </trkpt>
      <trkpt lat="40.590383" lon="-5.094483">
        <ele>2115.0</ele>
        <time>2014-06-30T12:51:54Z</time>
      </trkpt>
      <trkpt lat="40.590450" lon="-5.094500">
        <ele>2114.0</ele>
        <time>2014-06-30T12:51:55Z</time>
      </trkpt>
      <trkpt lat="40.590483" lon="-5.094533">
        <ele>2114.0</ele>
        <time>2014-06-30T12:51:56Z</time>
      </trkpt>
      <trkpt lat="40.590483" lon="-5.094567">
        <ele>2116.0</ele>
        <time>2014-06-30T12:51:57Z</time>
      </trkpt>
      <trkpt lat="40.590467" lon="-5.094567">
        <ele>2116.0</ele>
        <time>2014-06-30T12:51:58Z</time>
      </trkpt>
      <trkpt lat="40.590417" lon="-5.094533">
        <ele>2116.0</ele>
        <time>2014-06-30T12:51:59Z</time>
      </trkpt>
      <trkpt lat="40.590350" lon="-5.094450">
        <ele>2116.0</ele>
        <time>2014-06-30T12:52:00Z</time>
      </trkpt>
      <trkpt lat="40.590283" lon="-5.094317">
        <ele>2116.0</ele>
        <time>2014-06-30T12:52:01Z</time>
      </trkpt>
      <trkpt lat="40.590250" lon="-5.094150">
        <ele>2116.0</ele>
        <time>2014-06-30T12:52:02Z</time>
      </trkpt>
      <trkpt lat="40.590250" lon="-5.093967">
        <ele>2117.0</ele>
        <time>2014-06-30T12:52:03Z</time>
      </trkpt>
      <trkpt lat="40.590283" lon="-5.093800">
        <ele>2116.0</ele>
        <time>2014-06-30T12:52:04Z</time>
      </trkpt>
      <trkpt lat="40.590317" lon="-5.093617">
        <ele>2116.0</ele>
        <time>2014-06-30T12:52:05Z</time>
      </trkpt>
      <trkpt lat="40.590367" lon="-5.093433">
        <ele>2116.0</ele>
        <time>2014-06-30T12:52:06Z</time>
      </trkpt>
      <trkpt lat="40.590433" lon="-5.093267">
        <ele>2115.0</ele>
        <time>2014-06-30T12:52:07Z</time>
      </trkpt>
      <trkpt lat="40.590517" lon="-5.093117">
        <ele>2114.0</ele>
        <time>2014-06-30T12:52:08Z</time>
      </trkpt>
      <trkpt lat="40.590600" lon="-5.092967">
        <ele>2114.0</ele>
        <time>2014-06-30T12:52:09Z</time>
      </trkpt>
      <trkpt lat="40.590717" lon="-5.092833">
        <ele>2112.0</ele>
        <time>2014-06-30T12:52:10Z</time>
      </trkpt>
      <trkpt lat="40.590833" lon="-5.092700">
        <ele>2111.0</ele>
        <time>2014-06-30T12:52:11Z</time>
      </trkpt>
      <trkpt lat="40.590967" lon="-5.092550">
        <ele>2109.0</ele>
        <time>2014-06-30T12:52:12Z</time>
      </trkpt>
      <trkpt lat="40.591067" lon="-5.092400">
        <ele>2109.0</ele>
        <time>2014-06-30T12:52:13Z</time>
      </trkpt>
      <trkpt lat="40.591167" lon="-5.092250">
        <ele>2109.0</ele>
        <time>2014-06-30T12:52:14Z</time>
      </trkpt>
      <trkpt lat="40.591267" lon="-5.092117">
        <ele>2109.0</ele>
        <time>2014-06-30T12:52:15Z</time>
      </trkpt>
      <trkpt lat="40.591367" lon="-5.091983">
        <ele>2107.0</ele>
        <time>2014-06-30T12:52:16Z</time>
      </trkpt>
      <trkpt lat="40.591483" lon="-5.091867">
        <ele>2105.0</ele>
        <time>2014-06-30T12:52:17Z</time>
      </trkpt>
      <trkpt lat="40.591583" lon="-5.091733">
        <ele>2104.0</ele>
        <time>2014-06-30T12:52:18Z</time>
      </trkpt>
      <trkpt lat="40.591700" lon="-5.091583">
        <ele>2103.0</ele>
        <time>2014-06-30T12:52:19Z</time>
      </trkpt>
      <trkpt lat="40.591800" lon="-5.091433">
        <ele>2102.0</ele>
        <time>2014-06-30T12:52:20Z</time>
      </trkpt>
      <trkpt lat="40.591883" lon="-5.091317">
        <ele>2102.0</ele>
        <time>2014-06-30T12:52:21Z</time>
      </trkpt>
      <trkpt lat="40.591983" lon="-5.091183">
        <ele>2101.0</ele>
        <time>2014-06-30T12:52:22Z</time>
      </trkpt>
      <trkpt lat="40.592083" lon="-5.091067">
        <ele>2100.0</ele>
        <time>2014-06-30T12:52:23Z</time>
      </trkpt>
      <trkpt lat="40.592167" lon="-5.090933">
        <ele>2098.0</ele>
        <time>2014-06-30T12:52:24Z</time>
      </trkpt>
      <trkpt lat="40.592283" lon="-5.090800">
        <ele>2095.0</ele>
        <time>2014-06-30T12:52:25Z</time>
      </trkpt>
      <trkpt lat="40.592400" lon="-5.090650">
        <ele>2094.0</ele>
        <time>2014-06-30T12:52:26Z</time>
      </trkpt>
      <trkpt lat="40.592533" lon="-5.090500">
        <ele>2092.0</ele>
        <time>2014-06-30T12:52:27Z</time>
      </trkpt>
      <trkpt lat="40.592650" lon="-5.090367">
        <ele>2091.0</ele>
        <time>2014-06-30T12:52:28Z</time>
      </trkpt>
      <trkpt lat="40.592750" lon="-5.090233">
        <ele>2091.0</ele>
        <time>2014-06-30T12:52:29Z</time>
      </trkpt>
      <trkpt lat="40.592850" lon="-5.090117">
        <ele>2089.0</ele>
        <time>2014-06-30T12:52:30Z</time>
      </trkpt>
      <trkpt lat="40.592950" lon="-5.090000">
        <ele>2087.0</ele>
        <time>2014-06-30T12:52:31Z</time>
      </trkpt>
      <trkpt lat="40.593067" lon="-5.089883">
        <ele>2085.0</ele>
        <time>2014-06-30T12:52:32Z</time>
      </trkpt>
      <trkpt lat="40.593183" lon="-5.089750">
        <ele>2083.0</ele>
        <time>2014-06-30T12:52:33Z</time>
      </trkpt>
      <trkpt lat="40.593317" lon="-5.089617">
        <ele>2081.0</ele>
        <time>2014-06-30T12:52:34Z</time>
      </trkpt>
      <trkpt lat="40.593417" lon="-5.089517">
        <ele>2080.0</ele>
        <time>2014-06-30T12:52:35Z</time>
      </trkpt>
      <trkpt lat="40.593517" lon="-5.089417">
        <ele>2078.0</ele>
        <time>2014-06-30T12:52:36Z</time>
      </trkpt>
      <trkpt lat="40.593617" lon="-5.089333">
        <ele>2077.0</ele>
        <time>2014-06-30T12:52:37Z</time>
      </trkpt>
      <trkpt lat="40.593717" lon="-5.089233">
        <ele>2075.0</ele>
        <time>2014-06-30T12:52:38Z</time>
      </trkpt>
      <trkpt lat="40.593817" lon="-5.089117">
        <ele>2073.0</ele>
        <time>2014-06-30T12:52:39Z</time>
      </trkpt>
      <trkpt lat="40.593933" lon="-5.089017">
        <ele>2070.0</ele>
        <time>2014-06-30T12:52:40Z</time>
      </trkpt>
      <trkpt lat="40.594033" lon="-5.088917">
        <ele>2067.0</ele>
        <time>2014-06-30T12:52:41Z</time>
      </trkpt>
      <trkpt lat="40.594150" lon="-5.088817">
        <ele>2065.0</ele>
        <time>2014-06-30T12:52:42Z</time>
      </trkpt>
      <trkpt lat="40.594233" lon="-5.088717">
        <ele>2063.0</ele>
        <time>2014-06-30T12:52:43Z</time>
      </trkpt>
      <trkpt lat="40.594333" lon="-5.088600">
        <ele>2060.0</ele>
        <time>2014-06-30T12:52:44Z</time>
      </trkpt>
      <trkpt lat="40.594433" lon="-5.088500">
        <ele>2058.0</ele>
        <time>2014-06-30T12:52:45Z</time>
      </trkpt>
      <trkpt lat="40.594533" lon="-5.088400">
        <ele>2055.0</ele>
        <time>2014-06-30T12:52:46Z</time>
      </trkpt>
      <trkpt lat="40.594633" lon="-5.088317">
        <ele>2052.0</ele>
        <time>2014-06-30T12:52:47Z</time>
      </trkpt>
      <trkpt lat="40.594733" lon="-5.088217">
        <ele>2049.0</ele>
        <time>2014-06-30T12:52:48Z</time>
      </trkpt>
      <trkpt lat="40.594833" lon="-5.088100">
        <ele>2047.0</ele>
        <time>2014-06-30T12:52:49Z</time>
      </trkpt>
      <trkpt lat="40.594933" lon="-5.088000">
        <ele>2044.0</ele>
        <time>2014-06-30T12:52:50Z</time>
      </trkpt>
      <trkpt lat="40.595033" lon="-5.087900">
        <ele>2041.0</ele>
        <time>2014-06-30T12:52:51Z</time>
      </trkpt>
      <trkpt lat="40.595133" lon="-5.087800">
        <ele>2038.0</ele>
        <time>2014-06-30T12:52:52Z</time>
      </trkpt>
      <trkpt lat="40.595217" lon="-5.087683">
        <ele>2035.0</ele>
        <time>2014-06-30T12:52:53Z</time>
      </trkpt>
      <trkpt lat="40.595317" lon="-5.087567">
        <ele>2032.0</ele>
        <time>2014-06-30T12:52:54Z</time>
      </trkpt>
      <trkpt lat="40.595417" lon="-5.087450">
        <ele>2030.0</ele>
        <time>2014-06-30T12:52:55Z</time>
      </trkpt>
      <trkpt lat="40.595500" lon="-5.087350">
        <ele>2027.0</ele>
        <time>2014-06-30T12:52:56Z</time>
      </trkpt>
      <trkpt lat="40.595600" lon="-5.087250">
        <ele>2024.0</ele>
        <time>2014-06-30T12:52:57Z</time>
      </trkpt>
      <trkpt lat="40.595683" lon="-5.087133">
        <ele>2020.0</ele>
        <time>2014-06-30T12:52:58Z</time>
      </trkpt>
      <trkpt lat="40.595800" lon="-5.087017">
        <ele>2017.0</ele>
        <time>2014-06-30T12:52:59Z</time>
      </trkpt>
      <trkpt lat="40.595900" lon="-5.086883">
        <ele>2013.0</ele>
        <time>2014-06-30T12:53:00Z</time>
      </trkpt>
      <trkpt lat="40.596017" lon="-5.086750">
        <ele>2010.0</ele>
        <time>2014-06-30T12:53:01Z</time>
      </trkpt>
      <trkpt lat="40.596133" lon="-5.086617">
        <ele>2008.0</ele>
        <time>2014-06-30T12:53:02Z</time>
      </trkpt>
      <trkpt lat="40.596250" lon="-5.086483">
        <ele>2006.0</ele>
        <time>2014-06-30T12:53:03Z</time>
      </trkpt>
      <trkpt lat="40.596350" lon="-5.086350">
        <ele>2004.0</ele>
        <time>2014-06-30T12:53:04Z</time>
      </trkpt>
      <trkpt lat="40.596467" lon="-5.086233">
        <ele>2002.0</ele>
        <time>2014-06-30T12:53:05Z</time>
      </trkpt>
      <trkpt lat="40.596567" lon="-5.086100">
        <ele>2000.0</ele>
        <time>2014-06-30T12:53:06Z</time>
      </trkpt>
      <trkpt lat="40.596667" lon="-5.085967">
        <ele>1998.0</ele>
        <time>2014-06-30T12:53:07Z</time>
      </trkpt>
      <trkpt lat="40.596767" lon="-5.085833">
        <ele>1997.0</ele>
        <time>2014-06-30T12:53:08Z</time>
      </trkpt>
      <trkpt lat="40.596883" lon="-5.085683">
        <ele>1996.0</ele>
        <time>2014-06-30T12:53:09Z</time>
      </trkpt>
      <trkpt lat="40.597000" lon="-5.085550">
        <ele>1995.0</ele>
        <time>2014-06-30T12:53:10Z</time>
      </trkpt>
      <trkpt lat="40.597117" lon="-5.085433">
        <ele>1996.0</ele>
        <time>2014-06-30T12:53:11Z</time>
      </trkpt>
      <trkpt lat="40.597217" lon="-5.085333">
        <ele>1995.0</ele>
        <time>2014-06-30T12:53:12Z</time>
      </trkpt>
      <trkpt lat="40.597300" lon="-5.085217">
        <ele>1995.0</ele>
        <time>2014-06-30T12:53:13Z</time>
      </trkpt>
      <trkpt lat="40.597400" lon="-5.085083">
        <ele>1994.0</ele>
        <time>2014-06-30T12:53:14Z</time>
      </trkpt>
      <trkpt lat="40.597483" lon="-5.084950">
        <ele>1993.0</ele>
        <time>2014-06-30T12:53:15Z</time>
      </trkpt>
      <trkpt lat="40.597583" lon="-5.084833">
        <ele>1992.0</ele>
        <time>2014-06-30T12:53:16Z</time>
      </trkpt>
      <trkpt lat="40.597700" lon="-5.084717">
        <ele>1991.0</ele>
        <time>2014-06-30T12:53:17Z</time>
      </trkpt>
      <trkpt lat="40.597817" lon="-5.084617">
        <ele>1989.0</ele>
        <time>2014-06-30T12:53:18Z</time>
      </trkpt>
      <trkpt lat="40.597950" lon="-5.084500">
        <ele>1987.0</ele>
        <time>2014-06-30T12:53:19Z</time>
      </trkpt>
      <trkpt lat="40.598067" lon="-5.084367">
        <ele>1988.0</ele>
        <time>2014-06-30T12:53:20Z</time>
      </trkpt>
      <trkpt lat="40.598183" lon="-5.084250">
        <ele>1989.0</ele>
        <time>2014-06-30T12:53:21Z</time>
      </trkpt>
      <trkpt lat="40.598283" lon="-5.084133">
        <ele>1988.0</ele>
        <time>2014-06-30T12:53:22Z</time>
      </trkpt>
      <trkpt lat="40.598383" lon="-5.084017">
        <ele>1986.0</ele>
        <time>2014-06-30T12:53:23Z</time>
      </trkpt>
      <trkpt lat="40.598483" lon="-5.083900">
        <ele>1983.0</ele>
        <time>2014-06-30T12:53:24Z</time>
      </trkpt>
      <trkpt lat="40.598600" lon="-5.083767">
        <ele>1982.0</ele>
        <time>2014-06-30T12:53:25Z</time>
      </trkpt>
      <trkpt lat="40.598717" lon="-5.083650">
        <ele>1980.0</ele>
        <time>2014-06-30T12:53:26Z</time>
      </trkpt>
      <trkpt lat="40.598833" lon="-5.083533">
        <ele>1979.0</ele>
        <time>2014-06-30T12:53:27Z</time>
      </trkpt>
      <trkpt lat="40.598967" lon="-5.083433">
        <ele>1978.0</ele>
        <time>2014-06-30T12:53:28Z</time>
      </trkpt>
      <trkpt lat="40.599067" lon="-5.083317">
        <ele>1977.0</ele>
        <time>2014-06-30T12:53:29Z</time>
      </trkpt>
      <trkpt lat="40.599183" lon="-5.083183">
        <ele>1976.0</ele>
        <time>2014-06-30T12:53:30Z</time>
      </trkpt>
      <trkpt lat="40.599283" lon="-5.083067">
        <ele>1974.0</ele>
        <time>2014-06-30T12:53:31Z</time>
      </trkpt>
      <trkpt lat="40.599400" lon="-5.082967">
        <ele>1973.0</ele>
        <time>2014-06-30T12:53:32Z</time>
      </trkpt>
      <trkpt lat="40.599533" lon="-5.082850">
        <ele>1971.0</ele>
        <time>2014-06-30T12:53:33Z</time>
      </trkpt>
      <trkpt lat="40.599650" lon="-5.082750">
        <ele>1969.0</ele>
        <time>2014-06-30T12:53:34Z</time>
      </trkpt>
      <trkpt lat="40.599767" lon="-5.082633">
        <ele>1968.0</ele>
        <time>2014-06-30T12:53:35Z</time>
      </trkpt>
      <trkpt lat="40.599883" lon="-5.082517">
        <ele>1967.0</ele>
        <time>2014-06-30T12:53:36Z</time>
      </trkpt>
      <trkpt lat="40.599983" lon="-5.082400">
        <ele>1966.0</ele>
        <time>2014-06-30T12:53:37Z</time>
      </trkpt>
      <trkpt lat="40.600100" lon="-5.082317">
        <ele>1965.0</ele>
        <time>2014-06-30T12:53:38Z</time>
      </trkpt>
      <trkpt lat="40.600200" lon="-5.082217">
        <ele>1964.0</ele>
        <time>2014-06-30T12:53:39Z</time>
      </trkpt>
      <trkpt lat="40.600300" lon="-5.082133">
        <ele>1963.0</ele>
        <time>2014-06-30T12:53:40Z</time>
      </trkpt>
      <trkpt lat="40.600417" lon="-5.082033">
        <ele>1962.0</ele>
        <time>2014-06-30T12:53:41Z</time>
      </trkpt>
      <trkpt lat="40.600533" lon="-5.081950">
        <ele>1960.0</ele>
        <time>2014-06-30T12:53:42Z</time>
      </trkpt>
      <trkpt lat="40.600650" lon="-5.081883">
        <ele>1960.0</ele>
        <time>2014-06-30T12:53:43Z</time>
      </trkpt>
      <trkpt lat="40.600750" lon="-5.081800">
        <ele>1960.0</ele>
        <time>2014-06-30T12:53:44Z</time>
      </trkpt>
      <trkpt lat="40.600850" lon="-5.081700">
        <ele>1959.0</ele>
        <time>2014-06-30T12:53:45Z</time>
      </trkpt>
      <trkpt lat="40.600967" lon="-5.081617">
        <ele>1957.0</ele>
        <time>2014-06-30T12:53:46Z</time>
      </trkpt>
      <trkpt lat="40.601083" lon="-5.081550">
        <ele>1956.0</ele>
        <time>2014-06-30T12:53:47Z</time>
      </trkpt>
      <trkpt lat="40.601200" lon="-5.081483">
        <ele>1955.0</ele>
        <time>2014-06-30T12:53:48Z</time>
      </trkpt>
      <trkpt lat="40.601300" lon="-5.081417">
        <ele>1954.0</ele>
        <time>2014-06-30T12:53:49Z</time>
      </trkpt>
      <trkpt lat="40.601417" lon="-5.081350">
        <ele>1952.0</ele>
        <time>2014-06-30T12:53:50Z</time>
      </trkpt>
      <trkpt lat="40.601517" lon="-5.081283">
        <ele>1951.0</ele>
        <time>2014-06-30T12:53:51Z</time>
      </trkpt>
      <trkpt lat="40.601633" lon="-5.081217">
        <ele>1950.0</ele>
        <time>2014-06-30T12:53:52Z</time>
      </trkpt>
      <trkpt lat="40.601717" lon="-5.081167">
        <ele>1950.0</ele>
        <time>2014-06-30T12:53:53Z</time>
      </trkpt>
      <trkpt lat="40.601817" lon="-5.081100">
        <ele>1948.0</ele>
        <time>2014-06-30T12:53:54Z</time>
      </trkpt>
      <trkpt lat="40.601917" lon="-5.081033">
        <ele>1947.0</ele>
        <time>2014-06-30T12:53:55Z</time>
      </trkpt>
      <trkpt lat="40.602017" lon="-5.080967">
        <ele>1946.0</ele>
        <time>2014-06-30T12:53:56Z</time>
      </trkpt>
      <trkpt lat="40.602133" lon="-5.080900">
        <ele>1944.0</ele>
        <time>2014-06-30T12:53:57Z</time>
      </trkpt>
      <trkpt lat="40.602250" lon="-5.080833">
        <ele>1943.0</ele>
        <time>2014-06-30T12:53:58Z</time>
      </trkpt>
      <trkpt lat="40.602367" lon="-5.080767">
        <ele>1942.0</ele>
        <time>2014-06-30T12:53:59Z</time>
      </trkpt>
      <trkpt lat="40.602467" lon="-5.080700">
        <ele>1940.0</ele>
        <time>2014-06-30T12:54:00Z</time>
      </trkpt>
      <trkpt lat="40.602583" lon="-5.080633">
        <ele>1939.0</ele>
        <time>2014-06-30T12:54:01Z</time>
      </trkpt>
      <trkpt lat="40.602683" lon="-5.080550">
        <ele>1938.0</ele>
        <time>2014-06-30T12:54:02Z</time>
      </trkpt>
      <trkpt lat="40.602800" lon="-5.080483">
        <ele>1934.0</ele>
        <time>2014-06-30T12:54:03Z</time>
      </trkpt>
      <trkpt lat="40.602933" lon="-5.080417">
        <ele>1930.0</ele>
        <time>2014-06-30T12:54:04Z</time>
      </trkpt>
      <trkpt lat="40.603050" lon="-5.080333">
        <ele>1928.0</ele>
        <time>2014-06-30T12:54:05Z</time>
      </trkpt>
      <trkpt lat="40.603200" lon="-5.080250">
        <ele>1926.0</ele>
        <time>2014-06-30T12:54:06Z</time>
      </trkpt>
      <trkpt lat="40.603300" lon="-5.080167">
        <ele>1925.0</ele>
        <time>2014-06-30T12:54:07Z</time>
      </trkpt>
      <trkpt lat="40.603417" lon="-5.080100">
        <ele>1925.0</ele>
        <time>2014-06-30T12:54:08Z</time>
      </trkpt>
      <trkpt lat="40.603517" lon="-5.080033">
        <ele>1923.0</ele>
        <time>2014-06-30T12:54:09Z</time>
      </trkpt>
      <trkpt lat="40.603633" lon="-5.079983">
        <ele>1922.0</ele>
        <time>2014-06-30T12:54:10Z</time>
      </trkpt>
      <trkpt lat="40.603767" lon="-5.079900">
        <ele>1919.0</ele>
        <time>2014-06-30T12:54:11Z</time>
      </trkpt>
      <trkpt lat="40.603900" lon="-5.079833">
        <ele>1918.0</ele>
        <time>2014-06-30T12:54:12Z</time>
      </trkpt>
      <trkpt lat="40.604017" lon="-5.079750">
        <ele>1917.0</ele>
        <time>2014-06-30T12:54:13Z</time>
      </trkpt>
      <trkpt lat="40.604117" lon="-5.079683">
        <ele>1917.0</ele>
        <time>2014-06-30T12:54:14Z</time>
      </trkpt>
      <trkpt lat="40.604217" lon="-5.079617">
        <ele>1916.0</ele>
        <time>2014-06-30T12:54:15Z</time>
      </trkpt>
      <trkpt lat="40.604333" lon="-5.079550">
        <ele>1914.0</ele>
        <time>2014-06-30T12:54:16Z</time>
      </trkpt>
      <trkpt lat="40.604450" lon="-5.079450">
        <ele>1912.0</ele>
        <time>2014-06-30T12:54:17Z</time>
      </trkpt>
      <trkpt lat="40.604583" lon="-5.079367">
        <ele>1907.0</ele>
        <time>2014-06-30T12:54:18Z</time>
      </trkpt>
      <trkpt lat="40.604717" lon="-5.079283">
        <ele>1905.0</ele>
        <time>2014-06-30T12:54:19Z</time>
      </trkpt>
      <trkpt lat="40.604850" lon="-5.079200">
        <ele>1903.0</ele>
        <time>2014-06-30T12:54:20Z</time>
      </trkpt>
      <trkpt lat="40.604983" lon="-5.079150">
        <ele>1903.0</ele>
        <time>2014-06-30T12:54:21Z</time>
      </trkpt>
      <trkpt lat="40.605100" lon="-5.079067">
        <ele>1904.0</ele>
        <time>2014-06-30T12:54:22Z</time>
      </trkpt>
      <trkpt lat="40.605200" lon="-5.079000">
        <ele>1903.0</ele>
        <time>2014-06-30T12:54:23Z</time>
      </trkpt>
      <trkpt lat="40.605300" lon="-5.078917">
        <ele>1902.0</ele>
        <time>2014-06-30T12:54:24Z</time>
      </trkpt>
      <trkpt lat="40.605400" lon="-5.078850">
        <ele>1901.0</ele>
        <time>2014-06-30T12:54:25Z</time>
      </trkpt>
      <trkpt lat="40.605517" lon="-5.078783">
        <ele>1900.0</ele>
        <time>2014-06-30T12:54:26Z</time>
      </trkpt>
      <trkpt lat="40.605633" lon="-5.078700">
        <ele>1899.0</ele>
        <time>2014-06-30T12:54:27Z</time>
      </trkpt>
      <trkpt lat="40.605750" lon="-5.078633">
        <ele>1899.0</ele>
        <time>2014-06-30T12:54:28Z</time>
      </trkpt>
      <trkpt lat="40.605850" lon="-5.078567">
        <ele>1898.0</ele>
        <time>2014-06-30T12:54:29Z</time>
      </trkpt>
      <trkpt lat="40.605967" lon="-5.078517">
        <ele>1897.0</ele>
        <time>2014-06-30T12:54:30Z</time>
      </trkpt>
      <trkpt lat="40.606067" lon="-5.078467">
        <ele>1896.0</ele>
        <time>2014-06-30T12:54:31Z</time>
      </trkpt>
      <trkpt lat="40.606183" lon="-5.078417">
        <ele>1895.0</ele>
        <time>2014-06-30T12:54:32Z</time>
      </trkpt>
      <trkpt lat="40.606300" lon="-5.078350">
        <ele>1893.0</ele>
        <time>2014-06-30T12:54:33Z</time>
      </trkpt>
      <trkpt lat="40.606400" lon="-5.078283">
        <ele>1892.0</ele>
        <time>2014-06-30T12:54:34Z</time>
      </trkpt>
      <trkpt lat="40.606517" lon="-5.078217">
        <ele>1892.0</ele>
        <time>2014-06-30T12:54:35Z</time>
      </trkpt>
      <trkpt lat="40.606617" lon="-5.078150">
        <ele>1891.0</ele>
        <time>2014-06-30T12:54:36Z</time>
      </trkpt>
      <trkpt lat="40.606733" lon="-5.078083">
        <ele>1891.0</ele>
        <time>2014-06-30T12:54:37Z</time>
      </trkpt>
      <trkpt lat="40.606833" lon="-5.078017">
        <ele>1890.0</ele>
        <time>2014-06-30T12:54:38Z</time>
      </trkpt>
      <trkpt lat="40.606933" lon="-5.077967">
        <ele>1888.0</ele>
        <time>2014-06-30T12:54:39Z</time>
      </trkpt>
      <trkpt lat="40.607050" lon="-5.077900">
        <ele>1887.0</ele>
        <time>2014-06-30T12:54:40Z</time>
      </trkpt>
      <trkpt lat="40.607183" lon="-5.077850">
        <ele>1885.0</ele>
        <time>2014-06-30T12:54:41Z</time>
      </trkpt>
      <trkpt lat="40.607300" lon="-5.077783">
        <ele>1884.0</ele>
        <time>2014-06-30T12:54:42Z</time>
      </trkpt>
      <trkpt lat="40.607417" lon="-5.077717">
        <ele>1884.0</ele>
        <time>2014-06-30T12:54:43Z</time>
      </trkpt>
      <trkpt lat="40.607533" lon="-5.077650">
        <ele>1884.0</ele>
        <time>2014-06-30T12:54:44Z</time>
      </trkpt>
      <trkpt lat="40.607633" lon="-5.077600">
        <ele>1883.0</ele>
        <time>2014-06-30T12:54:45Z</time>
      </trkpt>
      <trkpt lat="40.607750" lon="-5.077533">
        <ele>1882.0</ele>
        <time>2014-06-30T12:54:46Z</time>
      </trkpt>
      <trkpt lat="40.607850" lon="-5.077483">
        <ele>1881.0</ele>
        <time>2014-06-30T12:54:47Z</time>
      </trkpt>
      <trkpt lat="40.607967" lon="-5.077417">
        <ele>1879.0</ele>
        <time>2014-06-30T12:54:48Z</time>
      </trkpt>
      <trkpt lat="40.608100" lon="-5.077367">
        <ele>1878.0</ele>
        <time>2014-06-30T12:54:49Z</time>
      </trkpt>
      <trkpt lat="40.608217" lon="-5.077333">
        <ele>1877.0</ele>
        <time>2014-06-30T12:54:50Z</time>
      </trkpt>
      <trkpt lat="40.608333" lon="-5.077300">
        <ele>1876.0</ele>
        <time>2014-06-30T12:54:51Z</time>
      </trkpt>
      <trkpt lat="40.608433" lon="-5.077250">
        <ele>1876.0</ele>
        <time>2014-06-30T12:54:52Z</time>
      </trkpt>
      <trkpt lat="40.608550" lon="-5.077200">
        <ele>1875.0</ele>
        <time>2014-06-30T12:54:53Z</time>
      </trkpt>
      <trkpt lat="40.608650" lon="-5.077167">
        <ele>1874.0</ele>
        <time>2014-06-30T12:54:54Z</time>
      </trkpt>
      <trkpt lat="40.608767" lon="-5.077133">
        <ele>1872.0</ele>
        <time>2014-06-30T12:54:55Z</time>
      </trkpt>
      <trkpt lat="40.608883" lon="-5.077117">
        <ele>1871.0</ele>
        <time>2014-06-30T12:54:56Z</time>
      </trkpt>
      <trkpt lat="40.609017" lon="-5.077083">
        <ele>1869.0</ele>
        <time>2014-06-30T12:54:57Z</time>
      </trkpt>
      <trkpt lat="40.609117" lon="-5.077050">
        <ele>1867.0</ele>
        <time>2014-06-30T12:54:58Z</time>
      </trkpt>
      <trkpt lat="40.609233" lon="-5.077050">
        <ele>1866.0</ele>
        <time>2014-06-30T12:54:59Z</time>
      </trkpt>
      <trkpt lat="40.609333" lon="-5.077033">
        <ele>1864.0</ele>
        <time>2014-06-30T12:55:00Z</time>
      </trkpt>
      <trkpt lat="40.609450" lon="-5.077017">
        <ele>1863.0</ele>
        <time>2014-06-30T12:55:01Z</time>
      </trkpt>
      <trkpt lat="40.609567" lon="-5.077017">
        <ele>1862.0</ele>
        <time>2014-06-30T12:55:02Z</time>
      </trkpt>
      <trkpt lat="40.609683" lon="-5.077000">
        <ele>1860.0</ele>
        <time>2014-06-30T12:55:03Z</time>
      </trkpt>
      <trkpt lat="40.609783" lon="-5.077000">
        <ele>1859.0</ele>
        <time>2014-06-30T12:55:04Z</time>
      </trkpt>
      <trkpt lat="40.609883" lon="-5.077000">
        <ele>1857.0</ele>
        <time>2014-06-30T12:55:05Z</time>
      </trkpt>
      <trkpt lat="40.609983" lon="-5.076983">
        <ele>1855.0</ele>
        <time>2014-06-30T12:55:06Z</time>
      </trkpt>
      <trkpt lat="40.610083" lon="-5.076983">
        <ele>1853.0</ele>
        <time>2014-06-30T12:55:07Z</time>
      </trkpt>
      <trkpt lat="40.610200" lon="-5.076967">
        <ele>1851.0</ele>
        <time>2014-06-30T12:55:08Z</time>
      </trkpt>
      <trkpt lat="40.610300" lon="-5.076967">
        <ele>1848.0</ele>
        <time>2014-06-30T12:55:09Z</time>
      </trkpt>
      <trkpt lat="40.610417" lon="-5.076983">
        <ele>1844.0</ele>
        <time>2014-06-30T12:55:10Z</time>
      </trkpt>
      <trkpt lat="40.610533" lon="-5.076983">
        <ele>1841.0</ele>
        <time>2014-06-30T12:55:11Z</time>
      </trkpt>
      <trkpt lat="40.610650" lon="-5.076983">
        <ele>1839.0</ele>
        <time>2014-06-30T12:55:12Z</time>
      </trkpt>
      <trkpt lat="40.610750" lon="-5.076983">
        <ele>1837.0</ele>
        <time>2014-06-30T12:55:13Z</time>
      </trkpt>
      <trkpt lat="40.610867" lon="-5.076983">
        <ele>1835.0</ele>
        <time>2014-06-30T12:55:14Z</time>
      </trkpt>
      <trkpt lat="40.610967" lon="-5.076983">
        <ele>1832.0</ele>
        <time>2014-06-30T12:55:15Z</time>
      </trkpt>
      <trkpt lat="40.611067" lon="-5.076967">
        <ele>1830.0</ele>
        <time>2014-06-30T12:55:16Z</time>
      </trkpt>
      <trkpt lat="40.611183" lon="-5.076967">
        <ele>1828.0</ele>
        <time>2014-06-30T12:55:17Z</time>
      </trkpt>
      <trkpt lat="40.611283" lon="-5.076967">
        <ele>1825.0</ele>
        <time>2014-06-30T12:55:18Z</time>
      </trkpt>
      <trkpt lat="40.611383" lon="-5.076983">
        <ele>1823.0</ele>
        <time>2014-06-30T12:55:19Z</time>
      </trkpt>
      <trkpt lat="40.611500" lon="-5.077000">
        <ele>1821.0</ele>
        <time>2014-06-30T12:55:20Z</time>
      </trkpt>
      <trkpt lat="40.611600" lon="-5.077000">
        <ele>1819.0</ele>
        <time>2014-06-30T12:55:21Z</time>
      </trkpt>
      <trkpt lat="40.611717" lon="-5.077033">
        <ele>1817.0</ele>
        <time>2014-06-30T12:55:22Z</time>
      </trkpt>
      <trkpt lat="40.611817" lon="-5.077050">
        <ele>1815.0</ele>
        <time>2014-06-30T12:55:23Z</time>
      </trkpt>
      <trkpt lat="40.611917" lon="-5.077083">
        <ele>1814.0</ele>
        <time>2014-06-30T12:55:24Z</time>
      </trkpt>
      <trkpt lat="40.612000" lon="-5.077117">
        <ele>1813.0</ele>
        <time>2014-06-30T12:55:25Z</time>
      </trkpt>
      <trkpt lat="40.612100" lon="-5.077133">
        <ele>1810.0</ele>
        <time>2014-06-30T12:55:26Z</time>
      </trkpt>
      <trkpt lat="40.612200" lon="-5.077150">
        <ele>1808.0</ele>
        <time>2014-06-30T12:55:27Z</time>
      </trkpt>
      <trkpt lat="40.612300" lon="-5.077183">
        <ele>1806.0</ele>
        <time>2014-06-30T12:55:28Z</time>
      </trkpt>
      <trkpt lat="40.612400" lon="-5.077217">
        <ele>1804.0</ele>
        <time>2014-06-30T12:55:29Z</time>
      </trkpt>
      <trkpt lat="40.612500" lon="-5.077250">
        <ele>1803.0</ele>
        <time>2014-06-30T12:55:30Z</time>
      </trkpt>
      <trkpt lat="40.612600" lon="-5.077267">
        <ele>1801.0</ele>
        <time>2014-06-30T12:55:31Z</time>
      </trkpt>
      <trkpt lat="40.612700" lon="-5.077283">
        <ele>1799.0</ele>
        <time>2014-06-30T12:55:32Z</time>
      </trkpt>
      <trkpt lat="40.612800" lon="-5.077317">
        <ele>1798.0</ele>
        <time>2014-06-30T12:55:33Z</time>
      </trkpt>
      <trkpt lat="40.612900" lon="-5.077333">
        <ele>1796.0</ele>
        <time>2014-06-30T12:55:34Z</time>
      </trkpt>
      <trkpt lat="40.613000" lon="-5.077367">
        <ele>1796.0</ele>
        <time>2014-06-30T12:55:35Z</time>
      </trkpt>
      <trkpt lat="40.613083" lon="-5.077367">
        <ele>1799.0</ele>
        <time>2014-06-30T12:55:36Z</time>
      </trkpt>
      <trkpt lat="40.613150" lon="-5.077367">
        <ele>1804.0</ele>
        <time>2014-06-30T12:55:37Z</time>
      </trkpt>
      <trkpt lat="40.613200" lon="-5.077367">
        <ele>1807.0</ele>
        <time>2014-06-30T12:55:38Z</time>
      </trkpt>
      <trkpt lat="40.613233" lon="-5.077367">
        <ele>1808.0</ele>
        <time>2014-06-30T12:55:39Z</time>
      </trkpt>
      <trkpt lat="40.613283" lon="-5.077367">
        <ele>1810.0</ele>
        <time>2014-06-30T12:55:40Z</time>
      </trkpt>
      <trkpt lat="40.613317" lon="-5.077350">
        <ele>1808.0</ele>
        <time>2014-06-30T12:55:41Z</time>
      </trkpt>
      <trkpt lat="40.613367" lon="-5.077350">
        <ele>1809.0</ele>
        <time>2014-06-30T12:55:42Z</time>
      </trkpt>
      <trkpt lat="40.613367" lon="-5.077350">
        <ele>1810.0</ele>
        <time>2014-06-30T12:55:43Z</time>
      </trkpt>
      <trkpt lat="40.613367" lon="-5.077350">
        <ele>1812.0</ele>
        <time>2014-06-30T12:55:44Z</time>
      </trkpt>
      <trkpt lat="40.613317" lon="-5.077367">
        <ele>1814.0</ele>
        <time>2014-06-30T12:55:45Z</time>
      </trkpt>
      <trkpt lat="40.613267" lon="-5.077333">
        <ele>1816.0</ele>
        <time>2014-06-30T12:55:46Z</time>
      </trkpt>
      <trkpt lat="40.613217" lon="-5.077283">
        <ele>1818.0</ele>
        <time>2014-06-30T12:55:47Z</time>
      </trkpt>
      <trkpt lat="40.613167" lon="-5.077183">
        <ele>1819.0</ele>
        <time>2014-06-30T12:55:48Z</time>
      </trkpt>
      <trkpt lat="40.613133" lon="-5.077050">
        <ele>1820.0</ele>
        <time>2014-06-30T12:55:49Z</time>
      </trkpt>
      <trkpt lat="40.613100" lon="-5.076883">
        <ele>1820.0</ele>
        <time>2014-06-30T12:55:50Z</time>
      </trkpt>
      <trkpt lat="40.613117" lon="-5.076667">
        <ele>1821.0</ele>
        <time>2014-06-30T12:55:51Z</time>
      </trkpt>
      <trkpt lat="40.613150" lon="-5.076467">
        <ele>1824.0</ele>
        <time>2014-06-30T12:55:52Z</time>
      </trkpt>
      <trkpt lat="40.613233" lon="-5.076317">
        <ele>1825.0</ele>
        <time>2014-06-30T12:55:53Z</time>
      </trkpt>
      <trkpt lat="40.613300" lon="-5.076217">
        <ele>1827.0</ele>
        <time>2014-06-30T12:55:54Z</time>
      </trkpt>
      <trkpt lat="40.613383" lon="-5.076133">
        <ele>1829.0</ele>
        <time>2014-06-30T12:55:55Z</time>
      </trkpt>
      <trkpt lat="40.613450" lon="-5.076067">
        <ele>1827.0</ele>
        <time>2014-06-30T12:55:56Z</time>
      </trkpt>
      <trkpt lat="40.613533" lon="-5.076017">
        <ele>1829.0</ele>
        <time>2014-06-30T12:55:57Z</time>
      </trkpt>
      <trkpt lat="40.613600" lon="-5.075950">
        <ele>1829.0</ele>
        <time>2014-06-30T12:55:58Z</time>
      </trkpt>
      <trkpt lat="40.613667" lon="-5.075900">
        <ele>1830.0</ele>
        <time>2014-06-30T12:55:59Z</time>
      </trkpt>
      <trkpt lat="40.613717" lon="-5.075850">
        <ele>1831.0</ele>
        <time>2014-06-30T12:56:00Z</time>
      </trkpt>
      <trkpt lat="40.613783" lon="-5.075817">
        <ele>1832.0</ele>
        <time>2014-06-30T12:56:01Z</time>
      </trkpt>
      <trkpt lat="40.613833" lon="-5.075783">
        <ele>1834.0</ele>
        <time>2014-06-30T12:56:02Z</time>
      </trkpt>
      <trkpt lat="40.613883" lon="-5.075767">
        <ele>1833.0</ele>
        <time>2014-06-30T12:56:03Z</time>
      </trkpt>
      <trkpt lat="40.613933" lon="-5.075733">
        <ele>1835.0</ele>
        <time>2014-06-30T12:56:04Z</time>
      </trkpt>
      <trkpt lat="40.613967" lon="-5.075717">
        <ele>1836.0</ele>
        <time>2014-06-30T12:56:05Z</time>
      </trkpt>
      <trkpt lat="40.614017" lon="-5.075700">
        <ele>1836.0</ele>
        <time>2014-06-30T12:56:06Z</time>
      </trkpt>
      <trkpt lat="40.614067" lon="-5.075700">
        <ele>1837.0</ele>
        <time>2014-06-30T12:56:07Z</time>
      </trkpt>
      <trkpt lat="40.614083" lon="-5.075700">
        <ele>1838.0</ele>
        <time>2014-06-30T12:56:08Z</time>
      </trkpt>
      <trkpt lat="40.614083" lon="-5.075717">
        <ele>1841.0</ele>
        <time>2014-06-30T12:56:09Z</time>
      </trkpt>
      <trkpt lat="40.614067" lon="-5.075717">
        <ele>1844.0</ele>
        <time>2014-06-30T12:56:10Z</time>
      </trkpt>
      <trkpt lat="40.614017" lon="-5.075700">
        <ele>1846.0</ele>
        <time>2014-06-30T12:56:11Z</time>
      </trkpt>
      <trkpt lat="40.613967" lon="-5.075633">
        <ele>1849.0</ele>
        <time>2014-06-30T12:56:12Z</time>
      </trkpt>
      <trkpt lat="40.613900" lon="-5.075500">
        <ele>1850.0</ele>
        <time>2014-06-30T12:56:13Z</time>
      </trkpt>
      <trkpt lat="40.613883" lon="-5.075317">
        <ele>1851.0</ele>
        <time>2014-06-30T12:56:14Z</time>
      </trkpt>
      <trkpt lat="40.613883" lon="-5.075100">
        <ele>1852.0</ele>
        <time>2014-06-30T12:56:15Z</time>
      </trkpt>
      <trkpt lat="40.613933" lon="-5.074900">
        <ele>1855.0</ele>
        <time>2014-06-30T12:56:16Z</time>
      </trkpt>
      <trkpt lat="40.613967" lon="-5.074700">
        <ele>1859.0</ele>
        <time>2014-06-30T12:56:17Z</time>
      </trkpt>
      <trkpt lat="40.614050" lon="-5.074533">
        <ele>1863.0</ele>
        <time>2014-06-30T12:56:18Z</time>
      </trkpt>
      <trkpt lat="40.614117" lon="-5.074383">
        <ele>1866.0</ele>
        <time>2014-06-30T12:56:19Z</time>
      </trkpt>
      <trkpt lat="40.614200" lon="-5.074233">
        <ele>1869.0</ele>
        <time>2014-06-30T12:56:20Z</time>
      </trkpt>
      <trkpt lat="40.614267" lon="-5.074100">
        <ele>1872.0</ele>
        <time>2014-06-30T12:56:21Z</time>
      </trkpt>
      <trkpt lat="40.614333" lon="-5.073983">
        <ele>1875.0</ele>
        <time>2014-06-30T12:56:22Z</time>
      </trkpt>
      <trkpt lat="40.614400" lon="-5.073867">
        <ele>1878.0</ele>
        <time>2014-06-30T12:56:23Z</time>
      </trkpt>
      <trkpt lat="40.614483" lon="-5.073783">
        <ele>1881.0</ele>
        <time>2014-06-30T12:56:24Z</time>
      </trkpt>
      <trkpt lat="40.614567" lon="-5.073683">
        <ele>1884.0</ele>
        <time>2014-06-30T12:56:25Z</time>
      </trkpt>
      <trkpt lat="40.614633" lon="-5.073600">
        <ele>1887.0</ele>
        <time>2014-06-30T12:56:26Z</time>
      </trkpt>
      <trkpt lat="40.614717" lon="-5.073533">
        <ele>1889.0</ele>
        <time>2014-06-30T12:56:27Z</time>
      </trkpt>
      <trkpt lat="40.614800" lon="-5.073483">
        <ele>1892.0</ele>
        <time>2014-06-30T12:56:28Z</time>
      </trkpt>
      <trkpt lat="40.614883" lon="-5.073450">
        <ele>1894.0</ele>
        <time>2014-06-30T12:56:29Z</time>
      </trkpt>
      <trkpt lat="40.614933" lon="-5.073433">
        <ele>1897.0</ele>
        <time>2014-06-30T12:56:30Z</time>
      </trkpt>
      <trkpt lat="40.614983" lon="-5.073417">
        <ele>1899.0</ele>
        <time>2014-06-30T12:56:31Z</time>
      </trkpt>
      <trkpt lat="40.615017" lon="-5.073417">
        <ele>1901.0</ele>
        <time>2014-06-30T12:56:32Z</time>
      </trkpt>
      <trkpt lat="40.615033" lon="-5.073417">
        <ele>1896.0</ele>
        <time>2014-06-30T12:56:33Z</time>
      </trkpt>
      <trkpt lat="40.615033" lon="-5.073417">
        <ele>1898.0</ele>
        <time>2014-06-30T12:56:34Z</time>
      </trkpt>
      <trkpt lat="40.615000" lon="-5.073417">
        <ele>1900.0</ele>
        <time>2014-06-30T12:56:35Z</time>
      </trkpt>
      <trkpt lat="40.614967" lon="-5.073383">
        <ele>1902.0</ele>
        <time>2014-06-30T12:56:36Z</time>
      </trkpt>
      <trkpt lat="40.614900" lon="-5.073300">
        <ele>1903.0</ele>
        <time>2014-06-30T12:56:37Z</time>
      </trkpt>
      <trkpt lat="40.614833" lon="-5.073167">
        <ele>1905.0</ele>
        <time>2014-06-30T12:56:38Z</time>
      </trkpt>
      <trkpt lat="40.614800" lon="-5.072983">
        <ele>1906.0</ele>
        <time>2014-06-30T12:56:39Z</time>
      </trkpt>
      <trkpt lat="40.614783" lon="-5.072783">
        <ele>1907.0</ele>
        <time>2014-06-30T12:56:40Z</time>
      </trkpt>
      <trkpt lat="40.614817" lon="-5.072567">
        <ele>1909.0</ele>
        <time>2014-06-30T12:56:41Z</time>
      </trkpt>
      <trkpt lat="40.614867" lon="-5.072367">
        <ele>1913.0</ele>
        <time>2014-06-30T12:56:42Z</time>
      </trkpt>
      <trkpt lat="40.614950" lon="-5.072217">
        <ele>1917.0</ele>
        <time>2014-06-30T12:56:43Z</time>
      </trkpt>
      <trkpt lat="40.615033" lon="-5.072083">
        <ele>1920.0</ele>
        <time>2014-06-30T12:56:44Z</time>
      </trkpt>
      <trkpt lat="40.615100" lon="-5.071983">
        <ele>1922.0</ele>
        <time>2014-06-30T12:56:45Z</time>
      </trkpt>
      <trkpt lat="40.615167" lon="-5.071867">
        <ele>1923.0</ele>
        <time>2014-06-30T12:56:46Z</time>
      </trkpt>
      <trkpt lat="40.615250" lon="-5.071750">
        <ele>1924.0</ele>
        <time>2014-06-30T12:56:47Z</time>
      </trkpt>
      <trkpt lat="40.615333" lon="-5.071650">
        <ele>1925.0</ele>
        <time>2014-06-30T12:56:48Z</time>
      </trkpt>
      <trkpt lat="40.615433" lon="-5.071600">
        <ele>1926.0</ele>
        <time>2014-06-30T12:56:49Z</time>
      </trkpt>
      <trkpt lat="40.615517" lon="-5.071550">
        <ele>1927.0</ele>
        <time>2014-06-30T12:56:50Z</time>
      </trkpt>
      <trkpt lat="40.615583" lon="-5.071550">
        <ele>1928.0</ele>
        <time>2014-06-30T12:56:51Z</time>
      </trkpt>
      <trkpt lat="40.615650" lon="-5.071550">
        <ele>1929.0</ele>
        <time>2014-06-30T12:56:52Z</time>
      </trkpt>
      <trkpt lat="40.615717" lon="-5.071550">
        <ele>1929.0</ele>
        <time>2014-06-30T12:56:53Z</time>
      </trkpt>
      <trkpt lat="40.615783" lon="-5.071550">
        <ele>1930.0</ele>
        <time>2014-06-30T12:56:54Z</time>
      </trkpt>
      <trkpt lat="40.615850" lon="-5.071550">
        <ele>1931.0</ele>
        <time>2014-06-30T12:56:55Z</time>
      </trkpt>
      <trkpt lat="40.615900" lon="-5.071550">
        <ele>1928.0</ele>
        <time>2014-06-30T12:56:56Z</time>
      </trkpt>
      <trkpt lat="40.615950" lon="-5.071550">
        <ele>1927.0</ele>
        <time>2014-06-30T12:56:57Z</time>
      </trkpt>
      <trkpt lat="40.616000" lon="-5.071567">
        <ele>1928.0</ele>
        <time>2014-06-30T12:56:58Z</time>
      </trkpt>
      <trkpt lat="40.616067" lon="-5.071567">
        <ele>1928.0</ele>
        <time>2014-06-30T12:56:59Z</time>
      </trkpt>
      <trkpt lat="40.616133" lon="-5.071600">
        <ele>1928.0</ele>
        <time>2014-06-30T12:57:00Z</time>
      </trkpt>
      <trkpt lat="40.616200" lon="-5.071617">
        <ele>1928.0</ele>
        <time>2014-06-30T12:57:01Z</time>
      </trkpt>
      <trkpt lat="40.616267" lon="-5.071650">
        <ele>1927.0</ele>
        <time>2014-06-30T12:57:02Z</time>
      </trkpt>
      <trkpt lat="40.616350" lon="-5.071683">
        <ele>1927.0</ele>
        <time>2014-06-30T12:57:03Z</time>
      </trkpt>
      <trkpt lat="40.616417" lon="-5.071700">
        <ele>1927.0</ele>
        <time>2014-06-30T12:57:04Z</time>
      </trkpt>
      <trkpt lat="40.616467" lon="-5.071717">
        <ele>1927.0</ele>
        <time>2014-06-30T12:57:05Z</time>
      </trkpt>
      <trkpt lat="40.616533" lon="-5.071733">
        <ele>1927.0</ele>
        <time>2014-06-30T12:57:06Z</time>
      </trkpt>
      <trkpt lat="40.616600" lon="-5.071750">
        <ele>1927.0</ele>
        <time>2014-06-30T12:57:07Z</time>
      </trkpt>
      <trkpt lat="40.616650" lon="-5.071750">
        <ele>1927.0</ele>
        <time>2014-06-30T12:57:08Z</time>
      </trkpt>
      <trkpt lat="40.616717" lon="-5.071767">
        <ele>1927.0</ele>
        <time>2014-06-30T12:57:09Z</time>
      </trkpt>
      <trkpt lat="40.616783" lon="-5.071783">
        <ele>1927.0</ele>
        <time>2014-06-30T12:57:10Z</time>
      </trkpt>
      <trkpt lat="40.616833" lon="-5.071817">
        <ele>1926.0</ele>
        <time>2014-06-30T12:57:11Z</time>
      </trkpt>
      <trkpt lat="40.616900" lon="-5.071883">
        <ele>1926.0</ele>
        <time>2014-06-30T12:57:12Z</time>
      </trkpt>
      <trkpt lat="40.616933" lon="-5.071917">
        <ele>1927.0</ele>
        <time>2014-06-30T12:57:13Z</time>
      </trkpt>
      <trkpt lat="40.616967" lon="-5.071950">
        <ele>1927.0</ele>
        <time>2014-06-30T12:57:14Z</time>
      </trkpt>
      <trkpt lat="40.616983" lon="-5.071967">
        <ele>1927.0</ele>
        <time>2014-06-30T12:57:15Z</time>
      </trkpt>
      <trkpt lat="40.617000" lon="-5.071967">
        <ele>1928.0</ele>
        <time>2014-06-30T12:57:16Z</time>
      </trkpt>
      <trkpt lat="40.617017" lon="-5.071950">
        <ele>1928.0</ele>
        <time>2014-06-30T12:57:17Z</time>
      </trkpt>
      <trkpt lat="40.617017" lon="-5.071950">
        <ele>1928.0</ele>
        <time>2014-06-30T12:57:18Z</time>
      </trkpt>
      <trkpt lat="40.617017" lon="-5.071967">
        <ele>1928.0</ele>
        <time>2014-06-30T12:57:19Z</time>
      </trkpt>
      <trkpt lat="40.616983" lon="-5.071967">
        <ele>1927.0</ele>
        <time>2014-06-30T12:57:20Z</time>
      </trkpt>
      <trkpt lat="40.616950" lon="-5.071967">
        <ele>1927.0</ele>
        <time>2014-06-30T12:57:21Z</time>
      </trkpt>
      <trkpt lat="40.616883" lon="-5.071917">
        <ele>1926.0</ele>
        <time>2014-06-30T12:57:22Z</time>
      </trkpt>
      <trkpt lat="40.616817" lon="-5.071833">
        <ele>1926.0</ele>
        <time>2014-06-30T12:57:23Z</time>
      </trkpt>
      <trkpt lat="40.616750" lon="-5.071717">
        <ele>1925.0</ele>
        <time>2014-06-30T12:57:24Z</time>
      </trkpt>
      <trkpt lat="40.616683" lon="-5.071583">
        <ele>1925.0</ele>
        <time>2014-06-30T12:57:25Z</time>
      </trkpt>
      <trkpt lat="40.616633" lon="-5.071467">
        <ele>1925.0</ele>
        <time>2014-06-30T12:57:26Z</time>
      </trkpt>
      <trkpt lat="40.616567" lon="-5.071350">
        <ele>1924.0</ele>
        <time>2014-06-30T12:57:27Z</time>
      </trkpt>
      <trkpt lat="40.616500" lon="-5.071233">
        <ele>1925.0</ele>
        <time>2014-06-30T12:57:28Z</time>
      </trkpt>
      <trkpt lat="40.616450" lon="-5.071083">
        <ele>1926.0</ele>
        <time>2014-06-30T12:57:29Z</time>
      </trkpt>
      <trkpt lat="40.616400" lon="-5.070950">
        <ele>1927.0</ele>
        <time>2014-06-30T12:57:30Z</time>
      </trkpt>
      <trkpt lat="40.616350" lon="-5.070817">
        <ele>1928.0</ele>
        <time>2014-06-30T12:57:31Z</time>
      </trkpt>
      <trkpt lat="40.616317" lon="-5.070700">
        <ele>1928.0</ele>
        <time>2014-06-30T12:57:32Z</time>
      </trkpt>
      <trkpt lat="40.616267" lon="-5.070600">
        <ele>1927.0</ele>
        <time>2014-06-30T12:57:33Z</time>
      </trkpt>
      <trkpt lat="40.616200" lon="-5.070467">
        <ele>1927.0</ele>
        <time>2014-06-30T12:57:34Z</time>
      </trkpt>
      <trkpt lat="40.616150" lon="-5.070317">
        <ele>1926.0</ele>
        <time>2014-06-30T12:57:35Z</time>
      </trkpt>
      <trkpt lat="40.616100" lon="-5.070150">
        <ele>1926.0</ele>
        <time>2014-06-30T12:57:36Z</time>
      </trkpt>
      <trkpt lat="40.616067" lon="-5.069983">
        <ele>1927.0</ele>
        <time>2014-06-30T12:57:37Z</time>
      </trkpt>
      <trkpt lat="40.616033" lon="-5.069817">
        <ele>1928.0</ele>
        <time>2014-06-30T12:57:38Z</time>
      </trkpt>
      <trkpt lat="40.616000" lon="-5.069650">
        <ele>1928.0</ele>
        <time>2014-06-30T12:57:39Z</time>
      </trkpt>
      <trkpt lat="40.615983" lon="-5.069500">
        <ele>1929.0</ele>
        <time>2014-06-30T12:57:40Z</time>
      </trkpt>
      <trkpt lat="40.615950" lon="-5.069317">
        <ele>1929.0</ele>
        <time>2014-06-30T12:57:41Z</time>
      </trkpt>
      <trkpt lat="40.615917" lon="-5.069167">
        <ele>1930.0</ele>
        <time>2014-06-30T12:57:42Z</time>
      </trkpt>
      <trkpt lat="40.615867" lon="-5.069033">
        <ele>1931.0</ele>
        <time>2014-06-30T12:57:43Z</time>
      </trkpt>
      <trkpt lat="40.615817" lon="-5.068917">
        <ele>1931.0</ele>
        <time>2014-06-30T12:57:44Z</time>
      </trkpt>
      <trkpt lat="40.615767" lon="-5.068800">
        <ele>1932.0</ele>
        <time>2014-06-30T12:57:45Z</time>
      </trkpt>
      <trkpt lat="40.615717" lon="-5.068683">
        <ele>1932.0</ele>
        <time>2014-06-30T12:57:46Z</time>
      </trkpt>
      <trkpt lat="40.615667" lon="-5.068567">
        <ele>1931.0</ele>
        <time>2014-06-30T12:57:47Z</time>
      </trkpt>
      <trkpt lat="40.615617" lon="-5.068433">
        <ele>1930.0</ele>
        <time>2014-06-30T12:57:48Z</time>
      </trkpt>
      <trkpt lat="40.615550" lon="-5.068300">
        <ele>1929.0</ele>
        <time>2014-06-30T12:57:49Z</time>
      </trkpt>
      <trkpt lat="40.615500" lon="-5.068150">
        <ele>1930.0</ele>
        <time>2014-06-30T12:57:50Z</time>
      </trkpt>
      <trkpt lat="40.615450" lon="-5.068000">
        <ele>1930.0</ele>
        <time>2014-06-30T12:57:51Z</time>
      </trkpt>
      <trkpt lat="40.615383" lon="-5.067867">
        <ele>1931.0</ele>
        <time>2014-06-30T12:57:52Z</time>
      </trkpt>
      <trkpt lat="40.615333" lon="-5.067733">
        <ele>1932.0</ele>
        <time>2014-06-30T12:57:53Z</time>
      </trkpt>
      <trkpt lat="40.615283" lon="-5.067617">
        <ele>1934.0</ele>
        <time>2014-06-30T12:57:54Z</time>
      </trkpt>
      <trkpt lat="40.615233" lon="-5.067500">
        <ele>1935.0</ele>
        <time>2014-06-30T12:57:55Z</time>
      </trkpt>
      <trkpt lat="40.615217" lon="-5.067383">
        <ele>1936.0</ele>
        <time>2014-06-30T12:57:56Z</time>
      </trkpt>
      <trkpt lat="40.615167" lon="-5.067250">
        <ele>1936.0</ele>
        <time>2014-06-30T12:57:57Z</time>
      </trkpt>
      <trkpt lat="40.615117" lon="-5.067100">
        <ele>1936.0</ele>
        <time>2014-06-30T12:57:58Z</time>
      </trkpt>
      <trkpt lat="40.615050" lon="-5.066983">
        <ele>1936.0</ele>
        <time>2014-06-30T12:57:59Z</time>
      </trkpt>
      <trkpt lat="40.614983" lon="-5.066917">
        <ele>1935.0</ele>
        <time>2014-06-30T12:58:00Z</time>
      </trkpt>
      <trkpt lat="40.614900" lon="-5.066867">
        <ele>1935.0</ele>
        <time>2014-06-30T12:58:01Z</time>
      </trkpt>
      <trkpt lat="40.614850" lon="-5.066833">
        <ele>1935.0</ele>
        <time>2014-06-30T12:58:02Z</time>
      </trkpt>
      <trkpt lat="40.614800" lon="-5.066817">
        <ele>1936.0</ele>
        <time>2014-06-30T12:58:03Z</time>
      </trkpt>
      <trkpt lat="40.614767" lon="-5.066783">
        <ele>1937.0</ele>
        <time>2014-06-30T12:58:04Z</time>
      </trkpt>
      <trkpt lat="40.614750" lon="-5.066783">
        <ele>1937.0</ele>
        <time>2014-06-30T12:58:05Z</time>
      </trkpt>
      <trkpt lat="40.614733" lon="-5.066767">
        <ele>1936.0</ele>
        <time>2014-06-30T12:58:06Z</time>
      </trkpt>
      <trkpt lat="40.614733" lon="-5.066783">
        <ele>1936.0</ele>
        <time>2014-06-30T12:58:07Z</time>
      </trkpt>
      <trkpt lat="40.614733" lon="-5.066783">
        <ele>1936.0</ele>
        <time>2014-06-30T12:58:08Z</time>
      </trkpt>
      <trkpt lat="40.614750" lon="-5.066783">
        <ele>1936.0</ele>
        <time>2014-06-30T12:58:09Z</time>
      </trkpt>
      <trkpt lat="40.614767" lon="-5.066783">
        <ele>1936.0</ele>
        <time>2014-06-30T12:58:10Z</time>
      </trkpt>
      <trkpt lat="40.614800" lon="-5.066783">
        <ele>1936.0</ele>
        <time>2014-06-30T12:58:11Z</time>
      </trkpt>
      <trkpt lat="40.614833" lon="-5.066767">
        <ele>1937.0</ele>
        <time>2014-06-30T12:58:12Z</time>
      </trkpt>
      <trkpt lat="40.614867" lon="-5.066750">
        <ele>1938.0</ele>
        <time>2014-06-30T12:58:13Z</time>
      </trkpt>
      <trkpt lat="40.614900" lon="-5.066717">
        <ele>1940.0</ele>
        <time>2014-06-30T12:58:14Z</time>
      </trkpt>
      <trkpt lat="40.614933" lon="-5.066683">
        <ele>1942.0</ele>
        <time>2014-06-30T12:58:15Z</time>
      </trkpt>
      <trkpt lat="40.614983" lon="-5.066633">
        <ele>1941.0</ele>
        <time>2014-06-30T12:58:16Z</time>
      </trkpt>
      <trkpt lat="40.615017" lon="-5.066600">
        <ele>1942.0</ele>
        <time>2014-06-30T12:58:17Z</time>
      </trkpt>
      <trkpt lat="40.615083" lon="-5.066567">
        <ele>1943.0</ele>
        <time>2014-06-30T12:58:18Z</time>
      </trkpt>
      <trkpt lat="40.615133" lon="-5.066533">
        <ele>1944.0</ele>
        <time>2014-06-30T12:58:19Z</time>
      </trkpt>
      <trkpt lat="40.615167" lon="-5.066517">
        <ele>1943.0</ele>
        <time>2014-06-30T12:58:20Z</time>
      </trkpt>
      <trkpt lat="40.615217" lon="-5.066517">
        <ele>1944.0</ele>
        <time>2014-06-30T12:58:21Z</time>
      </trkpt>
      <trkpt lat="40.615250" lon="-5.066500">
        <ele>1945.0</ele>
        <time>2014-06-30T12:58:22Z</time>
      </trkpt>
      <trkpt lat="40.615300" lon="-5.066517">
        <ele>1945.0</ele>
        <time>2014-06-30T12:58:23Z</time>
      </trkpt>
      <trkpt lat="40.615350" lon="-5.066517">
        <ele>1945.0</ele>
        <time>2014-06-30T12:58:24Z</time>
      </trkpt>
      <trkpt lat="40.615400" lon="-5.066517">
        <ele>1946.0</ele>
        <time>2014-06-30T12:58:25Z</time>
      </trkpt>
      <trkpt lat="40.615433" lon="-5.066533">
        <ele>1947.0</ele>
        <time>2014-06-30T12:58:26Z</time>
      </trkpt>
      <trkpt lat="40.615483" lon="-5.066550">
        <ele>1948.0</ele>
        <time>2014-06-30T12:58:27Z</time>
      </trkpt>
      <trkpt lat="40.615517" lon="-5.066550">
        <ele>1950.0</ele>
        <time>2014-06-30T12:58:28Z</time>
      </trkpt>
      <trkpt lat="40.615567" lon="-5.066550">
        <ele>1952.0</ele>
        <time>2014-06-30T12:58:29Z</time>
      </trkpt>
      <trkpt lat="40.615600" lon="-5.066550">
        <ele>1951.0</ele>
        <time>2014-06-30T12:58:30Z</time>
      </trkpt>
      <trkpt lat="40.615650" lon="-5.066550">
        <ele>1953.0</ele>
        <time>2014-06-30T12:58:31Z</time>
      </trkpt>
      <trkpt lat="40.615683" lon="-5.066567">
        <ele>1953.0</ele>
        <time>2014-06-30T12:58:32Z</time>
      </trkpt>
      <trkpt lat="40.615700" lon="-5.066600">
        <ele>1953.0</ele>
        <time>2014-06-30T12:58:33Z</time>
      </trkpt>
      <trkpt lat="40.615717" lon="-5.066617">
        <ele>1954.0</ele>
        <time>2014-06-30T12:58:34Z</time>
      </trkpt>
      <trkpt lat="40.615733" lon="-5.066633">
        <ele>1955.0</ele>
        <time>2014-06-30T12:58:35Z</time>
      </trkpt>
      <trkpt lat="40.615733" lon="-5.066667">
        <ele>1957.0</ele>
        <time>2014-06-30T12:58:36Z</time>
      </trkpt>
      <trkpt lat="40.615717" lon="-5.066683">
        <ele>1959.0</ele>
        <time>2014-06-30T12:58:37Z</time>
      </trkpt>
      <trkpt lat="40.615683" lon="-5.066683">
        <ele>1960.0</ele>
        <time>2014-06-30T12:58:38Z</time>
      </trkpt>
      <trkpt lat="40.615617" lon="-5.066650">
        <ele>1961.0</ele>
        <time>2014-06-30T12:58:39Z</time>
      </trkpt>
      <trkpt lat="40.615533" lon="-5.066583">
        <ele>1962.0</ele>
        <time>2014-06-30T12:58:40Z</time>
      </trkpt>
      <trkpt lat="40.615483" lon="-5.066433">
        <ele>1964.0</ele>
        <time>2014-06-30T12:58:41Z</time>
      </trkpt>
      <trkpt lat="40.615467" lon="-5.066250">
        <ele>1968.0</ele>
        <time>2014-06-30T12:58:42Z</time>
      </trkpt>
      <trkpt lat="40.615500" lon="-5.066067">
        <ele>1972.0</ele>
        <time>2014-06-30T12:58:43Z</time>
      </trkpt>
      <trkpt lat="40.615550" lon="-5.065900">
        <ele>1980.0</ele>
        <time>2014-06-30T12:58:44Z</time>
      </trkpt>
      <trkpt lat="40.615617" lon="-5.065767">
        <ele>1985.0</ele>
        <time>2014-06-30T12:58:45Z</time>
      </trkpt>
      <trkpt lat="40.615667" lon="-5.065633">
        <ele>1989.0</ele>
        <time>2014-06-30T12:58:46Z</time>
      </trkpt>
      <trkpt lat="40.615750" lon="-5.065517">
        <ele>1993.0</ele>
        <time>2014-06-30T12:58:47Z</time>
      </trkpt>
      <trkpt lat="40.615833" lon="-5.065433">
        <ele>1998.0</ele>
        <time>2014-06-30T12:58:48Z</time>
      </trkpt>
      <trkpt lat="40.615917" lon="-5.065400">
        <ele>2003.0</ele>
        <time>2014-06-30T12:58:49Z</time>
      </trkpt>
      <trkpt lat="40.615983" lon="-5.065383">
        <ele>2009.0</ele>
        <time>2014-06-30T12:58:50Z</time>
      </trkpt>
      <trkpt lat="40.616033" lon="-5.065383">
        <ele>2016.0</ele>
        <time>2014-06-30T12:58:51Z</time>
      </trkpt>
      <trkpt lat="40.616083" lon="-5.065383">
        <ele>2023.0</ele>
        <time>2014-06-30T12:58:52Z</time>
      </trkpt>
      <trkpt lat="40.616117" lon="-5.065383">
        <ele>2029.0</ele>
        <time>2014-06-30T12:58:53Z</time>
      </trkpt>
      <trkpt lat="40.616117" lon="-5.065417">
        <ele>2021.0</ele>
        <time>2014-06-30T12:58:54Z</time>
      </trkpt>
      <trkpt lat="40.616117" lon="-5.065433">
        <ele>2024.0</ele>
        <time>2014-06-30T12:58:55Z</time>
      </trkpt>
      <trkpt lat="40.616100" lon="-5.065483">
        <ele>2028.0</ele>
        <time>2014-06-30T12:58:56Z</time>
      </trkpt>
      <trkpt lat="40.616067" lon="-5.065517">
        <ele>2032.0</ele>
        <time>2014-06-30T12:58:57Z</time>
      </trkpt>
      <trkpt lat="40.616017" lon="-5.065467">
        <ele>2036.0</ele>
        <time>2014-06-30T12:58:58Z</time>
      </trkpt>
      <trkpt lat="40.615967" lon="-5.065350">
        <ele>2039.0</ele>
        <time>2014-06-30T12:58:59Z</time>
      </trkpt>
      <trkpt lat="40.615933" lon="-5.065150">
        <ele>2042.0</ele>
        <time>2014-06-30T12:59:00Z</time>
      </trkpt>
      <trkpt lat="40.615950" lon="-5.064933">
        <ele>2047.0</ele>
        <time>2014-06-30T12:59:01Z</time>
      </trkpt>
      <trkpt lat="40.616017" lon="-5.064767">
        <ele>2054.0</ele>
        <time>2014-06-30T12:59:02Z</time>
      </trkpt>
      <trkpt lat="40.616083" lon="-5.064633">
        <ele>2061.0</ele>
        <time>2014-06-30T12:59:03Z</time>
      </trkpt>
      <trkpt lat="40.616167" lon="-5.064567">
        <ele>2066.0</ele>
        <time>2014-06-30T12:59:04Z</time>
      </trkpt>
      <trkpt lat="40.616233" lon="-5.064533">
        <ele>2062.0</ele>
        <time>2014-06-30T12:59:05Z</time>
      </trkpt>
      <trkpt lat="40.616317" lon="-5.064500">
        <ele>2062.0</ele>
        <time>2014-06-30T12:59:06Z</time>
      </trkpt>
      <trkpt lat="40.616383" lon="-5.064467">
        <ele>2065.0</ele>
        <time>2014-06-30T12:59:07Z</time>
      </trkpt>
      <trkpt lat="40.616433" lon="-5.064467">
        <ele>2069.0</ele>
        <time>2014-06-30T12:59:08Z</time>
      </trkpt>
      <trkpt lat="40.616483" lon="-5.064467">
        <ele>2070.0</ele>
        <time>2014-06-30T12:59:09Z</time>
      </trkpt>
      <trkpt lat="40.616517" lon="-5.064500">
        <ele>2073.0</ele>
        <time>2014-06-30T12:59:10Z</time>
      </trkpt>
      <trkpt lat="40.616517" lon="-5.064567">
        <ele>2076.0</ele>
        <time>2014-06-30T12:59:11Z</time>
      </trkpt>
      <trkpt lat="40.616533" lon="-5.064633">
        <ele>2079.0</ele>
        <time>2014-06-30T12:59:12Z</time>
      </trkpt>
      <trkpt lat="40.616533" lon="-5.064667">
        <ele>2085.0</ele>
        <time>2014-06-30T12:59:13Z</time>
      </trkpt>
      <trkpt lat="40.616550" lon="-5.064667">
        <ele>2092.0</ele>
        <time>2014-06-30T12:59:14Z</time>
      </trkpt>
      <trkpt lat="40.616517" lon="-5.064650">
        <ele>2096.0</ele>
        <time>2014-06-30T12:59:15Z</time>
      </trkpt>
      <trkpt lat="40.616483" lon="-5.064633">
        <ele>2100.0</ele>
        <time>2014-06-30T12:59:16Z</time>
      </trkpt>
      <trkpt lat="40.616433" lon="-5.064583">
        <ele>2105.0</ele>
        <time>2014-06-30T12:59:17Z</time>
      </trkpt>
      <trkpt lat="40.616383" lon="-5.064517">
        <ele>2108.0</ele>
        <time>2014-06-30T12:59:18Z</time>
      </trkpt>
      <trkpt lat="40.616350" lon="-5.064400">
        <ele>2111.0</ele>
        <time>2014-06-30T12:59:19Z</time>
      </trkpt>
      <trkpt lat="40.616333" lon="-5.064233">
        <ele>2112.0</ele>
        <time>2014-06-30T12:59:20Z</time>
      </trkpt>
      <trkpt lat="40.616367" lon="-5.064050">
        <ele>2114.0</ele>
        <time>2014-06-30T12:59:21Z</time>
      </trkpt>
      <trkpt lat="40.616417" lon="-5.063883">
        <ele>2117.0</ele>
        <time>2014-06-30T12:59:22Z</time>
      </trkpt>
      <trkpt lat="40.616500" lon="-5.063750">
        <ele>2120.0</ele>
        <time>2014-06-30T12:59:23Z</time>
      </trkpt>
      <trkpt lat="40.616600" lon="-5.063617">
        <ele>2123.0</ele>
        <time>2014-06-30T12:59:24Z</time>
      </trkpt>
      <trkpt lat="40.616667" lon="-5.063500">
        <ele>2126.0</ele>
        <time>2014-06-30T12:59:25Z</time>
      </trkpt>
      <trkpt lat="40.616750" lon="-5.063417">
        <ele>2130.0</ele>
        <time>2014-06-30T12:59:26Z</time>
      </trkpt>
      <trkpt lat="40.616833" lon="-5.063317">
        <ele>2133.0</ele>
        <time>2014-06-30T12:59:27Z</time>
      </trkpt>
      <trkpt lat="40.616900" lon="-5.063233">
        <ele>2137.0</ele>
        <time>2014-06-30T12:59:28Z</time>
      </trkpt>
      <trkpt lat="40.616967" lon="-5.063167">
        <ele>2141.0</ele>
        <time>2014-06-30T12:59:29Z</time>
      </trkpt>
      <trkpt lat="40.617050" lon="-5.063117">
        <ele>2144.0</ele>
        <time>2014-06-30T12:59:30Z</time>
      </trkpt>
      <trkpt lat="40.617133" lon="-5.063117">
        <ele>2146.0</ele>
        <time>2014-06-30T12:59:31Z</time>
      </trkpt>
      <trkpt lat="40.617217" lon="-5.063133">
        <ele>2149.0</ele>
        <time>2014-06-30T12:59:32Z</time>
      </trkpt>
      <trkpt lat="40.617300" lon="-5.063167">
        <ele>2152.0</ele>
        <time>2014-06-30T12:59:33Z</time>
      </trkpt>
      <trkpt lat="40.617367" lon="-5.063183">
        <ele>2155.0</ele>
        <time>2014-06-30T12:59:34Z</time>
      </trkpt>
      <trkpt lat="40.617400" lon="-5.063233">
        <ele>2158.0</ele>
        <time>2014-06-30T12:59:35Z</time>
      </trkpt>
      <trkpt lat="40.617433" lon="-5.063267">
        <ele>2160.0</ele>
        <time>2014-06-30T12:59:36Z</time>
      </trkpt>
      <trkpt lat="40.617467" lon="-5.063300">
        <ele>2161.0</ele>
        <time>2014-06-30T12:59:37Z</time>
      </trkpt>
      <trkpt lat="40.617483" lon="-5.063350">
        <ele>2154.0</ele>
        <time>2014-06-30T12:59:38Z</time>
      </trkpt>
      <trkpt lat="40.617517" lon="-5.063383">
        <ele>2156.0</ele>
        <time>2014-06-30T12:59:39Z</time>
      </trkpt>
      <trkpt lat="40.617517" lon="-5.063433">
        <ele>2158.0</ele>
        <time>2014-06-30T12:59:40Z</time>
      </trkpt>
      <trkpt lat="40.617500" lon="-5.063450">
        <ele>2160.0</ele>
        <time>2014-06-30T12:59:41Z</time>
      </trkpt>
      <trkpt lat="40.617467" lon="-5.063450">
        <ele>2161.0</ele>
        <time>2014-06-30T12:59:42Z</time>
      </trkpt>
      <trkpt lat="40.617417" lon="-5.063433">
        <ele>2161.0</ele>
        <time>2014-06-30T12:59:43Z</time>
      </trkpt>
      <trkpt lat="40.617367" lon="-5.063417">
        <ele>2161.0</ele>
        <time>2014-06-30T12:59:44Z</time>
      </trkpt>
      <trkpt lat="40.617283" lon="-5.063383">
        <ele>2162.0</ele>
        <time>2014-06-30T12:59:45Z</time>
      </trkpt>
      <trkpt lat="40.617217" lon="-5.063300">
        <ele>2162.0</ele>
        <time>2014-06-30T12:59:46Z</time>
      </trkpt>
      <trkpt lat="40.617150" lon="-5.063183">
        <ele>2162.0</ele>
        <time>2014-06-30T12:59:47Z</time>
      </trkpt>
      <trkpt lat="40.617117" lon="-5.063050">
        <ele>2163.0</ele>
        <time>2014-06-30T12:59:48Z</time>
      </trkpt>
      <trkpt lat="40.617083" lon="-5.062917">
        <ele>2164.0</ele>
        <time>2014-06-30T12:59:49Z</time>
      </trkpt>
      <trkpt lat="40.617050" lon="-5.062767">
        <ele>2165.0</ele>
        <time>2014-06-30T12:59:50Z</time>
      </trkpt>
      <trkpt lat="40.617017" lon="-5.062633">
        <ele>2165.0</ele>
        <time>2014-06-30T12:59:51Z</time>
      </trkpt>
      <trkpt lat="40.616967" lon="-5.062483">
        <ele>2165.0</ele>
        <time>2014-06-30T12:59:52Z</time>
      </trkpt>
      <trkpt lat="40.616917" lon="-5.062317">
        <ele>2168.0</ele>
        <time>2014-06-30T12:59:53Z</time>
      </trkpt>
      <trkpt lat="40.616883" lon="-5.062183">
        <ele>2170.0</ele>
        <time>2014-06-30T12:59:54Z</time>
      </trkpt>
      <trkpt lat="40.616833" lon="-5.062050">
        <ele>2173.0</ele>
        <time>2014-06-30T12:59:55Z</time>
      </trkpt>
      <trkpt lat="40.616817" lon="-5.061917">
        <ele>2175.0</ele>
        <time>2014-06-30T12:59:56Z</time>
      </trkpt>
      <trkpt lat="40.616783" lon="-5.061783">
        <ele>2177.0</ele>
        <time>2014-06-30T12:59:57Z</time>
      </trkpt>
      <trkpt lat="40.616767" lon="-5.061633">
        <ele>2179.0</ele>
        <time>2014-06-30T12:59:58Z</time>
      </trkpt>
      <trkpt lat="40.616767" lon="-5.061467">
        <ele>2181.0</ele>
        <time>2014-06-30T12:59:59Z</time>
      </trkpt>
      <trkpt lat="40.616767" lon="-5.061300">
        <ele>2184.0</ele>
        <time>2014-06-30T13:00:00Z</time>
      </trkpt>
      <trkpt lat="40.616800" lon="-5.061133">
        <ele>2187.0</ele>
        <time>2014-06-30T13:00:01Z</time>
      </trkpt>
      <trkpt lat="40.616850" lon="-5.060983">
        <ele>2189.0</ele>
        <time>2014-06-30T13:00:02Z</time>
      </trkpt>
      <trkpt lat="40.616900" lon="-5.060833">
        <ele>2192.0</ele>
        <time>2014-06-30T13:00:03Z</time>
      </trkpt>
      <trkpt lat="40.616967" lon="-5.060700">
        <ele>2195.0</ele>
        <time>2014-06-30T13:00:04Z</time>
      </trkpt>
      <trkpt lat="40.617050" lon="-5.060550">
        <ele>2198.0</ele>
        <time>2014-06-30T13:00:05Z</time>
      </trkpt>
      <trkpt lat="40.617133" lon="-5.060433">
        <ele>2201.0</ele>
        <time>2014-06-30T13:00:06Z</time>
      </trkpt>
      <trkpt lat="40.617217" lon="-5.060350">
        <ele>2204.0</ele>
        <time>2014-06-30T13:00:07Z</time>
      </trkpt>
      <trkpt lat="40.617317" lon="-5.060267">
        <ele>2207.0</ele>
        <time>2014-06-30T13:00:08Z</time>
      </trkpt>
      <trkpt lat="40.617400" lon="-5.060200">
        <ele>2211.0</ele>
        <time>2014-06-30T13:00:09Z</time>
      </trkpt>
      <trkpt lat="40.617500" lon="-5.060150">
        <ele>2214.0</ele>
        <time>2014-06-30T13:00:10Z</time>
      </trkpt>
      <trkpt lat="40.617583" lon="-5.060117">
        <ele>2217.0</ele>
        <time>2014-06-30T13:00:11Z</time>
      </trkpt>
      <trkpt lat="40.617667" lon="-5.060133">
        <ele>2211.0</ele>
        <time>2014-06-30T13:00:12Z</time>
      </trkpt>
      <trkpt lat="40.617700" lon="-5.060183">
        <ele>2210.0</ele>
        <time>2014-06-30T13:00:13Z</time>
      </trkpt>
      <trkpt lat="40.617733" lon="-5.060233">
        <ele>2211.0</ele>
        <time>2014-06-30T13:00:14Z</time>
      </trkpt>
      <trkpt lat="40.617733" lon="-5.060283">
        <ele>2213.0</ele>
        <time>2014-06-30T13:00:15Z</time>
      </trkpt>
      <trkpt lat="40.617717" lon="-5.060300">
        <ele>2216.0</ele>
        <time>2014-06-30T13:00:16Z</time>
      </trkpt>
      <trkpt lat="40.617683" lon="-5.060300">
        <ele>2219.0</ele>
        <time>2014-06-30T13:00:17Z</time>
      </trkpt>
      <trkpt lat="40.617650" lon="-5.060267">
        <ele>2221.0</ele>
        <time>2014-06-30T13:00:18Z</time>
      </trkpt>
      <trkpt lat="40.617617" lon="-5.060217">
        <ele>2224.0</ele>
        <time>2014-06-30T13:00:19Z</time>
      </trkpt>
      <trkpt lat="40.617583" lon="-5.060150">
        <ele>2225.0</ele>
        <time>2014-06-30T13:00:20Z</time>
      </trkpt>
      <trkpt lat="40.617533" lon="-5.060050">
        <ele>2227.0</ele>
        <time>2014-06-30T13:00:21Z</time>
      </trkpt>
      <trkpt lat="40.617500" lon="-5.059900">
        <ele>2230.0</ele>
        <time>2014-06-30T13:00:22Z</time>
      </trkpt>
      <trkpt lat="40.617483" lon="-5.059750">
        <ele>2234.0</ele>
        <time>2014-06-30T13:00:23Z</time>
      </trkpt>
      <trkpt lat="40.617500" lon="-5.059600">
        <ele>2237.0</ele>
        <time>2014-06-30T13:00:24Z</time>
      </trkpt>
      <trkpt lat="40.617517" lon="-5.059467">
        <ele>2240.0</ele>
        <time>2014-06-30T13:00:25Z</time>
      </trkpt>
      <trkpt lat="40.617533" lon="-5.059317">
        <ele>2243.0</ele>
        <time>2014-06-30T13:00:26Z</time>
      </trkpt>
      <trkpt lat="40.617550" lon="-5.059183">
        <ele>2246.0</ele>
        <time>2014-06-30T13:00:27Z</time>
      </trkpt>
      <trkpt lat="40.617583" lon="-5.059033">
        <ele>2249.0</ele>
        <time>2014-06-30T13:00:28Z</time>
      </trkpt>
      <trkpt lat="40.617650" lon="-5.058900">
        <ele>2251.0</ele>
        <time>2014-06-30T13:00:29Z</time>
      </trkpt>
      <trkpt lat="40.617717" lon="-5.058750">
        <ele>2253.0</ele>
        <time>2014-06-30T13:00:30Z</time>
      </trkpt>
      <trkpt lat="40.617800" lon="-5.058617">
        <ele>2255.0</ele>
        <time>2014-06-30T13:00:31Z</time>
      </trkpt>
      <trkpt lat="40.617900" lon="-5.058500">
        <ele>2257.0</ele>
        <time>2014-06-30T13:00:32Z</time>
      </trkpt>
      <trkpt lat="40.618000" lon="-5.058417">
        <ele>2260.0</ele>
        <time>2014-06-30T13:00:33Z</time>
      </trkpt>
      <trkpt lat="40.618117" lon="-5.058350">
        <ele>2263.0</ele>
        <time>2014-06-30T13:00:34Z</time>
      </trkpt>
      <trkpt lat="40.618233" lon="-5.058333">
        <ele>2265.0</ele>
        <time>2014-06-30T13:00:35Z</time>
      </trkpt>
      <trkpt lat="40.618333" lon="-5.058350">
        <ele>2267.0</ele>
        <time>2014-06-30T13:00:36Z</time>
      </trkpt>
      <trkpt lat="40.618400" lon="-5.058383">
        <ele>2271.0</ele>
        <time>2014-06-30T13:00:37Z</time>
      </trkpt>
      <trkpt lat="40.618467" lon="-5.058417">
        <ele>2275.0</ele>
        <time>2014-06-30T13:00:38Z</time>
      </trkpt>
      <trkpt lat="40.618517" lon="-5.058433">
        <ele>2278.0</ele>
        <time>2014-06-30T13:00:39Z</time>
      </trkpt>
      <trkpt lat="40.618567" lon="-5.058433">
        <ele>2280.0</ele>
        <time>2014-06-30T13:00:40Z</time>
      </trkpt>
      <trkpt lat="40.618600" lon="-5.058467">
        <ele>2282.0</ele>
        <time>2014-06-30T13:00:41Z</time>
      </trkpt>
      <trkpt lat="40.618617" lon="-5.058517">
        <ele>2283.0</ele>
        <time>2014-06-30T13:00:42Z</time>
      </trkpt>
      <trkpt lat="40.618617" lon="-5.058567">
        <ele>2284.0</ele>
        <time>2014-06-30T13:00:43Z</time>
      </trkpt>
      <trkpt lat="40.618600" lon="-5.058600">
        <ele>2288.0</ele>
        <time>2014-06-30T13:00:44Z</time>
      </trkpt>
      <trkpt lat="40.618583" lon="-5.058583">
        <ele>2290.0</ele>
        <time>2014-06-30T13:00:45Z</time>
      </trkpt>
      <trkpt lat="40.618567" lon="-5.058550">
        <ele>2293.0</ele>
        <time>2014-06-30T13:00:46Z</time>
      </trkpt>
      <trkpt lat="40.618533" lon="-5.058517">
        <ele>2294.0</ele>
        <time>2014-06-30T13:00:47Z</time>
      </trkpt>
      <trkpt lat="40.618517" lon="-5.058500">
        <ele>2293.0</ele>
        <time>2014-06-30T13:00:48Z</time>
      </trkpt>
      <trkpt lat="40.618467" lon="-5.058450">
        <ele>2293.0</ele>
        <time>2014-06-30T13:00:49Z</time>
      </trkpt>
      <trkpt lat="40.618433" lon="-5.058383">
        <ele>2294.0</ele>
        <time>2014-06-30T13:00:50Z</time>
      </trkpt>
      <trkpt lat="40.618400" lon="-5.058267">
        <ele>2294.0</ele>
        <time>2014-06-30T13:00:51Z</time>
      </trkpt>
      <trkpt lat="40.618367" lon="-5.058150">
        <ele>2295.0</ele>
        <time>2014-06-30T13:00:52Z</time>
      </trkpt>
      <trkpt lat="40.618350" lon="-5.058017">
        <ele>2296.0</ele>
        <time>2014-06-30T13:00:53Z</time>
      </trkpt>
      <trkpt lat="40.618333" lon="-5.057867">
        <ele>2297.0</ele>
        <time>2014-06-30T13:00:54Z</time>
      </trkpt>
      <trkpt lat="40.618350" lon="-5.057717">
        <ele>2299.0</ele>
        <time>2014-06-30T13:00:55Z</time>
      </trkpt>
      <trkpt lat="40.618383" lon="-5.057567">
        <ele>2301.0</ele>
        <time>2014-06-30T13:00:56Z</time>
      </trkpt>
      <trkpt lat="40.618433" lon="-5.057400">
        <ele>2303.0</ele>
        <time>2014-06-30T13:00:57Z</time>
      </trkpt>
      <trkpt lat="40.618500" lon="-5.057250">
        <ele>2305.0</ele>
        <time>2014-06-30T13:00:58Z</time>
      </trkpt>
      <trkpt lat="40.618600" lon="-5.057117">
        <ele>2308.0</ele>
        <time>2014-06-30T13:00:59Z</time>
      </trkpt>
      <trkpt lat="40.618683" lon="-5.057017">
        <ele>2311.0</ele>
        <time>2014-06-30T13:01:00Z</time>
      </trkpt>
      <trkpt lat="40.618767" lon="-5.056900">
        <ele>2313.0</ele>
        <time>2014-06-30T13:01:01Z</time>
      </trkpt>
      <trkpt lat="40.618867" lon="-5.056800">
        <ele>2315.0</ele>
        <time>2014-06-30T13:01:02Z</time>
      </trkpt>
      <trkpt lat="40.619000" lon="-5.056750">
        <ele>2314.0</ele>
        <time>2014-06-30T13:01:03Z</time>
      </trkpt>
      <trkpt lat="40.619117" lon="-5.056717">
        <ele>2313.0</ele>
        <time>2014-06-30T13:01:04Z</time>
      </trkpt>
      <trkpt lat="40.619217" lon="-5.056717">
        <ele>2313.0</ele>
        <time>2014-06-30T13:01:05Z</time>
      </trkpt>
      <trkpt lat="40.619300" lon="-5.056733">
        <ele>2314.0</ele>
        <time>2014-06-30T13:01:06Z</time>
      </trkpt>
      <trkpt lat="40.619383" lon="-5.056767">
        <ele>2314.0</ele>
        <time>2014-06-30T13:01:07Z</time>
      </trkpt>
      <trkpt lat="40.619467" lon="-5.056833">
        <ele>2313.0</ele>
        <time>2014-06-30T13:01:08Z</time>
      </trkpt>
      <trkpt lat="40.619517" lon="-5.056883">
        <ele>2312.0</ele>
        <time>2014-06-30T13:01:09Z</time>
      </trkpt>
      <trkpt lat="40.619583" lon="-5.056917">
        <ele>2312.0</ele>
        <time>2014-06-30T13:01:10Z</time>
      </trkpt>
      <trkpt lat="40.619617" lon="-5.056950">
        <ele>2312.0</ele>
        <time>2014-06-30T13:01:11Z</time>
      </trkpt>
      <trkpt lat="40.619633" lon="-5.057000">
        <ele>2313.0</ele>
        <time>2014-06-30T13:01:12Z</time>
      </trkpt>
      <trkpt lat="40.619650" lon="-5.057033">
        <ele>2313.0</ele>
        <time>2014-06-30T13:01:13Z</time>
      </trkpt>
      <trkpt lat="40.619650" lon="-5.057050">
        <ele>2313.0</ele>
        <time>2014-06-30T13:01:14Z</time>
      </trkpt>
      <trkpt lat="40.619650" lon="-5.057067">
        <ele>2314.0</ele>
        <time>2014-06-30T13:01:15Z</time>
      </trkpt>
      <trkpt lat="40.619650" lon="-5.057083">
        <ele>2314.0</ele>
        <time>2014-06-30T13:01:16Z</time>
      </trkpt>
      <trkpt lat="40.619633" lon="-5.057083">
        <ele>2314.0</ele>
        <time>2014-06-30T13:01:17Z</time>
      </trkpt>
      <trkpt lat="40.619583" lon="-5.057083">
        <ele>2314.0</ele>
        <time>2014-06-30T13:01:18Z</time>
      </trkpt>
      <trkpt lat="40.619550" lon="-5.057067">
        <ele>2314.0</ele>
        <time>2014-06-30T13:01:19Z</time>
      </trkpt>
      <trkpt lat="40.619517" lon="-5.057050">
        <ele>2314.0</ele>
        <time>2014-06-30T13:01:20Z</time>
      </trkpt>
      <trkpt lat="40.619483" lon="-5.057000">
        <ele>2314.0</ele>
        <time>2014-06-30T13:01:21Z</time>
      </trkpt>
      <trkpt lat="40.619450" lon="-5.056933">
        <ele>2314.0</ele>
        <time>2014-06-30T13:01:22Z</time>
      </trkpt>
      <trkpt lat="40.619417" lon="-5.056817">
        <ele>2314.0</ele>
        <time>2014-06-30T13:01:23Z</time>
      </trkpt>
      <trkpt lat="40.619367" lon="-5.056700">
        <ele>2312.0</ele>
        <time>2014-06-30T13:01:24Z</time>
      </trkpt>
      <trkpt lat="40.619300" lon="-5.056567">
        <ele>2312.0</ele>
        <time>2014-06-30T13:01:25Z</time>
      </trkpt>
      <trkpt lat="40.619250" lon="-5.056467">
        <ele>2311.0</ele>
        <time>2014-06-30T13:01:26Z</time>
      </trkpt>
      <trkpt lat="40.619183" lon="-5.056350">
        <ele>2312.0</ele>
        <time>2014-06-30T13:01:27Z</time>
      </trkpt>
      <trkpt lat="40.619150" lon="-5.056233">
        <ele>2314.0</ele>
        <time>2014-06-30T13:01:28Z</time>
      </trkpt>
      <trkpt lat="40.619133" lon="-5.056117">
        <ele>2316.0</ele>
        <time>2014-06-30T13:01:29Z</time>
      </trkpt>
      <trkpt lat="40.619133" lon="-5.055983">
        <ele>2318.0</ele>
        <time>2014-06-30T13:01:30Z</time>
      </trkpt>
      <trkpt lat="40.619150" lon="-5.055850">
        <ele>2319.0</ele>
        <time>2014-06-30T13:01:31Z</time>
      </trkpt>
      <trkpt lat="40.619167" lon="-5.055700">
        <ele>2321.0</ele>
        <time>2014-06-30T13:01:32Z</time>
      </trkpt>
      <trkpt lat="40.619167" lon="-5.055567">
        <ele>2323.0</ele>
        <time>2014-06-30T13:01:33Z</time>
      </trkpt>
      <trkpt lat="40.619200" lon="-5.055417">
        <ele>2325.0</ele>
        <time>2014-06-30T13:01:34Z</time>
      </trkpt>
      <trkpt lat="40.619250" lon="-5.055283">
        <ele>2327.0</ele>
        <time>2014-06-30T13:01:35Z</time>
      </trkpt>
      <trkpt lat="40.619333" lon="-5.055150">
        <ele>2328.0</ele>
        <time>2014-06-30T13:01:36Z</time>
      </trkpt>
      <trkpt lat="40.619433" lon="-5.055050">
        <ele>2327.0</ele>
        <time>2014-06-30T13:01:37Z</time>
      </trkpt>
      <trkpt lat="40.619550" lon="-5.054933">
        <ele>2327.0</ele>
        <time>2014-06-30T13:01:38Z</time>
      </trkpt>
      <trkpt lat="40.619683" lon="-5.054833">
        <ele>2326.0</ele>
        <time>2014-06-30T13:01:39Z</time>
      </trkpt>
      <trkpt lat="40.619800" lon="-5.054733">
        <ele>2326.0</ele>
        <time>2014-06-30T13:01:40Z</time>
      </trkpt>
      <trkpt lat="40.619933" lon="-5.054633">
        <ele>2326.0</ele>
        <time>2014-06-30T13:01:41Z</time>
      </trkpt>
      <trkpt lat="40.620067" lon="-5.054550">
        <ele>2326.0</ele>
        <time>2014-06-30T13:01:42Z</time>
      </trkpt>
      <trkpt lat="40.620183" lon="-5.054467">
        <ele>2326.0</ele>
        <time>2014-06-30T13:01:43Z</time>
      </trkpt>
      <trkpt lat="40.620317" lon="-5.054400">
        <ele>2326.0</ele>
        <time>2014-06-30T13:01:44Z</time>
      </trkpt>
      <trkpt lat="40.620433" lon="-5.054350">
        <ele>2327.0</ele>
        <time>2014-06-30T13:01:45Z</time>
      </trkpt>
      <trkpt lat="40.620550" lon="-5.054317">
        <ele>2328.0</ele>
        <time>2014-06-30T13:01:46Z</time>
      </trkpt>
      <trkpt lat="40.620633" lon="-5.054300">
        <ele>2329.0</ele>
        <time>2014-06-30T13:01:47Z</time>
      </trkpt>
      <trkpt lat="40.620717" lon="-5.054300">
        <ele>2329.0</ele>
        <time>2014-06-30T13:01:48Z</time>
      </trkpt>
      <trkpt lat="40.620800" lon="-5.054333">
        <ele>2328.0</ele>
        <time>2014-06-30T13:01:49Z</time>
      </trkpt>
      <trkpt lat="40.620850" lon="-5.054367">
        <ele>2328.0</ele>
        <time>2014-06-30T13:01:50Z</time>
      </trkpt>
      <trkpt lat="40.620883" lon="-5.054417">
        <ele>2328.0</ele>
        <time>2014-06-30T13:01:51Z</time>
      </trkpt>
      <trkpt lat="40.620917" lon="-5.054483">
        <ele>2327.0</ele>
        <time>2014-06-30T13:01:52Z</time>
      </trkpt>
      <trkpt lat="40.620933" lon="-5.054533">
        <ele>2327.0</ele>
        <time>2014-06-30T13:01:53Z</time>
      </trkpt>
      <trkpt lat="40.620950" lon="-5.054600">
        <ele>2327.0</ele>
        <time>2014-06-30T13:01:54Z</time>
      </trkpt>
      <trkpt lat="40.620950" lon="-5.054650">
        <ele>2328.0</ele>
        <time>2014-06-30T13:01:55Z</time>
      </trkpt>
      <trkpt lat="40.620950" lon="-5.054717">
        <ele>2328.0</ele>
        <time>2014-06-30T13:01:56Z</time>
      </trkpt>
      <trkpt lat="40.620933" lon="-5.054767">
        <ele>2328.0</ele>
        <time>2014-06-30T13:01:57Z</time>
      </trkpt>
      <trkpt lat="40.620917" lon="-5.054817">
        <ele>2327.0</ele>
        <time>2014-06-30T13:01:58Z</time>
      </trkpt>
      <trkpt lat="40.620900" lon="-5.054850">
        <ele>2326.0</ele>
        <time>2014-06-30T13:01:59Z</time>
      </trkpt>
      <trkpt lat="40.620867" lon="-5.054883">
        <ele>2327.0</ele>
        <time>2014-06-30T13:02:00Z</time>
      </trkpt>
      <trkpt lat="40.620833" lon="-5.054900">
        <ele>2326.0</ele>
        <time>2014-06-30T13:02:01Z</time>
      </trkpt>
      <trkpt lat="40.620783" lon="-5.054917">
        <ele>2326.0</ele>
        <time>2014-06-30T13:02:02Z</time>
      </trkpt>
      <trkpt lat="40.620733" lon="-5.054933">
        <ele>2325.0</ele>
        <time>2014-06-30T13:02:03Z</time>
      </trkpt>
      <trkpt lat="40.620683" lon="-5.054933">
        <ele>2325.0</ele>
        <time>2014-06-30T13:02:04Z</time>
      </trkpt>
      <trkpt lat="40.620633" lon="-5.054917">
        <ele>2324.0</ele>
        <time>2014-06-30T13:02:05Z</time>
      </trkpt>
      <trkpt lat="40.620583" lon="-5.054883">
        <ele>2323.0</ele>
        <time>2014-06-30T13:02:06Z</time>
      </trkpt>
      <trkpt lat="40.620533" lon="-5.054867">
        <ele>2320.0</ele>
        <time>2014-06-30T13:02:07Z</time>
      </trkpt>
      <trkpt lat="40.620483" lon="-5.054850">
        <ele>2319.0</ele>
        <time>2014-06-30T13:02:08Z</time>
      </trkpt>
      <trkpt lat="40.620433" lon="-5.054850">
        <ele>2318.0</ele>
        <time>2014-06-30T13:02:09Z</time>
      </trkpt>
      <trkpt lat="40.620383" lon="-5.054817">
        <ele>2318.0</ele>
        <time>2014-06-30T13:02:10Z</time>
      </trkpt>
      <trkpt lat="40.620333" lon="-5.054783">
        <ele>2317.0</ele>
        <time>2014-06-30T13:02:11Z</time>
      </trkpt>
      <trkpt lat="40.620267" lon="-5.054733">
        <ele>2317.0</ele>
        <time>2014-06-30T13:02:12Z</time>
      </trkpt>
      <trkpt lat="40.620200" lon="-5.054667">
        <ele>2316.0</ele>
        <time>2014-06-30T13:02:13Z</time>
      </trkpt>
      <trkpt lat="40.620117" lon="-5.054617">
        <ele>2316.0</ele>
        <time>2014-06-30T13:02:14Z</time>
      </trkpt>
      <trkpt lat="40.620033" lon="-5.054567">
        <ele>2316.0</ele>
        <time>2014-06-30T13:02:15Z</time>
      </trkpt>
      <trkpt lat="40.619950" lon="-5.054517">
        <ele>2315.0</ele>
        <time>2014-06-30T13:02:16Z</time>
      </trkpt>
      <trkpt lat="40.619867" lon="-5.054467">
        <ele>2314.0</ele>
        <time>2014-06-30T13:02:17Z</time>
      </trkpt>
      <trkpt lat="40.619783" lon="-5.054400">
        <ele>2314.0</ele>
        <time>2014-06-30T13:02:18Z</time>
      </trkpt>
      <trkpt lat="40.619700" lon="-5.054350">
        <ele>2313.0</ele>
        <time>2014-06-30T13:02:19Z</time>
      </trkpt>
      <trkpt lat="40.619617" lon="-5.054283">
        <ele>2313.0</ele>
        <time>2014-06-30T13:02:20Z</time>
      </trkpt>
      <trkpt lat="40.619533" lon="-5.054200">
        <ele>2312.0</ele>
        <time>2014-06-30T13:02:21Z</time>
      </trkpt>
      <trkpt lat="40.619450" lon="-5.054133">
        <ele>2312.0</ele>
        <time>2014-06-30T13:02:22Z</time>
      </trkpt>
      <trkpt lat="40.619367" lon="-5.054067">
        <ele>2312.0</ele>
        <time>2014-06-30T13:02:23Z</time>
      </trkpt>
      <trkpt lat="40.619300" lon="-5.054000">
        <ele>2313.0</ele>
        <time>2014-06-30T13:02:24Z</time>
      </trkpt>
      <trkpt lat="40.619250" lon="-5.053950">
        <ele>2314.0</ele>
        <time>2014-06-30T13:02:25Z</time>
      </trkpt>
      <trkpt lat="40.619200" lon="-5.053900">
        <ele>2315.0</ele>
        <time>2014-06-30T13:02:26Z</time>
      </trkpt>
      <trkpt lat="40.619167" lon="-5.053850">
        <ele>2315.0</ele>
        <time>2014-06-30T13:02:27Z</time>
      </trkpt>
      <trkpt lat="40.619133" lon="-5.053783">
        <ele>2315.0</ele>
        <time>2014-06-30T13:02:28Z</time>
      </trkpt>
      <trkpt lat="40.619083" lon="-5.053733">
        <ele>2314.0</ele>
        <time>2014-06-30T13:02:29Z</time>
      </trkpt>
      <trkpt lat="40.619033" lon="-5.053667">
        <ele>2313.0</ele>
        <time>2014-06-30T13:02:30Z</time>
      </trkpt>
      <trkpt lat="40.618983" lon="-5.053583">
        <ele>2314.0</ele>
        <time>2014-06-30T13:02:31Z</time>
      </trkpt>
      <trkpt lat="40.618933" lon="-5.053467">
        <ele>2314.0</ele>
        <time>2014-06-30T13:02:32Z</time>
      </trkpt>
      <trkpt lat="40.618917" lon="-5.053367">
        <ele>2315.0</ele>
        <time>2014-06-30T13:02:33Z</time>
      </trkpt>
      <trkpt lat="40.618917" lon="-5.053233">
        <ele>2315.0</ele>
        <time>2014-06-30T13:02:34Z</time>
      </trkpt>
      <trkpt lat="40.618917" lon="-5.053100">
        <ele>2315.0</ele>
        <time>2014-06-30T13:02:35Z</time>
      </trkpt>
      <trkpt lat="40.618900" lon="-5.052967">
        <ele>2315.0</ele>
        <time>2014-06-30T13:02:36Z</time>
      </trkpt>
      <trkpt lat="40.618883" lon="-5.052833">
        <ele>2316.0</ele>
        <time>2014-06-30T13:02:37Z</time>
      </trkpt>
      <trkpt lat="40.618883" lon="-5.052683">
        <ele>2318.0</ele>
        <time>2014-06-30T13:02:38Z</time>
      </trkpt>
      <trkpt lat="40.618883" lon="-5.052550">
        <ele>2321.0</ele>
        <time>2014-06-30T13:02:39Z</time>
      </trkpt>
      <trkpt lat="40.618900" lon="-5.052433">
        <ele>2324.0</ele>
        <time>2014-06-30T13:02:40Z</time>
      </trkpt>
      <trkpt lat="40.618917" lon="-5.052300">
        <ele>2326.0</ele>
        <time>2014-06-30T13:02:41Z</time>
      </trkpt>
      <trkpt lat="40.618917" lon="-5.052167">
        <ele>2327.0</ele>
        <time>2014-06-30T13:02:42Z</time>
      </trkpt>
      <trkpt lat="40.618933" lon="-5.052017">
        <ele>2328.0</ele>
        <time>2014-06-30T13:02:43Z</time>
      </trkpt>
      <trkpt lat="40.618967" lon="-5.051850">
        <ele>2329.0</ele>
        <time>2014-06-30T13:02:44Z</time>
      </trkpt>
      <trkpt lat="40.619033" lon="-5.051717">
        <ele>2330.0</ele>
        <time>2014-06-30T13:02:45Z</time>
      </trkpt>
      <trkpt lat="40.619117" lon="-5.051600">
        <ele>2332.0</ele>
        <time>2014-06-30T13:02:46Z</time>
      </trkpt>
      <trkpt lat="40.619217" lon="-5.051500">
        <ele>2334.0</ele>
        <time>2014-06-30T13:02:47Z</time>
      </trkpt>
      <trkpt lat="40.619317" lon="-5.051467">
        <ele>2336.0</ele>
        <time>2014-06-30T13:02:48Z</time>
      </trkpt>
      <trkpt lat="40.619400" lon="-5.051450">
        <ele>2338.0</ele>
        <time>2014-06-30T13:02:49Z</time>
      </trkpt>
      <trkpt lat="40.619483" lon="-5.051467">
        <ele>2340.0</ele>
        <time>2014-06-30T13:02:50Z</time>
      </trkpt>
      <trkpt lat="40.619533" lon="-5.051500">
        <ele>2342.0</ele>
        <time>2014-06-30T13:02:51Z</time>
      </trkpt>
      <trkpt lat="40.619567" lon="-5.051533">
        <ele>2344.0</ele>
        <time>2014-06-30T13:02:52Z</time>
      </trkpt>
      <trkpt lat="40.619567" lon="-5.051583">
        <ele>2345.0</ele>
        <time>2014-06-30T13:02:53Z</time>
      </trkpt>
      <trkpt lat="40.619533" lon="-5.051600">
        <ele>2346.0</ele>
        <time>2014-06-30T13:02:54Z</time>
      </trkpt>
      <trkpt lat="40.619483" lon="-5.051600">
        <ele>2347.0</ele>
        <time>2014-06-30T13:02:55Z</time>
      </trkpt>
      <trkpt lat="40.619433" lon="-5.051583">
        <ele>2349.0</ele>
        <time>2014-06-30T13:02:56Z</time>
      </trkpt>
      <trkpt lat="40.619383" lon="-5.051517">
        <ele>2350.0</ele>
        <time>2014-06-30T13:02:57Z</time>
      </trkpt>
      <trkpt lat="40.619333" lon="-5.051433">
        <ele>2353.0</ele>
        <time>2014-06-30T13:02:58Z</time>
      </trkpt>
      <trkpt lat="40.619317" lon="-5.051317">
        <ele>2354.0</ele>
        <time>2014-06-30T13:02:59Z</time>
      </trkpt>
      <trkpt lat="40.619317" lon="-5.051167">
        <ele>2355.0</ele>
        <time>2014-06-30T13:03:00Z</time>
      </trkpt>
      <trkpt lat="40.619350" lon="-5.051017">
        <ele>2355.0</ele>
        <time>2014-06-30T13:03:01Z</time>
      </trkpt>
      <trkpt lat="40.619417" lon="-5.050867">
        <ele>2356.0</ele>
        <time>2014-06-30T13:03:02Z</time>
      </trkpt>
      <trkpt lat="40.619517" lon="-5.050750">
        <ele>2356.0</ele>
        <time>2014-06-30T13:03:03Z</time>
      </trkpt>
      <trkpt lat="40.619617" lon="-5.050667">
        <ele>2358.0</ele>
        <time>2014-06-30T13:03:04Z</time>
      </trkpt>
      <trkpt lat="40.619717" lon="-5.050600">
        <ele>2360.0</ele>
        <time>2014-06-30T13:03:05Z</time>
      </trkpt>
      <trkpt lat="40.619800" lon="-5.050550">
        <ele>2363.0</ele>
        <time>2014-06-30T13:03:06Z</time>
      </trkpt>
      <trkpt lat="40.619867" lon="-5.050500">
        <ele>2365.0</ele>
        <time>2014-06-30T13:03:07Z</time>
      </trkpt>
      <trkpt lat="40.619950" lon="-5.050483">
        <ele>2362.0</ele>
        <time>2014-06-30T13:03:08Z</time>
      </trkpt>
      <trkpt lat="40.620033" lon="-5.050467">
        <ele>2363.0</ele>
        <time>2014-06-30T13:03:09Z</time>
      </trkpt>
      <trkpt lat="40.620133" lon="-5.050483">
        <ele>2364.0</ele>
        <time>2014-06-30T13:03:10Z</time>
      </trkpt>
      <trkpt lat="40.620200" lon="-5.050517">
        <ele>2366.0</ele>
        <time>2014-06-30T13:03:11Z</time>
      </trkpt>
      <trkpt lat="40.620250" lon="-5.050567">
        <ele>2368.0</ele>
        <time>2014-06-30T13:03:12Z</time>
      </trkpt>
      <trkpt lat="40.620267" lon="-5.050617">
        <ele>2370.0</ele>
        <time>2014-06-30T13:03:13Z</time>
      </trkpt>
      <trkpt lat="40.620300" lon="-5.050650">
        <ele>2371.0</ele>
        <time>2014-06-30T13:03:14Z</time>
      </trkpt>
      <trkpt lat="40.620317" lon="-5.050683">
        <ele>2373.0</ele>
        <time>2014-06-30T13:03:15Z</time>
      </trkpt>
      <trkpt lat="40.620317" lon="-5.050717">
        <ele>2373.0</ele>
        <time>2014-06-30T13:03:16Z</time>
      </trkpt>
      <trkpt lat="40.620300" lon="-5.050750">
        <ele>2372.0</ele>
        <time>2014-06-30T13:03:17Z</time>
      </trkpt>
      <trkpt lat="40.620267" lon="-5.050767">
        <ele>2371.0</ele>
        <time>2014-06-30T13:03:18Z</time>
      </trkpt>
      <trkpt lat="40.620217" lon="-5.050767">
        <ele>2371.0</ele>
        <time>2014-06-30T13:03:19Z</time>
      </trkpt>
      <trkpt lat="40.620150" lon="-5.050700">
        <ele>2370.0</ele>
        <time>2014-06-30T13:03:20Z</time>
      </trkpt>
      <trkpt lat="40.620100" lon="-5.050583">
        <ele>2370.0</ele>
        <time>2014-06-30T13:03:21Z</time>
      </trkpt>
      <trkpt lat="40.620083" lon="-5.050433">
        <ele>2371.0</ele>
        <time>2014-06-30T13:03:22Z</time>
      </trkpt>
      <trkpt lat="40.620100" lon="-5.050283">
        <ele>2372.0</ele>
        <time>2014-06-30T13:03:23Z</time>
      </trkpt>
      <trkpt lat="40.620167" lon="-5.050133">
        <ele>2373.0</ele>
        <time>2014-06-30T13:03:24Z</time>
      </trkpt>
      <trkpt lat="40.620233" lon="-5.050017">
        <ele>2374.0</ele>
        <time>2014-06-30T13:03:25Z</time>
      </trkpt>
      <trkpt lat="40.620317" lon="-5.049900">
        <ele>2375.0</ele>
        <time>2014-06-30T13:03:26Z</time>
      </trkpt>
      <trkpt lat="40.620383" lon="-5.049783">
        <ele>2376.0</ele>
        <time>2014-06-30T13:03:27Z</time>
      </trkpt>
      <trkpt lat="40.620450" lon="-5.049650">
        <ele>2377.0</ele>
        <time>2014-06-30T13:03:28Z</time>
      </trkpt>
      <trkpt lat="40.620550" lon="-5.049533">
        <ele>2378.0</ele>
        <time>2014-06-30T13:03:29Z</time>
      </trkpt>
      <trkpt lat="40.620633" lon="-5.049417">
        <ele>2380.0</ele>
        <time>2014-06-30T13:03:30Z</time>
      </trkpt>
      <trkpt lat="40.620717" lon="-5.049317">
        <ele>2381.0</ele>
        <time>2014-06-30T13:03:31Z</time>
      </trkpt>
      <trkpt lat="40.620800" lon="-5.049217">
        <ele>2383.0</ele>
        <time>2014-06-30T13:03:32Z</time>
      </trkpt>
      <trkpt lat="40.620867" lon="-5.049117">
        <ele>2385.0</ele>
        <time>2014-06-30T13:03:33Z</time>
      </trkpt>
      <trkpt lat="40.620950" lon="-5.049017">
        <ele>2387.0</ele>
        <time>2014-06-30T13:03:34Z</time>
      </trkpt>
      <trkpt lat="40.621017" lon="-5.048900">
        <ele>2388.0</ele>
        <time>2014-06-30T13:03:35Z</time>
      </trkpt>
      <trkpt lat="40.621083" lon="-5.048817">
        <ele>2389.0</ele>
        <time>2014-06-30T13:03:36Z</time>
      </trkpt>
      <trkpt lat="40.621167" lon="-5.048717">
        <ele>2389.0</ele>
        <time>2014-06-30T13:03:37Z</time>
      </trkpt>
      <trkpt lat="40.621250" lon="-5.048600">
        <ele>2389.0</ele>
        <time>2014-06-30T13:03:38Z</time>
      </trkpt>
      <trkpt lat="40.621350" lon="-5.048500">
        <ele>2390.0</ele>
        <time>2014-06-30T13:03:39Z</time>
      </trkpt>
      <trkpt lat="40.621433" lon="-5.048383">
        <ele>2391.0</ele>
        <time>2014-06-30T13:03:40Z</time>
      </trkpt>
      <trkpt lat="40.621517" lon="-5.048250">
        <ele>2392.0</ele>
        <time>2014-06-30T13:03:41Z</time>
      </trkpt>
      <trkpt lat="40.621617" lon="-5.048150">
        <ele>2392.0</ele>
        <time>2014-06-30T13:03:42Z</time>
      </trkpt>
      <trkpt lat="40.621700" lon="-5.048033">
        <ele>2393.0</ele>
        <time>2014-06-30T13:03:43Z</time>
      </trkpt>
      <trkpt lat="40.621783" lon="-5.047933">
        <ele>2394.0</ele>
        <time>2014-06-30T13:03:44Z</time>
      </trkpt>
      <trkpt lat="40.621883" lon="-5.047850">
        <ele>2394.0</ele>
        <time>2014-06-30T13:03:45Z</time>
      </trkpt>
      <trkpt lat="40.621967" lon="-5.047767">
        <ele>2393.0</ele>
        <time>2014-06-30T13:03:46Z</time>
      </trkpt>
      <trkpt lat="40.622067" lon="-5.047700">
        <ele>2391.0</ele>
        <time>2014-06-30T13:03:47Z</time>
      </trkpt>
      <trkpt lat="40.622183" lon="-5.047633">
        <ele>2390.0</ele>
        <time>2014-06-30T13:03:48Z</time>
      </trkpt>
      <trkpt lat="40.622300" lon="-5.047567">
        <ele>2389.0</ele>
        <time>2014-06-30T13:03:49Z</time>
      </trkpt>
      <trkpt lat="40.622417" lon="-5.047517">
        <ele>2390.0</ele>
        <time>2014-06-30T13:03:50Z</time>
      </trkpt>
      <trkpt lat="40.622533" lon="-5.047467">
        <ele>2390.0</ele>
        <time>2014-06-30T13:03:51Z</time>
      </trkpt>
      <trkpt lat="40.622633" lon="-5.047433">
        <ele>2390.0</ele>
        <time>2014-06-30T13:03:52Z</time>
      </trkpt>
      <trkpt lat="40.622717" lon="-5.047417">
        <ele>2390.0</ele>
        <time>2014-06-30T13:03:53Z</time>
      </trkpt>
      <trkpt lat="40.622800" lon="-5.047433">
        <ele>2390.0</ele>
        <time>2014-06-30T13:03:54Z</time>
      </trkpt>
      <trkpt lat="40.622850" lon="-5.047467">
        <ele>2390.0</ele>
        <time>2014-06-30T13:03:55Z</time>
      </trkpt>
      <trkpt lat="40.622900" lon="-5.047533">
        <ele>2389.0</ele>
        <time>2014-06-30T13:03:56Z</time>
      </trkpt>
      <trkpt lat="40.622917" lon="-5.047600">
        <ele>2388.0</ele>
        <time>2014-06-30T13:03:57Z</time>
      </trkpt>
      <trkpt lat="40.622917" lon="-5.047683">
        <ele>2387.0</ele>
        <time>2014-06-30T13:03:58Z</time>
      </trkpt>
      <trkpt lat="40.622883" lon="-5.047767">
        <ele>2386.0</ele>
        <time>2014-06-30T13:03:59Z</time>
      </trkpt>
      <trkpt lat="40.622867" lon="-5.047850">
        <ele>2384.0</ele>
        <time>2014-06-30T13:04:00Z</time>
      </trkpt>
      <trkpt lat="40.622833" lon="-5.047950">
        <ele>2383.0</ele>
        <time>2014-06-30T13:04:01Z</time>
      </trkpt>
      <trkpt lat="40.622783" lon="-5.048033">
        <ele>2385.0</ele>
        <time>2014-06-30T13:04:02Z</time>
      </trkpt>
      <trkpt lat="40.622733" lon="-5.048117">
        <ele>2385.0</ele>
        <time>2014-06-30T13:04:03Z</time>
      </trkpt>
      <trkpt lat="40.622667" lon="-5.048183">
        <ele>2385.0</ele>
        <time>2014-06-30T13:04:04Z</time>
      </trkpt>
      <trkpt lat="40.622617" lon="-5.048250">
        <ele>2385.0</ele>
        <time>2014-06-30T13:04:05Z</time>
      </trkpt>
      <trkpt lat="40.622567" lon="-5.048317">
        <ele>2384.0</ele>
        <time>2014-06-30T13:04:06Z</time>
      </trkpt>
      <trkpt lat="40.622517" lon="-5.048383">
        <ele>2384.0</ele>
        <time>2014-06-30T13:04:07Z</time>
      </trkpt>
      <trkpt lat="40.622467" lon="-5.048467">
        <ele>2385.0</ele>
        <time>2014-06-30T13:04:08Z</time>
      </trkpt>
      <trkpt lat="40.622383" lon="-5.048533">
        <ele>2385.0</ele>
        <time>2014-06-30T13:04:09Z</time>
      </trkpt>
      <trkpt lat="40.622317" lon="-5.048583">
        <ele>2390.0</ele>
        <time>2014-06-30T13:04:10Z</time>
      </trkpt>
      <trkpt lat="40.622267" lon="-5.048600">
        <ele>2392.0</ele>
        <time>2014-06-30T13:04:11Z</time>
      </trkpt>
      <trkpt lat="40.622250" lon="-5.048600">
        <ele>2395.0</ele>
        <time>2014-06-30T13:04:12Z</time>
      </trkpt>
      <trkpt lat="40.622217" lon="-5.048633">
        <ele>2392.0</ele>
        <time>2014-06-30T13:04:13Z</time>
      </trkpt>
      <trkpt lat="40.622183" lon="-5.048617">
        <ele>2392.0</ele>
        <time>2014-06-30T13:04:14Z</time>
      </trkpt>
      <trkpt lat="40.622150" lon="-5.048600">
        <ele>2391.0</ele>
        <time>2014-06-30T13:04:15Z</time>
      </trkpt>
      <trkpt lat="40.622083" lon="-5.048550">
        <ele>2391.0</ele>
        <time>2014-06-30T13:04:16Z</time>
      </trkpt>
      <trkpt lat="40.622017" lon="-5.048467">
        <ele>2390.0</ele>
        <time>2014-06-30T13:04:17Z</time>
      </trkpt>
      <trkpt lat="40.621950" lon="-5.048367">
        <ele>2391.0</ele>
        <time>2014-06-30T13:04:18Z</time>
      </trkpt>
      <trkpt lat="40.621917" lon="-5.048283">
        <ele>2392.0</ele>
        <time>2014-06-30T13:04:19Z</time>
      </trkpt>
      <trkpt lat="40.621867" lon="-5.048200">
        <ele>2393.0</ele>
        <time>2014-06-30T13:04:20Z</time>
      </trkpt>
      <trkpt lat="40.621833" lon="-5.048117">
        <ele>2392.0</ele>
        <time>2014-06-30T13:04:21Z</time>
      </trkpt>
      <trkpt lat="40.621783" lon="-5.048033">
        <ele>2392.0</ele>
        <time>2014-06-30T13:04:22Z</time>
      </trkpt>
      <trkpt lat="40.621733" lon="-5.047917">
        <ele>2392.0</ele>
        <time>2014-06-30T13:04:23Z</time>
      </trkpt>
      <trkpt lat="40.621683" lon="-5.047783">
        <ele>2392.0</ele>
        <time>2014-06-30T13:04:24Z</time>
      </trkpt>
      <trkpt lat="40.621650" lon="-5.047650">
        <ele>2392.0</ele>
        <time>2014-06-30T13:04:25Z</time>
      </trkpt>
      <trkpt lat="40.621650" lon="-5.047500">
        <ele>2393.0</ele>
        <time>2014-06-30T13:04:26Z</time>
      </trkpt>
      <trkpt lat="40.621650" lon="-5.047350">
        <ele>2393.0</ele>
        <time>2014-06-30T13:04:27Z</time>
      </trkpt>
      <trkpt lat="40.621683" lon="-5.047200">
        <ele>2393.0</ele>
        <time>2014-06-30T13:04:28Z</time>
      </trkpt>
      <trkpt lat="40.621700" lon="-5.047050">
        <ele>2393.0</ele>
        <time>2014-06-30T13:04:29Z</time>
      </trkpt>
      <trkpt lat="40.621733" lon="-5.046900">
        <ele>2394.0</ele>
        <time>2014-06-30T13:04:30Z</time>
      </trkpt>
      <trkpt lat="40.621767" lon="-5.046767">
        <ele>2393.0</ele>
        <time>2014-06-30T13:04:31Z</time>
      </trkpt>
      <trkpt lat="40.621817" lon="-5.046617">
        <ele>2393.0</ele>
        <time>2014-06-30T13:04:32Z</time>
      </trkpt>
      <trkpt lat="40.621883" lon="-5.046483">
        <ele>2393.0</ele>
        <time>2014-06-30T13:04:33Z</time>
      </trkpt>
      <trkpt lat="40.621950" lon="-5.046350">
        <ele>2393.0</ele>
        <time>2014-06-30T13:04:34Z</time>
      </trkpt>
      <trkpt lat="40.622017" lon="-5.046217">
        <ele>2393.0</ele>
        <time>2014-06-30T13:04:35Z</time>
      </trkpt>
      <trkpt lat="40.622083" lon="-5.046083">
        <ele>2394.0</ele>
        <time>2014-06-30T13:04:36Z</time>
      </trkpt>
      <trkpt lat="40.622150" lon="-5.045967">
        <ele>2395.0</ele>
        <time>2014-06-30T13:04:37Z</time>
      </trkpt>
      <trkpt lat="40.622200" lon="-5.045850">
        <ele>2396.0</ele>
        <time>2014-06-30T13:04:38Z</time>
      </trkpt>
      <trkpt lat="40.622250" lon="-5.045750">
        <ele>2396.0</ele>
        <time>2014-06-30T13:04:39Z</time>
      </trkpt>
      <trkpt lat="40.622300" lon="-5.045633">
        <ele>2396.0</ele>
        <time>2014-06-30T13:04:40Z</time>
      </trkpt>
      <trkpt lat="40.622367" lon="-5.045517">
        <ele>2394.0</ele>
        <time>2014-06-30T13:04:41Z</time>
      </trkpt>
      <trkpt lat="40.622450" lon="-5.045417">
        <ele>2394.0</ele>
        <time>2014-06-30T13:04:42Z</time>
      </trkpt>
      <trkpt lat="40.622550" lon="-5.045333">
        <ele>2393.0</ele>
        <time>2014-06-30T13:04:43Z</time>
      </trkpt>
      <trkpt lat="40.622650" lon="-5.045300">
        <ele>2393.0</ele>
        <time>2014-06-30T13:04:44Z</time>
      </trkpt>
      <trkpt lat="40.622750" lon="-5.045283">
        <ele>2393.0</ele>
        <time>2014-06-30T13:04:45Z</time>
      </trkpt>
      <trkpt lat="40.622817" lon="-5.045300">
        <ele>2394.0</ele>
        <time>2014-06-30T13:04:46Z</time>
      </trkpt>
      <trkpt lat="40.622900" lon="-5.045317">
        <ele>2394.0</ele>
        <time>2014-06-30T13:04:47Z</time>
      </trkpt>
      <trkpt lat="40.622983" lon="-5.045317">
        <ele>2394.0</ele>
        <time>2014-06-30T13:04:48Z</time>
      </trkpt>
      <trkpt lat="40.623050" lon="-5.045350">
        <ele>2393.0</ele>
        <time>2014-06-30T13:04:49Z</time>
      </trkpt>
      <trkpt lat="40.623133" lon="-5.045400">
        <ele>2392.0</ele>
        <time>2014-06-30T13:04:50Z</time>
      </trkpt>
      <trkpt lat="40.623200" lon="-5.045467">
        <ele>2389.0</ele>
        <time>2014-06-30T13:04:51Z</time>
      </trkpt>
      <trkpt lat="40.623267" lon="-5.045550">
        <ele>2389.0</ele>
        <time>2014-06-30T13:04:52Z</time>
      </trkpt>
      <trkpt lat="40.623350" lon="-5.045617">
        <ele>2390.0</ele>
        <time>2014-06-30T13:04:53Z</time>
      </trkpt>
      <trkpt lat="40.623433" lon="-5.045683">
        <ele>2389.0</ele>
        <time>2014-06-30T13:04:54Z</time>
      </trkpt>
      <trkpt lat="40.623500" lon="-5.045733">
        <ele>2390.0</ele>
        <time>2014-06-30T13:04:55Z</time>
      </trkpt>
      <trkpt lat="40.623550" lon="-5.045783">
        <ele>2390.0</ele>
        <time>2014-06-30T13:04:56Z</time>
      </trkpt>
      <trkpt lat="40.623600" lon="-5.045850">
        <ele>2390.0</ele>
        <time>2014-06-30T13:04:57Z</time>
      </trkpt>
      <trkpt lat="40.623650" lon="-5.045933">
        <ele>2389.0</ele>
        <time>2014-06-30T13:04:58Z</time>
      </trkpt>
      <trkpt lat="40.623700" lon="-5.046017">
        <ele>2390.0</ele>
        <time>2014-06-30T13:04:59Z</time>
      </trkpt>
      <trkpt lat="40.623733" lon="-5.046100">
        <ele>2390.0</ele>
        <time>2014-06-30T13:05:00Z</time>
      </trkpt>
      <trkpt lat="40.623783" lon="-5.046200">
        <ele>2389.0</ele>
        <time>2014-06-30T13:05:01Z</time>
      </trkpt>
      <trkpt lat="40.623833" lon="-5.046283">
        <ele>2389.0</ele>
        <time>2014-06-30T13:05:02Z</time>
      </trkpt>
      <trkpt lat="40.623850" lon="-5.046367">
        <ele>2389.0</ele>
        <time>2014-06-30T13:05:03Z</time>
      </trkpt>
      <trkpt lat="40.623850" lon="-5.046467">
        <ele>2389.0</ele>
        <time>2014-06-30T13:05:04Z</time>
      </trkpt>
      <trkpt lat="40.623850" lon="-5.046583">
        <ele>2388.0</ele>
        <time>2014-06-30T13:05:05Z</time>
      </trkpt>
      <trkpt lat="40.623850" lon="-5.046683">
        <ele>2388.0</ele>
        <time>2014-06-30T13:05:06Z</time>
      </trkpt>
      <trkpt lat="40.623850" lon="-5.046783">
        <ele>2387.0</ele>
        <time>2014-06-30T13:05:07Z</time>
      </trkpt>
      <trkpt lat="40.623867" lon="-5.046850">
        <ele>2387.0</ele>
        <time>2014-06-30T13:05:08Z</time>
      </trkpt>
      <trkpt lat="40.623883" lon="-5.046933">
        <ele>2388.0</ele>
        <time>2014-06-30T13:05:09Z</time>
      </trkpt>
      <trkpt lat="40.623883" lon="-5.047000">
        <ele>2388.0</ele>
        <time>2014-06-30T13:05:10Z</time>
      </trkpt>
      <trkpt lat="40.623883" lon="-5.047067">
        <ele>2387.0</ele>
        <time>2014-06-30T13:05:11Z</time>
      </trkpt>
      <trkpt lat="40.623850" lon="-5.047100">
        <ele>2387.0</ele>
        <time>2014-06-30T13:05:12Z</time>
      </trkpt>
      <trkpt lat="40.623800" lon="-5.047100">
        <ele>2387.0</ele>
        <time>2014-06-30T13:05:13Z</time>
      </trkpt>
      <trkpt lat="40.623733" lon="-5.047067">
        <ele>2386.0</ele>
        <time>2014-06-30T13:05:14Z</time>
      </trkpt>
      <trkpt lat="40.623667" lon="-5.047000">
        <ele>2384.0</ele>
        <time>2014-06-30T13:05:15Z</time>
      </trkpt>
      <trkpt lat="40.623600" lon="-5.046917">
        <ele>2381.0</ele>
        <time>2014-06-30T13:05:16Z</time>
      </trkpt>
      <trkpt lat="40.623533" lon="-5.046833">
        <ele>2378.0</ele>
        <time>2014-06-30T13:05:17Z</time>
      </trkpt>
      <trkpt lat="40.623467" lon="-5.046750">
        <ele>2376.0</ele>
        <time>2014-06-30T13:05:18Z</time>
      </trkpt>
      <trkpt lat="40.623400" lon="-5.046667">
        <ele>2377.0</ele>
        <time>2014-06-30T13:05:19Z</time>
      </trkpt>
      <trkpt lat="40.623317" lon="-5.046567">
        <ele>2376.0</ele>
        <time>2014-06-30T13:05:20Z</time>
      </trkpt>
      <trkpt lat="40.623250" lon="-5.046450">
        <ele>2375.0</ele>
        <time>2014-06-30T13:05:21Z</time>
      </trkpt>
      <trkpt lat="40.623183" lon="-5.046333">
        <ele>2375.0</ele>
        <time>2014-06-30T13:05:22Z</time>
      </trkpt>
      <trkpt lat="40.623117" lon="-5.046233">
        <ele>2375.0</ele>
        <time>2014-06-30T13:05:23Z</time>
      </trkpt>
      <trkpt lat="40.623033" lon="-5.046150">
        <ele>2375.0</ele>
        <time>2014-06-30T13:05:24Z</time>
      </trkpt>
      <trkpt lat="40.622967" lon="-5.046083">
        <ele>2374.0</ele>
        <time>2014-06-30T13:05:25Z</time>
      </trkpt>
      <trkpt lat="40.622900" lon="-5.045983">
        <ele>2374.0</ele>
        <time>2014-06-30T13:05:26Z</time>
      </trkpt>
      <trkpt lat="40.622850" lon="-5.045883">
        <ele>2375.0</ele>
        <time>2014-06-30T13:05:27Z</time>
      </trkpt>
      <trkpt lat="40.622800" lon="-5.045767">
        <ele>2374.0</ele>
        <time>2014-06-30T13:05:28Z</time>
      </trkpt>
      <trkpt lat="40.622767" lon="-5.045633">
        <ele>2373.0</ele>
        <time>2014-06-30T13:05:29Z</time>
      </trkpt>
      <trkpt lat="40.622733" lon="-5.045483">
        <ele>2372.0</ele>
        <time>2014-06-30T13:05:30Z</time>
      </trkpt>
      <trkpt lat="40.622683" lon="-5.045350">
        <ele>2369.0</ele>
        <time>2014-06-30T13:05:31Z</time>
      </trkpt>
      <trkpt lat="40.622617" lon="-5.045183">
        <ele>2368.0</ele>
        <time>2014-06-30T13:05:32Z</time>
      </trkpt>
      <trkpt lat="40.622550" lon="-5.045017">
        <ele>2366.0</ele>
        <time>2014-06-30T13:05:33Z</time>
      </trkpt>
      <trkpt lat="40.622483" lon="-5.044833">
        <ele>2365.0</ele>
        <time>2014-06-30T13:05:34Z</time>
      </trkpt>
      <trkpt lat="40.622433" lon="-5.044667">
        <ele>2367.0</ele>
        <time>2014-06-30T13:05:35Z</time>
      </trkpt>
      <trkpt lat="40.622383" lon="-5.044500">
        <ele>2368.0</ele>
        <time>2014-06-30T13:05:36Z</time>
      </trkpt>
      <trkpt lat="40.622333" lon="-5.044350">
        <ele>2370.0</ele>
        <time>2014-06-30T13:05:37Z</time>
      </trkpt>
      <trkpt lat="40.622300" lon="-5.044217">
        <ele>2371.0</ele>
        <time>2014-06-30T13:05:38Z</time>
      </trkpt>
      <trkpt lat="40.622267" lon="-5.044100">
        <ele>2372.0</ele>
        <time>2014-06-30T13:05:39Z</time>
      </trkpt>
      <trkpt lat="40.622233" lon="-5.044000">
        <ele>2373.0</ele>
        <time>2014-06-30T13:05:40Z</time>
      </trkpt>
      <trkpt lat="40.622217" lon="-5.043867">
        <ele>2373.0</ele>
        <time>2014-06-30T13:05:41Z</time>
      </trkpt>
      <trkpt lat="40.622200" lon="-5.043733">
        <ele>2373.0</ele>
        <time>2014-06-30T13:05:42Z</time>
      </trkpt>
      <trkpt lat="40.622217" lon="-5.043567">
        <ele>2371.0</ele>
        <time>2014-06-30T13:05:43Z</time>
      </trkpt>
      <trkpt lat="40.622233" lon="-5.043417">
        <ele>2371.0</ele>
        <time>2014-06-30T13:05:44Z</time>
      </trkpt>
      <trkpt lat="40.622300" lon="-5.043283">
        <ele>2372.0</ele>
        <time>2014-06-30T13:05:45Z</time>
      </trkpt>
      <trkpt lat="40.622350" lon="-5.043200">
        <ele>2373.0</ele>
        <time>2014-06-30T13:05:46Z</time>
      </trkpt>
      <trkpt lat="40.622400" lon="-5.043150">
        <ele>2373.0</ele>
        <time>2014-06-30T13:05:47Z</time>
      </trkpt>
      <trkpt lat="40.622433" lon="-5.043100">
        <ele>2374.0</ele>
        <time>2014-06-30T13:05:48Z</time>
      </trkpt>
      <trkpt lat="40.622500" lon="-5.043050">
        <ele>2372.0</ele>
        <time>2014-06-30T13:05:49Z</time>
      </trkpt>
      <trkpt lat="40.622567" lon="-5.042983">
        <ele>2372.0</ele>
        <time>2014-06-30T13:05:50Z</time>
      </trkpt>
      <trkpt lat="40.622633" lon="-5.042967">
        <ele>2372.0</ele>
        <time>2014-06-30T13:05:51Z</time>
      </trkpt>
      <trkpt lat="40.622700" lon="-5.042983">
        <ele>2372.0</ele>
        <time>2014-06-30T13:05:52Z</time>
      </trkpt>
      <trkpt lat="40.622733" lon="-5.043050">
        <ele>2371.0</ele>
        <time>2014-06-30T13:05:53Z</time>
      </trkpt>
      <trkpt lat="40.622733" lon="-5.043117">
        <ele>2372.0</ele>
        <time>2014-06-30T13:05:54Z</time>
      </trkpt>
      <trkpt lat="40.622700" lon="-5.043200">
        <ele>2372.0</ele>
        <time>2014-06-30T13:05:55Z</time>
      </trkpt>
      <trkpt lat="40.622617" lon="-5.043233">
        <ele>2372.0</ele>
        <time>2014-06-30T13:05:56Z</time>
      </trkpt>
      <trkpt lat="40.622517" lon="-5.043250">
        <ele>2372.0</ele>
        <time>2014-06-30T13:05:57Z</time>
      </trkpt>
      <trkpt lat="40.622433" lon="-5.043217">
        <ele>2373.0</ele>
        <time>2014-06-30T13:05:58Z</time>
      </trkpt>
      <trkpt lat="40.622350" lon="-5.043167">
        <ele>2375.0</ele>
        <time>2014-06-30T13:05:59Z</time>
      </trkpt>
      <trkpt lat="40.622300" lon="-5.043117">
        <ele>2376.0</ele>
        <time>2014-06-30T13:06:00Z</time>
      </trkpt>
      <trkpt lat="40.622217" lon="-5.043033">
        <ele>2376.0</ele>
        <time>2014-06-30T13:06:01Z</time>
      </trkpt>
      <trkpt lat="40.622150" lon="-5.042933">
        <ele>2376.0</ele>
        <time>2014-06-30T13:06:02Z</time>
      </trkpt>
      <trkpt lat="40.622083" lon="-5.042850">
        <ele>2376.0</ele>
        <time>2014-06-30T13:06:03Z</time>
      </trkpt>
      <trkpt lat="40.622000" lon="-5.042750">
        <ele>2377.0</ele>
        <time>2014-06-30T13:06:04Z</time>
      </trkpt>
      <trkpt lat="40.621917" lon="-5.042650">
        <ele>2377.0</ele>
        <time>2014-06-30T13:06:05Z</time>
      </trkpt>
      <trkpt lat="40.621850" lon="-5.042550">
        <ele>2378.0</ele>
        <time>2014-06-30T13:06:06Z</time>
      </trkpt>
      <trkpt lat="40.621783" lon="-5.042467">
        <ele>2380.0</ele>
        <time>2014-06-30T13:06:07Z</time>
      </trkpt>
      <trkpt lat="40.621717" lon="-5.042383">
        <ele>2380.0</ele>
        <time>2014-06-30T13:06:08Z</time>
      </trkpt>
      <trkpt lat="40.621650" lon="-5.042300">
        <ele>2381.0</ele>
        <time>2014-06-30T13:06:09Z</time>
      </trkpt>
      <trkpt lat="40.621583" lon="-5.042233">
        <ele>2380.0</ele>
        <time>2014-06-30T13:06:10Z</time>
      </trkpt>
      <trkpt lat="40.621500" lon="-5.042150">
        <ele>2379.0</ele>
        <time>2014-06-30T13:06:11Z</time>
      </trkpt>
      <trkpt lat="40.621417" lon="-5.042050">
        <ele>2378.0</ele>
        <time>2014-06-30T13:06:12Z</time>
      </trkpt>
      <trkpt lat="40.621350" lon="-5.041933">
        <ele>2378.0</ele>
        <time>2014-06-30T13:06:13Z</time>
      </trkpt>
      <trkpt lat="40.621267" lon="-5.041783">
        <ele>2378.0</ele>
        <time>2014-06-30T13:06:14Z</time>
      </trkpt>
      <trkpt lat="40.621200" lon="-5.041633">
        <ele>2378.0</ele>
        <time>2014-06-30T13:06:15Z</time>
      </trkpt>
      <trkpt lat="40.621117" lon="-5.041467">
        <ele>2381.0</ele>
        <time>2014-06-30T13:06:16Z</time>
      </trkpt>
      <trkpt lat="40.621033" lon="-5.041333">
        <ele>2383.0</ele>
        <time>2014-06-30T13:06:17Z</time>
      </trkpt>
      <trkpt lat="40.620967" lon="-5.041217">
        <ele>2385.0</ele>
        <time>2014-06-30T13:06:18Z</time>
      </trkpt>
      <trkpt lat="40.620900" lon="-5.041100">
        <ele>2387.0</ele>
        <time>2014-06-30T13:06:19Z</time>
      </trkpt>
      <trkpt lat="40.620833" lon="-5.040983">
        <ele>2390.0</ele>
        <time>2014-06-30T13:06:20Z</time>
      </trkpt>
      <trkpt lat="40.620783" lon="-5.040883">
        <ele>2392.0</ele>
        <time>2014-06-30T13:06:21Z</time>
      </trkpt>
      <trkpt lat="40.620717" lon="-5.040767">
        <ele>2393.0</ele>
        <time>2014-06-30T13:06:22Z</time>
      </trkpt>
      <trkpt lat="40.620667" lon="-5.040633">
        <ele>2394.0</ele>
        <time>2014-06-30T13:06:23Z</time>
      </trkpt>
      <trkpt lat="40.620633" lon="-5.040483">
        <ele>2394.0</ele>
        <time>2014-06-30T13:06:24Z</time>
      </trkpt>
      <trkpt lat="40.620633" lon="-5.040333">
        <ele>2395.0</ele>
        <time>2014-06-30T13:06:25Z</time>
      </trkpt>
      <trkpt lat="40.620650" lon="-5.040200">
        <ele>2397.0</ele>
        <time>2014-06-30T13:06:26Z</time>
      </trkpt>
      <trkpt lat="40.620700" lon="-5.040067">
        <ele>2400.0</ele>
        <time>2014-06-30T13:06:27Z</time>
      </trkpt>
      <trkpt lat="40.620750" lon="-5.039967">
        <ele>2402.0</ele>
        <time>2014-06-30T13:06:28Z</time>
      </trkpt>
      <trkpt lat="40.620783" lon="-5.039883">
        <ele>2400.0</ele>
        <time>2014-06-30T13:06:29Z</time>
      </trkpt>
      <trkpt lat="40.620850" lon="-5.039817">
        <ele>2400.0</ele>
        <time>2014-06-30T13:06:30Z</time>
      </trkpt>
      <trkpt lat="40.620917" lon="-5.039783">
        <ele>2401.0</ele>
        <time>2014-06-30T13:06:31Z</time>
      </trkpt>
      <trkpt lat="40.620967" lon="-5.039783">
        <ele>2401.0</ele>
        <time>2014-06-30T13:06:32Z</time>
      </trkpt>
      <trkpt lat="40.621000" lon="-5.039817">
        <ele>2402.0</ele>
        <time>2014-06-30T13:06:33Z</time>
      </trkpt>
      <trkpt lat="40.621033" lon="-5.039883">
        <ele>2404.0</ele>
        <time>2014-06-30T13:06:34Z</time>
      </trkpt>
      <trkpt lat="40.621017" lon="-5.039950">
        <ele>2406.0</ele>
        <time>2014-06-30T13:06:35Z</time>
      </trkpt>
      <trkpt lat="40.620983" lon="-5.040000">
        <ele>2408.0</ele>
        <time>2014-06-30T13:06:36Z</time>
      </trkpt>
      <trkpt lat="40.620917" lon="-5.040017">
        <ele>2409.0</ele>
        <time>2014-06-30T13:06:37Z</time>
      </trkpt>
      <trkpt lat="40.620833" lon="-5.040017">
        <ele>2410.0</ele>
        <time>2014-06-30T13:06:38Z</time>
      </trkpt>
      <trkpt lat="40.620717" lon="-5.039950">
        <ele>2411.0</ele>
        <time>2014-06-30T13:06:39Z</time>
      </trkpt>
      <trkpt lat="40.620617" lon="-5.039867">
        <ele>2414.0</ele>
        <time>2014-06-30T13:06:40Z</time>
      </trkpt>
      <trkpt lat="40.620533" lon="-5.039767">
        <ele>2416.0</ele>
        <time>2014-06-30T13:06:41Z</time>
      </trkpt>
      <trkpt lat="40.620467" lon="-5.039650">
        <ele>2418.0</ele>
        <time>2014-06-30T13:06:42Z</time>
      </trkpt>
      <trkpt lat="40.620400" lon="-5.039533">
        <ele>2419.0</ele>
        <time>2014-06-30T13:06:43Z</time>
      </trkpt>
      <trkpt lat="40.620350" lon="-5.039400">
        <ele>2421.0</ele>
        <time>2014-06-30T13:06:44Z</time>
      </trkpt>
      <trkpt lat="40.620300" lon="-5.039233">
        <ele>2422.0</ele>
        <time>2014-06-30T13:06:45Z</time>
      </trkpt>
      <trkpt lat="40.620267" lon="-5.039067">
        <ele>2424.0</ele>
        <time>2014-06-30T13:06:46Z</time>
      </trkpt>
      <trkpt lat="40.620233" lon="-5.038900">
        <ele>2426.0</ele>
        <time>2014-06-30T13:06:47Z</time>
      </trkpt>
      <trkpt lat="40.620217" lon="-5.038750">
        <ele>2429.0</ele>
        <time>2014-06-30T13:06:48Z</time>
      </trkpt>
      <trkpt lat="40.620200" lon="-5.038617">
        <ele>2434.0</ele>
        <time>2014-06-30T13:06:49Z</time>
      </trkpt>
      <trkpt lat="40.620183" lon="-5.038483">
        <ele>2437.0</ele>
        <time>2014-06-30T13:06:50Z</time>
      </trkpt>
      <trkpt lat="40.620183" lon="-5.038350">
        <ele>2440.0</ele>
        <time>2014-06-30T13:06:51Z</time>
      </trkpt>
      <trkpt lat="40.620200" lon="-5.038217">
        <ele>2442.0</ele>
        <time>2014-06-30T13:06:52Z</time>
      </trkpt>
      <trkpt lat="40.620233" lon="-5.038067">
        <ele>2444.0</ele>
        <time>2014-06-30T13:06:53Z</time>
      </trkpt>
      <trkpt lat="40.620300" lon="-5.037950">
        <ele>2446.0</ele>
        <time>2014-06-30T13:06:54Z</time>
      </trkpt>
      <trkpt lat="40.620383" lon="-5.037867">
        <ele>2448.0</ele>
        <time>2014-06-30T13:06:55Z</time>
      </trkpt>
      <trkpt lat="40.620467" lon="-5.037833">
        <ele>2450.0</ele>
        <time>2014-06-30T13:06:56Z</time>
      </trkpt>
      <trkpt lat="40.620533" lon="-5.037850">
        <ele>2452.0</ele>
        <time>2014-06-30T13:06:57Z</time>
      </trkpt>
      <trkpt lat="40.620583" lon="-5.037917">
        <ele>2454.0</ele>
        <time>2014-06-30T13:06:58Z</time>
      </trkpt>
      <trkpt lat="40.620567" lon="-5.037967">
        <ele>2456.0</ele>
        <time>2014-06-30T13:06:59Z</time>
      </trkpt>
      <trkpt lat="40.620550" lon="-5.038000">
        <ele>2459.0</ele>
        <time>2014-06-30T13:07:00Z</time>
      </trkpt>
      <trkpt lat="40.620483" lon="-5.038033">
        <ele>2461.0</ele>
        <time>2014-06-30T13:07:01Z</time>
      </trkpt>
      <trkpt lat="40.620433" lon="-5.038033">
        <ele>2464.0</ele>
        <time>2014-06-30T13:07:02Z</time>
      </trkpt>
      <trkpt lat="40.620350" lon="-5.038000">
        <ele>2467.0</ele>
        <time>2014-06-30T13:07:03Z</time>
      </trkpt>
      <trkpt lat="40.620283" lon="-5.037950">
        <ele>2469.0</ele>
        <time>2014-06-30T13:07:04Z</time>
      </trkpt>
      <trkpt lat="40.620200" lon="-5.037850">
        <ele>2471.0</ele>
        <time>2014-06-30T13:07:05Z</time>
      </trkpt>
      <trkpt lat="40.620150" lon="-5.037733">
        <ele>2473.0</ele>
        <time>2014-06-30T13:07:06Z</time>
      </trkpt>
      <trkpt lat="40.620133" lon="-5.037567">
        <ele>2475.0</ele>
        <time>2014-06-30T13:07:07Z</time>
      </trkpt>
      <trkpt lat="40.620117" lon="-5.037417">
        <ele>2477.0</ele>
        <time>2014-06-30T13:07:08Z</time>
      </trkpt>
      <trkpt lat="40.620100" lon="-5.037283">
        <ele>2480.0</ele>
        <time>2014-06-30T13:07:09Z</time>
      </trkpt>
      <trkpt lat="40.620100" lon="-5.037133">
        <ele>2482.0</ele>
        <time>2014-06-30T13:07:10Z</time>
      </trkpt>
      <trkpt lat="40.620117" lon="-5.036983">
        <ele>2484.0</ele>
        <time>2014-06-30T13:07:11Z</time>
      </trkpt>
      <trkpt lat="40.620133" lon="-5.036817">
        <ele>2487.0</ele>
        <time>2014-06-30T13:07:12Z</time>
      </trkpt>
      <trkpt lat="40.620167" lon="-5.036667">
        <ele>2489.0</ele>
        <time>2014-06-30T13:07:13Z</time>
      </trkpt>
      <trkpt lat="40.620233" lon="-5.036533">
        <ele>2491.0</ele>
        <time>2014-06-30T13:07:14Z</time>
      </trkpt>
      <trkpt lat="40.620283" lon="-5.036400">
        <ele>2495.0</ele>
        <time>2014-06-30T13:07:15Z</time>
      </trkpt>
      <trkpt lat="40.620367" lon="-5.036300">
        <ele>2498.0</ele>
        <time>2014-06-30T13:07:16Z</time>
      </trkpt>
      <trkpt lat="40.620433" lon="-5.036200">
        <ele>2501.0</ele>
        <time>2014-06-30T13:07:17Z</time>
      </trkpt>
      <trkpt lat="40.620483" lon="-5.036133">
        <ele>2503.0</ele>
        <time>2014-06-30T13:07:18Z</time>
      </trkpt>
      <trkpt lat="40.620550" lon="-5.036050">
        <ele>2497.0</ele>
        <time>2014-06-30T13:07:19Z</time>
      </trkpt>
      <trkpt lat="40.620633" lon="-5.036000">
        <ele>2499.0</ele>
        <time>2014-06-30T13:07:20Z</time>
      </trkpt>
      <trkpt lat="40.620717" lon="-5.035967">
        <ele>2501.0</ele>
        <time>2014-06-30T13:07:21Z</time>
      </trkpt>
      <trkpt lat="40.620783" lon="-5.035983">
        <ele>2504.0</ele>
        <time>2014-06-30T13:07:22Z</time>
      </trkpt>
      <trkpt lat="40.620833" lon="-5.036000">
        <ele>2509.0</ele>
        <time>2014-06-30T13:07:23Z</time>
      </trkpt>
      <trkpt lat="40.620850" lon="-5.036050">
        <ele>2507.0</ele>
        <time>2014-06-30T13:07:24Z</time>
      </trkpt>
      <trkpt lat="40.620833" lon="-5.036083">
        <ele>2510.0</ele>
        <time>2014-06-30T13:07:25Z</time>
      </trkpt>
      <trkpt lat="40.620800" lon="-5.036100">
        <ele>2512.0</ele>
        <time>2014-06-30T13:07:26Z</time>
      </trkpt>
      <trkpt lat="40.620767" lon="-5.036133">
        <ele>2512.0</ele>
        <time>2014-06-30T13:07:27Z</time>
      </trkpt>
      <trkpt lat="40.620733" lon="-5.036150">
        <ele>2513.0</ele>
        <time>2014-06-30T13:07:28Z</time>
      </trkpt>
      <trkpt lat="40.620683" lon="-5.036167">
        <ele>2514.0</ele>
        <time>2014-06-30T13:07:29Z</time>
      </trkpt>
      <trkpt lat="40.620617" lon="-5.036167">
        <ele>2516.0</ele>
        <time>2014-06-30T13:07:30Z</time>
      </trkpt>
      <trkpt lat="40.620533" lon="-5.036133">
        <ele>2517.0</ele>
        <time>2014-06-30T13:07:31Z</time>
      </trkpt>
      <trkpt lat="40.620450" lon="-5.036083">
        <ele>2518.0</ele>
        <time>2014-06-30T13:07:32Z</time>
      </trkpt>
      <trkpt lat="40.620367" lon="-5.036000">
        <ele>2520.0</ele>
        <time>2014-06-30T13:07:33Z</time>
      </trkpt>
      <trkpt lat="40.620283" lon="-5.035900">
        <ele>2522.0</ele>
        <time>2014-06-30T13:07:34Z</time>
      </trkpt>
      <trkpt lat="40.620217" lon="-5.035783">
        <ele>2527.0</ele>
        <time>2014-06-30T13:07:35Z</time>
      </trkpt>
      <trkpt lat="40.620167" lon="-5.035650">
        <ele>2533.0</ele>
        <time>2014-06-30T13:07:36Z</time>
      </trkpt>
      <trkpt lat="40.620117" lon="-5.035550">
        <ele>2538.0</ele>
        <time>2014-06-30T13:07:37Z</time>
      </trkpt>
      <trkpt lat="40.620083" lon="-5.035450">
        <ele>2542.0</ele>
        <time>2014-06-30T13:07:38Z</time>
      </trkpt>
      <trkpt lat="40.620050" lon="-5.035333">
        <ele>2545.0</ele>
        <time>2014-06-30T13:07:39Z</time>
      </trkpt>
      <trkpt lat="40.620033" lon="-5.035183">
        <ele>2548.0</ele>
        <time>2014-06-30T13:07:40Z</time>
      </trkpt>
      <trkpt lat="40.620017" lon="-5.035017">
        <ele>2550.0</ele>
        <time>2014-06-30T13:07:41Z</time>
      </trkpt>
      <trkpt lat="40.620033" lon="-5.034867">
        <ele>2551.0</ele>
        <time>2014-06-30T13:07:42Z</time>
      </trkpt>
      <trkpt lat="40.620083" lon="-5.034717">
        <ele>2552.0</ele>
        <time>2014-06-30T13:07:43Z</time>
      </trkpt>
      <trkpt lat="40.620133" lon="-5.034583">
        <ele>2555.0</ele>
        <time>2014-06-30T13:07:44Z</time>
      </trkpt>
      <trkpt lat="40.620183" lon="-5.034450">
        <ele>2557.0</ele>
        <time>2014-06-30T13:07:45Z</time>
      </trkpt>
      <trkpt lat="40.620250" lon="-5.034333">
        <ele>2560.0</ele>
        <time>2014-06-30T13:07:46Z</time>
      </trkpt>
      <trkpt lat="40.620317" lon="-5.034217">
        <ele>2562.0</ele>
        <time>2014-06-30T13:07:47Z</time>
      </trkpt>
      <trkpt lat="40.620383" lon="-5.034117">
        <ele>2564.0</ele>
        <time>2014-06-30T13:07:48Z</time>
      </trkpt>
      <trkpt lat="40.620450" lon="-5.034033">
        <ele>2566.0</ele>
        <time>2014-06-30T13:07:49Z</time>
      </trkpt>
      <trkpt lat="40.620517" lon="-5.033950">
        <ele>2568.0</ele>
        <time>2014-06-30T13:07:50Z</time>
      </trkpt>
      <trkpt lat="40.620600" lon="-5.033917">
        <ele>2570.0</ele>
        <time>2014-06-30T13:07:51Z</time>
      </trkpt>
      <trkpt lat="40.620683" lon="-5.033900">
        <ele>2572.0</ele>
        <time>2014-06-30T13:07:52Z</time>
      </trkpt>
      <trkpt lat="40.620750" lon="-5.033917">
        <ele>2573.0</ele>
        <time>2014-06-30T13:07:53Z</time>
      </trkpt>
      <trkpt lat="40.620800" lon="-5.033933">
        <ele>2575.0</ele>
        <time>2014-06-30T13:07:54Z</time>
      </trkpt>
      <trkpt lat="40.620867" lon="-5.033950">
        <ele>2577.0</ele>
        <time>2014-06-30T13:07:55Z</time>
      </trkpt>
      <trkpt lat="40.620917" lon="-5.033983">
        <ele>2579.0</ele>
        <time>2014-06-30T13:07:56Z</time>
      </trkpt>
      <trkpt lat="40.620967" lon="-5.034000">
        <ele>2583.0</ele>
        <time>2014-06-30T13:07:57Z</time>
      </trkpt>
      <trkpt lat="40.621000" lon="-5.034033">
        <ele>2586.0</ele>
        <time>2014-06-30T13:07:58Z</time>
      </trkpt>
      <trkpt lat="40.621000" lon="-5.034067">
        <ele>2588.0</ele>
        <time>2014-06-30T13:07:59Z</time>
      </trkpt>
      <trkpt lat="40.620983" lon="-5.034117">
        <ele>2589.0</ele>
        <time>2014-06-30T13:08:00Z</time>
      </trkpt>
      <trkpt lat="40.620950" lon="-5.034133">
        <ele>2591.0</ele>
        <time>2014-06-30T13:08:01Z</time>
      </trkpt>
      <trkpt lat="40.620900" lon="-5.034167">
        <ele>2588.0</ele>
        <time>2014-06-30T13:08:02Z</time>
      </trkpt>
      <trkpt lat="40.620850" lon="-5.034183">
        <ele>2589.0</ele>
        <time>2014-06-30T13:08:03Z</time>
      </trkpt>
      <trkpt lat="40.620783" lon="-5.034183">
        <ele>2590.0</ele>
        <time>2014-06-30T13:08:04Z</time>
      </trkpt>
      <trkpt lat="40.620717" lon="-5.034167">
        <ele>2593.0</ele>
        <time>2014-06-30T13:08:05Z</time>
      </trkpt>
      <trkpt lat="40.620650" lon="-5.034133">
        <ele>2595.0</ele>
        <time>2014-06-30T13:08:06Z</time>
      </trkpt>
      <trkpt lat="40.620583" lon="-5.034100">
        <ele>2597.0</ele>
        <time>2014-06-30T13:08:07Z</time>
      </trkpt>
      <trkpt lat="40.620517" lon="-5.034050">
        <ele>2599.0</ele>
        <time>2014-06-30T13:08:08Z</time>
      </trkpt>
      <trkpt lat="40.620433" lon="-5.033983">
        <ele>2600.0</ele>
        <time>2014-06-30T13:08:09Z</time>
      </trkpt>
      <trkpt lat="40.620350" lon="-5.033883">
        <ele>2602.0</ele>
        <time>2014-06-30T13:08:10Z</time>
      </trkpt>
      <trkpt lat="40.620300" lon="-5.033783">
        <ele>2605.0</ele>
        <time>2014-06-30T13:08:11Z</time>
      </trkpt>
      <trkpt lat="40.620267" lon="-5.033667">
        <ele>2608.0</ele>
        <time>2014-06-30T13:08:12Z</time>
      </trkpt>
      <trkpt lat="40.620250" lon="-5.033550">
        <ele>2611.0</ele>
        <time>2014-06-30T13:08:13Z</time>
      </trkpt>
      <trkpt lat="40.620250" lon="-5.033400">
        <ele>2612.0</ele>
        <time>2014-06-30T13:08:14Z</time>
      </trkpt>
      <trkpt lat="40.620250" lon="-5.033250">
        <ele>2614.0</ele>
        <time>2014-06-30T13:08:15Z</time>
      </trkpt>
      <trkpt lat="40.620267" lon="-5.033100">
        <ele>2615.0</ele>
        <time>2014-06-30T13:08:16Z</time>
      </trkpt>
      <trkpt lat="40.620317" lon="-5.032933">
        <ele>2617.0</ele>
        <time>2014-06-30T13:08:17Z</time>
      </trkpt>
      <trkpt lat="40.620400" lon="-5.032833">
        <ele>2618.0</ele>
        <time>2014-06-30T13:08:18Z</time>
      </trkpt>
      <trkpt lat="40.620483" lon="-5.032767">
        <ele>2620.0</ele>
        <time>2014-06-30T13:08:19Z</time>
      </trkpt>
      <trkpt lat="40.620567" lon="-5.032733">
        <ele>2621.0</ele>
        <time>2014-06-30T13:08:20Z</time>
      </trkpt>
      <trkpt lat="40.620650" lon="-5.032750">
        <ele>2623.0</ele>
        <time>2014-06-30T13:08:21Z</time>
      </trkpt>
      <trkpt lat="40.620733" lon="-5.032767">
        <ele>2624.0</ele>
        <time>2014-06-30T13:08:22Z</time>
      </trkpt>
      <trkpt lat="40.620833" lon="-5.032767">
        <ele>2626.0</ele>
        <time>2014-06-30T13:08:23Z</time>
      </trkpt>
      <trkpt lat="40.620933" lon="-5.032767">
        <ele>2628.0</ele>
        <time>2014-06-30T13:08:24Z</time>
      </trkpt>
      <trkpt lat="40.621000" lon="-5.032767">
        <ele>2630.0</ele>
        <time>2014-06-30T13:08:25Z</time>
      </trkpt>
      <trkpt lat="40.621067" lon="-5.032767">
        <ele>2632.0</ele>
        <time>2014-06-30T13:08:26Z</time>
      </trkpt>
      <trkpt lat="40.621117" lon="-5.032800">
        <ele>2634.0</ele>
        <time>2014-06-30T13:08:27Z</time>
      </trkpt>
      <trkpt lat="40.621150" lon="-5.032850">
        <ele>2629.0</ele>
        <time>2014-06-30T13:08:28Z</time>
      </trkpt>
      <trkpt lat="40.621150" lon="-5.032883">
        <ele>2630.0</ele>
        <time>2014-06-30T13:08:29Z</time>
      </trkpt>
      <trkpt lat="40.621133" lon="-5.032933">
        <ele>2631.0</ele>
        <time>2014-06-30T13:08:30Z</time>
      </trkpt>
      <trkpt lat="40.621117" lon="-5.032967">
        <ele>2633.0</ele>
        <time>2014-06-30T13:08:31Z</time>
      </trkpt>
      <trkpt lat="40.621083" lon="-5.032983">
        <ele>2635.0</ele>
        <time>2014-06-30T13:08:32Z</time>
      </trkpt>
      <trkpt lat="40.621050" lon="-5.033017">
        <ele>2636.0</ele>
        <time>2014-06-30T13:08:33Z</time>
      </trkpt>
      <trkpt lat="40.621017" lon="-5.033050">
        <ele>2635.0</ele>
        <time>2014-06-30T13:08:34Z</time>
      </trkpt>
      <trkpt lat="40.620983" lon="-5.033083">
        <ele>2636.0</ele>
        <time>2014-06-30T13:08:35Z</time>
      </trkpt>
      <trkpt lat="40.620933" lon="-5.033117">
        <ele>2637.0</ele>
        <time>2014-06-30T13:08:36Z</time>
      </trkpt>
      <trkpt lat="40.620883" lon="-5.033133">
        <ele>2639.0</ele>
        <time>2014-06-30T13:08:37Z</time>
      </trkpt>
      <trkpt lat="40.620817" lon="-5.033150">
        <ele>2640.0</ele>
        <time>2014-06-30T13:08:38Z</time>
      </trkpt>
      <trkpt lat="40.620750" lon="-5.033150">
        <ele>2642.0</ele>
        <time>2014-06-30T13:08:39Z</time>
      </trkpt>
      <trkpt lat="40.620683" lon="-5.033150">
        <ele>2644.0</ele>
        <time>2014-06-30T13:08:40Z</time>
      </trkpt>
      <trkpt lat="40.620617" lon="-5.033117">
        <ele>2646.0</ele>
        <time>2014-06-30T13:08:41Z</time>
      </trkpt>
      <trkpt lat="40.620550" lon="-5.033083">
        <ele>2647.0</ele>
        <time>2014-06-30T13:08:42Z</time>
      </trkpt>
      <trkpt lat="40.620483" lon="-5.033000">
        <ele>2649.0</ele>
        <time>2014-06-30T13:08:43Z</time>
      </trkpt>
      <trkpt lat="40.620417" lon="-5.032917">
        <ele>2650.0</ele>
        <time>2014-06-30T13:08:44Z</time>
      </trkpt>
      <trkpt lat="40.620383" lon="-5.032800">
        <ele>2652.0</ele>
        <time>2014-06-30T13:08:45Z</time>
      </trkpt>
      <trkpt lat="40.620350" lon="-5.032700">
        <ele>2654.0</ele>
        <time>2014-06-30T13:08:46Z</time>
      </trkpt>
      <trkpt lat="40.620317" lon="-5.032600">
        <ele>2656.0</ele>
        <time>2014-06-30T13:08:47Z</time>
      </trkpt>
      <trkpt lat="40.620283" lon="-5.032517">
        <ele>2658.0</ele>
        <time>2014-06-30T13:08:48Z</time>
      </trkpt>
      <trkpt lat="40.620267" lon="-5.032433">
        <ele>2658.0</ele>
        <time>2014-06-30T13:08:49Z</time>
      </trkpt>
      <trkpt lat="40.620233" lon="-5.032317">
        <ele>2657.0</ele>
        <time>2014-06-30T13:08:50Z</time>
      </trkpt>
      <trkpt lat="40.620233" lon="-5.032183">
        <ele>2659.0</ele>
        <time>2014-06-30T13:08:51Z</time>
      </trkpt>
      <trkpt lat="40.620233" lon="-5.032050">
        <ele>2659.0</ele>
        <time>2014-06-30T13:08:52Z</time>
      </trkpt>
      <trkpt lat="40.620267" lon="-5.031933">
        <ele>2660.0</ele>
        <time>2014-06-30T13:08:53Z</time>
      </trkpt>
      <trkpt lat="40.620300" lon="-5.031800">
        <ele>2661.0</ele>
        <time>2014-06-30T13:08:54Z</time>
      </trkpt>
      <trkpt lat="40.620333" lon="-5.031683">
        <ele>2661.0</ele>
        <time>2014-06-30T13:08:55Z</time>
      </trkpt>
      <trkpt lat="40.620367" lon="-5.031550">
        <ele>2662.0</ele>
        <time>2014-06-30T13:08:56Z</time>
      </trkpt>
      <trkpt lat="40.620400" lon="-5.031417">
        <ele>2662.0</ele>
        <time>2014-06-30T13:08:57Z</time>
      </trkpt>
      <trkpt lat="40.620467" lon="-5.031300">
        <ele>2663.0</ele>
        <time>2014-06-30T13:08:58Z</time>
      </trkpt>
      <trkpt lat="40.620533" lon="-5.031183">
        <ele>2663.0</ele>
        <time>2014-06-30T13:08:59Z</time>
      </trkpt>
      <trkpt lat="40.620617" lon="-5.031067">
        <ele>2663.0</ele>
        <time>2014-06-30T13:09:00Z</time>
      </trkpt>
      <trkpt lat="40.620733" lon="-5.030983">
        <ele>2664.0</ele>
        <time>2014-06-30T13:09:01Z</time>
      </trkpt>
      <trkpt lat="40.620850" lon="-5.030950">
        <ele>2664.0</ele>
        <time>2014-06-30T13:09:02Z</time>
      </trkpt>
      <trkpt lat="40.620950" lon="-5.030950">
        <ele>2664.0</ele>
        <time>2014-06-30T13:09:03Z</time>
      </trkpt>
      <trkpt lat="40.621050" lon="-5.030983">
        <ele>2665.0</ele>
        <time>2014-06-30T13:09:04Z</time>
      </trkpt>
      <trkpt lat="40.621133" lon="-5.031033">
        <ele>2665.0</ele>
        <time>2014-06-30T13:09:05Z</time>
      </trkpt>
      <trkpt lat="40.621200" lon="-5.031083">
        <ele>2665.0</ele>
        <time>2014-06-30T13:09:06Z</time>
      </trkpt>
      <trkpt lat="40.621250" lon="-5.031150">
        <ele>2665.0</ele>
        <time>2014-06-30T13:09:07Z</time>
      </trkpt>
      <trkpt lat="40.621317" lon="-5.031217">
        <ele>2665.0</ele>
        <time>2014-06-30T13:09:08Z</time>
      </trkpt>
      <trkpt lat="40.621367" lon="-5.031300">
        <ele>2665.0</ele>
        <time>2014-06-30T13:09:09Z</time>
      </trkpt>
      <trkpt lat="40.621400" lon="-5.031383">
        <ele>2665.0</ele>
        <time>2014-06-30T13:09:10Z</time>
      </trkpt>
      <trkpt lat="40.621417" lon="-5.031450">
        <ele>2666.0</ele>
        <time>2014-06-30T13:09:11Z</time>
      </trkpt>
      <trkpt lat="40.621433" lon="-5.031517">
        <ele>2666.0</ele>
        <time>2014-06-30T13:09:12Z</time>
      </trkpt>
      <trkpt lat="40.621433" lon="-5.031567">
        <ele>2667.0</ele>
        <time>2014-06-30T13:09:13Z</time>
      </trkpt>
      <trkpt lat="40.621417" lon="-5.031617">
        <ele>2667.0</ele>
        <time>2014-06-30T13:09:14Z</time>
      </trkpt>
      <trkpt lat="40.621400" lon="-5.031667">
        <ele>2668.0</ele>
        <time>2014-06-30T13:09:15Z</time>
      </trkpt>
      <trkpt lat="40.621383" lon="-5.031733">
        <ele>2668.0</ele>
        <time>2014-06-30T13:09:16Z</time>
      </trkpt>
      <trkpt lat="40.621333" lon="-5.031783">
        <ele>2670.0</ele>
        <time>2014-06-30T13:09:17Z</time>
      </trkpt>
      <trkpt lat="40.621283" lon="-5.031817">
        <ele>2672.0</ele>
        <time>2014-06-30T13:09:18Z</time>
      </trkpt>
      <trkpt lat="40.621233" lon="-5.031850">
        <ele>2675.0</ele>
        <time>2014-06-30T13:09:19Z</time>
      </trkpt>
      <trkpt lat="40.621183" lon="-5.031867">
        <ele>2676.0</ele>
        <time>2014-06-30T13:09:20Z</time>
      </trkpt>
      <trkpt lat="40.621133" lon="-5.031900">
        <ele>2676.0</ele>
        <time>2014-06-30T13:09:21Z</time>
      </trkpt>
      <trkpt lat="40.621083" lon="-5.031933">
        <ele>2676.0</ele>
        <time>2014-06-30T13:09:22Z</time>
      </trkpt>
      <trkpt lat="40.621033" lon="-5.031950">
        <ele>2676.0</ele>
        <time>2014-06-30T13:09:23Z</time>
      </trkpt>
      <trkpt lat="40.620983" lon="-5.031967">
        <ele>2676.0</ele>
        <time>2014-06-30T13:09:24Z</time>
      </trkpt>
      <trkpt lat="40.620900" lon="-5.031950">
        <ele>2676.0</ele>
        <time>2014-06-30T13:09:25Z</time>
      </trkpt>
      <trkpt lat="40.620833" lon="-5.031933">
        <ele>2677.0</ele>
        <time>2014-06-30T13:09:26Z</time>
      </trkpt>
      <trkpt lat="40.620767" lon="-5.031900">
        <ele>2677.0</ele>
        <time>2014-06-30T13:09:27Z</time>
      </trkpt>
      <trkpt lat="40.620700" lon="-5.031883">
        <ele>2678.0</ele>
        <time>2014-06-30T13:09:28Z</time>
      </trkpt>
      <trkpt lat="40.620633" lon="-5.031850">
        <ele>2678.0</ele>
        <time>2014-06-30T13:09:29Z</time>
      </trkpt>
      <trkpt lat="40.620583" lon="-5.031800">
        <ele>2677.0</ele>
        <time>2014-06-30T13:09:30Z</time>
      </trkpt>
      <trkpt lat="40.620517" lon="-5.031733">
        <ele>2676.0</ele>
        <time>2014-06-30T13:09:31Z</time>
      </trkpt>
      <trkpt lat="40.620467" lon="-5.031633">
        <ele>2676.0</ele>
        <time>2014-06-30T13:09:32Z</time>
      </trkpt>
      <trkpt lat="40.620417" lon="-5.031517">
        <ele>2675.0</ele>
        <time>2014-06-30T13:09:33Z</time>
      </trkpt>
      <trkpt lat="40.620383" lon="-5.031400">
        <ele>2676.0</ele>
        <time>2014-06-30T13:09:34Z</time>
      </trkpt>
      <trkpt lat="40.620367" lon="-5.031300">
        <ele>2677.0</ele>
        <time>2014-06-30T13:09:35Z</time>
      </trkpt>
      <trkpt lat="40.620367" lon="-5.031183">
        <ele>2677.0</ele>
        <time>2014-06-30T13:09:36Z</time>
      </trkpt>
      <trkpt lat="40.620383" lon="-5.031083">
        <ele>2677.0</ele>
        <time>2014-06-30T13:09:37Z</time>
      </trkpt>
      <trkpt lat="40.620400" lon="-5.030983">
        <ele>2677.0</ele>
        <time>2014-06-30T13:09:38Z</time>
      </trkpt>
      <trkpt lat="40.620433" lon="-5.030883">
        <ele>2677.0</ele>
        <time>2014-06-30T13:09:39Z</time>
      </trkpt>
      <trkpt lat="40.620467" lon="-5.030767">
        <ele>2676.0</ele>
        <time>2014-06-30T13:09:40Z</time>
      </trkpt>
      <trkpt lat="40.620517" lon="-5.030667">
        <ele>2676.0</ele>
        <time>2014-06-30T13:09:41Z</time>
      </trkpt>
      <trkpt lat="40.620583" lon="-5.030567">
        <ele>2675.0</ele>
        <time>2014-06-30T13:09:42Z</time>
      </trkpt>
      <trkpt lat="40.620683" lon="-5.030467">
        <ele>2675.0</ele>
        <time>2014-06-30T13:09:43Z</time>
      </trkpt>
      <trkpt lat="40.620783" lon="-5.030417">
        <ele>2675.0</ele>
        <time>2014-06-30T13:09:44Z</time>
      </trkpt>
      <trkpt lat="40.620883" lon="-5.030400">
        <ele>2674.0</ele>
        <time>2014-06-30T13:09:45Z</time>
      </trkpt>
      <trkpt lat="40.620967" lon="-5.030400">
        <ele>2673.0</ele>
        <time>2014-06-30T13:09:46Z</time>
      </trkpt>
      <trkpt lat="40.621033" lon="-5.030450">
        <ele>2672.0</ele>
        <time>2014-06-30T13:09:47Z</time>
      </trkpt>
      <trkpt lat="40.621100" lon="-5.030517">
        <ele>2672.0</ele>
        <time>2014-06-30T13:09:48Z</time>
      </trkpt>
      <trkpt lat="40.621167" lon="-5.030583">
        <ele>2672.0</ele>
        <time>2014-06-30T13:09:49Z</time>
      </trkpt>
      <trkpt lat="40.621217" lon="-5.030650">
        <ele>2672.0</ele>
        <time>2014-06-30T13:09:50Z</time>
      </trkpt>
      <trkpt lat="40.621267" lon="-5.030700">
        <ele>2672.0</ele>
        <time>2014-06-30T13:09:51Z</time>
      </trkpt>
      <trkpt lat="40.621317" lon="-5.030767">
        <ele>2672.0</ele>
        <time>2014-06-30T13:09:52Z</time>
      </trkpt>
      <trkpt lat="40.621367" lon="-5.030850">
        <ele>2671.0</ele>
        <time>2014-06-30T13:09:53Z</time>
      </trkpt>
      <trkpt lat="40.621383" lon="-5.030933">
        <ele>2671.0</ele>
        <time>2014-06-30T13:09:54Z</time>
      </trkpt>
      <trkpt lat="40.621417" lon="-5.031033">
        <ele>2670.0</ele>
        <time>2014-06-30T13:09:55Z</time>
      </trkpt>
      <trkpt lat="40.621450" lon="-5.031133">
        <ele>2670.0</ele>
        <time>2014-06-30T13:09:56Z</time>
      </trkpt>
      <trkpt lat="40.621500" lon="-5.031250">
        <ele>2671.0</ele>
        <time>2014-06-30T13:09:57Z</time>
      </trkpt>
      <trkpt lat="40.621533" lon="-5.031350">
        <ele>2670.0</ele>
        <time>2014-06-30T13:09:58Z</time>
      </trkpt>
      <trkpt lat="40.621567" lon="-5.031450">
        <ele>2670.0</ele>
        <time>2014-06-30T13:09:59Z</time>
      </trkpt>
      <trkpt lat="40.621600" lon="-5.031567">
        <ele>2669.0</ele>
        <time>2014-06-30T13:10:00Z</time>
      </trkpt>
      <trkpt lat="40.621617" lon="-5.031683">
        <ele>2669.0</ele>
        <time>2014-06-30T13:10:01Z</time>
      </trkpt>
      <trkpt lat="40.621633" lon="-5.031800">
        <ele>2669.0</ele>
        <time>2014-06-30T13:10:02Z</time>
      </trkpt>
      <trkpt lat="40.621633" lon="-5.031900">
        <ele>2669.0</ele>
        <time>2014-06-30T13:10:03Z</time>
      </trkpt>
      <trkpt lat="40.621650" lon="-5.032000">
        <ele>2668.0</ele>
        <time>2014-06-30T13:10:04Z</time>
      </trkpt>
      <trkpt lat="40.621650" lon="-5.032083">
        <ele>2669.0</ele>
        <time>2014-06-30T13:10:05Z</time>
      </trkpt>
      <trkpt lat="40.621617" lon="-5.032150">
        <ele>2670.0</ele>
        <time>2014-06-30T13:10:06Z</time>
      </trkpt>
      <trkpt lat="40.621600" lon="-5.032217">
        <ele>2671.0</ele>
        <time>2014-06-30T13:10:07Z</time>
      </trkpt>
      <trkpt lat="40.621583" lon="-5.032250">
        <ele>2671.0</ele>
        <time>2014-06-30T13:10:08Z</time>
      </trkpt>
      <trkpt lat="40.621567" lon="-5.032300">
        <ele>2670.0</ele>
        <time>2014-06-30T13:10:09Z</time>
      </trkpt>
      <trkpt lat="40.621517" lon="-5.032333">
        <ele>2668.0</ele>
        <time>2014-06-30T13:10:10Z</time>
      </trkpt>
      <trkpt lat="40.621467" lon="-5.032367">
        <ele>2667.0</ele>
        <time>2014-06-30T13:10:11Z</time>
      </trkpt>
      <trkpt lat="40.621400" lon="-5.032350">
        <ele>2667.0</ele>
        <time>2014-06-30T13:10:12Z</time>
      </trkpt>
      <trkpt lat="40.621333" lon="-5.032317">
        <ele>2667.0</ele>
        <time>2014-06-30T13:10:13Z</time>
      </trkpt>
      <trkpt lat="40.621267" lon="-5.032267">
        <ele>2668.0</ele>
        <time>2014-06-30T13:10:14Z</time>
      </trkpt>
      <trkpt lat="40.621200" lon="-5.032200">
        <ele>2668.0</ele>
        <time>2014-06-30T13:10:15Z</time>
      </trkpt>
      <trkpt lat="40.621133" lon="-5.032133">
        <ele>2668.0</ele>
        <time>2014-06-30T13:10:16Z</time>
      </trkpt>
      <trkpt lat="40.621083" lon="-5.032067">
        <ele>2667.0</ele>
        <time>2014-06-30T13:10:17Z</time>
      </trkpt>
      <trkpt lat="40.621017" lon="-5.031983">
        <ele>2667.0</ele>
        <time>2014-06-30T13:10:18Z</time>
      </trkpt>
      <trkpt lat="40.620967" lon="-5.031917">
        <ele>2666.0</ele>
        <time>2014-06-30T13:10:19Z</time>
      </trkpt>
      <trkpt lat="40.620917" lon="-5.031833">
        <ele>2666.0</ele>
        <time>2014-06-30T13:10:20Z</time>
      </trkpt>
      <trkpt lat="40.620850" lon="-5.031750">
        <ele>2666.0</ele>
        <time>2014-06-30T13:10:21Z</time>
      </trkpt>
      <trkpt lat="40.620783" lon="-5.031683">
        <ele>2665.0</ele>
        <time>2014-06-30T13:10:22Z</time>
      </trkpt>
      <trkpt lat="40.620717" lon="-5.031600">
        <ele>2665.0</ele>
        <time>2014-06-30T13:10:23Z</time>
      </trkpt>
      <trkpt lat="40.620667" lon="-5.031533">
        <ele>2665.0</ele>
        <time>2014-06-30T13:10:24Z</time>
      </trkpt>
      <trkpt lat="40.620600" lon="-5.031467">
        <ele>2664.0</ele>
        <time>2014-06-30T13:10:25Z</time>
      </trkpt>
      <trkpt lat="40.620550" lon="-5.031400">
        <ele>2663.0</ele>
        <time>2014-06-30T13:10:26Z</time>
      </trkpt>
      <trkpt lat="40.620483" lon="-5.031333">
        <ele>2663.0</ele>
        <time>2014-06-30T13:10:27Z</time>
      </trkpt>
      <trkpt lat="40.620417" lon="-5.031250">
        <ele>2662.0</ele>
        <time>2014-06-30T13:10:28Z</time>
      </trkpt>
      <trkpt lat="40.620383" lon="-5.031150">
        <ele>2662.0</ele>
        <time>2014-06-30T13:10:29Z</time>
      </trkpt>
      <trkpt lat="40.620333" lon="-5.031067">
        <ele>2661.0</ele>
        <time>2014-06-30T13:10:30Z</time>
      </trkpt>
      <trkpt lat="40.620283" lon="-5.030967">
        <ele>2661.0</ele>
        <time>2014-06-30T13:10:31Z</time>
      </trkpt>
      <trkpt lat="40.620233" lon="-5.030867">
        <ele>2659.0</ele>
        <time>2014-06-30T13:10:32Z</time>
      </trkpt>
      <trkpt lat="40.620167" lon="-5.030767">
        <ele>2658.0</ele>
        <time>2014-06-30T13:10:33Z</time>
      </trkpt>
      <trkpt lat="40.620117" lon="-5.030650">
        <ele>2658.0</ele>
        <time>2014-06-30T13:10:34Z</time>
      </trkpt>
      <trkpt lat="40.620117" lon="-5.030533">
        <ele>2658.0</ele>
        <time>2014-06-30T13:10:35Z</time>
      </trkpt>
      <trkpt lat="40.620117" lon="-5.030433">
        <ele>2658.0</ele>
        <time>2014-06-30T13:10:36Z</time>
      </trkpt>
      <trkpt lat="40.620117" lon="-5.030350">
        <ele>2657.0</ele>
        <time>2014-06-30T13:10:37Z</time>
      </trkpt>
      <trkpt lat="40.620117" lon="-5.030283">
        <ele>2657.0</ele>
        <time>2014-06-30T13:10:38Z</time>
      </trkpt>
      <trkpt lat="40.620117" lon="-5.030233">
        <ele>2655.0</ele>
        <time>2014-06-30T13:10:39Z</time>
      </trkpt>
      <trkpt lat="40.620117" lon="-5.030150">
        <ele>2653.0</ele>
        <time>2014-06-30T13:10:40Z</time>
      </trkpt>
      <trkpt lat="40.620117" lon="-5.030033">
        <ele>2651.0</ele>
        <time>2014-06-30T13:10:41Z</time>
      </trkpt>
      <trkpt lat="40.620117" lon="-5.029900">
        <ele>2648.0</ele>
        <time>2014-06-30T13:10:42Z</time>
      </trkpt>
      <trkpt lat="40.620133" lon="-5.029750">
        <ele>2647.0</ele>
        <time>2014-06-30T13:10:43Z</time>
      </trkpt>
      <trkpt lat="40.620133" lon="-5.029583">
        <ele>2646.0</ele>
        <time>2014-06-30T13:10:44Z</time>
      </trkpt>
      <trkpt lat="40.620133" lon="-5.029433">
        <ele>2645.0</ele>
        <time>2014-06-30T13:10:45Z</time>
      </trkpt>
      <trkpt lat="40.620133" lon="-5.029283">
        <ele>2647.0</ele>
        <time>2014-06-30T13:10:46Z</time>
      </trkpt>
      <trkpt lat="40.620133" lon="-5.029167">
        <ele>2652.0</ele>
        <time>2014-06-30T13:10:47Z</time>
      </trkpt>
      <trkpt lat="40.620133" lon="-5.029067">
        <ele>2656.0</ele>
        <time>2014-06-30T13:10:48Z</time>
      </trkpt>
      <trkpt lat="40.620150" lon="-5.029017">
        <ele>2657.0</ele>
        <time>2014-06-30T13:10:49Z</time>
      </trkpt>
      <trkpt lat="40.620150" lon="-5.028950">
        <ele>2658.0</ele>
        <time>2014-06-30T13:10:50Z</time>
      </trkpt>
      <trkpt lat="40.620167" lon="-5.028850">
        <ele>2658.0</ele>
        <time>2014-06-30T13:10:51Z</time>
      </trkpt>
      <trkpt lat="40.620200" lon="-5.028750">
        <ele>2657.0</ele>
        <time>2014-06-30T13:10:52Z</time>
      </trkpt>
      <trkpt lat="40.620283" lon="-5.028667">
        <ele>2657.0</ele>
        <time>2014-06-30T13:10:53Z</time>
      </trkpt>
      <trkpt lat="40.620383" lon="-5.028633">
        <ele>2657.0</ele>
        <time>2014-06-30T13:10:54Z</time>
      </trkpt>
      <trkpt lat="40.620467" lon="-5.028667">
        <ele>2656.0</ele>
        <time>2014-06-30T13:10:55Z</time>
      </trkpt>
      <trkpt lat="40.620550" lon="-5.028733">
        <ele>2656.0</ele>
        <time>2014-06-30T13:10:56Z</time>
      </trkpt>
      <trkpt lat="40.620617" lon="-5.028817">
        <ele>2657.0</ele>
        <time>2014-06-30T13:10:57Z</time>
      </trkpt>
      <trkpt lat="40.620667" lon="-5.028883">
        <ele>2659.0</ele>
        <time>2014-06-30T13:10:58Z</time>
      </trkpt>
      <trkpt lat="40.620700" lon="-5.028950">
        <ele>2657.0</ele>
        <time>2014-06-30T13:10:59Z</time>
      </trkpt>
      <trkpt lat="40.620717" lon="-5.029017">
        <ele>2657.0</ele>
        <time>2014-06-30T13:11:00Z</time>
      </trkpt>
      <trkpt lat="40.620733" lon="-5.029083">
        <ele>2657.0</ele>
        <time>2014-06-30T13:11:01Z</time>
      </trkpt>
      <trkpt lat="40.620750" lon="-5.029150">
        <ele>2658.0</ele>
        <time>2014-06-30T13:11:02Z</time>
      </trkpt>
      <trkpt lat="40.620733" lon="-5.029233">
        <ele>2658.0</ele>
        <time>2014-06-30T13:11:03Z</time>
      </trkpt>
      <trkpt lat="40.620683" lon="-5.029267">
        <ele>2659.0</ele>
        <time>2014-06-30T13:11:04Z</time>
      </trkpt>
      <trkpt lat="40.620617" lon="-5.029283">
        <ele>2659.0</ele>
        <time>2014-06-30T13:11:05Z</time>
      </trkpt>
      <trkpt lat="40.620550" lon="-5.029283">
        <ele>2660.0</ele>
        <time>2014-06-30T13:11:06Z</time>
      </trkpt>
      <trkpt lat="40.620483" lon="-5.029267">
        <ele>2661.0</ele>
        <time>2014-06-30T13:11:07Z</time>
      </trkpt>
      <trkpt lat="40.620433" lon="-5.029250">
        <ele>2663.0</ele>
        <time>2014-06-30T13:11:08Z</time>
      </trkpt>
      <trkpt lat="40.620383" lon="-5.029217">
        <ele>2664.0</ele>
        <time>2014-06-30T13:11:09Z</time>
      </trkpt>
      <trkpt lat="40.620350" lon="-5.029167">
        <ele>2665.0</ele>
        <time>2014-06-30T13:11:10Z</time>
      </trkpt>
      <trkpt lat="40.620317" lon="-5.029100">
        <ele>2665.0</ele>
        <time>2014-06-30T13:11:11Z</time>
      </trkpt>
      <trkpt lat="40.620300" lon="-5.029000">
        <ele>2665.0</ele>
        <time>2014-06-30T13:11:12Z</time>
      </trkpt>
      <trkpt lat="40.620267" lon="-5.028900">
        <ele>2664.0</ele>
        <time>2014-06-30T13:11:13Z</time>
      </trkpt>
      <trkpt lat="40.620250" lon="-5.028783">
        <ele>2663.0</ele>
        <time>2014-06-30T13:11:14Z</time>
      </trkpt>
      <trkpt lat="40.620233" lon="-5.028667">
        <ele>2663.0</ele>
        <time>2014-06-30T13:11:15Z</time>
      </trkpt>
      <trkpt lat="40.620233" lon="-5.028533">
        <ele>2663.0</ele>
        <time>2014-06-30T13:11:16Z</time>
      </trkpt>
      <trkpt lat="40.620217" lon="-5.028417">
        <ele>2663.0</ele>
        <time>2014-06-30T13:11:17Z</time>
      </trkpt>
      <trkpt lat="40.620217" lon="-5.028300">
        <ele>2663.0</ele>
        <time>2014-06-30T13:11:18Z</time>
      </trkpt>
      <trkpt lat="40.620200" lon="-5.028200">
        <ele>2663.0</ele>
        <time>2014-06-30T13:11:19Z</time>
      </trkpt>
      <trkpt lat="40.620183" lon="-5.028083">
        <ele>2663.0</ele>
        <time>2014-06-30T13:11:20Z</time>
      </trkpt>
      <trkpt lat="40.620183" lon="-5.027967">
        <ele>2663.0</ele>
        <time>2014-06-30T13:11:21Z</time>
      </trkpt>
      <trkpt lat="40.620183" lon="-5.027817">
        <ele>2662.0</ele>
        <time>2014-06-30T13:11:22Z</time>
      </trkpt>
      <trkpt lat="40.620183" lon="-5.027683">
        <ele>2661.0</ele>
        <time>2014-06-30T13:11:23Z</time>
      </trkpt>
      <trkpt lat="40.620217" lon="-5.027550">
        <ele>2660.0</ele>
        <time>2014-06-30T13:11:24Z</time>
      </trkpt>
      <trkpt lat="40.620233" lon="-5.027417">
        <ele>2660.0</ele>
        <time>2014-06-30T13:11:25Z</time>
      </trkpt>
      <trkpt lat="40.620267" lon="-5.027300">
        <ele>2659.0</ele>
        <time>2014-06-30T13:11:26Z</time>
      </trkpt>
      <trkpt lat="40.620283" lon="-5.027167">
        <ele>2658.0</ele>
        <time>2014-06-30T13:11:27Z</time>
      </trkpt>
      <trkpt lat="40.620317" lon="-5.027033">
        <ele>2657.0</ele>
        <time>2014-06-30T13:11:28Z</time>
      </trkpt>
      <trkpt lat="40.620333" lon="-5.026883">
        <ele>2656.0</ele>
        <time>2014-06-30T13:11:29Z</time>
      </trkpt>
      <trkpt lat="40.620383" lon="-5.026733">
        <ele>2655.0</ele>
        <time>2014-06-30T13:11:30Z</time>
      </trkpt>
      <trkpt lat="40.620417" lon="-5.026600">
        <ele>2655.0</ele>
        <time>2014-06-30T13:11:31Z</time>
      </trkpt>
      <trkpt lat="40.620450" lon="-5.026450">
        <ele>2653.0</ele>
        <time>2014-06-30T13:11:32Z</time>
      </trkpt>
      <trkpt lat="40.620467" lon="-5.026317">
        <ele>2651.0</ele>
        <time>2014-06-30T13:11:33Z</time>
      </trkpt>
      <trkpt lat="40.620500" lon="-5.026183">
        <ele>2650.0</ele>
        <time>2014-06-30T13:11:34Z</time>
      </trkpt>
      <trkpt lat="40.620517" lon="-5.026017">
        <ele>2648.0</ele>
        <time>2014-06-30T13:11:35Z</time>
      </trkpt>
      <trkpt lat="40.620550" lon="-5.025867">
        <ele>2645.0</ele>
        <time>2014-06-30T13:11:36Z</time>
      </trkpt>
      <trkpt lat="40.620567" lon="-5.025717">
        <ele>2643.0</ele>
        <time>2014-06-30T13:11:37Z</time>
      </trkpt>
      <trkpt lat="40.620567" lon="-5.025567">
        <ele>2641.0</ele>
        <time>2014-06-30T13:11:38Z</time>
      </trkpt>
      <trkpt lat="40.620567" lon="-5.025433">
        <ele>2638.0</ele>
        <time>2014-06-30T13:11:39Z</time>
      </trkpt>
      <trkpt lat="40.620583" lon="-5.025300">
        <ele>2636.0</ele>
        <time>2014-06-30T13:11:40Z</time>
      </trkpt>
      <trkpt lat="40.620600" lon="-5.025167">
        <ele>2633.0</ele>
        <time>2014-06-30T13:11:41Z</time>
      </trkpt>
      <trkpt lat="40.620617" lon="-5.025017">
        <ele>2630.0</ele>
        <time>2014-06-30T13:11:42Z</time>
      </trkpt>
      <trkpt lat="40.620617" lon="-5.024867">
        <ele>2625.0</ele>
        <time>2014-06-30T13:11:43Z</time>
      </trkpt>
      <trkpt lat="40.620617" lon="-5.024733">
        <ele>2619.0</ele>
        <time>2014-06-30T13:11:44Z</time>
      </trkpt>
      <trkpt lat="40.620600" lon="-5.024583">
        <ele>2614.0</ele>
        <time>2014-06-30T13:11:45Z</time>
      </trkpt>
      <trkpt lat="40.620583" lon="-5.024433">
        <ele>2609.0</ele>
        <time>2014-06-30T13:11:46Z</time>
      </trkpt>
      <trkpt lat="40.620567" lon="-5.024267">
        <ele>2604.0</ele>
        <time>2014-06-30T13:11:47Z</time>
      </trkpt>
      <trkpt lat="40.620567" lon="-5.024117">
        <ele>2600.0</ele>
        <time>2014-06-30T13:11:48Z</time>
      </trkpt>
      <trkpt lat="40.620567" lon="-5.024000">
        <ele>2597.0</ele>
        <time>2014-06-30T13:11:49Z</time>
      </trkpt>
      <trkpt lat="40.620533" lon="-5.023867">
        <ele>2595.0</ele>
        <time>2014-06-30T13:11:50Z</time>
      </trkpt>
      <trkpt lat="40.620517" lon="-5.023717">
        <ele>2603.0</ele>
        <time>2014-06-30T13:11:51Z</time>
      </trkpt>
      <trkpt lat="40.620500" lon="-5.023600">
        <ele>2603.0</ele>
        <time>2014-06-30T13:11:52Z</time>
      </trkpt>
      <trkpt lat="40.620500" lon="-5.023467">
        <ele>2603.0</ele>
        <time>2014-06-30T13:11:53Z</time>
      </trkpt>
      <trkpt lat="40.620483" lon="-5.023333">
        <ele>2602.0</ele>
        <time>2014-06-30T13:11:54Z</time>
      </trkpt>
      <trkpt lat="40.620467" lon="-5.023183">
        <ele>2601.0</ele>
        <time>2014-06-30T13:11:55Z</time>
      </trkpt>
      <trkpt lat="40.620433" lon="-5.023083">
        <ele>2600.0</ele>
        <time>2014-06-30T13:11:56Z</time>
      </trkpt>
      <trkpt lat="40.620400" lon="-5.023000">
        <ele>2600.0</ele>
        <time>2014-06-30T13:11:57Z</time>
      </trkpt>
      <trkpt lat="40.620367" lon="-5.022933">
        <ele>2599.0</ele>
        <time>2014-06-30T13:11:58Z</time>
      </trkpt>
      <trkpt lat="40.620333" lon="-5.022883">
        <ele>2599.0</ele>
        <time>2014-06-30T13:11:59Z</time>
      </trkpt>
      <trkpt lat="40.620317" lon="-5.022833">
        <ele>2598.0</ele>
        <time>2014-06-30T13:12:00Z</time>
      </trkpt>
      <trkpt lat="40.620283" lon="-5.022767">
        <ele>2597.0</ele>
        <time>2014-06-30T13:12:01Z</time>
      </trkpt>
      <trkpt lat="40.620267" lon="-5.022700">
        <ele>2597.0</ele>
        <time>2014-06-30T13:12:02Z</time>
      </trkpt>
      <trkpt lat="40.620233" lon="-5.022617">
        <ele>2597.0</ele>
        <time>2014-06-30T13:12:03Z</time>
      </trkpt>
      <trkpt lat="40.620200" lon="-5.022550">
        <ele>2596.0</ele>
        <time>2014-06-30T13:12:04Z</time>
      </trkpt>
      <trkpt lat="40.620183" lon="-5.022467">
        <ele>2597.0</ele>
        <time>2014-06-30T13:12:05Z</time>
      </trkpt>
      <trkpt lat="40.620167" lon="-5.022400">
        <ele>2597.0</ele>
        <time>2014-06-30T13:12:06Z</time>
      </trkpt>
      <trkpt lat="40.620150" lon="-5.022350">
        <ele>2597.0</ele>
        <time>2014-06-30T13:12:07Z</time>
      </trkpt>
      <trkpt lat="40.620133" lon="-5.022317">
        <ele>2596.0</ele>
        <time>2014-06-30T13:12:08Z</time>
      </trkpt>
      <trkpt lat="40.620117" lon="-5.022300">
        <ele>2596.0</ele>
        <time>2014-06-30T13:12:09Z</time>
      </trkpt>
      <trkpt lat="40.620100" lon="-5.022267">
        <ele>2596.0</ele>
        <time>2014-06-30T13:12:10Z</time>
      </trkpt>
      <trkpt lat="40.620083" lon="-5.022250">
        <ele>2596.0</ele>
        <time>2014-06-30T13:12:11Z</time>
      </trkpt>
      <trkpt lat="40.620067" lon="-5.022217">
        <ele>2596.0</ele>
        <time>2014-06-30T13:12:12Z</time>
      </trkpt>
      <trkpt lat="40.620050" lon="-5.022167">
        <ele>2595.0</ele>
        <time>2014-06-30T13:12:13Z</time>
      </trkpt>
      <trkpt lat="40.620017" lon="-5.022117">
        <ele>2595.0</ele>
        <time>2014-06-30T13:12:14Z</time>
      </trkpt>
      <trkpt lat="40.620017" lon="-5.022050">
        <ele>2594.0</ele>
        <time>2014-06-30T13:12:15Z</time>
      </trkpt>
      <trkpt lat="40.619983" lon="-5.021950">
        <ele>2592.0</ele>
        <time>2014-06-30T13:12:16Z</time>
      </trkpt>
      <trkpt lat="40.619967" lon="-5.021850">
        <ele>2591.0</ele>
        <time>2014-06-30T13:12:17Z</time>
      </trkpt>
      <trkpt lat="40.619933" lon="-5.021717">
        <ele>2590.0</ele>
        <time>2014-06-30T13:12:18Z</time>
      </trkpt>
      <trkpt lat="40.619900" lon="-5.021600">
        <ele>2589.0</ele>
        <time>2014-06-30T13:12:19Z</time>
      </trkpt>
      <trkpt lat="40.619850" lon="-5.021500">
        <ele>2588.0</ele>
        <time>2014-06-30T13:12:20Z</time>
      </trkpt>
      <trkpt lat="40.619800" lon="-5.021417">
        <ele>2587.0</ele>
        <time>2014-06-30T13:12:21Z</time>
      </trkpt>
      <trkpt lat="40.619733" lon="-5.021317">
        <ele>2589.0</ele>
        <time>2014-06-30T13:12:22Z</time>
      </trkpt>
      <trkpt lat="40.619700" lon="-5.021200">
        <ele>2589.0</ele>
        <time>2014-06-30T13:12:23Z</time>
      </trkpt>
      <trkpt lat="40.619667" lon="-5.021050">
        <ele>2589.0</ele>
        <time>2014-06-30T13:12:24Z</time>
      </trkpt>
      <trkpt lat="40.619650" lon="-5.020917">
        <ele>2589.0</ele>
        <time>2014-06-30T13:12:25Z</time>
      </trkpt>
      <trkpt lat="40.619617" lon="-5.020783">
        <ele>2590.0</ele>
        <time>2014-06-30T13:12:26Z</time>
      </trkpt>
      <trkpt lat="40.619583" lon="-5.020667">
        <ele>2592.0</ele>
        <time>2014-06-30T13:12:27Z</time>
      </trkpt>
      <trkpt lat="40.619567" lon="-5.020583">
        <ele>2596.0</ele>
        <time>2014-06-30T13:12:28Z</time>
      </trkpt>
      <trkpt lat="40.619583" lon="-5.020500">
        <ele>2598.0</ele>
        <time>2014-06-30T13:12:29Z</time>
      </trkpt>
      <trkpt lat="40.619617" lon="-5.020417">
        <ele>2601.0</ele>
        <time>2014-06-30T13:12:30Z</time>
      </trkpt>
      <trkpt lat="40.619667" lon="-5.020333">
        <ele>2602.0</ele>
        <time>2014-06-30T13:12:31Z</time>
      </trkpt>
      <trkpt lat="40.619717" lon="-5.020250">
        <ele>2603.0</ele>
        <time>2014-06-30T13:12:32Z</time>
      </trkpt>
      <trkpt lat="40.619800" lon="-5.020167">
        <ele>2599.0</ele>
        <time>2014-06-30T13:12:33Z</time>
      </trkpt>
      <trkpt lat="40.619883" lon="-5.020100">
        <ele>2600.0</ele>
        <time>2014-06-30T13:12:34Z</time>
      </trkpt>
      <trkpt lat="40.619983" lon="-5.020083">
        <ele>2600.0</ele>
        <time>2014-06-30T13:12:35Z</time>
      </trkpt>
      <trkpt lat="40.620100" lon="-5.020133">
        <ele>2600.0</ele>
        <time>2014-06-30T13:12:36Z</time>
      </trkpt>
      <trkpt lat="40.620183" lon="-5.020200">
        <ele>2601.0</ele>
        <time>2014-06-30T13:12:37Z</time>
      </trkpt>
      <trkpt lat="40.620267" lon="-5.020283">
        <ele>2601.0</ele>
        <time>2014-06-30T13:12:38Z</time>
      </trkpt>
      <trkpt lat="40.620317" lon="-5.020350">
        <ele>2603.0</ele>
        <time>2014-06-30T13:12:39Z</time>
      </trkpt>
      <trkpt lat="40.620317" lon="-5.020400">
        <ele>2604.0</ele>
        <time>2014-06-30T13:12:40Z</time>
      </trkpt>
      <trkpt lat="40.620283" lon="-5.020433">
        <ele>2603.0</ele>
        <time>2014-06-30T13:12:41Z</time>
      </trkpt>
      <trkpt lat="40.620217" lon="-5.020450">
        <ele>2605.0</ele>
        <time>2014-06-30T13:12:42Z</time>
      </trkpt>
      <trkpt lat="40.620167" lon="-5.020450">
        <ele>2605.0</ele>
        <time>2014-06-30T13:12:43Z</time>
      </trkpt>
      <trkpt lat="40.620117" lon="-5.020450">
        <ele>2605.0</ele>
        <time>2014-06-30T13:12:44Z</time>
      </trkpt>
      <trkpt lat="40.620067" lon="-5.020450">
        <ele>2606.0</ele>
        <time>2014-06-30T13:12:45Z</time>
      </trkpt>
      <trkpt lat="40.620033" lon="-5.020467">
        <ele>2608.0</ele>
        <time>2014-06-30T13:12:46Z</time>
      </trkpt>
      <trkpt lat="40.620017" lon="-5.020467">
        <ele>2611.0</ele>
        <time>2014-06-30T13:12:47Z</time>
      </trkpt>
      <trkpt lat="40.620017" lon="-5.020467">
        <ele>2613.0</ele>
        <time>2014-06-30T13:12:48Z</time>
      </trkpt>
      <trkpt lat="40.620017" lon="-5.020450">
        <ele>2612.0</ele>
        <time>2014-06-30T13:12:49Z</time>
      </trkpt>
      <trkpt lat="40.620000" lon="-5.020400">
        <ele>2612.0</ele>
        <time>2014-06-30T13:12:50Z</time>
      </trkpt>
      <trkpt lat="40.619983" lon="-5.020317">
        <ele>2612.0</ele>
        <time>2014-06-30T13:12:51Z</time>
      </trkpt>
      <trkpt lat="40.620000" lon="-5.020217">
        <ele>2612.0</ele>
        <time>2014-06-30T13:12:52Z</time>
      </trkpt>
      <trkpt lat="40.620050" lon="-5.020117">
        <ele>2613.0</ele>
        <time>2014-06-30T13:12:53Z</time>
      </trkpt>
      <trkpt lat="40.620133" lon="-5.020017">
        <ele>2614.0</ele>
        <time>2014-06-30T13:12:54Z</time>
      </trkpt>
      <trkpt lat="40.620217" lon="-5.019933">
        <ele>2614.0</ele>
        <time>2014-06-30T13:12:55Z</time>
      </trkpt>
      <trkpt lat="40.620317" lon="-5.019867">
        <ele>2615.0</ele>
        <time>2014-06-30T13:12:56Z</time>
      </trkpt>
      <trkpt lat="40.620417" lon="-5.019783">
        <ele>2616.0</ele>
        <time>2014-06-30T13:12:57Z</time>
      </trkpt>
      <trkpt lat="40.620517" lon="-5.019717">
        <ele>2617.0</ele>
        <time>2014-06-30T13:12:58Z</time>
      </trkpt>
      <trkpt lat="40.620633" lon="-5.019633">
        <ele>2618.0</ele>
        <time>2014-06-30T13:12:59Z</time>
      </trkpt>
      <trkpt lat="40.620750" lon="-5.019567">
        <ele>2619.0</ele>
        <time>2014-06-30T13:13:00Z</time>
      </trkpt>
      <trkpt lat="40.620850" lon="-5.019500">
        <ele>2620.0</ele>
        <time>2014-06-30T13:13:01Z</time>
      </trkpt>
      <trkpt lat="40.620950" lon="-5.019433">
        <ele>2621.0</ele>
        <time>2014-06-30T13:13:02Z</time>
      </trkpt>
      <trkpt lat="40.621067" lon="-5.019383">
        <ele>2621.0</ele>
        <time>2014-06-30T13:13:03Z</time>
      </trkpt>
      <trkpt lat="40.621167" lon="-5.019367">
        <ele>2622.0</ele>
        <time>2014-06-30T13:13:04Z</time>
      </trkpt>
      <trkpt lat="40.621283" lon="-5.019383">
        <ele>2622.0</ele>
        <time>2014-06-30T13:13:05Z</time>
      </trkpt>
      <trkpt lat="40.621400" lon="-5.019433">
        <ele>2622.0</ele>
        <time>2014-06-30T13:13:06Z</time>
      </trkpt>
      <trkpt lat="40.621500" lon="-5.019483">
        <ele>2622.0</ele>
        <time>2014-06-30T13:13:07Z</time>
      </trkpt>
      <trkpt lat="40.621617" lon="-5.019550">
        <ele>2622.0</ele>
        <time>2014-06-30T13:13:08Z</time>
      </trkpt>
      <trkpt lat="40.621717" lon="-5.019617">
        <ele>2624.0</ele>
        <time>2014-06-30T13:13:09Z</time>
      </trkpt>
      <trkpt lat="40.621800" lon="-5.019700">
        <ele>2624.0</ele>
        <time>2014-06-30T13:13:10Z</time>
      </trkpt>
      <trkpt lat="40.621883" lon="-5.019800">
        <ele>2625.0</ele>
        <time>2014-06-30T13:13:11Z</time>
      </trkpt>
      <trkpt lat="40.621950" lon="-5.019900">
        <ele>2625.0</ele>
        <time>2014-06-30T13:13:12Z</time>
      </trkpt>
      <trkpt lat="40.622033" lon="-5.020000">
        <ele>2626.0</ele>
        <time>2014-06-30T13:13:13Z</time>
      </trkpt>
      <trkpt lat="40.622083" lon="-5.020083">
        <ele>2627.0</ele>
        <time>2014-06-30T13:13:14Z</time>
      </trkpt>
      <trkpt lat="40.622133" lon="-5.020117">
        <ele>2629.0</ele>
        <time>2014-06-30T13:13:15Z</time>
      </trkpt>
      <trkpt lat="40.622167" lon="-5.020167">
        <ele>2630.0</ele>
        <time>2014-06-30T13:13:16Z</time>
      </trkpt>
      <trkpt lat="40.622200" lon="-5.020217">
        <ele>2630.0</ele>
        <time>2014-06-30T13:13:17Z</time>
      </trkpt>
      <trkpt lat="40.622217" lon="-5.020267">
        <ele>2630.0</ele>
        <time>2014-06-30T13:13:18Z</time>
      </trkpt>
      <trkpt lat="40.622200" lon="-5.020317">
        <ele>2630.0</ele>
        <time>2014-06-30T13:13:19Z</time>
      </trkpt>
      <trkpt lat="40.622150" lon="-5.020317">
        <ele>2630.0</ele>
        <time>2014-06-30T13:13:20Z</time>
      </trkpt>
      <trkpt lat="40.622100" lon="-5.020317">
        <ele>2629.0</ele>
        <time>2014-06-30T13:13:21Z</time>
      </trkpt>
      <trkpt lat="40.622050" lon="-5.020300">
        <ele>2629.0</ele>
        <time>2014-06-30T13:13:22Z</time>
      </trkpt>
      <trkpt lat="40.622000" lon="-5.020300">
        <ele>2631.0</ele>
        <time>2014-06-30T13:13:23Z</time>
      </trkpt>
      <trkpt lat="40.621967" lon="-5.020300">
        <ele>2632.0</ele>
        <time>2014-06-30T13:13:24Z</time>
      </trkpt>
      <trkpt lat="40.621933" lon="-5.020283">
        <ele>2631.0</ele>
        <time>2014-06-30T13:13:25Z</time>
      </trkpt>
      <trkpt lat="40.621900" lon="-5.020250">
        <ele>2631.0</ele>
        <time>2014-06-30T13:13:26Z</time>
      </trkpt>
      <trkpt lat="40.621867" lon="-5.020217">
        <ele>2631.0</ele>
        <time>2014-06-30T13:13:27Z</time>
      </trkpt>
      <trkpt lat="40.621817" lon="-5.020167">
        <ele>2632.0</ele>
        <time>2014-06-30T13:13:28Z</time>
      </trkpt>
      <trkpt lat="40.621800" lon="-5.020117">
        <ele>2631.0</ele>
        <time>2014-06-30T13:13:29Z</time>
      </trkpt>
      <trkpt lat="40.621767" lon="-5.020067">
        <ele>2631.0</ele>
        <time>2014-06-30T13:13:30Z</time>
      </trkpt>
      <trkpt lat="40.621733" lon="-5.020000">
        <ele>2630.0</ele>
        <time>2014-06-30T13:13:31Z</time>
      </trkpt>
      <trkpt lat="40.621700" lon="-5.019917">
        <ele>2627.0</ele>
        <time>2014-06-30T13:13:32Z</time>
      </trkpt>
      <trkpt lat="40.621650" lon="-5.019817">
        <ele>2625.0</ele>
        <time>2014-06-30T13:13:33Z</time>
      </trkpt>
      <trkpt lat="40.621600" lon="-5.019717">
        <ele>2624.0</ele>
        <time>2014-06-30T13:13:34Z</time>
      </trkpt>
      <trkpt lat="40.621533" lon="-5.019617">
        <ele>2624.0</ele>
        <time>2014-06-30T13:13:35Z</time>
      </trkpt>
      <trkpt lat="40.621467" lon="-5.019550">
        <ele>2624.0</ele>
        <time>2014-06-30T13:13:36Z</time>
      </trkpt>
      <trkpt lat="40.621417" lon="-5.019467">
        <ele>2625.0</ele>
        <time>2014-06-30T13:13:37Z</time>
      </trkpt>
      <trkpt lat="40.621383" lon="-5.019400">
        <ele>2625.0</ele>
        <time>2014-06-30T13:13:38Z</time>
      </trkpt>
      <trkpt lat="40.621350" lon="-5.019317">
        <ele>2627.0</ele>
        <time>2014-06-30T13:13:39Z</time>
      </trkpt>
      <trkpt lat="40.621333" lon="-5.019233">
        <ele>2629.0</ele>
        <time>2014-06-30T13:13:40Z</time>
      </trkpt>
      <trkpt lat="40.621333" lon="-5.019150">
        <ele>2629.0</ele>
        <time>2014-06-30T13:13:41Z</time>
      </trkpt>
      <trkpt lat="40.621333" lon="-5.019033">
        <ele>2630.0</ele>
        <time>2014-06-30T13:13:42Z</time>
      </trkpt>
      <trkpt lat="40.621333" lon="-5.018933">
        <ele>2630.0</ele>
        <time>2014-06-30T13:13:43Z</time>
      </trkpt>
      <trkpt lat="40.621333" lon="-5.018817">
        <ele>2630.0</ele>
        <time>2014-06-30T13:13:44Z</time>
      </trkpt>
      <trkpt lat="40.621317" lon="-5.018717">
        <ele>2631.0</ele>
        <time>2014-06-30T13:13:45Z</time>
      </trkpt>
      <trkpt lat="40.621283" lon="-5.018617">
        <ele>2633.0</ele>
        <time>2014-06-30T13:13:46Z</time>
      </trkpt>
      <trkpt lat="40.621267" lon="-5.018550">
        <ele>2634.0</ele>
        <time>2014-06-30T13:13:47Z</time>
      </trkpt>
      <trkpt lat="40.621233" lon="-5.018467">
        <ele>2635.0</ele>
        <time>2014-06-30T13:13:48Z</time>
      </trkpt>
      <trkpt lat="40.621183" lon="-5.018367">
        <ele>2635.0</ele>
        <time>2014-06-30T13:13:49Z</time>
      </trkpt>
      <trkpt lat="40.621133" lon="-5.018267">
        <ele>2636.0</ele>
        <time>2014-06-30T13:13:50Z</time>
      </trkpt>
      <trkpt lat="40.621100" lon="-5.018167">
        <ele>2638.0</ele>
        <time>2014-06-30T13:13:51Z</time>
      </trkpt>
      <trkpt lat="40.621067" lon="-5.018067">
        <ele>2641.0</ele>
        <time>2014-06-30T13:13:52Z</time>
      </trkpt>
      <trkpt lat="40.621033" lon="-5.018000">
        <ele>2643.0</ele>
        <time>2014-06-30T13:13:53Z</time>
      </trkpt>
      <trkpt lat="40.621000" lon="-5.017933">
        <ele>2645.0</ele>
        <time>2014-06-30T13:13:54Z</time>
      </trkpt>
      <trkpt lat="40.621000" lon="-5.017900">
        <ele>2642.0</ele>
        <time>2014-06-30T13:13:55Z</time>
      </trkpt>
      <trkpt lat="40.620983" lon="-5.017850">
        <ele>2643.0</ele>
        <time>2014-06-30T13:13:56Z</time>
      </trkpt>
      <trkpt lat="40.620967" lon="-5.017750">
        <ele>2644.0</ele>
        <time>2014-06-30T13:13:57Z</time>
      </trkpt>
      <trkpt lat="40.620983" lon="-5.017650">
        <ele>2645.0</ele>
        <time>2014-06-30T13:13:58Z</time>
      </trkpt>
      <trkpt lat="40.621000" lon="-5.017517">
        <ele>2646.0</ele>
        <time>2014-06-30T13:13:59Z</time>
      </trkpt>
      <trkpt lat="40.621050" lon="-5.017383">
        <ele>2647.0</ele>
        <time>2014-06-30T13:14:00Z</time>
      </trkpt>
      <trkpt lat="40.621150" lon="-5.017267">
        <ele>2647.0</ele>
        <time>2014-06-30T13:14:01Z</time>
      </trkpt>
      <trkpt lat="40.621267" lon="-5.017217">
        <ele>2647.0</ele>
        <time>2014-06-30T13:14:02Z</time>
      </trkpt>
      <trkpt lat="40.621400" lon="-5.017217">
        <ele>2648.0</ele>
        <time>2014-06-30T13:14:03Z</time>
      </trkpt>
      <trkpt lat="40.621517" lon="-5.017250">
        <ele>2649.0</ele>
        <time>2014-06-30T13:14:04Z</time>
      </trkpt>
      <trkpt lat="40.621617" lon="-5.017317">
        <ele>2650.0</ele>
        <time>2014-06-30T13:14:05Z</time>
      </trkpt>
      <trkpt lat="40.621683" lon="-5.017383">
        <ele>2652.0</ele>
        <time>2014-06-30T13:14:06Z</time>
      </trkpt>
      <trkpt lat="40.621717" lon="-5.017450">
        <ele>2653.0</ele>
        <time>2014-06-30T13:14:07Z</time>
      </trkpt>
      <trkpt lat="40.621717" lon="-5.017517">
        <ele>2654.0</ele>
        <time>2014-06-30T13:14:08Z</time>
      </trkpt>
      <trkpt lat="40.621717" lon="-5.017583">
        <ele>2655.0</ele>
        <time>2014-06-30T13:14:09Z</time>
      </trkpt>
      <trkpt lat="40.621700" lon="-5.017633">
        <ele>2657.0</ele>
        <time>2014-06-30T13:14:10Z</time>
      </trkpt>
      <trkpt lat="40.621683" lon="-5.017683">
        <ele>2656.0</ele>
        <time>2014-06-30T13:14:11Z</time>
      </trkpt>
      <trkpt lat="40.621650" lon="-5.017733">
        <ele>2656.0</ele>
        <time>2014-06-30T13:14:12Z</time>
      </trkpt>
      <trkpt lat="40.621633" lon="-5.017750">
        <ele>2657.0</ele>
        <time>2014-06-30T13:14:13Z</time>
      </trkpt>
      <trkpt lat="40.621600" lon="-5.017767">
        <ele>2658.0</ele>
        <time>2014-06-30T13:14:14Z</time>
      </trkpt>
      <trkpt lat="40.621567" lon="-5.017750">
        <ele>2659.0</ele>
        <time>2014-06-30T13:14:15Z</time>
      </trkpt>
      <trkpt lat="40.621533" lon="-5.017717">
        <ele>2659.0</ele>
        <time>2014-06-30T13:14:16Z</time>
      </trkpt>
      <trkpt lat="40.621500" lon="-5.017650">
        <ele>2660.0</ele>
        <time>2014-06-30T13:14:17Z</time>
      </trkpt>
      <trkpt lat="40.621483" lon="-5.017567">
        <ele>2660.0</ele>
        <time>2014-06-30T13:14:18Z</time>
      </trkpt>
      <trkpt lat="40.621483" lon="-5.017483">
        <ele>2661.0</ele>
        <time>2014-06-30T13:14:19Z</time>
      </trkpt>
      <trkpt lat="40.621500" lon="-5.017367">
        <ele>2661.0</ele>
        <time>2014-06-30T13:14:20Z</time>
      </trkpt>
      <trkpt lat="40.621550" lon="-5.017267">
        <ele>2661.0</ele>
        <time>2014-06-30T13:14:21Z</time>
      </trkpt>
      <trkpt lat="40.621617" lon="-5.017150">
        <ele>2660.0</ele>
        <time>2014-06-30T13:14:22Z</time>
      </trkpt>
      <trkpt lat="40.621683" lon="-5.017033">
        <ele>2660.0</ele>
        <time>2014-06-30T13:14:23Z</time>
      </trkpt>
      <trkpt lat="40.621783" lon="-5.016933">
        <ele>2660.0</ele>
        <time>2014-06-30T13:14:24Z</time>
      </trkpt>
      <trkpt lat="40.621900" lon="-5.016850">
        <ele>2660.0</ele>
        <time>2014-06-30T13:14:25Z</time>
      </trkpt>
      <trkpt lat="40.622017" lon="-5.016800">
        <ele>2660.0</ele>
        <time>2014-06-30T13:14:26Z</time>
      </trkpt>
      <trkpt lat="40.622133" lon="-5.016767">
        <ele>2660.0</ele>
        <time>2014-06-30T13:14:27Z</time>
      </trkpt>
      <trkpt lat="40.622267" lon="-5.016733">
        <ele>2661.0</ele>
        <time>2014-06-30T13:14:28Z</time>
      </trkpt>
      <trkpt lat="40.622383" lon="-5.016717">
        <ele>2661.0</ele>
        <time>2014-06-30T13:14:29Z</time>
      </trkpt>
      <trkpt lat="40.622483" lon="-5.016700">
        <ele>2661.0</ele>
        <time>2014-06-30T13:14:30Z</time>
      </trkpt>
      <trkpt lat="40.622617" lon="-5.016700">
        <ele>2663.0</ele>
        <time>2014-06-30T13:14:31Z</time>
      </trkpt>
      <trkpt lat="40.622733" lon="-5.016700">
        <ele>2664.0</ele>
        <time>2014-06-30T13:14:32Z</time>
      </trkpt>
      <trkpt lat="40.622850" lon="-5.016717">
        <ele>2666.0</ele>
        <time>2014-06-30T13:14:33Z</time>
      </trkpt>
      <trkpt lat="40.622950" lon="-5.016733">
        <ele>2667.0</ele>
        <time>2014-06-30T13:14:34Z</time>
      </trkpt>
      <trkpt lat="40.623050" lon="-5.016767">
        <ele>2668.0</ele>
        <time>2014-06-30T13:14:35Z</time>
      </trkpt>
      <trkpt lat="40.623167" lon="-5.016833">
        <ele>2668.0</ele>
        <time>2014-06-30T13:14:36Z</time>
      </trkpt>
      <trkpt lat="40.623267" lon="-5.016900">
        <ele>2669.0</ele>
        <time>2014-06-30T13:14:37Z</time>
      </trkpt>
      <trkpt lat="40.623383" lon="-5.016983">
        <ele>2669.0</ele>
        <time>2014-06-30T13:14:38Z</time>
      </trkpt>
      <trkpt lat="40.623467" lon="-5.017067">
        <ele>2670.0</ele>
        <time>2014-06-30T13:14:39Z</time>
      </trkpt>
      <trkpt lat="40.623550" lon="-5.017150">
        <ele>2672.0</ele>
        <time>2014-06-30T13:14:40Z</time>
      </trkpt>
      <trkpt lat="40.623633" lon="-5.017233">
        <ele>2673.0</ele>
        <time>2014-06-30T13:14:41Z</time>
      </trkpt>
      <trkpt lat="40.623700" lon="-5.017300">
        <ele>2673.0</ele>
        <time>2014-06-30T13:14:42Z</time>
      </trkpt>
      <trkpt lat="40.623733" lon="-5.017400">
        <ele>2673.0</ele>
        <time>2014-06-30T13:14:43Z</time>
      </trkpt>
      <trkpt lat="40.623750" lon="-5.017500">
        <ele>2672.0</ele>
        <time>2014-06-30T13:14:44Z</time>
      </trkpt>
      <trkpt lat="40.623750" lon="-5.017583">
        <ele>2672.0</ele>
        <time>2014-06-30T13:14:45Z</time>
      </trkpt>
      <trkpt lat="40.623717" lon="-5.017617">
        <ele>2672.0</ele>
        <time>2014-06-30T13:14:46Z</time>
      </trkpt>
      <trkpt lat="40.623683" lon="-5.017617">
        <ele>2672.0</ele>
        <time>2014-06-30T13:14:47Z</time>
      </trkpt>
      <trkpt lat="40.623650" lon="-5.017600">
        <ele>2673.0</ele>
        <time>2014-06-30T13:14:48Z</time>
      </trkpt>
      <trkpt lat="40.623617" lon="-5.017567">
        <ele>2674.0</ele>
        <time>2014-06-30T13:14:49Z</time>
      </trkpt>
      <trkpt lat="40.623583" lon="-5.017517">
        <ele>2675.0</ele>
        <time>2014-06-30T13:14:50Z</time>
      </trkpt>
      <trkpt lat="40.623567" lon="-5.017467">
        <ele>2677.0</ele>
        <time>2014-06-30T13:14:51Z</time>
      </trkpt>
      <trkpt lat="40.623567" lon="-5.017400">
        <ele>2678.0</ele>
        <time>2014-06-30T13:14:52Z</time>
      </trkpt>
      <trkpt lat="40.623567" lon="-5.017350">
        <ele>2680.0</ele>
        <time>2014-06-30T13:14:53Z</time>
      </trkpt>
      <trkpt lat="40.623567" lon="-5.017300">
        <ele>2681.0</ele>
        <time>2014-06-30T13:14:54Z</time>
      </trkpt>
      <trkpt lat="40.623567" lon="-5.017250">
        <ele>2682.0</ele>
        <time>2014-06-30T13:14:55Z</time>
      </trkpt>
      <trkpt lat="40.623583" lon="-5.017167">
        <ele>2683.0</ele>
        <time>2014-06-30T13:14:56Z</time>
      </trkpt>
      <trkpt lat="40.623617" lon="-5.017067">
        <ele>2683.0</ele>
        <time>2014-06-30T13:14:57Z</time>
      </trkpt>
      <trkpt lat="40.623667" lon="-5.016967">
        <ele>2682.0</ele>
        <time>2014-06-30T13:14:58Z</time>
      </trkpt>
      <trkpt lat="40.623750" lon="-5.016867">
        <ele>2681.0</ele>
        <time>2014-06-30T13:14:59Z</time>
      </trkpt>
      <trkpt lat="40.623867" lon="-5.016783">
        <ele>2681.0</ele>
        <time>2014-06-30T13:15:00Z</time>
      </trkpt>
      <trkpt lat="40.624000" lon="-5.016717">
        <ele>2681.0</ele>
        <time>2014-06-30T13:15:01Z</time>
      </trkpt>
      <trkpt lat="40.624117" lon="-5.016717">
        <ele>2682.0</ele>
        <time>2014-06-30T13:15:02Z</time>
      </trkpt>
      <trkpt lat="40.624250" lon="-5.016717">
        <ele>2682.0</ele>
        <time>2014-06-30T13:15:03Z</time>
      </trkpt>
      <trkpt lat="40.624350" lon="-5.016750">
        <ele>2683.0</ele>
        <time>2014-06-30T13:15:04Z</time>
      </trkpt>
      <trkpt lat="40.624450" lon="-5.016783">
        <ele>2684.0</ele>
        <time>2014-06-30T13:15:05Z</time>
      </trkpt>
      <trkpt lat="40.624550" lon="-5.016850">
        <ele>2684.0</ele>
        <time>2014-06-30T13:15:06Z</time>
      </trkpt>
      <trkpt lat="40.624633" lon="-5.016933">
        <ele>2683.0</ele>
        <time>2014-06-30T13:15:07Z</time>
      </trkpt>
      <trkpt lat="40.624700" lon="-5.017050">
        <ele>2682.0</ele>
        <time>2014-06-30T13:15:08Z</time>
      </trkpt>
      <trkpt lat="40.624733" lon="-5.017150">
        <ele>2681.0</ele>
        <time>2014-06-30T13:15:09Z</time>
      </trkpt>
      <trkpt lat="40.624733" lon="-5.017217">
        <ele>2679.0</ele>
        <time>2014-06-30T13:15:10Z</time>
      </trkpt>
      <trkpt lat="40.624717" lon="-5.017250">
        <ele>2678.0</ele>
        <time>2014-06-30T13:15:11Z</time>
      </trkpt>
      <trkpt lat="40.624667" lon="-5.017233">
        <ele>2680.0</ele>
        <time>2014-06-30T13:15:12Z</time>
      </trkpt>
      <trkpt lat="40.624650" lon="-5.017233">
        <ele>2681.0</ele>
        <time>2014-06-30T13:15:13Z</time>
      </trkpt>
      <trkpt lat="40.624633" lon="-5.017233">
        <ele>2682.0</ele>
        <time>2014-06-30T13:15:14Z</time>
      </trkpt>
      <trkpt lat="40.624617" lon="-5.017217">
        <ele>2683.0</ele>
        <time>2014-06-30T13:15:15Z</time>
      </trkpt>
      <trkpt lat="40.624600" lon="-5.017200">
        <ele>2682.0</ele>
        <time>2014-06-30T13:15:16Z</time>
      </trkpt>
      <trkpt lat="40.624583" lon="-5.017150">
        <ele>2681.0</ele>
        <time>2014-06-30T13:15:17Z</time>
      </trkpt>
      <trkpt lat="40.624567" lon="-5.017100">
        <ele>2680.0</ele>
        <time>2014-06-30T13:15:18Z</time>
      </trkpt>
      <trkpt lat="40.624533" lon="-5.017050">
        <ele>2679.0</ele>
        <time>2014-06-30T13:15:19Z</time>
      </trkpt>
      <trkpt lat="40.624500" lon="-5.016967">
        <ele>2678.0</ele>
        <time>2014-06-30T13:15:20Z</time>
      </trkpt>
      <trkpt lat="40.624483" lon="-5.016900">
        <ele>2677.0</ele>
        <time>2014-06-30T13:15:21Z</time>
      </trkpt>
      <trkpt lat="40.624450" lon="-5.016817">
        <ele>2677.0</ele>
        <time>2014-06-30T13:15:22Z</time>
      </trkpt>
      <trkpt lat="40.624417" lon="-5.016750">
        <ele>2677.0</ele>
        <time>2014-06-30T13:15:23Z</time>
      </trkpt>
      <trkpt lat="40.624400" lon="-5.016683">
        <ele>2677.0</ele>
        <time>2014-06-30T13:15:24Z</time>
      </trkpt>
      <trkpt lat="40.624383" lon="-5.016600">
        <ele>2677.0</ele>
        <time>2014-06-30T13:15:25Z</time>
      </trkpt>
      <trkpt lat="40.624367" lon="-5.016533">
        <ele>2677.0</ele>
        <time>2014-06-30T13:15:26Z</time>
      </trkpt>
      <trkpt lat="40.624350" lon="-5.016450">
        <ele>2677.0</ele>
        <time>2014-06-30T13:15:27Z</time>
      </trkpt>
      <trkpt lat="40.624333" lon="-5.016367">
        <ele>2676.0</ele>
        <time>2014-06-30T13:15:28Z</time>
      </trkpt>
      <trkpt lat="40.624300" lon="-5.016283">
        <ele>2675.0</ele>
        <time>2014-06-30T13:15:29Z</time>
      </trkpt>
      <trkpt lat="40.624283" lon="-5.016183">
        <ele>2674.0</ele>
        <time>2014-06-30T13:15:30Z</time>
      </trkpt>
      <trkpt lat="40.624267" lon="-5.016083">
        <ele>2675.0</ele>
        <time>2014-06-30T13:15:31Z</time>
      </trkpt>
      <trkpt lat="40.624250" lon="-5.015983">
        <ele>2675.0</ele>
        <time>2014-06-30T13:15:32Z</time>
      </trkpt>
      <trkpt lat="40.624233" lon="-5.015883">
        <ele>2675.0</ele>
        <time>2014-06-30T13:15:33Z</time>
      </trkpt>
      <trkpt lat="40.624200" lon="-5.015783">
        <ele>2674.0</ele>
        <time>2014-06-30T13:15:34Z</time>
      </trkpt>
      <trkpt lat="40.624167" lon="-5.015667">
        <ele>2672.0</ele>
        <time>2014-06-30T13:15:35Z</time>
      </trkpt>
      <trkpt lat="40.624150" lon="-5.015550">
        <ele>2673.0</ele>
        <time>2014-06-30T13:15:36Z</time>
      </trkpt>
      <trkpt lat="40.624117" lon="-5.015467">
        <ele>2673.0</ele>
        <time>2014-06-30T13:15:37Z</time>
      </trkpt>
      <trkpt lat="40.624100" lon="-5.015383">
        <ele>2673.0</ele>
        <time>2014-06-30T13:15:38Z</time>
      </trkpt>
      <trkpt lat="40.624083" lon="-5.015317">
        <ele>2672.0</ele>
        <time>2014-06-30T13:15:39Z</time>
      </trkpt>
      <trkpt lat="40.624067" lon="-5.015233">
        <ele>2671.0</ele>
        <time>2014-06-30T13:15:40Z</time>
      </trkpt>
      <trkpt lat="40.624050" lon="-5.015150">
        <ele>2668.0</ele>
        <time>2014-06-30T13:15:41Z</time>
      </trkpt>
      <trkpt lat="40.624050" lon="-5.015033">
        <ele>2666.0</ele>
        <time>2014-06-30T13:15:42Z</time>
      </trkpt>
      <trkpt lat="40.624050" lon="-5.014917">
        <ele>2664.0</ele>
        <time>2014-06-30T13:15:43Z</time>
      </trkpt>
      <trkpt lat="40.624033" lon="-5.014783">
        <ele>2662.0</ele>
        <time>2014-06-30T13:15:44Z</time>
      </trkpt>
      <trkpt lat="40.624017" lon="-5.014667">
        <ele>2660.0</ele>
        <time>2014-06-30T13:15:45Z</time>
      </trkpt>
      <trkpt lat="40.624000" lon="-5.014533">
        <ele>2659.0</ele>
        <time>2014-06-30T13:15:46Z</time>
      </trkpt>
      <trkpt lat="40.623983" lon="-5.014433">
        <ele>2658.0</ele>
        <time>2014-06-30T13:15:47Z</time>
      </trkpt>
      <trkpt lat="40.623983" lon="-5.014300">
        <ele>2657.0</ele>
        <time>2014-06-30T13:15:48Z</time>
      </trkpt>
      <trkpt lat="40.624000" lon="-5.014183">
        <ele>2656.0</ele>
        <time>2014-06-30T13:15:49Z</time>
      </trkpt>
      <trkpt lat="40.624000" lon="-5.014067">
        <ele>2654.0</ele>
        <time>2014-06-30T13:15:50Z</time>
      </trkpt>
      <trkpt lat="40.624000" lon="-5.013917">
        <ele>2651.0</ele>
        <time>2014-06-30T13:15:51Z</time>
      </trkpt>
      <trkpt lat="40.623983" lon="-5.013767">
        <ele>2650.0</ele>
        <time>2014-06-30T13:15:52Z</time>
      </trkpt>
      <trkpt lat="40.623983" lon="-5.013633">
        <ele>2649.0</ele>
        <time>2014-06-30T13:15:53Z</time>
      </trkpt>
      <trkpt lat="40.623967" lon="-5.013500">
        <ele>2649.0</ele>
        <time>2014-06-30T13:15:54Z</time>
      </trkpt>
      <trkpt lat="40.623950" lon="-5.013367">
        <ele>2648.0</ele>
        <time>2014-06-30T13:15:55Z</time>
      </trkpt>
      <trkpt lat="40.623950" lon="-5.013250">
        <ele>2646.0</ele>
        <time>2014-06-30T13:15:56Z</time>
      </trkpt>
      <trkpt lat="40.623950" lon="-5.013100">
        <ele>2645.0</ele>
        <time>2014-06-30T13:15:57Z</time>
      </trkpt>
      <trkpt lat="40.623950" lon="-5.012950">
        <ele>2644.0</ele>
        <time>2014-06-30T13:15:58Z</time>
      </trkpt>
      <trkpt lat="40.623933" lon="-5.012783">
        <ele>2643.0</ele>
        <time>2014-06-30T13:15:59Z</time>
      </trkpt>
      <trkpt lat="40.623933" lon="-5.012633">
        <ele>2643.0</ele>
        <time>2014-06-30T13:16:00Z</time>
      </trkpt>
      <trkpt lat="40.623917" lon="-5.012500">
        <ele>2643.0</ele>
        <time>2014-06-30T13:16:01Z</time>
      </trkpt>
      <trkpt lat="40.623917" lon="-5.012350">
        <ele>2642.0</ele>
        <time>2014-06-30T13:16:02Z</time>
      </trkpt>
      <trkpt lat="40.623900" lon="-5.012200">
        <ele>2641.0</ele>
        <time>2014-06-30T13:16:03Z</time>
      </trkpt>
      <trkpt lat="40.623900" lon="-5.012050">
        <ele>2640.0</ele>
        <time>2014-06-30T13:16:04Z</time>
      </trkpt>
      <trkpt lat="40.623867" lon="-5.011900">
        <ele>2640.0</ele>
        <time>2014-06-30T13:16:05Z</time>
      </trkpt>
      <trkpt lat="40.623850" lon="-5.011767">
        <ele>2639.0</ele>
        <time>2014-06-30T13:16:06Z</time>
      </trkpt>
      <trkpt lat="40.623817" lon="-5.011650">
        <ele>2638.0</ele>
        <time>2014-06-30T13:16:07Z</time>
      </trkpt>
      <trkpt lat="40.623767" lon="-5.011517">
        <ele>2640.0</ele>
        <time>2014-06-30T13:16:08Z</time>
      </trkpt>
      <trkpt lat="40.623717" lon="-5.011400">
        <ele>2639.0</ele>
        <time>2014-06-30T13:16:09Z</time>
      </trkpt>
      <trkpt lat="40.623667" lon="-5.011267">
        <ele>2639.0</ele>
        <time>2014-06-30T13:16:10Z</time>
      </trkpt>
      <trkpt lat="40.623600" lon="-5.011167">
        <ele>2639.0</ele>
        <time>2014-06-30T13:16:11Z</time>
      </trkpt>
      <trkpt lat="40.623550" lon="-5.011067">
        <ele>2639.0</ele>
        <time>2014-06-30T13:16:12Z</time>
      </trkpt>
      <trkpt lat="40.623500" lon="-5.011000">
        <ele>2640.0</ele>
        <time>2014-06-30T13:16:13Z</time>
      </trkpt>
      <trkpt lat="40.623467" lon="-5.010933">
        <ele>2642.0</ele>
        <time>2014-06-30T13:16:14Z</time>
      </trkpt>
      <trkpt lat="40.623467" lon="-5.010850">
        <ele>2643.0</ele>
        <time>2014-06-30T13:16:15Z</time>
      </trkpt>
      <trkpt lat="40.623467" lon="-5.010783">
        <ele>2645.0</ele>
        <time>2014-06-30T13:16:16Z</time>
      </trkpt>
      <trkpt lat="40.623450" lon="-5.010717">
        <ele>2644.0</ele>
        <time>2014-06-30T13:16:17Z</time>
      </trkpt>
      <trkpt lat="40.623433" lon="-5.010633">
        <ele>2644.0</ele>
        <time>2014-06-30T13:16:18Z</time>
      </trkpt>
      <trkpt lat="40.623400" lon="-5.010567">
        <ele>2644.0</ele>
        <time>2014-06-30T13:16:19Z</time>
      </trkpt>
      <trkpt lat="40.623350" lon="-5.010483">
        <ele>2643.0</ele>
        <time>2014-06-30T13:16:20Z</time>
      </trkpt>
      <trkpt lat="40.623283" lon="-5.010383">
        <ele>2643.0</ele>
        <time>2014-06-30T13:16:21Z</time>
      </trkpt>
      <trkpt lat="40.623217" lon="-5.010283">
        <ele>2644.0</ele>
        <time>2014-06-30T13:16:22Z</time>
      </trkpt>
      <trkpt lat="40.623167" lon="-5.010200">
        <ele>2645.0</ele>
        <time>2014-06-30T13:16:23Z</time>
      </trkpt>
      <trkpt lat="40.623117" lon="-5.010133">
        <ele>2647.0</ele>
        <time>2014-06-30T13:16:24Z</time>
      </trkpt>
      <trkpt lat="40.623083" lon="-5.010067">
        <ele>2648.0</ele>
        <time>2014-06-30T13:16:25Z</time>
      </trkpt>
      <trkpt lat="40.623050" lon="-5.010000">
        <ele>2651.0</ele>
        <time>2014-06-30T13:16:26Z</time>
      </trkpt>
      <trkpt lat="40.623033" lon="-5.009917">
        <ele>2654.0</ele>
        <time>2014-06-30T13:16:27Z</time>
      </trkpt>
      <trkpt lat="40.623017" lon="-5.009833">
        <ele>2656.0</ele>
        <time>2014-06-30T13:16:28Z</time>
      </trkpt>
      <trkpt lat="40.623017" lon="-5.009733">
        <ele>2658.0</ele>
        <time>2014-06-30T13:16:29Z</time>
      </trkpt>
      <trkpt lat="40.623017" lon="-5.009650">
        <ele>2655.0</ele>
        <time>2014-06-30T13:16:30Z</time>
      </trkpt>
      <trkpt lat="40.623033" lon="-5.009500">
        <ele>2655.0</ele>
        <time>2014-06-30T13:16:31Z</time>
      </trkpt>
      <trkpt lat="40.623067" lon="-5.009333">
        <ele>2656.0</ele>
        <time>2014-06-30T13:16:32Z</time>
      </trkpt>
      <trkpt lat="40.623133" lon="-5.009183">
        <ele>2658.0</ele>
        <time>2014-06-30T13:16:33Z</time>
      </trkpt>
      <trkpt lat="40.623217" lon="-5.009083">
        <ele>2659.0</ele>
        <time>2014-06-30T13:16:34Z</time>
      </trkpt>
      <trkpt lat="40.623333" lon="-5.009017">
        <ele>2660.0</ele>
        <time>2014-06-30T13:16:35Z</time>
      </trkpt>
      <trkpt lat="40.623450" lon="-5.009017">
        <ele>2662.0</ele>
        <time>2014-06-30T13:16:36Z</time>
      </trkpt>
      <trkpt lat="40.623533" lon="-5.009033">
        <ele>2664.0</ele>
        <time>2014-06-30T13:16:37Z</time>
      </trkpt>
      <trkpt lat="40.623617" lon="-5.009067">
        <ele>2667.0</ele>
        <time>2014-06-30T13:16:38Z</time>
      </trkpt>
      <trkpt lat="40.623683" lon="-5.009117">
        <ele>2669.0</ele>
        <time>2014-06-30T13:16:39Z</time>
      </trkpt>
      <trkpt lat="40.623717" lon="-5.009150">
        <ele>2671.0</ele>
        <time>2014-06-30T13:16:40Z</time>
      </trkpt>
      <trkpt lat="40.623750" lon="-5.009217">
        <ele>2670.0</ele>
        <time>2014-06-30T13:16:41Z</time>
      </trkpt>
      <trkpt lat="40.623750" lon="-5.009267">
        <ele>2671.0</ele>
        <time>2014-06-30T13:16:42Z</time>
      </trkpt>
      <trkpt lat="40.623750" lon="-5.009300">
        <ele>2672.0</ele>
        <time>2014-06-30T13:16:43Z</time>
      </trkpt>
      <trkpt lat="40.623733" lon="-5.009333">
        <ele>2673.0</ele>
        <time>2014-06-30T13:16:44Z</time>
      </trkpt>
      <trkpt lat="40.623717" lon="-5.009317">
        <ele>2674.0</ele>
        <time>2014-06-30T13:16:45Z</time>
      </trkpt>
      <trkpt lat="40.623700" lon="-5.009317">
        <ele>2675.0</ele>
        <time>2014-06-30T13:16:46Z</time>
      </trkpt>
      <trkpt lat="40.623667" lon="-5.009300">
        <ele>2677.0</ele>
        <time>2014-06-30T13:16:47Z</time>
      </trkpt>
      <trkpt lat="40.623617" lon="-5.009267">
        <ele>2678.0</ele>
        <time>2014-06-30T13:16:48Z</time>
      </trkpt>
      <trkpt lat="40.623583" lon="-5.009200">
        <ele>2678.0</ele>
        <time>2014-06-30T13:16:49Z</time>
      </trkpt>
      <trkpt lat="40.623550" lon="-5.009117">
        <ele>2679.0</ele>
        <time>2014-06-30T13:16:50Z</time>
      </trkpt>
      <trkpt lat="40.623517" lon="-5.009033">
        <ele>2680.0</ele>
        <time>2014-06-30T13:16:51Z</time>
      </trkpt>
      <trkpt lat="40.623517" lon="-5.008900">
        <ele>2681.0</ele>
        <time>2014-06-30T13:16:52Z</time>
      </trkpt>
      <trkpt lat="40.623517" lon="-5.008767">
        <ele>2682.0</ele>
        <time>2014-06-30T13:16:53Z</time>
      </trkpt>
      <trkpt lat="40.623517" lon="-5.008633">
        <ele>2683.0</ele>
        <time>2014-06-30T13:16:54Z</time>
      </trkpt>
      <trkpt lat="40.623533" lon="-5.008483">
        <ele>2684.0</ele>
        <time>2014-06-30T13:16:55Z</time>
      </trkpt>
      <trkpt lat="40.623550" lon="-5.008333">
        <ele>2686.0</ele>
        <time>2014-06-30T13:16:56Z</time>
      </trkpt>
      <trkpt lat="40.623583" lon="-5.008183">
        <ele>2687.0</ele>
        <time>2014-06-30T13:16:57Z</time>
      </trkpt>
      <trkpt lat="40.623633" lon="-5.008050">
        <ele>2688.0</ele>
        <time>2014-06-30T13:16:58Z</time>
      </trkpt>
      <trkpt lat="40.623700" lon="-5.007917">
        <ele>2689.0</ele>
        <time>2014-06-30T13:16:59Z</time>
      </trkpt>
      <trkpt lat="40.623783" lon="-5.007800">
        <ele>2690.0</ele>
        <time>2014-06-30T13:17:00Z</time>
      </trkpt>
      <trkpt lat="40.623867" lon="-5.007683">
        <ele>2691.0</ele>
        <time>2014-06-30T13:17:01Z</time>
      </trkpt>
      <trkpt lat="40.623967" lon="-5.007567">
        <ele>2692.0</ele>
        <time>2014-06-30T13:17:02Z</time>
      </trkpt>
      <trkpt lat="40.624067" lon="-5.007483">
        <ele>2694.0</ele>
        <time>2014-06-30T13:17:03Z</time>
      </trkpt>
      <trkpt lat="40.624167" lon="-5.007400">
        <ele>2695.0</ele>
        <time>2014-06-30T13:17:04Z</time>
      </trkpt>
      <trkpt lat="40.624267" lon="-5.007333">
        <ele>2696.0</ele>
        <time>2014-06-30T13:17:05Z</time>
      </trkpt>
      <trkpt lat="40.624367" lon="-5.007267">
        <ele>2697.0</ele>
        <time>2014-06-30T13:17:06Z</time>
      </trkpt>
      <trkpt lat="40.624483" lon="-5.007233">
        <ele>2698.0</ele>
        <time>2014-06-30T13:17:07Z</time>
      </trkpt>
      <trkpt lat="40.624600" lon="-5.007217">
        <ele>2699.0</ele>
        <time>2014-06-30T13:17:08Z</time>
      </trkpt>
      <trkpt lat="40.624683" lon="-5.007217">
        <ele>2701.0</ele>
        <time>2014-06-30T13:17:09Z</time>
      </trkpt>
      <trkpt lat="40.624767" lon="-5.007233">
        <ele>2703.0</ele>
        <time>2014-06-30T13:17:10Z</time>
      </trkpt>
      <trkpt lat="40.624850" lon="-5.007250">
        <ele>2705.0</ele>
        <time>2014-06-30T13:17:11Z</time>
      </trkpt>
      <trkpt lat="40.624917" lon="-5.007283">
        <ele>2707.0</ele>
        <time>2014-06-30T13:17:12Z</time>
      </trkpt>
      <trkpt lat="40.625000" lon="-5.007317">
        <ele>2709.0</ele>
        <time>2014-06-30T13:17:13Z</time>
      </trkpt>
      <trkpt lat="40.625067" lon="-5.007367">
        <ele>2708.0</ele>
        <time>2014-06-30T13:17:14Z</time>
      </trkpt>
      <trkpt lat="40.625100" lon="-5.007417">
        <ele>2710.0</ele>
        <time>2014-06-30T13:17:15Z</time>
      </trkpt>
      <trkpt lat="40.625117" lon="-5.007483">
        <ele>2712.0</ele>
        <time>2014-06-30T13:17:16Z</time>
      </trkpt>
      <trkpt lat="40.625117" lon="-5.007533">
        <ele>2714.0</ele>
        <time>2014-06-30T13:17:17Z</time>
      </trkpt>
      <trkpt lat="40.625117" lon="-5.007567">
        <ele>2716.0</ele>
        <time>2014-06-30T13:17:18Z</time>
      </trkpt>
      <trkpt lat="40.625100" lon="-5.007600">
        <ele>2717.0</ele>
        <time>2014-06-30T13:17:19Z</time>
      </trkpt>
      <trkpt lat="40.625083" lon="-5.007600">
        <ele>2719.0</ele>
        <time>2014-06-30T13:17:20Z</time>
      </trkpt>
      <trkpt lat="40.625050" lon="-5.007600">
        <ele>2720.0</ele>
        <time>2014-06-30T13:17:21Z</time>
      </trkpt>
      <trkpt lat="40.625017" lon="-5.007583">
        <ele>2720.0</ele>
        <time>2014-06-30T13:17:22Z</time>
      </trkpt>
      <trkpt lat="40.624967" lon="-5.007533">
        <ele>2720.0</ele>
        <time>2014-06-30T13:17:23Z</time>
      </trkpt>
      <trkpt lat="40.624917" lon="-5.007483">
        <ele>2720.0</ele>
        <time>2014-06-30T13:17:24Z</time>
      </trkpt>
      <trkpt lat="40.624883" lon="-5.007383">
        <ele>2721.0</ele>
        <time>2014-06-30T13:17:25Z</time>
      </trkpt>
      <trkpt lat="40.624850" lon="-5.007283">
        <ele>2721.0</ele>
        <time>2014-06-30T13:17:26Z</time>
      </trkpt>
      <trkpt lat="40.624833" lon="-5.007150">
        <ele>2722.0</ele>
        <time>2014-06-30T13:17:27Z</time>
      </trkpt>
      <trkpt lat="40.624833" lon="-5.007033">
        <ele>2723.0</ele>
        <time>2014-06-30T13:17:28Z</time>
      </trkpt>
      <trkpt lat="40.624833" lon="-5.006883">
        <ele>2724.0</ele>
        <time>2014-06-30T13:17:29Z</time>
      </trkpt>
      <trkpt lat="40.624867" lon="-5.006733">
        <ele>2725.0</ele>
        <time>2014-06-30T13:17:30Z</time>
      </trkpt>
      <trkpt lat="40.624900" lon="-5.006600">
        <ele>2726.0</ele>
        <time>2014-06-30T13:17:31Z</time>
      </trkpt>
      <trkpt lat="40.624967" lon="-5.006467">
        <ele>2727.0</ele>
        <time>2014-06-30T13:17:32Z</time>
      </trkpt>
      <trkpt lat="40.625067" lon="-5.006333">
        <ele>2727.0</ele>
        <time>2014-06-30T13:17:33Z</time>
      </trkpt>
      <trkpt lat="40.625150" lon="-5.006217">
        <ele>2728.0</ele>
        <time>2014-06-30T13:17:34Z</time>
      </trkpt>
      <trkpt lat="40.625267" lon="-5.006117">
        <ele>2730.0</ele>
        <time>2014-06-30T13:17:35Z</time>
      </trkpt>
      <trkpt lat="40.625383" lon="-5.006050">
        <ele>2731.0</ele>
        <time>2014-06-30T13:17:36Z</time>
      </trkpt>
      <trkpt lat="40.625483" lon="-5.006000">
        <ele>2732.0</ele>
        <time>2014-06-30T13:17:37Z</time>
      </trkpt>
      <trkpt lat="40.625600" lon="-5.005950">
        <ele>2732.0</ele>
        <time>2014-06-30T13:17:38Z</time>
      </trkpt>
      <trkpt lat="40.625700" lon="-5.005917">
        <ele>2734.0</ele>
        <time>2014-06-30T13:17:39Z</time>
      </trkpt>
      <trkpt lat="40.625800" lon="-5.005917">
        <ele>2735.0</ele>
        <time>2014-06-30T13:17:40Z</time>
      </trkpt>
      <trkpt lat="40.625900" lon="-5.005917">
        <ele>2735.0</ele>
        <time>2014-06-30T13:17:41Z</time>
      </trkpt>
      <trkpt lat="40.626000" lon="-5.005933">
        <ele>2736.0</ele>
        <time>2014-06-30T13:17:42Z</time>
      </trkpt>
      <trkpt lat="40.626083" lon="-5.005967">
        <ele>2738.0</ele>
        <time>2014-06-30T13:17:43Z</time>
      </trkpt>
      <trkpt lat="40.626150" lon="-5.006033">
        <ele>2739.0</ele>
        <time>2014-06-30T13:17:44Z</time>
      </trkpt>
      <trkpt lat="40.626183" lon="-5.006083">
        <ele>2742.0</ele>
        <time>2014-06-30T13:17:45Z</time>
      </trkpt>
      <trkpt lat="40.626200" lon="-5.006150">
        <ele>2745.0</ele>
        <time>2014-06-30T13:17:46Z</time>
      </trkpt>
      <trkpt lat="40.626217" lon="-5.006183">
        <ele>2744.0</ele>
        <time>2014-06-30T13:17:47Z</time>
      </trkpt>
      <trkpt lat="40.626233" lon="-5.006217">
        <ele>2745.0</ele>
        <time>2014-06-30T13:17:48Z</time>
      </trkpt>
      <trkpt lat="40.626217" lon="-5.006250">
        <ele>2745.0</ele>
        <time>2014-06-30T13:17:49Z</time>
      </trkpt>
      <trkpt lat="40.626200" lon="-5.006267">
        <ele>2746.0</ele>
        <time>2014-06-30T13:17:50Z</time>
      </trkpt>
      <trkpt lat="40.626167" lon="-5.006267">
        <ele>2746.0</ele>
        <time>2014-06-30T13:17:51Z</time>
      </trkpt>
      <trkpt lat="40.626117" lon="-5.006250">
        <ele>2747.0</ele>
        <time>2014-06-30T13:17:52Z</time>
      </trkpt>
      <trkpt lat="40.626067" lon="-5.006183">
        <ele>2748.0</ele>
        <time>2014-06-30T13:17:53Z</time>
      </trkpt>
      <trkpt lat="40.626033" lon="-5.006117">
        <ele>2749.0</ele>
        <time>2014-06-30T13:17:54Z</time>
      </trkpt>
      <trkpt lat="40.626000" lon="-5.006017">
        <ele>2750.0</ele>
        <time>2014-06-30T13:17:55Z</time>
      </trkpt>
      <trkpt lat="40.625967" lon="-5.005917">
        <ele>2751.0</ele>
        <time>2014-06-30T13:17:56Z</time>
      </trkpt>
      <trkpt lat="40.625967" lon="-5.005800">
        <ele>2752.0</ele>
        <time>2014-06-30T13:17:57Z</time>
      </trkpt>
      <trkpt lat="40.625967" lon="-5.005667">
        <ele>2752.0</ele>
        <time>2014-06-30T13:17:58Z</time>
      </trkpt>
      <trkpt lat="40.625983" lon="-5.005517">
        <ele>2752.0</ele>
        <time>2014-06-30T13:17:59Z</time>
      </trkpt>
      <trkpt lat="40.626017" lon="-5.005367">
        <ele>2752.0</ele>
        <time>2014-06-30T13:18:00Z</time>
      </trkpt>
      <trkpt lat="40.626067" lon="-5.005217">
        <ele>2753.0</ele>
        <time>2014-06-30T13:18:01Z</time>
      </trkpt>
      <trkpt lat="40.626133" lon="-5.005083">
        <ele>2754.0</ele>
        <time>2014-06-30T13:18:02Z</time>
      </trkpt>
      <trkpt lat="40.626217" lon="-5.004967">
        <ele>2754.0</ele>
        <time>2014-06-30T13:18:03Z</time>
      </trkpt>
      <trkpt lat="40.626300" lon="-5.004867">
        <ele>2754.0</ele>
        <time>2014-06-30T13:18:04Z</time>
      </trkpt>
      <trkpt lat="40.626400" lon="-5.004767">
        <ele>2754.0</ele>
        <time>2014-06-30T13:18:05Z</time>
      </trkpt>
      <trkpt lat="40.626533" lon="-5.004683">
        <ele>2755.0</ele>
        <time>2014-06-30T13:18:06Z</time>
      </trkpt>
      <trkpt lat="40.626650" lon="-5.004633">
        <ele>2755.0</ele>
        <time>2014-06-30T13:18:07Z</time>
      </trkpt>
      <trkpt lat="40.626767" lon="-5.004633">
        <ele>2756.0</ele>
        <time>2014-06-30T13:18:08Z</time>
      </trkpt>
      <trkpt lat="40.626867" lon="-5.004633">
        <ele>2758.0</ele>
        <time>2014-06-30T13:18:09Z</time>
      </trkpt>
      <trkpt lat="40.626950" lon="-5.004650">
        <ele>2758.0</ele>
        <time>2014-06-30T13:18:10Z</time>
      </trkpt>
      <trkpt lat="40.627033" lon="-5.004683">
        <ele>2758.0</ele>
        <time>2014-06-30T13:18:11Z</time>
      </trkpt>
      <trkpt lat="40.627117" lon="-5.004717">
        <ele>2758.0</ele>
        <time>2014-06-30T13:18:12Z</time>
      </trkpt>
      <trkpt lat="40.627183" lon="-5.004783">
        <ele>2758.0</ele>
        <time>2014-06-30T13:18:13Z</time>
      </trkpt>
      <trkpt lat="40.627233" lon="-5.004850">
        <ele>2759.0</ele>
        <time>2014-06-30T13:18:14Z</time>
      </trkpt>
      <trkpt lat="40.627267" lon="-5.004933">
        <ele>2761.0</ele>
        <time>2014-06-30T13:18:15Z</time>
      </trkpt>
      <trkpt lat="40.627283" lon="-5.004983">
        <ele>2764.0</ele>
        <time>2014-06-30T13:18:16Z</time>
      </trkpt>
      <trkpt lat="40.627300" lon="-5.005033">
        <ele>2765.0</ele>
        <time>2014-06-30T13:18:17Z</time>
      </trkpt>
      <trkpt lat="40.627300" lon="-5.005083">
        <ele>2766.0</ele>
        <time>2014-06-30T13:18:18Z</time>
      </trkpt>
      <trkpt lat="40.627300" lon="-5.005117">
        <ele>2767.0</ele>
        <time>2014-06-30T13:18:19Z</time>
      </trkpt>
      <trkpt lat="40.627283" lon="-5.005150">
        <ele>2767.0</ele>
        <time>2014-06-30T13:18:20Z</time>
      </trkpt>
      <trkpt lat="40.627250" lon="-5.005183">
        <ele>2768.0</ele>
        <time>2014-06-30T13:18:21Z</time>
      </trkpt>
      <trkpt lat="40.627233" lon="-5.005167">
        <ele>2768.0</ele>
        <time>2014-06-30T13:18:22Z</time>
      </trkpt>
      <trkpt lat="40.627200" lon="-5.005133">
        <ele>2769.0</ele>
        <time>2014-06-30T13:18:23Z</time>
      </trkpt>
      <trkpt lat="40.627167" lon="-5.005067">
        <ele>2769.0</ele>
        <time>2014-06-30T13:18:24Z</time>
      </trkpt>
      <trkpt lat="40.627133" lon="-5.005017">
        <ele>2769.0</ele>
        <time>2014-06-30T13:18:25Z</time>
      </trkpt>
      <trkpt lat="40.627100" lon="-5.004950">
        <ele>2769.0</ele>
        <time>2014-06-30T13:18:26Z</time>
      </trkpt>
      <trkpt lat="40.627067" lon="-5.004867">
        <ele>2769.0</ele>
        <time>2014-06-30T13:18:27Z</time>
      </trkpt>
      <trkpt lat="40.627050" lon="-5.004767">
        <ele>2769.0</ele>
        <time>2014-06-30T13:18:28Z</time>
      </trkpt>
      <trkpt lat="40.627050" lon="-5.004633">
        <ele>2769.0</ele>
        <time>2014-06-30T13:18:29Z</time>
      </trkpt>
      <trkpt lat="40.627067" lon="-5.004500">
        <ele>2770.0</ele>
        <time>2014-06-30T13:18:30Z</time>
      </trkpt>
      <trkpt lat="40.627083" lon="-5.004350">
        <ele>2770.0</ele>
        <time>2014-06-30T13:18:31Z</time>
      </trkpt>
      <trkpt lat="40.627117" lon="-5.004200">
        <ele>2770.0</ele>
        <time>2014-06-30T13:18:32Z</time>
      </trkpt>
      <trkpt lat="40.627133" lon="-5.004067">
        <ele>2770.0</ele>
        <time>2014-06-30T13:18:33Z</time>
      </trkpt>
      <trkpt lat="40.627183" lon="-5.003933">
        <ele>2770.0</ele>
        <time>2014-06-30T13:18:34Z</time>
      </trkpt>
      <trkpt lat="40.627217" lon="-5.003783">
        <ele>2770.0</ele>
        <time>2014-06-30T13:18:35Z</time>
      </trkpt>
      <trkpt lat="40.627250" lon="-5.003650">
        <ele>2770.0</ele>
        <time>2014-06-30T13:18:36Z</time>
      </trkpt>
      <trkpt lat="40.627317" lon="-5.003500">
        <ele>2769.0</ele>
        <time>2014-06-30T13:18:37Z</time>
      </trkpt>
      <trkpt lat="40.627383" lon="-5.003367">
        <ele>2769.0</ele>
        <time>2014-06-30T13:18:38Z</time>
      </trkpt>
      <trkpt lat="40.627433" lon="-5.003233">
        <ele>2769.0</ele>
        <time>2014-06-30T13:18:39Z</time>
      </trkpt>
      <trkpt lat="40.627517" lon="-5.003100">
        <ele>2768.0</ele>
        <time>2014-06-30T13:18:40Z</time>
      </trkpt>
      <trkpt lat="40.627567" lon="-5.002950">
        <ele>2767.0</ele>
        <time>2014-06-30T13:18:41Z</time>
      </trkpt>
      <trkpt lat="40.627650" lon="-5.002783">
        <ele>2764.0</ele>
        <time>2014-06-30T13:18:42Z</time>
      </trkpt>
      <trkpt lat="40.627717" lon="-5.002617">
        <ele>2762.0</ele>
        <time>2014-06-30T13:18:43Z</time>
      </trkpt>
      <trkpt lat="40.627783" lon="-5.002417">
        <ele>2761.0</ele>
        <time>2014-06-30T13:18:44Z</time>
      </trkpt>
      <trkpt lat="40.627850" lon="-5.002250">
        <ele>2761.0</ele>
        <time>2014-06-30T13:18:45Z</time>
      </trkpt>
      <trkpt lat="40.627917" lon="-5.002083">
        <ele>2762.0</ele>
        <time>2014-06-30T13:18:46Z</time>
      </trkpt>
      <trkpt lat="40.628000" lon="-5.001917">
        <ele>2762.0</ele>
        <time>2014-06-30T13:18:47Z</time>
      </trkpt>
      <trkpt lat="40.628050" lon="-5.001733">
        <ele>2761.0</ele>
        <time>2014-06-30T13:18:48Z</time>
      </trkpt>
      <trkpt lat="40.628117" lon="-5.001550">
        <ele>2761.0</ele>
        <time>2014-06-30T13:18:49Z</time>
      </trkpt>
      <trkpt lat="40.628167" lon="-5.001367">
        <ele>2760.0</ele>
        <time>2014-06-30T13:18:50Z</time>
      </trkpt>
      <trkpt lat="40.628217" lon="-5.001167">
        <ele>2760.0</ele>
        <time>2014-06-30T13:18:51Z</time>
      </trkpt>
      <trkpt lat="40.628267" lon="-5.000983">
        <ele>2760.0</ele>
        <time>2014-06-30T13:18:52Z</time>
      </trkpt>
      <trkpt lat="40.628300" lon="-5.000800">
        <ele>2760.0</ele>
        <time>2014-06-30T13:18:53Z</time>
      </trkpt>
      <trkpt lat="40.628333" lon="-5.000617">
        <ele>2759.0</ele>
        <time>2014-06-30T13:18:54Z</time>
      </trkpt>
      <trkpt lat="40.628367" lon="-5.000433">
        <ele>2759.0</ele>
        <time>2014-06-30T13:18:55Z</time>
      </trkpt>
      <trkpt lat="40.628400" lon="-5.000233">
        <ele>2758.0</ele>
        <time>2014-06-30T13:18:56Z</time>
      </trkpt>
      <trkpt lat="40.628433" lon="-5.000067">
        <ele>2759.0</ele>
        <time>2014-06-30T13:18:57Z</time>
      </trkpt>
      <trkpt lat="40.628467" lon="-4.999883">
        <ele>2758.0</ele>
        <time>2014-06-30T13:18:58Z</time>
      </trkpt>
      <trkpt lat="40.628500" lon="-4.999733">
        <ele>2758.0</ele>
        <time>2014-06-30T13:18:59Z</time>
      </trkpt>
      <trkpt lat="40.628517" lon="-4.999567">
        <ele>2757.0</ele>
        <time>2014-06-30T13:19:00Z</time>
      </trkpt>
      <trkpt lat="40.628533" lon="-4.999400">
        <ele>2755.0</ele>
        <time>2014-06-30T13:19:01Z</time>
      </trkpt>
      <trkpt lat="40.628550" lon="-4.999217">
        <ele>2753.0</ele>
        <time>2014-06-30T13:19:02Z</time>
      </trkpt>
      <trkpt lat="40.628550" lon="-4.999033">
        <ele>2751.0</ele>
        <time>2014-06-30T13:19:03Z</time>
      </trkpt>
      <trkpt lat="40.628533" lon="-4.998867">
        <ele>2750.0</ele>
        <time>2014-06-30T13:19:04Z</time>
      </trkpt>
      <trkpt lat="40.628533" lon="-4.998700">
        <ele>2749.0</ele>
        <time>2014-06-30T13:19:05Z</time>
      </trkpt>
      <trkpt lat="40.628550" lon="-4.998550">
        <ele>2749.0</ele>
        <time>2014-06-30T13:19:06Z</time>
      </trkpt>
      <trkpt lat="40.628567" lon="-4.998417">
        <ele>2749.0</ele>
        <time>2014-06-30T13:19:07Z</time>
      </trkpt>
      <trkpt lat="40.628583" lon="-4.998300">
        <ele>2747.0</ele>
        <time>2014-06-30T13:19:08Z</time>
      </trkpt>
      <trkpt lat="40.628583" lon="-4.998167">
        <ele>2745.0</ele>
        <time>2014-06-30T13:19:09Z</time>
      </trkpt>
      <trkpt lat="40.628567" lon="-4.998033">
        <ele>2743.0</ele>
        <time>2014-06-30T13:19:10Z</time>
      </trkpt>
      <trkpt lat="40.628567" lon="-4.997883">
        <ele>2741.0</ele>
        <time>2014-06-30T13:19:11Z</time>
      </trkpt>
      <trkpt lat="40.628583" lon="-4.997717">
        <ele>2741.0</ele>
        <time>2014-06-30T13:19:12Z</time>
      </trkpt>
      <trkpt lat="40.628600" lon="-4.997583">
        <ele>2742.0</ele>
        <time>2014-06-30T13:19:13Z</time>
      </trkpt>
      <trkpt lat="40.628600" lon="-4.997450">
        <ele>2741.0</ele>
        <time>2014-06-30T13:19:14Z</time>
      </trkpt>
      <trkpt lat="40.628600" lon="-4.997333">
        <ele>2741.0</ele>
        <time>2014-06-30T13:19:15Z</time>
      </trkpt>
      <trkpt lat="40.628617" lon="-4.997200">
        <ele>2740.0</ele>
        <time>2014-06-30T13:19:16Z</time>
      </trkpt>
      <trkpt lat="40.628617" lon="-4.997050">
        <ele>2738.0</ele>
        <time>2014-06-30T13:19:17Z</time>
      </trkpt>
      <trkpt lat="40.628600" lon="-4.996917">
        <ele>2737.0</ele>
        <time>2014-06-30T13:19:18Z</time>
      </trkpt>
      <trkpt lat="40.628567" lon="-4.996800">
        <ele>2735.0</ele>
        <time>2014-06-30T13:19:19Z</time>
      </trkpt>
      <trkpt lat="40.628533" lon="-4.996683">
        <ele>2734.0</ele>
        <time>2014-06-30T13:19:20Z</time>
      </trkpt>
      <trkpt lat="40.628500" lon="-4.996567">
        <ele>2732.0</ele>
        <time>2014-06-30T13:19:21Z</time>
      </trkpt>
      <trkpt lat="40.628500" lon="-4.996433">
        <ele>2731.0</ele>
        <time>2014-06-30T13:19:22Z</time>
      </trkpt>
      <trkpt lat="40.628500" lon="-4.996300">
        <ele>2729.0</ele>
        <time>2014-06-30T13:19:23Z</time>
      </trkpt>
      <trkpt lat="40.628500" lon="-4.996167">
        <ele>2727.0</ele>
        <time>2014-06-30T13:19:24Z</time>
      </trkpt>
      <trkpt lat="40.628500" lon="-4.996033">
        <ele>2724.0</ele>
        <time>2014-06-30T13:19:25Z</time>
      </trkpt>
      <trkpt lat="40.628500" lon="-4.995883">
        <ele>2720.0</ele>
        <time>2014-06-30T13:19:26Z</time>
      </trkpt>
      <trkpt lat="40.628483" lon="-4.995717">
        <ele>2717.0</ele>
        <time>2014-06-30T13:19:27Z</time>
      </trkpt>
      <trkpt lat="40.628483" lon="-4.995550">
        <ele>2714.0</ele>
        <time>2014-06-30T13:19:28Z</time>
      </trkpt>
      <trkpt lat="40.628483" lon="-4.995367">
        <ele>2710.0</ele>
        <time>2014-06-30T13:19:29Z</time>
      </trkpt>
      <trkpt lat="40.628500" lon="-4.995200">
        <ele>2708.0</ele>
        <time>2014-06-30T13:19:30Z</time>
      </trkpt>
      <trkpt lat="40.628500" lon="-4.995017">
        <ele>2705.0</ele>
        <time>2014-06-30T13:19:31Z</time>
      </trkpt>
      <trkpt lat="40.628517" lon="-4.994850">
        <ele>2702.0</ele>
        <time>2014-06-30T13:19:32Z</time>
      </trkpt>
      <trkpt lat="40.628533" lon="-4.994667">
        <ele>2699.0</ele>
        <time>2014-06-30T13:19:33Z</time>
      </trkpt>
      <trkpt lat="40.628550" lon="-4.994483">
        <ele>2697.0</ele>
        <time>2014-06-30T13:19:34Z</time>
      </trkpt>
      <trkpt lat="40.628583" lon="-4.994300">
        <ele>2694.0</ele>
        <time>2014-06-30T13:19:35Z</time>
      </trkpt>
      <trkpt lat="40.628600" lon="-4.994117">
        <ele>2692.0</ele>
        <time>2014-06-30T13:19:36Z</time>
      </trkpt>
      <trkpt lat="40.628617" lon="-4.993917">
        <ele>2689.0</ele>
        <time>2014-06-30T13:19:37Z</time>
      </trkpt>
      <trkpt lat="40.628633" lon="-4.993717">
        <ele>2687.0</ele>
        <time>2014-06-30T13:19:38Z</time>
      </trkpt>
      <trkpt lat="40.628650" lon="-4.993517">
        <ele>2685.0</ele>
        <time>2014-06-30T13:19:39Z</time>
      </trkpt>
      <trkpt lat="40.628683" lon="-4.993333">
        <ele>2684.0</ele>
        <time>2014-06-30T13:19:40Z</time>
      </trkpt>
      <trkpt lat="40.628700" lon="-4.993133">
        <ele>2683.0</ele>
        <time>2014-06-30T13:19:41Z</time>
      </trkpt>
      <trkpt lat="40.628717" lon="-4.992950">
        <ele>2682.0</ele>
        <time>2014-06-30T13:19:42Z</time>
      </trkpt>
      <trkpt lat="40.628733" lon="-4.992750">
        <ele>2680.0</ele>
        <time>2014-06-30T13:19:43Z</time>
      </trkpt>
      <trkpt lat="40.628767" lon="-4.992550">
        <ele>2678.0</ele>
        <time>2014-06-30T13:19:44Z</time>
      </trkpt>
      <trkpt lat="40.628783" lon="-4.992350">
        <ele>2677.0</ele>
        <time>2014-06-30T13:19:45Z</time>
      </trkpt>
      <trkpt lat="40.628800" lon="-4.992150">
        <ele>2675.0</ele>
        <time>2014-06-30T13:19:46Z</time>
      </trkpt>
      <trkpt lat="40.628800" lon="-4.991967">
        <ele>2674.0</ele>
        <time>2014-06-30T13:19:47Z</time>
      </trkpt>
      <trkpt lat="40.628817" lon="-4.991767">
        <ele>2673.0</ele>
        <time>2014-06-30T13:19:48Z</time>
      </trkpt>
      <trkpt lat="40.628833" lon="-4.991550">
        <ele>2672.0</ele>
        <time>2014-06-30T13:19:49Z</time>
      </trkpt>
      <trkpt lat="40.628833" lon="-4.991350">
        <ele>2671.0</ele>
        <time>2014-06-30T13:19:50Z</time>
      </trkpt>
      <trkpt lat="40.628833" lon="-4.991167">
        <ele>2671.0</ele>
        <time>2014-06-30T13:19:51Z</time>
      </trkpt>
      <trkpt lat="40.628817" lon="-4.990983">
        <ele>2673.0</ele>
        <time>2014-06-30T13:19:52Z</time>
      </trkpt>
      <trkpt lat="40.628800" lon="-4.990817">
        <ele>2673.0</ele>
        <time>2014-06-30T13:19:53Z</time>
      </trkpt>
      <trkpt lat="40.628800" lon="-4.990650">
        <ele>2673.0</ele>
        <time>2014-06-30T13:19:54Z</time>
      </trkpt>
      <trkpt lat="40.628800" lon="-4.990483">
        <ele>2674.0</ele>
        <time>2014-06-30T13:19:55Z</time>
      </trkpt>
      <trkpt lat="40.628800" lon="-4.990350">
        <ele>2676.0</ele>
        <time>2014-06-30T13:19:56Z</time>
      </trkpt>
      <trkpt lat="40.628800" lon="-4.990217">
        <ele>2677.0</ele>
        <time>2014-06-30T13:19:57Z</time>
      </trkpt>
      <trkpt lat="40.628800" lon="-4.990083">
        <ele>2678.0</ele>
        <time>2014-06-30T13:19:58Z</time>
      </trkpt>
      <trkpt lat="40.628800" lon="-4.989917">
        <ele>2678.0</ele>
        <time>2014-06-30T13:19:59Z</time>
      </trkpt>
      <trkpt lat="40.628783" lon="-4.989767">
        <ele>2678.0</ele>
        <time>2014-06-30T13:20:00Z</time>
      </trkpt>
      <trkpt lat="40.628783" lon="-4.989600">
        <ele>2678.0</ele>
        <time>2014-06-30T13:20:01Z</time>
      </trkpt>
      <trkpt lat="40.628750" lon="-4.989417">
        <ele>2679.0</ele>
        <time>2014-06-30T13:20:02Z</time>
      </trkpt>
      <trkpt lat="40.628717" lon="-4.989217">
        <ele>2679.0</ele>
        <time>2014-06-30T13:20:03Z</time>
      </trkpt>
      <trkpt lat="40.628683" lon="-4.989000">
        <ele>2679.0</ele>
        <time>2014-06-30T13:20:04Z</time>
      </trkpt>
      <trkpt lat="40.628650" lon="-4.988800">
        <ele>2681.0</ele>
        <time>2014-06-30T13:20:05Z</time>
      </trkpt>
      <trkpt lat="40.628617" lon="-4.988617">
        <ele>2683.0</ele>
        <time>2014-06-30T13:20:06Z</time>
      </trkpt>
      <trkpt lat="40.628583" lon="-4.988450">
        <ele>2684.0</ele>
        <time>2014-06-30T13:20:07Z</time>
      </trkpt>
      <trkpt lat="40.628550" lon="-4.988267">
        <ele>2685.0</ele>
        <time>2014-06-30T13:20:08Z</time>
      </trkpt>
      <trkpt lat="40.628517" lon="-4.988100">
        <ele>2686.0</ele>
        <time>2014-06-30T13:20:09Z</time>
      </trkpt>
      <trkpt lat="40.628483" lon="-4.987950">
        <ele>2687.0</ele>
        <time>2014-06-30T13:20:10Z</time>
      </trkpt>
      <trkpt lat="40.628450" lon="-4.987817">
        <ele>2687.0</ele>
        <time>2014-06-30T13:20:11Z</time>
      </trkpt>
      <trkpt lat="40.628433" lon="-4.987683">
        <ele>2687.0</ele>
        <time>2014-06-30T13:20:12Z</time>
      </trkpt>
      <trkpt lat="40.628400" lon="-4.987533">
        <ele>2687.0</ele>
        <time>2014-06-30T13:20:13Z</time>
      </trkpt>
      <trkpt lat="40.628367" lon="-4.987383">
        <ele>2687.0</ele>
        <time>2014-06-30T13:20:14Z</time>
      </trkpt>
      <trkpt lat="40.628333" lon="-4.987217">
        <ele>2687.0</ele>
        <time>2014-06-30T13:20:15Z</time>
      </trkpt>
      <trkpt lat="40.628300" lon="-4.987033">
        <ele>2686.0</ele>
        <time>2014-06-30T13:20:16Z</time>
      </trkpt>
      <trkpt lat="40.628267" lon="-4.986850">
        <ele>2685.0</ele>
        <time>2014-06-30T13:20:17Z</time>
      </trkpt>
      <trkpt lat="40.628217" lon="-4.986667">
        <ele>2685.0</ele>
        <time>2014-06-30T13:20:18Z</time>
      </trkpt>
      <trkpt lat="40.628167" lon="-4.986467">
        <ele>2687.0</ele>
        <time>2014-06-30T13:20:19Z</time>
      </trkpt>
      <trkpt lat="40.628133" lon="-4.986283">
        <ele>2688.0</ele>
        <time>2014-06-30T13:20:20Z</time>
      </trkpt>
      <trkpt lat="40.628117" lon="-4.986100">
        <ele>2688.0</ele>
        <time>2014-06-30T13:20:21Z</time>
      </trkpt>
      <trkpt lat="40.628100" lon="-4.985933">
        <ele>2689.0</ele>
        <time>2014-06-30T13:20:22Z</time>
      </trkpt>
      <trkpt lat="40.628100" lon="-4.985767">
        <ele>2688.0</ele>
        <time>2014-06-30T13:20:23Z</time>
      </trkpt>
      <trkpt lat="40.628083" lon="-4.985583">
        <ele>2687.0</ele>
        <time>2014-06-30T13:20:24Z</time>
      </trkpt>
      <trkpt lat="40.628067" lon="-4.985383">
        <ele>2686.0</ele>
        <time>2014-06-30T13:20:25Z</time>
      </trkpt>
      <trkpt lat="40.628050" lon="-4.985183">
        <ele>2685.0</ele>
        <time>2014-06-30T13:20:26Z</time>
      </trkpt>
      <trkpt lat="40.628033" lon="-4.984983">
        <ele>2685.0</ele>
        <time>2014-06-30T13:20:27Z</time>
      </trkpt>
      <trkpt lat="40.628017" lon="-4.984783">
        <ele>2684.0</ele>
        <time>2014-06-30T13:20:28Z</time>
      </trkpt>
      <trkpt lat="40.628000" lon="-4.984583">
        <ele>2684.0</ele>
        <time>2014-06-30T13:20:29Z</time>
      </trkpt>
      <trkpt lat="40.628000" lon="-4.984383">
        <ele>2685.0</ele>
        <time>2014-06-30T13:20:30Z</time>
      </trkpt>
      <trkpt lat="40.628000" lon="-4.984200">
        <ele>2685.0</ele>
        <time>2014-06-30T13:20:31Z</time>
      </trkpt>
      <trkpt lat="40.627983" lon="-4.984033">
        <ele>2687.0</ele>
        <time>2014-06-30T13:20:32Z</time>
      </trkpt>
      <trkpt lat="40.627967" lon="-4.983883">
        <ele>2688.0</ele>
        <time>2014-06-30T13:20:33Z</time>
      </trkpt>
      <trkpt lat="40.627967" lon="-4.983733">
        <ele>2688.0</ele>
        <time>2014-06-30T13:20:34Z</time>
      </trkpt>
      <trkpt lat="40.627950" lon="-4.983567">
        <ele>2689.0</ele>
        <time>2014-06-30T13:20:35Z</time>
      </trkpt>
      <trkpt lat="40.627950" lon="-4.983383">
        <ele>2689.0</ele>
        <time>2014-06-30T13:20:36Z</time>
      </trkpt>
      <trkpt lat="40.627967" lon="-4.983200">
        <ele>2689.0</ele>
        <time>2014-06-30T13:20:37Z</time>
      </trkpt>
      <trkpt lat="40.627983" lon="-4.983017">
        <ele>2689.0</ele>
        <time>2014-06-30T13:20:38Z</time>
      </trkpt>
      <trkpt lat="40.628000" lon="-4.982850">
        <ele>2689.0</ele>
        <time>2014-06-30T13:20:39Z</time>
      </trkpt>
      <trkpt lat="40.628033" lon="-4.982683">
        <ele>2688.0</ele>
        <time>2014-06-30T13:20:40Z</time>
      </trkpt>
      <trkpt lat="40.628033" lon="-4.982517">
        <ele>2687.0</ele>
        <time>2014-06-30T13:20:41Z</time>
      </trkpt>
      <trkpt lat="40.628033" lon="-4.982333">
        <ele>2686.0</ele>
        <time>2014-06-30T13:20:42Z</time>
      </trkpt>
      <trkpt lat="40.628050" lon="-4.982117">
        <ele>2684.0</ele>
        <time>2014-06-30T13:20:43Z</time>
      </trkpt>
      <trkpt lat="40.628050" lon="-4.981917">
        <ele>2682.0</ele>
        <time>2014-06-30T13:20:44Z</time>
      </trkpt>
      <trkpt lat="40.628050" lon="-4.981700">
        <ele>2680.0</ele>
        <time>2014-06-30T13:20:45Z</time>
      </trkpt>
      <trkpt lat="40.628067" lon="-4.981483">
        <ele>2679.0</ele>
        <time>2014-06-30T13:20:46Z</time>
      </trkpt>
      <trkpt lat="40.628083" lon="-4.981283">
        <ele>2679.0</ele>
        <time>2014-06-30T13:20:47Z</time>
      </trkpt>
      <trkpt lat="40.628117" lon="-4.981083">
        <ele>2677.0</ele>
        <time>2014-06-30T13:20:48Z</time>
      </trkpt>
      <trkpt lat="40.628150" lon="-4.980900">
        <ele>2676.0</ele>
        <time>2014-06-30T13:20:49Z</time>
      </trkpt>
      <trkpt lat="40.628167" lon="-4.980700">
        <ele>2675.0</ele>
        <time>2014-06-30T13:20:50Z</time>
      </trkpt>
      <trkpt lat="40.628200" lon="-4.980500">
        <ele>2673.0</ele>
        <time>2014-06-30T13:20:51Z</time>
      </trkpt>
      <trkpt lat="40.628217" lon="-4.980283">
        <ele>2672.0</ele>
        <time>2014-06-30T13:20:52Z</time>
      </trkpt>
      <trkpt lat="40.628233" lon="-4.980083">
        <ele>2671.0</ele>
        <time>2014-06-30T13:20:53Z</time>
      </trkpt>
      <trkpt lat="40.628250" lon="-4.979883">
        <ele>2670.0</ele>
        <time>2014-06-30T13:20:54Z</time>
      </trkpt>
      <trkpt lat="40.628250" lon="-4.979700">
        <ele>2668.0</ele>
        <time>2014-06-30T13:20:55Z</time>
      </trkpt>
      <trkpt lat="40.628267" lon="-4.979500">
        <ele>2666.0</ele>
        <time>2014-06-30T13:20:56Z</time>
      </trkpt>
      <trkpt lat="40.628283" lon="-4.979317">
        <ele>2664.0</ele>
        <time>2014-06-30T13:20:57Z</time>
      </trkpt>
      <trkpt lat="40.628283" lon="-4.979117">
        <ele>2662.0</ele>
        <time>2014-06-30T13:20:58Z</time>
      </trkpt>
      <trkpt lat="40.628267" lon="-4.978933">
        <ele>2660.0</ele>
        <time>2014-06-30T13:20:59Z</time>
      </trkpt>
      <trkpt lat="40.628250" lon="-4.978733">
        <ele>2657.0</ele>
        <time>2014-06-30T13:21:00Z</time>
      </trkpt>
      <trkpt lat="40.628233" lon="-4.978550">
        <ele>2655.0</ele>
        <time>2014-06-30T13:21:01Z</time>
      </trkpt>
      <trkpt lat="40.628233" lon="-4.978333">
        <ele>2653.0</ele>
        <time>2014-06-30T13:21:02Z</time>
      </trkpt>
      <trkpt lat="40.628250" lon="-4.978117">
        <ele>2653.0</ele>
        <time>2014-06-30T13:21:03Z</time>
      </trkpt>
      <trkpt lat="40.628267" lon="-4.977917">
        <ele>2653.0</ele>
        <time>2014-06-30T13:21:04Z</time>
      </trkpt>
      <trkpt lat="40.628283" lon="-4.977717">
        <ele>2652.0</ele>
        <time>2014-06-30T13:21:05Z</time>
      </trkpt>
      <trkpt lat="40.628300" lon="-4.977533">
        <ele>2650.0</ele>
        <time>2014-06-30T13:21:06Z</time>
      </trkpt>
      <trkpt lat="40.628300" lon="-4.977333">
        <ele>2648.0</ele>
        <time>2014-06-30T13:21:07Z</time>
      </trkpt>
      <trkpt lat="40.628317" lon="-4.977133">
        <ele>2646.0</ele>
        <time>2014-06-30T13:21:08Z</time>
      </trkpt>
      <trkpt lat="40.628333" lon="-4.976917">
        <ele>2644.0</ele>
        <time>2014-06-30T13:21:09Z</time>
      </trkpt>
      <trkpt lat="40.628367" lon="-4.976700">
        <ele>2642.0</ele>
        <time>2014-06-30T13:21:10Z</time>
      </trkpt>
      <trkpt lat="40.628400" lon="-4.976483">
        <ele>2640.0</ele>
        <time>2014-06-30T13:21:11Z</time>
      </trkpt>
      <trkpt lat="40.628417" lon="-4.976267">
        <ele>2638.0</ele>
        <time>2014-06-30T13:21:12Z</time>
      </trkpt>
      <trkpt lat="40.628433" lon="-4.976067">
        <ele>2636.0</ele>
        <time>2014-06-30T13:21:13Z</time>
      </trkpt>
      <trkpt lat="40.628450" lon="-4.975850">
        <ele>2634.0</ele>
        <time>2014-06-30T13:21:14Z</time>
      </trkpt>
      <trkpt lat="40.628450" lon="-4.975650">
        <ele>2633.0</ele>
        <time>2014-06-30T13:21:15Z</time>
      </trkpt>
      <trkpt lat="40.628467" lon="-4.975433">
        <ele>2631.0</ele>
        <time>2014-06-30T13:21:16Z</time>
      </trkpt>
      <trkpt lat="40.628467" lon="-4.975217">
        <ele>2630.0</ele>
        <time>2014-06-30T13:21:17Z</time>
      </trkpt>
      <trkpt lat="40.628467" lon="-4.975017">
        <ele>2629.0</ele>
        <time>2014-06-30T13:21:18Z</time>
      </trkpt>
      <trkpt lat="40.628483" lon="-4.974817">
        <ele>2628.0</ele>
        <time>2014-06-30T13:21:19Z</time>
      </trkpt>
      <trkpt lat="40.628500" lon="-4.974633">
        <ele>2628.0</ele>
        <time>2014-06-30T13:21:20Z</time>
      </trkpt>
      <trkpt lat="40.628500" lon="-4.974450">
        <ele>2628.0</ele>
        <time>2014-06-30T13:21:21Z</time>
      </trkpt>
      <trkpt lat="40.628483" lon="-4.974283">
        <ele>2628.0</ele>
        <time>2014-06-30T13:21:22Z</time>
      </trkpt>
      <trkpt lat="40.628467" lon="-4.974117">
        <ele>2627.0</ele>
        <time>2014-06-30T13:21:23Z</time>
      </trkpt>
      <trkpt lat="40.628450" lon="-4.973933">
        <ele>2626.0</ele>
        <time>2014-06-30T13:21:24Z</time>
      </trkpt>
      <trkpt lat="40.628450" lon="-4.973750">
        <ele>2625.0</ele>
        <time>2014-06-30T13:21:25Z</time>
      </trkpt>
      <trkpt lat="40.628467" lon="-4.973567">
        <ele>2624.0</ele>
        <time>2014-06-30T13:21:26Z</time>
      </trkpt>
      <trkpt lat="40.628467" lon="-4.973383">
        <ele>2624.0</ele>
        <time>2014-06-30T13:21:27Z</time>
      </trkpt>
      <trkpt lat="40.628450" lon="-4.973217">
        <ele>2623.0</ele>
        <time>2014-06-30T13:21:28Z</time>
      </trkpt>
      <trkpt lat="40.628450" lon="-4.973050">
        <ele>2622.0</ele>
        <time>2014-06-30T13:21:29Z</time>
      </trkpt>
      <trkpt lat="40.628450" lon="-4.972883">
        <ele>2621.0</ele>
        <time>2014-06-30T13:21:30Z</time>
      </trkpt>
      <trkpt lat="40.628450" lon="-4.972717">
        <ele>2621.0</ele>
        <time>2014-06-30T13:21:31Z</time>
      </trkpt>
      <trkpt lat="40.628467" lon="-4.972567">
        <ele>2620.0</ele>
        <time>2014-06-30T13:21:32Z</time>
      </trkpt>
      <trkpt lat="40.628467" lon="-4.972400">
        <ele>2619.0</ele>
        <time>2014-06-30T13:21:33Z</time>
      </trkpt>
      <trkpt lat="40.628450" lon="-4.972217">
        <ele>2618.0</ele>
        <time>2014-06-30T13:21:34Z</time>
      </trkpt>
      <trkpt lat="40.628433" lon="-4.972067">
        <ele>2619.0</ele>
        <time>2014-06-30T13:21:35Z</time>
      </trkpt>
      <trkpt lat="40.628433" lon="-4.971900">
        <ele>2619.0</ele>
        <time>2014-06-30T13:21:36Z</time>
      </trkpt>
      <trkpt lat="40.628450" lon="-4.971767">
        <ele>2618.0</ele>
        <time>2014-06-30T13:21:37Z</time>
      </trkpt>
      <trkpt lat="40.628467" lon="-4.971617">
        <ele>2618.0</ele>
        <time>2014-06-30T13:21:38Z</time>
      </trkpt>
      <trkpt lat="40.628467" lon="-4.971483">
        <ele>2617.0</ele>
        <time>2014-06-30T13:21:39Z</time>
      </trkpt>
      <trkpt lat="40.628483" lon="-4.971350">
        <ele>2617.0</ele>
        <time>2014-06-30T13:21:40Z</time>
      </trkpt>
      <trkpt lat="40.628500" lon="-4.971200">
        <ele>2616.0</ele>
        <time>2014-06-30T13:21:41Z</time>
      </trkpt>
      <trkpt lat="40.628517" lon="-4.971067">
        <ele>2615.0</ele>
        <time>2014-06-30T13:21:42Z</time>
      </trkpt>
      <trkpt lat="40.628533" lon="-4.970900">
        <ele>2614.0</ele>
        <time>2014-06-30T13:21:43Z</time>
      </trkpt>
      <trkpt lat="40.628567" lon="-4.970733">
        <ele>2613.0</ele>
        <time>2014-06-30T13:21:44Z</time>
      </trkpt>
      <trkpt lat="40.628583" lon="-4.970583">
        <ele>2612.0</ele>
        <time>2014-06-30T13:21:45Z</time>
      </trkpt>
      <trkpt lat="40.628617" lon="-4.970433">
        <ele>2611.0</ele>
        <time>2014-06-30T13:21:46Z</time>
      </trkpt>
      <trkpt lat="40.628633" lon="-4.970283">
        <ele>2609.0</ele>
        <time>2014-06-30T13:21:47Z</time>
      </trkpt>
      <trkpt lat="40.628650" lon="-4.970133">
        <ele>2607.0</ele>
        <time>2014-06-30T13:21:48Z</time>
      </trkpt>
      <trkpt lat="40.628667" lon="-4.969967">
        <ele>2606.0</ele>
        <time>2014-06-30T13:21:49Z</time>
      </trkpt>
      <trkpt lat="40.628700" lon="-4.969817">
        <ele>2605.0</ele>
        <time>2014-06-30T13:21:50Z</time>
      </trkpt>
      <trkpt lat="40.628717" lon="-4.969683">
        <ele>2604.0</ele>
        <time>2014-06-30T13:21:51Z</time>
      </trkpt>
      <trkpt lat="40.628733" lon="-4.969550">
        <ele>2603.0</ele>
        <time>2014-06-30T13:21:52Z</time>
      </trkpt>
      <trkpt lat="40.628750" lon="-4.969417">
        <ele>2600.0</ele>
        <time>2014-06-30T13:21:53Z</time>
      </trkpt>
      <trkpt lat="40.628767" lon="-4.969283">
        <ele>2597.0</ele>
        <time>2014-06-30T13:21:54Z</time>
      </trkpt>
      <trkpt lat="40.628783" lon="-4.969117">
        <ele>2595.0</ele>
        <time>2014-06-30T13:21:55Z</time>
      </trkpt>
      <trkpt lat="40.628800" lon="-4.968950">
        <ele>2592.0</ele>
        <time>2014-06-30T13:21:56Z</time>
      </trkpt>
      <trkpt lat="40.628833" lon="-4.968783">
        <ele>2590.0</ele>
        <time>2014-06-30T13:21:57Z</time>
      </trkpt>
      <trkpt lat="40.628833" lon="-4.968633">
        <ele>2590.0</ele>
        <time>2014-06-30T13:21:58Z</time>
      </trkpt>
      <trkpt lat="40.628850" lon="-4.968500">
        <ele>2589.0</ele>
        <time>2014-06-30T13:21:59Z</time>
      </trkpt>
      <trkpt lat="40.628883" lon="-4.968333">
        <ele>2586.0</ele>
        <time>2014-06-30T13:22:00Z</time>
      </trkpt>
      <trkpt lat="40.628933" lon="-4.968167">
        <ele>2582.0</ele>
        <time>2014-06-30T13:22:01Z</time>
      </trkpt>
      <trkpt lat="40.628983" lon="-4.968000">
        <ele>2579.0</ele>
        <time>2014-06-30T13:22:02Z</time>
      </trkpt>
      <trkpt lat="40.629017" lon="-4.967833">
        <ele>2577.0</ele>
        <time>2014-06-30T13:22:03Z</time>
      </trkpt>
      <trkpt lat="40.629050" lon="-4.967683">
        <ele>2575.0</ele>
        <time>2014-06-30T13:22:04Z</time>
      </trkpt>
      <trkpt lat="40.629067" lon="-4.967550">
        <ele>2573.0</ele>
        <time>2014-06-30T13:22:05Z</time>
      </trkpt>
      <trkpt lat="40.629117" lon="-4.967400">
        <ele>2571.0</ele>
        <time>2014-06-30T13:22:06Z</time>
      </trkpt>
      <trkpt lat="40.629150" lon="-4.967233">
        <ele>2569.0</ele>
        <time>2014-06-30T13:22:07Z</time>
      </trkpt>
      <trkpt lat="40.629183" lon="-4.967083">
        <ele>2566.0</ele>
        <time>2014-06-30T13:22:08Z</time>
      </trkpt>
      <trkpt lat="40.629217" lon="-4.966917">
        <ele>2564.0</ele>
        <time>2014-06-30T13:22:09Z</time>
      </trkpt>
      <trkpt lat="40.629233" lon="-4.966767">
        <ele>2561.0</ele>
        <time>2014-06-30T13:22:10Z</time>
      </trkpt>
      <trkpt lat="40.629283" lon="-4.966600">
        <ele>2558.0</ele>
        <time>2014-06-30T13:22:11Z</time>
      </trkpt>
      <trkpt lat="40.629317" lon="-4.966433">
        <ele>2555.0</ele>
        <time>2014-06-30T13:22:12Z</time>
      </trkpt>
      <trkpt lat="40.629367" lon="-4.966267">
        <ele>2553.0</ele>
        <time>2014-06-30T13:22:13Z</time>
      </trkpt>
      <trkpt lat="40.629367" lon="-4.966117">
        <ele>2551.0</ele>
        <time>2014-06-30T13:22:14Z</time>
      </trkpt>
      <trkpt lat="40.629383" lon="-4.965967">
        <ele>2550.0</ele>
        <time>2014-06-30T13:22:15Z</time>
      </trkpt>
      <trkpt lat="40.629417" lon="-4.965833">
        <ele>2547.0</ele>
        <time>2014-06-30T13:22:16Z</time>
      </trkpt>
      <trkpt lat="40.629450" lon="-4.965667">
        <ele>2544.0</ele>
        <time>2014-06-30T13:22:17Z</time>
      </trkpt>
      <trkpt lat="40.629483" lon="-4.965500">
        <ele>2541.0</ele>
        <time>2014-06-30T13:22:18Z</time>
      </trkpt>
      <trkpt lat="40.629533" lon="-4.965333">
        <ele>2539.0</ele>
        <time>2014-06-30T13:22:19Z</time>
      </trkpt>
      <trkpt lat="40.629567" lon="-4.965183">
        <ele>2537.0</ele>
        <time>2014-06-30T13:22:20Z</time>
      </trkpt>
      <trkpt lat="40.629600" lon="-4.965033">
        <ele>2536.0</ele>
        <time>2014-06-30T13:22:21Z</time>
      </trkpt>
      <trkpt lat="40.629633" lon="-4.964900">
        <ele>2534.0</ele>
        <time>2014-06-30T13:22:22Z</time>
      </trkpt>
      <trkpt lat="40.629683" lon="-4.964750">
        <ele>2532.0</ele>
        <time>2014-06-30T13:22:23Z</time>
      </trkpt>
      <trkpt lat="40.629717" lon="-4.964600">
        <ele>2529.0</ele>
        <time>2014-06-30T13:22:24Z</time>
      </trkpt>
      <trkpt lat="40.629733" lon="-4.964433">
        <ele>2527.0</ele>
        <time>2014-06-30T13:22:25Z</time>
      </trkpt>
      <trkpt lat="40.629750" lon="-4.964267">
        <ele>2525.0</ele>
        <time>2014-06-30T13:22:26Z</time>
      </trkpt>
      <trkpt lat="40.629767" lon="-4.964117">
        <ele>2523.0</ele>
        <time>2014-06-30T13:22:27Z</time>
      </trkpt>
      <trkpt lat="40.629783" lon="-4.963967">
        <ele>2520.0</ele>
        <time>2014-06-30T13:22:28Z</time>
      </trkpt>
      <trkpt lat="40.629800" lon="-4.963833">
        <ele>2518.0</ele>
        <time>2014-06-30T13:22:29Z</time>
      </trkpt>
      <trkpt lat="40.629817" lon="-4.963650">
        <ele>2515.0</ele>
        <time>2014-06-30T13:22:30Z</time>
      </trkpt>
      <trkpt lat="40.629817" lon="-4.963483">
        <ele>2512.0</ele>
        <time>2014-06-30T13:22:31Z</time>
      </trkpt>
      <trkpt lat="40.629817" lon="-4.963317">
        <ele>2511.0</ele>
        <time>2014-06-30T13:22:32Z</time>
      </trkpt>
      <trkpt lat="40.629817" lon="-4.963133">
        <ele>2512.0</ele>
        <time>2014-06-30T13:22:33Z</time>
      </trkpt>
      <trkpt lat="40.629800" lon="-4.962983">
        <ele>2511.0</ele>
        <time>2014-06-30T13:22:34Z</time>
      </trkpt>
      <trkpt lat="40.629783" lon="-4.962850">
        <ele>2510.0</ele>
        <time>2014-06-30T13:22:35Z</time>
      </trkpt>
      <trkpt lat="40.629783" lon="-4.962700">
        <ele>2509.0</ele>
        <time>2014-06-30T13:22:36Z</time>
      </trkpt>
      <trkpt lat="40.629783" lon="-4.962533">
        <ele>2508.0</ele>
        <time>2014-06-30T13:22:37Z</time>
      </trkpt>
      <trkpt lat="40.629767" lon="-4.962367">
        <ele>2506.0</ele>
        <time>2014-06-30T13:22:38Z</time>
      </trkpt>
      <trkpt lat="40.629750" lon="-4.962217">
        <ele>2506.0</ele>
        <time>2014-06-30T13:22:39Z</time>
      </trkpt>
      <trkpt lat="40.629733" lon="-4.962083">
        <ele>2504.0</ele>
        <time>2014-06-30T13:22:40Z</time>
      </trkpt>
      <trkpt lat="40.629717" lon="-4.961950">
        <ele>2503.0</ele>
        <time>2014-06-30T13:22:41Z</time>
      </trkpt>
      <trkpt lat="40.629700" lon="-4.961800">
        <ele>2501.0</ele>
        <time>2014-06-30T13:22:42Z</time>
      </trkpt>
      <trkpt lat="40.629667" lon="-4.961617">
        <ele>2499.0</ele>
        <time>2014-06-30T13:22:43Z</time>
      </trkpt>
      <trkpt lat="40.629633" lon="-4.961450">
        <ele>2495.0</ele>
        <time>2014-06-30T13:22:44Z</time>
      </trkpt>
      <trkpt lat="40.629583" lon="-4.961267">
        <ele>2495.0</ele>
        <time>2014-06-30T13:22:45Z</time>
      </trkpt>
      <trkpt lat="40.629550" lon="-4.961100">
        <ele>2495.0</ele>
        <time>2014-06-30T13:22:46Z</time>
      </trkpt>
      <trkpt lat="40.629533" lon="-4.960950">
        <ele>2494.0</ele>
        <time>2014-06-30T13:22:47Z</time>
      </trkpt>
      <trkpt lat="40.629517" lon="-4.960817">
        <ele>2494.0</ele>
        <time>2014-06-30T13:22:48Z</time>
      </trkpt>
      <trkpt lat="40.629500" lon="-4.960667">
        <ele>2493.0</ele>
        <time>2014-06-30T13:22:49Z</time>
      </trkpt>
      <trkpt lat="40.629467" lon="-4.960533">
        <ele>2492.0</ele>
        <time>2014-06-30T13:22:50Z</time>
      </trkpt>
      <trkpt lat="40.629450" lon="-4.960400">
        <ele>2491.0</ele>
        <time>2014-06-30T13:22:51Z</time>
      </trkpt>
      <trkpt lat="40.629417" lon="-4.960267">
        <ele>2489.0</ele>
        <time>2014-06-30T13:22:52Z</time>
      </trkpt>
      <trkpt lat="40.629383" lon="-4.960117">
        <ele>2488.0</ele>
        <time>2014-06-30T13:22:53Z</time>
      </trkpt>
      <trkpt lat="40.629350" lon="-4.959950">
        <ele>2487.0</ele>
        <time>2014-06-30T13:22:54Z</time>
      </trkpt>
      <trkpt lat="40.629333" lon="-4.959783">
        <ele>2487.0</ele>
        <time>2014-06-30T13:22:55Z</time>
      </trkpt>
      <trkpt lat="40.629300" lon="-4.959633">
        <ele>2489.0</ele>
        <time>2014-06-30T13:22:56Z</time>
      </trkpt>
      <trkpt lat="40.629283" lon="-4.959517">
        <ele>2490.0</ele>
        <time>2014-06-30T13:22:57Z</time>
      </trkpt>
      <trkpt lat="40.629267" lon="-4.959400">
        <ele>2490.0</ele>
        <time>2014-06-30T13:22:58Z</time>
      </trkpt>
      <trkpt lat="40.629233" lon="-4.959283">
        <ele>2490.0</ele>
        <time>2014-06-30T13:22:59Z</time>
      </trkpt>
      <trkpt lat="40.629217" lon="-4.959133">
        <ele>2490.0</ele>
        <time>2014-06-30T13:23:00Z</time>
      </trkpt>
      <trkpt lat="40.629200" lon="-4.958950">
        <ele>2490.0</ele>
        <time>2014-06-30T13:23:01Z</time>
      </trkpt>
      <trkpt lat="40.629183" lon="-4.958767">
        <ele>2490.0</ele>
        <time>2014-06-30T13:23:02Z</time>
      </trkpt>
      <trkpt lat="40.629183" lon="-4.958600">
        <ele>2491.0</ele>
        <time>2014-06-30T13:23:03Z</time>
      </trkpt>
      <trkpt lat="40.629167" lon="-4.958417">
        <ele>2492.0</ele>
        <time>2014-06-30T13:23:04Z</time>
      </trkpt>
      <trkpt lat="40.629150" lon="-4.958250">
        <ele>2494.0</ele>
        <time>2014-06-30T13:23:05Z</time>
      </trkpt>
      <trkpt lat="40.629133" lon="-4.958100">
        <ele>2497.0</ele>
        <time>2014-06-30T13:23:06Z</time>
      </trkpt>
      <trkpt lat="40.629133" lon="-4.957983">
        <ele>2500.0</ele>
        <time>2014-06-30T13:23:07Z</time>
      </trkpt>
      <trkpt lat="40.629133" lon="-4.957867">
        <ele>2502.0</ele>
        <time>2014-06-30T13:23:08Z</time>
      </trkpt>
      <trkpt lat="40.629150" lon="-4.957733">
        <ele>2504.0</ele>
        <time>2014-06-30T13:23:09Z</time>
      </trkpt>
      <trkpt lat="40.629200" lon="-4.957600">
        <ele>2505.0</ele>
        <time>2014-06-30T13:23:10Z</time>
      </trkpt>
      <trkpt lat="40.629267" lon="-4.957483">
        <ele>2506.0</ele>
        <time>2014-06-30T13:23:11Z</time>
      </trkpt>
      <trkpt lat="40.629350" lon="-4.957417">
        <ele>2507.0</ele>
        <time>2014-06-30T13:23:12Z</time>
      </trkpt>
      <trkpt lat="40.629417" lon="-4.957383">
        <ele>2509.0</ele>
        <time>2014-06-30T13:23:13Z</time>
      </trkpt>
      <trkpt lat="40.629483" lon="-4.957417">
        <ele>2505.0</ele>
        <time>2014-06-30T13:23:14Z</time>
      </trkpt>
      <trkpt lat="40.629533" lon="-4.957467">
        <ele>2506.0</ele>
        <time>2014-06-30T13:23:15Z</time>
      </trkpt>
      <trkpt lat="40.629567" lon="-4.957500">
        <ele>2507.0</ele>
        <time>2014-06-30T13:23:16Z</time>
      </trkpt>
      <trkpt lat="40.629583" lon="-4.957550">
        <ele>2509.0</ele>
        <time>2014-06-30T13:23:17Z</time>
      </trkpt>
      <trkpt lat="40.629583" lon="-4.957567">
        <ele>2511.0</ele>
        <time>2014-06-30T13:23:18Z</time>
      </trkpt>
      <trkpt lat="40.629567" lon="-4.957600">
        <ele>2512.0</ele>
        <time>2014-06-30T13:23:19Z</time>
      </trkpt>
      <trkpt lat="40.629517" lon="-4.957633">
        <ele>2513.0</ele>
        <time>2014-06-30T13:23:20Z</time>
      </trkpt>
      <trkpt lat="40.629467" lon="-4.957667">
        <ele>2513.0</ele>
        <time>2014-06-30T13:23:21Z</time>
      </trkpt>
      <trkpt lat="40.629383" lon="-4.957650">
        <ele>2513.0</ele>
        <time>2014-06-30T13:23:22Z</time>
      </trkpt>
      <trkpt lat="40.629283" lon="-4.957583">
        <ele>2513.0</ele>
        <time>2014-06-30T13:23:23Z</time>
      </trkpt>
      <trkpt lat="40.629200" lon="-4.957533">
        <ele>2516.0</ele>
        <time>2014-06-30T13:23:24Z</time>
      </trkpt>
      <trkpt lat="40.629133" lon="-4.957450">
        <ele>2519.0</ele>
        <time>2014-06-30T13:23:25Z</time>
      </trkpt>
      <trkpt lat="40.629067" lon="-4.957367">
        <ele>2521.0</ele>
        <time>2014-06-30T13:23:26Z</time>
      </trkpt>
      <trkpt lat="40.629017" lon="-4.957250">
        <ele>2523.0</ele>
        <time>2014-06-30T13:23:27Z</time>
      </trkpt>
      <trkpt lat="40.628983" lon="-4.957133">
        <ele>2524.0</ele>
        <time>2014-06-30T13:23:28Z</time>
      </trkpt>
      <trkpt lat="40.628967" lon="-4.956983">
        <ele>2524.0</ele>
        <time>2014-06-30T13:23:29Z</time>
      </trkpt>
      <trkpt lat="40.628967" lon="-4.956833">
        <ele>2524.0</ele>
        <time>2014-06-30T13:23:30Z</time>
      </trkpt>
      <trkpt lat="40.629000" lon="-4.956683">
        <ele>2525.0</ele>
        <time>2014-06-30T13:23:31Z</time>
      </trkpt>
      <trkpt lat="40.629050" lon="-4.956550">
        <ele>2526.0</ele>
        <time>2014-06-30T13:23:32Z</time>
      </trkpt>
      <trkpt lat="40.629100" lon="-4.956450">
        <ele>2527.0</ele>
        <time>2014-06-30T13:23:33Z</time>
      </trkpt>
      <trkpt lat="40.629167" lon="-4.956350">
        <ele>2528.0</ele>
        <time>2014-06-30T13:23:34Z</time>
      </trkpt>
      <trkpt lat="40.629217" lon="-4.956267">
        <ele>2530.0</ele>
        <time>2014-06-30T13:23:35Z</time>
      </trkpt>
      <trkpt lat="40.629283" lon="-4.956200">
        <ele>2528.0</ele>
        <time>2014-06-30T13:23:36Z</time>
      </trkpt>
      <trkpt lat="40.629367" lon="-4.956133">
        <ele>2528.0</ele>
        <time>2014-06-30T13:23:37Z</time>
      </trkpt>
      <trkpt lat="40.629433" lon="-4.956083">
        <ele>2529.0</ele>
        <time>2014-06-30T13:23:38Z</time>
      </trkpt>
      <trkpt lat="40.629500" lon="-4.956050">
        <ele>2530.0</ele>
        <time>2014-06-30T13:23:39Z</time>
      </trkpt>
      <trkpt lat="40.629550" lon="-4.956033">
        <ele>2531.0</ele>
        <time>2014-06-30T13:23:40Z</time>
      </trkpt>
      <trkpt lat="40.629600" lon="-4.956050">
        <ele>2532.0</ele>
        <time>2014-06-30T13:23:41Z</time>
      </trkpt>
      <trkpt lat="40.629633" lon="-4.956083">
        <ele>2534.0</ele>
        <time>2014-06-30T13:23:42Z</time>
      </trkpt>
      <trkpt lat="40.629667" lon="-4.956133">
        <ele>2534.0</ele>
        <time>2014-06-30T13:23:43Z</time>
      </trkpt>
      <trkpt lat="40.629683" lon="-4.956183">
        <ele>2535.0</ele>
        <time>2014-06-30T13:23:44Z</time>
      </trkpt>
      <trkpt lat="40.629683" lon="-4.956217">
        <ele>2536.0</ele>
        <time>2014-06-30T13:23:45Z</time>
      </trkpt>
      <trkpt lat="40.629650" lon="-4.956267">
        <ele>2537.0</ele>
        <time>2014-06-30T13:23:46Z</time>
      </trkpt>
      <trkpt lat="40.629600" lon="-4.956300">
        <ele>2538.0</ele>
        <time>2014-06-30T13:23:47Z</time>
      </trkpt>
      <trkpt lat="40.629533" lon="-4.956317">
        <ele>2540.0</ele>
        <time>2014-06-30T13:23:48Z</time>
      </trkpt>
      <trkpt lat="40.629467" lon="-4.956283">
        <ele>2542.0</ele>
        <time>2014-06-30T13:23:49Z</time>
      </trkpt>
      <trkpt lat="40.629400" lon="-4.956250">
        <ele>2543.0</ele>
        <time>2014-06-30T13:23:50Z</time>
      </trkpt>
      <trkpt lat="40.629333" lon="-4.956200">
        <ele>2544.0</ele>
        <time>2014-06-30T13:23:51Z</time>
      </trkpt>
      <trkpt lat="40.629250" lon="-4.956133">
        <ele>2546.0</ele>
        <time>2014-06-30T13:23:52Z</time>
      </trkpt>
      <trkpt lat="40.629183" lon="-4.956050">
        <ele>2547.0</ele>
        <time>2014-06-30T13:23:53Z</time>
      </trkpt>
      <trkpt lat="40.629117" lon="-4.955933">
        <ele>2548.0</ele>
        <time>2014-06-30T13:23:54Z</time>
      </trkpt>
      <trkpt lat="40.629050" lon="-4.955817">
        <ele>2550.0</ele>
        <time>2014-06-30T13:23:55Z</time>
      </trkpt>
      <trkpt lat="40.629017" lon="-4.955700">
        <ele>2551.0</ele>
        <time>2014-06-30T13:23:56Z</time>
      </trkpt>
      <trkpt lat="40.628983" lon="-4.955583">
        <ele>2552.0</ele>
        <time>2014-06-30T13:23:57Z</time>
      </trkpt>
      <trkpt lat="40.628950" lon="-4.955450">
        <ele>2553.0</ele>
        <time>2014-06-30T13:23:58Z</time>
      </trkpt>
      <trkpt lat="40.628950" lon="-4.955300">
        <ele>2550.0</ele>
        <time>2014-06-30T13:23:59Z</time>
      </trkpt>
      <trkpt lat="40.628967" lon="-4.955150">
        <ele>2550.0</ele>
        <time>2014-06-30T13:24:00Z</time>
      </trkpt>
      <trkpt lat="40.629017" lon="-4.955000">
        <ele>2549.0</ele>
        <time>2014-06-30T13:24:01Z</time>
      </trkpt>
      <trkpt lat="40.629083" lon="-4.954883">
        <ele>2549.0</ele>
        <time>2014-06-30T13:24:02Z</time>
      </trkpt>
      <trkpt lat="40.629167" lon="-4.954800">
        <ele>2549.0</ele>
        <time>2014-06-30T13:24:03Z</time>
      </trkpt>
      <trkpt lat="40.629233" lon="-4.954750">
        <ele>2549.0</ele>
        <time>2014-06-30T13:24:04Z</time>
      </trkpt>
      <trkpt lat="40.629317" lon="-4.954733">
        <ele>2550.0</ele>
        <time>2014-06-30T13:24:05Z</time>
      </trkpt>
      <trkpt lat="40.629383" lon="-4.954733">
        <ele>2551.0</ele>
        <time>2014-06-30T13:24:06Z</time>
      </trkpt>
      <trkpt lat="40.629450" lon="-4.954717">
        <ele>2555.0</ele>
        <time>2014-06-30T13:24:07Z</time>
      </trkpt>
      <trkpt lat="40.629500" lon="-4.954700">
        <ele>2554.0</ele>
        <time>2014-06-30T13:24:08Z</time>
      </trkpt>
      <trkpt lat="40.629550" lon="-4.954683">
        <ele>2554.0</ele>
        <time>2014-06-30T13:24:09Z</time>
      </trkpt>
      <trkpt lat="40.629600" lon="-4.954667">
        <ele>2554.0</ele>
        <time>2014-06-30T13:24:10Z</time>
      </trkpt>
      <trkpt lat="40.629667" lon="-4.954683">
        <ele>2554.0</ele>
        <time>2014-06-30T13:24:11Z</time>
      </trkpt>
      <trkpt lat="40.629733" lon="-4.954733">
        <ele>2555.0</ele>
        <time>2014-06-30T13:24:12Z</time>
      </trkpt>
      <trkpt lat="40.629767" lon="-4.954817">
        <ele>2556.0</ele>
        <time>2014-06-30T13:24:13Z</time>
      </trkpt>
      <trkpt lat="40.629783" lon="-4.954883">
        <ele>2557.0</ele>
        <time>2014-06-30T13:24:14Z</time>
      </trkpt>
      <trkpt lat="40.629767" lon="-4.954917">
        <ele>2559.0</ele>
        <time>2014-06-30T13:24:15Z</time>
      </trkpt>
      <trkpt lat="40.629767" lon="-4.954950">
        <ele>2561.0</ele>
        <time>2014-06-30T13:24:16Z</time>
      </trkpt>
      <trkpt lat="40.629750" lon="-4.954983">
        <ele>2560.0</ele>
        <time>2014-06-30T13:24:17Z</time>
      </trkpt>
      <trkpt lat="40.629733" lon="-4.955017">
        <ele>2560.0</ele>
        <time>2014-06-30T13:24:18Z</time>
      </trkpt>
      <trkpt lat="40.629683" lon="-4.955050">
        <ele>2561.0</ele>
        <time>2014-06-30T13:24:19Z</time>
      </trkpt>
      <trkpt lat="40.629617" lon="-4.955033">
        <ele>2561.0</ele>
        <time>2014-06-30T13:24:20Z</time>
      </trkpt>
      <trkpt lat="40.629533" lon="-4.955000">
        <ele>2561.0</ele>
        <time>2014-06-30T13:24:21Z</time>
      </trkpt>
      <trkpt lat="40.629467" lon="-4.954933">
        <ele>2562.0</ele>
        <time>2014-06-30T13:24:22Z</time>
      </trkpt>
      <trkpt lat="40.629417" lon="-4.954833">
        <ele>2563.0</ele>
        <time>2014-06-30T13:24:23Z</time>
      </trkpt>
      <trkpt lat="40.629383" lon="-4.954733">
        <ele>2563.0</ele>
        <time>2014-06-30T13:24:24Z</time>
      </trkpt>
      <trkpt lat="40.629350" lon="-4.954617">
        <ele>2564.0</ele>
        <time>2014-06-30T13:24:25Z</time>
      </trkpt>
      <trkpt lat="40.629333" lon="-4.954500">
        <ele>2563.0</ele>
        <time>2014-06-30T13:24:26Z</time>
      </trkpt>
      <trkpt lat="40.629300" lon="-4.954367">
        <ele>2562.0</ele>
        <time>2014-06-30T13:24:27Z</time>
      </trkpt>
      <trkpt lat="40.629267" lon="-4.954217">
        <ele>2561.0</ele>
        <time>2014-06-30T13:24:28Z</time>
      </trkpt>
      <trkpt lat="40.629233" lon="-4.954050">
        <ele>2561.0</ele>
        <time>2014-06-30T13:24:29Z</time>
      </trkpt>
      <trkpt lat="40.629217" lon="-4.953900">
        <ele>2562.0</ele>
        <time>2014-06-30T13:24:30Z</time>
      </trkpt>
      <trkpt lat="40.629200" lon="-4.953750">
        <ele>2562.0</ele>
        <time>2014-06-30T13:24:31Z</time>
      </trkpt>
      <trkpt lat="40.629200" lon="-4.953583">
        <ele>2562.0</ele>
        <time>2014-06-30T13:24:32Z</time>
      </trkpt>
      <trkpt lat="40.629217" lon="-4.953417">
        <ele>2563.0</ele>
        <time>2014-06-30T13:24:33Z</time>
      </trkpt>
      <trkpt lat="40.629233" lon="-4.953267">
        <ele>2564.0</ele>
        <time>2014-06-30T13:24:34Z</time>
      </trkpt>
      <trkpt lat="40.629267" lon="-4.953133">
        <ele>2565.0</ele>
        <time>2014-06-30T13:24:35Z</time>
      </trkpt>
      <trkpt lat="40.629300" lon="-4.953017">
        <ele>2566.0</ele>
        <time>2014-06-30T13:24:36Z</time>
      </trkpt>
      <trkpt lat="40.629333" lon="-4.952900">
        <ele>2567.0</ele>
        <time>2014-06-30T13:24:37Z</time>
      </trkpt>
      <trkpt lat="40.629383" lon="-4.952783">
        <ele>2567.0</ele>
        <time>2014-06-30T13:24:38Z</time>
      </trkpt>
      <trkpt lat="40.629450" lon="-4.952683">
        <ele>2568.0</ele>
        <time>2014-06-30T13:24:39Z</time>
      </trkpt>
      <trkpt lat="40.629517" lon="-4.952583">
        <ele>2568.0</ele>
        <time>2014-06-30T13:24:40Z</time>
      </trkpt>
      <trkpt lat="40.629600" lon="-4.952533">
        <ele>2569.0</ele>
        <time>2014-06-30T13:24:41Z</time>
      </trkpt>
      <trkpt lat="40.629667" lon="-4.952517">
        <ele>2570.0</ele>
        <time>2014-06-30T13:24:42Z</time>
      </trkpt>
      <trkpt lat="40.629750" lon="-4.952517">
        <ele>2570.0</ele>
        <time>2014-06-30T13:24:43Z</time>
      </trkpt>
      <trkpt lat="40.629800" lon="-4.952533">
        <ele>2571.0</ele>
        <time>2014-06-30T13:24:44Z</time>
      </trkpt>
      <trkpt lat="40.629850" lon="-4.952567">
        <ele>2572.0</ele>
        <time>2014-06-30T13:24:45Z</time>
      </trkpt>
      <trkpt lat="40.629883" lon="-4.952600">
        <ele>2574.0</ele>
        <time>2014-06-30T13:24:46Z</time>
      </trkpt>
      <trkpt lat="40.629917" lon="-4.952650">
        <ele>2575.0</ele>
        <time>2014-06-30T13:24:47Z</time>
      </trkpt>
      <trkpt lat="40.629950" lon="-4.952717">
        <ele>2572.0</ele>
        <time>2014-06-30T13:24:48Z</time>
      </trkpt>
      <trkpt lat="40.629950" lon="-4.952750">
        <ele>2573.0</ele>
        <time>2014-06-30T13:24:49Z</time>
      </trkpt>
      <trkpt lat="40.629967" lon="-4.952767">
        <ele>2574.0</ele>
        <time>2014-06-30T13:24:50Z</time>
      </trkpt>
      <trkpt lat="40.629950" lon="-4.952800">
        <ele>2575.0</ele>
        <time>2014-06-30T13:24:51Z</time>
      </trkpt>
      <trkpt lat="40.629933" lon="-4.952833">
        <ele>2576.0</ele>
        <time>2014-06-30T13:24:52Z</time>
      </trkpt>
      <trkpt lat="40.629917" lon="-4.952883">
        <ele>2577.0</ele>
        <time>2014-06-30T13:24:53Z</time>
      </trkpt>
      <trkpt lat="40.629883" lon="-4.952900">
        <ele>2578.0</ele>
        <time>2014-06-30T13:24:54Z</time>
      </trkpt>
      <trkpt lat="40.629833" lon="-4.952917">
        <ele>2577.0</ele>
        <time>2014-06-30T13:24:55Z</time>
      </trkpt>
      <trkpt lat="40.629767" lon="-4.952883">
        <ele>2578.0</ele>
        <time>2014-06-30T13:24:56Z</time>
      </trkpt>
      <trkpt lat="40.629717" lon="-4.952850">
        <ele>2578.0</ele>
        <time>2014-06-30T13:24:57Z</time>
      </trkpt>
      <trkpt lat="40.629667" lon="-4.952767">
        <ele>2579.0</ele>
        <time>2014-06-30T13:24:58Z</time>
      </trkpt>
      <trkpt lat="40.629617" lon="-4.952700">
        <ele>2580.0</ele>
        <time>2014-06-30T13:24:59Z</time>
      </trkpt>
      <trkpt lat="40.629550" lon="-4.952617">
        <ele>2579.0</ele>
        <time>2014-06-30T13:25:00Z</time>
      </trkpt>
      <trkpt lat="40.629483" lon="-4.952517">
        <ele>2579.0</ele>
        <time>2014-06-30T13:25:01Z</time>
      </trkpt>
      <trkpt lat="40.629417" lon="-4.952383">
        <ele>2578.0</ele>
        <time>2014-06-30T13:25:02Z</time>
      </trkpt>
      <trkpt lat="40.629367" lon="-4.952250">
        <ele>2578.0</ele>
        <time>2014-06-30T13:25:03Z</time>
      </trkpt>
      <trkpt lat="40.629300" lon="-4.952117">
        <ele>2578.0</ele>
        <time>2014-06-30T13:25:04Z</time>
      </trkpt>
      <trkpt lat="40.629233" lon="-4.951983">
        <ele>2578.0</ele>
        <time>2014-06-30T13:25:05Z</time>
      </trkpt>
      <trkpt lat="40.629167" lon="-4.951850">
        <ele>2578.0</ele>
        <time>2014-06-30T13:25:06Z</time>
      </trkpt>
      <trkpt lat="40.629100" lon="-4.951717">
        <ele>2579.0</ele>
        <time>2014-06-30T13:25:07Z</time>
      </trkpt>
      <trkpt lat="40.629050" lon="-4.951600">
        <ele>2580.0</ele>
        <time>2014-06-30T13:25:08Z</time>
      </trkpt>
      <trkpt lat="40.629017" lon="-4.951450">
        <ele>2581.0</ele>
        <time>2014-06-30T13:25:09Z</time>
      </trkpt>
      <trkpt lat="40.628983" lon="-4.951317">
        <ele>2582.0</ele>
        <time>2014-06-30T13:25:10Z</time>
      </trkpt>
      <trkpt lat="40.628967" lon="-4.951183">
        <ele>2583.0</ele>
        <time>2014-06-30T13:25:11Z</time>
      </trkpt>
      <trkpt lat="40.628950" lon="-4.951050">
        <ele>2584.0</ele>
        <time>2014-06-30T13:25:12Z</time>
      </trkpt>
      <trkpt lat="40.628967" lon="-4.950900">
        <ele>2585.0</ele>
        <time>2014-06-30T13:25:13Z</time>
      </trkpt>
      <trkpt lat="40.628983" lon="-4.950767">
        <ele>2586.0</ele>
        <time>2014-06-30T13:25:14Z</time>
      </trkpt>
      <trkpt lat="40.629050" lon="-4.950667">
        <ele>2586.0</ele>
        <time>2014-06-30T13:25:15Z</time>
      </trkpt>
      <trkpt lat="40.629117" lon="-4.950567">
        <ele>2587.0</ele>
        <time>2014-06-30T13:25:16Z</time>
      </trkpt>
      <trkpt lat="40.629183" lon="-4.950467">
        <ele>2589.0</ele>
        <time>2014-06-30T13:25:17Z</time>
      </trkpt>
      <trkpt lat="40.629250" lon="-4.950400">
        <ele>2587.0</ele>
        <time>2014-06-30T13:25:18Z</time>
      </trkpt>
      <trkpt lat="40.629317" lon="-4.950333">
        <ele>2586.0</ele>
        <time>2014-06-30T13:25:19Z</time>
      </trkpt>
      <trkpt lat="40.629367" lon="-4.950317">
        <ele>2586.0</ele>
        <time>2014-06-30T13:25:20Z</time>
      </trkpt>
      <trkpt lat="40.629433" lon="-4.950317">
        <ele>2586.0</ele>
        <time>2014-06-30T13:25:21Z</time>
      </trkpt>
      <trkpt lat="40.629483" lon="-4.950333">
        <ele>2586.0</ele>
        <time>2014-06-30T13:25:22Z</time>
      </trkpt>
      <trkpt lat="40.629517" lon="-4.950367">
        <ele>2587.0</ele>
        <time>2014-06-30T13:25:23Z</time>
      </trkpt>
      <trkpt lat="40.629550" lon="-4.950433">
        <ele>2588.0</ele>
        <time>2014-06-30T13:25:24Z</time>
      </trkpt>
      <trkpt lat="40.629550" lon="-4.950483">
        <ele>2588.0</ele>
        <time>2014-06-30T13:25:25Z</time>
      </trkpt>
      <trkpt lat="40.629517" lon="-4.950550">
        <ele>2589.0</ele>
        <time>2014-06-30T13:25:26Z</time>
      </trkpt>
      <trkpt lat="40.629483" lon="-4.950600">
        <ele>2592.0</ele>
        <time>2014-06-30T13:25:27Z</time>
      </trkpt>
      <trkpt lat="40.629450" lon="-4.950633">
        <ele>2591.0</ele>
        <time>2014-06-30T13:25:28Z</time>
      </trkpt>
      <trkpt lat="40.629383" lon="-4.950650">
        <ele>2592.0</ele>
        <time>2014-06-30T13:25:29Z</time>
      </trkpt>
      <trkpt lat="40.629317" lon="-4.950617">
        <ele>2592.0</ele>
        <time>2014-06-30T13:25:30Z</time>
      </trkpt>
      <trkpt lat="40.629233" lon="-4.950567">
        <ele>2593.0</ele>
        <time>2014-06-30T13:25:31Z</time>
      </trkpt>
      <trkpt lat="40.629150" lon="-4.950500">
        <ele>2593.0</ele>
        <time>2014-06-30T13:25:32Z</time>
      </trkpt>
      <trkpt lat="40.629067" lon="-4.950400">
        <ele>2594.0</ele>
        <time>2014-06-30T13:25:33Z</time>
      </trkpt>
      <trkpt lat="40.629000" lon="-4.950283">
        <ele>2595.0</ele>
        <time>2014-06-30T13:25:34Z</time>
      </trkpt>
      <trkpt lat="40.628950" lon="-4.950167">
        <ele>2596.0</ele>
        <time>2014-06-30T13:25:35Z</time>
      </trkpt>
      <trkpt lat="40.628900" lon="-4.950067">
        <ele>2597.0</ele>
        <time>2014-06-30T13:25:36Z</time>
      </trkpt>
      <trkpt lat="40.628867" lon="-4.949950">
        <ele>2598.0</ele>
        <time>2014-06-30T13:25:37Z</time>
      </trkpt>
      <trkpt lat="40.628833" lon="-4.949817">
        <ele>2599.0</ele>
        <time>2014-06-30T13:25:38Z</time>
      </trkpt>
      <trkpt lat="40.628817" lon="-4.949683">
        <ele>2599.0</ele>
        <time>2014-06-30T13:25:39Z</time>
      </trkpt>
      <trkpt lat="40.628817" lon="-4.949533">
        <ele>2600.0</ele>
        <time>2014-06-30T13:25:40Z</time>
      </trkpt>
      <trkpt lat="40.628817" lon="-4.949400">
        <ele>2601.0</ele>
        <time>2014-06-30T13:25:41Z</time>
      </trkpt>
      <trkpt lat="40.628833" lon="-4.949267">
        <ele>2602.0</ele>
        <time>2014-06-30T13:25:42Z</time>
      </trkpt>
      <trkpt lat="40.628867" lon="-4.949133">
        <ele>2603.0</ele>
        <time>2014-06-30T13:25:43Z</time>
      </trkpt>
      <trkpt lat="40.628883" lon="-4.949000">
        <ele>2604.0</ele>
        <time>2014-06-30T13:25:44Z</time>
      </trkpt>
      <trkpt lat="40.628917" lon="-4.948883">
        <ele>2605.0</ele>
        <time>2014-06-30T13:25:45Z</time>
      </trkpt>
      <trkpt lat="40.628967" lon="-4.948767">
        <ele>2606.0</ele>
        <time>2014-06-30T13:25:46Z</time>
      </trkpt>
      <trkpt lat="40.629033" lon="-4.948700">
        <ele>2606.0</ele>
        <time>2014-06-30T13:25:47Z</time>
      </trkpt>
      <trkpt lat="40.629117" lon="-4.948650">
        <ele>2606.0</ele>
        <time>2014-06-30T13:25:48Z</time>
      </trkpt>
      <trkpt lat="40.629183" lon="-4.948617">
        <ele>2606.0</ele>
        <time>2014-06-30T13:25:49Z</time>
      </trkpt>
      <trkpt lat="40.629250" lon="-4.948633">
        <ele>2606.0</ele>
        <time>2014-06-30T13:25:50Z</time>
      </trkpt>
      <trkpt lat="40.629300" lon="-4.948650">
        <ele>2606.0</ele>
        <time>2014-06-30T13:25:51Z</time>
      </trkpt>
      <trkpt lat="40.629317" lon="-4.948717">
        <ele>2606.0</ele>
        <time>2014-06-30T13:25:52Z</time>
      </trkpt>
      <trkpt lat="40.629300" lon="-4.948783">
        <ele>2607.0</ele>
        <time>2014-06-30T13:25:53Z</time>
      </trkpt>
      <trkpt lat="40.629250" lon="-4.948833">
        <ele>2607.0</ele>
        <time>2014-06-30T13:25:54Z</time>
      </trkpt>
      <trkpt lat="40.629183" lon="-4.948867">
        <ele>2608.0</ele>
        <time>2014-06-30T13:25:55Z</time>
      </trkpt>
      <trkpt lat="40.629117" lon="-4.948883">
        <ele>2608.0</ele>
        <time>2014-06-30T13:25:56Z</time>
      </trkpt>
      <trkpt lat="40.629033" lon="-4.948883">
        <ele>2608.0</ele>
        <time>2014-06-30T13:25:57Z</time>
      </trkpt>
      <trkpt lat="40.628967" lon="-4.948867">
        <ele>2608.0</ele>
        <time>2014-06-30T13:25:58Z</time>
      </trkpt>
      <trkpt lat="40.628917" lon="-4.948850">
        <ele>2609.0</ele>
        <time>2014-06-30T13:25:59Z</time>
      </trkpt>
      <trkpt lat="40.628833" lon="-4.948817">
        <ele>2608.0</ele>
        <time>2014-06-30T13:26:00Z</time>
      </trkpt>
      <trkpt lat="40.628750" lon="-4.948767">
        <ele>2609.0</ele>
        <time>2014-06-30T13:26:01Z</time>
      </trkpt>
      <trkpt lat="40.628667" lon="-4.948700">
        <ele>2609.0</ele>
        <time>2014-06-30T13:26:02Z</time>
      </trkpt>
      <trkpt lat="40.628567" lon="-4.948633">
        <ele>2609.0</ele>
        <time>2014-06-30T13:26:03Z</time>
      </trkpt>
      <trkpt lat="40.628500" lon="-4.948550">
        <ele>2611.0</ele>
        <time>2014-06-30T13:26:04Z</time>
      </trkpt>
      <trkpt lat="40.628433" lon="-4.948467">
        <ele>2612.0</ele>
        <time>2014-06-30T13:26:05Z</time>
      </trkpt>
      <trkpt lat="40.628367" lon="-4.948383">
        <ele>2612.0</ele>
        <time>2014-06-30T13:26:06Z</time>
      </trkpt>
      <trkpt lat="40.628317" lon="-4.948283">
        <ele>2612.0</ele>
        <time>2014-06-30T13:26:07Z</time>
      </trkpt>
      <trkpt lat="40.628267" lon="-4.948183">
        <ele>2612.0</ele>
        <time>2014-06-30T13:26:08Z</time>
      </trkpt>
      <trkpt lat="40.628233" lon="-4.948067">
        <ele>2612.0</ele>
        <time>2014-06-30T13:26:09Z</time>
      </trkpt>
      <trkpt lat="40.628200" lon="-4.947917">
        <ele>2612.0</ele>
        <time>2014-06-30T13:26:10Z</time>
      </trkpt>
      <trkpt lat="40.628200" lon="-4.947783">
        <ele>2611.0</ele>
        <time>2014-06-30T13:26:11Z</time>
      </trkpt>
      <trkpt lat="40.628217" lon="-4.947633">
        <ele>2611.0</ele>
        <time>2014-06-30T13:26:12Z</time>
      </trkpt>
      <trkpt lat="40.628233" lon="-4.947483">
        <ele>2611.0</ele>
        <time>2014-06-30T13:26:13Z</time>
      </trkpt>
      <trkpt lat="40.628250" lon="-4.947333">
        <ele>2611.0</ele>
        <time>2014-06-30T13:26:14Z</time>
      </trkpt>
      <trkpt lat="40.628267" lon="-4.947183">
        <ele>2611.0</ele>
        <time>2014-06-30T13:26:15Z</time>
      </trkpt>
      <trkpt lat="40.628300" lon="-4.947033">
        <ele>2611.0</ele>
        <time>2014-06-30T13:26:16Z</time>
      </trkpt>
      <trkpt lat="40.628333" lon="-4.946900">
        <ele>2611.0</ele>
        <time>2014-06-30T13:26:17Z</time>
      </trkpt>
      <trkpt lat="40.628400" lon="-4.946767">
        <ele>2610.0</ele>
        <time>2014-06-30T13:26:18Z</time>
      </trkpt>
      <trkpt lat="40.628467" lon="-4.946650">
        <ele>2610.0</ele>
        <time>2014-06-30T13:26:19Z</time>
      </trkpt>
      <trkpt lat="40.628550" lon="-4.946567">
        <ele>2610.0</ele>
        <time>2014-06-30T13:26:20Z</time>
      </trkpt>
      <trkpt lat="40.628633" lon="-4.946517">
        <ele>2610.0</ele>
        <time>2014-06-30T13:26:21Z</time>
      </trkpt>
      <trkpt lat="40.628683" lon="-4.946500">
        <ele>2611.0</ele>
        <time>2014-06-30T13:26:22Z</time>
      </trkpt>
      <trkpt lat="40.628750" lon="-4.946500">
        <ele>2611.0</ele>
        <time>2014-06-30T13:26:23Z</time>
      </trkpt>
      <trkpt lat="40.628800" lon="-4.946517">
        <ele>2610.0</ele>
        <time>2014-06-30T13:26:24Z</time>
      </trkpt>
      <trkpt lat="40.628850" lon="-4.946533">
        <ele>2611.0</ele>
        <time>2014-06-30T13:26:25Z</time>
      </trkpt>
      <trkpt lat="40.628900" lon="-4.946567">
        <ele>2611.0</ele>
        <time>2014-06-30T13:26:26Z</time>
      </trkpt>
      <trkpt lat="40.628917" lon="-4.946617">
        <ele>2611.0</ele>
        <time>2014-06-30T13:26:27Z</time>
      </trkpt>
      <trkpt lat="40.628917" lon="-4.946683">
        <ele>2612.0</ele>
        <time>2014-06-30T13:26:28Z</time>
      </trkpt>
      <trkpt lat="40.628900" lon="-4.946733">
        <ele>2613.0</ele>
        <time>2014-06-30T13:26:29Z</time>
      </trkpt>
      <trkpt lat="40.628883" lon="-4.946767">
        <ele>2614.0</ele>
        <time>2014-06-30T13:26:30Z</time>
      </trkpt>
      <trkpt lat="40.628850" lon="-4.946800">
        <ele>2614.0</ele>
        <time>2014-06-30T13:26:31Z</time>
      </trkpt>
      <trkpt lat="40.628800" lon="-4.946817">
        <ele>2615.0</ele>
        <time>2014-06-30T13:26:32Z</time>
      </trkpt>
      <trkpt lat="40.628733" lon="-4.946833">
        <ele>2613.0</ele>
        <time>2014-06-30T13:26:33Z</time>
      </trkpt>
      <trkpt lat="40.628667" lon="-4.946833">
        <ele>2614.0</ele>
        <time>2014-06-30T13:26:34Z</time>
      </trkpt>
      <trkpt lat="40.628600" lon="-4.946817">
        <ele>2614.0</ele>
        <time>2014-06-30T13:26:35Z</time>
      </trkpt>
      <trkpt lat="40.628550" lon="-4.946800">
        <ele>2614.0</ele>
        <time>2014-06-30T13:26:36Z</time>
      </trkpt>
      <trkpt lat="40.628500" lon="-4.946767">
        <ele>2614.0</ele>
        <time>2014-06-30T13:26:37Z</time>
      </trkpt>
      <trkpt lat="40.628467" lon="-4.946733">
        <ele>2614.0</ele>
        <time>2014-06-30T13:26:38Z</time>
      </trkpt>
      <trkpt lat="40.628417" lon="-4.946683">
        <ele>2614.0</ele>
        <time>2014-06-30T13:26:39Z</time>
      </trkpt>
      <trkpt lat="40.628350" lon="-4.946633">
        <ele>2612.0</ele>
        <time>2014-06-30T13:26:40Z</time>
      </trkpt>
      <trkpt lat="40.628267" lon="-4.946583">
        <ele>2610.0</ele>
        <time>2014-06-30T13:26:41Z</time>
      </trkpt>
      <trkpt lat="40.628183" lon="-4.946517">
        <ele>2608.0</ele>
        <time>2014-06-30T13:26:42Z</time>
      </trkpt>
      <trkpt lat="40.628100" lon="-4.946433">
        <ele>2606.0</ele>
        <time>2014-06-30T13:26:43Z</time>
      </trkpt>
      <trkpt lat="40.628017" lon="-4.946383">
        <ele>2604.0</ele>
        <time>2014-06-30T13:26:44Z</time>
      </trkpt>
      <trkpt lat="40.627933" lon="-4.946333">
        <ele>2603.0</ele>
        <time>2014-06-30T13:26:45Z</time>
      </trkpt>
      <trkpt lat="40.627867" lon="-4.946267">
        <ele>2603.0</ele>
        <time>2014-06-30T13:26:46Z</time>
      </trkpt>
      <trkpt lat="40.627800" lon="-4.946200">
        <ele>2603.0</ele>
        <time>2014-06-30T13:26:47Z</time>
      </trkpt>
      <trkpt lat="40.627733" lon="-4.946100">
        <ele>2604.0</ele>
        <time>2014-06-30T13:26:48Z</time>
      </trkpt>
      <trkpt lat="40.627667" lon="-4.946017">
        <ele>2604.0</ele>
        <time>2014-06-30T13:26:49Z</time>
      </trkpt>
      <trkpt lat="40.627617" lon="-4.945933">
        <ele>2602.0</ele>
        <time>2014-06-30T13:26:50Z</time>
      </trkpt>
      <trkpt lat="40.627550" lon="-4.945850">
        <ele>2601.0</ele>
        <time>2014-06-30T13:26:51Z</time>
      </trkpt>
      <trkpt lat="40.627483" lon="-4.945750">
        <ele>2597.0</ele>
        <time>2014-06-30T13:26:52Z</time>
      </trkpt>
      <trkpt lat="40.627433" lon="-4.945633">
        <ele>2594.0</ele>
        <time>2014-06-30T13:26:53Z</time>
      </trkpt>
      <trkpt lat="40.627367" lon="-4.945500">
        <ele>2592.0</ele>
        <time>2014-06-30T13:26:54Z</time>
      </trkpt>
      <trkpt lat="40.627300" lon="-4.945367">
        <ele>2589.0</ele>
        <time>2014-06-30T13:26:55Z</time>
      </trkpt>
      <trkpt lat="40.627233" lon="-4.945233">
        <ele>2585.0</ele>
        <time>2014-06-30T13:26:56Z</time>
      </trkpt>
      <trkpt lat="40.627167" lon="-4.945100">
        <ele>2582.0</ele>
        <time>2014-06-30T13:26:57Z</time>
      </trkpt>
      <trkpt lat="40.627100" lon="-4.944967">
        <ele>2577.0</ele>
        <time>2014-06-30T13:26:58Z</time>
      </trkpt>
      <trkpt lat="40.627033" lon="-4.944833">
        <ele>2574.0</ele>
        <time>2014-06-30T13:26:59Z</time>
      </trkpt>
      <trkpt lat="40.626967" lon="-4.944683">
        <ele>2570.0</ele>
        <time>2014-06-30T13:27:00Z</time>
      </trkpt>
      <trkpt lat="40.626900" lon="-4.944517">
        <ele>2565.0</ele>
        <time>2014-06-30T13:27:01Z</time>
      </trkpt>
      <trkpt lat="40.626833" lon="-4.944333">
        <ele>2561.0</ele>
        <time>2014-06-30T13:27:02Z</time>
      </trkpt>
      <trkpt lat="40.626783" lon="-4.944117">
        <ele>2558.0</ele>
        <time>2014-06-30T13:27:03Z</time>
      </trkpt>
      <trkpt lat="40.626750" lon="-4.943933">
        <ele>2557.0</ele>
        <time>2014-06-30T13:27:04Z</time>
      </trkpt>
      <trkpt lat="40.626717" lon="-4.943767">
        <ele>2555.0</ele>
        <time>2014-06-30T13:27:05Z</time>
      </trkpt>
      <trkpt lat="40.626683" lon="-4.943617">
        <ele>2552.0</ele>
        <time>2014-06-30T13:27:06Z</time>
      </trkpt>
      <trkpt lat="40.626650" lon="-4.943450">
        <ele>2549.0</ele>
        <time>2014-06-30T13:27:07Z</time>
      </trkpt>
      <trkpt lat="40.626617" lon="-4.943267">
        <ele>2546.0</ele>
        <time>2014-06-30T13:27:08Z</time>
      </trkpt>
      <trkpt lat="40.626583" lon="-4.943083">
        <ele>2540.0</ele>
        <time>2014-06-30T13:27:09Z</time>
      </trkpt>
      <trkpt lat="40.626550" lon="-4.942883">
        <ele>2537.0</ele>
        <time>2014-06-30T13:27:10Z</time>
      </trkpt>
      <trkpt lat="40.626500" lon="-4.942700">
        <ele>2535.0</ele>
        <time>2014-06-30T13:27:11Z</time>
      </trkpt>
      <trkpt lat="40.626467" lon="-4.942517">
        <ele>2533.0</ele>
        <time>2014-06-30T13:27:12Z</time>
      </trkpt>
      <trkpt lat="40.626450" lon="-4.942350">
        <ele>2530.0</ele>
        <time>2014-06-30T13:27:13Z</time>
      </trkpt>
      <trkpt lat="40.626433" lon="-4.942167">
        <ele>2528.0</ele>
        <time>2014-06-30T13:27:14Z</time>
      </trkpt>
      <trkpt lat="40.626417" lon="-4.941983">
        <ele>2525.0</ele>
        <time>2014-06-30T13:27:15Z</time>
      </trkpt>
      <trkpt lat="40.626400" lon="-4.941783">
        <ele>2521.0</ele>
        <time>2014-06-30T13:27:16Z</time>
      </trkpt>
      <trkpt lat="40.626400" lon="-4.941583">
        <ele>2518.0</ele>
        <time>2014-06-30T13:27:17Z</time>
      </trkpt>
      <trkpt lat="40.626400" lon="-4.941400">
        <ele>2515.0</ele>
        <time>2014-06-30T13:27:18Z</time>
      </trkpt>
      <trkpt lat="40.626400" lon="-4.941217">
        <ele>2512.0</ele>
        <time>2014-06-30T13:27:19Z</time>
      </trkpt>
      <trkpt lat="40.626400" lon="-4.941050">
        <ele>2509.0</ele>
        <time>2014-06-30T13:27:20Z</time>
      </trkpt>
      <trkpt lat="40.626400" lon="-4.940867">
        <ele>2506.0</ele>
        <time>2014-06-30T13:27:21Z</time>
      </trkpt>
      <trkpt lat="40.626400" lon="-4.940683">
        <ele>2502.0</ele>
        <time>2014-06-30T13:27:22Z</time>
      </trkpt>
      <trkpt lat="40.626400" lon="-4.940483">
        <ele>2499.0</ele>
        <time>2014-06-30T13:27:23Z</time>
      </trkpt>
      <trkpt lat="40.626417" lon="-4.940283">
        <ele>2495.0</ele>
        <time>2014-06-30T13:27:24Z</time>
      </trkpt>
      <trkpt lat="40.626450" lon="-4.940100">
        <ele>2493.0</ele>
        <time>2014-06-30T13:27:25Z</time>
      </trkpt>
      <trkpt lat="40.626483" lon="-4.939917">
        <ele>2491.0</ele>
        <time>2014-06-30T13:27:26Z</time>
      </trkpt>
      <trkpt lat="40.626500" lon="-4.939733">
        <ele>2489.0</ele>
        <time>2014-06-30T13:27:27Z</time>
      </trkpt>
      <trkpt lat="40.626533" lon="-4.939533">
        <ele>2487.0</ele>
        <time>2014-06-30T13:27:28Z</time>
      </trkpt>
      <trkpt lat="40.626567" lon="-4.939333">
        <ele>2484.0</ele>
        <time>2014-06-30T13:27:29Z</time>
      </trkpt>
      <trkpt lat="40.626600" lon="-4.939133">
        <ele>2481.0</ele>
        <time>2014-06-30T13:27:30Z</time>
      </trkpt>
      <trkpt lat="40.626650" lon="-4.938933">
        <ele>2479.0</ele>
        <time>2014-06-30T13:27:31Z</time>
      </trkpt>
      <trkpt lat="40.626683" lon="-4.938750">
        <ele>2477.0</ele>
        <time>2014-06-30T13:27:32Z</time>
      </trkpt>
      <trkpt lat="40.626717" lon="-4.938567">
        <ele>2474.0</ele>
        <time>2014-06-30T13:27:33Z</time>
      </trkpt>
      <trkpt lat="40.626750" lon="-4.938367">
        <ele>2472.0</ele>
        <time>2014-06-30T13:27:34Z</time>
      </trkpt>
      <trkpt lat="40.626767" lon="-4.938167">
        <ele>2469.0</ele>
        <time>2014-06-30T13:27:35Z</time>
      </trkpt>
      <trkpt lat="40.626800" lon="-4.937967">
        <ele>2466.0</ele>
        <time>2014-06-30T13:27:36Z</time>
      </trkpt>
      <trkpt lat="40.626817" lon="-4.937750">
        <ele>2464.0</ele>
        <time>2014-06-30T13:27:37Z</time>
      </trkpt>
      <trkpt lat="40.626850" lon="-4.937550">
        <ele>2462.0</ele>
        <time>2014-06-30T13:27:38Z</time>
      </trkpt>
      <trkpt lat="40.626883" lon="-4.937333">
        <ele>2460.0</ele>
        <time>2014-06-30T13:27:39Z</time>
      </trkpt>
      <trkpt lat="40.626900" lon="-4.937133">
        <ele>2458.0</ele>
        <time>2014-06-30T13:27:40Z</time>
      </trkpt>
      <trkpt lat="40.626933" lon="-4.936933">
        <ele>2456.0</ele>
        <time>2014-06-30T13:27:41Z</time>
      </trkpt>
      <trkpt lat="40.626967" lon="-4.936733">
        <ele>2453.0</ele>
        <time>2014-06-30T13:27:42Z</time>
      </trkpt>
      <trkpt lat="40.626983" lon="-4.936517">
        <ele>2450.0</ele>
        <time>2014-06-30T13:27:43Z</time>
      </trkpt>
      <trkpt lat="40.627017" lon="-4.936283">
        <ele>2448.0</ele>
        <time>2014-06-30T13:27:44Z</time>
      </trkpt>
      <trkpt lat="40.627050" lon="-4.936050">
        <ele>2446.0</ele>
        <time>2014-06-30T13:27:45Z</time>
      </trkpt>
      <trkpt lat="40.627083" lon="-4.935817">
        <ele>2445.0</ele>
        <time>2014-06-30T13:27:46Z</time>
      </trkpt>
      <trkpt lat="40.627100" lon="-4.935600">
        <ele>2443.0</ele>
        <time>2014-06-30T13:27:47Z</time>
      </trkpt>
      <trkpt lat="40.627133" lon="-4.935367">
        <ele>2441.0</ele>
        <time>2014-06-30T13:27:48Z</time>
      </trkpt>
      <trkpt lat="40.627150" lon="-4.935150">
        <ele>2439.0</ele>
        <time>2014-06-30T13:27:49Z</time>
      </trkpt>
      <trkpt lat="40.627183" lon="-4.934950">
        <ele>2438.0</ele>
        <time>2014-06-30T13:27:50Z</time>
      </trkpt>
      <trkpt lat="40.627217" lon="-4.934733">
        <ele>2435.0</ele>
        <time>2014-06-30T13:27:51Z</time>
      </trkpt>
      <trkpt lat="40.627233" lon="-4.934533">
        <ele>2431.0</ele>
        <time>2014-06-30T13:27:52Z</time>
      </trkpt>
      <trkpt lat="40.627233" lon="-4.934317">
        <ele>2427.0</ele>
        <time>2014-06-30T13:27:53Z</time>
      </trkpt>
      <trkpt lat="40.627233" lon="-4.934083">
        <ele>2423.0</ele>
        <time>2014-06-30T13:27:54Z</time>
      </trkpt>
      <trkpt lat="40.627267" lon="-4.933883">
        <ele>2420.0</ele>
        <time>2014-06-30T13:27:55Z</time>
      </trkpt>
      <trkpt lat="40.627317" lon="-4.933667">
        <ele>2416.0</ele>
        <time>2014-06-30T13:27:56Z</time>
      </trkpt>
      <trkpt lat="40.627350" lon="-4.933467">
        <ele>2412.0</ele>
        <time>2014-06-30T13:27:57Z</time>
      </trkpt>
      <trkpt lat="40.627367" lon="-4.933267">
        <ele>2409.0</ele>
        <time>2014-06-30T13:27:58Z</time>
      </trkpt>
      <trkpt lat="40.627400" lon="-4.933083">
        <ele>2407.0</ele>
        <time>2014-06-30T13:27:59Z</time>
      </trkpt>
      <trkpt lat="40.627433" lon="-4.932917">
        <ele>2408.0</ele>
        <time>2014-06-30T13:28:00Z</time>
      </trkpt>
      <trkpt lat="40.627483" lon="-4.932767">
        <ele>2406.0</ele>
        <time>2014-06-30T13:28:01Z</time>
      </trkpt>
      <trkpt lat="40.627550" lon="-4.932617">
        <ele>2405.0</ele>
        <time>2014-06-30T13:28:02Z</time>
      </trkpt>
      <trkpt lat="40.627600" lon="-4.932467">
        <ele>2402.0</ele>
        <time>2014-06-30T13:28:03Z</time>
      </trkpt>
      <trkpt lat="40.627617" lon="-4.932300">
        <ele>2399.0</ele>
        <time>2014-06-30T13:28:04Z</time>
      </trkpt>
      <trkpt lat="40.627633" lon="-4.932117">
        <ele>2395.0</ele>
        <time>2014-06-30T13:28:05Z</time>
      </trkpt>
      <trkpt lat="40.627667" lon="-4.931933">
        <ele>2392.0</ele>
        <time>2014-06-30T13:28:06Z</time>
      </trkpt>
      <trkpt lat="40.627717" lon="-4.931767">
        <ele>2390.0</ele>
        <time>2014-06-30T13:28:07Z</time>
      </trkpt>
      <trkpt lat="40.627767" lon="-4.931617">
        <ele>2388.0</ele>
        <time>2014-06-30T13:28:08Z</time>
      </trkpt>
      <trkpt lat="40.627800" lon="-4.931467">
        <ele>2385.0</ele>
        <time>2014-06-30T13:28:09Z</time>
      </trkpt>
      <trkpt lat="40.627833" lon="-4.931300">
        <ele>2382.0</ele>
        <time>2014-06-30T13:28:10Z</time>
      </trkpt>
      <trkpt lat="40.627850" lon="-4.931150">
        <ele>2378.0</ele>
        <time>2014-06-30T13:28:11Z</time>
      </trkpt>
      <trkpt lat="40.627883" lon="-4.930983">
        <ele>2374.0</ele>
        <time>2014-06-30T13:28:12Z</time>
      </trkpt>
      <trkpt lat="40.627917" lon="-4.930817">
        <ele>2370.0</ele>
        <time>2014-06-30T13:28:13Z</time>
      </trkpt>
      <trkpt lat="40.627917" lon="-4.930650">
        <ele>2366.0</ele>
        <time>2014-06-30T13:28:14Z</time>
      </trkpt>
      <trkpt lat="40.627917" lon="-4.930483">
        <ele>2363.0</ele>
        <time>2014-06-30T13:28:15Z</time>
      </trkpt>
      <trkpt lat="40.627917" lon="-4.930333">
        <ele>2360.0</ele>
        <time>2014-06-30T13:28:16Z</time>
      </trkpt>
      <trkpt lat="40.627933" lon="-4.930167">
        <ele>2356.0</ele>
        <time>2014-06-30T13:28:17Z</time>
      </trkpt>
      <trkpt lat="40.627950" lon="-4.930017">
        <ele>2353.0</ele>
        <time>2014-06-30T13:28:18Z</time>
      </trkpt>
      <trkpt lat="40.627950" lon="-4.929850">
        <ele>2350.0</ele>
        <time>2014-06-30T13:28:19Z</time>
      </trkpt>
      <trkpt lat="40.627950" lon="-4.929683">
        <ele>2346.0</ele>
        <time>2014-06-30T13:28:20Z</time>
      </trkpt>
      <trkpt lat="40.627950" lon="-4.929517">
        <ele>2344.0</ele>
        <time>2014-06-30T13:28:21Z</time>
      </trkpt>
      <trkpt lat="40.627967" lon="-4.929350">
        <ele>2341.0</ele>
        <time>2014-06-30T13:28:22Z</time>
      </trkpt>
      <trkpt lat="40.627967" lon="-4.929183">
        <ele>2338.0</ele>
        <time>2014-06-30T13:28:23Z</time>
      </trkpt>
      <trkpt lat="40.627950" lon="-4.929033">
        <ele>2336.0</ele>
        <time>2014-06-30T13:28:24Z</time>
      </trkpt>
      <trkpt lat="40.627933" lon="-4.928867">
        <ele>2333.0</ele>
        <time>2014-06-30T13:28:25Z</time>
      </trkpt>
      <trkpt lat="40.627917" lon="-4.928700">
        <ele>2331.0</ele>
        <time>2014-06-30T13:28:26Z</time>
      </trkpt>
      <trkpt lat="40.627933" lon="-4.928533">
        <ele>2328.0</ele>
        <time>2014-06-30T13:28:27Z</time>
      </trkpt>
      <trkpt lat="40.627917" lon="-4.928383">
        <ele>2325.0</ele>
        <time>2014-06-30T13:28:28Z</time>
      </trkpt>
      <trkpt lat="40.627900" lon="-4.928217">
        <ele>2323.0</ele>
        <time>2014-06-30T13:28:29Z</time>
      </trkpt>
      <trkpt lat="40.627883" lon="-4.928067">
        <ele>2320.0</ele>
        <time>2014-06-30T13:28:30Z</time>
      </trkpt>
      <trkpt lat="40.627883" lon="-4.927900">
        <ele>2317.0</ele>
        <time>2014-06-30T13:28:31Z</time>
      </trkpt>
      <trkpt lat="40.627900" lon="-4.927733">
        <ele>2314.0</ele>
        <time>2014-06-30T13:28:32Z</time>
      </trkpt>
      <trkpt lat="40.627883" lon="-4.927567">
        <ele>2311.0</ele>
        <time>2014-06-30T13:28:33Z</time>
      </trkpt>
      <trkpt lat="40.627850" lon="-4.927400">
        <ele>2308.0</ele>
        <time>2014-06-30T13:28:34Z</time>
      </trkpt>
      <trkpt lat="40.627833" lon="-4.927233">
        <ele>2306.0</ele>
        <time>2014-06-30T13:28:35Z</time>
      </trkpt>
      <trkpt lat="40.627817" lon="-4.927067">
        <ele>2304.0</ele>
        <time>2014-06-30T13:28:36Z</time>
      </trkpt>
      <trkpt lat="40.627817" lon="-4.926917">
        <ele>2301.0</ele>
        <time>2014-06-30T13:28:37Z</time>
      </trkpt>
      <trkpt lat="40.627817" lon="-4.926750">
        <ele>2299.0</ele>
        <time>2014-06-30T13:28:38Z</time>
      </trkpt>
      <trkpt lat="40.627783" lon="-4.926600">
        <ele>2296.0</ele>
        <time>2014-06-30T13:28:39Z</time>
      </trkpt>
      <trkpt lat="40.627750" lon="-4.926433">
        <ele>2295.0</ele>
        <time>2014-06-30T13:28:40Z</time>
      </trkpt>
      <trkpt lat="40.627733" lon="-4.926267">
        <ele>2293.0</ele>
        <time>2014-06-30T13:28:41Z</time>
      </trkpt>
      <trkpt lat="40.627750" lon="-4.926100">
        <ele>2292.0</ele>
        <time>2014-06-30T13:28:42Z</time>
      </trkpt>
      <trkpt lat="40.627767" lon="-4.925933">
        <ele>2290.0</ele>
        <time>2014-06-30T13:28:43Z</time>
      </trkpt>
      <trkpt lat="40.627783" lon="-4.925767">
        <ele>2288.0</ele>
        <time>2014-06-30T13:28:44Z</time>
      </trkpt>
      <trkpt lat="40.627783" lon="-4.925583">
        <ele>2285.0</ele>
        <time>2014-06-30T13:28:45Z</time>
      </trkpt>
      <trkpt lat="40.627800" lon="-4.925400">
        <ele>2283.0</ele>
        <time>2014-06-30T13:28:46Z</time>
      </trkpt>
      <trkpt lat="40.627833" lon="-4.925200">
        <ele>2280.0</ele>
        <time>2014-06-30T13:28:47Z</time>
      </trkpt>
      <trkpt lat="40.627867" lon="-4.925017">
        <ele>2278.0</ele>
        <time>2014-06-30T13:28:48Z</time>
      </trkpt>
      <trkpt lat="40.627867" lon="-4.924817">
        <ele>2274.0</ele>
        <time>2014-06-30T13:28:49Z</time>
      </trkpt>
      <trkpt lat="40.627867" lon="-4.924633">
        <ele>2271.0</ele>
        <time>2014-06-30T13:28:50Z</time>
      </trkpt>
      <trkpt lat="40.627867" lon="-4.924450">
        <ele>2269.0</ele>
        <time>2014-06-30T13:28:51Z</time>
      </trkpt>
      <trkpt lat="40.627867" lon="-4.924250">
        <ele>2267.0</ele>
        <time>2014-06-30T13:28:52Z</time>
      </trkpt>
      <trkpt lat="40.627883" lon="-4.924067">
        <ele>2265.0</ele>
        <time>2014-06-30T13:28:53Z</time>
      </trkpt>
      <trkpt lat="40.627883" lon="-4.923883">
        <ele>2263.0</ele>
        <time>2014-06-30T13:28:54Z</time>
      </trkpt>
      <trkpt lat="40.627867" lon="-4.923683">
        <ele>2261.0</ele>
        <time>2014-06-30T13:28:55Z</time>
      </trkpt>
      <trkpt lat="40.627850" lon="-4.923500">
        <ele>2259.0</ele>
        <time>2014-06-30T13:28:56Z</time>
      </trkpt>
      <trkpt lat="40.627850" lon="-4.923317">
        <ele>2258.0</ele>
        <time>2014-06-30T13:28:57Z</time>
      </trkpt>
      <trkpt lat="40.627833" lon="-4.923133">
        <ele>2258.0</ele>
        <time>2014-06-30T13:28:58Z</time>
      </trkpt>
      <trkpt lat="40.627833" lon="-4.922967">
        <ele>2258.0</ele>
        <time>2014-06-30T13:28:59Z</time>
      </trkpt>
      <trkpt lat="40.627817" lon="-4.922800">
        <ele>2258.0</ele>
        <time>2014-06-30T13:29:00Z</time>
      </trkpt>
      <trkpt lat="40.627800" lon="-4.922633">
        <ele>2257.0</ele>
        <time>2014-06-30T13:29:01Z</time>
      </trkpt>
      <trkpt lat="40.627783" lon="-4.922467">
        <ele>2256.0</ele>
        <time>2014-06-30T13:29:02Z</time>
      </trkpt>
      <trkpt lat="40.627767" lon="-4.922283">
        <ele>2255.0</ele>
        <time>2014-06-30T13:29:03Z</time>
      </trkpt>
      <trkpt lat="40.627767" lon="-4.922100">
        <ele>2254.0</ele>
        <time>2014-06-30T13:29:04Z</time>
      </trkpt>
      <trkpt lat="40.627767" lon="-4.921917">
        <ele>2254.0</ele>
        <time>2014-06-30T13:29:05Z</time>
      </trkpt>
      <trkpt lat="40.627767" lon="-4.921750">
        <ele>2254.0</ele>
        <time>2014-06-30T13:29:06Z</time>
      </trkpt>
      <trkpt lat="40.627767" lon="-4.921583">
        <ele>2254.0</ele>
        <time>2014-06-30T13:29:07Z</time>
      </trkpt>
      <trkpt lat="40.627750" lon="-4.921417">
        <ele>2253.0</ele>
        <time>2014-06-30T13:29:08Z</time>
      </trkpt>
      <trkpt lat="40.627717" lon="-4.921233">
        <ele>2252.0</ele>
        <time>2014-06-30T13:29:09Z</time>
      </trkpt>
      <trkpt lat="40.627683" lon="-4.921033">
        <ele>2250.0</ele>
        <time>2014-06-30T13:29:10Z</time>
      </trkpt>
      <trkpt lat="40.627650" lon="-4.920833">
        <ele>2249.0</ele>
        <time>2014-06-30T13:29:11Z</time>
      </trkpt>
      <trkpt lat="40.627617" lon="-4.920650">
        <ele>2249.0</ele>
        <time>2014-06-30T13:29:12Z</time>
      </trkpt>
      <trkpt lat="40.627583" lon="-4.920467">
        <ele>2248.0</ele>
        <time>2014-06-30T13:29:13Z</time>
      </trkpt>
      <trkpt lat="40.627550" lon="-4.920300">
        <ele>2248.0</ele>
        <time>2014-06-30T13:29:14Z</time>
      </trkpt>
      <trkpt lat="40.627500" lon="-4.920117">
        <ele>2247.0</ele>
        <time>2014-06-30T13:29:15Z</time>
      </trkpt>
      <trkpt lat="40.627467" lon="-4.919933">
        <ele>2247.0</ele>
        <time>2014-06-30T13:29:16Z</time>
      </trkpt>
      <trkpt lat="40.627417" lon="-4.919750">
        <ele>2247.0</ele>
        <time>2014-06-30T13:29:17Z</time>
      </trkpt>
      <trkpt lat="40.627383" lon="-4.919567">
        <ele>2248.0</ele>
        <time>2014-06-30T13:29:18Z</time>
      </trkpt>
      <trkpt lat="40.627333" lon="-4.919383">
        <ele>2249.0</ele>
        <time>2014-06-30T13:29:19Z</time>
      </trkpt>
      <trkpt lat="40.627317" lon="-4.919217">
        <ele>2251.0</ele>
        <time>2014-06-30T13:29:20Z</time>
      </trkpt>
      <trkpt lat="40.627283" lon="-4.919050">
        <ele>2252.0</ele>
        <time>2014-06-30T13:29:21Z</time>
      </trkpt>
      <trkpt lat="40.627250" lon="-4.918900">
        <ele>2253.0</ele>
        <time>2014-06-30T13:29:22Z</time>
      </trkpt>
      <trkpt lat="40.627217" lon="-4.918767">
        <ele>2254.0</ele>
        <time>2014-06-30T13:29:23Z</time>
      </trkpt>
      <trkpt lat="40.627200" lon="-4.918633">
        <ele>2255.0</ele>
        <time>2014-06-30T13:29:24Z</time>
      </trkpt>
      <trkpt lat="40.627167" lon="-4.918500">
        <ele>2255.0</ele>
        <time>2014-06-30T13:29:25Z</time>
      </trkpt>
      <trkpt lat="40.627133" lon="-4.918367">
        <ele>2255.0</ele>
        <time>2014-06-30T13:29:26Z</time>
      </trkpt>
      <trkpt lat="40.627083" lon="-4.918217">
        <ele>2255.0</ele>
        <time>2014-06-30T13:29:27Z</time>
      </trkpt>
      <trkpt lat="40.627033" lon="-4.918067">
        <ele>2255.0</ele>
        <time>2014-06-30T13:29:28Z</time>
      </trkpt>
      <trkpt lat="40.626983" lon="-4.917917">
        <ele>2255.0</ele>
        <time>2014-06-30T13:29:29Z</time>
      </trkpt>
      <trkpt lat="40.626933" lon="-4.917750">
        <ele>2256.0</ele>
        <time>2014-06-30T13:29:30Z</time>
      </trkpt>
      <trkpt lat="40.626867" lon="-4.917617">
        <ele>2256.0</ele>
        <time>2014-06-30T13:29:31Z</time>
      </trkpt>
      <trkpt lat="40.626800" lon="-4.917500">
        <ele>2256.0</ele>
        <time>2014-06-30T13:29:32Z</time>
      </trkpt>
      <trkpt lat="40.626733" lon="-4.917383">
        <ele>2256.0</ele>
        <time>2014-06-30T13:29:33Z</time>
      </trkpt>
      <trkpt lat="40.626667" lon="-4.917250">
        <ele>2256.0</ele>
        <time>2014-06-30T13:29:34Z</time>
      </trkpt>
      <trkpt lat="40.626600" lon="-4.917117">
        <ele>2255.0</ele>
        <time>2014-06-30T13:29:35Z</time>
      </trkpt>
      <trkpt lat="40.626533" lon="-4.916967">
        <ele>2254.0</ele>
        <time>2014-06-30T13:29:36Z</time>
      </trkpt>
      <trkpt lat="40.626467" lon="-4.916850">
        <ele>2254.0</ele>
        <time>2014-06-30T13:29:37Z</time>
      </trkpt>
      <trkpt lat="40.626383" lon="-4.916767">
        <ele>2254.0</ele>
        <time>2014-06-30T13:29:38Z</time>
      </trkpt>
      <trkpt lat="40.626317" lon="-4.916717">
        <ele>2254.0</ele>
        <time>2014-06-30T13:29:39Z</time>
      </trkpt>
      <trkpt lat="40.626267" lon="-4.916700">
        <ele>2254.0</ele>
        <time>2014-06-30T13:29:40Z</time>
      </trkpt>
      <trkpt lat="40.626200" lon="-4.916700">
        <ele>2254.0</ele>
        <time>2014-06-30T13:29:41Z</time>
      </trkpt>
      <trkpt lat="40.626150" lon="-4.916700">
        <ele>2254.0</ele>
        <time>2014-06-30T13:29:42Z</time>
      </trkpt>
      <trkpt lat="40.626100" lon="-4.916717">
        <ele>2254.0</ele>
        <time>2014-06-30T13:29:43Z</time>
      </trkpt>
      <trkpt lat="40.626083" lon="-4.916733">
        <ele>2254.0</ele>
        <time>2014-06-30T13:29:44Z</time>
      </trkpt>
      <trkpt lat="40.626067" lon="-4.916767">
        <ele>2254.0</ele>
        <time>2014-06-30T13:29:45Z</time>
      </trkpt>
      <trkpt lat="40.626050" lon="-4.916767">
        <ele>2255.0</ele>
        <time>2014-06-30T13:29:46Z</time>
      </trkpt>
      <trkpt lat="40.626017" lon="-4.916800">
        <ele>2255.0</ele>
        <time>2014-06-30T13:29:47Z</time>
      </trkpt>
      <trkpt lat="40.626000" lon="-4.916833">
        <ele>2255.0</ele>
        <time>2014-06-30T13:29:48Z</time>
      </trkpt>
      <trkpt lat="40.625983" lon="-4.916867">
        <ele>2255.0</ele>
        <time>2014-06-30T13:29:49Z</time>
      </trkpt>
      <trkpt lat="40.625967" lon="-4.916917">
        <ele>2256.0</ele>
        <time>2014-06-30T13:29:50Z</time>
      </trkpt>
      <trkpt lat="40.625967" lon="-4.916950">
        <ele>2257.0</ele>
        <time>2014-06-30T13:29:51Z</time>
      </trkpt>
      <trkpt lat="40.625983" lon="-4.917000">
        <ele>2257.0</ele>
        <time>2014-06-30T13:29:52Z</time>
      </trkpt>
      <trkpt lat="40.625967" lon="-4.917050">
        <ele>2258.0</ele>
        <time>2014-06-30T13:29:53Z</time>
      </trkpt>
      <trkpt lat="40.625967" lon="-4.917117">
        <ele>2260.0</ele>
        <time>2014-06-30T13:29:54Z</time>
      </trkpt>
      <trkpt lat="40.625983" lon="-4.917150">
        <ele>2263.0</ele>
        <time>2014-06-30T13:29:55Z</time>
      </trkpt>
      <trkpt lat="40.625983" lon="-4.917200">
        <ele>2266.0</ele>
        <time>2014-06-30T13:29:56Z</time>
      </trkpt>
      <trkpt lat="40.626000" lon="-4.917250">
        <ele>2266.0</ele>
        <time>2014-06-30T13:29:57Z</time>
      </trkpt>
      <trkpt lat="40.626017" lon="-4.917300">
        <ele>2268.0</ele>
        <time>2014-06-30T13:29:58Z</time>
      </trkpt>
      <trkpt lat="40.626050" lon="-4.917333">
        <ele>2271.0</ele>
        <time>2014-06-30T13:29:59Z</time>
      </trkpt>
      <trkpt lat="40.626083" lon="-4.917367">
        <ele>2273.0</ele>
        <time>2014-06-30T13:30:00Z</time>
      </trkpt>
      <trkpt lat="40.626133" lon="-4.917400">
        <ele>2274.0</ele>
        <time>2014-06-30T13:30:01Z</time>
      </trkpt>
      <trkpt lat="40.626167" lon="-4.917433">
        <ele>2275.0</ele>
        <time>2014-06-30T13:30:02Z</time>
      </trkpt>
      <trkpt lat="40.626167" lon="-4.917450">
        <ele>2277.0</ele>
        <time>2014-06-30T13:30:03Z</time>
      </trkpt>
      <trkpt lat="40.626167" lon="-4.917467">
        <ele>2278.0</ele>
        <time>2014-06-30T13:30:04Z</time>
      </trkpt>
      <trkpt lat="40.626117" lon="-4.917467">
        <ele>2280.0</ele>
        <time>2014-06-30T13:30:05Z</time>
      </trkpt>
      <trkpt lat="40.626050" lon="-4.917433">
        <ele>2284.0</ele>
        <time>2014-06-30T13:30:06Z</time>
      </trkpt>
      <trkpt lat="40.625967" lon="-4.917367">
        <ele>2288.0</ele>
        <time>2014-06-30T13:30:07Z</time>
      </trkpt>
      <trkpt lat="40.625933" lon="-4.917283">
        <ele>2296.0</ele>
        <time>2014-06-30T13:30:08Z</time>
      </trkpt>
      <trkpt lat="40.625917" lon="-4.917167">
        <ele>2302.0</ele>
        <time>2014-06-30T13:30:09Z</time>
      </trkpt>
      <trkpt lat="40.625900" lon="-4.917050">
        <ele>2308.0</ele>
        <time>2014-06-30T13:30:10Z</time>
      </trkpt>
      <trkpt lat="40.625900" lon="-4.916933">
        <ele>2313.0</ele>
        <time>2014-06-30T13:30:11Z</time>
      </trkpt>
      <trkpt lat="40.625917" lon="-4.916800">
        <ele>2318.0</ele>
        <time>2014-06-30T13:30:12Z</time>
      </trkpt>
      <trkpt lat="40.625950" lon="-4.916650">
        <ele>2324.0</ele>
        <time>2014-06-30T13:30:13Z</time>
      </trkpt>
      <trkpt lat="40.625983" lon="-4.916517">
        <ele>2330.0</ele>
        <time>2014-06-30T13:30:14Z</time>
      </trkpt>
      <trkpt lat="40.626033" lon="-4.916367">
        <ele>2335.0</ele>
        <time>2014-06-30T13:30:15Z</time>
      </trkpt>
      <trkpt lat="40.626100" lon="-4.916233">
        <ele>2339.0</ele>
        <time>2014-06-30T13:30:16Z</time>
      </trkpt>
      <trkpt lat="40.626200" lon="-4.916150">
        <ele>2343.0</ele>
        <time>2014-06-30T13:30:17Z</time>
      </trkpt>
      <trkpt lat="40.626317" lon="-4.916083">
        <ele>2348.0</ele>
        <time>2014-06-30T13:30:18Z</time>
      </trkpt>
      <trkpt lat="40.626400" lon="-4.916050">
        <ele>2354.0</ele>
        <time>2014-06-30T13:30:19Z</time>
      </trkpt>
      <trkpt lat="40.626500" lon="-4.916050">
        <ele>2360.0</ele>
        <time>2014-06-30T13:30:20Z</time>
      </trkpt>
      <trkpt lat="40.626567" lon="-4.916083">
        <ele>2364.0</ele>
        <time>2014-06-30T13:30:21Z</time>
      </trkpt>
      <trkpt lat="40.626633" lon="-4.916117">
        <ele>2369.0</ele>
        <time>2014-06-30T13:30:22Z</time>
      </trkpt>
      <trkpt lat="40.626733" lon="-4.916167">
        <ele>2361.0</ele>
        <time>2014-06-30T13:30:23Z</time>
      </trkpt>
      <trkpt lat="40.626783" lon="-4.916200">
        <ele>2361.0</ele>
        <time>2014-06-30T13:30:24Z</time>
      </trkpt>
      <trkpt lat="40.626800" lon="-4.916233">
        <ele>2363.0</ele>
        <time>2014-06-30T13:30:25Z</time>
      </trkpt>
      <trkpt lat="40.626800" lon="-4.916283">
        <ele>2365.0</ele>
        <time>2014-06-30T13:30:26Z</time>
      </trkpt>
      <trkpt lat="40.626783" lon="-4.916300">
        <ele>2364.0</ele>
        <time>2014-06-30T13:30:27Z</time>
      </trkpt>
      <trkpt lat="40.626733" lon="-4.916317">
        <ele>2365.0</ele>
        <time>2014-06-30T13:30:28Z</time>
      </trkpt>
      <trkpt lat="40.626683" lon="-4.916300">
        <ele>2369.0</ele>
        <time>2014-06-30T13:30:29Z</time>
      </trkpt>
      <trkpt lat="40.626633" lon="-4.916233">
        <ele>2372.0</ele>
        <time>2014-06-30T13:30:30Z</time>
      </trkpt>
      <trkpt lat="40.626583" lon="-4.916117">
        <ele>2375.0</ele>
        <time>2014-06-30T13:30:31Z</time>
      </trkpt>
      <trkpt lat="40.626550" lon="-4.916000">
        <ele>2382.0</ele>
        <time>2014-06-30T13:30:32Z</time>
      </trkpt>
      <trkpt lat="40.626533" lon="-4.915883">
        <ele>2389.0</ele>
        <time>2014-06-30T13:30:33Z</time>
      </trkpt>
      <trkpt lat="40.626533" lon="-4.915767">
        <ele>2394.0</ele>
        <time>2014-06-30T13:30:34Z</time>
      </trkpt>
      <trkpt lat="40.626533" lon="-4.915650">
        <ele>2398.0</ele>
        <time>2014-06-30T13:30:35Z</time>
      </trkpt>
      <trkpt lat="40.626567" lon="-4.915550">
        <ele>2395.0</ele>
        <time>2014-06-30T13:30:36Z</time>
      </trkpt>
      <trkpt lat="40.626583" lon="-4.915400">
        <ele>2399.0</ele>
        <time>2014-06-30T13:30:37Z</time>
      </trkpt>
      <trkpt lat="40.626633" lon="-4.915267">
        <ele>2403.0</ele>
        <time>2014-06-30T13:30:38Z</time>
      </trkpt>
      <trkpt lat="40.626717" lon="-4.915133">
        <ele>2406.0</ele>
        <time>2014-06-30T13:30:39Z</time>
      </trkpt>
      <trkpt lat="40.626833" lon="-4.915033">
        <ele>2409.0</ele>
        <time>2014-06-30T13:30:40Z</time>
      </trkpt>
      <trkpt lat="40.626933" lon="-4.914967">
        <ele>2414.0</ele>
        <time>2014-06-30T13:30:41Z</time>
      </trkpt>
      <trkpt lat="40.627050" lon="-4.914917">
        <ele>2419.0</ele>
        <time>2014-06-30T13:30:42Z</time>
      </trkpt>
      <trkpt lat="40.627150" lon="-4.914883">
        <ele>2426.0</ele>
        <time>2014-06-30T13:30:43Z</time>
      </trkpt>
      <trkpt lat="40.627233" lon="-4.914850">
        <ele>2433.0</ele>
        <time>2014-06-30T13:30:44Z</time>
      </trkpt>
      <trkpt lat="40.627333" lon="-4.914833">
        <ele>2438.0</ele>
        <time>2014-06-30T13:30:45Z</time>
      </trkpt>
      <trkpt lat="40.627417" lon="-4.914817">
        <ele>2443.0</ele>
        <time>2014-06-30T13:30:46Z</time>
      </trkpt>
      <trkpt lat="40.627500" lon="-4.914867">
        <ele>2435.0</ele>
        <time>2014-06-30T13:30:47Z</time>
      </trkpt>
      <trkpt lat="40.627567" lon="-4.914900">
        <ele>2435.0</ele>
        <time>2014-06-30T13:30:48Z</time>
      </trkpt>
      <trkpt lat="40.627617" lon="-4.914967">
        <ele>2436.0</ele>
        <time>2014-06-30T13:30:49Z</time>
      </trkpt>
      <trkpt lat="40.627633" lon="-4.915017">
        <ele>2438.0</ele>
        <time>2014-06-30T13:30:50Z</time>
      </trkpt>
      <trkpt lat="40.627617" lon="-4.915050">
        <ele>2440.0</ele>
        <time>2014-06-30T13:30:51Z</time>
      </trkpt>
      <trkpt lat="40.627583" lon="-4.915050">
        <ele>2443.0</ele>
        <time>2014-06-30T13:30:52Z</time>
      </trkpt>
      <trkpt lat="40.627533" lon="-4.915017">
        <ele>2448.0</ele>
        <time>2014-06-30T13:30:53Z</time>
      </trkpt>
      <trkpt lat="40.627483" lon="-4.914967">
        <ele>2450.0</ele>
        <time>2014-06-30T13:30:54Z</time>
      </trkpt>
      <trkpt lat="40.627433" lon="-4.914917">
        <ele>2454.0</ele>
        <time>2014-06-30T13:30:55Z</time>
      </trkpt>
      <trkpt lat="40.627383" lon="-4.914833">
        <ele>2457.0</ele>
        <time>2014-06-30T13:30:56Z</time>
      </trkpt>
      <trkpt lat="40.627367" lon="-4.914733">
        <ele>2455.0</ele>
        <time>2014-06-30T13:30:57Z</time>
      </trkpt>
      <trkpt lat="40.627367" lon="-4.914600">
        <ele>2460.0</ele>
        <time>2014-06-30T13:30:58Z</time>
      </trkpt>
      <trkpt lat="40.627383" lon="-4.914467">
        <ele>2465.0</ele>
        <time>2014-06-30T13:30:59Z</time>
      </trkpt>
      <trkpt lat="40.627400" lon="-4.914300">
        <ele>2471.0</ele>
        <time>2014-06-30T13:31:00Z</time>
      </trkpt>
      <trkpt lat="40.627417" lon="-4.914150">
        <ele>2480.0</ele>
        <time>2014-06-30T13:31:01Z</time>
      </trkpt>
      <trkpt lat="40.627450" lon="-4.914017">
        <ele>2485.0</ele>
        <time>2014-06-30T13:31:02Z</time>
      </trkpt>
      <trkpt lat="40.627483" lon="-4.913867">
        <ele>2490.0</ele>
        <time>2014-06-30T13:31:03Z</time>
      </trkpt>
      <trkpt lat="40.627533" lon="-4.913717">
        <ele>2495.0</ele>
        <time>2014-06-30T13:31:04Z</time>
      </trkpt>
      <trkpt lat="40.627600" lon="-4.913583">
        <ele>2499.0</ele>
        <time>2014-06-30T13:31:05Z</time>
      </trkpt>
      <trkpt lat="40.627683" lon="-4.913467">
        <ele>2503.0</ele>
        <time>2014-06-30T13:31:06Z</time>
      </trkpt>
      <trkpt lat="40.627783" lon="-4.913383">
        <ele>2508.0</ele>
        <time>2014-06-30T13:31:07Z</time>
      </trkpt>
      <trkpt lat="40.627900" lon="-4.913317">
        <ele>2513.0</ele>
        <time>2014-06-30T13:31:08Z</time>
      </trkpt>
      <trkpt lat="40.628000" lon="-4.913300">
        <ele>2517.0</ele>
        <time>2014-06-30T13:31:09Z</time>
      </trkpt>
      <trkpt lat="40.628100" lon="-4.913300">
        <ele>2522.0</ele>
        <time>2014-06-30T13:31:10Z</time>
      </trkpt>
      <trkpt lat="40.628200" lon="-4.913367">
        <ele>2512.0</ele>
        <time>2014-06-30T13:31:11Z</time>
      </trkpt>
      <trkpt lat="40.628300" lon="-4.913417">
        <ele>2514.0</ele>
        <time>2014-06-30T13:31:12Z</time>
      </trkpt>
      <trkpt lat="40.628367" lon="-4.913450">
        <ele>2518.0</ele>
        <time>2014-06-30T13:31:13Z</time>
      </trkpt>
      <trkpt lat="40.628433" lon="-4.913467">
        <ele>2520.0</ele>
        <time>2014-06-30T13:31:14Z</time>
      </trkpt>
      <trkpt lat="40.628500" lon="-4.913500">
        <ele>2522.0</ele>
        <time>2014-06-30T13:31:15Z</time>
      </trkpt>
      <trkpt lat="40.628550" lon="-4.913517">
        <ele>2522.0</ele>
        <time>2014-06-30T13:31:16Z</time>
      </trkpt>
      <trkpt lat="40.628583" lon="-4.913550">
        <ele>2523.0</ele>
        <time>2014-06-30T13:31:17Z</time>
      </trkpt>
      <trkpt lat="40.628583" lon="-4.913567">
        <ele>2524.0</ele>
        <time>2014-06-30T13:31:18Z</time>
      </trkpt>
      <trkpt lat="40.628583" lon="-4.913600">
        <ele>2525.0</ele>
        <time>2014-06-30T13:31:19Z</time>
      </trkpt>
      <trkpt lat="40.628567" lon="-4.913600">
        <ele>2527.0</ele>
        <time>2014-06-30T13:31:20Z</time>
      </trkpt>
      <trkpt lat="40.628550" lon="-4.913583">
        <ele>2529.0</ele>
        <time>2014-06-30T13:31:21Z</time>
      </trkpt>
      <trkpt lat="40.628500" lon="-4.913550">
        <ele>2531.0</ele>
        <time>2014-06-30T13:31:22Z</time>
      </trkpt>
      <trkpt lat="40.628467" lon="-4.913500">
        <ele>2532.0</ele>
        <time>2014-06-30T13:31:23Z</time>
      </trkpt>
      <trkpt lat="40.628417" lon="-4.913450">
        <ele>2534.0</ele>
        <time>2014-06-30T13:31:24Z</time>
      </trkpt>
      <trkpt lat="40.628367" lon="-4.913367">
        <ele>2536.0</ele>
        <time>2014-06-30T13:31:25Z</time>
      </trkpt>
      <trkpt lat="40.628317" lon="-4.913267">
        <ele>2541.0</ele>
        <time>2014-06-30T13:31:26Z</time>
      </trkpt>
      <trkpt lat="40.628283" lon="-4.913167">
        <ele>2547.0</ele>
        <time>2014-06-30T13:31:27Z</time>
      </trkpt>
      <trkpt lat="40.628300" lon="-4.913117">
        <ele>2548.0</ele>
        <time>2014-06-30T13:31:28Z</time>
      </trkpt>
      <trkpt lat="40.628300" lon="-4.913050">
        <ele>2548.0</ele>
        <time>2014-06-30T13:31:29Z</time>
      </trkpt>
      <trkpt lat="40.628300" lon="-4.912950">
        <ele>2550.0</ele>
        <time>2014-06-30T13:31:30Z</time>
      </trkpt>
      <trkpt lat="40.628300" lon="-4.912817">
        <ele>2553.0</ele>
        <time>2014-06-30T13:31:31Z</time>
      </trkpt>
      <trkpt lat="40.628317" lon="-4.912683">
        <ele>2555.0</ele>
        <time>2014-06-30T13:31:32Z</time>
      </trkpt>
      <trkpt lat="40.628350" lon="-4.912517">
        <ele>2558.0</ele>
        <time>2014-06-30T13:31:33Z</time>
      </trkpt>
      <trkpt lat="40.628400" lon="-4.912383">
        <ele>2560.0</ele>
        <time>2014-06-30T13:31:34Z</time>
      </trkpt>
      <trkpt lat="40.628483" lon="-4.912267">
        <ele>2563.0</ele>
        <time>2014-06-30T13:31:35Z</time>
      </trkpt>
      <trkpt lat="40.628550" lon="-4.912167">
        <ele>2568.0</ele>
        <time>2014-06-30T13:31:36Z</time>
      </trkpt>
      <trkpt lat="40.628650" lon="-4.912100">
        <ele>2573.0</ele>
        <time>2014-06-30T13:31:37Z</time>
      </trkpt>
      <trkpt lat="40.628767" lon="-4.912083">
        <ele>2578.0</ele>
        <time>2014-06-30T13:31:38Z</time>
      </trkpt>
      <trkpt lat="40.628867" lon="-4.912083">
        <ele>2582.0</ele>
        <time>2014-06-30T13:31:39Z</time>
      </trkpt>
      <trkpt lat="40.628967" lon="-4.912117">
        <ele>2585.0</ele>
        <time>2014-06-30T13:31:40Z</time>
      </trkpt>
      <trkpt lat="40.629033" lon="-4.912167">
        <ele>2590.0</ele>
        <time>2014-06-30T13:31:41Z</time>
      </trkpt>
      <trkpt lat="40.629067" lon="-4.912233">
        <ele>2595.0</ele>
        <time>2014-06-30T13:31:42Z</time>
      </trkpt>
      <trkpt lat="40.629067" lon="-4.912283">
        <ele>2602.0</ele>
        <time>2014-06-30T13:31:43Z</time>
      </trkpt>
      <trkpt lat="40.629067" lon="-4.912317">
        <ele>2608.0</ele>
        <time>2014-06-30T13:31:44Z</time>
      </trkpt>
      <trkpt lat="40.629083" lon="-4.912350">
        <ele>2600.0</ele>
        <time>2014-06-30T13:31:45Z</time>
      </trkpt>
      <trkpt lat="40.629083" lon="-4.912383">
        <ele>2601.0</ele>
        <time>2014-06-30T13:31:46Z</time>
      </trkpt>
      <trkpt lat="40.629067" lon="-4.912417">
        <ele>2602.0</ele>
        <time>2014-06-30T13:31:47Z</time>
      </trkpt>
      <trkpt lat="40.629033" lon="-4.912417">
        <ele>2602.0</ele>
        <time>2014-06-30T13:31:48Z</time>
      </trkpt>
      <trkpt lat="40.629017" lon="-4.912367">
        <ele>2603.0</ele>
        <time>2014-06-30T13:31:49Z</time>
      </trkpt>
      <trkpt lat="40.628983" lon="-4.912300">
        <ele>2608.0</ele>
        <time>2014-06-30T13:31:50Z</time>
      </trkpt>
      <trkpt lat="40.628950" lon="-4.912217">
        <ele>2612.0</ele>
        <time>2014-06-30T13:31:51Z</time>
      </trkpt>
      <trkpt lat="40.628917" lon="-4.912117">
        <ele>2615.0</ele>
        <time>2014-06-30T13:31:52Z</time>
      </trkpt>
      <trkpt lat="40.628883" lon="-4.912033">
        <ele>2619.0</ele>
        <time>2014-06-30T13:31:53Z</time>
      </trkpt>
      <trkpt lat="40.628883" lon="-4.911933">
        <ele>2620.0</ele>
        <time>2014-06-30T13:31:54Z</time>
      </trkpt>
      <trkpt lat="40.628900" lon="-4.911833">
        <ele>2621.0</ele>
        <time>2014-06-30T13:31:55Z</time>
      </trkpt>
      <trkpt lat="40.628917" lon="-4.911717">
        <ele>2622.0</ele>
        <time>2014-06-30T13:31:56Z</time>
      </trkpt>
      <trkpt lat="40.628933" lon="-4.911567">
        <ele>2624.0</ele>
        <time>2014-06-30T13:31:57Z</time>
      </trkpt>
      <trkpt lat="40.628967" lon="-4.911417">
        <ele>2627.0</ele>
        <time>2014-06-30T13:31:58Z</time>
      </trkpt>
      <trkpt lat="40.629033" lon="-4.911267">
        <ele>2629.0</ele>
        <time>2014-06-30T13:31:59Z</time>
      </trkpt>
      <trkpt lat="40.629117" lon="-4.911150">
        <ele>2631.0</ele>
        <time>2014-06-30T13:32:00Z</time>
      </trkpt>
      <trkpt lat="40.629233" lon="-4.911050">
        <ele>2634.0</ele>
        <time>2014-06-30T13:32:01Z</time>
      </trkpt>
      <trkpt lat="40.629350" lon="-4.910983">
        <ele>2639.0</ele>
        <time>2014-06-30T13:32:02Z</time>
      </trkpt>
      <trkpt lat="40.629467" lon="-4.910967">
        <ele>2646.0</ele>
        <time>2014-06-30T13:32:03Z</time>
      </trkpt>
      <trkpt lat="40.629567" lon="-4.910983">
        <ele>2652.0</ele>
        <time>2014-06-30T13:32:04Z</time>
      </trkpt>
      <trkpt lat="40.629667" lon="-4.911017">
        <ele>2657.0</ele>
        <time>2014-06-30T13:32:05Z</time>
      </trkpt>
      <trkpt lat="40.629717" lon="-4.911050">
        <ele>2664.0</ele>
        <time>2014-06-30T13:32:06Z</time>
      </trkpt>
      <trkpt lat="40.629817" lon="-4.911133">
        <ele>2657.0</ele>
        <time>2014-06-30T13:32:07Z</time>
      </trkpt>
      <trkpt lat="40.629883" lon="-4.911183">
        <ele>2658.0</ele>
        <time>2014-06-30T13:32:08Z</time>
      </trkpt>
      <trkpt lat="40.629933" lon="-4.911250">
        <ele>2660.0</ele>
        <time>2014-06-30T13:32:09Z</time>
      </trkpt>
      <trkpt lat="40.629967" lon="-4.911300">
        <ele>2661.0</ele>
        <time>2014-06-30T13:32:10Z</time>
      </trkpt>
      <trkpt lat="40.629983" lon="-4.911367">
        <ele>2662.0</ele>
        <time>2014-06-30T13:32:11Z</time>
      </trkpt>
      <trkpt lat="40.629983" lon="-4.911400">
        <ele>2663.0</ele>
        <time>2014-06-30T13:32:12Z</time>
      </trkpt>
      <trkpt lat="40.629950" lon="-4.911417">
        <ele>2665.0</ele>
        <time>2014-06-30T13:32:13Z</time>
      </trkpt>
      <trkpt lat="40.629933" lon="-4.911417">
        <ele>2668.0</ele>
        <time>2014-06-30T13:32:14Z</time>
      </trkpt>
      <trkpt lat="40.629933" lon="-4.911433">
        <ele>2670.0</ele>
        <time>2014-06-30T13:32:15Z</time>
      </trkpt>
      <trkpt lat="40.629917" lon="-4.911450">
        <ele>2671.0</ele>
        <time>2014-06-30T13:32:16Z</time>
      </trkpt>
      <trkpt lat="40.629900" lon="-4.911417">
        <ele>2672.0</ele>
        <time>2014-06-30T13:32:17Z</time>
      </trkpt>
      <trkpt lat="40.629867" lon="-4.911350">
        <ele>2674.0</ele>
        <time>2014-06-30T13:32:18Z</time>
      </trkpt>
      <trkpt lat="40.629833" lon="-4.911283">
        <ele>2676.0</ele>
        <time>2014-06-30T13:32:19Z</time>
      </trkpt>
      <trkpt lat="40.629800" lon="-4.911183">
        <ele>2682.0</ele>
        <time>2014-06-30T13:32:20Z</time>
      </trkpt>
      <trkpt lat="40.629783" lon="-4.911083">
        <ele>2687.0</ele>
        <time>2014-06-30T13:32:21Z</time>
      </trkpt>
      <trkpt lat="40.629783" lon="-4.910983">
        <ele>2691.0</ele>
        <time>2014-06-30T13:32:22Z</time>
      </trkpt>
      <trkpt lat="40.629800" lon="-4.910900">
        <ele>2689.0</ele>
        <time>2014-06-30T13:32:23Z</time>
      </trkpt>
      <trkpt lat="40.629800" lon="-4.910783">
        <ele>2690.0</ele>
        <time>2014-06-30T13:32:24Z</time>
      </trkpt>
      <trkpt lat="40.629783" lon="-4.910667">
        <ele>2692.0</ele>
        <time>2014-06-30T13:32:25Z</time>
      </trkpt>
      <trkpt lat="40.629767" lon="-4.910533">
        <ele>2695.0</ele>
        <time>2014-06-30T13:32:26Z</time>
      </trkpt>
      <trkpt lat="40.629733" lon="-4.910417">
        <ele>2698.0</ele>
        <time>2014-06-30T13:32:27Z</time>
      </trkpt>
      <trkpt lat="40.629717" lon="-4.910300">
        <ele>2704.0</ele>
        <time>2014-06-30T13:32:28Z</time>
      </trkpt>
      <trkpt lat="40.629700" lon="-4.910183">
        <ele>2709.0</ele>
        <time>2014-06-30T13:32:29Z</time>
      </trkpt>
      <trkpt lat="40.629717" lon="-4.910067">
        <ele>2714.0</ele>
        <time>2014-06-30T13:32:30Z</time>
      </trkpt>
      <trkpt lat="40.629717" lon="-4.909967">
        <ele>2718.0</ele>
        <time>2014-06-30T13:32:31Z</time>
      </trkpt>
      <trkpt lat="40.629717" lon="-4.909833">
        <ele>2721.0</ele>
        <time>2014-06-30T13:32:32Z</time>
      </trkpt>
      <trkpt lat="40.629750" lon="-4.909683">
        <ele>2725.0</ele>
        <time>2014-06-30T13:32:33Z</time>
      </trkpt>
      <trkpt lat="40.629817" lon="-4.909500">
        <ele>2728.0</ele>
        <time>2014-06-30T13:32:34Z</time>
      </trkpt>
      <trkpt lat="40.629917" lon="-4.909350">
        <ele>2731.0</ele>
        <time>2014-06-30T13:32:35Z</time>
      </trkpt>
      <trkpt lat="40.630033" lon="-4.909217">
        <ele>2735.0</ele>
        <time>2014-06-30T13:32:36Z</time>
      </trkpt>
      <trkpt lat="40.630150" lon="-4.909117">
        <ele>2740.0</ele>
        <time>2014-06-30T13:32:37Z</time>
      </trkpt>
      <trkpt lat="40.630267" lon="-4.909050">
        <ele>2745.0</ele>
        <time>2014-06-30T13:32:38Z</time>
      </trkpt>
      <trkpt lat="40.630383" lon="-4.909000">
        <ele>2750.0</ele>
        <time>2014-06-30T13:32:39Z</time>
      </trkpt>
      <trkpt lat="40.630500" lon="-4.908967">
        <ele>2754.0</ele>
        <time>2014-06-30T13:32:40Z</time>
      </trkpt>
      <trkpt lat="40.630617" lon="-4.908967">
        <ele>2755.0</ele>
        <time>2014-06-30T13:32:41Z</time>
      </trkpt>
      <trkpt lat="40.630717" lon="-4.909017">
        <ele>2759.0</ele>
        <time>2014-06-30T13:32:42Z</time>
      </trkpt>
      <trkpt lat="40.630800" lon="-4.909083">
        <ele>2763.0</ele>
        <time>2014-06-30T13:32:43Z</time>
      </trkpt>
      <trkpt lat="40.630850" lon="-4.909150">
        <ele>2766.0</ele>
        <time>2014-06-30T13:32:44Z</time>
      </trkpt>
      <trkpt lat="40.630850" lon="-4.909217">
        <ele>2769.0</ele>
        <time>2014-06-30T13:32:45Z</time>
      </trkpt>
      <trkpt lat="40.630883" lon="-4.909267">
        <ele>2761.0</ele>
        <time>2014-06-30T13:32:46Z</time>
      </trkpt>
      <trkpt lat="40.630867" lon="-4.909283">
        <ele>2763.0</ele>
        <time>2014-06-30T13:32:47Z</time>
      </trkpt>
      <trkpt lat="40.630833" lon="-4.909267">
        <ele>2764.0</ele>
        <time>2014-06-30T13:32:48Z</time>
      </trkpt>
      <trkpt lat="40.630800" lon="-4.909233">
        <ele>2766.0</ele>
        <time>2014-06-30T13:32:49Z</time>
      </trkpt>
      <trkpt lat="40.630783" lon="-4.909167">
        <ele>2769.0</ele>
        <time>2014-06-30T13:32:50Z</time>
      </trkpt>
      <trkpt lat="40.630767" lon="-4.909100">
        <ele>2772.0</ele>
        <time>2014-06-30T13:32:51Z</time>
      </trkpt>
      <trkpt lat="40.630733" lon="-4.909000">
        <ele>2774.0</ele>
        <time>2014-06-30T13:32:52Z</time>
      </trkpt>
      <trkpt lat="40.630733" lon="-4.908900">
        <ele>2777.0</ele>
        <time>2014-06-30T13:32:53Z</time>
      </trkpt>
      <trkpt lat="40.630733" lon="-4.908783">
        <ele>2781.0</ele>
        <time>2014-06-30T13:32:54Z</time>
      </trkpt>
      <trkpt lat="40.630733" lon="-4.908683">
        <ele>2785.0</ele>
        <time>2014-06-30T13:32:55Z</time>
      </trkpt>
      <trkpt lat="40.630750" lon="-4.908583">
        <ele>2788.0</ele>
        <time>2014-06-30T13:32:56Z</time>
      </trkpt>
      <trkpt lat="40.630750" lon="-4.908467">
        <ele>2790.0</ele>
        <time>2014-06-30T13:32:57Z</time>
      </trkpt>
      <trkpt lat="40.630767" lon="-4.908317">
        <ele>2791.0</ele>
        <time>2014-06-30T13:32:58Z</time>
      </trkpt>
      <trkpt lat="40.630800" lon="-4.908150">
        <ele>2794.0</ele>
        <time>2014-06-30T13:32:59Z</time>
      </trkpt>
      <trkpt lat="40.630867" lon="-4.908000">
        <ele>2797.0</ele>
        <time>2014-06-30T13:33:00Z</time>
      </trkpt>
      <trkpt lat="40.630933" lon="-4.907850">
        <ele>2800.0</ele>
        <time>2014-06-30T13:33:01Z</time>
      </trkpt>
      <trkpt lat="40.631017" lon="-4.907700">
        <ele>2804.0</ele>
        <time>2014-06-30T13:33:02Z</time>
      </trkpt>
      <trkpt lat="40.631100" lon="-4.907583">
        <ele>2807.0</ele>
        <time>2014-06-30T13:33:03Z</time>
      </trkpt>
      <trkpt lat="40.631167" lon="-4.907450">
        <ele>2810.0</ele>
        <time>2014-06-30T13:33:04Z</time>
      </trkpt>
      <trkpt lat="40.631250" lon="-4.907350">
        <ele>2813.0</ele>
        <time>2014-06-30T13:33:05Z</time>
      </trkpt>
      <trkpt lat="40.631333" lon="-4.907250">
        <ele>2816.0</ele>
        <time>2014-06-30T13:33:06Z</time>
      </trkpt>
      <trkpt lat="40.631450" lon="-4.907167">
        <ele>2818.0</ele>
        <time>2014-06-30T13:33:07Z</time>
      </trkpt>
      <trkpt lat="40.631567" lon="-4.907100">
        <ele>2820.0</ele>
        <time>2014-06-30T13:33:08Z</time>
      </trkpt>
      <trkpt lat="40.631700" lon="-4.907067">
        <ele>2823.0</ele>
        <time>2014-06-30T13:33:09Z</time>
      </trkpt>
      <trkpt lat="40.631817" lon="-4.907083">
        <ele>2826.0</ele>
        <time>2014-06-30T13:33:10Z</time>
      </trkpt>
      <trkpt lat="40.631900" lon="-4.907117">
        <ele>2829.0</ele>
        <time>2014-06-30T13:33:11Z</time>
      </trkpt>
      <trkpt lat="40.631983" lon="-4.907167">
        <ele>2830.0</ele>
        <time>2014-06-30T13:33:12Z</time>
      </trkpt>
      <trkpt lat="40.632050" lon="-4.907250">
        <ele>2832.0</ele>
        <time>2014-06-30T13:33:13Z</time>
      </trkpt>
      <trkpt lat="40.632133" lon="-4.907333">
        <ele>2824.0</ele>
        <time>2014-06-30T13:33:14Z</time>
      </trkpt>
      <trkpt lat="40.632183" lon="-4.907383">
        <ele>2825.0</ele>
        <time>2014-06-30T13:33:15Z</time>
      </trkpt>
      <trkpt lat="40.632233" lon="-4.907450">
        <ele>2826.0</ele>
        <time>2014-06-30T13:33:16Z</time>
      </trkpt>
      <trkpt lat="40.632250" lon="-4.907500">
        <ele>2826.0</ele>
        <time>2014-06-30T13:33:17Z</time>
      </trkpt>
      <trkpt lat="40.632233" lon="-4.907550">
        <ele>2827.0</ele>
        <time>2014-06-30T13:33:18Z</time>
      </trkpt>
      <trkpt lat="40.632200" lon="-4.907550">
        <ele>2829.0</ele>
        <time>2014-06-30T13:33:19Z</time>
      </trkpt>
      <trkpt lat="40.632183" lon="-4.907517">
        <ele>2830.0</ele>
        <time>2014-06-30T13:33:20Z</time>
      </trkpt>
      <trkpt lat="40.632167" lon="-4.907450">
        <ele>2833.0</ele>
        <time>2014-06-30T13:33:21Z</time>
      </trkpt>
      <trkpt lat="40.632167" lon="-4.907350">
        <ele>2836.0</ele>
        <time>2014-06-30T13:33:22Z</time>
      </trkpt>
      <trkpt lat="40.632167" lon="-4.907283">
        <ele>2836.0</ele>
        <time>2014-06-30T13:33:23Z</time>
      </trkpt>
      <trkpt lat="40.632167" lon="-4.907183">
        <ele>2837.0</ele>
        <time>2014-06-30T13:33:24Z</time>
      </trkpt>
      <trkpt lat="40.632167" lon="-4.907067">
        <ele>2839.0</ele>
        <time>2014-06-30T13:33:25Z</time>
      </trkpt>
      <trkpt lat="40.632150" lon="-4.906933">
        <ele>2840.0</ele>
        <time>2014-06-30T13:33:26Z</time>
      </trkpt>
      <trkpt lat="40.632167" lon="-4.906783">
        <ele>2842.0</ele>
        <time>2014-06-30T13:33:27Z</time>
      </trkpt>
      <trkpt lat="40.632183" lon="-4.906633">
        <ele>2844.0</ele>
        <time>2014-06-30T13:33:28Z</time>
      </trkpt>
      <trkpt lat="40.632217" lon="-4.906483">
        <ele>2847.0</ele>
        <time>2014-06-30T13:33:29Z</time>
      </trkpt>
      <trkpt lat="40.632267" lon="-4.906350">
        <ele>2849.0</ele>
        <time>2014-06-30T13:33:30Z</time>
      </trkpt>
      <trkpt lat="40.632300" lon="-4.906200">
        <ele>2852.0</ele>
        <time>2014-06-30T13:33:31Z</time>
      </trkpt>
      <trkpt lat="40.632367" lon="-4.906050">
        <ele>2854.0</ele>
        <time>2014-06-30T13:33:32Z</time>
      </trkpt>
      <trkpt lat="40.632433" lon="-4.905917">
        <ele>2856.0</ele>
        <time>2014-06-30T13:33:33Z</time>
      </trkpt>
      <trkpt lat="40.632533" lon="-4.905800">
        <ele>2858.0</ele>
        <time>2014-06-30T13:33:34Z</time>
      </trkpt>
      <trkpt lat="40.632633" lon="-4.905717">
        <ele>2860.0</ele>
        <time>2014-06-30T13:33:35Z</time>
      </trkpt>
      <trkpt lat="40.632767" lon="-4.905650">
        <ele>2862.0</ele>
        <time>2014-06-30T13:33:36Z</time>
      </trkpt>
      <trkpt lat="40.632867" lon="-4.905583">
        <ele>2865.0</ele>
        <time>2014-06-30T13:33:37Z</time>
      </trkpt>
      <trkpt lat="40.632983" lon="-4.905517">
        <ele>2867.0</ele>
        <time>2014-06-30T13:33:38Z</time>
      </trkpt>
      <trkpt lat="40.633100" lon="-4.905450">
        <ele>2869.0</ele>
        <time>2014-06-30T13:33:39Z</time>
      </trkpt>
      <trkpt lat="40.633217" lon="-4.905400">
        <ele>2871.0</ele>
        <time>2014-06-30T13:33:40Z</time>
      </trkpt>
      <trkpt lat="40.633317" lon="-4.905383">
        <ele>2873.0</ele>
        <time>2014-06-30T13:33:41Z</time>
      </trkpt>
      <trkpt lat="40.633417" lon="-4.905400">
        <ele>2874.0</ele>
        <time>2014-06-30T13:33:42Z</time>
      </trkpt>
      <trkpt lat="40.633500" lon="-4.905400">
        <ele>2876.0</ele>
        <time>2014-06-30T13:33:43Z</time>
      </trkpt>
      <trkpt lat="40.633583" lon="-4.905400">
        <ele>2876.0</ele>
        <time>2014-06-30T13:33:44Z</time>
      </trkpt>
      <trkpt lat="40.633683" lon="-4.905417">
        <ele>2877.0</ele>
        <time>2014-06-30T13:33:45Z</time>
      </trkpt>
      <trkpt lat="40.633767" lon="-4.905450">
        <ele>2878.0</ele>
        <time>2014-06-30T13:33:46Z</time>
      </trkpt>
      <trkpt lat="40.633817" lon="-4.905500">
        <ele>2875.0</ele>
        <time>2014-06-30T13:33:47Z</time>
      </trkpt>
      <trkpt lat="40.633867" lon="-4.905567">
        <ele>2875.0</ele>
        <time>2014-06-30T13:33:48Z</time>
      </trkpt>
      <trkpt lat="40.633900" lon="-4.905633">
        <ele>2876.0</ele>
        <time>2014-06-30T13:33:49Z</time>
      </trkpt>
      <trkpt lat="40.633933" lon="-4.905700">
        <ele>2876.0</ele>
        <time>2014-06-30T13:33:50Z</time>
      </trkpt>
      <trkpt lat="40.633983" lon="-4.905750">
        <ele>2876.0</ele>
        <time>2014-06-30T13:33:51Z</time>
      </trkpt>
      <trkpt lat="40.634017" lon="-4.905800">
        <ele>2877.0</ele>
        <time>2014-06-30T13:33:52Z</time>
      </trkpt>
      <trkpt lat="40.634033" lon="-4.905850">
        <ele>2877.0</ele>
        <time>2014-06-30T13:33:53Z</time>
      </trkpt>
      <trkpt lat="40.634050" lon="-4.905900">
        <ele>2877.0</ele>
        <time>2014-06-30T13:33:54Z</time>
      </trkpt>
      <trkpt lat="40.634050" lon="-4.905950">
        <ele>2878.0</ele>
        <time>2014-06-30T13:33:55Z</time>
      </trkpt>
      <trkpt lat="40.634067" lon="-4.905983">
        <ele>2878.0</ele>
        <time>2014-06-30T13:33:56Z</time>
      </trkpt>
      <trkpt lat="40.634083" lon="-4.906033">
        <ele>2878.0</ele>
        <time>2014-06-30T13:33:57Z</time>
      </trkpt>
      <trkpt lat="40.634083" lon="-4.906067">
        <ele>2878.0</ele>
        <time>2014-06-30T13:33:58Z</time>
      </trkpt>
      <trkpt lat="40.634083" lon="-4.906100">
        <ele>2879.0</ele>
        <time>2014-06-30T13:33:59Z</time>
      </trkpt>
      <trkpt lat="40.634067" lon="-4.906133">
        <ele>2879.0</ele>
        <time>2014-06-30T13:34:00Z</time>
      </trkpt>
      <trkpt lat="40.634067" lon="-4.906150">
        <ele>2879.0</ele>
        <time>2014-06-30T13:34:01Z</time>
      </trkpt>
      <trkpt lat="40.634050" lon="-4.906167">
        <ele>2880.0</ele>
        <time>2014-06-30T13:34:02Z</time>
      </trkpt>
      <trkpt lat="40.634033" lon="-4.906150">
        <ele>2880.0</ele>
        <time>2014-06-30T13:34:03Z</time>
      </trkpt>
      <trkpt lat="40.634000" lon="-4.906117">
        <ele>2881.0</ele>
        <time>2014-06-30T13:34:04Z</time>
      </trkpt>
      <trkpt lat="40.633983" lon="-4.906083">
        <ele>2882.0</ele>
        <time>2014-06-30T13:34:05Z</time>
      </trkpt>
      <trkpt lat="40.633967" lon="-4.906050">
        <ele>2883.0</ele>
        <time>2014-06-30T13:34:06Z</time>
      </trkpt>
      <trkpt lat="40.633950" lon="-4.906017">
        <ele>2884.0</ele>
        <time>2014-06-30T13:34:07Z</time>
      </trkpt>
      <trkpt lat="40.633950" lon="-4.905967">
        <ele>2884.0</ele>
        <time>2014-06-30T13:34:08Z</time>
      </trkpt>
      <trkpt lat="40.633933" lon="-4.905883">
        <ele>2884.0</ele>
        <time>2014-06-30T13:34:09Z</time>
      </trkpt>
      <trkpt lat="40.633917" lon="-4.905783">
        <ele>2884.0</ele>
        <time>2014-06-30T13:34:10Z</time>
      </trkpt>
      <trkpt lat="40.633883" lon="-4.905650">
        <ele>2884.0</ele>
        <time>2014-06-30T13:34:11Z</time>
      </trkpt>
      <trkpt lat="40.633850" lon="-4.905533">
        <ele>2884.0</ele>
        <time>2014-06-30T13:34:12Z</time>
      </trkpt>
      <trkpt lat="40.633817" lon="-4.905417">
        <ele>2885.0</ele>
        <time>2014-06-30T13:34:13Z</time>
      </trkpt>
      <trkpt lat="40.633800" lon="-4.905300">
        <ele>2884.0</ele>
        <time>2014-06-30T13:34:14Z</time>
      </trkpt>
      <trkpt lat="40.633767" lon="-4.905167">
        <ele>2884.0</ele>
        <time>2014-06-30T13:34:15Z</time>
      </trkpt>
      <trkpt lat="40.633750" lon="-4.905017">
        <ele>2885.0</ele>
        <time>2014-06-30T13:34:16Z</time>
      </trkpt>
      <trkpt lat="40.633750" lon="-4.904850">
        <ele>2886.0</ele>
        <time>2014-06-30T13:34:17Z</time>
      </trkpt>
      <trkpt lat="40.633767" lon="-4.904717">
        <ele>2888.0</ele>
        <time>2014-06-30T13:34:18Z</time>
      </trkpt>
      <trkpt lat="40.633800" lon="-4.904600">
        <ele>2891.0</ele>
        <time>2014-06-30T13:34:19Z</time>
      </trkpt>
      <trkpt lat="40.633817" lon="-4.904483">
        <ele>2893.0</ele>
        <time>2014-06-30T13:34:20Z</time>
      </trkpt>
      <trkpt lat="40.633833" lon="-4.904400">
        <ele>2894.0</ele>
        <time>2014-06-30T13:34:21Z</time>
      </trkpt>
      <trkpt lat="40.633833" lon="-4.904267">
        <ele>2894.0</ele>
        <time>2014-06-30T13:34:22Z</time>
      </trkpt>
      <trkpt lat="40.633850" lon="-4.904133">
        <ele>2895.0</ele>
        <time>2014-06-30T13:34:23Z</time>
      </trkpt>
      <trkpt lat="40.633900" lon="-4.903983">
        <ele>2895.0</ele>
        <time>2014-06-30T13:34:24Z</time>
      </trkpt>
      <trkpt lat="40.633967" lon="-4.903833">
        <ele>2896.0</ele>
        <time>2014-06-30T13:34:25Z</time>
      </trkpt>
      <trkpt lat="40.634083" lon="-4.903767">
        <ele>2897.0</ele>
        <time>2014-06-30T13:34:26Z</time>
      </trkpt>
      <trkpt lat="40.634217" lon="-4.903750">
        <ele>2897.0</ele>
        <time>2014-06-30T13:34:27Z</time>
      </trkpt>
      <trkpt lat="40.634333" lon="-4.903767">
        <ele>2897.0</ele>
        <time>2014-06-30T13:34:28Z</time>
      </trkpt>
      <trkpt lat="40.634467" lon="-4.903767">
        <ele>2897.0</ele>
        <time>2014-06-30T13:34:29Z</time>
      </trkpt>
      <trkpt lat="40.634583" lon="-4.903750">
        <ele>2897.0</ele>
        <time>2014-06-30T13:34:30Z</time>
      </trkpt>
      <trkpt lat="40.634700" lon="-4.903717">
        <ele>2897.0</ele>
        <time>2014-06-30T13:34:31Z</time>
      </trkpt>
      <trkpt lat="40.634800" lon="-4.903717">
        <ele>2897.0</ele>
        <time>2014-06-30T13:34:32Z</time>
      </trkpt>
      <trkpt lat="40.634883" lon="-4.903717">
        <ele>2897.0</ele>
        <time>2014-06-30T13:34:33Z</time>
      </trkpt>
      <trkpt lat="40.634967" lon="-4.903717">
        <ele>2897.0</ele>
        <time>2014-06-30T13:34:34Z</time>
      </trkpt>
      <trkpt lat="40.635050" lon="-4.903733">
        <ele>2897.0</ele>
        <time>2014-06-30T13:34:35Z</time>
      </trkpt>
      <trkpt lat="40.635150" lon="-4.903733">
        <ele>2896.0</ele>
        <time>2014-06-30T13:34:36Z</time>
      </trkpt>
      <trkpt lat="40.635233" lon="-4.903750">
        <ele>2896.0</ele>
        <time>2014-06-30T13:34:37Z</time>
      </trkpt>
      <trkpt lat="40.635333" lon="-4.903767">
        <ele>2896.0</ele>
        <time>2014-06-30T13:34:38Z</time>
      </trkpt>
      <trkpt lat="40.635417" lon="-4.903800">
        <ele>2896.0</ele>
        <time>2014-06-30T13:34:39Z</time>
      </trkpt>
      <trkpt lat="40.635500" lon="-4.903850">
        <ele>2895.0</ele>
        <time>2014-06-30T13:34:40Z</time>
      </trkpt>
      <trkpt lat="40.635567" lon="-4.903900">
        <ele>2893.0</ele>
        <time>2014-06-30T13:34:41Z</time>
      </trkpt>
      <trkpt lat="40.635633" lon="-4.903967">
        <ele>2892.0</ele>
        <time>2014-06-30T13:34:42Z</time>
      </trkpt>
      <trkpt lat="40.635667" lon="-4.904033">
        <ele>2894.0</ele>
        <time>2014-06-30T13:34:43Z</time>
      </trkpt>
      <trkpt lat="40.635683" lon="-4.904100">
        <ele>2893.0</ele>
        <time>2014-06-30T13:34:44Z</time>
      </trkpt>
      <trkpt lat="40.635683" lon="-4.904183">
        <ele>2893.0</ele>
        <time>2014-06-30T13:34:45Z</time>
      </trkpt>
      <trkpt lat="40.635650" lon="-4.904267">
        <ele>2892.0</ele>
        <time>2014-06-30T13:34:46Z</time>
      </trkpt>
      <trkpt lat="40.635600" lon="-4.904317">
        <ele>2892.0</ele>
        <time>2014-06-30T13:34:47Z</time>
      </trkpt>
      <trkpt lat="40.635533" lon="-4.904317">
        <ele>2892.0</ele>
        <time>2014-06-30T13:34:48Z</time>
      </trkpt>
      <trkpt lat="40.635450" lon="-4.904233">
        <ele>2892.0</ele>
        <time>2014-06-30T13:34:49Z</time>
      </trkpt>
      <trkpt lat="40.635400" lon="-4.904100">
        <ele>2891.0</ele>
        <time>2014-06-30T13:34:50Z</time>
      </trkpt>
      <trkpt lat="40.635383" lon="-4.903950">
        <ele>2889.0</ele>
        <time>2014-06-30T13:34:51Z</time>
      </trkpt>
      <trkpt lat="40.635400" lon="-4.903800">
        <ele>2887.0</ele>
        <time>2014-06-30T13:34:52Z</time>
      </trkpt>
      <trkpt lat="40.635433" lon="-4.903650">
        <ele>2886.0</ele>
        <time>2014-06-30T13:34:53Z</time>
      </trkpt>
      <trkpt lat="40.635467" lon="-4.903517">
        <ele>2885.0</ele>
        <time>2014-06-30T13:34:54Z</time>
      </trkpt>
      <trkpt lat="40.635500" lon="-4.903383">
        <ele>2884.0</ele>
        <time>2014-06-30T13:34:55Z</time>
      </trkpt>
      <trkpt lat="40.635500" lon="-4.903250">
        <ele>2883.0</ele>
        <time>2014-06-30T13:34:56Z</time>
      </trkpt>
      <trkpt lat="40.635517" lon="-4.903100">
        <ele>2881.0</ele>
        <time>2014-06-30T13:34:57Z</time>
      </trkpt>
      <trkpt lat="40.635533" lon="-4.902933">
        <ele>2878.0</ele>
        <time>2014-06-30T13:34:58Z</time>
      </trkpt>
      <trkpt lat="40.635583" lon="-4.902767">
        <ele>2875.0</ele>
        <time>2014-06-30T13:34:59Z</time>
      </trkpt>
      <trkpt lat="40.635650" lon="-4.902600">
        <ele>2873.0</ele>
        <time>2014-06-30T13:35:00Z</time>
      </trkpt>
      <trkpt lat="40.635717" lon="-4.902467">
        <ele>2872.0</ele>
        <time>2014-06-30T13:35:01Z</time>
      </trkpt>
      <trkpt lat="40.635767" lon="-4.902367">
        <ele>2870.0</ele>
        <time>2014-06-30T13:35:02Z</time>
      </trkpt>
      <trkpt lat="40.635833" lon="-4.902250">
        <ele>2869.0</ele>
        <time>2014-06-30T13:35:03Z</time>
      </trkpt>
      <trkpt lat="40.635883" lon="-4.902133">
        <ele>2866.0</ele>
        <time>2014-06-30T13:35:04Z</time>
      </trkpt>
      <trkpt lat="40.635967" lon="-4.902000">
        <ele>2864.0</ele>
        <time>2014-06-30T13:35:05Z</time>
      </trkpt>
      <trkpt lat="40.636033" lon="-4.901883">
        <ele>2861.0</ele>
        <time>2014-06-30T13:35:06Z</time>
      </trkpt>
      <trkpt lat="40.636133" lon="-4.901767">
        <ele>2860.0</ele>
        <time>2014-06-30T13:35:07Z</time>
      </trkpt>
      <trkpt lat="40.636217" lon="-4.901650">
        <ele>2858.0</ele>
        <time>2014-06-30T13:35:08Z</time>
      </trkpt>
      <trkpt lat="40.636300" lon="-4.901533">
        <ele>2857.0</ele>
        <time>2014-06-30T13:35:09Z</time>
      </trkpt>
      <trkpt lat="40.636367" lon="-4.901417">
        <ele>2855.0</ele>
        <time>2014-06-30T13:35:10Z</time>
      </trkpt>
      <trkpt lat="40.636433" lon="-4.901300">
        <ele>2853.0</ele>
        <time>2014-06-30T13:35:11Z</time>
      </trkpt>
      <trkpt lat="40.636500" lon="-4.901167">
        <ele>2851.0</ele>
        <time>2014-06-30T13:35:12Z</time>
      </trkpt>
      <trkpt lat="40.636583" lon="-4.901033">
        <ele>2849.0</ele>
        <time>2014-06-30T13:35:13Z</time>
      </trkpt>
      <trkpt lat="40.636650" lon="-4.900883">
        <ele>2847.0</ele>
        <time>2014-06-30T13:35:14Z</time>
      </trkpt>
      <trkpt lat="40.636700" lon="-4.900733">
        <ele>2846.0</ele>
        <time>2014-06-30T13:35:15Z</time>
      </trkpt>
      <trkpt lat="40.636767" lon="-4.900600">
        <ele>2847.0</ele>
        <time>2014-06-30T13:35:16Z</time>
      </trkpt>
      <trkpt lat="40.636817" lon="-4.900483">
        <ele>2846.0</ele>
        <time>2014-06-30T13:35:17Z</time>
      </trkpt>
      <trkpt lat="40.636883" lon="-4.900383">
        <ele>2846.0</ele>
        <time>2014-06-30T13:35:18Z</time>
      </trkpt>
      <trkpt lat="40.636933" lon="-4.900283">
        <ele>2846.0</ele>
        <time>2014-06-30T13:35:19Z</time>
      </trkpt>
      <trkpt lat="40.637000" lon="-4.900200">
        <ele>2847.0</ele>
        <time>2014-06-30T13:35:20Z</time>
      </trkpt>
      <trkpt lat="40.637083" lon="-4.900133">
        <ele>2846.0</ele>
        <time>2014-06-30T13:35:21Z</time>
      </trkpt>
      <trkpt lat="40.637150" lon="-4.900067">
        <ele>2848.0</ele>
        <time>2014-06-30T13:35:22Z</time>
      </trkpt>
      <trkpt lat="40.637250" lon="-4.900017">
        <ele>2848.0</ele>
        <time>2014-06-30T13:35:23Z</time>
      </trkpt>
      <trkpt lat="40.637367" lon="-4.899967">
        <ele>2847.0</ele>
        <time>2014-06-30T13:35:24Z</time>
      </trkpt>
      <trkpt lat="40.637483" lon="-4.899900">
        <ele>2846.0</ele>
        <time>2014-06-30T13:35:25Z</time>
      </trkpt>
      <trkpt lat="40.637600" lon="-4.899800">
        <ele>2845.0</ele>
        <time>2014-06-30T13:35:26Z</time>
      </trkpt>
      <trkpt lat="40.637733" lon="-4.899667">
        <ele>2844.0</ele>
        <time>2014-06-30T13:35:27Z</time>
      </trkpt>
      <trkpt lat="40.637850" lon="-4.899533">
        <ele>2842.0</ele>
        <time>2014-06-30T13:35:28Z</time>
      </trkpt>
      <trkpt lat="40.637950" lon="-4.899383">
        <ele>2840.0</ele>
        <time>2014-06-30T13:35:29Z</time>
      </trkpt>
      <trkpt lat="40.638050" lon="-4.899233">
        <ele>2839.0</ele>
        <time>2014-06-30T13:35:30Z</time>
      </trkpt>
      <trkpt lat="40.638133" lon="-4.899083">
        <ele>2837.0</ele>
        <time>2014-06-30T13:35:31Z</time>
      </trkpt>
      <trkpt lat="40.638233" lon="-4.898917">
        <ele>2833.0</ele>
        <time>2014-06-30T13:35:32Z</time>
      </trkpt>
      <trkpt lat="40.638300" lon="-4.898750">
        <ele>2830.0</ele>
        <time>2014-06-30T13:35:33Z</time>
      </trkpt>
      <trkpt lat="40.638383" lon="-4.898567">
        <ele>2827.0</ele>
        <time>2014-06-30T13:35:34Z</time>
      </trkpt>
      <trkpt lat="40.638467" lon="-4.898400">
        <ele>2825.0</ele>
        <time>2014-06-30T13:35:35Z</time>
      </trkpt>
      <trkpt lat="40.638517" lon="-4.898233">
        <ele>2824.0</ele>
        <time>2014-06-30T13:35:36Z</time>
      </trkpt>
      <trkpt lat="40.638583" lon="-4.898067">
        <ele>2822.0</ele>
        <time>2014-06-30T13:35:37Z</time>
      </trkpt>
      <trkpt lat="40.638617" lon="-4.897883">
        <ele>2821.0</ele>
        <time>2014-06-30T13:35:38Z</time>
      </trkpt>
      <trkpt lat="40.638667" lon="-4.897700">
        <ele>2821.0</ele>
        <time>2014-06-30T13:35:39Z</time>
      </trkpt>
      <trkpt lat="40.638700" lon="-4.897500">
        <ele>2820.0</ele>
        <time>2014-06-30T13:35:40Z</time>
      </trkpt>
      <trkpt lat="40.638750" lon="-4.897333">
        <ele>2821.0</ele>
        <time>2014-06-30T13:35:41Z</time>
      </trkpt>
      <trkpt lat="40.638800" lon="-4.897183">
        <ele>2821.0</ele>
        <time>2014-06-30T13:35:42Z</time>
      </trkpt>
      <trkpt lat="40.638850" lon="-4.897033">
        <ele>2820.0</ele>
        <time>2014-06-30T13:35:43Z</time>
      </trkpt>
      <trkpt lat="40.638917" lon="-4.896883">
        <ele>2819.0</ele>
        <time>2014-06-30T13:35:44Z</time>
      </trkpt>
      <trkpt lat="40.638967" lon="-4.896717">
        <ele>2817.0</ele>
        <time>2014-06-30T13:35:45Z</time>
      </trkpt>
      <trkpt lat="40.639033" lon="-4.896550">
        <ele>2816.0</ele>
        <time>2014-06-30T13:35:46Z</time>
      </trkpt>
      <trkpt lat="40.639117" lon="-4.896383">
        <ele>2815.0</ele>
        <time>2014-06-30T13:35:47Z</time>
      </trkpt>
      <trkpt lat="40.639200" lon="-4.896200">
        <ele>2813.0</ele>
        <time>2014-06-30T13:35:48Z</time>
      </trkpt>
      <trkpt lat="40.639267" lon="-4.896000">
        <ele>2813.0</ele>
        <time>2014-06-30T13:35:49Z</time>
      </trkpt>
      <trkpt lat="40.639333" lon="-4.895817">
        <ele>2812.0</ele>
        <time>2014-06-30T13:35:50Z</time>
      </trkpt>
      <trkpt lat="40.639400" lon="-4.895617">
        <ele>2811.0</ele>
        <time>2014-06-30T13:35:51Z</time>
      </trkpt>
      <trkpt lat="40.639483" lon="-4.895433">
        <ele>2810.0</ele>
        <time>2014-06-30T13:35:52Z</time>
      </trkpt>
      <trkpt lat="40.639550" lon="-4.895250">
        <ele>2808.0</ele>
        <time>2014-06-30T13:35:53Z</time>
      </trkpt>
      <trkpt lat="40.639633" lon="-4.895050">
        <ele>2807.0</ele>
        <time>2014-06-30T13:35:54Z</time>
      </trkpt>
      <trkpt lat="40.639700" lon="-4.894850">
        <ele>2810.0</ele>
        <time>2014-06-30T13:35:55Z</time>
      </trkpt>
      <trkpt lat="40.639750" lon="-4.894683">
        <ele>2811.0</ele>
        <time>2014-06-30T13:35:56Z</time>
      </trkpt>
      <trkpt lat="40.639817" lon="-4.894517">
        <ele>2811.0</ele>
        <time>2014-06-30T13:35:57Z</time>
      </trkpt>
      <trkpt lat="40.639867" lon="-4.894333">
        <ele>2810.0</ele>
        <time>2014-06-30T13:35:58Z</time>
      </trkpt>
      <trkpt lat="40.639917" lon="-4.894167">
        <ele>2810.0</ele>
        <time>2014-06-30T13:35:59Z</time>
      </trkpt>
      <trkpt lat="40.639983" lon="-4.893983">
        <ele>2808.0</ele>
        <time>2014-06-30T13:36:00Z</time>
      </trkpt>
      <trkpt lat="40.640050" lon="-4.893800">
        <ele>2807.0</ele>
        <time>2014-06-30T13:36:01Z</time>
      </trkpt>
      <trkpt lat="40.640117" lon="-4.893600">
        <ele>2806.0</ele>
        <time>2014-06-30T13:36:02Z</time>
      </trkpt>
      <trkpt lat="40.640200" lon="-4.893433">
        <ele>2805.0</ele>
        <time>2014-06-30T13:36:03Z</time>
      </trkpt>
      <trkpt lat="40.640283" lon="-4.893283">
        <ele>2804.0</ele>
        <time>2014-06-30T13:36:04Z</time>
      </trkpt>
      <trkpt lat="40.640383" lon="-4.893117">
        <ele>2803.0</ele>
        <time>2014-06-30T13:36:05Z</time>
      </trkpt>
      <trkpt lat="40.640450" lon="-4.892950">
        <ele>2802.0</ele>
        <time>2014-06-30T13:36:06Z</time>
      </trkpt>
      <trkpt lat="40.640550" lon="-4.892783">
        <ele>2800.0</ele>
        <time>2014-06-30T13:36:07Z</time>
      </trkpt>
      <trkpt lat="40.640650" lon="-4.892617">
        <ele>2799.0</ele>
        <time>2014-06-30T13:36:08Z</time>
      </trkpt>
      <trkpt lat="40.640750" lon="-4.892467">
        <ele>2798.0</ele>
        <time>2014-06-30T13:36:09Z</time>
      </trkpt>
      <trkpt lat="40.640833" lon="-4.892300">
        <ele>2796.0</ele>
        <time>2014-06-30T13:36:10Z</time>
      </trkpt>
      <trkpt lat="40.640933" lon="-4.892133">
        <ele>2795.0</ele>
        <time>2014-06-30T13:36:11Z</time>
      </trkpt>
      <trkpt lat="40.641033" lon="-4.891967">
        <ele>2794.0</ele>
        <time>2014-06-30T13:36:12Z</time>
      </trkpt>
      <trkpt lat="40.641133" lon="-4.891833">
        <ele>2793.0</ele>
        <time>2014-06-30T13:36:13Z</time>
      </trkpt>
      <trkpt lat="40.641250" lon="-4.891667">
        <ele>2791.0</ele>
        <time>2014-06-30T13:36:14Z</time>
      </trkpt>
      <trkpt lat="40.641333" lon="-4.891500">
        <ele>2789.0</ele>
        <time>2014-06-30T13:36:15Z</time>
      </trkpt>
      <trkpt lat="40.641433" lon="-4.891333">
        <ele>2786.0</ele>
        <time>2014-06-30T13:36:16Z</time>
      </trkpt>
      <trkpt lat="40.641533" lon="-4.891167">
        <ele>2783.0</ele>
        <time>2014-06-30T13:36:17Z</time>
      </trkpt>
      <trkpt lat="40.641667" lon="-4.891017">
        <ele>2781.0</ele>
        <time>2014-06-30T13:36:18Z</time>
      </trkpt>
      <trkpt lat="40.641817" lon="-4.890900">
        <ele>2779.0</ele>
        <time>2014-06-30T13:36:19Z</time>
      </trkpt>
      <trkpt lat="40.641950" lon="-4.890783">
        <ele>2777.0</ele>
        <time>2014-06-30T13:36:20Z</time>
      </trkpt>
      <trkpt lat="40.642067" lon="-4.890650">
        <ele>2775.0</ele>
        <time>2014-06-30T13:36:21Z</time>
      </trkpt>
      <trkpt lat="40.642167" lon="-4.890500">
        <ele>2772.0</ele>
        <time>2014-06-30T13:36:22Z</time>
      </trkpt>
      <trkpt lat="40.642283" lon="-4.890367">
        <ele>2769.0</ele>
        <time>2014-06-30T13:36:23Z</time>
      </trkpt>
      <trkpt lat="40.642400" lon="-4.890233">
        <ele>2767.0</ele>
        <time>2014-06-30T13:36:24Z</time>
      </trkpt>
      <trkpt lat="40.642533" lon="-4.890117">
        <ele>2764.0</ele>
        <time>2014-06-30T13:36:25Z</time>
      </trkpt>
      <trkpt lat="40.642667" lon="-4.889983">
        <ele>2760.0</ele>
        <time>2014-06-30T13:36:26Z</time>
      </trkpt>
      <trkpt lat="40.642800" lon="-4.889833">
        <ele>2757.0</ele>
        <time>2014-06-30T13:36:27Z</time>
      </trkpt>
      <trkpt lat="40.642933" lon="-4.889700">
        <ele>2754.0</ele>
        <time>2014-06-30T13:36:28Z</time>
      </trkpt>
      <trkpt lat="40.643067" lon="-4.889567">
        <ele>2752.0</ele>
        <time>2014-06-30T13:36:29Z</time>
      </trkpt>
      <trkpt lat="40.643200" lon="-4.889433">
        <ele>2750.0</ele>
        <time>2014-06-30T13:36:30Z</time>
      </trkpt>
      <trkpt lat="40.643333" lon="-4.889317">
        <ele>2748.0</ele>
        <time>2014-06-30T13:36:31Z</time>
      </trkpt>
      <trkpt lat="40.643450" lon="-4.889183">
        <ele>2746.0</ele>
        <time>2014-06-30T13:36:32Z</time>
      </trkpt>
      <trkpt lat="40.643567" lon="-4.889033">
        <ele>2743.0</ele>
        <time>2014-06-30T13:36:33Z</time>
      </trkpt>
      <trkpt lat="40.643700" lon="-4.888900">
        <ele>2740.0</ele>
        <time>2014-06-30T13:36:34Z</time>
      </trkpt>
      <trkpt lat="40.643833" lon="-4.888783">
        <ele>2737.0</ele>
        <time>2014-06-30T13:36:35Z</time>
      </trkpt>
      <trkpt lat="40.643950" lon="-4.888633">
        <ele>2734.0</ele>
        <time>2014-06-30T13:36:36Z</time>
      </trkpt>
      <trkpt lat="40.644050" lon="-4.888483">
        <ele>2732.0</ele>
        <time>2014-06-30T13:36:37Z</time>
      </trkpt>
      <trkpt lat="40.644117" lon="-4.888333">
        <ele>2730.0</ele>
        <time>2014-06-30T13:36:38Z</time>
      </trkpt>
      <trkpt lat="40.644183" lon="-4.888200">
        <ele>2728.0</ele>
        <time>2014-06-30T13:36:39Z</time>
      </trkpt>
      <trkpt lat="40.644250" lon="-4.888050">
        <ele>2726.0</ele>
        <time>2014-06-30T13:36:40Z</time>
      </trkpt>
      <trkpt lat="40.644333" lon="-4.887867">
        <ele>2723.0</ele>
        <time>2014-06-30T13:36:41Z</time>
      </trkpt>
      <trkpt lat="40.644417" lon="-4.887667">
        <ele>2720.0</ele>
        <time>2014-06-30T13:36:42Z</time>
      </trkpt>
      <trkpt lat="40.644483" lon="-4.887467">
        <ele>2718.0</ele>
        <time>2014-06-30T13:36:43Z</time>
      </trkpt>
      <trkpt lat="40.644533" lon="-4.887300">
        <ele>2719.0</ele>
        <time>2014-06-30T13:36:44Z</time>
      </trkpt>
      <trkpt lat="40.644600" lon="-4.887150">
        <ele>2718.0</ele>
        <time>2014-06-30T13:36:45Z</time>
      </trkpt>
      <trkpt lat="40.644650" lon="-4.887017">
        <ele>2716.0</ele>
        <time>2014-06-30T13:36:46Z</time>
      </trkpt>
      <trkpt lat="40.644717" lon="-4.886867">
        <ele>2715.0</ele>
        <time>2014-06-30T13:36:47Z</time>
      </trkpt>
      <trkpt lat="40.644767" lon="-4.886733">
        <ele>2713.0</ele>
        <time>2014-06-30T13:36:48Z</time>
      </trkpt>
      <trkpt lat="40.644833" lon="-4.886583">
        <ele>2711.0</ele>
        <time>2014-06-30T13:36:49Z</time>
      </trkpt>
      <trkpt lat="40.644883" lon="-4.886433">
        <ele>2709.0</ele>
        <time>2014-06-30T13:36:50Z</time>
      </trkpt>
      <trkpt lat="40.644950" lon="-4.886283">
        <ele>2707.0</ele>
        <time>2014-06-30T13:36:51Z</time>
      </trkpt>
      <trkpt lat="40.645000" lon="-4.886133">
        <ele>2705.0</ele>
        <time>2014-06-30T13:36:52Z</time>
      </trkpt>
      <trkpt lat="40.645067" lon="-4.885983">
        <ele>2703.0</ele>
        <time>2014-06-30T13:36:53Z</time>
      </trkpt>
      <trkpt lat="40.645133" lon="-4.885833">
        <ele>2701.0</ele>
        <time>2014-06-30T13:36:54Z</time>
      </trkpt>
      <trkpt lat="40.645217" lon="-4.885683">
        <ele>2701.0</ele>
        <time>2014-06-30T13:36:55Z</time>
      </trkpt>
      <trkpt lat="40.645317" lon="-4.885533">
        <ele>2700.0</ele>
        <time>2014-06-30T13:36:56Z</time>
      </trkpt>
      <trkpt lat="40.645400" lon="-4.885383">
        <ele>2699.0</ele>
        <time>2014-06-30T13:36:57Z</time>
      </trkpt>
      <trkpt lat="40.645500" lon="-4.885233">
        <ele>2699.0</ele>
        <time>2014-06-30T13:36:58Z</time>
      </trkpt>
      <trkpt lat="40.645583" lon="-4.885100">
        <ele>2699.0</ele>
        <time>2014-06-30T13:36:59Z</time>
      </trkpt>
      <trkpt lat="40.645650" lon="-4.884967">
        <ele>2699.0</ele>
        <time>2014-06-30T13:37:00Z</time>
      </trkpt>
      <trkpt lat="40.645717" lon="-4.884817">
        <ele>2698.0</ele>
        <time>2014-06-30T13:37:01Z</time>
      </trkpt>
      <trkpt lat="40.645783" lon="-4.884667">
        <ele>2696.0</ele>
        <time>2014-06-30T13:37:02Z</time>
      </trkpt>
      <trkpt lat="40.645833" lon="-4.884500">
        <ele>2695.0</ele>
        <time>2014-06-30T13:37:03Z</time>
      </trkpt>
      <trkpt lat="40.645900" lon="-4.884333">
        <ele>2694.0</ele>
        <time>2014-06-30T13:37:04Z</time>
      </trkpt>
      <trkpt lat="40.645950" lon="-4.884167">
        <ele>2692.0</ele>
        <time>2014-06-30T13:37:05Z</time>
      </trkpt>
      <trkpt lat="40.646017" lon="-4.883967">
        <ele>2691.0</ele>
        <time>2014-06-30T13:37:06Z</time>
      </trkpt>
      <trkpt lat="40.646083" lon="-4.883783">
        <ele>2690.0</ele>
        <time>2014-06-30T13:37:07Z</time>
      </trkpt>
      <trkpt lat="40.646150" lon="-4.883617">
        <ele>2690.0</ele>
        <time>2014-06-30T13:37:08Z</time>
      </trkpt>
      <trkpt lat="40.646200" lon="-4.883433">
        <ele>2690.0</ele>
        <time>2014-06-30T13:37:09Z</time>
      </trkpt>
      <trkpt lat="40.646250" lon="-4.883267">
        <ele>2689.0</ele>
        <time>2014-06-30T13:37:10Z</time>
      </trkpt>
      <trkpt lat="40.646317" lon="-4.883117">
        <ele>2689.0</ele>
        <time>2014-06-30T13:37:11Z</time>
      </trkpt>
      <trkpt lat="40.646367" lon="-4.882950">
        <ele>2687.0</ele>
        <time>2014-06-30T13:37:12Z</time>
      </trkpt>
      <trkpt lat="40.646433" lon="-4.882767">
        <ele>2685.0</ele>
        <time>2014-06-30T13:37:13Z</time>
      </trkpt>
      <trkpt lat="40.646483" lon="-4.882583">
        <ele>2684.0</ele>
        <time>2014-06-30T13:37:14Z</time>
      </trkpt>
      <trkpt lat="40.646550" lon="-4.882417">
        <ele>2684.0</ele>
        <time>2014-06-30T13:37:15Z</time>
      </trkpt>
      <trkpt lat="40.646600" lon="-4.882267">
        <ele>2683.0</ele>
        <time>2014-06-30T13:37:16Z</time>
      </trkpt>
      <trkpt lat="40.646667" lon="-4.882117">
        <ele>2682.0</ele>
        <time>2014-06-30T13:37:17Z</time>
      </trkpt>
      <trkpt lat="40.646733" lon="-4.881967">
        <ele>2681.0</ele>
        <time>2014-06-30T13:37:18Z</time>
      </trkpt>
      <trkpt lat="40.646800" lon="-4.881800">
        <ele>2680.0</ele>
        <time>2014-06-30T13:37:19Z</time>
      </trkpt>
      <trkpt lat="40.646867" lon="-4.881650">
        <ele>2678.0</ele>
        <time>2014-06-30T13:37:20Z</time>
      </trkpt>
      <trkpt lat="40.646933" lon="-4.881500">
        <ele>2678.0</ele>
        <time>2014-06-30T13:37:21Z</time>
      </trkpt>
      <trkpt lat="40.647000" lon="-4.881350">
        <ele>2677.0</ele>
        <time>2014-06-30T13:37:22Z</time>
      </trkpt>
      <trkpt lat="40.647067" lon="-4.881217">
        <ele>2677.0</ele>
        <time>2014-06-30T13:37:23Z</time>
      </trkpt>
      <trkpt lat="40.647150" lon="-4.881100">
        <ele>2676.0</ele>
        <time>2014-06-30T13:37:24Z</time>
      </trkpt>
      <trkpt lat="40.647233" lon="-4.880967">
        <ele>2676.0</ele>
        <time>2014-06-30T13:37:25Z</time>
      </trkpt>
      <trkpt lat="40.647317" lon="-4.880833">
        <ele>2675.0</ele>
        <time>2014-06-30T13:37:26Z</time>
      </trkpt>
      <trkpt lat="40.647400" lon="-4.880700">
        <ele>2674.0</ele>
        <time>2014-06-30T13:37:27Z</time>
      </trkpt>
      <trkpt lat="40.647500" lon="-4.880583">
        <ele>2673.0</ele>
        <time>2014-06-30T13:37:28Z</time>
      </trkpt>
      <trkpt lat="40.647583" lon="-4.880467">
        <ele>2672.0</ele>
        <time>2014-06-30T13:37:29Z</time>
      </trkpt>
      <trkpt lat="40.647667" lon="-4.880333">
        <ele>2670.0</ele>
        <time>2014-06-30T13:37:30Z</time>
      </trkpt>
      <trkpt lat="40.647733" lon="-4.880183">
        <ele>2667.0</ele>
        <time>2014-06-30T13:37:31Z</time>
      </trkpt>
      <trkpt lat="40.647817" lon="-4.880050">
        <ele>2665.0</ele>
        <time>2014-06-30T13:37:32Z</time>
      </trkpt>
      <trkpt lat="40.647883" lon="-4.879917">
        <ele>2664.0</ele>
        <time>2014-06-30T13:37:33Z</time>
      </trkpt>
      <trkpt lat="40.647967" lon="-4.879800">
        <ele>2663.0</ele>
        <time>2014-06-30T13:37:34Z</time>
      </trkpt>
      <trkpt lat="40.648050" lon="-4.879700">
        <ele>2661.0</ele>
        <time>2014-06-30T13:37:35Z</time>
      </trkpt>
      <trkpt lat="40.648117" lon="-4.879567">
        <ele>2659.0</ele>
        <time>2014-06-30T13:37:36Z</time>
      </trkpt>
      <trkpt lat="40.648200" lon="-4.879433">
        <ele>2657.0</ele>
        <time>2014-06-30T13:37:37Z</time>
      </trkpt>
      <trkpt lat="40.648267" lon="-4.879300">
        <ele>2656.0</ele>
        <time>2014-06-30T13:37:38Z</time>
      </trkpt>
      <trkpt lat="40.648333" lon="-4.879167">
        <ele>2653.0</ele>
        <time>2014-06-30T13:37:39Z</time>
      </trkpt>
      <trkpt lat="40.648400" lon="-4.879050">
        <ele>2651.0</ele>
        <time>2014-06-30T13:37:40Z</time>
      </trkpt>
      <trkpt lat="40.648467" lon="-4.878917">
        <ele>2649.0</ele>
        <time>2014-06-30T13:37:41Z</time>
      </trkpt>
      <trkpt lat="40.648550" lon="-4.878783">
        <ele>2646.0</ele>
        <time>2014-06-30T13:37:42Z</time>
      </trkpt>
      <trkpt lat="40.648633" lon="-4.878633">
        <ele>2643.0</ele>
        <time>2014-06-30T13:37:43Z</time>
      </trkpt>
      <trkpt lat="40.648700" lon="-4.878467">
        <ele>2639.0</ele>
        <time>2014-06-30T13:37:44Z</time>
      </trkpt>
      <trkpt lat="40.648783" lon="-4.878300">
        <ele>2637.0</ele>
        <time>2014-06-30T13:37:45Z</time>
      </trkpt>
      <trkpt lat="40.648817" lon="-4.878133">
        <ele>2633.0</ele>
        <time>2014-06-30T13:37:46Z</time>
      </trkpt>
      <trkpt lat="40.648850" lon="-4.877967">
        <ele>2630.0</ele>
        <time>2014-06-30T13:37:47Z</time>
      </trkpt>
      <trkpt lat="40.648917" lon="-4.877800">
        <ele>2628.0</ele>
        <time>2014-06-30T13:37:48Z</time>
      </trkpt>
      <trkpt lat="40.648967" lon="-4.877617">
        <ele>2625.0</ele>
        <time>2014-06-30T13:37:49Z</time>
      </trkpt>
      <trkpt lat="40.649017" lon="-4.877433">
        <ele>2621.0</ele>
        <time>2014-06-30T13:37:50Z</time>
      </trkpt>
      <trkpt lat="40.649050" lon="-4.877233">
        <ele>2618.0</ele>
        <time>2014-06-30T13:37:51Z</time>
      </trkpt>
      <trkpt lat="40.649083" lon="-4.877050">
        <ele>2616.0</ele>
        <time>2014-06-30T13:37:52Z</time>
      </trkpt>
      <trkpt lat="40.649133" lon="-4.876883">
        <ele>2615.0</ele>
        <time>2014-06-30T13:37:53Z</time>
      </trkpt>
      <trkpt lat="40.649167" lon="-4.876717">
        <ele>2614.0</ele>
        <time>2014-06-30T13:37:54Z</time>
      </trkpt>
      <trkpt lat="40.649200" lon="-4.876550">
        <ele>2615.0</ele>
        <time>2014-06-30T13:37:55Z</time>
      </trkpt>
      <trkpt lat="40.649217" lon="-4.876383">
        <ele>2617.0</ele>
        <time>2014-06-30T13:37:56Z</time>
      </trkpt>
      <trkpt lat="40.649233" lon="-4.876250">
        <ele>2620.0</ele>
        <time>2014-06-30T13:37:57Z</time>
      </trkpt>
      <trkpt lat="40.649250" lon="-4.876150">
        <ele>2620.0</ele>
        <time>2014-06-30T13:37:58Z</time>
      </trkpt>
      <trkpt lat="40.649267" lon="-4.876050">
        <ele>2620.0</ele>
        <time>2014-06-30T13:37:59Z</time>
      </trkpt>
      <trkpt lat="40.649317" lon="-4.875933">
        <ele>2620.0</ele>
        <time>2014-06-30T13:38:00Z</time>
      </trkpt>
      <trkpt lat="40.649383" lon="-4.875833">
        <ele>2621.0</ele>
        <time>2014-06-30T13:38:01Z</time>
      </trkpt>
      <trkpt lat="40.649450" lon="-4.875750">
        <ele>2622.0</ele>
        <time>2014-06-30T13:38:02Z</time>
      </trkpt>
      <trkpt lat="40.649500" lon="-4.875733">
        <ele>2624.0</ele>
        <time>2014-06-30T13:38:03Z</time>
      </trkpt>
      <trkpt lat="40.649533" lon="-4.875767">
        <ele>2626.0</ele>
        <time>2014-06-30T13:38:04Z</time>
      </trkpt>
      <trkpt lat="40.649533" lon="-4.875817">
        <ele>2627.0</ele>
        <time>2014-06-30T13:38:05Z</time>
      </trkpt>
      <trkpt lat="40.649533" lon="-4.875883">
        <ele>2629.0</ele>
        <time>2014-06-30T13:38:06Z</time>
      </trkpt>
      <trkpt lat="40.649533" lon="-4.875950">
        <ele>2630.0</ele>
        <time>2014-06-30T13:38:07Z</time>
      </trkpt>
      <trkpt lat="40.649500" lon="-4.875967">
        <ele>2632.0</ele>
        <time>2014-06-30T13:38:08Z</time>
      </trkpt>
      <trkpt lat="40.649450" lon="-4.876000">
        <ele>2634.0</ele>
        <time>2014-06-30T13:38:09Z</time>
      </trkpt>
      <trkpt lat="40.649400" lon="-4.876017">
        <ele>2635.0</ele>
        <time>2014-06-30T13:38:10Z</time>
      </trkpt>
      <trkpt lat="40.649350" lon="-4.876033">
        <ele>2634.0</ele>
        <time>2014-06-30T13:38:11Z</time>
      </trkpt>
      <trkpt lat="40.649267" lon="-4.876017">
        <ele>2635.0</ele>
        <time>2014-06-30T13:38:12Z</time>
      </trkpt>
      <trkpt lat="40.649183" lon="-4.875967">
        <ele>2635.0</ele>
        <time>2014-06-30T13:38:13Z</time>
      </trkpt>
      <trkpt lat="40.649100" lon="-4.875883">
        <ele>2636.0</ele>
        <time>2014-06-30T13:38:14Z</time>
      </trkpt>
      <trkpt lat="40.649017" lon="-4.875783">
        <ele>2638.0</ele>
        <time>2014-06-30T13:38:15Z</time>
      </trkpt>
      <trkpt lat="40.648950" lon="-4.875667">
        <ele>2641.0</ele>
        <time>2014-06-30T13:38:16Z</time>
      </trkpt>
      <trkpt lat="40.648900" lon="-4.875567">
        <ele>2643.0</ele>
        <time>2014-06-30T13:38:17Z</time>
      </trkpt>
      <trkpt lat="40.648833" lon="-4.875467">
        <ele>2646.0</ele>
        <time>2014-06-30T13:38:18Z</time>
      </trkpt>
      <trkpt lat="40.648783" lon="-4.875367">
        <ele>2648.0</ele>
        <time>2014-06-30T13:38:19Z</time>
      </trkpt>
      <trkpt lat="40.648733" lon="-4.875250">
        <ele>2649.0</ele>
        <time>2014-06-30T13:38:20Z</time>
      </trkpt>
      <trkpt lat="40.648683" lon="-4.875117">
        <ele>2650.0</ele>
        <time>2014-06-30T13:38:21Z</time>
      </trkpt>
      <trkpt lat="40.648667" lon="-4.874950">
        <ele>2652.0</ele>
        <time>2014-06-30T13:38:22Z</time>
      </trkpt>
      <trkpt lat="40.648650" lon="-4.874800">
        <ele>2654.0</ele>
        <time>2014-06-30T13:38:23Z</time>
      </trkpt>
      <trkpt lat="40.648650" lon="-4.874650">
        <ele>2656.0</ele>
        <time>2014-06-30T13:38:24Z</time>
      </trkpt>
      <trkpt lat="40.648650" lon="-4.874533">
        <ele>2658.0</ele>
        <time>2014-06-30T13:38:25Z</time>
      </trkpt>
      <trkpt lat="40.648683" lon="-4.874400">
        <ele>2659.0</ele>
        <time>2014-06-30T13:38:26Z</time>
      </trkpt>
      <trkpt lat="40.648717" lon="-4.874267">
        <ele>2660.0</ele>
        <time>2014-06-30T13:38:27Z</time>
      </trkpt>
      <trkpt lat="40.648783" lon="-4.874167">
        <ele>2660.0</ele>
        <time>2014-06-30T13:38:28Z</time>
      </trkpt>
      <trkpt lat="40.648833" lon="-4.874083">
        <ele>2660.0</ele>
        <time>2014-06-30T13:38:29Z</time>
      </trkpt>
      <trkpt lat="40.648900" lon="-4.874050">
        <ele>2661.0</ele>
        <time>2014-06-30T13:38:30Z</time>
      </trkpt>
      <trkpt lat="40.648967" lon="-4.874050">
        <ele>2662.0</ele>
        <time>2014-06-30T13:38:31Z</time>
      </trkpt>
      <trkpt lat="40.649000" lon="-4.874067">
        <ele>2664.0</ele>
        <time>2014-06-30T13:38:32Z</time>
      </trkpt>
      <trkpt lat="40.649033" lon="-4.874100">
        <ele>2662.0</ele>
        <time>2014-06-30T13:38:33Z</time>
      </trkpt>
      <trkpt lat="40.649050" lon="-4.874133">
        <ele>2662.0</ele>
        <time>2014-06-30T13:38:34Z</time>
      </trkpt>
      <trkpt lat="40.649050" lon="-4.874167">
        <ele>2662.0</ele>
        <time>2014-06-30T13:38:35Z</time>
      </trkpt>
      <trkpt lat="40.649033" lon="-4.874233">
        <ele>2663.0</ele>
        <time>2014-06-30T13:38:36Z</time>
      </trkpt>
      <trkpt lat="40.649000" lon="-4.874283">
        <ele>2663.0</ele>
        <time>2014-06-30T13:38:37Z</time>
      </trkpt>
      <trkpt lat="40.648967" lon="-4.874350">
        <ele>2663.0</ele>
        <time>2014-06-30T13:38:38Z</time>
      </trkpt>
      <trkpt lat="40.648917" lon="-4.874400">
        <ele>2664.0</ele>
        <time>2014-06-30T13:38:39Z</time>
      </trkpt>
      <trkpt lat="40.648867" lon="-4.874450">
        <ele>2664.0</ele>
        <time>2014-06-30T13:38:40Z</time>
      </trkpt>
      <trkpt lat="40.648817" lon="-4.874483">
        <ele>2665.0</ele>
        <time>2014-06-30T13:38:41Z</time>
      </trkpt>
      <trkpt lat="40.648750" lon="-4.874517">
        <ele>2665.0</ele>
        <time>2014-06-30T13:38:42Z</time>
      </trkpt>
      <trkpt lat="40.648683" lon="-4.874533">
        <ele>2665.0</ele>
        <time>2014-06-30T13:38:43Z</time>
      </trkpt>
      <trkpt lat="40.648600" lon="-4.874550">
        <ele>2666.0</ele>
        <time>2014-06-30T13:38:44Z</time>
      </trkpt>
      <trkpt lat="40.648550" lon="-4.874567">
        <ele>2667.0</ele>
        <time>2014-06-30T13:38:45Z</time>
      </trkpt>
      <trkpt lat="40.648483" lon="-4.874583">
        <ele>2667.0</ele>
        <time>2014-06-30T13:38:46Z</time>
      </trkpt>
      <trkpt lat="40.648417" lon="-4.874600">
        <ele>2667.0</ele>
        <time>2014-06-30T13:38:47Z</time>
      </trkpt>
      <trkpt lat="40.648333" lon="-4.874617">
        <ele>2667.0</ele>
        <time>2014-06-30T13:38:48Z</time>
      </trkpt>
      <trkpt lat="40.648267" lon="-4.874600">
        <ele>2667.0</ele>
        <time>2014-06-30T13:38:49Z</time>
      </trkpt>
      <trkpt lat="40.648183" lon="-4.874567">
        <ele>2668.0</ele>
        <time>2014-06-30T13:38:50Z</time>
      </trkpt>
      <trkpt lat="40.648117" lon="-4.874533">
        <ele>2668.0</ele>
        <time>2014-06-30T13:38:51Z</time>
      </trkpt>
      <trkpt lat="40.648033" lon="-4.874467">
        <ele>2668.0</ele>
        <time>2014-06-30T13:38:52Z</time>
      </trkpt>
      <trkpt lat="40.647967" lon="-4.874400">
        <ele>2668.0</ele>
        <time>2014-06-30T13:38:53Z</time>
      </trkpt>
      <trkpt lat="40.647883" lon="-4.874300">
        <ele>2666.0</ele>
        <time>2014-06-30T13:38:54Z</time>
      </trkpt>
      <trkpt lat="40.647833" lon="-4.874200">
        <ele>2665.0</ele>
        <time>2014-06-30T13:38:55Z</time>
      </trkpt>
      <trkpt lat="40.647767" lon="-4.874083">
        <ele>2664.0</ele>
        <time>2014-06-30T13:38:56Z</time>
      </trkpt>
      <trkpt lat="40.647733" lon="-4.873950">
        <ele>2662.0</ele>
        <time>2014-06-30T13:38:57Z</time>
      </trkpt>
      <trkpt lat="40.647683" lon="-4.873817">
        <ele>2661.0</ele>
        <time>2014-06-30T13:38:58Z</time>
      </trkpt>
      <trkpt lat="40.647650" lon="-4.873667">
        <ele>2659.0</ele>
        <time>2014-06-30T13:38:59Z</time>
      </trkpt>
      <trkpt lat="40.647617" lon="-4.873533">
        <ele>2658.0</ele>
        <time>2014-06-30T13:39:00Z</time>
      </trkpt>
      <trkpt lat="40.647600" lon="-4.873383">
        <ele>2657.0</ele>
        <time>2014-06-30T13:39:01Z</time>
      </trkpt>
      <trkpt lat="40.647583" lon="-4.873217">
        <ele>2657.0</ele>
        <time>2014-06-30T13:39:02Z</time>
      </trkpt>
      <trkpt lat="40.647567" lon="-4.873033">
        <ele>2657.0</ele>
        <time>2014-06-30T13:39:03Z</time>
      </trkpt>
      <trkpt lat="40.647567" lon="-4.872883">
        <ele>2659.0</ele>
        <time>2014-06-30T13:39:04Z</time>
      </trkpt>
      <trkpt lat="40.647567" lon="-4.872733">
        <ele>2659.0</ele>
        <time>2014-06-30T13:39:05Z</time>
      </trkpt>
      <trkpt lat="40.647550" lon="-4.872583">
        <ele>2660.0</ele>
        <time>2014-06-30T13:39:06Z</time>
      </trkpt>
      <trkpt lat="40.647550" lon="-4.872450">
        <ele>2660.0</ele>
        <time>2014-06-30T13:39:07Z</time>
      </trkpt>
      <trkpt lat="40.647550" lon="-4.872333">
        <ele>2661.0</ele>
        <time>2014-06-30T13:39:08Z</time>
      </trkpt>
      <trkpt lat="40.647567" lon="-4.872217">
        <ele>2662.0</ele>
        <time>2014-06-30T13:39:09Z</time>
      </trkpt>
      <trkpt lat="40.647567" lon="-4.872100">
        <ele>2662.0</ele>
        <time>2014-06-30T13:39:10Z</time>
      </trkpt>
      <trkpt lat="40.647583" lon="-4.871983">
        <ele>2661.0</ele>
        <time>2014-06-30T13:39:11Z</time>
      </trkpt>
      <trkpt lat="40.647600" lon="-4.871867">
        <ele>2660.0</ele>
        <time>2014-06-30T13:39:12Z</time>
      </trkpt>
      <trkpt lat="40.647633" lon="-4.871733">
        <ele>2659.0</ele>
        <time>2014-06-30T13:39:13Z</time>
      </trkpt>
      <trkpt lat="40.647683" lon="-4.871617">
        <ele>2658.0</ele>
        <time>2014-06-30T13:39:14Z</time>
      </trkpt>
      <trkpt lat="40.647750" lon="-4.871517">
        <ele>2657.0</ele>
        <time>2014-06-30T13:39:15Z</time>
      </trkpt>
      <trkpt lat="40.647817" lon="-4.871483">
        <ele>2656.0</ele>
        <time>2014-06-30T13:39:16Z</time>
      </trkpt>
      <trkpt lat="40.647900" lon="-4.871483">
        <ele>2656.0</ele>
        <time>2014-06-30T13:39:17Z</time>
      </trkpt>
      <trkpt lat="40.647983" lon="-4.871467">
        <ele>2657.0</ele>
        <time>2014-06-30T13:39:18Z</time>
      </trkpt>
      <trkpt lat="40.648067" lon="-4.871467">
        <ele>2657.0</ele>
        <time>2014-06-30T13:39:19Z</time>
      </trkpt>
      <trkpt lat="40.648167" lon="-4.871467">
        <ele>2657.0</ele>
        <time>2014-06-30T13:39:20Z</time>
      </trkpt>
      <trkpt lat="40.648267" lon="-4.871450">
        <ele>2657.0</ele>
        <time>2014-06-30T13:39:21Z</time>
      </trkpt>
      <trkpt lat="40.648350" lon="-4.871467">
        <ele>2656.0</ele>
        <time>2014-06-30T13:39:22Z</time>
      </trkpt>
      <trkpt lat="40.648433" lon="-4.871467">
        <ele>2657.0</ele>
        <time>2014-06-30T13:39:23Z</time>
      </trkpt>
      <trkpt lat="40.648517" lon="-4.871450">
        <ele>2659.0</ele>
        <time>2014-06-30T13:39:24Z</time>
      </trkpt>
      <trkpt lat="40.648583" lon="-4.871417">
        <ele>2662.0</ele>
        <time>2014-06-30T13:39:25Z</time>
      </trkpt>
      <trkpt lat="40.648617" lon="-4.871383">
        <ele>2664.0</ele>
        <time>2014-06-30T13:39:26Z</time>
      </trkpt>
      <trkpt lat="40.648650" lon="-4.871367">
        <ele>2666.0</ele>
        <time>2014-06-30T13:39:27Z</time>
      </trkpt>
      <trkpt lat="40.648683" lon="-4.871383">
        <ele>2666.0</ele>
        <time>2014-06-30T13:39:28Z</time>
      </trkpt>
      <trkpt lat="40.648717" lon="-4.871433">
        <ele>2663.0</ele>
        <time>2014-06-30T13:39:29Z</time>
      </trkpt>
      <trkpt lat="40.648767" lon="-4.871483">
        <ele>2664.0</ele>
        <time>2014-06-30T13:39:30Z</time>
      </trkpt>
      <trkpt lat="40.648817" lon="-4.871533">
        <ele>2666.0</ele>
        <time>2014-06-30T13:39:31Z</time>
      </trkpt>
      <trkpt lat="40.648867" lon="-4.871600">
        <ele>2666.0</ele>
        <time>2014-06-30T13:39:32Z</time>
      </trkpt>
      <trkpt lat="40.648883" lon="-4.871633">
        <ele>2667.0</ele>
        <time>2014-06-30T13:39:33Z</time>
      </trkpt>
      <trkpt lat="40.648883" lon="-4.871667">
        <ele>2668.0</ele>
        <time>2014-06-30T13:39:34Z</time>
      </trkpt>
      <trkpt lat="40.648867" lon="-4.871700">
        <ele>2669.0</ele>
        <time>2014-06-30T13:39:35Z</time>
      </trkpt>
      <trkpt lat="40.648833" lon="-4.871750">
        <ele>2668.0</ele>
        <time>2014-06-30T13:39:36Z</time>
      </trkpt>
      <trkpt lat="40.648800" lon="-4.871783">
        <ele>2668.0</ele>
        <time>2014-06-30T13:39:37Z</time>
      </trkpt>
      <trkpt lat="40.648733" lon="-4.871817">
        <ele>2669.0</ele>
        <time>2014-06-30T13:39:38Z</time>
      </trkpt>
      <trkpt lat="40.648667" lon="-4.871817">
        <ele>2669.0</ele>
        <time>2014-06-30T13:39:39Z</time>
      </trkpt>
      <trkpt lat="40.648583" lon="-4.871783">
        <ele>2669.0</ele>
        <time>2014-06-30T13:39:40Z</time>
      </trkpt>
      <trkpt lat="40.648517" lon="-4.871750">
        <ele>2670.0</ele>
        <time>2014-06-30T13:39:41Z</time>
      </trkpt>
      <trkpt lat="40.648433" lon="-4.871717">
        <ele>2671.0</ele>
        <time>2014-06-30T13:39:42Z</time>
      </trkpt>
      <trkpt lat="40.648350" lon="-4.871650">
        <ele>2672.0</ele>
        <time>2014-06-30T13:39:43Z</time>
      </trkpt>
      <trkpt lat="40.648283" lon="-4.871583">
        <ele>2673.0</ele>
        <time>2014-06-30T13:39:44Z</time>
      </trkpt>
      <trkpt lat="40.648200" lon="-4.871500">
        <ele>2673.0</ele>
        <time>2014-06-30T13:39:45Z</time>
      </trkpt>
      <trkpt lat="40.648133" lon="-4.871383">
        <ele>2674.0</ele>
        <time>2014-06-30T13:39:46Z</time>
      </trkpt>
      <trkpt lat="40.648083" lon="-4.871267">
        <ele>2674.0</ele>
        <time>2014-06-30T13:39:47Z</time>
      </trkpt>
      <trkpt lat="40.648067" lon="-4.871117">
        <ele>2675.0</ele>
        <time>2014-06-30T13:39:48Z</time>
      </trkpt>
      <trkpt lat="40.648067" lon="-4.870967">
        <ele>2676.0</ele>
        <time>2014-06-30T13:39:49Z</time>
      </trkpt>
      <trkpt lat="40.648067" lon="-4.870833">
        <ele>2677.0</ele>
        <time>2014-06-30T13:39:50Z</time>
      </trkpt>
      <trkpt lat="40.648083" lon="-4.870700">
        <ele>2677.0</ele>
        <time>2014-06-30T13:39:51Z</time>
      </trkpt>
      <trkpt lat="40.648117" lon="-4.870567">
        <ele>2678.0</ele>
        <time>2014-06-30T13:39:52Z</time>
      </trkpt>
      <trkpt lat="40.648167" lon="-4.870450">
        <ele>2678.0</ele>
        <time>2014-06-30T13:39:53Z</time>
      </trkpt>
      <trkpt lat="40.648233" lon="-4.870367">
        <ele>2679.0</ele>
        <time>2014-06-30T13:39:54Z</time>
      </trkpt>
      <trkpt lat="40.648300" lon="-4.870300">
        <ele>2679.0</ele>
        <time>2014-06-30T13:39:55Z</time>
      </trkpt>
      <trkpt lat="40.648367" lon="-4.870250">
        <ele>2681.0</ele>
        <time>2014-06-30T13:39:56Z</time>
      </trkpt>
      <trkpt lat="40.648417" lon="-4.870217">
        <ele>2682.0</ele>
        <time>2014-06-30T13:39:57Z</time>
      </trkpt>
      <trkpt lat="40.648483" lon="-4.870183">
        <ele>2682.0</ele>
        <time>2014-06-30T13:39:58Z</time>
      </trkpt>
      <trkpt lat="40.648550" lon="-4.870167">
        <ele>2682.0</ele>
        <time>2014-06-30T13:39:59Z</time>
      </trkpt>
      <trkpt lat="40.648600" lon="-4.870183">
        <ele>2681.0</ele>
        <time>2014-06-30T13:40:00Z</time>
      </trkpt>
      <trkpt lat="40.648650" lon="-4.870217">
        <ele>2681.0</ele>
        <time>2014-06-30T13:40:01Z</time>
      </trkpt>
      <trkpt lat="40.648667" lon="-4.870250">
        <ele>2680.0</ele>
        <time>2014-06-30T13:40:02Z</time>
      </trkpt>
      <trkpt lat="40.648683" lon="-4.870300">
        <ele>2680.0</ele>
        <time>2014-06-30T13:40:03Z</time>
      </trkpt>
      <trkpt lat="40.648683" lon="-4.870350">
        <ele>2681.0</ele>
        <time>2014-06-30T13:40:04Z</time>
      </trkpt>
      <trkpt lat="40.648667" lon="-4.870400">
        <ele>2681.0</ele>
        <time>2014-06-30T13:40:05Z</time>
      </trkpt>
      <trkpt lat="40.648650" lon="-4.870433">
        <ele>2681.0</ele>
        <time>2014-06-30T13:40:06Z</time>
      </trkpt>
      <trkpt lat="40.648650" lon="-4.870467">
        <ele>2681.0</ele>
        <time>2014-06-30T13:40:07Z</time>
      </trkpt>
      <trkpt lat="40.648617" lon="-4.870517">
        <ele>2681.0</ele>
        <time>2014-06-30T13:40:08Z</time>
      </trkpt>
      <trkpt lat="40.648583" lon="-4.870550">
        <ele>2681.0</ele>
        <time>2014-06-30T13:40:09Z</time>
      </trkpt>
      <trkpt lat="40.648517" lon="-4.870567">
        <ele>2681.0</ele>
        <time>2014-06-30T13:40:10Z</time>
      </trkpt>
      <trkpt lat="40.648433" lon="-4.870567">
        <ele>2681.0</ele>
        <time>2014-06-30T13:40:11Z</time>
      </trkpt>
      <trkpt lat="40.648350" lon="-4.870550">
        <ele>2681.0</ele>
        <time>2014-06-30T13:40:12Z</time>
      </trkpt>
      <trkpt lat="40.648267" lon="-4.870517">
        <ele>2681.0</ele>
        <time>2014-06-30T13:40:13Z</time>
      </trkpt>
      <trkpt lat="40.648200" lon="-4.870483">
        <ele>2682.0</ele>
        <time>2014-06-30T13:40:14Z</time>
      </trkpt>
      <trkpt lat="40.648133" lon="-4.870433">
        <ele>2683.0</ele>
        <time>2014-06-30T13:40:15Z</time>
      </trkpt>
      <trkpt lat="40.648067" lon="-4.870383">
        <ele>2683.0</ele>
        <time>2014-06-30T13:40:16Z</time>
      </trkpt>
      <trkpt lat="40.648000" lon="-4.870317">
        <ele>2683.0</ele>
        <time>2014-06-30T13:40:17Z</time>
      </trkpt>
      <trkpt lat="40.647917" lon="-4.870233">
        <ele>2684.0</ele>
        <time>2014-06-30T13:40:18Z</time>
      </trkpt>
      <trkpt lat="40.647867" lon="-4.870133">
        <ele>2684.0</ele>
        <time>2014-06-30T13:40:19Z</time>
      </trkpt>
      <trkpt lat="40.647817" lon="-4.870000">
        <ele>2685.0</ele>
        <time>2014-06-30T13:40:20Z</time>
      </trkpt>
      <trkpt lat="40.647800" lon="-4.869867">
        <ele>2686.0</ele>
        <time>2014-06-30T13:40:21Z</time>
      </trkpt>
      <trkpt lat="40.647783" lon="-4.869750">
        <ele>2687.0</ele>
        <time>2014-06-30T13:40:22Z</time>
      </trkpt>
      <trkpt lat="40.647767" lon="-4.869600">
        <ele>2687.0</ele>
        <time>2014-06-30T13:40:23Z</time>
      </trkpt>
      <trkpt lat="40.647783" lon="-4.869467">
        <ele>2687.0</ele>
        <time>2014-06-30T13:40:24Z</time>
      </trkpt>
      <trkpt lat="40.647800" lon="-4.869350">
        <ele>2688.0</ele>
        <time>2014-06-30T13:40:25Z</time>
      </trkpt>
      <trkpt lat="40.647817" lon="-4.869217">
        <ele>2687.0</ele>
        <time>2014-06-30T13:40:26Z</time>
      </trkpt>
      <trkpt lat="40.647850" lon="-4.869100">
        <ele>2687.0</ele>
        <time>2014-06-30T13:40:27Z</time>
      </trkpt>
      <trkpt lat="40.647867" lon="-4.868967">
        <ele>2687.0</ele>
        <time>2014-06-30T13:40:28Z</time>
      </trkpt>
      <trkpt lat="40.647900" lon="-4.868850">
        <ele>2687.0</ele>
        <time>2014-06-30T13:40:29Z</time>
      </trkpt>
      <trkpt lat="40.647950" lon="-4.868717">
        <ele>2688.0</ele>
        <time>2014-06-30T13:40:30Z</time>
      </trkpt>
      <trkpt lat="40.648000" lon="-4.868600">
        <ele>2688.0</ele>
        <time>2014-06-30T13:40:31Z</time>
      </trkpt>
      <trkpt lat="40.648050" lon="-4.868483">
        <ele>2689.0</ele>
        <time>2014-06-30T13:40:32Z</time>
      </trkpt>
      <trkpt lat="40.648117" lon="-4.868383">
        <ele>2689.0</ele>
        <time>2014-06-30T13:40:33Z</time>
      </trkpt>
      <trkpt lat="40.648183" lon="-4.868300">
        <ele>2690.0</ele>
        <time>2014-06-30T13:40:34Z</time>
      </trkpt>
      <trkpt lat="40.648250" lon="-4.868233">
        <ele>2689.0</ele>
        <time>2014-06-30T13:40:35Z</time>
      </trkpt>
      <trkpt lat="40.648333" lon="-4.868183">
        <ele>2689.0</ele>
        <time>2014-06-30T13:40:36Z</time>
      </trkpt>
      <trkpt lat="40.648400" lon="-4.868133">
        <ele>2689.0</ele>
        <time>2014-06-30T13:40:37Z</time>
      </trkpt>
      <trkpt lat="40.648483" lon="-4.868083">
        <ele>2689.0</ele>
        <time>2014-06-30T13:40:38Z</time>
      </trkpt>
      <trkpt lat="40.648550" lon="-4.868050">
        <ele>2689.0</ele>
        <time>2014-06-30T13:40:39Z</time>
      </trkpt>
      <trkpt lat="40.648617" lon="-4.868033">
        <ele>2689.0</ele>
        <time>2014-06-30T13:40:40Z</time>
      </trkpt>
      <trkpt lat="40.648683" lon="-4.868017">
        <ele>2689.0</ele>
        <time>2014-06-30T13:40:41Z</time>
      </trkpt>
      <trkpt lat="40.648750" lon="-4.868000">
        <ele>2690.0</ele>
        <time>2014-06-30T13:40:42Z</time>
      </trkpt>
      <trkpt lat="40.648800" lon="-4.867983">
        <ele>2691.0</ele>
        <time>2014-06-30T13:40:43Z</time>
      </trkpt>
      <trkpt lat="40.648850" lon="-4.867967">
        <ele>2691.0</ele>
        <time>2014-06-30T13:40:44Z</time>
      </trkpt>
      <trkpt lat="40.648900" lon="-4.867933">
        <ele>2690.0</ele>
        <time>2014-06-30T13:40:45Z</time>
      </trkpt>
      <trkpt lat="40.648933" lon="-4.867900">
        <ele>2690.0</ele>
        <time>2014-06-30T13:40:46Z</time>
      </trkpt>
      <trkpt lat="40.648967" lon="-4.867883">
        <ele>2691.0</ele>
        <time>2014-06-30T13:40:47Z</time>
      </trkpt>
      <trkpt lat="40.648967" lon="-4.867917">
        <ele>2691.0</ele>
        <time>2014-06-30T13:40:48Z</time>
      </trkpt>
      <trkpt lat="40.648967" lon="-4.867950">
        <ele>2691.0</ele>
        <time>2014-06-30T13:40:49Z</time>
      </trkpt>
      <trkpt lat="40.648933" lon="-4.868000">
        <ele>2691.0</ele>
        <time>2014-06-30T13:40:50Z</time>
      </trkpt>
      <trkpt lat="40.648883" lon="-4.868017">
        <ele>2691.0</ele>
        <time>2014-06-30T13:40:51Z</time>
      </trkpt>
      <trkpt lat="40.648833" lon="-4.868033">
        <ele>2691.0</ele>
        <time>2014-06-30T13:40:52Z</time>
      </trkpt>
      <trkpt lat="40.648750" lon="-4.868017">
        <ele>2691.0</ele>
        <time>2014-06-30T13:40:53Z</time>
      </trkpt>
      <trkpt lat="40.648683" lon="-4.868000">
        <ele>2691.0</ele>
        <time>2014-06-30T13:40:54Z</time>
      </trkpt>
      <trkpt lat="40.648600" lon="-4.868000">
        <ele>2691.0</ele>
        <time>2014-06-30T13:40:55Z</time>
      </trkpt>
      <trkpt lat="40.648517" lon="-4.867967">
        <ele>2691.0</ele>
        <time>2014-06-30T13:40:56Z</time>
      </trkpt>
      <trkpt lat="40.648417" lon="-4.867917">
        <ele>2690.0</ele>
        <time>2014-06-30T13:40:57Z</time>
      </trkpt>
      <trkpt lat="40.648333" lon="-4.867800">
        <ele>2689.0</ele>
        <time>2014-06-30T13:40:58Z</time>
      </trkpt>
      <trkpt lat="40.648267" lon="-4.867667">
        <ele>2688.0</ele>
        <time>2014-06-30T13:40:59Z</time>
      </trkpt>
      <trkpt lat="40.648233" lon="-4.867500">
        <ele>2687.0</ele>
        <time>2014-06-30T13:41:00Z</time>
      </trkpt>
      <trkpt lat="40.648217" lon="-4.867333">
        <ele>2687.0</ele>
        <time>2014-06-30T13:41:01Z</time>
      </trkpt>
      <trkpt lat="40.648200" lon="-4.867167">
        <ele>2686.0</ele>
        <time>2014-06-30T13:41:02Z</time>
      </trkpt>
      <trkpt lat="40.648167" lon="-4.867000">
        <ele>2685.0</ele>
        <time>2014-06-30T13:41:03Z</time>
      </trkpt>
      <trkpt lat="40.648133" lon="-4.866817">
        <ele>2684.0</ele>
        <time>2014-06-30T13:41:04Z</time>
      </trkpt>
      <trkpt lat="40.648100" lon="-4.866633">
        <ele>2684.0</ele>
        <time>2014-06-30T13:41:05Z</time>
      </trkpt>
      <trkpt lat="40.648067" lon="-4.866450">
        <ele>2685.0</ele>
        <time>2014-06-30T13:41:06Z</time>
      </trkpt>
      <trkpt lat="40.648067" lon="-4.866283">
        <ele>2686.0</ele>
        <time>2014-06-30T13:41:07Z</time>
      </trkpt>
      <trkpt lat="40.648067" lon="-4.866133">
        <ele>2686.0</ele>
        <time>2014-06-30T13:41:08Z</time>
      </trkpt>
      <trkpt lat="40.648067" lon="-4.866000">
        <ele>2687.0</ele>
        <time>2014-06-30T13:41:09Z</time>
      </trkpt>
      <trkpt lat="40.648067" lon="-4.865867">
        <ele>2688.0</ele>
        <time>2014-06-30T13:41:10Z</time>
      </trkpt>
      <trkpt lat="40.648067" lon="-4.865750">
        <ele>2688.0</ele>
        <time>2014-06-30T13:41:11Z</time>
      </trkpt>
      <trkpt lat="40.648083" lon="-4.865633">
        <ele>2687.0</ele>
        <time>2014-06-30T13:41:12Z</time>
      </trkpt>
      <trkpt lat="40.648100" lon="-4.865500">
        <ele>2686.0</ele>
        <time>2014-06-30T13:41:13Z</time>
      </trkpt>
      <trkpt lat="40.648133" lon="-4.865333">
        <ele>2685.0</ele>
        <time>2014-06-30T13:41:14Z</time>
      </trkpt>
      <trkpt lat="40.648200" lon="-4.865200">
        <ele>2685.0</ele>
        <time>2014-06-30T13:41:15Z</time>
      </trkpt>
      <trkpt lat="40.648267" lon="-4.865117">
        <ele>2685.0</ele>
        <time>2014-06-30T13:41:16Z</time>
      </trkpt>
      <trkpt lat="40.648350" lon="-4.865033">
        <ele>2685.0</ele>
        <time>2014-06-30T13:41:17Z</time>
      </trkpt>
      <trkpt lat="40.648433" lon="-4.865000">
        <ele>2685.0</ele>
        <time>2014-06-30T13:41:18Z</time>
      </trkpt>
      <trkpt lat="40.648517" lon="-4.864967">
        <ele>2685.0</ele>
        <time>2014-06-30T13:41:19Z</time>
      </trkpt>
      <trkpt lat="40.648583" lon="-4.864933">
        <ele>2685.0</ele>
        <time>2014-06-30T13:41:20Z</time>
      </trkpt>
      <trkpt lat="40.648650" lon="-4.864900">
        <ele>2684.0</ele>
        <time>2014-06-30T13:41:21Z</time>
      </trkpt>
      <trkpt lat="40.648717" lon="-4.864867">
        <ele>2684.0</ele>
        <time>2014-06-30T13:41:22Z</time>
      </trkpt>
      <trkpt lat="40.648800" lon="-4.864867">
        <ele>2682.0</ele>
        <time>2014-06-30T13:41:23Z</time>
      </trkpt>
      <trkpt lat="40.648867" lon="-4.864883">
        <ele>2681.0</ele>
        <time>2014-06-30T13:41:24Z</time>
      </trkpt>
      <trkpt lat="40.648950" lon="-4.864900">
        <ele>2680.0</ele>
        <time>2014-06-30T13:41:25Z</time>
      </trkpt>
      <trkpt lat="40.649017" lon="-4.864917">
        <ele>2679.0</ele>
        <time>2014-06-30T13:41:26Z</time>
      </trkpt>
      <trkpt lat="40.649083" lon="-4.864933">
        <ele>2681.0</ele>
        <time>2014-06-30T13:41:27Z</time>
      </trkpt>
      <trkpt lat="40.649167" lon="-4.864967">
        <ele>2680.0</ele>
        <time>2014-06-30T13:41:28Z</time>
      </trkpt>
      <trkpt lat="40.649267" lon="-4.865000">
        <ele>2680.0</ele>
        <time>2014-06-30T13:41:29Z</time>
      </trkpt>
      <trkpt lat="40.649350" lon="-4.865033">
        <ele>2679.0</ele>
        <time>2014-06-30T13:41:30Z</time>
      </trkpt>
      <trkpt lat="40.649433" lon="-4.865083">
        <ele>2679.0</ele>
        <time>2014-06-30T13:41:31Z</time>
      </trkpt>
      <trkpt lat="40.649517" lon="-4.865100">
        <ele>2679.0</ele>
        <time>2014-06-30T13:41:32Z</time>
      </trkpt>
      <trkpt lat="40.649583" lon="-4.865133">
        <ele>2679.0</ele>
        <time>2014-06-30T13:41:33Z</time>
      </trkpt>
      <trkpt lat="40.649633" lon="-4.865167">
        <ele>2679.0</ele>
        <time>2014-06-30T13:41:34Z</time>
      </trkpt>
      <trkpt lat="40.649700" lon="-4.865183">
        <ele>2679.0</ele>
        <time>2014-06-30T13:41:35Z</time>
      </trkpt>
      <trkpt lat="40.649783" lon="-4.865200">
        <ele>2679.0</ele>
        <time>2014-06-30T13:41:36Z</time>
      </trkpt>
      <trkpt lat="40.649850" lon="-4.865233">
        <ele>2679.0</ele>
        <time>2014-06-30T13:41:37Z</time>
      </trkpt>
      <trkpt lat="40.649900" lon="-4.865233">
        <ele>2679.0</ele>
        <time>2014-06-30T13:41:38Z</time>
      </trkpt>
      <trkpt lat="40.649983" lon="-4.865267">
        <ele>2681.0</ele>
        <time>2014-06-30T13:41:39Z</time>
      </trkpt>
      <trkpt lat="40.650033" lon="-4.865250">
        <ele>2683.0</ele>
        <time>2014-06-30T13:41:40Z</time>
      </trkpt>
      <trkpt lat="40.650067" lon="-4.865200">
        <ele>2685.0</ele>
        <time>2014-06-30T13:41:41Z</time>
      </trkpt>
      <trkpt lat="40.650100" lon="-4.865150">
        <ele>2687.0</ele>
        <time>2014-06-30T13:41:42Z</time>
      </trkpt>
      <trkpt lat="40.650117" lon="-4.865117">
        <ele>2688.0</ele>
        <time>2014-06-30T13:41:43Z</time>
      </trkpt>
      <trkpt lat="40.650150" lon="-4.865133">
        <ele>2689.0</ele>
        <time>2014-06-30T13:41:44Z</time>
      </trkpt>
      <trkpt lat="40.650133" lon="-4.865183">
        <ele>2691.0</ele>
        <time>2014-06-30T13:41:45Z</time>
      </trkpt>
      <trkpt lat="40.650067" lon="-4.865183">
        <ele>2692.0</ele>
        <time>2014-06-30T13:41:46Z</time>
      </trkpt>
      <trkpt lat="40.649983" lon="-4.865117">
        <ele>2694.0</ele>
        <time>2014-06-30T13:41:47Z</time>
      </trkpt>
      <trkpt lat="40.649900" lon="-4.864983">
        <ele>2694.0</ele>
        <time>2014-06-30T13:41:48Z</time>
      </trkpt>
      <trkpt lat="40.649850" lon="-4.864800">
        <ele>2694.0</ele>
        <time>2014-06-30T13:41:49Z</time>
      </trkpt>
      <trkpt lat="40.649850" lon="-4.864600">
        <ele>2695.0</ele>
        <time>2014-06-30T13:41:50Z</time>
      </trkpt>
      <trkpt lat="40.649867" lon="-4.864417">
        <ele>2696.0</ele>
        <time>2014-06-30T13:41:51Z</time>
      </trkpt>
      <trkpt lat="40.649933" lon="-4.864283">
        <ele>2697.0</ele>
        <time>2014-06-30T13:41:52Z</time>
      </trkpt>
      <trkpt lat="40.650000" lon="-4.864167">
        <ele>2698.0</ele>
        <time>2014-06-30T13:41:53Z</time>
      </trkpt>
      <trkpt lat="40.650067" lon="-4.864083">
        <ele>2700.0</ele>
        <time>2014-06-30T13:41:54Z</time>
      </trkpt>
      <trkpt lat="40.650133" lon="-4.864017">
        <ele>2702.0</ele>
        <time>2014-06-30T13:41:55Z</time>
      </trkpt>
      <trkpt lat="40.650217" lon="-4.863983">
        <ele>2699.0</ele>
        <time>2014-06-30T13:41:56Z</time>
      </trkpt>
      <trkpt lat="40.650283" lon="-4.863950">
        <ele>2700.0</ele>
        <time>2014-06-30T13:41:57Z</time>
      </trkpt>
      <trkpt lat="40.650333" lon="-4.863917">
        <ele>2701.0</ele>
        <time>2014-06-30T13:41:58Z</time>
      </trkpt>
      <trkpt lat="40.650400" lon="-4.863883">
        <ele>2702.0</ele>
        <time>2014-06-30T13:41:59Z</time>
      </trkpt>
      <trkpt lat="40.650467" lon="-4.863883">
        <ele>2703.0</ele>
        <time>2014-06-30T13:42:00Z</time>
      </trkpt>
      <trkpt lat="40.650533" lon="-4.863900">
        <ele>2703.0</ele>
        <time>2014-06-30T13:42:01Z</time>
      </trkpt>
      <trkpt lat="40.650567" lon="-4.863933">
        <ele>2703.0</ele>
        <time>2014-06-30T13:42:02Z</time>
      </trkpt>
      <trkpt lat="40.650533" lon="-4.864000">
        <ele>2703.0</ele>
        <time>2014-06-30T13:42:03Z</time>
      </trkpt>
      <trkpt lat="40.650483" lon="-4.864033">
        <ele>2704.0</ele>
        <time>2014-06-30T13:42:04Z</time>
      </trkpt>
      <trkpt lat="40.650400" lon="-4.864000">
        <ele>2705.0</ele>
        <time>2014-06-30T13:42:05Z</time>
      </trkpt>
      <trkpt lat="40.650333" lon="-4.863933">
        <ele>2706.0</ele>
        <time>2014-06-30T13:42:06Z</time>
      </trkpt>
      <trkpt lat="40.650267" lon="-4.863833">
        <ele>2707.0</ele>
        <time>2014-06-30T13:42:07Z</time>
      </trkpt>
      <trkpt lat="40.650183" lon="-4.863733">
        <ele>2709.0</ele>
        <time>2014-06-30T13:42:08Z</time>
      </trkpt>
      <trkpt lat="40.650117" lon="-4.863600">
        <ele>2711.0</ele>
        <time>2014-06-30T13:42:09Z</time>
      </trkpt>
      <trkpt lat="40.650050" lon="-4.863450">
        <ele>2712.0</ele>
        <time>2014-06-30T13:42:10Z</time>
      </trkpt>
      <trkpt lat="40.650033" lon="-4.863267">
        <ele>2713.0</ele>
        <time>2014-06-30T13:42:11Z</time>
      </trkpt>
      <trkpt lat="40.650033" lon="-4.863067">
        <ele>2714.0</ele>
        <time>2014-06-30T13:42:12Z</time>
      </trkpt>
      <trkpt lat="40.650083" lon="-4.862900">
        <ele>2715.0</ele>
        <time>2014-06-30T13:42:13Z</time>
      </trkpt>
      <trkpt lat="40.650150" lon="-4.862750">
        <ele>2717.0</ele>
        <time>2014-06-30T13:42:14Z</time>
      </trkpt>
      <trkpt lat="40.650233" lon="-4.862650">
        <ele>2719.0</ele>
        <time>2014-06-30T13:42:15Z</time>
      </trkpt>
      <trkpt lat="40.650317" lon="-4.862583">
        <ele>2720.0</ele>
        <time>2014-06-30T13:42:16Z</time>
      </trkpt>
      <trkpt lat="40.650383" lon="-4.862533">
        <ele>2720.0</ele>
        <time>2014-06-30T13:42:17Z</time>
      </trkpt>
      <trkpt lat="40.650450" lon="-4.862517">
        <ele>2720.0</ele>
        <time>2014-06-30T13:42:18Z</time>
      </trkpt>
      <trkpt lat="40.650517" lon="-4.862517">
        <ele>2720.0</ele>
        <time>2014-06-30T13:42:19Z</time>
      </trkpt>
      <trkpt lat="40.650567" lon="-4.862550">
        <ele>2720.0</ele>
        <time>2014-06-30T13:42:20Z</time>
      </trkpt>
      <trkpt lat="40.650617" lon="-4.862567">
        <ele>2719.0</ele>
        <time>2014-06-30T13:42:21Z</time>
      </trkpt>
      <trkpt lat="40.650667" lon="-4.862617">
        <ele>2720.0</ele>
        <time>2014-06-30T13:42:22Z</time>
      </trkpt>
      <trkpt lat="40.650700" lon="-4.862650">
        <ele>2721.0</ele>
        <time>2014-06-30T13:42:23Z</time>
      </trkpt>
      <trkpt lat="40.650717" lon="-4.862683">
        <ele>2721.0</ele>
        <time>2014-06-30T13:42:24Z</time>
      </trkpt>
      <trkpt lat="40.650700" lon="-4.862700">
        <ele>2721.0</ele>
        <time>2014-06-30T13:42:25Z</time>
      </trkpt>
      <trkpt lat="40.650650" lon="-4.862683">
        <ele>2721.0</ele>
        <time>2014-06-30T13:42:26Z</time>
      </trkpt>
      <trkpt lat="40.650583" lon="-4.862617">
        <ele>2721.0</ele>
        <time>2014-06-30T13:42:27Z</time>
      </trkpt>
      <trkpt lat="40.650517" lon="-4.862533">
        <ele>2721.0</ele>
        <time>2014-06-30T13:42:28Z</time>
      </trkpt>
      <trkpt lat="40.650450" lon="-4.862417">
        <ele>2722.0</ele>
        <time>2014-06-30T13:42:29Z</time>
      </trkpt>
      <trkpt lat="40.650383" lon="-4.862283">
        <ele>2722.0</ele>
        <time>2014-06-30T13:42:30Z</time>
      </trkpt>
      <trkpt lat="40.650317" lon="-4.862133">
        <ele>2723.0</ele>
        <time>2014-06-30T13:42:31Z</time>
      </trkpt>
      <trkpt lat="40.650233" lon="-4.861967">
        <ele>2727.0</ele>
        <time>2014-06-30T13:42:32Z</time>
      </trkpt>
      <trkpt lat="40.650200" lon="-4.861817">
        <ele>2730.0</ele>
        <time>2014-06-30T13:42:33Z</time>
      </trkpt>
      <trkpt lat="40.650183" lon="-4.861667">
        <ele>2732.0</ele>
        <time>2014-06-30T13:42:34Z</time>
      </trkpt>
      <trkpt lat="40.650167" lon="-4.861483">
        <ele>2733.0</ele>
        <time>2014-06-30T13:42:35Z</time>
      </trkpt>
      <trkpt lat="40.650167" lon="-4.861300">
        <ele>2734.0</ele>
        <time>2014-06-30T13:42:36Z</time>
      </trkpt>
      <trkpt lat="40.650183" lon="-4.861100">
        <ele>2735.0</ele>
        <time>2014-06-30T13:42:37Z</time>
      </trkpt>
      <trkpt lat="40.650183" lon="-4.860917">
        <ele>2736.0</ele>
        <time>2014-06-30T13:42:38Z</time>
      </trkpt>
      <trkpt lat="40.650217" lon="-4.860750">
        <ele>2738.0</ele>
        <time>2014-06-30T13:42:39Z</time>
      </trkpt>
      <trkpt lat="40.650250" lon="-4.860583">
        <ele>2739.0</ele>
        <time>2014-06-30T13:42:40Z</time>
      </trkpt>
      <trkpt lat="40.650300" lon="-4.860433">
        <ele>2740.0</ele>
        <time>2014-06-30T13:42:41Z</time>
      </trkpt>
      <trkpt lat="40.650350" lon="-4.860283">
        <ele>2741.0</ele>
        <time>2014-06-30T13:42:42Z</time>
      </trkpt>
      <trkpt lat="40.650400" lon="-4.860150">
        <ele>2740.0</ele>
        <time>2014-06-30T13:42:43Z</time>
      </trkpt>
      <trkpt lat="40.650467" lon="-4.860017">
        <ele>2739.0</ele>
        <time>2014-06-30T13:42:44Z</time>
      </trkpt>
      <trkpt lat="40.650567" lon="-4.859900">
        <ele>2738.0</ele>
        <time>2014-06-30T13:42:45Z</time>
      </trkpt>
      <trkpt lat="40.650683" lon="-4.859833">
        <ele>2734.0</ele>
        <time>2014-06-30T13:42:46Z</time>
      </trkpt>
      <trkpt lat="40.650783" lon="-4.859817">
        <ele>2731.0</ele>
        <time>2014-06-30T13:42:47Z</time>
      </trkpt>
      <trkpt lat="40.650833" lon="-4.859833">
        <ele>2732.0</ele>
        <time>2014-06-30T13:42:48Z</time>
      </trkpt>
      <trkpt lat="40.650867" lon="-4.859883">
        <ele>2732.0</ele>
        <time>2014-06-30T13:42:49Z</time>
      </trkpt>
      <trkpt lat="40.650833" lon="-4.859933">
        <ele>2731.0</ele>
        <time>2014-06-30T13:42:50Z</time>
      </trkpt>
      <trkpt lat="40.650783" lon="-4.859967">
        <ele>2730.0</ele>
        <time>2014-06-30T13:42:51Z</time>
      </trkpt>
      <trkpt lat="40.650700" lon="-4.859983">
        <ele>2729.0</ele>
        <time>2014-06-30T13:42:52Z</time>
      </trkpt>
      <trkpt lat="40.650617" lon="-4.859967">
        <ele>2725.0</ele>
        <time>2014-06-30T13:42:53Z</time>
      </trkpt>
      <trkpt lat="40.650550" lon="-4.859900">
        <ele>2722.0</ele>
        <time>2014-06-30T13:42:54Z</time>
      </trkpt>
      <trkpt lat="40.650500" lon="-4.859800">
        <ele>2719.0</ele>
        <time>2014-06-30T13:42:55Z</time>
      </trkpt>
      <trkpt lat="40.650467" lon="-4.859667">
        <ele>2717.0</ele>
        <time>2014-06-30T13:42:56Z</time>
      </trkpt>
      <trkpt lat="40.650450" lon="-4.859517">
        <ele>2713.0</ele>
        <time>2014-06-30T13:42:57Z</time>
      </trkpt>
      <trkpt lat="40.650417" lon="-4.859317">
        <ele>2709.0</ele>
        <time>2014-06-30T13:42:58Z</time>
      </trkpt>
      <trkpt lat="40.650400" lon="-4.859100">
        <ele>2705.0</ele>
        <time>2014-06-30T13:42:59Z</time>
      </trkpt>
      <trkpt lat="40.650400" lon="-4.858883">
        <ele>2702.0</ele>
        <time>2014-06-30T13:43:00Z</time>
      </trkpt>
      <trkpt lat="40.650400" lon="-4.858667">
        <ele>2699.0</ele>
        <time>2014-06-30T13:43:01Z</time>
      </trkpt>
      <trkpt lat="40.650433" lon="-4.858450">
        <ele>2697.0</ele>
        <time>2014-06-30T13:43:02Z</time>
      </trkpt>
      <trkpt lat="40.650467" lon="-4.858267">
        <ele>2696.0</ele>
        <time>2014-06-30T13:43:03Z</time>
      </trkpt>
      <trkpt lat="40.650517" lon="-4.858100">
        <ele>2694.0</ele>
        <time>2014-06-30T13:43:04Z</time>
      </trkpt>
      <trkpt lat="40.650533" lon="-4.857950">
        <ele>2691.0</ele>
        <time>2014-06-30T13:43:05Z</time>
      </trkpt>
      <trkpt lat="40.650567" lon="-4.857783">
        <ele>2685.0</ele>
        <time>2014-06-30T13:43:06Z</time>
      </trkpt>
      <trkpt lat="40.650583" lon="-4.857583">
        <ele>2680.0</ele>
        <time>2014-06-30T13:43:07Z</time>
      </trkpt>
      <trkpt lat="40.650617" lon="-4.857383">
        <ele>2675.0</ele>
        <time>2014-06-30T13:43:08Z</time>
      </trkpt>
      <trkpt lat="40.650667" lon="-4.857167">
        <ele>2671.0</ele>
        <time>2014-06-30T13:43:09Z</time>
      </trkpt>
      <trkpt lat="40.650750" lon="-4.856967">
        <ele>2668.0</ele>
        <time>2014-06-30T13:43:10Z</time>
      </trkpt>
      <trkpt lat="40.650850" lon="-4.856783">
        <ele>2665.0</ele>
        <time>2014-06-30T13:43:11Z</time>
      </trkpt>
      <trkpt lat="40.650933" lon="-4.856600">
        <ele>2662.0</ele>
        <time>2014-06-30T13:43:12Z</time>
      </trkpt>
      <trkpt lat="40.651017" lon="-4.856417">
        <ele>2659.0</ele>
        <time>2014-06-30T13:43:13Z</time>
      </trkpt>
      <trkpt lat="40.651117" lon="-4.856267">
        <ele>2656.0</ele>
        <time>2014-06-30T13:43:14Z</time>
      </trkpt>
      <trkpt lat="40.651233" lon="-4.856100">
        <ele>2653.0</ele>
        <time>2014-06-30T13:43:15Z</time>
      </trkpt>
      <trkpt lat="40.651350" lon="-4.855967">
        <ele>2650.0</ele>
        <time>2014-06-30T13:43:16Z</time>
      </trkpt>
      <trkpt lat="40.651467" lon="-4.855833">
        <ele>2647.0</ele>
        <time>2014-06-30T13:43:17Z</time>
      </trkpt>
      <trkpt lat="40.651583" lon="-4.855700">
        <ele>2643.0</ele>
        <time>2014-06-30T13:43:18Z</time>
      </trkpt>
      <trkpt lat="40.651683" lon="-4.855550">
        <ele>2640.0</ele>
        <time>2014-06-30T13:43:19Z</time>
      </trkpt>
      <trkpt lat="40.651800" lon="-4.855417">
        <ele>2637.0</ele>
        <time>2014-06-30T13:43:20Z</time>
      </trkpt>
      <trkpt lat="40.651917" lon="-4.855267">
        <ele>2633.0</ele>
        <time>2014-06-30T13:43:21Z</time>
      </trkpt>
      <trkpt lat="40.652033" lon="-4.855100">
        <ele>2630.0</ele>
        <time>2014-06-30T13:43:22Z</time>
      </trkpt>
      <trkpt lat="40.652133" lon="-4.854967">
        <ele>2628.0</ele>
        <time>2014-06-30T13:43:23Z</time>
      </trkpt>
      <trkpt lat="40.652250" lon="-4.854850">
        <ele>2624.0</ele>
        <time>2014-06-30T13:43:24Z</time>
      </trkpt>
      <trkpt lat="40.652350" lon="-4.854717">
        <ele>2619.0</ele>
        <time>2014-06-30T13:43:25Z</time>
      </trkpt>
      <trkpt lat="40.652483" lon="-4.854583">
        <ele>2613.0</ele>
        <time>2014-06-30T13:43:26Z</time>
      </trkpt>
      <trkpt lat="40.652617" lon="-4.854417">
        <ele>2605.0</ele>
        <time>2014-06-30T13:43:27Z</time>
      </trkpt>
      <trkpt lat="40.652767" lon="-4.854233">
        <ele>2600.0</ele>
        <time>2014-06-30T13:43:28Z</time>
      </trkpt>
      <trkpt lat="40.652867" lon="-4.854083">
        <ele>2597.0</ele>
        <time>2014-06-30T13:43:29Z</time>
      </trkpt>
      <trkpt lat="40.652983" lon="-4.853933">
        <ele>2595.0</ele>
        <time>2014-06-30T13:43:30Z</time>
      </trkpt>
      <trkpt lat="40.653083" lon="-4.853817">
        <ele>2592.0</ele>
        <time>2014-06-30T13:43:31Z</time>
      </trkpt>
      <trkpt lat="40.653183" lon="-4.853683">
        <ele>2589.0</ele>
        <time>2014-06-30T13:43:32Z</time>
      </trkpt>
      <trkpt lat="40.653283" lon="-4.853533">
        <ele>2586.0</ele>
        <time>2014-06-30T13:43:33Z</time>
      </trkpt>
      <trkpt lat="40.653367" lon="-4.853400">
        <ele>2582.0</ele>
        <time>2014-06-30T13:43:34Z</time>
      </trkpt>
      <trkpt lat="40.653483" lon="-4.853267">
        <ele>2580.0</ele>
        <time>2014-06-30T13:43:35Z</time>
      </trkpt>
      <trkpt lat="40.653600" lon="-4.853167">
        <ele>2577.0</ele>
        <time>2014-06-30T13:43:36Z</time>
      </trkpt>
      <trkpt lat="40.653717" lon="-4.853067">
        <ele>2575.0</ele>
        <time>2014-06-30T13:43:37Z</time>
      </trkpt>
      <trkpt lat="40.653833" lon="-4.852950">
        <ele>2573.0</ele>
        <time>2014-06-30T13:43:38Z</time>
      </trkpt>
      <trkpt lat="40.653933" lon="-4.852817">
        <ele>2571.0</ele>
        <time>2014-06-30T13:43:39Z</time>
      </trkpt>
      <trkpt lat="40.654033" lon="-4.852667">
        <ele>2572.0</ele>
        <time>2014-06-30T13:43:40Z</time>
      </trkpt>
      <trkpt lat="40.654150" lon="-4.852567">
        <ele>2571.0</ele>
        <time>2014-06-30T13:43:41Z</time>
      </trkpt>
      <trkpt lat="40.654250" lon="-4.852450">
        <ele>2569.0</ele>
        <time>2014-06-30T13:43:42Z</time>
      </trkpt>
      <trkpt lat="40.654350" lon="-4.852333">
        <ele>2569.0</ele>
        <time>2014-06-30T13:43:43Z</time>
      </trkpt>
      <trkpt lat="40.654433" lon="-4.852183">
        <ele>2567.0</ele>
        <time>2014-06-30T13:43:44Z</time>
      </trkpt>
      <trkpt lat="40.654533" lon="-4.852050">
        <ele>2566.0</ele>
        <time>2014-06-30T13:43:45Z</time>
      </trkpt>
      <trkpt lat="40.654617" lon="-4.851917">
        <ele>2565.0</ele>
        <time>2014-06-30T13:43:46Z</time>
      </trkpt>
      <trkpt lat="40.654733" lon="-4.851800">
        <ele>2564.0</ele>
        <time>2014-06-30T13:43:47Z</time>
      </trkpt>
      <trkpt lat="40.654833" lon="-4.851667">
        <ele>2564.0</ele>
        <time>2014-06-30T13:43:48Z</time>
      </trkpt>
      <trkpt lat="40.654917" lon="-4.851517">
        <ele>2563.0</ele>
        <time>2014-06-30T13:43:49Z</time>
      </trkpt>
      <trkpt lat="40.655017" lon="-4.851383">
        <ele>2563.0</ele>
        <time>2014-06-30T13:43:50Z</time>
      </trkpt>
      <trkpt lat="40.655117" lon="-4.851233">
        <ele>2562.0</ele>
        <time>2014-06-30T13:43:51Z</time>
      </trkpt>
      <trkpt lat="40.655217" lon="-4.851100">
        <ele>2562.0</ele>
        <time>2014-06-30T13:43:52Z</time>
      </trkpt>
      <trkpt lat="40.655317" lon="-4.850983">
        <ele>2562.0</ele>
        <time>2014-06-30T13:43:53Z</time>
      </trkpt>
      <trkpt lat="40.655400" lon="-4.850833">
        <ele>2561.0</ele>
        <time>2014-06-30T13:43:54Z</time>
      </trkpt>
      <trkpt lat="40.655483" lon="-4.850683">
        <ele>2560.0</ele>
        <time>2014-06-30T13:43:55Z</time>
      </trkpt>
      <trkpt lat="40.655567" lon="-4.850533">
        <ele>2559.0</ele>
        <time>2014-06-30T13:43:56Z</time>
      </trkpt>
      <trkpt lat="40.655667" lon="-4.850367">
        <ele>2558.0</ele>
        <time>2014-06-30T13:43:57Z</time>
      </trkpt>
      <trkpt lat="40.655767" lon="-4.850233">
        <ele>2559.0</ele>
        <time>2014-06-30T13:43:58Z</time>
      </trkpt>
      <trkpt lat="40.655850" lon="-4.850083">
        <ele>2559.0</ele>
        <time>2014-06-30T13:43:59Z</time>
      </trkpt>
      <trkpt lat="40.655933" lon="-4.849950">
        <ele>2558.0</ele>
        <time>2014-06-30T13:44:00Z</time>
      </trkpt>
      <trkpt lat="40.656033" lon="-4.849800">
        <ele>2558.0</ele>
        <time>2014-06-30T13:44:01Z</time>
      </trkpt>
      <trkpt lat="40.656117" lon="-4.849667">
        <ele>2557.0</ele>
        <time>2014-06-30T13:44:02Z</time>
      </trkpt>
      <trkpt lat="40.656233" lon="-4.849533">
        <ele>2557.0</ele>
        <time>2014-06-30T13:44:03Z</time>
      </trkpt>
      <trkpt lat="40.656333" lon="-4.849400">
        <ele>2556.0</ele>
        <time>2014-06-30T13:44:04Z</time>
      </trkpt>
      <trkpt lat="40.656417" lon="-4.849267">
        <ele>2556.0</ele>
        <time>2014-06-30T13:44:05Z</time>
      </trkpt>
      <trkpt lat="40.656517" lon="-4.849133">
        <ele>2556.0</ele>
        <time>2014-06-30T13:44:06Z</time>
      </trkpt>
      <trkpt lat="40.656600" lon="-4.849000">
        <ele>2555.0</ele>
        <time>2014-06-30T13:44:07Z</time>
      </trkpt>
      <trkpt lat="40.656700" lon="-4.848850">
        <ele>2554.0</ele>
        <time>2014-06-30T13:44:08Z</time>
      </trkpt>
      <trkpt lat="40.656800" lon="-4.848717">
        <ele>2553.0</ele>
        <time>2014-06-30T13:44:09Z</time>
      </trkpt>
      <trkpt lat="40.656917" lon="-4.848583">
        <ele>2552.0</ele>
        <time>2014-06-30T13:44:10Z</time>
      </trkpt>
      <trkpt lat="40.657000" lon="-4.848433">
        <ele>2551.0</ele>
        <time>2014-06-30T13:44:11Z</time>
      </trkpt>
      <trkpt lat="40.657100" lon="-4.848283">
        <ele>2550.0</ele>
        <time>2014-06-30T13:44:12Z</time>
      </trkpt>
      <trkpt lat="40.657183" lon="-4.848150">
        <ele>2549.0</ele>
        <time>2014-06-30T13:44:13Z</time>
      </trkpt>
      <trkpt lat="40.657283" lon="-4.848017">
        <ele>2549.0</ele>
        <time>2014-06-30T13:44:14Z</time>
      </trkpt>
      <trkpt lat="40.657383" lon="-4.847883">
        <ele>2547.0</ele>
        <time>2014-06-30T13:44:15Z</time>
      </trkpt>
      <trkpt lat="40.657467" lon="-4.847733">
        <ele>2546.0</ele>
        <time>2014-06-30T13:44:16Z</time>
      </trkpt>
      <trkpt lat="40.657567" lon="-4.847583">
        <ele>2545.0</ele>
        <time>2014-06-30T13:44:17Z</time>
      </trkpt>
      <trkpt lat="40.657667" lon="-4.847433">
        <ele>2544.0</ele>
        <time>2014-06-30T13:44:18Z</time>
      </trkpt>
      <trkpt lat="40.657767" lon="-4.847300">
        <ele>2544.0</ele>
        <time>2014-06-30T13:44:19Z</time>
      </trkpt>
      <trkpt lat="40.657883" lon="-4.847150">
        <ele>2544.0</ele>
        <time>2014-06-30T13:44:20Z</time>
      </trkpt>
      <trkpt lat="40.657983" lon="-4.847000">
        <ele>2544.0</ele>
        <time>2014-06-30T13:44:21Z</time>
      </trkpt>
      <trkpt lat="40.658100" lon="-4.846883">
        <ele>2544.0</ele>
        <time>2014-06-30T13:44:22Z</time>
      </trkpt>
      <trkpt lat="40.658200" lon="-4.846750">
        <ele>2544.0</ele>
        <time>2014-06-30T13:44:23Z</time>
      </trkpt>
      <trkpt lat="40.658283" lon="-4.846633">
        <ele>2544.0</ele>
        <time>2014-06-30T13:44:24Z</time>
      </trkpt>
      <trkpt lat="40.658383" lon="-4.846517">
        <ele>2544.0</ele>
        <time>2014-06-30T13:44:25Z</time>
      </trkpt>
      <trkpt lat="40.658467" lon="-4.846383">
        <ele>2544.0</ele>
        <time>2014-06-30T13:44:26Z</time>
      </trkpt>
      <trkpt lat="40.658567" lon="-4.846267">
        <ele>2544.0</ele>
        <time>2014-06-30T13:44:27Z</time>
      </trkpt>
      <trkpt lat="40.658650" lon="-4.846133">
        <ele>2544.0</ele>
        <time>2014-06-30T13:44:28Z</time>
      </trkpt>
      <trkpt lat="40.658767" lon="-4.846000">
        <ele>2544.0</ele>
        <time>2014-06-30T13:44:29Z</time>
      </trkpt>
      <trkpt lat="40.658867" lon="-4.845867">
        <ele>2544.0</ele>
        <time>2014-06-30T13:44:30Z</time>
      </trkpt>
      <trkpt lat="40.659000" lon="-4.845717">
        <ele>2546.0</ele>
        <time>2014-06-30T13:44:31Z</time>
      </trkpt>
      <trkpt lat="40.659083" lon="-4.845583">
        <ele>2548.0</ele>
        <time>2014-06-30T13:44:32Z</time>
      </trkpt>
      <trkpt lat="40.659183" lon="-4.845467">
        <ele>2549.0</ele>
        <time>2014-06-30T13:44:33Z</time>
      </trkpt>
      <trkpt lat="40.659267" lon="-4.845333">
        <ele>2549.0</ele>
        <time>2014-06-30T13:44:34Z</time>
      </trkpt>
      <trkpt lat="40.659350" lon="-4.845183">
        <ele>2548.0</ele>
        <time>2014-06-30T13:44:35Z</time>
      </trkpt>
      <trkpt lat="40.659450" lon="-4.845033">
        <ele>2548.0</ele>
        <time>2014-06-30T13:44:36Z</time>
      </trkpt>
      <trkpt lat="40.659533" lon="-4.844883">
        <ele>2548.0</ele>
        <time>2014-06-30T13:44:37Z</time>
      </trkpt>
      <trkpt lat="40.659617" lon="-4.844733">
        <ele>2549.0</ele>
        <time>2014-06-30T13:44:38Z</time>
      </trkpt>
      <trkpt lat="40.659700" lon="-4.844600">
        <ele>2550.0</ele>
        <time>2014-06-30T13:44:39Z</time>
      </trkpt>
      <trkpt lat="40.659783" lon="-4.844450">
        <ele>2551.0</ele>
        <time>2014-06-30T13:44:40Z</time>
      </trkpt>
      <trkpt lat="40.659850" lon="-4.844300">
        <ele>2552.0</ele>
        <time>2014-06-30T13:44:41Z</time>
      </trkpt>
      <trkpt lat="40.659917" lon="-4.844167">
        <ele>2553.0</ele>
        <time>2014-06-30T13:44:42Z</time>
      </trkpt>
      <trkpt lat="40.660000" lon="-4.844050">
        <ele>2553.0</ele>
        <time>2014-06-30T13:44:43Z</time>
      </trkpt>
      <trkpt lat="40.660067" lon="-4.843933">
        <ele>2554.0</ele>
        <time>2014-06-30T13:44:44Z</time>
      </trkpt>
      <trkpt lat="40.660150" lon="-4.843833">
        <ele>2554.0</ele>
        <time>2014-06-30T13:44:45Z</time>
      </trkpt>
      <trkpt lat="40.660250" lon="-4.843733">
        <ele>2555.0</ele>
        <time>2014-06-30T13:44:46Z</time>
      </trkpt>
      <trkpt lat="40.660333" lon="-4.843650">
        <ele>2555.0</ele>
        <time>2014-06-30T13:44:47Z</time>
      </trkpt>
      <trkpt lat="40.660433" lon="-4.843567">
        <ele>2556.0</ele>
        <time>2014-06-30T13:44:48Z</time>
      </trkpt>
      <trkpt lat="40.660533" lon="-4.843483">
        <ele>2556.0</ele>
        <time>2014-06-30T13:44:49Z</time>
      </trkpt>
      <trkpt lat="40.660617" lon="-4.843383">
        <ele>2555.0</ele>
        <time>2014-06-30T13:44:50Z</time>
      </trkpt>
      <trkpt lat="40.660733" lon="-4.843283">
        <ele>2554.0</ele>
        <time>2014-06-30T13:44:51Z</time>
      </trkpt>
      <trkpt lat="40.660850" lon="-4.843150">
        <ele>2552.0</ele>
        <time>2014-06-30T13:44:52Z</time>
      </trkpt>
      <trkpt lat="40.660967" lon="-4.843033">
        <ele>2551.0</ele>
        <time>2014-06-30T13:44:53Z</time>
      </trkpt>
      <trkpt lat="40.661067" lon="-4.842900">
        <ele>2553.0</ele>
        <time>2014-06-30T13:44:54Z</time>
      </trkpt>
      <trkpt lat="40.661150" lon="-4.842783">
        <ele>2554.0</ele>
        <time>2014-06-30T13:44:55Z</time>
      </trkpt>
      <trkpt lat="40.661233" lon="-4.842683">
        <ele>2554.0</ele>
        <time>2014-06-30T13:44:56Z</time>
      </trkpt>
      <trkpt lat="40.661300" lon="-4.842567">
        <ele>2553.0</ele>
        <time>2014-06-30T13:44:57Z</time>
      </trkpt>
      <trkpt lat="40.661383" lon="-4.842433">
        <ele>2553.0</ele>
        <time>2014-06-30T13:44:58Z</time>
      </trkpt>
      <trkpt lat="40.661467" lon="-4.842317">
        <ele>2552.0</ele>
        <time>2014-06-30T13:44:59Z</time>
      </trkpt>
      <trkpt lat="40.661567" lon="-4.842183">
        <ele>2551.0</ele>
        <time>2014-06-30T13:45:00Z</time>
      </trkpt>
      <trkpt lat="40.661683" lon="-4.842067">
        <ele>2549.0</ele>
        <time>2014-06-30T13:45:01Z</time>
      </trkpt>
      <trkpt lat="40.661767" lon="-4.841917">
        <ele>2548.0</ele>
        <time>2014-06-30T13:45:02Z</time>
      </trkpt>
      <trkpt lat="40.661833" lon="-4.841783">
        <ele>2547.0</ele>
        <time>2014-06-30T13:45:03Z</time>
      </trkpt>
      <trkpt lat="40.661883" lon="-4.841633">
        <ele>2547.0</ele>
        <time>2014-06-30T13:45:04Z</time>
      </trkpt>
      <trkpt lat="40.661950" lon="-4.841483">
        <ele>2546.0</ele>
        <time>2014-06-30T13:45:05Z</time>
      </trkpt>
      <trkpt lat="40.662033" lon="-4.841333">
        <ele>2545.0</ele>
        <time>2014-06-30T13:45:06Z</time>
      </trkpt>
      <trkpt lat="40.662133" lon="-4.841200">
        <ele>2544.0</ele>
        <time>2014-06-30T13:45:07Z</time>
      </trkpt>
      <trkpt lat="40.662217" lon="-4.841050">
        <ele>2544.0</ele>
        <time>2014-06-30T13:45:08Z</time>
      </trkpt>
      <trkpt lat="40.662283" lon="-4.840900">
        <ele>2544.0</ele>
        <time>2014-06-30T13:45:09Z</time>
      </trkpt>
      <trkpt lat="40.662367" lon="-4.840750">
        <ele>2544.0</ele>
        <time>2014-06-30T13:45:10Z</time>
      </trkpt>
      <trkpt lat="40.662467" lon="-4.840617">
        <ele>2544.0</ele>
        <time>2014-06-30T13:45:11Z</time>
      </trkpt>
      <trkpt lat="40.662583" lon="-4.840500">
        <ele>2543.0</ele>
        <time>2014-06-30T13:45:12Z</time>
      </trkpt>
      <trkpt lat="40.662667" lon="-4.840350">
        <ele>2543.0</ele>
        <time>2014-06-30T13:45:13Z</time>
      </trkpt>
      <trkpt lat="40.662750" lon="-4.840200">
        <ele>2543.0</ele>
        <time>2014-06-30T13:45:14Z</time>
      </trkpt>
      <trkpt lat="40.662817" lon="-4.840050">
        <ele>2543.0</ele>
        <time>2014-06-30T13:45:15Z</time>
      </trkpt>
      <trkpt lat="40.662883" lon="-4.839933">
        <ele>2544.0</ele>
        <time>2014-06-30T13:45:16Z</time>
      </trkpt>
      <trkpt lat="40.662967" lon="-4.839800">
        <ele>2544.0</ele>
        <time>2014-06-30T13:45:17Z</time>
      </trkpt>
      <trkpt lat="40.663033" lon="-4.839683">
        <ele>2544.0</ele>
        <time>2014-06-30T13:45:18Z</time>
      </trkpt>
      <trkpt lat="40.663117" lon="-4.839567">
        <ele>2543.0</ele>
        <time>2014-06-30T13:45:19Z</time>
      </trkpt>
      <trkpt lat="40.663200" lon="-4.839433">
        <ele>2543.0</ele>
        <time>2014-06-30T13:45:20Z</time>
      </trkpt>
      <trkpt lat="40.663283" lon="-4.839300">
        <ele>2543.0</ele>
        <time>2014-06-30T13:45:21Z</time>
      </trkpt>
      <trkpt lat="40.663383" lon="-4.839167">
        <ele>2542.0</ele>
        <time>2014-06-30T13:45:22Z</time>
      </trkpt>
      <trkpt lat="40.663483" lon="-4.839033">
        <ele>2542.0</ele>
        <time>2014-06-30T13:45:23Z</time>
      </trkpt>
      <trkpt lat="40.663567" lon="-4.838900">
        <ele>2541.0</ele>
        <time>2014-06-30T13:45:24Z</time>
      </trkpt>
      <trkpt lat="40.663650" lon="-4.838733">
        <ele>2540.0</ele>
        <time>2014-06-30T13:45:25Z</time>
      </trkpt>
      <trkpt lat="40.663750" lon="-4.838567">
        <ele>2540.0</ele>
        <time>2014-06-30T13:45:26Z</time>
      </trkpt>
      <trkpt lat="40.663833" lon="-4.838400">
        <ele>2540.0</ele>
        <time>2014-06-30T13:45:27Z</time>
      </trkpt>
      <trkpt lat="40.663933" lon="-4.838267">
        <ele>2541.0</ele>
        <time>2014-06-30T13:45:28Z</time>
      </trkpt>
      <trkpt lat="40.664033" lon="-4.838133">
        <ele>2541.0</ele>
        <time>2014-06-30T13:45:29Z</time>
      </trkpt>
      <trkpt lat="40.664133" lon="-4.838000">
        <ele>2542.0</ele>
        <time>2014-06-30T13:45:30Z</time>
      </trkpt>
      <trkpt lat="40.664217" lon="-4.837900">
        <ele>2543.0</ele>
        <time>2014-06-30T13:45:31Z</time>
      </trkpt>
      <trkpt lat="40.664300" lon="-4.837800">
        <ele>2543.0</ele>
        <time>2014-06-30T13:45:32Z</time>
      </trkpt>
      <trkpt lat="40.664400" lon="-4.837717">
        <ele>2543.0</ele>
        <time>2014-06-30T13:45:33Z</time>
      </trkpt>
      <trkpt lat="40.664517" lon="-4.837667">
        <ele>2543.0</ele>
        <time>2014-06-30T13:45:34Z</time>
      </trkpt>
      <trkpt lat="40.664633" lon="-4.837617">
        <ele>2543.0</ele>
        <time>2014-06-30T13:45:35Z</time>
      </trkpt>
      <trkpt lat="40.664767" lon="-4.837633">
        <ele>2543.0</ele>
        <time>2014-06-30T13:45:36Z</time>
      </trkpt>
      <trkpt lat="40.664867" lon="-4.837650">
        <ele>2543.0</ele>
        <time>2014-06-30T13:45:37Z</time>
      </trkpt>
      <trkpt lat="40.664950" lon="-4.837683">
        <ele>2544.0</ele>
        <time>2014-06-30T13:45:38Z</time>
      </trkpt>
      <trkpt lat="40.665033" lon="-4.837717">
        <ele>2544.0</ele>
        <time>2014-06-30T13:45:39Z</time>
      </trkpt>
      <trkpt lat="40.665100" lon="-4.837750">
        <ele>2542.0</ele>
        <time>2014-06-30T13:45:40Z</time>
      </trkpt>
      <trkpt lat="40.665167" lon="-4.837800">
        <ele>2542.0</ele>
        <time>2014-06-30T13:45:41Z</time>
      </trkpt>
      <trkpt lat="40.665200" lon="-4.837833">
        <ele>2542.0</ele>
        <time>2014-06-30T13:45:42Z</time>
      </trkpt>
      <trkpt lat="40.665200" lon="-4.837883">
        <ele>2542.0</ele>
        <time>2014-06-30T13:45:43Z</time>
      </trkpt>
      <trkpt lat="40.665183" lon="-4.837917">
        <ele>2543.0</ele>
        <time>2014-06-30T13:45:44Z</time>
      </trkpt>
      <trkpt lat="40.665150" lon="-4.837917">
        <ele>2543.0</ele>
        <time>2014-06-30T13:45:45Z</time>
      </trkpt>
      <trkpt lat="40.665100" lon="-4.837883">
        <ele>2542.0</ele>
        <time>2014-06-30T13:45:46Z</time>
      </trkpt>
      <trkpt lat="40.665067" lon="-4.837817">
        <ele>2543.0</ele>
        <time>2014-06-30T13:45:47Z</time>
      </trkpt>
      <trkpt lat="40.665050" lon="-4.837717">
        <ele>2542.0</ele>
        <time>2014-06-30T13:45:48Z</time>
      </trkpt>
      <trkpt lat="40.665050" lon="-4.837600">
        <ele>2542.0</ele>
        <time>2014-06-30T13:45:49Z</time>
      </trkpt>
      <trkpt lat="40.665067" lon="-4.837450">
        <ele>2542.0</ele>
        <time>2014-06-30T13:45:50Z</time>
      </trkpt>
      <trkpt lat="40.665100" lon="-4.837300">
        <ele>2542.0</ele>
        <time>2014-06-30T13:45:51Z</time>
      </trkpt>
      <trkpt lat="40.665150" lon="-4.837150">
        <ele>2542.0</ele>
        <time>2014-06-30T13:45:52Z</time>
      </trkpt>
      <trkpt lat="40.665200" lon="-4.837000">
        <ele>2541.0</ele>
        <time>2014-06-30T13:45:53Z</time>
      </trkpt>
      <trkpt lat="40.665250" lon="-4.836850">
        <ele>2541.0</ele>
        <time>2014-06-30T13:45:54Z</time>
      </trkpt>
      <trkpt lat="40.665317" lon="-4.836700">
        <ele>2541.0</ele>
        <time>2014-06-30T13:45:55Z</time>
      </trkpt>
      <trkpt lat="40.665367" lon="-4.836567">
        <ele>2541.0</ele>
        <time>2014-06-30T13:45:56Z</time>
      </trkpt>
      <trkpt lat="40.665433" lon="-4.836417">
        <ele>2541.0</ele>
        <time>2014-06-30T13:45:57Z</time>
      </trkpt>
      <trkpt lat="40.665517" lon="-4.836283">
        <ele>2541.0</ele>
        <time>2014-06-30T13:45:58Z</time>
      </trkpt>
      <trkpt lat="40.665600" lon="-4.836150">
        <ele>2541.0</ele>
        <time>2014-06-30T13:45:59Z</time>
      </trkpt>
      <trkpt lat="40.665683" lon="-4.836017">
        <ele>2540.0</ele>
        <time>2014-06-30T13:46:00Z</time>
      </trkpt>
      <trkpt lat="40.665767" lon="-4.835883">
        <ele>2540.0</ele>
        <time>2014-06-30T13:46:01Z</time>
      </trkpt>
      <trkpt lat="40.665867" lon="-4.835767">
        <ele>2539.0</ele>
        <time>2014-06-30T13:46:02Z</time>
      </trkpt>
      <trkpt lat="40.665950" lon="-4.835617">
        <ele>2539.0</ele>
        <time>2014-06-30T13:46:03Z</time>
      </trkpt>
      <trkpt lat="40.666050" lon="-4.835483">
        <ele>2538.0</ele>
        <time>2014-06-30T13:46:04Z</time>
      </trkpt>
      <trkpt lat="40.666150" lon="-4.835333">
        <ele>2538.0</ele>
        <time>2014-06-30T13:46:05Z</time>
      </trkpt>
      <trkpt lat="40.666233" lon="-4.835183">
        <ele>2538.0</ele>
        <time>2014-06-30T13:46:06Z</time>
      </trkpt>
      <trkpt lat="40.666317" lon="-4.835033">
        <ele>2539.0</ele>
        <time>2014-06-30T13:46:07Z</time>
      </trkpt>
      <trkpt lat="40.666400" lon="-4.834900">
        <ele>2539.0</ele>
        <time>2014-06-30T13:46:08Z</time>
      </trkpt>
      <trkpt lat="40.666500" lon="-4.834767">
        <ele>2540.0</ele>
        <time>2014-06-30T13:46:09Z</time>
      </trkpt>
      <trkpt lat="40.666583" lon="-4.834650">
        <ele>2541.0</ele>
        <time>2014-06-30T13:46:10Z</time>
      </trkpt>
      <trkpt lat="40.666667" lon="-4.834533">
        <ele>2542.0</ele>
        <time>2014-06-30T13:46:11Z</time>
      </trkpt>
      <trkpt lat="40.666750" lon="-4.834433">
        <ele>2543.0</ele>
        <time>2014-06-30T13:46:12Z</time>
      </trkpt>
      <trkpt lat="40.666833" lon="-4.834333">
        <ele>2543.0</ele>
        <time>2014-06-30T13:46:13Z</time>
      </trkpt>
      <trkpt lat="40.666950" lon="-4.834267">
        <ele>2544.0</ele>
        <time>2014-06-30T13:46:14Z</time>
      </trkpt>
      <trkpt lat="40.667067" lon="-4.834200">
        <ele>2544.0</ele>
        <time>2014-06-30T13:46:15Z</time>
      </trkpt>
      <trkpt lat="40.667183" lon="-4.834150">
        <ele>2545.0</ele>
        <time>2014-06-30T13:46:16Z</time>
      </trkpt>
      <trkpt lat="40.667283" lon="-4.834117">
        <ele>2546.0</ele>
        <time>2014-06-30T13:46:17Z</time>
      </trkpt>
      <trkpt lat="40.667367" lon="-4.834117">
        <ele>2546.0</ele>
        <time>2014-06-30T13:46:18Z</time>
      </trkpt>
      <trkpt lat="40.667467" lon="-4.834133">
        <ele>2545.0</ele>
        <time>2014-06-30T13:46:19Z</time>
      </trkpt>
      <trkpt lat="40.667550" lon="-4.834167">
        <ele>2543.0</ele>
        <time>2014-06-30T13:46:20Z</time>
      </trkpt>
      <trkpt lat="40.667633" lon="-4.834217">
        <ele>2543.0</ele>
        <time>2014-06-30T13:46:21Z</time>
      </trkpt>
      <trkpt lat="40.667683" lon="-4.834267">
        <ele>2543.0</ele>
        <time>2014-06-30T13:46:22Z</time>
      </trkpt>
      <trkpt lat="40.667700" lon="-4.834317">
        <ele>2543.0</ele>
        <time>2014-06-30T13:46:23Z</time>
      </trkpt>
      <trkpt lat="40.667683" lon="-4.834350">
        <ele>2543.0</ele>
        <time>2014-06-30T13:46:24Z</time>
      </trkpt>
      <trkpt lat="40.667650" lon="-4.834350">
        <ele>2543.0</ele>
        <time>2014-06-30T13:46:25Z</time>
      </trkpt>
      <trkpt lat="40.667600" lon="-4.834333">
        <ele>2543.0</ele>
        <time>2014-06-30T13:46:26Z</time>
      </trkpt>
      <trkpt lat="40.667567" lon="-4.834267">
        <ele>2544.0</ele>
        <time>2014-06-30T13:46:27Z</time>
      </trkpt>
      <trkpt lat="40.667533" lon="-4.834167">
        <ele>2544.0</ele>
        <time>2014-06-30T13:46:28Z</time>
      </trkpt>
      <trkpt lat="40.667533" lon="-4.834033">
        <ele>2544.0</ele>
        <time>2014-06-30T13:46:29Z</time>
      </trkpt>
      <trkpt lat="40.667533" lon="-4.833867">
        <ele>2543.0</ele>
        <time>2014-06-30T13:46:30Z</time>
      </trkpt>
      <trkpt lat="40.667567" lon="-4.833700">
        <ele>2543.0</ele>
        <time>2014-06-30T13:46:31Z</time>
      </trkpt>
      <trkpt lat="40.667600" lon="-4.833533">
        <ele>2544.0</ele>
        <time>2014-06-30T13:46:32Z</time>
      </trkpt>
      <trkpt lat="40.667633" lon="-4.833383">
        <ele>2544.0</ele>
        <time>2014-06-30T13:46:33Z</time>
      </trkpt>
      <trkpt lat="40.667700" lon="-4.833217">
        <ele>2545.0</ele>
        <time>2014-06-30T13:46:34Z</time>
      </trkpt>
      <trkpt lat="40.667750" lon="-4.833050">
        <ele>2545.0</ele>
        <time>2014-06-30T13:46:35Z</time>
      </trkpt>
      <trkpt lat="40.667783" lon="-4.832867">
        <ele>2545.0</ele>
        <time>2014-06-30T13:46:36Z</time>
      </trkpt>
      <trkpt lat="40.667833" lon="-4.832683">
        <ele>2545.0</ele>
        <time>2014-06-30T13:46:37Z</time>
      </trkpt>
      <trkpt lat="40.667867" lon="-4.832517">
        <ele>2546.0</ele>
        <time>2014-06-30T13:46:38Z</time>
      </trkpt>
      <trkpt lat="40.667917" lon="-4.832333">
        <ele>2547.0</ele>
        <time>2014-06-30T13:46:39Z</time>
      </trkpt>
      <trkpt lat="40.667967" lon="-4.832167">
        <ele>2548.0</ele>
        <time>2014-06-30T13:46:40Z</time>
      </trkpt>
      <trkpt lat="40.668017" lon="-4.832000">
        <ele>2548.0</ele>
        <time>2014-06-30T13:46:41Z</time>
      </trkpt>
      <trkpt lat="40.668083" lon="-4.831850">
        <ele>2550.0</ele>
        <time>2014-06-30T13:46:42Z</time>
      </trkpt>
      <trkpt lat="40.668133" lon="-4.831717">
        <ele>2551.0</ele>
        <time>2014-06-30T13:46:43Z</time>
      </trkpt>
      <trkpt lat="40.668183" lon="-4.831583">
        <ele>2553.0</ele>
        <time>2014-06-30T13:46:44Z</time>
      </trkpt>
      <trkpt lat="40.668233" lon="-4.831467">
        <ele>2555.0</ele>
        <time>2014-06-30T13:46:45Z</time>
      </trkpt>
      <trkpt lat="40.668283" lon="-4.831350">
        <ele>2555.0</ele>
        <time>2014-06-30T13:46:46Z</time>
      </trkpt>
      <trkpt lat="40.668367" lon="-4.831233">
        <ele>2556.0</ele>
        <time>2014-06-30T13:46:47Z</time>
      </trkpt>
      <trkpt lat="40.668433" lon="-4.831117">
        <ele>2556.0</ele>
        <time>2014-06-30T13:46:48Z</time>
      </trkpt>
      <trkpt lat="40.668550" lon="-4.831017">
        <ele>2556.0</ele>
        <time>2014-06-30T13:46:49Z</time>
      </trkpt>
      <trkpt lat="40.668650" lon="-4.830967">
        <ele>2556.0</ele>
        <time>2014-06-30T13:46:50Z</time>
      </trkpt>
      <trkpt lat="40.668750" lon="-4.830967">
        <ele>2556.0</ele>
        <time>2014-06-30T13:46:51Z</time>
      </trkpt>
      <trkpt lat="40.668850" lon="-4.831017">
        <ele>2555.0</ele>
        <time>2014-06-30T13:46:52Z</time>
      </trkpt>
      <trkpt lat="40.668917" lon="-4.831083">
        <ele>2556.0</ele>
        <time>2014-06-30T13:46:53Z</time>
      </trkpt>
      <trkpt lat="40.668967" lon="-4.831150">
        <ele>2556.0</ele>
        <time>2014-06-30T13:46:54Z</time>
      </trkpt>
      <trkpt lat="40.669000" lon="-4.831217">
        <ele>2557.0</ele>
        <time>2014-06-30T13:46:55Z</time>
      </trkpt>
      <trkpt lat="40.669017" lon="-4.831267">
        <ele>2557.0</ele>
        <time>2014-06-30T13:46:56Z</time>
      </trkpt>
      <trkpt lat="40.669033" lon="-4.831317">
        <ele>2558.0</ele>
        <time>2014-06-30T13:46:57Z</time>
      </trkpt>
      <trkpt lat="40.669033" lon="-4.831367">
        <ele>2558.0</ele>
        <time>2014-06-30T13:46:58Z</time>
      </trkpt>
      <trkpt lat="40.669033" lon="-4.831400">
        <ele>2556.0</ele>
        <time>2014-06-30T13:46:59Z</time>
      </trkpt>
      <trkpt lat="40.668983" lon="-4.831400">
        <ele>2556.0</ele>
        <time>2014-06-30T13:47:00Z</time>
      </trkpt>
      <trkpt lat="40.668933" lon="-4.831350">
        <ele>2556.0</ele>
        <time>2014-06-30T13:47:01Z</time>
      </trkpt>
      <trkpt lat="40.668883" lon="-4.831250">
        <ele>2555.0</ele>
        <time>2014-06-30T13:47:02Z</time>
      </trkpt>
      <trkpt lat="40.668867" lon="-4.831117">
        <ele>2555.0</ele>
        <time>2014-06-30T13:47:03Z</time>
      </trkpt>
      <trkpt lat="40.668850" lon="-4.830983">
        <ele>2555.0</ele>
        <time>2014-06-30T13:47:04Z</time>
      </trkpt>
      <trkpt lat="40.668850" lon="-4.830850">
        <ele>2555.0</ele>
        <time>2014-06-30T13:47:05Z</time>
      </trkpt>
      <trkpt lat="40.668850" lon="-4.830700">
        <ele>2555.0</ele>
        <time>2014-06-30T13:47:06Z</time>
      </trkpt>
      <trkpt lat="40.668867" lon="-4.830550">
        <ele>2555.0</ele>
        <time>2014-06-30T13:47:07Z</time>
      </trkpt>
      <trkpt lat="40.668883" lon="-4.830400">
        <ele>2555.0</ele>
        <time>2014-06-30T13:47:08Z</time>
      </trkpt>
      <trkpt lat="40.668933" lon="-4.830250">
        <ele>2555.0</ele>
        <time>2014-06-30T13:47:09Z</time>
      </trkpt>
      <trkpt lat="40.668967" lon="-4.830100">
        <ele>2555.0</ele>
        <time>2014-06-30T13:47:10Z</time>
      </trkpt>
      <trkpt lat="40.669017" lon="-4.829950">
        <ele>2555.0</ele>
        <time>2014-06-30T13:47:11Z</time>
      </trkpt>
      <trkpt lat="40.669067" lon="-4.829800">
        <ele>2556.0</ele>
        <time>2014-06-30T13:47:12Z</time>
      </trkpt>
      <trkpt lat="40.669100" lon="-4.829667">
        <ele>2559.0</ele>
        <time>2014-06-30T13:47:13Z</time>
      </trkpt>
      <trkpt lat="40.669167" lon="-4.829533">
        <ele>2559.0</ele>
        <time>2014-06-30T13:47:14Z</time>
      </trkpt>
      <trkpt lat="40.669217" lon="-4.829417">
        <ele>2560.0</ele>
        <time>2014-06-30T13:47:15Z</time>
      </trkpt>
      <trkpt lat="40.669283" lon="-4.829300">
        <ele>2560.0</ele>
        <time>2014-06-30T13:47:16Z</time>
      </trkpt>
      <trkpt lat="40.669350" lon="-4.829183">
        <ele>2560.0</ele>
        <time>2014-06-30T13:47:17Z</time>
      </trkpt>
      <trkpt lat="40.669417" lon="-4.829033">
        <ele>2561.0</ele>
        <time>2014-06-30T13:47:18Z</time>
      </trkpt>
      <trkpt lat="40.669483" lon="-4.828917">
        <ele>2562.0</ele>
        <time>2014-06-30T13:47:19Z</time>
      </trkpt>
      <trkpt lat="40.669550" lon="-4.828800">
        <ele>2563.0</ele>
        <time>2014-06-30T13:47:20Z</time>
      </trkpt>
      <trkpt lat="40.669617" lon="-4.828683">
        <ele>2564.0</ele>
        <time>2014-06-30T13:47:21Z</time>
      </trkpt>
      <trkpt lat="40.669667" lon="-4.828583">
        <ele>2565.0</ele>
        <time>2014-06-30T13:47:22Z</time>
      </trkpt>
      <trkpt lat="40.669700" lon="-4.828467">
        <ele>2566.0</ele>
        <time>2014-06-30T13:47:23Z</time>
      </trkpt>
      <trkpt lat="40.669750" lon="-4.828367">
        <ele>2566.0</ele>
        <time>2014-06-30T13:47:24Z</time>
      </trkpt>
      <trkpt lat="40.669817" lon="-4.828250">
        <ele>2566.0</ele>
        <time>2014-06-30T13:47:25Z</time>
      </trkpt>
      <trkpt lat="40.669900" lon="-4.828167">
        <ele>2566.0</ele>
        <time>2014-06-30T13:47:26Z</time>
      </trkpt>
      <trkpt lat="40.669983" lon="-4.828100">
        <ele>2566.0</ele>
        <time>2014-06-30T13:47:27Z</time>
      </trkpt>
      <trkpt lat="40.670067" lon="-4.828050">
        <ele>2566.0</ele>
        <time>2014-06-30T13:47:28Z</time>
      </trkpt>
      <trkpt lat="40.670150" lon="-4.827967">
        <ele>2565.0</ele>
        <time>2014-06-30T13:47:29Z</time>
      </trkpt>
      <trkpt lat="40.670233" lon="-4.827867">
        <ele>2564.0</ele>
        <time>2014-06-30T13:47:30Z</time>
      </trkpt>
      <trkpt lat="40.670317" lon="-4.827733">
        <ele>2563.0</ele>
        <time>2014-06-30T13:47:31Z</time>
      </trkpt>
      <trkpt lat="40.670400" lon="-4.827617">
        <ele>2563.0</ele>
        <time>2014-06-30T13:47:32Z</time>
      </trkpt>
      <trkpt lat="40.670467" lon="-4.827500">
        <ele>2563.0</ele>
        <time>2014-06-30T13:47:33Z</time>
      </trkpt>
      <trkpt lat="40.670550" lon="-4.827383">
        <ele>2563.0</ele>
        <time>2014-06-30T13:47:34Z</time>
      </trkpt>
      <trkpt lat="40.670617" lon="-4.827250">
        <ele>2563.0</ele>
        <time>2014-06-30T13:47:35Z</time>
      </trkpt>
      <trkpt lat="40.670667" lon="-4.827117">
        <ele>2563.0</ele>
        <time>2014-06-30T13:47:36Z</time>
      </trkpt>
      <trkpt lat="40.670717" lon="-4.826967">
        <ele>2563.0</ele>
        <time>2014-06-30T13:47:37Z</time>
      </trkpt>
      <trkpt lat="40.670767" lon="-4.826817">
        <ele>2564.0</ele>
        <time>2014-06-30T13:47:38Z</time>
      </trkpt>
      <trkpt lat="40.670817" lon="-4.826667">
        <ele>2563.0</ele>
        <time>2014-06-30T13:47:39Z</time>
      </trkpt>
      <trkpt lat="40.670867" lon="-4.826550">
        <ele>2564.0</ele>
        <time>2014-06-30T13:47:40Z</time>
      </trkpt>
      <trkpt lat="40.670917" lon="-4.826433">
        <ele>2563.0</ele>
        <time>2014-06-30T13:47:41Z</time>
      </trkpt>
      <trkpt lat="40.670983" lon="-4.826317">
        <ele>2564.0</ele>
        <time>2014-06-30T13:47:42Z</time>
      </trkpt>
      <trkpt lat="40.671033" lon="-4.826183">
        <ele>2564.0</ele>
        <time>2014-06-30T13:47:43Z</time>
      </trkpt>
      <trkpt lat="40.671067" lon="-4.826067">
        <ele>2564.0</ele>
        <time>2014-06-30T13:47:44Z</time>
      </trkpt>
      <trkpt lat="40.671117" lon="-4.825933">
        <ele>2565.0</ele>
        <time>2014-06-30T13:47:45Z</time>
      </trkpt>
      <trkpt lat="40.671150" lon="-4.825833">
        <ele>2565.0</ele>
        <time>2014-06-30T13:47:46Z</time>
      </trkpt>
      <trkpt lat="40.671183" lon="-4.825717">
        <ele>2565.0</ele>
        <time>2014-06-30T13:47:47Z</time>
      </trkpt>
      <trkpt lat="40.671217" lon="-4.825583">
        <ele>2565.0</ele>
        <time>2014-06-30T13:47:48Z</time>
      </trkpt>
      <trkpt lat="40.671250" lon="-4.825450">
        <ele>2564.0</ele>
        <time>2014-06-30T13:47:49Z</time>
      </trkpt>
      <trkpt lat="40.671300" lon="-4.825300">
        <ele>2562.0</ele>
        <time>2014-06-30T13:47:50Z</time>
      </trkpt>
      <trkpt lat="40.671350" lon="-4.825133">
        <ele>2560.0</ele>
        <time>2014-06-30T13:47:51Z</time>
      </trkpt>
      <trkpt lat="40.671400" lon="-4.824967">
        <ele>2559.0</ele>
        <time>2014-06-30T13:47:52Z</time>
      </trkpt>
      <trkpt lat="40.671433" lon="-4.824817">
        <ele>2559.0</ele>
        <time>2014-06-30T13:47:53Z</time>
      </trkpt>
      <trkpt lat="40.671467" lon="-4.824650">
        <ele>2559.0</ele>
        <time>2014-06-30T13:47:54Z</time>
      </trkpt>
      <trkpt lat="40.671483" lon="-4.824517">
        <ele>2559.0</ele>
        <time>2014-06-30T13:47:55Z</time>
      </trkpt>
      <trkpt lat="40.671517" lon="-4.824367">
        <ele>2557.0</ele>
        <time>2014-06-30T13:47:56Z</time>
      </trkpt>
      <trkpt lat="40.671550" lon="-4.824233">
        <ele>2556.0</ele>
        <time>2014-06-30T13:47:57Z</time>
      </trkpt>
      <trkpt lat="40.671583" lon="-4.824067">
        <ele>2554.0</ele>
        <time>2014-06-30T13:47:58Z</time>
      </trkpt>
      <trkpt lat="40.671617" lon="-4.823917">
        <ele>2553.0</ele>
        <time>2014-06-30T13:47:59Z</time>
      </trkpt>
      <trkpt lat="40.671650" lon="-4.823750">
        <ele>2552.0</ele>
        <time>2014-06-30T13:48:00Z</time>
      </trkpt>
      <trkpt lat="40.671683" lon="-4.823600">
        <ele>2552.0</ele>
        <time>2014-06-30T13:48:01Z</time>
      </trkpt>
      <trkpt lat="40.671733" lon="-4.823467">
        <ele>2551.0</ele>
        <time>2014-06-30T13:48:02Z</time>
      </trkpt>
      <trkpt lat="40.671767" lon="-4.823317">
        <ele>2549.0</ele>
        <time>2014-06-30T13:48:03Z</time>
      </trkpt>
      <trkpt lat="40.671800" lon="-4.823150">
        <ele>2548.0</ele>
        <time>2014-06-30T13:48:04Z</time>
      </trkpt>
      <trkpt lat="40.671850" lon="-4.823000">
        <ele>2547.0</ele>
        <time>2014-06-30T13:48:05Z</time>
      </trkpt>
      <trkpt lat="40.671900" lon="-4.822833">
        <ele>2546.0</ele>
        <time>2014-06-30T13:48:06Z</time>
      </trkpt>
      <trkpt lat="40.671950" lon="-4.822683">
        <ele>2546.0</ele>
        <time>2014-06-30T13:48:07Z</time>
      </trkpt>
      <trkpt lat="40.671983" lon="-4.822533">
        <ele>2545.0</ele>
        <time>2014-06-30T13:48:08Z</time>
      </trkpt>
      <trkpt lat="40.672033" lon="-4.822383">
        <ele>2545.0</ele>
        <time>2014-06-30T13:48:09Z</time>
      </trkpt>
      <trkpt lat="40.672083" lon="-4.822250">
        <ele>2543.0</ele>
        <time>2014-06-30T13:48:10Z</time>
      </trkpt>
      <trkpt lat="40.672133" lon="-4.822100">
        <ele>2542.0</ele>
        <time>2014-06-30T13:48:11Z</time>
      </trkpt>
      <trkpt lat="40.672200" lon="-4.821950">
        <ele>2541.0</ele>
        <time>2014-06-30T13:48:12Z</time>
      </trkpt>
      <trkpt lat="40.672267" lon="-4.821800">
        <ele>2540.0</ele>
        <time>2014-06-30T13:48:13Z</time>
      </trkpt>
      <trkpt lat="40.672317" lon="-4.821650">
        <ele>2540.0</ele>
        <time>2014-06-30T13:48:14Z</time>
      </trkpt>
      <trkpt lat="40.672383" lon="-4.821500">
        <ele>2539.0</ele>
        <time>2014-06-30T13:48:15Z</time>
      </trkpt>
      <trkpt lat="40.672450" lon="-4.821367">
        <ele>2538.0</ele>
        <time>2014-06-30T13:48:16Z</time>
      </trkpt>
      <trkpt lat="40.672500" lon="-4.821217">
        <ele>2537.0</ele>
        <time>2014-06-30T13:48:17Z</time>
      </trkpt>
      <trkpt lat="40.672567" lon="-4.821067">
        <ele>2536.0</ele>
        <time>2014-06-30T13:48:18Z</time>
      </trkpt>
      <trkpt lat="40.672617" lon="-4.820917">
        <ele>2535.0</ele>
        <time>2014-06-30T13:48:19Z</time>
      </trkpt>
      <trkpt lat="40.672667" lon="-4.820767">
        <ele>2534.0</ele>
        <time>2014-06-30T13:48:20Z</time>
      </trkpt>
      <trkpt lat="40.672733" lon="-4.820600">
        <ele>2533.0</ele>
        <time>2014-06-30T13:48:21Z</time>
      </trkpt>
      <trkpt lat="40.672767" lon="-4.820450">
        <ele>2532.0</ele>
        <time>2014-06-30T13:48:22Z</time>
      </trkpt>
      <trkpt lat="40.672817" lon="-4.820300">
        <ele>2531.0</ele>
        <time>2014-06-30T13:48:23Z</time>
      </trkpt>
      <trkpt lat="40.672867" lon="-4.820150">
        <ele>2530.0</ele>
        <time>2014-06-30T13:48:24Z</time>
      </trkpt>
      <trkpt lat="40.672917" lon="-4.819983">
        <ele>2528.0</ele>
        <time>2014-06-30T13:48:25Z</time>
      </trkpt>
      <trkpt lat="40.672950" lon="-4.819833">
        <ele>2527.0</ele>
        <time>2014-06-30T13:48:26Z</time>
      </trkpt>
      <trkpt lat="40.673000" lon="-4.819667">
        <ele>2525.0</ele>
        <time>2014-06-30T13:48:27Z</time>
      </trkpt>
      <trkpt lat="40.673033" lon="-4.819517">
        <ele>2523.0</ele>
        <time>2014-06-30T13:48:28Z</time>
      </trkpt>
      <trkpt lat="40.673083" lon="-4.819367">
        <ele>2522.0</ele>
        <time>2014-06-30T13:48:29Z</time>
      </trkpt>
      <trkpt lat="40.673133" lon="-4.819217">
        <ele>2520.0</ele>
        <time>2014-06-30T13:48:30Z</time>
      </trkpt>
      <trkpt lat="40.673183" lon="-4.819067">
        <ele>2518.0</ele>
        <time>2014-06-30T13:48:31Z</time>
      </trkpt>
      <trkpt lat="40.673233" lon="-4.818917">
        <ele>2516.0</ele>
        <time>2014-06-30T13:48:32Z</time>
      </trkpt>
      <trkpt lat="40.673267" lon="-4.818750">
        <ele>2514.0</ele>
        <time>2014-06-30T13:48:33Z</time>
      </trkpt>
      <trkpt lat="40.673317" lon="-4.818583">
        <ele>2512.0</ele>
        <time>2014-06-30T13:48:34Z</time>
      </trkpt>
      <trkpt lat="40.673350" lon="-4.818433">
        <ele>2511.0</ele>
        <time>2014-06-30T13:48:35Z</time>
      </trkpt>
      <trkpt lat="40.673400" lon="-4.818283">
        <ele>2509.0</ele>
        <time>2014-06-30T13:48:36Z</time>
      </trkpt>
      <trkpt lat="40.673450" lon="-4.818133">
        <ele>2507.0</ele>
        <time>2014-06-30T13:48:37Z</time>
      </trkpt>
      <trkpt lat="40.673500" lon="-4.817983">
        <ele>2505.0</ele>
        <time>2014-06-30T13:48:38Z</time>
      </trkpt>
      <trkpt lat="40.673550" lon="-4.817817">
        <ele>2503.0</ele>
        <time>2014-06-30T13:48:39Z</time>
      </trkpt>
      <trkpt lat="40.673617" lon="-4.817650">
        <ele>2501.0</ele>
        <time>2014-06-30T13:48:40Z</time>
      </trkpt>
      <trkpt lat="40.673667" lon="-4.817500">
        <ele>2499.0</ele>
        <time>2014-06-30T13:48:41Z</time>
      </trkpt>
      <trkpt lat="40.673733" lon="-4.817350">
        <ele>2498.0</ele>
        <time>2014-06-30T13:48:42Z</time>
      </trkpt>
      <trkpt lat="40.673783" lon="-4.817200">
        <ele>2496.0</ele>
        <time>2014-06-30T13:48:43Z</time>
      </trkpt>
      <trkpt lat="40.673850" lon="-4.817067">
        <ele>2494.0</ele>
        <time>2014-06-30T13:48:44Z</time>
      </trkpt>
      <trkpt lat="40.673900" lon="-4.816917">
        <ele>2492.0</ele>
        <time>2014-06-30T13:48:45Z</time>
      </trkpt>
      <trkpt lat="40.673967" lon="-4.816767">
        <ele>2490.0</ele>
        <time>2014-06-30T13:48:46Z</time>
      </trkpt>
      <trkpt lat="40.674033" lon="-4.816600">
        <ele>2489.0</ele>
        <time>2014-06-30T13:48:47Z</time>
      </trkpt>
      <trkpt lat="40.674100" lon="-4.816450">
        <ele>2487.0</ele>
        <time>2014-06-30T13:48:48Z</time>
      </trkpt>
      <trkpt lat="40.674167" lon="-4.816300">
        <ele>2486.0</ele>
        <time>2014-06-30T13:48:49Z</time>
      </trkpt>
      <trkpt lat="40.674233" lon="-4.816167">
        <ele>2484.0</ele>
        <time>2014-06-30T13:48:50Z</time>
      </trkpt>
      <trkpt lat="40.674300" lon="-4.816033">
        <ele>2482.0</ele>
        <time>2014-06-30T13:48:51Z</time>
      </trkpt>
      <trkpt lat="40.674367" lon="-4.815900">
        <ele>2480.0</ele>
        <time>2014-06-30T13:48:52Z</time>
      </trkpt>
      <trkpt lat="40.674433" lon="-4.815767">
        <ele>2478.0</ele>
        <time>2014-06-30T13:48:53Z</time>
      </trkpt>
      <trkpt lat="40.674517" lon="-4.815617">
        <ele>2475.0</ele>
        <time>2014-06-30T13:48:54Z</time>
      </trkpt>
      <trkpt lat="40.674600" lon="-4.815483">
        <ele>2473.0</ele>
        <time>2014-06-30T13:48:55Z</time>
      </trkpt>
      <trkpt lat="40.674683" lon="-4.815350">
        <ele>2471.0</ele>
        <time>2014-06-30T13:48:56Z</time>
      </trkpt>
      <trkpt lat="40.674767" lon="-4.815200">
        <ele>2469.0</ele>
        <time>2014-06-30T13:48:57Z</time>
      </trkpt>
      <trkpt lat="40.674833" lon="-4.815067">
        <ele>2467.0</ele>
        <time>2014-06-30T13:48:58Z</time>
      </trkpt>
      <trkpt lat="40.674900" lon="-4.814933">
        <ele>2465.0</ele>
        <time>2014-06-30T13:48:59Z</time>
      </trkpt>
      <trkpt lat="40.674983" lon="-4.814800">
        <ele>2463.0</ele>
        <time>2014-06-30T13:49:00Z</time>
      </trkpt>
      <trkpt lat="40.675067" lon="-4.814667">
        <ele>2460.0</ele>
        <time>2014-06-30T13:49:01Z</time>
      </trkpt>
      <trkpt lat="40.675150" lon="-4.814517">
        <ele>2457.0</ele>
        <time>2014-06-30T13:49:02Z</time>
      </trkpt>
      <trkpt lat="40.675233" lon="-4.814367">
        <ele>2456.0</ele>
        <time>2014-06-30T13:49:03Z</time>
      </trkpt>
      <trkpt lat="40.675317" lon="-4.814233">
        <ele>2455.0</ele>
        <time>2014-06-30T13:49:04Z</time>
      </trkpt>
      <trkpt lat="40.675400" lon="-4.814100">
        <ele>2453.0</ele>
        <time>2014-06-30T13:49:05Z</time>
      </trkpt>
      <trkpt lat="40.675483" lon="-4.813967">
        <ele>2452.0</ele>
        <time>2014-06-30T13:49:06Z</time>
      </trkpt>
      <trkpt lat="40.675583" lon="-4.813833">
        <ele>2449.0</ele>
        <time>2014-06-30T13:49:07Z</time>
      </trkpt>
      <trkpt lat="40.675683" lon="-4.813700">
        <ele>2446.0</ele>
        <time>2014-06-30T13:49:08Z</time>
      </trkpt>
      <trkpt lat="40.675783" lon="-4.813567">
        <ele>2445.0</ele>
        <time>2014-06-30T13:49:09Z</time>
      </trkpt>
      <trkpt lat="40.675883" lon="-4.813433">
        <ele>2443.0</ele>
        <time>2014-06-30T13:49:10Z</time>
      </trkpt>
      <trkpt lat="40.675983" lon="-4.813317">
        <ele>2440.0</ele>
        <time>2014-06-30T13:49:11Z</time>
      </trkpt>
      <trkpt lat="40.676083" lon="-4.813217">
        <ele>2437.0</ele>
        <time>2014-06-30T13:49:12Z</time>
      </trkpt>
      <trkpt lat="40.676183" lon="-4.813100">
        <ele>2433.0</ele>
        <time>2014-06-30T13:49:13Z</time>
      </trkpt>
      <trkpt lat="40.676300" lon="-4.812967">
        <ele>2429.0</ele>
        <time>2014-06-30T13:49:14Z</time>
      </trkpt>
      <trkpt lat="40.676400" lon="-4.812817">
        <ele>2425.0</ele>
        <time>2014-06-30T13:49:15Z</time>
      </trkpt>
      <trkpt lat="40.676517" lon="-4.812667">
        <ele>2422.0</ele>
        <time>2014-06-30T13:49:16Z</time>
      </trkpt>
      <trkpt lat="40.676617" lon="-4.812517">
        <ele>2419.0</ele>
        <time>2014-06-30T13:49:17Z</time>
      </trkpt>
      <trkpt lat="40.676733" lon="-4.812383">
        <ele>2416.0</ele>
        <time>2014-06-30T13:49:18Z</time>
      </trkpt>
      <trkpt lat="40.676833" lon="-4.812250">
        <ele>2412.0</ele>
        <time>2014-06-30T13:49:19Z</time>
      </trkpt>
      <trkpt lat="40.676933" lon="-4.812100">
        <ele>2409.0</ele>
        <time>2014-06-30T13:49:20Z</time>
      </trkpt>
      <trkpt lat="40.677033" lon="-4.811950">
        <ele>2406.0</ele>
        <time>2014-06-30T13:49:21Z</time>
      </trkpt>
      <trkpt lat="40.677133" lon="-4.811800">
        <ele>2403.0</ele>
        <time>2014-06-30T13:49:22Z</time>
      </trkpt>
      <trkpt lat="40.677233" lon="-4.811633">
        <ele>2400.0</ele>
        <time>2014-06-30T13:49:23Z</time>
      </trkpt>
      <trkpt lat="40.677333" lon="-4.811483">
        <ele>2398.0</ele>
        <time>2014-06-30T13:49:24Z</time>
      </trkpt>
      <trkpt lat="40.677433" lon="-4.811333">
        <ele>2395.0</ele>
        <time>2014-06-30T13:49:25Z</time>
      </trkpt>
      <trkpt lat="40.677517" lon="-4.811167">
        <ele>2392.0</ele>
        <time>2014-06-30T13:49:26Z</time>
      </trkpt>
      <trkpt lat="40.677600" lon="-4.811000">
        <ele>2389.0</ele>
        <time>2014-06-30T13:49:27Z</time>
      </trkpt>
      <trkpt lat="40.677683" lon="-4.810817">
        <ele>2386.0</ele>
        <time>2014-06-30T13:49:28Z</time>
      </trkpt>
      <trkpt lat="40.677767" lon="-4.810650">
        <ele>2383.0</ele>
        <time>2014-06-30T13:49:29Z</time>
      </trkpt>
      <trkpt lat="40.677867" lon="-4.810483">
        <ele>2381.0</ele>
        <time>2014-06-30T13:49:30Z</time>
      </trkpt>
      <trkpt lat="40.677967" lon="-4.810333">
        <ele>2378.0</ele>
        <time>2014-06-30T13:49:31Z</time>
      </trkpt>
      <trkpt lat="40.678067" lon="-4.810183">
        <ele>2376.0</ele>
        <time>2014-06-30T13:49:32Z</time>
      </trkpt>
      <trkpt lat="40.678150" lon="-4.810033">
        <ele>2374.0</ele>
        <time>2014-06-30T13:49:33Z</time>
      </trkpt>
      <trkpt lat="40.678233" lon="-4.809867">
        <ele>2371.0</ele>
        <time>2014-06-30T13:49:34Z</time>
      </trkpt>
      <trkpt lat="40.678317" lon="-4.809717">
        <ele>2369.0</ele>
        <time>2014-06-30T13:49:35Z</time>
      </trkpt>
      <trkpt lat="40.678417" lon="-4.809533">
        <ele>2365.0</ele>
        <time>2014-06-30T13:49:36Z</time>
      </trkpt>
      <trkpt lat="40.678500" lon="-4.809350">
        <ele>2363.0</ele>
        <time>2014-06-30T13:49:37Z</time>
      </trkpt>
      <trkpt lat="40.678583" lon="-4.809150">
        <ele>2361.0</ele>
        <time>2014-06-30T13:49:38Z</time>
      </trkpt>
      <trkpt lat="40.678683" lon="-4.808983">
        <ele>2360.0</ele>
        <time>2014-06-30T13:49:39Z</time>
      </trkpt>
      <trkpt lat="40.678750" lon="-4.808833">
        <ele>2358.0</ele>
        <time>2014-06-30T13:49:40Z</time>
      </trkpt>
      <trkpt lat="40.678833" lon="-4.808667">
        <ele>2356.0</ele>
        <time>2014-06-30T13:49:41Z</time>
      </trkpt>
      <trkpt lat="40.678917" lon="-4.808483">
        <ele>2354.0</ele>
        <time>2014-06-30T13:49:42Z</time>
      </trkpt>
      <trkpt lat="40.679000" lon="-4.808300">
        <ele>2351.0</ele>
        <time>2014-06-30T13:49:43Z</time>
      </trkpt>
      <trkpt lat="40.679083" lon="-4.808100">
        <ele>2350.0</ele>
        <time>2014-06-30T13:49:44Z</time>
      </trkpt>
      <trkpt lat="40.679183" lon="-4.807933">
        <ele>2349.0</ele>
        <time>2014-06-30T13:49:45Z</time>
      </trkpt>
      <trkpt lat="40.679283" lon="-4.807783">
        <ele>2348.0</ele>
        <time>2014-06-30T13:49:46Z</time>
      </trkpt>
      <trkpt lat="40.679367" lon="-4.807633">
        <ele>2347.0</ele>
        <time>2014-06-30T13:49:47Z</time>
      </trkpt>
      <trkpt lat="40.679450" lon="-4.807483">
        <ele>2346.0</ele>
        <time>2014-06-30T13:49:48Z</time>
      </trkpt>
      <trkpt lat="40.679533" lon="-4.807350">
        <ele>2345.0</ele>
        <time>2014-06-30T13:49:49Z</time>
      </trkpt>
      <trkpt lat="40.679617" lon="-4.807217">
        <ele>2343.0</ele>
        <time>2014-06-30T13:49:50Z</time>
      </trkpt>
      <trkpt lat="40.679717" lon="-4.807067">
        <ele>2341.0</ele>
        <time>2014-06-30T13:49:51Z</time>
      </trkpt>
      <trkpt lat="40.679800" lon="-4.806933">
        <ele>2340.0</ele>
        <time>2014-06-30T13:49:52Z</time>
      </trkpt>
      <trkpt lat="40.679900" lon="-4.806783">
        <ele>2338.0</ele>
        <time>2014-06-30T13:49:53Z</time>
      </trkpt>
      <trkpt lat="40.679983" lon="-4.806633">
        <ele>2337.0</ele>
        <time>2014-06-30T13:49:54Z</time>
      </trkpt>
      <trkpt lat="40.680067" lon="-4.806483">
        <ele>2335.0</ele>
        <time>2014-06-30T13:49:55Z</time>
      </trkpt>
      <trkpt lat="40.680150" lon="-4.806350">
        <ele>2334.0</ele>
        <time>2014-06-30T13:49:56Z</time>
      </trkpt>
      <trkpt lat="40.680217" lon="-4.806200">
        <ele>2332.0</ele>
        <time>2014-06-30T13:49:57Z</time>
      </trkpt>
      <trkpt lat="40.680267" lon="-4.806050">
        <ele>2329.0</ele>
        <time>2014-06-30T13:49:58Z</time>
      </trkpt>
      <trkpt lat="40.680333" lon="-4.805900">
        <ele>2327.0</ele>
        <time>2014-06-30T13:49:59Z</time>
      </trkpt>
      <trkpt lat="40.680417" lon="-4.805733">
        <ele>2325.0</ele>
        <time>2014-06-30T13:50:00Z</time>
      </trkpt>
      <trkpt lat="40.680483" lon="-4.805583">
        <ele>2323.0</ele>
        <time>2014-06-30T13:50:01Z</time>
      </trkpt>
      <trkpt lat="40.680550" lon="-4.805433">
        <ele>2321.0</ele>
        <time>2014-06-30T13:50:02Z</time>
      </trkpt>
      <trkpt lat="40.680617" lon="-4.805267">
        <ele>2318.0</ele>
        <time>2014-06-30T13:50:03Z</time>
      </trkpt>
      <trkpt lat="40.680683" lon="-4.805117">
        <ele>2317.0</ele>
        <time>2014-06-30T13:50:04Z</time>
      </trkpt>
      <trkpt lat="40.680750" lon="-4.804967">
        <ele>2316.0</ele>
        <time>2014-06-30T13:50:05Z</time>
      </trkpt>
      <trkpt lat="40.680817" lon="-4.804817">
        <ele>2314.0</ele>
        <time>2014-06-30T13:50:06Z</time>
      </trkpt>
      <trkpt lat="40.680883" lon="-4.804667">
        <ele>2312.0</ele>
        <time>2014-06-30T13:50:07Z</time>
      </trkpt>
      <trkpt lat="40.680950" lon="-4.804500">
        <ele>2310.0</ele>
        <time>2014-06-30T13:50:08Z</time>
      </trkpt>
      <trkpt lat="40.681033" lon="-4.804333">
        <ele>2308.0</ele>
        <time>2014-06-30T13:50:09Z</time>
      </trkpt>
      <trkpt lat="40.681100" lon="-4.804183">
        <ele>2306.0</ele>
        <time>2014-06-30T13:50:10Z</time>
      </trkpt>
      <trkpt lat="40.681167" lon="-4.804017">
        <ele>2305.0</ele>
        <time>2014-06-30T13:50:11Z</time>
      </trkpt>
      <trkpt lat="40.681233" lon="-4.803867">
        <ele>2303.0</ele>
        <time>2014-06-30T13:50:12Z</time>
      </trkpt>
      <trkpt lat="40.681300" lon="-4.803717">
        <ele>2301.0</ele>
        <time>2014-06-30T13:50:13Z</time>
      </trkpt>
      <trkpt lat="40.681350" lon="-4.803550">
        <ele>2297.0</ele>
        <time>2014-06-30T13:50:14Z</time>
      </trkpt>
      <trkpt lat="40.681417" lon="-4.803367">
        <ele>2294.0</ele>
        <time>2014-06-30T13:50:15Z</time>
      </trkpt>
      <trkpt lat="40.681483" lon="-4.803200">
        <ele>2292.0</ele>
        <time>2014-06-30T13:50:16Z</time>
      </trkpt>
      <trkpt lat="40.681550" lon="-4.803017">
        <ele>2290.0</ele>
        <time>2014-06-30T13:50:17Z</time>
      </trkpt>
      <trkpt lat="40.681617" lon="-4.802867">
        <ele>2289.0</ele>
        <time>2014-06-30T13:50:18Z</time>
      </trkpt>
      <trkpt lat="40.681683" lon="-4.802700">
        <ele>2287.0</ele>
        <time>2014-06-30T13:50:19Z</time>
      </trkpt>
      <trkpt lat="40.681733" lon="-4.802533">
        <ele>2285.0</ele>
        <time>2014-06-30T13:50:20Z</time>
      </trkpt>
      <trkpt lat="40.681800" lon="-4.802350">
        <ele>2283.0</ele>
        <time>2014-06-30T13:50:21Z</time>
      </trkpt>
      <trkpt lat="40.681867" lon="-4.802183">
        <ele>2281.0</ele>
        <time>2014-06-30T13:50:22Z</time>
      </trkpt>
      <trkpt lat="40.681917" lon="-4.801983">
        <ele>2279.0</ele>
        <time>2014-06-30T13:50:23Z</time>
      </trkpt>
      <trkpt lat="40.681983" lon="-4.801817">
        <ele>2278.0</ele>
        <time>2014-06-30T13:50:24Z</time>
      </trkpt>
      <trkpt lat="40.682050" lon="-4.801650">
        <ele>2278.0</ele>
        <time>2014-06-30T13:50:25Z</time>
      </trkpt>
      <trkpt lat="40.682117" lon="-4.801483">
        <ele>2277.0</ele>
        <time>2014-06-30T13:50:26Z</time>
      </trkpt>
      <trkpt lat="40.682167" lon="-4.801300">
        <ele>2275.0</ele>
        <time>2014-06-30T13:50:27Z</time>
      </trkpt>
      <trkpt lat="40.682233" lon="-4.801100">
        <ele>2273.0</ele>
        <time>2014-06-30T13:50:28Z</time>
      </trkpt>
      <trkpt lat="40.682283" lon="-4.800900">
        <ele>2272.0</ele>
        <time>2014-06-30T13:50:29Z</time>
      </trkpt>
      <trkpt lat="40.682333" lon="-4.800683">
        <ele>2273.0</ele>
        <time>2014-06-30T13:50:30Z</time>
      </trkpt>
      <trkpt lat="40.682383" lon="-4.800500">
        <ele>2272.0</ele>
        <time>2014-06-30T13:50:31Z</time>
      </trkpt>
      <trkpt lat="40.682417" lon="-4.800317">
        <ele>2271.0</ele>
        <time>2014-06-30T13:50:32Z</time>
      </trkpt>
      <trkpt lat="40.682467" lon="-4.800117">
        <ele>2270.0</ele>
        <time>2014-06-30T13:50:33Z</time>
      </trkpt>
      <trkpt lat="40.682500" lon="-4.799933">
        <ele>2269.0</ele>
        <time>2014-06-30T13:50:34Z</time>
      </trkpt>
      <trkpt lat="40.682533" lon="-4.799733">
        <ele>2268.0</ele>
        <time>2014-06-30T13:50:35Z</time>
      </trkpt>
      <trkpt lat="40.682583" lon="-4.799567">
        <ele>2267.0</ele>
        <time>2014-06-30T13:50:36Z</time>
      </trkpt>
      <trkpt lat="40.682617" lon="-4.799383">
        <ele>2266.0</ele>
        <time>2014-06-30T13:50:37Z</time>
      </trkpt>
      <trkpt lat="40.682667" lon="-4.799200">
        <ele>2265.0</ele>
        <time>2014-06-30T13:50:38Z</time>
      </trkpt>
      <trkpt lat="40.682717" lon="-4.799017">
        <ele>2264.0</ele>
        <time>2014-06-30T13:50:39Z</time>
      </trkpt>
      <trkpt lat="40.682783" lon="-4.798833">
        <ele>2263.0</ele>
        <time>2014-06-30T13:50:40Z</time>
      </trkpt>
      <trkpt lat="40.682817" lon="-4.798650">
        <ele>2263.0</ele>
        <time>2014-06-30T13:50:41Z</time>
      </trkpt>
      <trkpt lat="40.682867" lon="-4.798483">
        <ele>2263.0</ele>
        <time>2014-06-30T13:50:42Z</time>
      </trkpt>
      <trkpt lat="40.682933" lon="-4.798333">
        <ele>2262.0</ele>
        <time>2014-06-30T13:50:43Z</time>
      </trkpt>
      <trkpt lat="40.682983" lon="-4.798167">
        <ele>2261.0</ele>
        <time>2014-06-30T13:50:44Z</time>
      </trkpt>
      <trkpt lat="40.683033" lon="-4.797983">
        <ele>2260.0</ele>
        <time>2014-06-30T13:50:45Z</time>
      </trkpt>
      <trkpt lat="40.683083" lon="-4.797800">
        <ele>2258.0</ele>
        <time>2014-06-30T13:50:46Z</time>
      </trkpt>
      <trkpt lat="40.683150" lon="-4.797617">
        <ele>2258.0</ele>
        <time>2014-06-30T13:50:47Z</time>
      </trkpt>
      <trkpt lat="40.683200" lon="-4.797433">
        <ele>2257.0</ele>
        <time>2014-06-30T13:50:48Z</time>
      </trkpt>
      <trkpt lat="40.683267" lon="-4.797267">
        <ele>2256.0</ele>
        <time>2014-06-30T13:50:49Z</time>
      </trkpt>
      <trkpt lat="40.683333" lon="-4.797083">
        <ele>2256.0</ele>
        <time>2014-06-30T13:50:50Z</time>
      </trkpt>
      <trkpt lat="40.683383" lon="-4.796917">
        <ele>2255.0</ele>
        <time>2014-06-30T13:50:51Z</time>
      </trkpt>
      <trkpt lat="40.683450" lon="-4.796733">
        <ele>2254.0</ele>
        <time>2014-06-30T13:50:52Z</time>
      </trkpt>
      <trkpt lat="40.683517" lon="-4.796567">
        <ele>2253.0</ele>
        <time>2014-06-30T13:50:53Z</time>
      </trkpt>
      <trkpt lat="40.683583" lon="-4.796383">
        <ele>2251.0</ele>
        <time>2014-06-30T13:50:54Z</time>
      </trkpt>
      <trkpt lat="40.683650" lon="-4.796183">
        <ele>2249.0</ele>
        <time>2014-06-30T13:50:55Z</time>
      </trkpt>
      <trkpt lat="40.683717" lon="-4.795983">
        <ele>2247.0</ele>
        <time>2014-06-30T13:50:56Z</time>
      </trkpt>
      <trkpt lat="40.683767" lon="-4.795800">
        <ele>2246.0</ele>
        <time>2014-06-30T13:50:57Z</time>
      </trkpt>
      <trkpt lat="40.683817" lon="-4.795617">
        <ele>2245.0</ele>
        <time>2014-06-30T13:50:58Z</time>
      </trkpt>
      <trkpt lat="40.683883" lon="-4.795433">
        <ele>2245.0</ele>
        <time>2014-06-30T13:50:59Z</time>
      </trkpt>
      <trkpt lat="40.683933" lon="-4.795250">
        <ele>2245.0</ele>
        <time>2014-06-30T13:51:00Z</time>
      </trkpt>
      <trkpt lat="40.683983" lon="-4.795050">
        <ele>2244.0</ele>
        <time>2014-06-30T13:51:01Z</time>
      </trkpt>
      <trkpt lat="40.684017" lon="-4.794867">
        <ele>2243.0</ele>
        <time>2014-06-30T13:51:02Z</time>
      </trkpt>
      <trkpt lat="40.684033" lon="-4.794650">
        <ele>2243.0</ele>
        <time>2014-06-30T13:51:03Z</time>
      </trkpt>
      <trkpt lat="40.684067" lon="-4.794433">
        <ele>2243.0</ele>
        <time>2014-06-30T13:51:04Z</time>
      </trkpt>
      <trkpt lat="40.684083" lon="-4.794217">
        <ele>2243.0</ele>
        <time>2014-06-30T13:51:05Z</time>
      </trkpt>
      <trkpt lat="40.684117" lon="-4.794000">
        <ele>2245.0</ele>
        <time>2014-06-30T13:51:06Z</time>
      </trkpt>
      <trkpt lat="40.684133" lon="-4.793833">
        <ele>2247.0</ele>
        <time>2014-06-30T13:51:07Z</time>
      </trkpt>
      <trkpt lat="40.684167" lon="-4.793667">
        <ele>2248.0</ele>
        <time>2014-06-30T13:51:08Z</time>
      </trkpt>
      <trkpt lat="40.684183" lon="-4.793500">
        <ele>2249.0</ele>
        <time>2014-06-30T13:51:09Z</time>
      </trkpt>
      <trkpt lat="40.684200" lon="-4.793350">
        <ele>2250.0</ele>
        <time>2014-06-30T13:51:10Z</time>
      </trkpt>
      <trkpt lat="40.684233" lon="-4.793150">
        <ele>2251.0</ele>
        <time>2014-06-30T13:51:11Z</time>
      </trkpt>
      <trkpt lat="40.684267" lon="-4.792967">
        <ele>2250.0</ele>
        <time>2014-06-30T13:51:12Z</time>
      </trkpt>
      <trkpt lat="40.684333" lon="-4.792783">
        <ele>2251.0</ele>
        <time>2014-06-30T13:51:13Z</time>
      </trkpt>
      <trkpt lat="40.684417" lon="-4.792633">
        <ele>2252.0</ele>
        <time>2014-06-30T13:51:14Z</time>
      </trkpt>
      <trkpt lat="40.684500" lon="-4.792550">
        <ele>2253.0</ele>
        <time>2014-06-30T13:51:15Z</time>
      </trkpt>
      <trkpt lat="40.684617" lon="-4.792533">
        <ele>2251.0</ele>
        <time>2014-06-30T13:51:16Z</time>
      </trkpt>
      <trkpt lat="40.684700" lon="-4.792533">
        <ele>2251.0</ele>
        <time>2014-06-30T13:51:17Z</time>
      </trkpt>
      <trkpt lat="40.684767" lon="-4.792567">
        <ele>2251.0</ele>
        <time>2014-06-30T13:51:18Z</time>
      </trkpt>
      <trkpt lat="40.684817" lon="-4.792567">
        <ele>2251.0</ele>
        <time>2014-06-30T13:51:19Z</time>
      </trkpt>
      <trkpt lat="40.684867" lon="-4.792567">
        <ele>2251.0</ele>
        <time>2014-06-30T13:51:20Z</time>
      </trkpt>
      <trkpt lat="40.684900" lon="-4.792583">
        <ele>2251.0</ele>
        <time>2014-06-30T13:51:21Z</time>
      </trkpt>
      <trkpt lat="40.684933" lon="-4.792600">
        <ele>2251.0</ele>
        <time>2014-06-30T13:51:22Z</time>
      </trkpt>
      <trkpt lat="40.684933" lon="-4.792650">
        <ele>2251.0</ele>
        <time>2014-06-30T13:51:23Z</time>
      </trkpt>
      <trkpt lat="40.684917" lon="-4.792717">
        <ele>2251.0</ele>
        <time>2014-06-30T13:51:24Z</time>
      </trkpt>
      <trkpt lat="40.684900" lon="-4.792767">
        <ele>2251.0</ele>
        <time>2014-06-30T13:51:25Z</time>
      </trkpt>
      <trkpt lat="40.684867" lon="-4.792800">
        <ele>2250.0</ele>
        <time>2014-06-30T13:51:26Z</time>
      </trkpt>
      <trkpt lat="40.684850" lon="-4.792850">
        <ele>2250.0</ele>
        <time>2014-06-30T13:51:27Z</time>
      </trkpt>
      <trkpt lat="40.684833" lon="-4.792900">
        <ele>2250.0</ele>
        <time>2014-06-30T13:51:28Z</time>
      </trkpt>
      <trkpt lat="40.684833" lon="-4.792950">
        <ele>2250.0</ele>
        <time>2014-06-30T13:51:29Z</time>
      </trkpt>
      <trkpt lat="40.684817" lon="-4.793000">
        <ele>2249.0</ele>
        <time>2014-06-30T13:51:30Z</time>
      </trkpt>
      <trkpt lat="40.684767" lon="-4.793033">
        <ele>2249.0</ele>
        <time>2014-06-30T13:51:31Z</time>
      </trkpt>
      <trkpt lat="40.684750" lon="-4.793067">
        <ele>2249.0</ele>
        <time>2014-06-30T13:51:32Z</time>
      </trkpt>
      <trkpt lat="40.684733" lon="-4.793100">
        <ele>2247.0</ele>
        <time>2014-06-30T13:51:33Z</time>
      </trkpt>
      <trkpt lat="40.684733" lon="-4.793150">
        <ele>2247.0</ele>
        <time>2014-06-30T13:51:34Z</time>
      </trkpt>
      <trkpt lat="40.684750" lon="-4.793217">
        <ele>2247.0</ele>
        <time>2014-06-30T13:51:35Z</time>
      </trkpt>
      <trkpt lat="40.684750" lon="-4.793283">
        <ele>2246.0</ele>
        <time>2014-06-30T13:51:36Z</time>
      </trkpt>
      <trkpt lat="40.684750" lon="-4.793350">
        <ele>2245.0</ele>
        <time>2014-06-30T13:51:37Z</time>
      </trkpt>
      <trkpt lat="40.684767" lon="-4.793400">
        <ele>2245.0</ele>
        <time>2014-06-30T13:51:38Z</time>
      </trkpt>
      <trkpt lat="40.684783" lon="-4.793467">
        <ele>2244.0</ele>
        <time>2014-06-30T13:51:39Z</time>
      </trkpt>
      <trkpt lat="40.684800" lon="-4.793533">
        <ele>2244.0</ele>
        <time>2014-06-30T13:51:40Z</time>
      </trkpt>
      <trkpt lat="40.684800" lon="-4.793583">
        <ele>2243.0</ele>
        <time>2014-06-30T13:51:41Z</time>
      </trkpt>
      <trkpt lat="40.684800" lon="-4.793633">
        <ele>2243.0</ele>
        <time>2014-06-30T13:51:42Z</time>
      </trkpt>
      <trkpt lat="40.684817" lon="-4.793700">
        <ele>2243.0</ele>
        <time>2014-06-30T13:51:43Z</time>
      </trkpt>
      <trkpt lat="40.684850" lon="-4.793767">
        <ele>2242.0</ele>
        <time>2014-06-30T13:51:44Z</time>
      </trkpt>
      <trkpt lat="40.684883" lon="-4.793833">
        <ele>2242.0</ele>
        <time>2014-06-30T13:51:45Z</time>
      </trkpt>
      <trkpt lat="40.684933" lon="-4.793867">
        <ele>2241.0</ele>
        <time>2014-06-30T13:51:46Z</time>
      </trkpt>
      <trkpt lat="40.684967" lon="-4.793933">
        <ele>2241.0</ele>
        <time>2014-06-30T13:51:47Z</time>
      </trkpt>
      <trkpt lat="40.684983" lon="-4.793983">
        <ele>2240.0</ele>
        <time>2014-06-30T13:51:48Z</time>
      </trkpt>
      <trkpt lat="40.685000" lon="-4.794067">
        <ele>2240.0</ele>
        <time>2014-06-30T13:51:49Z</time>
      </trkpt>
      <trkpt lat="40.685050" lon="-4.794117">
        <ele>2239.0</ele>
        <time>2014-06-30T13:51:50Z</time>
      </trkpt>
      <trkpt lat="40.685100" lon="-4.794183">
        <ele>2238.0</ele>
        <time>2014-06-30T13:51:51Z</time>
      </trkpt>
      <trkpt lat="40.685133" lon="-4.794217">
        <ele>2237.0</ele>
        <time>2014-06-30T13:51:52Z</time>
      </trkpt>
      <trkpt lat="40.685167" lon="-4.794250">
        <ele>2237.0</ele>
        <time>2014-06-30T13:51:53Z</time>
      </trkpt>
      <trkpt lat="40.685183" lon="-4.794283">
        <ele>2236.0</ele>
        <time>2014-06-30T13:51:54Z</time>
      </trkpt>
      <trkpt lat="40.685183" lon="-4.794317">
        <ele>2236.0</ele>
        <time>2014-06-30T13:51:55Z</time>
      </trkpt>
      <trkpt lat="40.685183" lon="-4.794400">
        <ele>2236.0</ele>
        <time>2014-06-30T13:51:56Z</time>
      </trkpt>
      <trkpt lat="40.685200" lon="-4.794483">
        <ele>2234.0</ele>
        <time>2014-06-30T13:51:57Z</time>
      </trkpt>
      <trkpt lat="40.685233" lon="-4.794533">
        <ele>2233.0</ele>
        <time>2014-06-30T13:51:58Z</time>
      </trkpt>
      <trkpt lat="40.685250" lon="-4.794583">
        <ele>2233.0</ele>
        <time>2014-06-30T13:51:59Z</time>
      </trkpt>
      <trkpt lat="40.685283" lon="-4.794617">
        <ele>2232.0</ele>
        <time>2014-06-30T13:52:00Z</time>
      </trkpt>
      <trkpt lat="40.685283" lon="-4.794650">
        <ele>2231.0</ele>
        <time>2014-06-30T13:52:01Z</time>
      </trkpt>
      <trkpt lat="40.685317" lon="-4.794667">
        <ele>2231.0</ele>
        <time>2014-06-30T13:52:02Z</time>
      </trkpt>
      <trkpt lat="40.685367" lon="-4.794733">
        <ele>2230.0</ele>
        <time>2014-06-30T13:52:03Z</time>
      </trkpt>
      <trkpt lat="40.685433" lon="-4.794767">
        <ele>2230.0</ele>
        <time>2014-06-30T13:52:04Z</time>
      </trkpt>
      <trkpt lat="40.685517" lon="-4.794783">
        <ele>2228.0</ele>
        <time>2014-06-30T13:52:05Z</time>
      </trkpt>
      <trkpt lat="40.685600" lon="-4.794817">
        <ele>2226.0</ele>
        <time>2014-06-30T13:52:06Z</time>
      </trkpt>
      <trkpt lat="40.685667" lon="-4.794883">
        <ele>2225.0</ele>
        <time>2014-06-30T13:52:07Z</time>
      </trkpt>
      <trkpt lat="40.685733" lon="-4.794933">
        <ele>2224.0</ele>
        <time>2014-06-30T13:52:08Z</time>
      </trkpt>
      <trkpt lat="40.685800" lon="-4.795017">
        <ele>2223.0</ele>
        <time>2014-06-30T13:52:09Z</time>
      </trkpt>
      <trkpt lat="40.685867" lon="-4.795083">
        <ele>2221.0</ele>
        <time>2014-06-30T13:52:10Z</time>
      </trkpt>
      <trkpt lat="40.685950" lon="-4.795150">
        <ele>2220.0</ele>
        <time>2014-06-30T13:52:11Z</time>
      </trkpt>
      <trkpt lat="40.686050" lon="-4.795217">
        <ele>2219.0</ele>
        <time>2014-06-30T13:52:12Z</time>
      </trkpt>
      <trkpt lat="40.686133" lon="-4.795300">
        <ele>2218.0</ele>
        <time>2014-06-30T13:52:13Z</time>
      </trkpt>
      <trkpt lat="40.686200" lon="-4.795367">
        <ele>2218.0</ele>
        <time>2014-06-30T13:52:14Z</time>
      </trkpt>
      <trkpt lat="40.686267" lon="-4.795400">
        <ele>2216.0</ele>
        <time>2014-06-30T13:52:15Z</time>
      </trkpt>
      <trkpt lat="40.686317" lon="-4.795417">
        <ele>2216.0</ele>
        <time>2014-06-30T13:52:16Z</time>
      </trkpt>
      <trkpt lat="40.686367" lon="-4.795417">
        <ele>2215.0</ele>
        <time>2014-06-30T13:52:17Z</time>
      </trkpt>
      <trkpt lat="40.686383" lon="-4.795417">
        <ele>2214.0</ele>
        <time>2014-06-30T13:52:18Z</time>
      </trkpt>
      <trkpt lat="40.686383" lon="-4.795450">
        <ele>2214.0</ele>
        <time>2014-06-30T13:52:19Z</time>
      </trkpt>
      <trkpt lat="40.686367" lon="-4.795467">
        <ele>2214.0</ele>
        <time>2014-06-30T13:52:20Z</time>
      </trkpt>
      <trkpt lat="40.686333" lon="-4.795500">
        <ele>2213.0</ele>
        <time>2014-06-30T13:52:21Z</time>
      </trkpt>
      <trkpt lat="40.686300" lon="-4.795533">
        <ele>2213.0</ele>
        <time>2014-06-30T13:52:22Z</time>
      </trkpt>
      <trkpt lat="40.686217" lon="-4.795500">
        <ele>2213.0</ele>
        <time>2014-06-30T13:52:23Z</time>
      </trkpt>
      <trkpt lat="40.686133" lon="-4.795433">
        <ele>2213.0</ele>
        <time>2014-06-30T13:52:24Z</time>
      </trkpt>
      <trkpt lat="40.686067" lon="-4.795350">
        <ele>2212.0</ele>
        <time>2014-06-30T13:52:25Z</time>
      </trkpt>
      <trkpt lat="40.686000" lon="-4.795233">
        <ele>2211.0</ele>
        <time>2014-06-30T13:52:26Z</time>
      </trkpt>
      <trkpt lat="40.685950" lon="-4.795133">
        <ele>2210.0</ele>
        <time>2014-06-30T13:52:27Z</time>
      </trkpt>
      <trkpt lat="40.685900" lon="-4.795017">
        <ele>2209.0</ele>
        <time>2014-06-30T13:52:28Z</time>
      </trkpt>
      <trkpt lat="40.685850" lon="-4.794900">
        <ele>2208.0</ele>
        <time>2014-06-30T13:52:29Z</time>
      </trkpt>
      <trkpt lat="40.685817" lon="-4.794750">
        <ele>2208.0</ele>
        <time>2014-06-30T13:52:30Z</time>
      </trkpt>
      <trkpt lat="40.685783" lon="-4.794617">
        <ele>2208.0</ele>
        <time>2014-06-30T13:52:31Z</time>
      </trkpt>
      <trkpt lat="40.685783" lon="-4.794467">
        <ele>2209.0</ele>
        <time>2014-06-30T13:52:32Z</time>
      </trkpt>
      <trkpt lat="40.685800" lon="-4.794333">
        <ele>2209.0</ele>
        <time>2014-06-30T13:52:33Z</time>
      </trkpt>
      <trkpt lat="40.685833" lon="-4.794217">
        <ele>2208.0</ele>
        <time>2014-06-30T13:52:34Z</time>
      </trkpt>
      <trkpt lat="40.685867" lon="-4.794100">
        <ele>2206.0</ele>
        <time>2014-06-30T13:52:35Z</time>
      </trkpt>
      <trkpt lat="40.685933" lon="-4.793983">
        <ele>2205.0</ele>
        <time>2014-06-30T13:52:36Z</time>
      </trkpt>
      <trkpt lat="40.686017" lon="-4.793867">
        <ele>2203.0</ele>
        <time>2014-06-30T13:52:37Z</time>
      </trkpt>
      <trkpt lat="40.686117" lon="-4.793783">
        <ele>2202.0</ele>
        <time>2014-06-30T13:52:38Z</time>
      </trkpt>
      <trkpt lat="40.686217" lon="-4.793750">
        <ele>2200.0</ele>
        <time>2014-06-30T13:52:39Z</time>
      </trkpt>
      <trkpt lat="40.686317" lon="-4.793750">
        <ele>2198.0</ele>
        <time>2014-06-30T13:52:40Z</time>
      </trkpt>
      <trkpt lat="40.686400" lon="-4.793783">
        <ele>2198.0</ele>
        <time>2014-06-30T13:52:41Z</time>
      </trkpt>
      <trkpt lat="40.686483" lon="-4.793817">
        <ele>2201.0</ele>
        <time>2014-06-30T13:52:42Z</time>
      </trkpt>
      <trkpt lat="40.686550" lon="-4.793850">
        <ele>2200.0</ele>
        <time>2014-06-30T13:52:43Z</time>
      </trkpt>
      <trkpt lat="40.686617" lon="-4.793883">
        <ele>2200.0</ele>
        <time>2014-06-30T13:52:44Z</time>
      </trkpt>
      <trkpt lat="40.686667" lon="-4.793900">
        <ele>2201.0</ele>
        <time>2014-06-30T13:52:45Z</time>
      </trkpt>
      <trkpt lat="40.686717" lon="-4.793917">
        <ele>2202.0</ele>
        <time>2014-06-30T13:52:46Z</time>
      </trkpt>
      <trkpt lat="40.686767" lon="-4.793917">
        <ele>2203.0</ele>
        <time>2014-06-30T13:52:47Z</time>
      </trkpt>
      <trkpt lat="40.686783" lon="-4.793933">
        <ele>2204.0</ele>
        <time>2014-06-30T13:52:48Z</time>
      </trkpt>
      <trkpt lat="40.686800" lon="-4.793950">
        <ele>2205.0</ele>
        <time>2014-06-30T13:52:49Z</time>
      </trkpt>
      <trkpt lat="40.686817" lon="-4.793967">
        <ele>2206.0</ele>
        <time>2014-06-30T13:52:50Z</time>
      </trkpt>
      <trkpt lat="40.686850" lon="-4.794017">
        <ele>2203.0</ele>
        <time>2014-06-30T13:52:51Z</time>
      </trkpt>
      <trkpt lat="40.686850" lon="-4.794050">
        <ele>2203.0</ele>
        <time>2014-06-30T13:52:52Z</time>
      </trkpt>
      <trkpt lat="40.686833" lon="-4.794083">
        <ele>2203.0</ele>
        <time>2014-06-30T13:52:53Z</time>
      </trkpt>
      <trkpt lat="40.686817" lon="-4.794100">
        <ele>2203.0</ele>
        <time>2014-06-30T13:52:54Z</time>
      </trkpt>
      <trkpt lat="40.686800" lon="-4.794117">
        <ele>2204.0</ele>
        <time>2014-06-30T13:52:55Z</time>
      </trkpt>
      <trkpt lat="40.686767" lon="-4.794150">
        <ele>2204.0</ele>
        <time>2014-06-30T13:52:56Z</time>
      </trkpt>
      <trkpt lat="40.686717" lon="-4.794150">
        <ele>2204.0</ele>
        <time>2014-06-30T13:52:57Z</time>
      </trkpt>
      <trkpt lat="40.686650" lon="-4.794133">
        <ele>2204.0</ele>
        <time>2014-06-30T13:52:58Z</time>
      </trkpt>
      <trkpt lat="40.686583" lon="-4.794100">
        <ele>2204.0</ele>
        <time>2014-06-30T13:52:59Z</time>
      </trkpt>
      <trkpt lat="40.686500" lon="-4.794050">
        <ele>2205.0</ele>
        <time>2014-06-30T13:53:00Z</time>
      </trkpt>
      <trkpt lat="40.686433" lon="-4.793983">
        <ele>2205.0</ele>
        <time>2014-06-30T13:53:01Z</time>
      </trkpt>
      <trkpt lat="40.686367" lon="-4.793933">
        <ele>2206.0</ele>
        <time>2014-06-30T13:53:02Z</time>
      </trkpt>
      <trkpt lat="40.686317" lon="-4.793867">
        <ele>2206.0</ele>
        <time>2014-06-30T13:53:03Z</time>
      </trkpt>
      <trkpt lat="40.686267" lon="-4.793817">
        <ele>2207.0</ele>
        <time>2014-06-30T13:53:04Z</time>
      </trkpt>
      <trkpt lat="40.686217" lon="-4.793750">
        <ele>2208.0</ele>
        <time>2014-06-30T13:53:05Z</time>
      </trkpt>
      <trkpt lat="40.686167" lon="-4.793700">
        <ele>2209.0</ele>
        <time>2014-06-30T13:53:06Z</time>
      </trkpt>
      <trkpt lat="40.686100" lon="-4.793650">
        <ele>2209.0</ele>
        <time>2014-06-30T13:53:07Z</time>
      </trkpt>
      <trkpt lat="40.686050" lon="-4.793567">
        <ele>2211.0</ele>
        <time>2014-06-30T13:53:08Z</time>
      </trkpt>
      <trkpt lat="40.685983" lon="-4.793467">
        <ele>2212.0</ele>
        <time>2014-06-30T13:53:09Z</time>
      </trkpt>
      <trkpt lat="40.685917" lon="-4.793350">
        <ele>2213.0</ele>
        <time>2014-06-30T13:53:10Z</time>
      </trkpt>
      <trkpt lat="40.685867" lon="-4.793217">
        <ele>2214.0</ele>
        <time>2014-06-30T13:53:11Z</time>
      </trkpt>
      <trkpt lat="40.685850" lon="-4.793083">
        <ele>2214.0</ele>
        <time>2014-06-30T13:53:12Z</time>
      </trkpt>
      <trkpt lat="40.685833" lon="-4.792933">
        <ele>2215.0</ele>
        <time>2014-06-30T13:53:13Z</time>
      </trkpt>
      <trkpt lat="40.685867" lon="-4.792767">
        <ele>2215.0</ele>
        <time>2014-06-30T13:53:14Z</time>
      </trkpt>
      <trkpt lat="40.685917" lon="-4.792633">
        <ele>2216.0</ele>
        <time>2014-06-30T13:53:15Z</time>
      </trkpt>
      <trkpt lat="40.686000" lon="-4.792517">
        <ele>2218.0</ele>
        <time>2014-06-30T13:53:16Z</time>
      </trkpt>
      <trkpt lat="40.686067" lon="-4.792450">
        <ele>2219.0</ele>
        <time>2014-06-30T13:53:17Z</time>
      </trkpt>
      <trkpt lat="40.686150" lon="-4.792417">
        <ele>2221.0</ele>
        <time>2014-06-30T13:53:18Z</time>
      </trkpt>
      <trkpt lat="40.686217" lon="-4.792400">
        <ele>2222.0</ele>
        <time>2014-06-30T13:53:19Z</time>
      </trkpt>
      <trkpt lat="40.686300" lon="-4.792383">
        <ele>2224.0</ele>
        <time>2014-06-30T13:53:20Z</time>
      </trkpt>
      <trkpt lat="40.686367" lon="-4.792383">
        <ele>2226.0</ele>
        <time>2014-06-30T13:53:21Z</time>
      </trkpt>
      <trkpt lat="40.686417" lon="-4.792400">
        <ele>2228.0</ele>
        <time>2014-06-30T13:53:22Z</time>
      </trkpt>
      <trkpt lat="40.686467" lon="-4.792417">
        <ele>2230.0</ele>
        <time>2014-06-30T13:53:23Z</time>
      </trkpt>
      <trkpt lat="40.686483" lon="-4.792467">
        <ele>2231.0</ele>
        <time>2014-06-30T13:53:24Z</time>
      </trkpt>
      <trkpt lat="40.686483" lon="-4.792517">
        <ele>2233.0</ele>
        <time>2014-06-30T13:53:25Z</time>
      </trkpt>
      <trkpt lat="40.686467" lon="-4.792550">
        <ele>2234.0</ele>
        <time>2014-06-30T13:53:26Z</time>
      </trkpt>
      <trkpt lat="40.686417" lon="-4.792567">
        <ele>2236.0</ele>
        <time>2014-06-30T13:53:27Z</time>
      </trkpt>
      <trkpt lat="40.686367" lon="-4.792583">
        <ele>2237.0</ele>
        <time>2014-06-30T13:53:28Z</time>
      </trkpt>
      <trkpt lat="40.686317" lon="-4.792567">
        <ele>2239.0</ele>
        <time>2014-06-30T13:53:29Z</time>
      </trkpt>
      <trkpt lat="40.686233" lon="-4.792533">
        <ele>2240.0</ele>
        <time>2014-06-30T13:53:30Z</time>
      </trkpt>
      <trkpt lat="40.686183" lon="-4.792467">
        <ele>2240.0</ele>
        <time>2014-06-30T13:53:31Z</time>
      </trkpt>
      <trkpt lat="40.686117" lon="-4.792400">
        <ele>2240.0</ele>
        <time>2014-06-30T13:53:32Z</time>
      </trkpt>
      <trkpt lat="40.686083" lon="-4.792283">
        <ele>2240.0</ele>
        <time>2014-06-30T13:53:33Z</time>
      </trkpt>
      <trkpt lat="40.686050" lon="-4.792167">
        <ele>2240.0</ele>
        <time>2014-06-30T13:53:34Z</time>
      </trkpt>
      <trkpt lat="40.686033" lon="-4.792033">
        <ele>2241.0</ele>
        <time>2014-06-30T13:53:35Z</time>
      </trkpt>
      <trkpt lat="40.686050" lon="-4.791883">
        <ele>2241.0</ele>
        <time>2014-06-30T13:53:36Z</time>
      </trkpt>
      <trkpt lat="40.686067" lon="-4.791733">
        <ele>2241.0</ele>
        <time>2014-06-30T13:53:37Z</time>
      </trkpt>
      <trkpt lat="40.686083" lon="-4.791600">
        <ele>2242.0</ele>
        <time>2014-06-30T13:53:38Z</time>
      </trkpt>
      <trkpt lat="40.686117" lon="-4.791483">
        <ele>2242.0</ele>
        <time>2014-06-30T13:53:39Z</time>
      </trkpt>
      <trkpt lat="40.686167" lon="-4.791350">
        <ele>2242.0</ele>
        <time>2014-06-30T13:53:40Z</time>
      </trkpt>
      <trkpt lat="40.686233" lon="-4.791217">
        <ele>2242.0</ele>
        <time>2014-06-30T13:53:41Z</time>
      </trkpt>
      <trkpt lat="40.686300" lon="-4.791100">
        <ele>2243.0</ele>
        <time>2014-06-30T13:53:42Z</time>
      </trkpt>
      <trkpt lat="40.686383" lon="-4.791033">
        <ele>2244.0</ele>
        <time>2014-06-30T13:53:43Z</time>
      </trkpt>
      <trkpt lat="40.686450" lon="-4.790983">
        <ele>2245.0</ele>
        <time>2014-06-30T13:53:44Z</time>
      </trkpt>
      <trkpt lat="40.686517" lon="-4.790933">
        <ele>2246.0</ele>
        <time>2014-06-30T13:53:45Z</time>
      </trkpt>
      <trkpt lat="40.686567" lon="-4.790883">
        <ele>2247.0</ele>
        <time>2014-06-30T13:53:46Z</time>
      </trkpt>
      <trkpt lat="40.686633" lon="-4.790850">
        <ele>2248.0</ele>
        <time>2014-06-30T13:53:47Z</time>
      </trkpt>
      <trkpt lat="40.686700" lon="-4.790833">
        <ele>2248.0</ele>
        <time>2014-06-30T13:53:48Z</time>
      </trkpt>
      <trkpt lat="40.686750" lon="-4.790850">
        <ele>2248.0</ele>
        <time>2014-06-30T13:53:49Z</time>
      </trkpt>
      <trkpt lat="40.686783" lon="-4.790883">
        <ele>2249.0</ele>
        <time>2014-06-30T13:53:50Z</time>
      </trkpt>
      <trkpt lat="40.686800" lon="-4.790917">
        <ele>2250.0</ele>
        <time>2014-06-30T13:53:51Z</time>
      </trkpt>
      <trkpt lat="40.686800" lon="-4.790950">
        <ele>2249.0</ele>
        <time>2014-06-30T13:53:52Z</time>
      </trkpt>
      <trkpt lat="40.686800" lon="-4.790983">
        <ele>2249.0</ele>
        <time>2014-06-30T13:53:53Z</time>
      </trkpt>
      <trkpt lat="40.686783" lon="-4.791017">
        <ele>2249.0</ele>
        <time>2014-06-30T13:53:54Z</time>
      </trkpt>
      <trkpt lat="40.686783" lon="-4.791067">
        <ele>2249.0</ele>
        <time>2014-06-30T13:53:55Z</time>
      </trkpt>
      <trkpt lat="40.686750" lon="-4.791117">
        <ele>2249.0</ele>
        <time>2014-06-30T13:53:56Z</time>
      </trkpt>
      <trkpt lat="40.686700" lon="-4.791150">
        <ele>2249.0</ele>
        <time>2014-06-30T13:53:57Z</time>
      </trkpt>
      <trkpt lat="40.686617" lon="-4.791133">
        <ele>2249.0</ele>
        <time>2014-06-30T13:53:58Z</time>
      </trkpt>
      <trkpt lat="40.686550" lon="-4.791067">
        <ele>2249.0</ele>
        <time>2014-06-30T13:53:59Z</time>
      </trkpt>
      <trkpt lat="40.686483" lon="-4.790983">
        <ele>2249.0</ele>
        <time>2014-06-30T13:54:00Z</time>
      </trkpt>
      <trkpt lat="40.686433" lon="-4.790883">
        <ele>2249.0</ele>
        <time>2014-06-30T13:54:01Z</time>
      </trkpt>
      <trkpt lat="40.686383" lon="-4.790783">
        <ele>2249.0</ele>
        <time>2014-06-30T13:54:02Z</time>
      </trkpt>
      <trkpt lat="40.686317" lon="-4.790683">
        <ele>2248.0</ele>
        <time>2014-06-30T13:54:03Z</time>
      </trkpt>
      <trkpt lat="40.686267" lon="-4.790567">
        <ele>2248.0</ele>
        <time>2014-06-30T13:54:04Z</time>
      </trkpt>
      <trkpt lat="40.686217" lon="-4.790450">
        <ele>2247.0</ele>
        <time>2014-06-30T13:54:05Z</time>
      </trkpt>
      <trkpt lat="40.686150" lon="-4.790300">
        <ele>2246.0</ele>
        <time>2014-06-30T13:54:06Z</time>
      </trkpt>
      <trkpt lat="40.686083" lon="-4.790167">
        <ele>2246.0</ele>
        <time>2014-06-30T13:54:07Z</time>
      </trkpt>
      <trkpt lat="40.686017" lon="-4.790050">
        <ele>2247.0</ele>
        <time>2014-06-30T13:54:08Z</time>
      </trkpt>
      <trkpt lat="40.685950" lon="-4.789917">
        <ele>2248.0</ele>
        <time>2014-06-30T13:54:09Z</time>
      </trkpt>
      <trkpt lat="40.685883" lon="-4.789783">
        <ele>2248.0</ele>
        <time>2014-06-30T13:54:10Z</time>
      </trkpt>
      <trkpt lat="40.685833" lon="-4.789667">
        <ele>2250.0</ele>
        <time>2014-06-30T13:54:11Z</time>
      </trkpt>
      <trkpt lat="40.685783" lon="-4.789550">
        <ele>2250.0</ele>
        <time>2014-06-30T13:54:12Z</time>
      </trkpt>
      <trkpt lat="40.685750" lon="-4.789450">
        <ele>2250.0</ele>
        <time>2014-06-30T13:54:13Z</time>
      </trkpt>
      <trkpt lat="40.685717" lon="-4.789317">
        <ele>2249.0</ele>
        <time>2014-06-30T13:54:14Z</time>
      </trkpt>
      <trkpt lat="40.685683" lon="-4.789183">
        <ele>2249.0</ele>
        <time>2014-06-30T13:54:15Z</time>
      </trkpt>
      <trkpt lat="40.685650" lon="-4.789017">
        <ele>2247.0</ele>
        <time>2014-06-30T13:54:16Z</time>
      </trkpt>
      <trkpt lat="40.685600" lon="-4.788850">
        <ele>2245.0</ele>
        <time>2014-06-30T13:54:17Z</time>
      </trkpt>
      <trkpt lat="40.685550" lon="-4.788667">
        <ele>2244.0</ele>
        <time>2014-06-30T13:54:18Z</time>
      </trkpt>
      <trkpt lat="40.685500" lon="-4.788500">
        <ele>2243.0</ele>
        <time>2014-06-30T13:54:19Z</time>
      </trkpt>
      <trkpt lat="40.685450" lon="-4.788350">
        <ele>2243.0</ele>
        <time>2014-06-30T13:54:20Z</time>
      </trkpt>
      <trkpt lat="40.685400" lon="-4.788200">
        <ele>2243.0</ele>
        <time>2014-06-30T13:54:21Z</time>
      </trkpt>
      <trkpt lat="40.685367" lon="-4.788033">
        <ele>2242.0</ele>
        <time>2014-06-30T13:54:22Z</time>
      </trkpt>
      <trkpt lat="40.685317" lon="-4.787867">
        <ele>2241.0</ele>
        <time>2014-06-30T13:54:23Z</time>
      </trkpt>
      <trkpt lat="40.685283" lon="-4.787700">
        <ele>2241.0</ele>
        <time>2014-06-30T13:54:24Z</time>
      </trkpt>
      <trkpt lat="40.685233" lon="-4.787517">
        <ele>2240.0</ele>
        <time>2014-06-30T13:54:25Z</time>
      </trkpt>
      <trkpt lat="40.685200" lon="-4.787350">
        <ele>2240.0</ele>
        <time>2014-06-30T13:54:26Z</time>
      </trkpt>
      <trkpt lat="40.685167" lon="-4.787183">
        <ele>2239.0</ele>
        <time>2014-06-30T13:54:27Z</time>
      </trkpt>
      <trkpt lat="40.685150" lon="-4.787017">
        <ele>2239.0</ele>
        <time>2014-06-30T13:54:28Z</time>
      </trkpt>
      <trkpt lat="40.685117" lon="-4.786833">
        <ele>2238.0</ele>
        <time>2014-06-30T13:54:29Z</time>
      </trkpt>
      <trkpt lat="40.685067" lon="-4.786667">
        <ele>2237.0</ele>
        <time>2014-06-30T13:54:30Z</time>
      </trkpt>
      <trkpt lat="40.685033" lon="-4.786500">
        <ele>2236.0</ele>
        <time>2014-06-30T13:54:31Z</time>
      </trkpt>
      <trkpt lat="40.685000" lon="-4.786317">
        <ele>2236.0</ele>
        <time>2014-06-30T13:54:32Z</time>
      </trkpt>
      <trkpt lat="40.684967" lon="-4.786150">
        <ele>2235.0</ele>
        <time>2014-06-30T13:54:33Z</time>
      </trkpt>
      <trkpt lat="40.684933" lon="-4.785967">
        <ele>2234.0</ele>
        <time>2014-06-30T13:54:34Z</time>
      </trkpt>
      <trkpt lat="40.684900" lon="-4.785783">
        <ele>2233.0</ele>
        <time>2014-06-30T13:54:35Z</time>
      </trkpt>
      <trkpt lat="40.684867" lon="-4.785600">
        <ele>2232.0</ele>
        <time>2014-06-30T13:54:36Z</time>
      </trkpt>
      <trkpt lat="40.684817" lon="-4.785433">
        <ele>2231.0</ele>
        <time>2014-06-30T13:54:37Z</time>
      </trkpt>
      <trkpt lat="40.684783" lon="-4.785250">
        <ele>2230.0</ele>
        <time>2014-06-30T13:54:38Z</time>
      </trkpt>
      <trkpt lat="40.684767" lon="-4.785083">
        <ele>2229.0</ele>
        <time>2014-06-30T13:54:39Z</time>
      </trkpt>
      <trkpt lat="40.684717" lon="-4.784900">
        <ele>2227.0</ele>
        <time>2014-06-30T13:54:40Z</time>
      </trkpt>
      <trkpt lat="40.684683" lon="-4.784717">
        <ele>2225.0</ele>
        <time>2014-06-30T13:54:41Z</time>
      </trkpt>
      <trkpt lat="40.684650" lon="-4.784533">
        <ele>2223.0</ele>
        <time>2014-06-30T13:54:42Z</time>
      </trkpt>
      <trkpt lat="40.684617" lon="-4.784367">
        <ele>2222.0</ele>
        <time>2014-06-30T13:54:43Z</time>
      </trkpt>
      <trkpt lat="40.684567" lon="-4.784183">
        <ele>2220.0</ele>
        <time>2014-06-30T13:54:44Z</time>
      </trkpt>
      <trkpt lat="40.684533" lon="-4.784000">
        <ele>2219.0</ele>
        <time>2014-06-30T13:54:45Z</time>
      </trkpt>
      <trkpt lat="40.684483" lon="-4.783817">
        <ele>2218.0</ele>
        <time>2014-06-30T13:54:46Z</time>
      </trkpt>
      <trkpt lat="40.684450" lon="-4.783650">
        <ele>2219.0</ele>
        <time>2014-06-30T13:54:47Z</time>
      </trkpt>
      <trkpt lat="40.684433" lon="-4.783467">
        <ele>2221.0</ele>
        <time>2014-06-30T13:54:48Z</time>
      </trkpt>
      <trkpt lat="40.684383" lon="-4.783317">
        <ele>2222.0</ele>
        <time>2014-06-30T13:54:49Z</time>
      </trkpt>
      <trkpt lat="40.684350" lon="-4.783200">
        <ele>2223.0</ele>
        <time>2014-06-30T13:54:50Z</time>
      </trkpt>
      <trkpt lat="40.684300" lon="-4.783083">
        <ele>2224.0</ele>
        <time>2014-06-30T13:54:51Z</time>
      </trkpt>
      <trkpt lat="40.684250" lon="-4.782950">
        <ele>2225.0</ele>
        <time>2014-06-30T13:54:52Z</time>
      </trkpt>
      <trkpt lat="40.684183" lon="-4.782817">
        <ele>2225.0</ele>
        <time>2014-06-30T13:54:53Z</time>
      </trkpt>
      <trkpt lat="40.684133" lon="-4.782683">
        <ele>2226.0</ele>
        <time>2014-06-30T13:54:54Z</time>
      </trkpt>
      <trkpt lat="40.684083" lon="-4.782550">
        <ele>2226.0</ele>
        <time>2014-06-30T13:54:55Z</time>
      </trkpt>
      <trkpt lat="40.684017" lon="-4.782433">
        <ele>2227.0</ele>
        <time>2014-06-30T13:54:56Z</time>
      </trkpt>
      <trkpt lat="40.683950" lon="-4.782333">
        <ele>2228.0</ele>
        <time>2014-06-30T13:54:57Z</time>
      </trkpt>
      <trkpt lat="40.683867" lon="-4.782250">
        <ele>2229.0</ele>
        <time>2014-06-30T13:54:58Z</time>
      </trkpt>
      <trkpt lat="40.683800" lon="-4.782200">
        <ele>2230.0</ele>
        <time>2014-06-30T13:54:59Z</time>
      </trkpt>
      <trkpt lat="40.683733" lon="-4.782150">
        <ele>2231.0</ele>
        <time>2014-06-30T13:55:00Z</time>
      </trkpt>
      <trkpt lat="40.683667" lon="-4.782133">
        <ele>2232.0</ele>
        <time>2014-06-30T13:55:01Z</time>
      </trkpt>
      <trkpt lat="40.683617" lon="-4.782133">
        <ele>2233.0</ele>
        <time>2014-06-30T13:55:02Z</time>
      </trkpt>
      <trkpt lat="40.683583" lon="-4.782133">
        <ele>2230.0</ele>
        <time>2014-06-30T13:55:03Z</time>
      </trkpt>
      <trkpt lat="40.683550" lon="-4.782133">
        <ele>2231.0</ele>
        <time>2014-06-30T13:55:04Z</time>
      </trkpt>
      <trkpt lat="40.683533" lon="-4.782133">
        <ele>2231.0</ele>
        <time>2014-06-30T13:55:05Z</time>
      </trkpt>
      <trkpt lat="40.683500" lon="-4.782167">
        <ele>2231.0</ele>
        <time>2014-06-30T13:55:06Z</time>
      </trkpt>
      <trkpt lat="40.683483" lon="-4.782183">
        <ele>2232.0</ele>
        <time>2014-06-30T13:55:07Z</time>
      </trkpt>
      <trkpt lat="40.683483" lon="-4.782217">
        <ele>2233.0</ele>
        <time>2014-06-30T13:55:08Z</time>
      </trkpt>
      <trkpt lat="40.683483" lon="-4.782233">
        <ele>2234.0</ele>
        <time>2014-06-30T13:55:09Z</time>
      </trkpt>
      <trkpt lat="40.683500" lon="-4.782250">
        <ele>2235.0</ele>
        <time>2014-06-30T13:55:10Z</time>
      </trkpt>
      <trkpt lat="40.683517" lon="-4.782267">
        <ele>2236.0</ele>
        <time>2014-06-30T13:55:11Z</time>
      </trkpt>
      <trkpt lat="40.683550" lon="-4.782283">
        <ele>2236.0</ele>
        <time>2014-06-30T13:55:12Z</time>
      </trkpt>
      <trkpt lat="40.683583" lon="-4.782267">
        <ele>2237.0</ele>
        <time>2014-06-30T13:55:13Z</time>
      </trkpt>
      <trkpt lat="40.683633" lon="-4.782233">
        <ele>2239.0</ele>
        <time>2014-06-30T13:55:14Z</time>
      </trkpt>
      <trkpt lat="40.683683" lon="-4.782217">
        <ele>2240.0</ele>
        <time>2014-06-30T13:55:15Z</time>
      </trkpt>
      <trkpt lat="40.683733" lon="-4.782183">
        <ele>2241.0</ele>
        <time>2014-06-30T13:55:16Z</time>
      </trkpt>
      <trkpt lat="40.683800" lon="-4.782133">
        <ele>2241.0</ele>
        <time>2014-06-30T13:55:17Z</time>
      </trkpt>
      <trkpt lat="40.683867" lon="-4.782050">
        <ele>2242.0</ele>
        <time>2014-06-30T13:55:18Z</time>
      </trkpt>
      <trkpt lat="40.683933" lon="-4.781917">
        <ele>2243.0</ele>
        <time>2014-06-30T13:55:19Z</time>
      </trkpt>
      <trkpt lat="40.683983" lon="-4.781750">
        <ele>2243.0</ele>
        <time>2014-06-30T13:55:20Z</time>
      </trkpt>
      <trkpt lat="40.683983" lon="-4.781567">
        <ele>2244.0</ele>
        <time>2014-06-30T13:55:21Z</time>
      </trkpt>
      <trkpt lat="40.683983" lon="-4.781383">
        <ele>2248.0</ele>
        <time>2014-06-30T13:55:22Z</time>
      </trkpt>
      <trkpt lat="40.683967" lon="-4.781233">
        <ele>2251.0</ele>
        <time>2014-06-30T13:55:23Z</time>
      </trkpt>
      <trkpt lat="40.683950" lon="-4.781083">
        <ele>2255.0</ele>
        <time>2014-06-30T13:55:24Z</time>
      </trkpt>
      <trkpt lat="40.683933" lon="-4.780933">
        <ele>2258.0</ele>
        <time>2014-06-30T13:55:25Z</time>
      </trkpt>
      <trkpt lat="40.683883" lon="-4.780800">
        <ele>2260.0</ele>
        <time>2014-06-30T13:55:26Z</time>
      </trkpt>
      <trkpt lat="40.683833" lon="-4.780650">
        <ele>2263.0</ele>
        <time>2014-06-30T13:55:27Z</time>
      </trkpt>
      <trkpt lat="40.683767" lon="-4.780517">
        <ele>2265.0</ele>
        <time>2014-06-30T13:55:28Z</time>
      </trkpt>
      <trkpt lat="40.683700" lon="-4.780417">
        <ele>2267.0</ele>
        <time>2014-06-30T13:55:29Z</time>
      </trkpt>
      <trkpt lat="40.683633" lon="-4.780367">
        <ele>2268.0</ele>
        <time>2014-06-30T13:55:30Z</time>
      </trkpt>
      <trkpt lat="40.683550" lon="-4.780350">
        <ele>2269.0</ele>
        <time>2014-06-30T13:55:31Z</time>
      </trkpt>
      <trkpt lat="40.683483" lon="-4.780333">
        <ele>2270.0</ele>
        <time>2014-06-30T13:55:32Z</time>
      </trkpt>
      <trkpt lat="40.683450" lon="-4.780333">
        <ele>2268.0</ele>
        <time>2014-06-30T13:55:33Z</time>
      </trkpt>
      <trkpt lat="40.683400" lon="-4.780350">
        <ele>2267.0</ele>
        <time>2014-06-30T13:55:34Z</time>
      </trkpt>
      <trkpt lat="40.683350" lon="-4.780367">
        <ele>2268.0</ele>
        <time>2014-06-30T13:55:35Z</time>
      </trkpt>
      <trkpt lat="40.683333" lon="-4.780400">
        <ele>2268.0</ele>
        <time>2014-06-30T13:55:36Z</time>
      </trkpt>
      <trkpt lat="40.683317" lon="-4.780433">
        <ele>2269.0</ele>
        <time>2014-06-30T13:55:37Z</time>
      </trkpt>
      <trkpt lat="40.683350" lon="-4.780467">
        <ele>2269.0</ele>
        <time>2014-06-30T13:55:38Z</time>
      </trkpt>
      <trkpt lat="40.683383" lon="-4.780500">
        <ele>2269.0</ele>
        <time>2014-06-30T13:55:39Z</time>
      </trkpt>
      <trkpt lat="40.683417" lon="-4.780517">
        <ele>2270.0</ele>
        <time>2014-06-30T13:55:40Z</time>
      </trkpt>
      <trkpt lat="40.683467" lon="-4.780500">
        <ele>2271.0</ele>
        <time>2014-06-30T13:55:41Z</time>
      </trkpt>
      <trkpt lat="40.683533" lon="-4.780483">
        <ele>2271.0</ele>
        <time>2014-06-30T13:55:42Z</time>
      </trkpt>
      <trkpt lat="40.683600" lon="-4.780450">
        <ele>2272.0</ele>
        <time>2014-06-30T13:55:43Z</time>
      </trkpt>
      <trkpt lat="40.683683" lon="-4.780400">
        <ele>2273.0</ele>
        <time>2014-06-30T13:55:44Z</time>
      </trkpt>
      <trkpt lat="40.683767" lon="-4.780367">
        <ele>2273.0</ele>
        <time>2014-06-30T13:55:45Z</time>
      </trkpt>
      <trkpt lat="40.683833" lon="-4.780317">
        <ele>2274.0</ele>
        <time>2014-06-30T13:55:46Z</time>
      </trkpt>
      <trkpt lat="40.683900" lon="-4.780267">
        <ele>2275.0</ele>
        <time>2014-06-30T13:55:47Z</time>
      </trkpt>
      <trkpt lat="40.683950" lon="-4.780217">
        <ele>2275.0</ele>
        <time>2014-06-30T13:55:48Z</time>
      </trkpt>
      <trkpt lat="40.684017" lon="-4.780200">
        <ele>2276.0</ele>
        <time>2014-06-30T13:55:49Z</time>
      </trkpt>
      <trkpt lat="40.684067" lon="-4.780200">
        <ele>2276.0</ele>
        <time>2014-06-30T13:55:50Z</time>
      </trkpt>
      <trkpt lat="40.684117" lon="-4.780200">
        <ele>2277.0</ele>
        <time>2014-06-30T13:55:51Z</time>
      </trkpt>
      <trkpt lat="40.684150" lon="-4.780233">
        <ele>2277.0</ele>
        <time>2014-06-30T13:55:52Z</time>
      </trkpt>
      <trkpt lat="40.684150" lon="-4.780250">
        <ele>2277.0</ele>
        <time>2014-06-30T13:55:53Z</time>
      </trkpt>
      <trkpt lat="40.684133" lon="-4.780267">
        <ele>2277.0</ele>
        <time>2014-06-30T13:55:54Z</time>
      </trkpt>
      <trkpt lat="40.684067" lon="-4.780250">
        <ele>2278.0</ele>
        <time>2014-06-30T13:55:55Z</time>
      </trkpt>
      <trkpt lat="40.683983" lon="-4.780183">
        <ele>2278.0</ele>
        <time>2014-06-30T13:55:56Z</time>
      </trkpt>
      <trkpt lat="40.683900" lon="-4.780100">
        <ele>2278.0</ele>
        <time>2014-06-30T13:55:57Z</time>
      </trkpt>
      <trkpt lat="40.683833" lon="-4.779983">
        <ele>2279.0</ele>
        <time>2014-06-30T13:55:58Z</time>
      </trkpt>
      <trkpt lat="40.683767" lon="-4.779867">
        <ele>2281.0</ele>
        <time>2014-06-30T13:55:59Z</time>
      </trkpt>
      <trkpt lat="40.683717" lon="-4.779750">
        <ele>2282.0</ele>
        <time>2014-06-30T13:56:00Z</time>
      </trkpt>
      <trkpt lat="40.683667" lon="-4.779650">
        <ele>2284.0</ele>
        <time>2014-06-30T13:56:01Z</time>
      </trkpt>
      <trkpt lat="40.683617" lon="-4.779517">
        <ele>2285.0</ele>
        <time>2014-06-30T13:56:02Z</time>
      </trkpt>
      <trkpt lat="40.683567" lon="-4.779383">
        <ele>2286.0</ele>
        <time>2014-06-30T13:56:03Z</time>
      </trkpt>
      <trkpt lat="40.683517" lon="-4.779250">
        <ele>2287.0</ele>
        <time>2014-06-30T13:56:04Z</time>
      </trkpt>
      <trkpt lat="40.683467" lon="-4.779100">
        <ele>2289.0</ele>
        <time>2014-06-30T13:56:05Z</time>
      </trkpt>
      <trkpt lat="40.683433" lon="-4.778950">
        <ele>2291.0</ele>
        <time>2014-06-30T13:56:06Z</time>
      </trkpt>
      <trkpt lat="40.683417" lon="-4.778800">
        <ele>2292.0</ele>
        <time>2014-06-30T13:56:07Z</time>
      </trkpt>
      <trkpt lat="40.683400" lon="-4.778633">
        <ele>2294.0</ele>
        <time>2014-06-30T13:56:08Z</time>
      </trkpt>
      <trkpt lat="40.683400" lon="-4.778500">
        <ele>2295.0</ele>
        <time>2014-06-30T13:56:09Z</time>
      </trkpt>
      <trkpt lat="40.683383" lon="-4.778333">
        <ele>2294.0</ele>
        <time>2014-06-30T13:56:10Z</time>
      </trkpt>
      <trkpt lat="40.683400" lon="-4.778183">
        <ele>2294.0</ele>
        <time>2014-06-30T13:56:11Z</time>
      </trkpt>
      <trkpt lat="40.683433" lon="-4.778000">
        <ele>2294.0</ele>
        <time>2014-06-30T13:56:12Z</time>
      </trkpt>
      <trkpt lat="40.683483" lon="-4.777833">
        <ele>2294.0</ele>
        <time>2014-06-30T13:56:13Z</time>
      </trkpt>
      <trkpt lat="40.683550" lon="-4.777683">
        <ele>2295.0</ele>
        <time>2014-06-30T13:56:14Z</time>
      </trkpt>
      <trkpt lat="40.683617" lon="-4.777550">
        <ele>2297.0</ele>
        <time>2014-06-30T13:56:15Z</time>
      </trkpt>
      <trkpt lat="40.683683" lon="-4.777450">
        <ele>2299.0</ele>
        <time>2014-06-30T13:56:16Z</time>
      </trkpt>
      <trkpt lat="40.683750" lon="-4.777350">
        <ele>2299.0</ele>
        <time>2014-06-30T13:56:17Z</time>
      </trkpt>
      <trkpt lat="40.683817" lon="-4.777283">
        <ele>2300.0</ele>
        <time>2014-06-30T13:56:18Z</time>
      </trkpt>
      <trkpt lat="40.683900" lon="-4.777217">
        <ele>2301.0</ele>
        <time>2014-06-30T13:56:19Z</time>
      </trkpt>
      <trkpt lat="40.683983" lon="-4.777167">
        <ele>2302.0</ele>
        <time>2014-06-30T13:56:20Z</time>
      </trkpt>
      <trkpt lat="40.684050" lon="-4.777133">
        <ele>2303.0</ele>
        <time>2014-06-30T13:56:21Z</time>
      </trkpt>
      <trkpt lat="40.684100" lon="-4.777133">
        <ele>2303.0</ele>
        <time>2014-06-30T13:56:22Z</time>
      </trkpt>
      <trkpt lat="40.684133" lon="-4.777150">
        <ele>2305.0</ele>
        <time>2014-06-30T13:56:23Z</time>
      </trkpt>
      <trkpt lat="40.684133" lon="-4.777183">
        <ele>2306.0</ele>
        <time>2014-06-30T13:56:24Z</time>
      </trkpt>
      <trkpt lat="40.684117" lon="-4.777217">
        <ele>2307.0</ele>
        <time>2014-06-30T13:56:25Z</time>
      </trkpt>
      <trkpt lat="40.684117" lon="-4.777250">
        <ele>2307.0</ele>
        <time>2014-06-30T13:56:26Z</time>
      </trkpt>
      <trkpt lat="40.684100" lon="-4.777283">
        <ele>2305.0</ele>
        <time>2014-06-30T13:56:27Z</time>
      </trkpt>
      <trkpt lat="40.684100" lon="-4.777333">
        <ele>2305.0</ele>
        <time>2014-06-30T13:56:28Z</time>
      </trkpt>
      <trkpt lat="40.684050" lon="-4.777367">
        <ele>2305.0</ele>
        <time>2014-06-30T13:56:29Z</time>
      </trkpt>
      <trkpt lat="40.683967" lon="-4.777367">
        <ele>2305.0</ele>
        <time>2014-06-30T13:56:30Z</time>
      </trkpt>
      <trkpt lat="40.683900" lon="-4.777333">
        <ele>2306.0</ele>
        <time>2014-06-30T13:56:31Z</time>
      </trkpt>
      <trkpt lat="40.683817" lon="-4.777300">
        <ele>2307.0</ele>
        <time>2014-06-30T13:56:32Z</time>
      </trkpt>
      <trkpt lat="40.683750" lon="-4.777250">
        <ele>2308.0</ele>
        <time>2014-06-30T13:56:33Z</time>
      </trkpt>
      <trkpt lat="40.683717" lon="-4.777217">
        <ele>2307.0</ele>
        <time>2014-06-30T13:56:34Z</time>
      </trkpt>
      <trkpt lat="40.683667" lon="-4.777183">
        <ele>2308.0</ele>
        <time>2014-06-30T13:56:35Z</time>
      </trkpt>
      <trkpt lat="40.683617" lon="-4.777133">
        <ele>2308.0</ele>
        <time>2014-06-30T13:56:36Z</time>
      </trkpt>
      <trkpt lat="40.683550" lon="-4.777067">
        <ele>2308.0</ele>
        <time>2014-06-30T13:56:37Z</time>
      </trkpt>
      <trkpt lat="40.683483" lon="-4.777000">
        <ele>2309.0</ele>
        <time>2014-06-30T13:56:38Z</time>
      </trkpt>
      <trkpt lat="40.683417" lon="-4.776900">
        <ele>2310.0</ele>
        <time>2014-06-30T13:56:39Z</time>
      </trkpt>
      <trkpt lat="40.683350" lon="-4.776783">
        <ele>2311.0</ele>
        <time>2014-06-30T13:56:40Z</time>
      </trkpt>
      <trkpt lat="40.683317" lon="-4.776650">
        <ele>2311.0</ele>
        <time>2014-06-30T13:56:41Z</time>
      </trkpt>
      <trkpt lat="40.683267" lon="-4.776500">
        <ele>2310.0</ele>
        <time>2014-06-30T13:56:42Z</time>
      </trkpt>
      <trkpt lat="40.683217" lon="-4.776333">
        <ele>2309.0</ele>
        <time>2014-06-30T13:56:43Z</time>
      </trkpt>
      <trkpt lat="40.683167" lon="-4.776150">
        <ele>2309.0</ele>
        <time>2014-06-30T13:56:44Z</time>
      </trkpt>
      <trkpt lat="40.683133" lon="-4.775967">
        <ele>2309.0</ele>
        <time>2014-06-30T13:56:45Z</time>
      </trkpt>
      <trkpt lat="40.683133" lon="-4.775783">
        <ele>2308.0</ele>
        <time>2014-06-30T13:56:46Z</time>
      </trkpt>
      <trkpt lat="40.683167" lon="-4.775617">
        <ele>2308.0</ele>
        <time>2014-06-30T13:56:47Z</time>
      </trkpt>
      <trkpt lat="40.683200" lon="-4.775450">
        <ele>2308.0</ele>
        <time>2014-06-30T13:56:48Z</time>
      </trkpt>
      <trkpt lat="40.683250" lon="-4.775300">
        <ele>2308.0</ele>
        <time>2014-06-30T13:56:49Z</time>
      </trkpt>
      <trkpt lat="40.683300" lon="-4.775133">
        <ele>2308.0</ele>
        <time>2014-06-30T13:56:50Z</time>
      </trkpt>
      <trkpt lat="40.683350" lon="-4.774983">
        <ele>2309.0</ele>
        <time>2014-06-30T13:56:51Z</time>
      </trkpt>
      <trkpt lat="40.683400" lon="-4.774833">
        <ele>2310.0</ele>
        <time>2014-06-30T13:56:52Z</time>
      </trkpt>
      <trkpt lat="40.683450" lon="-4.774683">
        <ele>2310.0</ele>
        <time>2014-06-30T13:56:53Z</time>
      </trkpt>
      <trkpt lat="40.683500" lon="-4.774533">
        <ele>2311.0</ele>
        <time>2014-06-30T13:56:54Z</time>
      </trkpt>
      <trkpt lat="40.683550" lon="-4.774383">
        <ele>2310.0</ele>
        <time>2014-06-30T13:56:55Z</time>
      </trkpt>
      <trkpt lat="40.683617" lon="-4.774233">
        <ele>2310.0</ele>
        <time>2014-06-30T13:56:56Z</time>
      </trkpt>
      <trkpt lat="40.683700" lon="-4.774100">
        <ele>2310.0</ele>
        <time>2014-06-30T13:56:57Z</time>
      </trkpt>
      <trkpt lat="40.683800" lon="-4.774000">
        <ele>2310.0</ele>
        <time>2014-06-30T13:56:58Z</time>
      </trkpt>
      <trkpt lat="40.683883" lon="-4.773950">
        <ele>2311.0</ele>
        <time>2014-06-30T13:56:59Z</time>
      </trkpt>
      <trkpt lat="40.683950" lon="-4.773933">
        <ele>2311.0</ele>
        <time>2014-06-30T13:57:00Z</time>
      </trkpt>
      <trkpt lat="40.684017" lon="-4.773933">
        <ele>2310.0</ele>
        <time>2014-06-30T13:57:01Z</time>
      </trkpt>
      <trkpt lat="40.684067" lon="-4.773967">
        <ele>2310.0</ele>
        <time>2014-06-30T13:57:02Z</time>
      </trkpt>
      <trkpt lat="40.684117" lon="-4.774000">
        <ele>2311.0</ele>
        <time>2014-06-30T13:57:03Z</time>
      </trkpt>
      <trkpt lat="40.684150" lon="-4.774033">
        <ele>2311.0</ele>
        <time>2014-06-30T13:57:04Z</time>
      </trkpt>
      <trkpt lat="40.684183" lon="-4.774067">
        <ele>2311.0</ele>
        <time>2014-06-30T13:57:05Z</time>
      </trkpt>
      <trkpt lat="40.684200" lon="-4.774100">
        <ele>2311.0</ele>
        <time>2014-06-30T13:57:06Z</time>
      </trkpt>
      <trkpt lat="40.684200" lon="-4.774133">
        <ele>2311.0</ele>
        <time>2014-06-30T13:57:07Z</time>
      </trkpt>
      <trkpt lat="40.684167" lon="-4.774183">
        <ele>2311.0</ele>
        <time>2014-06-30T13:57:08Z</time>
      </trkpt>
      <trkpt lat="40.684150" lon="-4.774233">
        <ele>2311.0</ele>
        <time>2014-06-30T13:57:09Z</time>
      </trkpt>
      <trkpt lat="40.684133" lon="-4.774283">
        <ele>2311.0</ele>
        <time>2014-06-30T13:57:10Z</time>
      </trkpt>
      <trkpt lat="40.684100" lon="-4.774333">
        <ele>2310.0</ele>
        <time>2014-06-30T13:57:11Z</time>
      </trkpt>
      <trkpt lat="40.684083" lon="-4.774383">
        <ele>2310.0</ele>
        <time>2014-06-30T13:57:12Z</time>
      </trkpt>
      <trkpt lat="40.684050" lon="-4.774433">
        <ele>2310.0</ele>
        <time>2014-06-30T13:57:13Z</time>
      </trkpt>
      <trkpt lat="40.684017" lon="-4.774500">
        <ele>2310.0</ele>
        <time>2014-06-30T13:57:14Z</time>
      </trkpt>
      <trkpt lat="40.683983" lon="-4.774550">
        <ele>2310.0</ele>
        <time>2014-06-30T13:57:15Z</time>
      </trkpt>
      <trkpt lat="40.683933" lon="-4.774600">
        <ele>2310.0</ele>
        <time>2014-06-30T13:57:16Z</time>
      </trkpt>
      <trkpt lat="40.683917" lon="-4.774667">
        <ele>2310.0</ele>
        <time>2014-06-30T13:57:17Z</time>
      </trkpt>
      <trkpt lat="40.683883" lon="-4.774717">
        <ele>2310.0</ele>
        <time>2014-06-30T13:57:18Z</time>
      </trkpt>
      <trkpt lat="40.683850" lon="-4.774767">
        <ele>2310.0</ele>
        <time>2014-06-30T13:57:19Z</time>
      </trkpt>
      <trkpt lat="40.683850" lon="-4.774817">
        <ele>2310.0</ele>
        <time>2014-06-30T13:57:20Z</time>
      </trkpt>
      <trkpt lat="40.683833" lon="-4.774867">
        <ele>2310.0</ele>
        <time>2014-06-30T13:57:21Z</time>
      </trkpt>
      <trkpt lat="40.683800" lon="-4.774917">
        <ele>2310.0</ele>
        <time>2014-06-30T13:57:22Z</time>
      </trkpt>
      <trkpt lat="40.683783" lon="-4.774967">
        <ele>2310.0</ele>
        <time>2014-06-30T13:57:23Z</time>
      </trkpt>
      <trkpt lat="40.683767" lon="-4.775000">
        <ele>2311.0</ele>
        <time>2014-06-30T13:57:24Z</time>
      </trkpt>
      <trkpt lat="40.683750" lon="-4.775017">
        <ele>2312.0</ele>
        <time>2014-06-30T13:57:25Z</time>
      </trkpt>
      <trkpt lat="40.683733" lon="-4.775033">
        <ele>2311.0</ele>
        <time>2014-06-30T13:57:26Z</time>
      </trkpt>
      <trkpt lat="40.683717" lon="-4.775050">
        <ele>2311.0</ele>
        <time>2014-06-30T13:57:27Z</time>
      </trkpt>
      <trkpt lat="40.683683" lon="-4.775067">
        <ele>2312.0</ele>
        <time>2014-06-30T13:57:28Z</time>
      </trkpt>
      <trkpt lat="40.683633" lon="-4.775083">
        <ele>2312.0</ele>
        <time>2014-06-30T13:57:29Z</time>
      </trkpt>
      <trkpt lat="40.683600" lon="-4.775100">
        <ele>2312.0</ele>
        <time>2014-06-30T13:57:30Z</time>
      </trkpt>
      <trkpt lat="40.683567" lon="-4.775117">
        <ele>2312.0</ele>
        <time>2014-06-30T13:57:31Z</time>
      </trkpt>
      <trkpt lat="40.683533" lon="-4.775117">
        <ele>2313.0</ele>
        <time>2014-06-30T13:57:32Z</time>
      </trkpt>
      <trkpt lat="40.683483" lon="-4.775117">
        <ele>2313.0</ele>
        <time>2014-06-30T13:57:33Z</time>
      </trkpt>
      <trkpt lat="40.683450" lon="-4.775100">
        <ele>2314.0</ele>
        <time>2014-06-30T13:57:34Z</time>
      </trkpt>
      <trkpt lat="40.683400" lon="-4.775100">
        <ele>2314.0</ele>
        <time>2014-06-30T13:57:35Z</time>
      </trkpt>
      <trkpt lat="40.683350" lon="-4.775050">
        <ele>2315.0</ele>
        <time>2014-06-30T13:57:36Z</time>
      </trkpt>
      <trkpt lat="40.683300" lon="-4.775000">
        <ele>2315.0</ele>
        <time>2014-06-30T13:57:37Z</time>
      </trkpt>
      <trkpt lat="40.683233" lon="-4.774917">
        <ele>2316.0</ele>
        <time>2014-06-30T13:57:38Z</time>
      </trkpt>
      <trkpt lat="40.683167" lon="-4.774833">
        <ele>2317.0</ele>
        <time>2014-06-30T13:57:39Z</time>
      </trkpt>
      <trkpt lat="40.683100" lon="-4.774717">
        <ele>2321.0</ele>
        <time>2014-06-30T13:57:40Z</time>
      </trkpt>
      <trkpt lat="40.683050" lon="-4.774600">
        <ele>2326.0</ele>
        <time>2014-06-30T13:57:41Z</time>
      </trkpt>
      <trkpt lat="40.683017" lon="-4.774483">
        <ele>2330.0</ele>
        <time>2014-06-30T13:57:42Z</time>
      </trkpt>
      <trkpt lat="40.683000" lon="-4.774367">
        <ele>2332.0</ele>
        <time>2014-06-30T13:57:43Z</time>
      </trkpt>
      <trkpt lat="40.682983" lon="-4.774233">
        <ele>2334.0</ele>
        <time>2014-06-30T13:57:44Z</time>
      </trkpt>
      <trkpt lat="40.682967" lon="-4.774067">
        <ele>2336.0</ele>
        <time>2014-06-30T13:57:45Z</time>
      </trkpt>
      <trkpt lat="40.682950" lon="-4.773883">
        <ele>2337.0</ele>
        <time>2014-06-30T13:57:46Z</time>
      </trkpt>
      <trkpt lat="40.682967" lon="-4.773700">
        <ele>2338.0</ele>
        <time>2014-06-30T13:57:47Z</time>
      </trkpt>
      <trkpt lat="40.683017" lon="-4.773533">
        <ele>2339.0</ele>
        <time>2014-06-30T13:57:48Z</time>
      </trkpt>
      <trkpt lat="40.683083" lon="-4.773383">
        <ele>2340.0</ele>
        <time>2014-06-30T13:57:49Z</time>
      </trkpt>
      <trkpt lat="40.683183" lon="-4.773267">
        <ele>2341.0</ele>
        <time>2014-06-30T13:57:50Z</time>
      </trkpt>
      <trkpt lat="40.683283" lon="-4.773183">
        <ele>2342.0</ele>
        <time>2014-06-30T13:57:51Z</time>
      </trkpt>
      <trkpt lat="40.683350" lon="-4.773133">
        <ele>2344.0</ele>
        <time>2014-06-30T13:57:52Z</time>
      </trkpt>
      <trkpt lat="40.683417" lon="-4.773100">
        <ele>2346.0</ele>
        <time>2014-06-30T13:57:53Z</time>
      </trkpt>
      <trkpt lat="40.683467" lon="-4.773067">
        <ele>2348.0</ele>
        <time>2014-06-30T13:57:54Z</time>
      </trkpt>
      <trkpt lat="40.683517" lon="-4.773067">
        <ele>2345.0</ele>
        <time>2014-06-30T13:57:55Z</time>
      </trkpt>
      <trkpt lat="40.683567" lon="-4.773050">
        <ele>2346.0</ele>
        <time>2014-06-30T13:57:56Z</time>
      </trkpt>
      <trkpt lat="40.683617" lon="-4.773067">
        <ele>2346.0</ele>
        <time>2014-06-30T13:57:57Z</time>
      </trkpt>
      <trkpt lat="40.683650" lon="-4.773083">
        <ele>2346.0</ele>
        <time>2014-06-30T13:57:58Z</time>
      </trkpt>
      <trkpt lat="40.683667" lon="-4.773133">
        <ele>2346.0</ele>
        <time>2014-06-30T13:57:59Z</time>
      </trkpt>
      <trkpt lat="40.683650" lon="-4.773183">
        <ele>2346.0</ele>
        <time>2014-06-30T13:58:00Z</time>
      </trkpt>
      <trkpt lat="40.683633" lon="-4.773217">
        <ele>2346.0</ele>
        <time>2014-06-30T13:58:01Z</time>
      </trkpt>
      <trkpt lat="40.683583" lon="-4.773233">
        <ele>2347.0</ele>
        <time>2014-06-30T13:58:02Z</time>
      </trkpt>
      <trkpt lat="40.683550" lon="-4.773250">
        <ele>2347.0</ele>
        <time>2014-06-30T13:58:03Z</time>
      </trkpt>
      <trkpt lat="40.683517" lon="-4.773233">
        <ele>2348.0</ele>
        <time>2014-06-30T13:58:04Z</time>
      </trkpt>
      <trkpt lat="40.683467" lon="-4.773217">
        <ele>2348.0</ele>
        <time>2014-06-30T13:58:05Z</time>
      </trkpt>
      <trkpt lat="40.683400" lon="-4.773183">
        <ele>2348.0</ele>
        <time>2014-06-30T13:58:06Z</time>
      </trkpt>
      <trkpt lat="40.683333" lon="-4.773133">
        <ele>2349.0</ele>
        <time>2014-06-30T13:58:07Z</time>
      </trkpt>
      <trkpt lat="40.683267" lon="-4.773083">
        <ele>2350.0</ele>
        <time>2014-06-30T13:58:08Z</time>
      </trkpt>
      <trkpt lat="40.683200" lon="-4.773033">
        <ele>2352.0</ele>
        <time>2014-06-30T13:58:09Z</time>
      </trkpt>
      <trkpt lat="40.683167" lon="-4.772967">
        <ele>2354.0</ele>
        <time>2014-06-30T13:58:10Z</time>
      </trkpt>
      <trkpt lat="40.683133" lon="-4.772883">
        <ele>2356.0</ele>
        <time>2014-06-30T13:58:11Z</time>
      </trkpt>
      <trkpt lat="40.683083" lon="-4.772783">
        <ele>2357.0</ele>
        <time>2014-06-30T13:58:12Z</time>
      </trkpt>
      <trkpt lat="40.683050" lon="-4.772683">
        <ele>2358.0</ele>
        <time>2014-06-30T13:58:13Z</time>
      </trkpt>
      <trkpt lat="40.683033" lon="-4.772567">
        <ele>2357.0</ele>
        <time>2014-06-30T13:58:14Z</time>
      </trkpt>
      <trkpt lat="40.683017" lon="-4.772433">
        <ele>2357.0</ele>
        <time>2014-06-30T13:58:15Z</time>
      </trkpt>
      <trkpt lat="40.683017" lon="-4.772267">
        <ele>2356.0</ele>
        <time>2014-06-30T13:58:16Z</time>
      </trkpt>
      <trkpt lat="40.683017" lon="-4.772083">
        <ele>2355.0</ele>
        <time>2014-06-30T13:58:17Z</time>
      </trkpt>
      <trkpt lat="40.683050" lon="-4.771900">
        <ele>2355.0</ele>
        <time>2014-06-30T13:58:18Z</time>
      </trkpt>
      <trkpt lat="40.683100" lon="-4.771750">
        <ele>2355.0</ele>
        <time>2014-06-30T13:58:19Z</time>
      </trkpt>
      <trkpt lat="40.683150" lon="-4.771600">
        <ele>2355.0</ele>
        <time>2014-06-30T13:58:20Z</time>
      </trkpt>
      <trkpt lat="40.683217" lon="-4.771450">
        <ele>2354.0</ele>
        <time>2014-06-30T13:58:21Z</time>
      </trkpt>
      <trkpt lat="40.683300" lon="-4.771317">
        <ele>2353.0</ele>
        <time>2014-06-30T13:58:22Z</time>
      </trkpt>
      <trkpt lat="40.683400" lon="-4.771217">
        <ele>2353.0</ele>
        <time>2014-06-30T13:58:23Z</time>
      </trkpt>
      <trkpt lat="40.683500" lon="-4.771133">
        <ele>2352.0</ele>
        <time>2014-06-30T13:58:24Z</time>
      </trkpt>
      <trkpt lat="40.683600" lon="-4.771100">
        <ele>2352.0</ele>
        <time>2014-06-30T13:58:25Z</time>
      </trkpt>
      <trkpt lat="40.683683" lon="-4.771067">
        <ele>2352.0</ele>
        <time>2014-06-30T13:58:26Z</time>
      </trkpt>
      <trkpt lat="40.683767" lon="-4.771067">
        <ele>2353.0</ele>
        <time>2014-06-30T13:58:27Z</time>
      </trkpt>
      <trkpt lat="40.683833" lon="-4.771067">
        <ele>2353.0</ele>
        <time>2014-06-30T13:58:28Z</time>
      </trkpt>
      <trkpt lat="40.683900" lon="-4.771100">
        <ele>2353.0</ele>
        <time>2014-06-30T13:58:29Z</time>
      </trkpt>
      <trkpt lat="40.683950" lon="-4.771133">
        <ele>2353.0</ele>
        <time>2014-06-30T13:58:30Z</time>
      </trkpt>
      <trkpt lat="40.683983" lon="-4.771167">
        <ele>2354.0</ele>
        <time>2014-06-30T13:58:31Z</time>
      </trkpt>
      <trkpt lat="40.684017" lon="-4.771200">
        <ele>2354.0</ele>
        <time>2014-06-30T13:58:32Z</time>
      </trkpt>
      <trkpt lat="40.684050" lon="-4.771233">
        <ele>2354.0</ele>
        <time>2014-06-30T13:58:33Z</time>
      </trkpt>
      <trkpt lat="40.684067" lon="-4.771250">
        <ele>2355.0</ele>
        <time>2014-06-30T13:58:34Z</time>
      </trkpt>
      <trkpt lat="40.684100" lon="-4.771267">
        <ele>2355.0</ele>
        <time>2014-06-30T13:58:35Z</time>
      </trkpt>
      <trkpt lat="40.684117" lon="-4.771300">
        <ele>2356.0</ele>
        <time>2014-06-30T13:58:36Z</time>
      </trkpt>
      <trkpt lat="40.684117" lon="-4.771333">
        <ele>2356.0</ele>
        <time>2014-06-30T13:58:37Z</time>
      </trkpt>
      <trkpt lat="40.684100" lon="-4.771383">
        <ele>2356.0</ele>
        <time>2014-06-30T13:58:38Z</time>
      </trkpt>
      <trkpt lat="40.684067" lon="-4.771417">
        <ele>2356.0</ele>
        <time>2014-06-30T13:58:39Z</time>
      </trkpt>
      <trkpt lat="40.684017" lon="-4.771450">
        <ele>2356.0</ele>
        <time>2014-06-30T13:58:40Z</time>
      </trkpt>
      <trkpt lat="40.683950" lon="-4.771467">
        <ele>2357.0</ele>
        <time>2014-06-30T13:58:41Z</time>
      </trkpt>
      <trkpt lat="40.683900" lon="-4.771467">
        <ele>2356.0</ele>
        <time>2014-06-30T13:58:42Z</time>
      </trkpt>
      <trkpt lat="40.683850" lon="-4.771450">
        <ele>2356.0</ele>
        <time>2014-06-30T13:58:43Z</time>
      </trkpt>
      <trkpt lat="40.683783" lon="-4.771450">
        <ele>2356.0</ele>
        <time>2014-06-30T13:58:44Z</time>
      </trkpt>
      <trkpt lat="40.683717" lon="-4.771417">
        <ele>2356.0</ele>
        <time>2014-06-30T13:58:45Z</time>
      </trkpt>
      <trkpt lat="40.683633" lon="-4.771400">
        <ele>2356.0</ele>
        <time>2014-06-30T13:58:46Z</time>
      </trkpt>
      <trkpt lat="40.683550" lon="-4.771350">
        <ele>2356.0</ele>
        <time>2014-06-30T13:58:47Z</time>
      </trkpt>
      <trkpt lat="40.683467" lon="-4.771317">
        <ele>2357.0</ele>
        <time>2014-06-30T13:58:48Z</time>
      </trkpt>
      <trkpt lat="40.683383" lon="-4.771283">
        <ele>2357.0</ele>
        <time>2014-06-30T13:58:49Z</time>
      </trkpt>
      <trkpt lat="40.683317" lon="-4.771233">
        <ele>2357.0</ele>
        <time>2014-06-30T13:58:50Z</time>
      </trkpt>
      <trkpt lat="40.683250" lon="-4.771200">
        <ele>2357.0</ele>
        <time>2014-06-30T13:58:51Z</time>
      </trkpt>
      <trkpt lat="40.683200" lon="-4.771183">
        <ele>2357.0</ele>
        <time>2014-06-30T13:58:52Z</time>
      </trkpt>
      <trkpt lat="40.683150" lon="-4.771150">
        <ele>2358.0</ele>
        <time>2014-06-30T13:58:53Z</time>
      </trkpt>
      <trkpt lat="40.683100" lon="-4.771100">
        <ele>2358.0</ele>
        <time>2014-06-30T13:58:54Z</time>
      </trkpt>
      <trkpt lat="40.683050" lon="-4.771050">
        <ele>2359.0</ele>
        <time>2014-06-30T13:58:55Z</time>
      </trkpt>
      <trkpt lat="40.682983" lon="-4.771000">
        <ele>2359.0</ele>
        <time>2014-06-30T13:58:56Z</time>
      </trkpt>
      <trkpt lat="40.682917" lon="-4.770967">
        <ele>2359.0</ele>
        <time>2014-06-30T13:58:57Z</time>
      </trkpt>
      <trkpt lat="40.682867" lon="-4.770950">
        <ele>2359.0</ele>
        <time>2014-06-30T13:58:58Z</time>
      </trkpt>
      <trkpt lat="40.682833" lon="-4.770950">
        <ele>2359.0</ele>
        <time>2014-06-30T13:58:59Z</time>
      </trkpt>
      <trkpt lat="40.682800" lon="-4.770950">
        <ele>2359.0</ele>
        <time>2014-06-30T13:59:00Z</time>
      </trkpt>
      <trkpt lat="40.682767" lon="-4.770967">
        <ele>2359.0</ele>
        <time>2014-06-30T13:59:01Z</time>
      </trkpt>
      <trkpt lat="40.682750" lon="-4.770983">
        <ele>2360.0</ele>
        <time>2014-06-30T13:59:02Z</time>
      </trkpt>
      <trkpt lat="40.682750" lon="-4.771000">
        <ele>2360.0</ele>
        <time>2014-06-30T13:59:03Z</time>
      </trkpt>
      <trkpt lat="40.682750" lon="-4.771033">
        <ele>2361.0</ele>
        <time>2014-06-30T13:59:04Z</time>
      </trkpt>
      <trkpt lat="40.682767" lon="-4.771050">
        <ele>2361.0</ele>
        <time>2014-06-30T13:59:05Z</time>
      </trkpt>
      <trkpt lat="40.682783" lon="-4.771083">
        <ele>2361.0</ele>
        <time>2014-06-30T13:59:06Z</time>
      </trkpt>
      <trkpt lat="40.682833" lon="-4.771083">
        <ele>2361.0</ele>
        <time>2014-06-30T13:59:07Z</time>
      </trkpt>
      <trkpt lat="40.682883" lon="-4.771067">
        <ele>2361.0</ele>
        <time>2014-06-30T13:59:08Z</time>
      </trkpt>
      <trkpt lat="40.682950" lon="-4.771033">
        <ele>2360.0</ele>
        <time>2014-06-30T13:59:09Z</time>
      </trkpt>
      <trkpt lat="40.683033" lon="-4.770967">
        <ele>2360.0</ele>
        <time>2014-06-30T13:59:10Z</time>
      </trkpt>
      <trkpt lat="40.683100" lon="-4.770833">
        <ele>2359.0</ele>
        <time>2014-06-30T13:59:11Z</time>
      </trkpt>
      <trkpt lat="40.683167" lon="-4.770683">
        <ele>2358.0</ele>
        <time>2014-06-30T13:59:12Z</time>
      </trkpt>
      <trkpt lat="40.683183" lon="-4.770533">
        <ele>2357.0</ele>
        <time>2014-06-30T13:59:13Z</time>
      </trkpt>
      <trkpt lat="40.683217" lon="-4.770367">
        <ele>2357.0</ele>
        <time>2014-06-30T13:59:14Z</time>
      </trkpt>
      <trkpt lat="40.683233" lon="-4.770200">
        <ele>2356.0</ele>
        <time>2014-06-30T13:59:15Z</time>
      </trkpt>
      <trkpt lat="40.683250" lon="-4.770033">
        <ele>2356.0</ele>
        <time>2014-06-30T13:59:16Z</time>
      </trkpt>
      <trkpt lat="40.683233" lon="-4.769867">
        <ele>2356.0</ele>
        <time>2014-06-30T13:59:17Z</time>
      </trkpt>
      <trkpt lat="40.683200" lon="-4.769717">
        <ele>2357.0</ele>
        <time>2014-06-30T13:59:18Z</time>
      </trkpt>
      <trkpt lat="40.683133" lon="-4.769600">
        <ele>2358.0</ele>
        <time>2014-06-30T13:59:19Z</time>
      </trkpt>
      <trkpt lat="40.683083" lon="-4.769517">
        <ele>2358.0</ele>
        <time>2014-06-30T13:59:20Z</time>
      </trkpt>
      <trkpt lat="40.683033" lon="-4.769433">
        <ele>2360.0</ele>
        <time>2014-06-30T13:59:21Z</time>
      </trkpt>
      <trkpt lat="40.682983" lon="-4.769367">
        <ele>2361.0</ele>
        <time>2014-06-30T13:59:22Z</time>
      </trkpt>
      <trkpt lat="40.682917" lon="-4.769283">
        <ele>2361.0</ele>
        <time>2014-06-30T13:59:23Z</time>
      </trkpt>
      <trkpt lat="40.682867" lon="-4.769233">
        <ele>2362.0</ele>
        <time>2014-06-30T13:59:24Z</time>
      </trkpt>
      <trkpt lat="40.682800" lon="-4.769217">
        <ele>2362.0</ele>
        <time>2014-06-30T13:59:25Z</time>
      </trkpt>
      <trkpt lat="40.682750" lon="-4.769233">
        <ele>2361.0</ele>
        <time>2014-06-30T13:59:26Z</time>
      </trkpt>
      <trkpt lat="40.682717" lon="-4.769267">
        <ele>2361.0</ele>
        <time>2014-06-30T13:59:27Z</time>
      </trkpt>
      <trkpt lat="40.682700" lon="-4.769300">
        <ele>2362.0</ele>
        <time>2014-06-30T13:59:28Z</time>
      </trkpt>
      <trkpt lat="40.682700" lon="-4.769333">
        <ele>2362.0</ele>
        <time>2014-06-30T13:59:29Z</time>
      </trkpt>
      <trkpt lat="40.682683" lon="-4.769350">
        <ele>2362.0</ele>
        <time>2014-06-30T13:59:30Z</time>
      </trkpt>
      <trkpt lat="40.682683" lon="-4.769383">
        <ele>2362.0</ele>
        <time>2014-06-30T13:59:31Z</time>
      </trkpt>
      <trkpt lat="40.682700" lon="-4.769417">
        <ele>2362.0</ele>
        <time>2014-06-30T13:59:32Z</time>
      </trkpt>
      <trkpt lat="40.682733" lon="-4.769450">
        <ele>2363.0</ele>
        <time>2014-06-30T13:59:33Z</time>
      </trkpt>
      <trkpt lat="40.682783" lon="-4.769467">
        <ele>2363.0</ele>
        <time>2014-06-30T13:59:34Z</time>
      </trkpt>
      <trkpt lat="40.682850" lon="-4.769467">
        <ele>2363.0</ele>
        <time>2014-06-30T13:59:35Z</time>
      </trkpt>
      <trkpt lat="40.682917" lon="-4.769450">
        <ele>2363.0</ele>
        <time>2014-06-30T13:59:36Z</time>
      </trkpt>
      <trkpt lat="40.683000" lon="-4.769417">
        <ele>2363.0</ele>
        <time>2014-06-30T13:59:37Z</time>
      </trkpt>
      <trkpt lat="40.683083" lon="-4.769350">
        <ele>2362.0</ele>
        <time>2014-06-30T13:59:38Z</time>
      </trkpt>
      <trkpt lat="40.683167" lon="-4.769233">
        <ele>2362.0</ele>
        <time>2014-06-30T13:59:39Z</time>
      </trkpt>
      <trkpt lat="40.683233" lon="-4.769083">
        <ele>2361.0</ele>
        <time>2014-06-30T13:59:40Z</time>
      </trkpt>
      <trkpt lat="40.683283" lon="-4.768933">
        <ele>2361.0</ele>
        <time>2014-06-30T13:59:41Z</time>
      </trkpt>
      <trkpt lat="40.683317" lon="-4.768783">
        <ele>2362.0</ele>
        <time>2014-06-30T13:59:42Z</time>
      </trkpt>
      <trkpt lat="40.683333" lon="-4.768650">
        <ele>2362.0</ele>
        <time>2014-06-30T13:59:43Z</time>
      </trkpt>
      <trkpt lat="40.683350" lon="-4.768500">
        <ele>2361.0</ele>
        <time>2014-06-30T13:59:44Z</time>
      </trkpt>
      <trkpt lat="40.683350" lon="-4.768333">
        <ele>2360.0</ele>
        <time>2014-06-30T13:59:45Z</time>
      </trkpt>
      <trkpt lat="40.683350" lon="-4.768167">
        <ele>2360.0</ele>
        <time>2014-06-30T13:59:46Z</time>
      </trkpt>
      <trkpt lat="40.683350" lon="-4.768000">
        <ele>2361.0</ele>
        <time>2014-06-30T13:59:47Z</time>
      </trkpt>
      <trkpt lat="40.683333" lon="-4.767833">
        <ele>2361.0</ele>
        <time>2014-06-30T13:59:48Z</time>
      </trkpt>
      <trkpt lat="40.683317" lon="-4.767683">
        <ele>2362.0</ele>
        <time>2014-06-30T13:59:49Z</time>
      </trkpt>
      <trkpt lat="40.683283" lon="-4.767550">
        <ele>2363.0</ele>
        <time>2014-06-30T13:59:50Z</time>
      </trkpt>
      <trkpt lat="40.683267" lon="-4.767433">
        <ele>2363.0</ele>
        <time>2014-06-30T13:59:51Z</time>
      </trkpt>
      <trkpt lat="40.683233" lon="-4.767300">
        <ele>2363.0</ele>
        <time>2014-06-30T13:59:52Z</time>
      </trkpt>
      <trkpt lat="40.683200" lon="-4.767150">
        <ele>2363.0</ele>
        <time>2014-06-30T13:59:53Z</time>
      </trkpt>
      <trkpt lat="40.683167" lon="-4.767017">
        <ele>2363.0</ele>
        <time>2014-06-30T13:59:54Z</time>
      </trkpt>
      <trkpt lat="40.683117" lon="-4.766900">
        <ele>2363.0</ele>
        <time>2014-06-30T13:59:55Z</time>
      </trkpt>
      <trkpt lat="40.683083" lon="-4.766783">
        <ele>2364.0</ele>
        <time>2014-06-30T13:59:56Z</time>
      </trkpt>
      <trkpt lat="40.683033" lon="-4.766667">
        <ele>2364.0</ele>
        <time>2014-06-30T13:59:57Z</time>
      </trkpt>
      <trkpt lat="40.682967" lon="-4.766583">
        <ele>2364.0</ele>
        <time>2014-06-30T13:59:58Z</time>
      </trkpt>
      <trkpt lat="40.682900" lon="-4.766500">
        <ele>2364.0</ele>
        <time>2014-06-30T13:59:59Z</time>
      </trkpt>
      <trkpt lat="40.682833" lon="-4.766400">
        <ele>2364.0</ele>
        <time>2014-06-30T14:00:00Z</time>
      </trkpt>
      <trkpt lat="40.682783" lon="-4.766300">
        <ele>2364.0</ele>
        <time>2014-06-30T14:00:01Z</time>
      </trkpt>
      <trkpt lat="40.682733" lon="-4.766183">
        <ele>2363.0</ele>
        <time>2014-06-30T14:00:02Z</time>
      </trkpt>
      <trkpt lat="40.682683" lon="-4.766067">
        <ele>2362.0</ele>
        <time>2014-06-30T14:00:03Z</time>
      </trkpt>
      <trkpt lat="40.682617" lon="-4.765933">
        <ele>2361.0</ele>
        <time>2014-06-30T14:00:04Z</time>
      </trkpt>
      <trkpt lat="40.682550" lon="-4.765817">
        <ele>2361.0</ele>
        <time>2014-06-30T14:00:05Z</time>
      </trkpt>
      <trkpt lat="40.682500" lon="-4.765700">
        <ele>2361.0</ele>
        <time>2014-06-30T14:00:06Z</time>
      </trkpt>
      <trkpt lat="40.682467" lon="-4.765600">
        <ele>2360.0</ele>
        <time>2014-06-30T14:00:07Z</time>
      </trkpt>
      <trkpt lat="40.682450" lon="-4.765500">
        <ele>2357.0</ele>
        <time>2014-06-30T14:00:08Z</time>
      </trkpt>
      <trkpt lat="40.682400" lon="-4.765367">
        <ele>2355.0</ele>
        <time>2014-06-30T14:00:09Z</time>
      </trkpt>
      <trkpt lat="40.682350" lon="-4.765233">
        <ele>2352.0</ele>
        <time>2014-06-30T14:00:10Z</time>
      </trkpt>
      <trkpt lat="40.682267" lon="-4.765100">
        <ele>2350.0</ele>
        <time>2014-06-30T14:00:11Z</time>
      </trkpt>
      <trkpt lat="40.682217" lon="-4.764950">
        <ele>2349.0</ele>
        <time>2014-06-30T14:00:12Z</time>
      </trkpt>
      <trkpt lat="40.682183" lon="-4.764817">
        <ele>2350.0</ele>
        <time>2014-06-30T14:00:13Z</time>
      </trkpt>
      <trkpt lat="40.682150" lon="-4.764683">
        <ele>2350.0</ele>
        <time>2014-06-30T14:00:14Z</time>
      </trkpt>
      <trkpt lat="40.682133" lon="-4.764550">
        <ele>2350.0</ele>
        <time>2014-06-30T14:00:15Z</time>
      </trkpt>
      <trkpt lat="40.682117" lon="-4.764450">
        <ele>2350.0</ele>
        <time>2014-06-30T14:00:16Z</time>
      </trkpt>
      <trkpt lat="40.682083" lon="-4.764333">
        <ele>2350.0</ele>
        <time>2014-06-30T14:00:17Z</time>
      </trkpt>
      <trkpt lat="40.682067" lon="-4.764233">
        <ele>2350.0</ele>
        <time>2014-06-30T14:00:18Z</time>
      </trkpt>
      <trkpt lat="40.682050" lon="-4.764100">
        <ele>2348.0</ele>
        <time>2014-06-30T14:00:19Z</time>
      </trkpt>
      <trkpt lat="40.682033" lon="-4.763967">
        <ele>2347.0</ele>
        <time>2014-06-30T14:00:20Z</time>
      </trkpt>
      <trkpt lat="40.682000" lon="-4.763833">
        <ele>2345.0</ele>
        <time>2014-06-30T14:00:21Z</time>
      </trkpt>
      <trkpt lat="40.681967" lon="-4.763700">
        <ele>2345.0</ele>
        <time>2014-06-30T14:00:22Z</time>
      </trkpt>
      <trkpt lat="40.681933" lon="-4.763567">
        <ele>2344.0</ele>
        <time>2014-06-30T14:00:23Z</time>
      </trkpt>
      <trkpt lat="40.681883" lon="-4.763467">
        <ele>2344.0</ele>
        <time>2014-06-30T14:00:24Z</time>
      </trkpt>
      <trkpt lat="40.681833" lon="-4.763350">
        <ele>2343.0</ele>
        <time>2014-06-30T14:00:25Z</time>
      </trkpt>
      <trkpt lat="40.681783" lon="-4.763250">
        <ele>2344.0</ele>
        <time>2014-06-30T14:00:26Z</time>
      </trkpt>
      <trkpt lat="40.681733" lon="-4.763133">
        <ele>2344.0</ele>
        <time>2014-06-30T14:00:27Z</time>
      </trkpt>
      <trkpt lat="40.681683" lon="-4.763017">
        <ele>2343.0</ele>
        <time>2014-06-30T14:00:28Z</time>
      </trkpt>
      <trkpt lat="40.681633" lon="-4.762917">
        <ele>2343.0</ele>
        <time>2014-06-30T14:00:29Z</time>
      </trkpt>
      <trkpt lat="40.681583" lon="-4.762800">
        <ele>2342.0</ele>
        <time>2014-06-30T14:00:30Z</time>
      </trkpt>
      <trkpt lat="40.681550" lon="-4.762683">
        <ele>2341.0</ele>
        <time>2014-06-30T14:00:31Z</time>
      </trkpt>
      <trkpt lat="40.681517" lon="-4.762567">
        <ele>2339.0</ele>
        <time>2014-06-30T14:00:32Z</time>
      </trkpt>
      <trkpt lat="40.681483" lon="-4.762467">
        <ele>2337.0</ele>
        <time>2014-06-30T14:00:33Z</time>
      </trkpt>
      <trkpt lat="40.681467" lon="-4.762350">
        <ele>2338.0</ele>
        <time>2014-06-30T14:00:34Z</time>
      </trkpt>
      <trkpt lat="40.681417" lon="-4.762233">
        <ele>2336.0</ele>
        <time>2014-06-30T14:00:35Z</time>
      </trkpt>
      <trkpt lat="40.681367" lon="-4.762117">
        <ele>2334.0</ele>
        <time>2014-06-30T14:00:36Z</time>
      </trkpt>
      <trkpt lat="40.681317" lon="-4.762000">
        <ele>2331.0</ele>
        <time>2014-06-30T14:00:37Z</time>
      </trkpt>
      <trkpt lat="40.681267" lon="-4.761867">
        <ele>2328.0</ele>
        <time>2014-06-30T14:00:38Z</time>
      </trkpt>
      <trkpt lat="40.681233" lon="-4.761750">
        <ele>2326.0</ele>
        <time>2014-06-30T14:00:39Z</time>
      </trkpt>
      <trkpt lat="40.681217" lon="-4.761633">
        <ele>2323.0</ele>
        <time>2014-06-30T14:00:40Z</time>
      </trkpt>
      <trkpt lat="40.681183" lon="-4.761533">
        <ele>2321.0</ele>
        <time>2014-06-30T14:00:41Z</time>
      </trkpt>
      <trkpt lat="40.681150" lon="-4.761417">
        <ele>2322.0</ele>
        <time>2014-06-30T14:00:42Z</time>
      </trkpt>
      <trkpt lat="40.681100" lon="-4.761300">
        <ele>2320.0</ele>
        <time>2014-06-30T14:00:43Z</time>
      </trkpt>
      <trkpt lat="40.681067" lon="-4.761167">
        <ele>2316.0</ele>
        <time>2014-06-30T14:00:44Z</time>
      </trkpt>
      <trkpt lat="40.681033" lon="-4.761050">
        <ele>2312.0</ele>
        <time>2014-06-30T14:00:45Z</time>
      </trkpt>
      <trkpt lat="40.680983" lon="-4.760933">
        <ele>2309.0</ele>
        <time>2014-06-30T14:00:46Z</time>
      </trkpt>
      <trkpt lat="40.680933" lon="-4.760833">
        <ele>2305.0</ele>
        <time>2014-06-30T14:00:47Z</time>
      </trkpt>
      <trkpt lat="40.680883" lon="-4.760733">
        <ele>2302.0</ele>
        <time>2014-06-30T14:00:48Z</time>
      </trkpt>
      <trkpt lat="40.680833" lon="-4.760650">
        <ele>2298.0</ele>
        <time>2014-06-30T14:00:49Z</time>
      </trkpt>
      <trkpt lat="40.680783" lon="-4.760533">
        <ele>2292.0</ele>
        <time>2014-06-30T14:00:50Z</time>
      </trkpt>
      <trkpt lat="40.680750" lon="-4.760400">
        <ele>2287.0</ele>
        <time>2014-06-30T14:00:51Z</time>
      </trkpt>
      <trkpt lat="40.680683" lon="-4.760267">
        <ele>2282.0</ele>
        <time>2014-06-30T14:00:52Z</time>
      </trkpt>
      <trkpt lat="40.680633" lon="-4.760133">
        <ele>2277.0</ele>
        <time>2014-06-30T14:00:53Z</time>
      </trkpt>
      <trkpt lat="40.680600" lon="-4.760000">
        <ele>2273.0</ele>
        <time>2014-06-30T14:00:54Z</time>
      </trkpt>
      <trkpt lat="40.680567" lon="-4.759883">
        <ele>2269.0</ele>
        <time>2014-06-30T14:00:55Z</time>
      </trkpt>
      <trkpt lat="40.680533" lon="-4.759767">
        <ele>2265.0</ele>
        <time>2014-06-30T14:00:56Z</time>
      </trkpt>
      <trkpt lat="40.680500" lon="-4.759633">
        <ele>2261.0</ele>
        <time>2014-06-30T14:00:57Z</time>
      </trkpt>
      <trkpt lat="40.680467" lon="-4.759500">
        <ele>2256.0</ele>
        <time>2014-06-30T14:00:58Z</time>
      </trkpt>
      <trkpt lat="40.680433" lon="-4.759367">
        <ele>2252.0</ele>
        <time>2014-06-30T14:00:59Z</time>
      </trkpt>
      <trkpt lat="40.680383" lon="-4.759233">
        <ele>2248.0</ele>
        <time>2014-06-30T14:01:00Z</time>
      </trkpt>
      <trkpt lat="40.680350" lon="-4.759100">
        <ele>2246.0</ele>
        <time>2014-06-30T14:01:01Z</time>
      </trkpt>
      <trkpt lat="40.680300" lon="-4.758967">
        <ele>2243.0</ele>
        <time>2014-06-30T14:01:02Z</time>
      </trkpt>
      <trkpt lat="40.680250" lon="-4.758850">
        <ele>2240.0</ele>
        <time>2014-06-30T14:01:03Z</time>
      </trkpt>
      <trkpt lat="40.680200" lon="-4.758700">
        <ele>2236.0</ele>
        <time>2014-06-30T14:01:04Z</time>
      </trkpt>
      <trkpt lat="40.680167" lon="-4.758567">
        <ele>2233.0</ele>
        <time>2014-06-30T14:01:05Z</time>
      </trkpt>
      <trkpt lat="40.680117" lon="-4.758433">
        <ele>2230.0</ele>
        <time>2014-06-30T14:01:06Z</time>
      </trkpt>
      <trkpt lat="40.680067" lon="-4.758317">
        <ele>2228.0</ele>
        <time>2014-06-30T14:01:07Z</time>
      </trkpt>
      <trkpt lat="40.680000" lon="-4.758200">
        <ele>2226.0</ele>
        <time>2014-06-30T14:01:08Z</time>
      </trkpt>
      <trkpt lat="40.679950" lon="-4.758117">
        <ele>2223.0</ele>
        <time>2014-06-30T14:01:09Z</time>
      </trkpt>
      <trkpt lat="40.679900" lon="-4.758017">
        <ele>2220.0</ele>
        <time>2014-06-30T14:01:10Z</time>
      </trkpt>
      <trkpt lat="40.679833" lon="-4.757900">
        <ele>2217.0</ele>
        <time>2014-06-30T14:01:11Z</time>
      </trkpt>
      <trkpt lat="40.679783" lon="-4.757783">
        <ele>2214.0</ele>
        <time>2014-06-30T14:01:12Z</time>
      </trkpt>
      <trkpt lat="40.679717" lon="-4.757667">
        <ele>2210.0</ele>
        <time>2014-06-30T14:01:13Z</time>
      </trkpt>
      <trkpt lat="40.679667" lon="-4.757533">
        <ele>2208.0</ele>
        <time>2014-06-30T14:01:14Z</time>
      </trkpt>
      <trkpt lat="40.679617" lon="-4.757400">
        <ele>2205.0</ele>
        <time>2014-06-30T14:01:15Z</time>
      </trkpt>
      <trkpt lat="40.679550" lon="-4.757267">
        <ele>2202.0</ele>
        <time>2014-06-30T14:01:16Z</time>
      </trkpt>
      <trkpt lat="40.679483" lon="-4.757167">
        <ele>2199.0</ele>
        <time>2014-06-30T14:01:17Z</time>
      </trkpt>
      <trkpt lat="40.679400" lon="-4.757083">
        <ele>2196.0</ele>
        <time>2014-06-30T14:01:18Z</time>
      </trkpt>
      <trkpt lat="40.679317" lon="-4.756983">
        <ele>2194.0</ele>
        <time>2014-06-30T14:01:19Z</time>
      </trkpt>
      <trkpt lat="40.679250" lon="-4.756883">
        <ele>2191.0</ele>
        <time>2014-06-30T14:01:20Z</time>
      </trkpt>
      <trkpt lat="40.679183" lon="-4.756783">
        <ele>2188.0</ele>
        <time>2014-06-30T14:01:21Z</time>
      </trkpt>
      <trkpt lat="40.679133" lon="-4.756667">
        <ele>2184.0</ele>
        <time>2014-06-30T14:01:22Z</time>
      </trkpt>
      <trkpt lat="40.679083" lon="-4.756550">
        <ele>2181.0</ele>
        <time>2014-06-30T14:01:23Z</time>
      </trkpt>
      <trkpt lat="40.679033" lon="-4.756417">
        <ele>2178.0</ele>
        <time>2014-06-30T14:01:24Z</time>
      </trkpt>
      <trkpt lat="40.678983" lon="-4.756283">
        <ele>2174.0</ele>
        <time>2014-06-30T14:01:25Z</time>
      </trkpt>
      <trkpt lat="40.678933" lon="-4.756150">
        <ele>2171.0</ele>
        <time>2014-06-30T14:01:26Z</time>
      </trkpt>
      <trkpt lat="40.678883" lon="-4.756017">
        <ele>2168.0</ele>
        <time>2014-06-30T14:01:27Z</time>
      </trkpt>
      <trkpt lat="40.678833" lon="-4.755917">
        <ele>2165.0</ele>
        <time>2014-06-30T14:01:28Z</time>
      </trkpt>
      <trkpt lat="40.678783" lon="-4.755800">
        <ele>2161.0</ele>
        <time>2014-06-30T14:01:29Z</time>
      </trkpt>
      <trkpt lat="40.678733" lon="-4.755683">
        <ele>2157.0</ele>
        <time>2014-06-30T14:01:30Z</time>
      </trkpt>
      <trkpt lat="40.678683" lon="-4.755550">
        <ele>2153.0</ele>
        <time>2014-06-30T14:01:31Z</time>
      </trkpt>
      <trkpt lat="40.678633" lon="-4.755417">
        <ele>2152.0</ele>
        <time>2014-06-30T14:01:32Z</time>
      </trkpt>
      <trkpt lat="40.678583" lon="-4.755317">
        <ele>2152.0</ele>
        <time>2014-06-30T14:01:33Z</time>
      </trkpt>
      <trkpt lat="40.678533" lon="-4.755217">
        <ele>2154.0</ele>
        <time>2014-06-30T14:01:34Z</time>
      </trkpt>
      <trkpt lat="40.678500" lon="-4.755150">
        <ele>2155.0</ele>
        <time>2014-06-30T14:01:35Z</time>
      </trkpt>
      <trkpt lat="40.678467" lon="-4.755067">
        <ele>2155.0</ele>
        <time>2014-06-30T14:01:36Z</time>
      </trkpt>
      <trkpt lat="40.678417" lon="-4.755000">
        <ele>2155.0</ele>
        <time>2014-06-30T14:01:37Z</time>
      </trkpt>
      <trkpt lat="40.678367" lon="-4.754917">
        <ele>2155.0</ele>
        <time>2014-06-30T14:01:38Z</time>
      </trkpt>
      <trkpt lat="40.678317" lon="-4.754850">
        <ele>2155.0</ele>
        <time>2014-06-30T14:01:39Z</time>
      </trkpt>
      <trkpt lat="40.678250" lon="-4.754750">
        <ele>2154.0</ele>
        <time>2014-06-30T14:01:40Z</time>
      </trkpt>
      <trkpt lat="40.678200" lon="-4.754633">
        <ele>2154.0</ele>
        <time>2014-06-30T14:01:41Z</time>
      </trkpt>
      <trkpt lat="40.678133" lon="-4.754517">
        <ele>2154.0</ele>
        <time>2014-06-30T14:01:42Z</time>
      </trkpt>
      <trkpt lat="40.678083" lon="-4.754417">
        <ele>2155.0</ele>
        <time>2014-06-30T14:01:43Z</time>
      </trkpt>
      <trkpt lat="40.678033" lon="-4.754333">
        <ele>2157.0</ele>
        <time>2014-06-30T14:01:44Z</time>
      </trkpt>
      <trkpt lat="40.678000" lon="-4.754300">
        <ele>2156.0</ele>
        <time>2014-06-30T14:01:45Z</time>
      </trkpt>
      <trkpt lat="40.677950" lon="-4.754250">
        <ele>2156.0</ele>
        <time>2014-06-30T14:01:46Z</time>
      </trkpt>
      <trkpt lat="40.677933" lon="-4.754183">
        <ele>2157.0</ele>
        <time>2014-06-30T14:01:47Z</time>
      </trkpt>
      <trkpt lat="40.677917" lon="-4.754133">
        <ele>2157.0</ele>
        <time>2014-06-30T14:01:48Z</time>
      </trkpt>
      <trkpt lat="40.677917" lon="-4.754050">
        <ele>2157.0</ele>
        <time>2014-06-30T14:01:49Z</time>
      </trkpt>
      <trkpt lat="40.677933" lon="-4.753967">
        <ele>2157.0</ele>
        <time>2014-06-30T14:01:50Z</time>
      </trkpt>
      <trkpt lat="40.677967" lon="-4.753883">
        <ele>2157.0</ele>
        <time>2014-06-30T14:01:51Z</time>
      </trkpt>
      <trkpt lat="40.678050" lon="-4.753833">
        <ele>2158.0</ele>
        <time>2014-06-30T14:01:52Z</time>
      </trkpt>
      <trkpt lat="40.678133" lon="-4.753817">
        <ele>2158.0</ele>
        <time>2014-06-30T14:01:53Z</time>
      </trkpt>
      <trkpt lat="40.678183" lon="-4.753900">
        <ele>2158.0</ele>
        <time>2014-06-30T14:01:54Z</time>
      </trkpt>
      <trkpt lat="40.678217" lon="-4.754050">
        <ele>2159.0</ele>
        <time>2014-06-30T14:01:55Z</time>
      </trkpt>
      <trkpt lat="40.678217" lon="-4.754183">
        <ele>2159.0</ele>
        <time>2014-06-30T14:01:56Z</time>
      </trkpt>
      <trkpt lat="40.678217" lon="-4.754300">
        <ele>2159.0</ele>
        <time>2014-06-30T14:01:57Z</time>
      </trkpt>
      <trkpt lat="40.678200" lon="-4.754383">
        <ele>2160.0</ele>
        <time>2014-06-30T14:01:58Z</time>
      </trkpt>
      <trkpt lat="40.678200" lon="-4.754483">
        <ele>2160.0</ele>
        <time>2014-06-30T14:01:59Z</time>
      </trkpt>
      <trkpt lat="40.678183" lon="-4.754567">
        <ele>2160.0</ele>
        <time>2014-06-30T14:02:00Z</time>
      </trkpt>
      <trkpt lat="40.678133" lon="-4.754650">
        <ele>2160.0</ele>
        <time>2014-06-30T14:02:01Z</time>
      </trkpt>
      <trkpt lat="40.678033" lon="-4.754700">
        <ele>2160.0</ele>
        <time>2014-06-30T14:02:02Z</time>
      </trkpt>
      <trkpt lat="40.677933" lon="-4.754700">
        <ele>2160.0</ele>
        <time>2014-06-30T14:02:03Z</time>
      </trkpt>
      <trkpt lat="40.677833" lon="-4.754650">
        <ele>2160.0</ele>
        <time>2014-06-30T14:02:04Z</time>
      </trkpt>
      <trkpt lat="40.677750" lon="-4.754567">
        <ele>2161.0</ele>
        <time>2014-06-30T14:02:05Z</time>
      </trkpt>
      <trkpt lat="40.677700" lon="-4.754500">
        <ele>2164.0</ele>
        <time>2014-06-30T14:02:06Z</time>
      </trkpt>
      <trkpt lat="40.677633" lon="-4.754450">
        <ele>2166.0</ele>
        <time>2014-06-30T14:02:07Z</time>
      </trkpt>
      <trkpt lat="40.677583" lon="-4.754417">
        <ele>2167.0</ele>
        <time>2014-06-30T14:02:08Z</time>
      </trkpt>
      <trkpt lat="40.677533" lon="-4.754383">
        <ele>2165.0</ele>
        <time>2014-06-30T14:02:09Z</time>
      </trkpt>
      <trkpt lat="40.677467" lon="-4.754317">
        <ele>2166.0</ele>
        <time>2014-06-30T14:02:10Z</time>
      </trkpt>
      <trkpt lat="40.677417" lon="-4.754233">
        <ele>2166.0</ele>
        <time>2014-06-30T14:02:11Z</time>
      </trkpt>
      <trkpt lat="40.677383" lon="-4.754117">
        <ele>2166.0</ele>
        <time>2014-06-30T14:02:12Z</time>
      </trkpt>
      <trkpt lat="40.677333" lon="-4.754017">
        <ele>2166.0</ele>
        <time>2014-06-30T14:02:13Z</time>
      </trkpt>
      <trkpt lat="40.677267" lon="-4.753900">
        <ele>2166.0</ele>
        <time>2014-06-30T14:02:14Z</time>
      </trkpt>
      <trkpt lat="40.677200" lon="-4.753800">
        <ele>2168.0</ele>
        <time>2014-06-30T14:02:15Z</time>
      </trkpt>
      <trkpt lat="40.677133" lon="-4.753717">
        <ele>2169.0</ele>
        <time>2014-06-30T14:02:16Z</time>
      </trkpt>
      <trkpt lat="40.677083" lon="-4.753650">
        <ele>2169.0</ele>
        <time>2014-06-30T14:02:17Z</time>
      </trkpt>
      <trkpt lat="40.677017" lon="-4.753583">
        <ele>2169.0</ele>
        <time>2014-06-30T14:02:18Z</time>
      </trkpt>
      <trkpt lat="40.676967" lon="-4.753533">
        <ele>2172.0</ele>
        <time>2014-06-30T14:02:19Z</time>
      </trkpt>
      <trkpt lat="40.676950" lon="-4.753467">
        <ele>2174.0</ele>
        <time>2014-06-30T14:02:20Z</time>
      </trkpt>
      <trkpt lat="40.676950" lon="-4.753400">
        <ele>2175.0</ele>
        <time>2014-06-30T14:02:21Z</time>
      </trkpt>
      <trkpt lat="40.676983" lon="-4.753317">
        <ele>2176.0</ele>
        <time>2014-06-30T14:02:22Z</time>
      </trkpt>
      <trkpt lat="40.677000" lon="-4.753233">
        <ele>2176.0</ele>
        <time>2014-06-30T14:02:23Z</time>
      </trkpt>
      <trkpt lat="40.677033" lon="-4.753167">
        <ele>2177.0</ele>
        <time>2014-06-30T14:02:24Z</time>
      </trkpt>
      <trkpt lat="40.677100" lon="-4.753117">
        <ele>2179.0</ele>
        <time>2014-06-30T14:02:25Z</time>
      </trkpt>
      <trkpt lat="40.677150" lon="-4.753133">
        <ele>2180.0</ele>
        <time>2014-06-30T14:02:26Z</time>
      </trkpt>
      <trkpt lat="40.677217" lon="-4.753183">
        <ele>2182.0</ele>
        <time>2014-06-30T14:02:27Z</time>
      </trkpt>
      <trkpt lat="40.677267" lon="-4.753283">
        <ele>2183.0</ele>
        <time>2014-06-30T14:02:28Z</time>
      </trkpt>
      <trkpt lat="40.677283" lon="-4.753400">
        <ele>2185.0</ele>
        <time>2014-06-30T14:02:29Z</time>
      </trkpt>
      <trkpt lat="40.677300" lon="-4.753517">
        <ele>2186.0</ele>
        <time>2014-06-30T14:02:30Z</time>
      </trkpt>
      <trkpt lat="40.677300" lon="-4.753667">
        <ele>2188.0</ele>
        <time>2014-06-30T14:02:31Z</time>
      </trkpt>
      <trkpt lat="40.677300" lon="-4.753783">
        <ele>2190.0</ele>
        <time>2014-06-30T14:02:32Z</time>
      </trkpt>
      <trkpt lat="40.677267" lon="-4.753867">
        <ele>2191.0</ele>
        <time>2014-06-30T14:02:33Z</time>
      </trkpt>
      <trkpt lat="40.677233" lon="-4.753950">
        <ele>2189.0</ele>
        <time>2014-06-30T14:02:34Z</time>
      </trkpt>
      <trkpt lat="40.677150" lon="-4.753983">
        <ele>2189.0</ele>
        <time>2014-06-30T14:02:35Z</time>
      </trkpt>
      <trkpt lat="40.677033" lon="-4.754000">
        <ele>2189.0</ele>
        <time>2014-06-30T14:02:36Z</time>
      </trkpt>
      <trkpt lat="40.676933" lon="-4.754000">
        <ele>2190.0</ele>
        <time>2014-06-30T14:02:37Z</time>
      </trkpt>
      <trkpt lat="40.676850" lon="-4.753950">
        <ele>2191.0</ele>
        <time>2014-06-30T14:02:38Z</time>
      </trkpt>
      <trkpt lat="40.676767" lon="-4.753867">
        <ele>2193.0</ele>
        <time>2014-06-30T14:02:39Z</time>
      </trkpt>
      <trkpt lat="40.676717" lon="-4.753817">
        <ele>2195.0</ele>
        <time>2014-06-30T14:02:40Z</time>
      </trkpt>
      <trkpt lat="40.676650" lon="-4.753783">
        <ele>2196.0</ele>
        <time>2014-06-30T14:02:41Z</time>
      </trkpt>
      <trkpt lat="40.676583" lon="-4.753767">
        <ele>2197.0</ele>
        <time>2014-06-30T14:02:42Z</time>
      </trkpt>
      <trkpt lat="40.676500" lon="-4.753700">
        <ele>2196.0</ele>
        <time>2014-06-30T14:02:43Z</time>
      </trkpt>
      <trkpt lat="40.676433" lon="-4.753633">
        <ele>2196.0</ele>
        <time>2014-06-30T14:02:44Z</time>
      </trkpt>
      <trkpt lat="40.676350" lon="-4.753550">
        <ele>2197.0</ele>
        <time>2014-06-30T14:02:45Z</time>
      </trkpt>
      <trkpt lat="40.676283" lon="-4.753483">
        <ele>2199.0</ele>
        <time>2014-06-30T14:02:46Z</time>
      </trkpt>
      <trkpt lat="40.676200" lon="-4.753417">
        <ele>2199.0</ele>
        <time>2014-06-30T14:02:47Z</time>
      </trkpt>
      <trkpt lat="40.676133" lon="-4.753350">
        <ele>2199.0</ele>
        <time>2014-06-30T14:02:48Z</time>
      </trkpt>
      <trkpt lat="40.676067" lon="-4.753267">
        <ele>2199.0</ele>
        <time>2014-06-30T14:02:49Z</time>
      </trkpt>
      <trkpt lat="40.676017" lon="-4.753183">
        <ele>2200.0</ele>
        <time>2014-06-30T14:02:50Z</time>
      </trkpt>
      <trkpt lat="40.675967" lon="-4.753083">
        <ele>2199.0</ele>
        <time>2014-06-30T14:02:51Z</time>
      </trkpt>
      <trkpt lat="40.675933" lon="-4.752983">
        <ele>2199.0</ele>
        <time>2014-06-30T14:02:52Z</time>
      </trkpt>
      <trkpt lat="40.675883" lon="-4.752900">
        <ele>2198.0</ele>
        <time>2014-06-30T14:02:53Z</time>
      </trkpt>
      <trkpt lat="40.675817" lon="-4.752800">
        <ele>2197.0</ele>
        <time>2014-06-30T14:02:54Z</time>
      </trkpt>
      <trkpt lat="40.675767" lon="-4.752700">
        <ele>2196.0</ele>
        <time>2014-06-30T14:02:55Z</time>
      </trkpt>
      <trkpt lat="40.675700" lon="-4.752600">
        <ele>2195.0</ele>
        <time>2014-06-30T14:02:56Z</time>
      </trkpt>
      <trkpt lat="40.675633" lon="-4.752483">
        <ele>2194.0</ele>
        <time>2014-06-30T14:02:57Z</time>
      </trkpt>
      <trkpt lat="40.675583" lon="-4.752367">
        <ele>2192.0</ele>
        <time>2014-06-30T14:02:58Z</time>
      </trkpt>
      <trkpt lat="40.675517" lon="-4.752267">
        <ele>2191.0</ele>
        <time>2014-06-30T14:02:59Z</time>
      </trkpt>
      <trkpt lat="40.675467" lon="-4.752167">
        <ele>2191.0</ele>
        <time>2014-06-30T14:03:00Z</time>
      </trkpt>
      <trkpt lat="40.675433" lon="-4.752067">
        <ele>2191.0</ele>
        <time>2014-06-30T14:03:01Z</time>
      </trkpt>
      <trkpt lat="40.675400" lon="-4.751967">
        <ele>2191.0</ele>
        <time>2014-06-30T14:03:02Z</time>
      </trkpt>
      <trkpt lat="40.675367" lon="-4.751867">
        <ele>2192.0</ele>
        <time>2014-06-30T14:03:03Z</time>
      </trkpt>
      <trkpt lat="40.675333" lon="-4.751783">
        <ele>2192.0</ele>
        <time>2014-06-30T14:03:04Z</time>
      </trkpt>
      <trkpt lat="40.675300" lon="-4.751700">
        <ele>2192.0</ele>
        <time>2014-06-30T14:03:05Z</time>
      </trkpt>
      <trkpt lat="40.675250" lon="-4.751633">
        <ele>2192.0</ele>
        <time>2014-06-30T14:03:06Z</time>
      </trkpt>
      <trkpt lat="40.675217" lon="-4.751533">
        <ele>2192.0</ele>
        <time>2014-06-30T14:03:07Z</time>
      </trkpt>
      <trkpt lat="40.675183" lon="-4.751450">
        <ele>2192.0</ele>
        <time>2014-06-30T14:03:08Z</time>
      </trkpt>
      <trkpt lat="40.675150" lon="-4.751367">
        <ele>2191.0</ele>
        <time>2014-06-30T14:03:09Z</time>
      </trkpt>
      <trkpt lat="40.675117" lon="-4.751250">
        <ele>2190.0</ele>
        <time>2014-06-30T14:03:10Z</time>
      </trkpt>
      <trkpt lat="40.675083" lon="-4.751133">
        <ele>2189.0</ele>
        <time>2014-06-30T14:03:11Z</time>
      </trkpt>
      <trkpt lat="40.675033" lon="-4.751017">
        <ele>2187.0</ele>
        <time>2014-06-30T14:03:12Z</time>
      </trkpt>
      <trkpt lat="40.675000" lon="-4.750883">
        <ele>2185.0</ele>
        <time>2014-06-30T14:03:13Z</time>
      </trkpt>
      <trkpt lat="40.674967" lon="-4.750767">
        <ele>2186.0</ele>
        <time>2014-06-30T14:03:14Z</time>
      </trkpt>
      <trkpt lat="40.674950" lon="-4.750667">
        <ele>2189.0</ele>
        <time>2014-06-30T14:03:15Z</time>
      </trkpt>
      <trkpt lat="40.674933" lon="-4.750583">
        <ele>2190.0</ele>
        <time>2014-06-30T14:03:16Z</time>
      </trkpt>
      <trkpt lat="40.674900" lon="-4.750550">
        <ele>2189.0</ele>
        <time>2014-06-30T14:03:17Z</time>
      </trkpt>
      <trkpt lat="40.674883" lon="-4.750500">
        <ele>2189.0</ele>
        <time>2014-06-30T14:03:18Z</time>
      </trkpt>
      <trkpt lat="40.674867" lon="-4.750450">
        <ele>2189.0</ele>
        <time>2014-06-30T14:03:19Z</time>
      </trkpt>
      <trkpt lat="40.674850" lon="-4.750367">
        <ele>2189.0</ele>
        <time>2014-06-30T14:03:20Z</time>
      </trkpt>
      <trkpt lat="40.674883" lon="-4.750300">
        <ele>2189.0</ele>
        <time>2014-06-30T14:03:21Z</time>
      </trkpt>
      <trkpt lat="40.674933" lon="-4.750233">
        <ele>2189.0</ele>
        <time>2014-06-30T14:03:22Z</time>
      </trkpt>
      <trkpt lat="40.675017" lon="-4.750200">
        <ele>2189.0</ele>
        <time>2014-06-30T14:03:23Z</time>
      </trkpt>
      <trkpt lat="40.675117" lon="-4.750200">
        <ele>2189.0</ele>
        <time>2014-06-30T14:03:24Z</time>
      </trkpt>
      <trkpt lat="40.675217" lon="-4.750250">
        <ele>2189.0</ele>
        <time>2014-06-30T14:03:25Z</time>
      </trkpt>
      <trkpt lat="40.675300" lon="-4.750300">
        <ele>2189.0</ele>
        <time>2014-06-30T14:03:26Z</time>
      </trkpt>
      <trkpt lat="40.675383" lon="-4.750383">
        <ele>2190.0</ele>
        <time>2014-06-30T14:03:27Z</time>
      </trkpt>
      <trkpt lat="40.675450" lon="-4.750467">
        <ele>2190.0</ele>
        <time>2014-06-30T14:03:28Z</time>
      </trkpt>
      <trkpt lat="40.675500" lon="-4.750567">
        <ele>2191.0</ele>
        <time>2014-06-30T14:03:29Z</time>
      </trkpt>
      <trkpt lat="40.675550" lon="-4.750683">
        <ele>2191.0</ele>
        <time>2014-06-30T14:03:30Z</time>
      </trkpt>
      <trkpt lat="40.675583" lon="-4.750800">
        <ele>2192.0</ele>
        <time>2014-06-30T14:03:31Z</time>
      </trkpt>
      <trkpt lat="40.675583" lon="-4.750917">
        <ele>2193.0</ele>
        <time>2014-06-30T14:03:32Z</time>
      </trkpt>
      <trkpt lat="40.675550" lon="-4.751033">
        <ele>2193.0</ele>
        <time>2014-06-30T14:03:33Z</time>
      </trkpt>
      <trkpt lat="40.675500" lon="-4.751133">
        <ele>2194.0</ele>
        <time>2014-06-30T14:03:34Z</time>
      </trkpt>
      <trkpt lat="40.675433" lon="-4.751183">
        <ele>2193.0</ele>
        <time>2014-06-30T14:03:35Z</time>
      </trkpt>
      <trkpt lat="40.675367" lon="-4.751217">
        <ele>2193.0</ele>
        <time>2014-06-30T14:03:36Z</time>
      </trkpt>
      <trkpt lat="40.675283" lon="-4.751200">
        <ele>2193.0</ele>
        <time>2014-06-30T14:03:37Z</time>
      </trkpt>
      <trkpt lat="40.675217" lon="-4.751167">
        <ele>2193.0</ele>
        <time>2014-06-30T14:03:38Z</time>
      </trkpt>
      <trkpt lat="40.675150" lon="-4.751117">
        <ele>2193.0</ele>
        <time>2014-06-30T14:03:39Z</time>
      </trkpt>
      <trkpt lat="40.675117" lon="-4.751050">
        <ele>2193.0</ele>
        <time>2014-06-30T14:03:40Z</time>
      </trkpt>
      <trkpt lat="40.675067" lon="-4.750983">
        <ele>2193.0</ele>
        <time>2014-06-30T14:03:41Z</time>
      </trkpt>
      <trkpt lat="40.675050" lon="-4.750917">
        <ele>2193.0</ele>
        <time>2014-06-30T14:03:42Z</time>
      </trkpt>
      <trkpt lat="40.675017" lon="-4.750817">
        <ele>2191.0</ele>
        <time>2014-06-30T14:03:43Z</time>
      </trkpt>
      <trkpt lat="40.674967" lon="-4.750717">
        <ele>2190.0</ele>
        <time>2014-06-30T14:03:44Z</time>
      </trkpt>
      <trkpt lat="40.674933" lon="-4.750617">
        <ele>2191.0</ele>
        <time>2014-06-30T14:03:45Z</time>
      </trkpt>
      <trkpt lat="40.674917" lon="-4.750517">
        <ele>2191.0</ele>
        <time>2014-06-30T14:03:46Z</time>
      </trkpt>
      <trkpt lat="40.674900" lon="-4.750433">
        <ele>2191.0</ele>
        <time>2014-06-30T14:03:47Z</time>
      </trkpt>
      <trkpt lat="40.674883" lon="-4.750350">
        <ele>2191.0</ele>
        <time>2014-06-30T14:03:48Z</time>
      </trkpt>
      <trkpt lat="40.674867" lon="-4.750267">
        <ele>2190.0</ele>
        <time>2014-06-30T14:03:49Z</time>
      </trkpt>
      <trkpt lat="40.674850" lon="-4.750150">
        <ele>2190.0</ele>
        <time>2014-06-30T14:03:50Z</time>
      </trkpt>
      <trkpt lat="40.674833" lon="-4.750050">
        <ele>2189.0</ele>
        <time>2014-06-30T14:03:51Z</time>
      </trkpt>
      <trkpt lat="40.674833" lon="-4.749933">
        <ele>2190.0</ele>
        <time>2014-06-30T14:03:52Z</time>
      </trkpt>
      <trkpt lat="40.674850" lon="-4.749850">
        <ele>2190.0</ele>
        <time>2014-06-30T14:03:53Z</time>
      </trkpt>
      <trkpt lat="40.674850" lon="-4.749750">
        <ele>2190.0</ele>
        <time>2014-06-30T14:03:54Z</time>
      </trkpt>
      <trkpt lat="40.674850" lon="-4.749633">
        <ele>2190.0</ele>
        <time>2014-06-30T14:03:55Z</time>
      </trkpt>
      <trkpt lat="40.674833" lon="-4.749500">
        <ele>2189.0</ele>
        <time>2014-06-30T14:03:56Z</time>
      </trkpt>
      <trkpt lat="40.674833" lon="-4.749367">
        <ele>2188.0</ele>
        <time>2014-06-30T14:03:57Z</time>
      </trkpt>
      <trkpt lat="40.674833" lon="-4.749233">
        <ele>2188.0</ele>
        <time>2014-06-30T14:03:58Z</time>
      </trkpt>
      <trkpt lat="40.674850" lon="-4.749117">
        <ele>2188.0</ele>
        <time>2014-06-30T14:03:59Z</time>
      </trkpt>
      <trkpt lat="40.674867" lon="-4.749017">
        <ele>2188.0</ele>
        <time>2014-06-30T14:04:00Z</time>
      </trkpt>
      <trkpt lat="40.674867" lon="-4.748900">
        <ele>2187.0</ele>
        <time>2014-06-30T14:04:01Z</time>
      </trkpt>
      <trkpt lat="40.674850" lon="-4.748783">
        <ele>2185.0</ele>
        <time>2014-06-30T14:04:02Z</time>
      </trkpt>
      <trkpt lat="40.674833" lon="-4.748667">
        <ele>2183.0</ele>
        <time>2014-06-30T14:04:03Z</time>
      </trkpt>
      <trkpt lat="40.674817" lon="-4.748533">
        <ele>2181.0</ele>
        <time>2014-06-30T14:04:04Z</time>
      </trkpt>
      <trkpt lat="40.674800" lon="-4.748383">
        <ele>2180.0</ele>
        <time>2014-06-30T14:04:05Z</time>
      </trkpt>
      <trkpt lat="40.674800" lon="-4.748267">
        <ele>2179.0</ele>
        <time>2014-06-30T14:04:06Z</time>
      </trkpt>
      <trkpt lat="40.674800" lon="-4.748133">
        <ele>2178.0</ele>
        <time>2014-06-30T14:04:07Z</time>
      </trkpt>
      <trkpt lat="40.674783" lon="-4.748017">
        <ele>2176.0</ele>
        <time>2014-06-30T14:04:08Z</time>
      </trkpt>
      <trkpt lat="40.674783" lon="-4.747867">
        <ele>2174.0</ele>
        <time>2014-06-30T14:04:09Z</time>
      </trkpt>
      <trkpt lat="40.674767" lon="-4.747717">
        <ele>2173.0</ele>
        <time>2014-06-30T14:04:10Z</time>
      </trkpt>
      <trkpt lat="40.674767" lon="-4.747600">
        <ele>2172.0</ele>
        <time>2014-06-30T14:04:11Z</time>
      </trkpt>
      <trkpt lat="40.674750" lon="-4.747467">
        <ele>2172.0</ele>
        <time>2014-06-30T14:04:12Z</time>
      </trkpt>
      <trkpt lat="40.674750" lon="-4.747333">
        <ele>2172.0</ele>
        <time>2014-06-30T14:04:13Z</time>
      </trkpt>
      <trkpt lat="40.674767" lon="-4.747217">
        <ele>2171.0</ele>
        <time>2014-06-30T14:04:14Z</time>
      </trkpt>
      <trkpt lat="40.674783" lon="-4.747100">
        <ele>2171.0</ele>
        <time>2014-06-30T14:04:15Z</time>
      </trkpt>
      <trkpt lat="40.674783" lon="-4.746983">
        <ele>2171.0</ele>
        <time>2014-06-30T14:04:16Z</time>
      </trkpt>
      <trkpt lat="40.674783" lon="-4.746883">
        <ele>2172.0</ele>
        <time>2014-06-30T14:04:17Z</time>
      </trkpt>
      <trkpt lat="40.674783" lon="-4.746783">
        <ele>2172.0</ele>
        <time>2014-06-30T14:04:18Z</time>
      </trkpt>
      <trkpt lat="40.674817" lon="-4.746683">
        <ele>2171.0</ele>
        <time>2014-06-30T14:04:19Z</time>
      </trkpt>
      <trkpt lat="40.674867" lon="-4.746583">
        <ele>2171.0</ele>
        <time>2014-06-30T14:04:20Z</time>
      </trkpt>
      <trkpt lat="40.674950" lon="-4.746517">
        <ele>2171.0</ele>
        <time>2014-06-30T14:04:21Z</time>
      </trkpt>
      <trkpt lat="40.675033" lon="-4.746500">
        <ele>2171.0</ele>
        <time>2014-06-30T14:04:22Z</time>
      </trkpt>
      <trkpt lat="40.675100" lon="-4.746550">
        <ele>2172.0</ele>
        <time>2014-06-30T14:04:23Z</time>
      </trkpt>
      <trkpt lat="40.675167" lon="-4.746617">
        <ele>2173.0</ele>
        <time>2014-06-30T14:04:24Z</time>
      </trkpt>
      <trkpt lat="40.675217" lon="-4.746700">
        <ele>2175.0</ele>
        <time>2014-06-30T14:04:25Z</time>
      </trkpt>
      <trkpt lat="40.675233" lon="-4.746783">
        <ele>2176.0</ele>
        <time>2014-06-30T14:04:26Z</time>
      </trkpt>
      <trkpt lat="40.675233" lon="-4.746867">
        <ele>2174.0</ele>
        <time>2014-06-30T14:04:27Z</time>
      </trkpt>
      <trkpt lat="40.675217" lon="-4.746967">
        <ele>2174.0</ele>
        <time>2014-06-30T14:04:28Z</time>
      </trkpt>
      <trkpt lat="40.675200" lon="-4.747083">
        <ele>2174.0</ele>
        <time>2014-06-30T14:04:29Z</time>
      </trkpt>
      <trkpt lat="40.675150" lon="-4.747167">
        <ele>2175.0</ele>
        <time>2014-06-30T14:04:30Z</time>
      </trkpt>
      <trkpt lat="40.675117" lon="-4.747267">
        <ele>2175.0</ele>
        <time>2014-06-30T14:04:31Z</time>
      </trkpt>
      <trkpt lat="40.675050" lon="-4.747317">
        <ele>2175.0</ele>
        <time>2014-06-30T14:04:32Z</time>
      </trkpt>
      <trkpt lat="40.674983" lon="-4.747367">
        <ele>2175.0</ele>
        <time>2014-06-30T14:04:33Z</time>
      </trkpt>
      <trkpt lat="40.674933" lon="-4.747417">
        <ele>2176.0</ele>
        <time>2014-06-30T14:04:34Z</time>
      </trkpt>
      <trkpt lat="40.674850" lon="-4.747433">
        <ele>2176.0</ele>
        <time>2014-06-30T14:04:35Z</time>
      </trkpt>
      <trkpt lat="40.674783" lon="-4.747467">
        <ele>2176.0</ele>
        <time>2014-06-30T14:04:36Z</time>
      </trkpt>
      <trkpt lat="40.674700" lon="-4.747467">
        <ele>2177.0</ele>
        <time>2014-06-30T14:04:37Z</time>
      </trkpt>
      <trkpt lat="40.674617" lon="-4.747450">
        <ele>2177.0</ele>
        <time>2014-06-30T14:04:38Z</time>
      </trkpt>
      <trkpt lat="40.674550" lon="-4.747400">
        <ele>2178.0</ele>
        <time>2014-06-30T14:04:39Z</time>
      </trkpt>
      <trkpt lat="40.674483" lon="-4.747300">
        <ele>2178.0</ele>
        <time>2014-06-30T14:04:40Z</time>
      </trkpt>
      <trkpt lat="40.674433" lon="-4.747183">
        <ele>2179.0</ele>
        <time>2014-06-30T14:04:41Z</time>
      </trkpt>
      <trkpt lat="40.674400" lon="-4.747050">
        <ele>2181.0</ele>
        <time>2014-06-30T14:04:42Z</time>
      </trkpt>
      <trkpt lat="40.674367" lon="-4.746933">
        <ele>2183.0</ele>
        <time>2014-06-30T14:04:43Z</time>
      </trkpt>
      <trkpt lat="40.674333" lon="-4.746833">
        <ele>2184.0</ele>
        <time>2014-06-30T14:04:44Z</time>
      </trkpt>
      <trkpt lat="40.674300" lon="-4.746733">
        <ele>2186.0</ele>
        <time>2014-06-30T14:04:45Z</time>
      </trkpt>
      <trkpt lat="40.674267" lon="-4.746650">
        <ele>2188.0</ele>
        <time>2014-06-30T14:04:46Z</time>
      </trkpt>
      <trkpt lat="40.674250" lon="-4.746533">
        <ele>2190.0</ele>
        <time>2014-06-30T14:04:47Z</time>
      </trkpt>
      <trkpt lat="40.674250" lon="-4.746417">
        <ele>2189.0</ele>
        <time>2014-06-30T14:04:48Z</time>
      </trkpt>
      <trkpt lat="40.674300" lon="-4.746317">
        <ele>2189.0</ele>
        <time>2014-06-30T14:04:49Z</time>
      </trkpt>
      <trkpt lat="40.674367" lon="-4.746250">
        <ele>2190.0</ele>
        <time>2014-06-30T14:04:50Z</time>
      </trkpt>
      <trkpt lat="40.674433" lon="-4.746250">
        <ele>2192.0</ele>
        <time>2014-06-30T14:04:51Z</time>
      </trkpt>
      <trkpt lat="40.674483" lon="-4.746300">
        <ele>2193.0</ele>
        <time>2014-06-30T14:04:52Z</time>
      </trkpt>
      <trkpt lat="40.674533" lon="-4.746383">
        <ele>2195.0</ele>
        <time>2014-06-30T14:04:53Z</time>
      </trkpt>
      <trkpt lat="40.674550" lon="-4.746467">
        <ele>2194.0</ele>
        <time>2014-06-30T14:04:54Z</time>
      </trkpt>
      <trkpt lat="40.674567" lon="-4.746550">
        <ele>2195.0</ele>
        <time>2014-06-30T14:04:55Z</time>
      </trkpt>
      <trkpt lat="40.674567" lon="-4.746667">
        <ele>2196.0</ele>
        <time>2014-06-30T14:04:56Z</time>
      </trkpt>
      <trkpt lat="40.674567" lon="-4.746800">
        <ele>2197.0</ele>
        <time>2014-06-30T14:04:57Z</time>
      </trkpt>
      <trkpt lat="40.674533" lon="-4.746917">
        <ele>2198.0</ele>
        <time>2014-06-30T14:04:58Z</time>
      </trkpt>
      <trkpt lat="40.674483" lon="-4.747033">
        <ele>2199.0</ele>
        <time>2014-06-30T14:04:59Z</time>
      </trkpt>
      <trkpt lat="40.674400" lon="-4.747117">
        <ele>2199.0</ele>
        <time>2014-06-30T14:05:00Z</time>
      </trkpt>
      <trkpt lat="40.674317" lon="-4.747150">
        <ele>2200.0</ele>
        <time>2014-06-30T14:05:01Z</time>
      </trkpt>
      <trkpt lat="40.674217" lon="-4.747167">
        <ele>2201.0</ele>
        <time>2014-06-30T14:05:02Z</time>
      </trkpt>
      <trkpt lat="40.674133" lon="-4.747183">
        <ele>2204.0</ele>
        <time>2014-06-30T14:05:03Z</time>
      </trkpt>
      <trkpt lat="40.674067" lon="-4.747167">
        <ele>2206.0</ele>
        <time>2014-06-30T14:05:04Z</time>
      </trkpt>
      <trkpt lat="40.674000" lon="-4.747150">
        <ele>2207.0</ele>
        <time>2014-06-30T14:05:05Z</time>
      </trkpt>
      <trkpt lat="40.673950" lon="-4.747133">
        <ele>2207.0</ele>
        <time>2014-06-30T14:05:06Z</time>
      </trkpt>
      <trkpt lat="40.673867" lon="-4.747117">
        <ele>2207.0</ele>
        <time>2014-06-30T14:05:07Z</time>
      </trkpt>
      <trkpt lat="40.673783" lon="-4.747083">
        <ele>2205.0</ele>
        <time>2014-06-30T14:05:08Z</time>
      </trkpt>
      <trkpt lat="40.673717" lon="-4.747000">
        <ele>2207.0</ele>
        <time>2014-06-30T14:05:09Z</time>
      </trkpt>
      <trkpt lat="40.673650" lon="-4.746933">
        <ele>2210.0</ele>
        <time>2014-06-30T14:05:10Z</time>
      </trkpt>
      <trkpt lat="40.673600" lon="-4.746833">
        <ele>2211.0</ele>
        <time>2014-06-30T14:05:11Z</time>
      </trkpt>
      <trkpt lat="40.673550" lon="-4.746750">
        <ele>2213.0</ele>
        <time>2014-06-30T14:05:12Z</time>
      </trkpt>
      <trkpt lat="40.673500" lon="-4.746667">
        <ele>2215.0</ele>
        <time>2014-06-30T14:05:13Z</time>
      </trkpt>
      <trkpt lat="40.673467" lon="-4.746583">
        <ele>2216.0</ele>
        <time>2014-06-30T14:05:14Z</time>
      </trkpt>
      <trkpt lat="40.673433" lon="-4.746483">
        <ele>2217.0</ele>
        <time>2014-06-30T14:05:15Z</time>
      </trkpt>
      <trkpt lat="40.673417" lon="-4.746367">
        <ele>2218.0</ele>
        <time>2014-06-30T14:05:16Z</time>
      </trkpt>
      <trkpt lat="40.673433" lon="-4.746250">
        <ele>2219.0</ele>
        <time>2014-06-30T14:05:17Z</time>
      </trkpt>
      <trkpt lat="40.673450" lon="-4.746133">
        <ele>2221.0</ele>
        <time>2014-06-30T14:05:18Z</time>
      </trkpt>
      <trkpt lat="40.673467" lon="-4.746050">
        <ele>2222.0</ele>
        <time>2014-06-30T14:05:19Z</time>
      </trkpt>
      <trkpt lat="40.673500" lon="-4.745967">
        <ele>2221.0</ele>
        <time>2014-06-30T14:05:20Z</time>
      </trkpt>
      <trkpt lat="40.673550" lon="-4.745883">
        <ele>2222.0</ele>
        <time>2014-06-30T14:05:21Z</time>
      </trkpt>
      <trkpt lat="40.673600" lon="-4.745817">
        <ele>2223.0</ele>
        <time>2014-06-30T14:05:22Z</time>
      </trkpt>
      <trkpt lat="40.673667" lon="-4.745767">
        <ele>2222.0</ele>
        <time>2014-06-30T14:05:23Z</time>
      </trkpt>
      <trkpt lat="40.673733" lon="-4.745733">
        <ele>2223.0</ele>
        <time>2014-06-30T14:05:24Z</time>
      </trkpt>
      <trkpt lat="40.673783" lon="-4.745750">
        <ele>2223.0</ele>
        <time>2014-06-30T14:05:25Z</time>
      </trkpt>
      <trkpt lat="40.673833" lon="-4.745800">
        <ele>2223.0</ele>
        <time>2014-06-30T14:05:26Z</time>
      </trkpt>
      <trkpt lat="40.673867" lon="-4.745867">
        <ele>2223.0</ele>
        <time>2014-06-30T14:05:27Z</time>
      </trkpt>
      <trkpt lat="40.673883" lon="-4.745933">
        <ele>2225.0</ele>
        <time>2014-06-30T14:05:28Z</time>
      </trkpt>
      <trkpt lat="40.673900" lon="-4.746017">
        <ele>2227.0</ele>
        <time>2014-06-30T14:05:29Z</time>
      </trkpt>
      <trkpt lat="40.673900" lon="-4.746067">
        <ele>2226.0</ele>
        <time>2014-06-30T14:05:30Z</time>
      </trkpt>
      <trkpt lat="40.673900" lon="-4.746150">
        <ele>2226.0</ele>
        <time>2014-06-30T14:05:31Z</time>
      </trkpt>
      <trkpt lat="40.673883" lon="-4.746217">
        <ele>2226.0</ele>
        <time>2014-06-30T14:05:32Z</time>
      </trkpt>
      <trkpt lat="40.673850" lon="-4.746283">
        <ele>2227.0</ele>
        <time>2014-06-30T14:05:33Z</time>
      </trkpt>
      <trkpt lat="40.673800" lon="-4.746317">
        <ele>2227.0</ele>
        <time>2014-06-30T14:05:34Z</time>
      </trkpt>
      <trkpt lat="40.673733" lon="-4.746350">
        <ele>2227.0</ele>
        <time>2014-06-30T14:05:35Z</time>
      </trkpt>
      <trkpt lat="40.673633" lon="-4.746350">
        <ele>2227.0</ele>
        <time>2014-06-30T14:05:36Z</time>
      </trkpt>
      <trkpt lat="40.673533" lon="-4.746333">
        <ele>2228.0</ele>
        <time>2014-06-30T14:05:37Z</time>
      </trkpt>
      <trkpt lat="40.673450" lon="-4.746300">
        <ele>2228.0</ele>
        <time>2014-06-30T14:05:38Z</time>
      </trkpt>
      <trkpt lat="40.673367" lon="-4.746283">
        <ele>2229.0</ele>
        <time>2014-06-30T14:05:39Z</time>
      </trkpt>
      <trkpt lat="40.673283" lon="-4.746250">
        <ele>2229.0</ele>
        <time>2014-06-30T14:05:40Z</time>
      </trkpt>
      <trkpt lat="40.673200" lon="-4.746233">
        <ele>2229.0</ele>
        <time>2014-06-30T14:05:41Z</time>
      </trkpt>
      <trkpt lat="40.673150" lon="-4.746217">
        <ele>2230.0</ele>
        <time>2014-06-30T14:05:42Z</time>
      </trkpt>
      <trkpt lat="40.673083" lon="-4.746167">
        <ele>2231.0</ele>
        <time>2014-06-30T14:05:43Z</time>
      </trkpt>
      <trkpt lat="40.673033" lon="-4.746100">
        <ele>2231.0</ele>
        <time>2014-06-30T14:05:44Z</time>
      </trkpt>
      <trkpt lat="40.672983" lon="-4.746033">
        <ele>2232.0</ele>
        <time>2014-06-30T14:05:45Z</time>
      </trkpt>
      <trkpt lat="40.672917" lon="-4.745950">
        <ele>2233.0</ele>
        <time>2014-06-30T14:05:46Z</time>
      </trkpt>
      <trkpt lat="40.672883" lon="-4.745867">
        <ele>2234.0</ele>
        <time>2014-06-30T14:05:47Z</time>
      </trkpt>
      <trkpt lat="40.672850" lon="-4.745750">
        <ele>2236.0</ele>
        <time>2014-06-30T14:05:48Z</time>
      </trkpt>
      <trkpt lat="40.672850" lon="-4.745633">
        <ele>2238.0</ele>
        <time>2014-06-30T14:05:49Z</time>
      </trkpt>
      <trkpt lat="40.672867" lon="-4.745517">
        <ele>2240.0</ele>
        <time>2014-06-30T14:05:50Z</time>
      </trkpt>
      <trkpt lat="40.672867" lon="-4.745450">
        <ele>2240.0</ele>
        <time>2014-06-30T14:05:51Z</time>
      </trkpt>
      <trkpt lat="40.672900" lon="-4.745400">
        <ele>2240.0</ele>
        <time>2014-06-30T14:05:52Z</time>
      </trkpt>
      <trkpt lat="40.672917" lon="-4.745333">
        <ele>2241.0</ele>
        <time>2014-06-30T14:05:53Z</time>
      </trkpt>
      <trkpt lat="40.672967" lon="-4.745267">
        <ele>2241.0</ele>
        <time>2014-06-30T14:05:54Z</time>
      </trkpt>
      <trkpt lat="40.673000" lon="-4.745200">
        <ele>2242.0</ele>
        <time>2014-06-30T14:05:55Z</time>
      </trkpt>
      <trkpt lat="40.673083" lon="-4.745167">
        <ele>2242.0</ele>
        <time>2014-06-30T14:05:56Z</time>
      </trkpt>
      <trkpt lat="40.673150" lon="-4.745167">
        <ele>2242.0</ele>
        <time>2014-06-30T14:05:57Z</time>
      </trkpt>
      <trkpt lat="40.673233" lon="-4.745217">
        <ele>2244.0</ele>
        <time>2014-06-30T14:05:58Z</time>
      </trkpt>
      <trkpt lat="40.673283" lon="-4.745300">
        <ele>2246.0</ele>
        <time>2014-06-30T14:05:59Z</time>
      </trkpt>
      <trkpt lat="40.673317" lon="-4.745383">
        <ele>2249.0</ele>
        <time>2014-06-30T14:06:00Z</time>
      </trkpt>
      <trkpt lat="40.673350" lon="-4.745450">
        <ele>2251.0</ele>
        <time>2014-06-30T14:06:01Z</time>
      </trkpt>
      <trkpt lat="40.673350" lon="-4.745533">
        <ele>2254.0</ele>
        <time>2014-06-30T14:06:02Z</time>
      </trkpt>
      <trkpt lat="40.673367" lon="-4.745617">
        <ele>2256.0</ele>
        <time>2014-06-30T14:06:03Z</time>
      </trkpt>
      <trkpt lat="40.673367" lon="-4.745717">
        <ele>2259.0</ele>
        <time>2014-06-30T14:06:04Z</time>
      </trkpt>
      <trkpt lat="40.673350" lon="-4.745817">
        <ele>2254.0</ele>
        <time>2014-06-30T14:06:05Z</time>
      </trkpt>
      <trkpt lat="40.673283" lon="-4.745900">
        <ele>2256.0</ele>
        <time>2014-06-30T14:06:06Z</time>
      </trkpt>
      <trkpt lat="40.673217" lon="-4.745967">
        <ele>2257.0</ele>
        <time>2014-06-30T14:06:07Z</time>
      </trkpt>
      <trkpt lat="40.673117" lon="-4.746000">
        <ele>2258.0</ele>
        <time>2014-06-30T14:06:08Z</time>
      </trkpt>
      <trkpt lat="40.673033" lon="-4.746000">
        <ele>2259.0</ele>
        <time>2014-06-30T14:06:09Z</time>
      </trkpt>
      <trkpt lat="40.672950" lon="-4.746000">
        <ele>2261.0</ele>
        <time>2014-06-30T14:06:10Z</time>
      </trkpt>
      <trkpt lat="40.672867" lon="-4.745967">
        <ele>2262.0</ele>
        <time>2014-06-30T14:06:11Z</time>
      </trkpt>
      <trkpt lat="40.672783" lon="-4.745933">
        <ele>2264.0</ele>
        <time>2014-06-30T14:06:12Z</time>
      </trkpt>
      <trkpt lat="40.672700" lon="-4.745867">
        <ele>2266.0</ele>
        <time>2014-06-30T14:06:13Z</time>
      </trkpt>
      <trkpt lat="40.672617" lon="-4.745817">
        <ele>2267.0</ele>
        <time>2014-06-30T14:06:14Z</time>
      </trkpt>
      <trkpt lat="40.672533" lon="-4.745750">
        <ele>2270.0</ele>
        <time>2014-06-30T14:06:15Z</time>
      </trkpt>
      <trkpt lat="40.672483" lon="-4.745700">
        <ele>2274.0</ele>
        <time>2014-06-30T14:06:16Z</time>
      </trkpt>
      <trkpt lat="40.672450" lon="-4.745617">
        <ele>2276.0</ele>
        <time>2014-06-30T14:06:17Z</time>
      </trkpt>
      <trkpt lat="40.672417" lon="-4.745533">
        <ele>2277.0</ele>
        <time>2014-06-30T14:06:18Z</time>
      </trkpt>
      <trkpt lat="40.672383" lon="-4.745433">
        <ele>2278.0</ele>
        <time>2014-06-30T14:06:19Z</time>
      </trkpt>
      <trkpt lat="40.672383" lon="-4.745333">
        <ele>2277.0</ele>
        <time>2014-06-30T14:06:20Z</time>
      </trkpt>
      <trkpt lat="40.672383" lon="-4.745233">
        <ele>2277.0</ele>
        <time>2014-06-30T14:06:21Z</time>
      </trkpt>
      <trkpt lat="40.672383" lon="-4.745133">
        <ele>2278.0</ele>
        <time>2014-06-30T14:06:22Z</time>
      </trkpt>
      <trkpt lat="40.672400" lon="-4.745033">
        <ele>2278.0</ele>
        <time>2014-06-30T14:06:23Z</time>
      </trkpt>
      <trkpt lat="40.672400" lon="-4.744950">
        <ele>2279.0</ele>
        <time>2014-06-30T14:06:24Z</time>
      </trkpt>
      <trkpt lat="40.672433" lon="-4.744883">
        <ele>2279.0</ele>
        <time>2014-06-30T14:06:25Z</time>
      </trkpt>
      <trkpt lat="40.672467" lon="-4.744833">
        <ele>2279.0</ele>
        <time>2014-06-30T14:06:26Z</time>
      </trkpt>
      <trkpt lat="40.672533" lon="-4.744800">
        <ele>2280.0</ele>
        <time>2014-06-30T14:06:27Z</time>
      </trkpt>
      <trkpt lat="40.672583" lon="-4.744767">
        <ele>2280.0</ele>
        <time>2014-06-30T14:06:28Z</time>
      </trkpt>
      <trkpt lat="40.672650" lon="-4.744750">
        <ele>2280.0</ele>
        <time>2014-06-30T14:06:29Z</time>
      </trkpt>
      <trkpt lat="40.672717" lon="-4.744733">
        <ele>2281.0</ele>
        <time>2014-06-30T14:06:30Z</time>
      </trkpt>
      <trkpt lat="40.672767" lon="-4.744750">
        <ele>2282.0</ele>
        <time>2014-06-30T14:06:31Z</time>
      </trkpt>
      <trkpt lat="40.672817" lon="-4.744767">
        <ele>2283.0</ele>
        <time>2014-06-30T14:06:32Z</time>
      </trkpt>
      <trkpt lat="40.672883" lon="-4.744817">
        <ele>2283.0</ele>
        <time>2014-06-30T14:06:33Z</time>
      </trkpt>
      <trkpt lat="40.672933" lon="-4.744867">
        <ele>2283.0</ele>
        <time>2014-06-30T14:06:34Z</time>
      </trkpt>
      <trkpt lat="40.672983" lon="-4.744933">
        <ele>2285.0</ele>
        <time>2014-06-30T14:06:35Z</time>
      </trkpt>
      <trkpt lat="40.673017" lon="-4.745017">
        <ele>2286.0</ele>
        <time>2014-06-30T14:06:36Z</time>
      </trkpt>
      <trkpt lat="40.673017" lon="-4.745100">
        <ele>2288.0</ele>
        <time>2014-06-30T14:06:37Z</time>
      </trkpt>
      <trkpt lat="40.673000" lon="-4.745200">
        <ele>2289.0</ele>
        <time>2014-06-30T14:06:38Z</time>
      </trkpt>
      <trkpt lat="40.672967" lon="-4.745300">
        <ele>2288.0</ele>
        <time>2014-06-30T14:06:39Z</time>
      </trkpt>
      <trkpt lat="40.672950" lon="-4.745400">
        <ele>2289.0</ele>
        <time>2014-06-30T14:06:40Z</time>
      </trkpt>
      <trkpt lat="40.672900" lon="-4.745467">
        <ele>2289.0</ele>
        <time>2014-06-30T14:06:41Z</time>
      </trkpt>
      <trkpt lat="40.672817" lon="-4.745517">
        <ele>2289.0</ele>
        <time>2014-06-30T14:06:42Z</time>
      </trkpt>
      <trkpt lat="40.672733" lon="-4.745533">
        <ele>2290.0</ele>
        <time>2014-06-30T14:06:43Z</time>
      </trkpt>
      <trkpt lat="40.672650" lon="-4.745533">
        <ele>2291.0</ele>
        <time>2014-06-30T14:06:44Z</time>
      </trkpt>
      <trkpt lat="40.672567" lon="-4.745500">
        <ele>2292.0</ele>
        <time>2014-06-30T14:06:45Z</time>
      </trkpt>
      <trkpt lat="40.672500" lon="-4.745450">
        <ele>2294.0</ele>
        <time>2014-06-30T14:06:46Z</time>
      </trkpt>
      <trkpt lat="40.672450" lon="-4.745400">
        <ele>2294.0</ele>
        <time>2014-06-30T14:06:47Z</time>
      </trkpt>
      <trkpt lat="40.672383" lon="-4.745333">
        <ele>2294.0</ele>
        <time>2014-06-30T14:06:48Z</time>
      </trkpt>
      <trkpt lat="40.672333" lon="-4.745250">
        <ele>2295.0</ele>
        <time>2014-06-30T14:06:49Z</time>
      </trkpt>
      <trkpt lat="40.672283" lon="-4.745167">
        <ele>2296.0</ele>
        <time>2014-06-30T14:06:50Z</time>
      </trkpt>
      <trkpt lat="40.672250" lon="-4.745067">
        <ele>2297.0</ele>
        <time>2014-06-30T14:06:51Z</time>
      </trkpt>
      <trkpt lat="40.672217" lon="-4.744983">
        <ele>2298.0</ele>
        <time>2014-06-30T14:06:52Z</time>
      </trkpt>
      <trkpt lat="40.672200" lon="-4.744883">
        <ele>2299.0</ele>
        <time>2014-06-30T14:06:53Z</time>
      </trkpt>
      <trkpt lat="40.672183" lon="-4.744783">
        <ele>2299.0</ele>
        <time>2014-06-30T14:06:54Z</time>
      </trkpt>
      <trkpt lat="40.672167" lon="-4.744683">
        <ele>2300.0</ele>
        <time>2014-06-30T14:06:55Z</time>
      </trkpt>
      <trkpt lat="40.672167" lon="-4.744583">
        <ele>2301.0</ele>
        <time>2014-06-30T14:06:56Z</time>
      </trkpt>
      <trkpt lat="40.672167" lon="-4.744483">
        <ele>2301.0</ele>
        <time>2014-06-30T14:06:57Z</time>
      </trkpt>
      <trkpt lat="40.672183" lon="-4.744383">
        <ele>2302.0</ele>
        <time>2014-06-30T14:06:58Z</time>
      </trkpt>
      <trkpt lat="40.672200" lon="-4.744300">
        <ele>2302.0</ele>
        <time>2014-06-30T14:06:59Z</time>
      </trkpt>
      <trkpt lat="40.672217" lon="-4.744200">
        <ele>2302.0</ele>
        <time>2014-06-30T14:07:00Z</time>
      </trkpt>
      <trkpt lat="40.672250" lon="-4.744100">
        <ele>2303.0</ele>
        <time>2014-06-30T14:07:01Z</time>
      </trkpt>
      <trkpt lat="40.672300" lon="-4.744000">
        <ele>2304.0</ele>
        <time>2014-06-30T14:07:02Z</time>
      </trkpt>
      <trkpt lat="40.672333" lon="-4.743900">
        <ele>2306.0</ele>
        <time>2014-06-30T14:07:03Z</time>
      </trkpt>
      <trkpt lat="40.672367" lon="-4.743817">
        <ele>2308.0</ele>
        <time>2014-06-30T14:07:04Z</time>
      </trkpt>
      <trkpt lat="40.672400" lon="-4.743767">
        <ele>2310.0</ele>
        <time>2014-06-30T14:07:05Z</time>
      </trkpt>
      <trkpt lat="40.672450" lon="-4.743733">
        <ele>2310.0</ele>
        <time>2014-06-30T14:07:06Z</time>
      </trkpt>
      <trkpt lat="40.672500" lon="-4.743683">
        <ele>2310.0</ele>
        <time>2014-06-30T14:07:07Z</time>
      </trkpt>
      <trkpt lat="40.672550" lon="-4.743650">
        <ele>2311.0</ele>
        <time>2014-06-30T14:07:08Z</time>
      </trkpt>
      <trkpt lat="40.672617" lon="-4.743617">
        <ele>2312.0</ele>
        <time>2014-06-30T14:07:09Z</time>
      </trkpt>
      <trkpt lat="40.672683" lon="-4.743617">
        <ele>2313.0</ele>
        <time>2014-06-30T14:07:10Z</time>
      </trkpt>
      <trkpt lat="40.672750" lon="-4.743650">
        <ele>2315.0</ele>
        <time>2014-06-30T14:07:11Z</time>
      </trkpt>
      <trkpt lat="40.672800" lon="-4.743717">
        <ele>2316.0</ele>
        <time>2014-06-30T14:07:12Z</time>
      </trkpt>
      <trkpt lat="40.672833" lon="-4.743800">
        <ele>2315.0</ele>
        <time>2014-06-30T14:07:13Z</time>
      </trkpt>
      <trkpt lat="40.672850" lon="-4.743917">
        <ele>2316.0</ele>
        <time>2014-06-30T14:07:14Z</time>
      </trkpt>
      <trkpt lat="40.672850" lon="-4.744017">
        <ele>2317.0</ele>
        <time>2014-06-30T14:07:15Z</time>
      </trkpt>
      <trkpt lat="40.672817" lon="-4.744100">
        <ele>2318.0</ele>
        <time>2014-06-30T14:07:16Z</time>
      </trkpt>
      <trkpt lat="40.672783" lon="-4.744167">
        <ele>2319.0</ele>
        <time>2014-06-30T14:07:17Z</time>
      </trkpt>
      <trkpt lat="40.672733" lon="-4.744217">
        <ele>2319.0</ele>
        <time>2014-06-30T14:07:18Z</time>
      </trkpt>
      <trkpt lat="40.672683" lon="-4.744250">
        <ele>2320.0</ele>
        <time>2014-06-30T14:07:19Z</time>
      </trkpt>
      <trkpt lat="40.672633" lon="-4.744283">
        <ele>2320.0</ele>
        <time>2014-06-30T14:07:20Z</time>
      </trkpt>
      <trkpt lat="40.672567" lon="-4.744350">
        <ele>2321.0</ele>
        <time>2014-06-30T14:07:21Z</time>
      </trkpt>
      <trkpt lat="40.672500" lon="-4.744383">
        <ele>2321.0</ele>
        <time>2014-06-30T14:07:22Z</time>
      </trkpt>
      <trkpt lat="40.672417" lon="-4.744383">
        <ele>2322.0</ele>
        <time>2014-06-30T14:07:23Z</time>
      </trkpt>
      <trkpt lat="40.672350" lon="-4.744317">
        <ele>2323.0</ele>
        <time>2014-06-30T14:07:24Z</time>
      </trkpt>
      <trkpt lat="40.672300" lon="-4.744217">
        <ele>2324.0</ele>
        <time>2014-06-30T14:07:25Z</time>
      </trkpt>
      <trkpt lat="40.672250" lon="-4.744100">
        <ele>2325.0</ele>
        <time>2014-06-30T14:07:26Z</time>
      </trkpt>
      <trkpt lat="40.672200" lon="-4.743983">
        <ele>2327.0</ele>
        <time>2014-06-30T14:07:27Z</time>
      </trkpt>
      <trkpt lat="40.672133" lon="-4.743883">
        <ele>2328.0</ele>
        <time>2014-06-30T14:07:28Z</time>
      </trkpt>
      <trkpt lat="40.672050" lon="-4.743767">
        <ele>2331.0</ele>
        <time>2014-06-30T14:07:29Z</time>
      </trkpt>
      <trkpt lat="40.672000" lon="-4.743667">
        <ele>2335.0</ele>
        <time>2014-06-30T14:07:30Z</time>
      </trkpt>
      <trkpt lat="40.671967" lon="-4.743567">
        <ele>2338.0</ele>
        <time>2014-06-30T14:07:31Z</time>
      </trkpt>
      <trkpt lat="40.671950" lon="-4.743467">
        <ele>2338.0</ele>
        <time>2014-06-30T14:07:32Z</time>
      </trkpt>
      <trkpt lat="40.671950" lon="-4.743367">
        <ele>2339.0</ele>
        <time>2014-06-30T14:07:33Z</time>
      </trkpt>
      <trkpt lat="40.671967" lon="-4.743300">
        <ele>2339.0</ele>
        <time>2014-06-30T14:07:34Z</time>
      </trkpt>
      <trkpt lat="40.672017" lon="-4.743250">
        <ele>2340.0</ele>
        <time>2014-06-30T14:07:35Z</time>
      </trkpt>
      <trkpt lat="40.672067" lon="-4.743217">
        <ele>2340.0</ele>
        <time>2014-06-30T14:07:36Z</time>
      </trkpt>
      <trkpt lat="40.672117" lon="-4.743233">
        <ele>2340.0</ele>
        <time>2014-06-30T14:07:37Z</time>
      </trkpt>
      <trkpt lat="40.672167" lon="-4.743283">
        <ele>2341.0</ele>
        <time>2014-06-30T14:07:38Z</time>
      </trkpt>
      <trkpt lat="40.672217" lon="-4.743333">
        <ele>2342.0</ele>
        <time>2014-06-30T14:07:39Z</time>
      </trkpt>
      <trkpt lat="40.672233" lon="-4.743417">
        <ele>2342.0</ele>
        <time>2014-06-30T14:07:40Z</time>
      </trkpt>
      <trkpt lat="40.672250" lon="-4.743500">
        <ele>2342.0</ele>
        <time>2014-06-30T14:07:41Z</time>
      </trkpt>
      <trkpt lat="40.672250" lon="-4.743617">
        <ele>2342.0</ele>
        <time>2014-06-30T14:07:42Z</time>
      </trkpt>
      <trkpt lat="40.672283" lon="-4.743750">
        <ele>2342.0</ele>
        <time>2014-06-30T14:07:43Z</time>
      </trkpt>
      <trkpt lat="40.672333" lon="-4.743883">
        <ele>2343.0</ele>
        <time>2014-06-30T14:07:44Z</time>
      </trkpt>
      <trkpt lat="40.672400" lon="-4.744017">
        <ele>2344.0</ele>
        <time>2014-06-30T14:07:45Z</time>
      </trkpt>
      <trkpt lat="40.672450" lon="-4.744133">
        <ele>2345.0</ele>
        <time>2014-06-30T14:07:46Z</time>
      </trkpt>
      <trkpt lat="40.672483" lon="-4.744267">
        <ele>2348.0</ele>
        <time>2014-06-30T14:07:47Z</time>
      </trkpt>
      <trkpt lat="40.672467" lon="-4.744350">
        <ele>2351.0</ele>
        <time>2014-06-30T14:07:48Z</time>
      </trkpt>
      <trkpt lat="40.672450" lon="-4.744433">
        <ele>2353.0</ele>
        <time>2014-06-30T14:07:49Z</time>
      </trkpt>
      <trkpt lat="40.672450" lon="-4.744517">
        <ele>2355.0</ele>
        <time>2014-06-30T14:07:50Z</time>
      </trkpt>
      <trkpt lat="40.672450" lon="-4.744600">
        <ele>2352.0</ele>
        <time>2014-06-30T14:07:51Z</time>
      </trkpt>
      <trkpt lat="40.672433" lon="-4.744717">
        <ele>2352.0</ele>
        <time>2014-06-30T14:07:52Z</time>
      </trkpt>
      <trkpt lat="40.672417" lon="-4.744817">
        <ele>2353.0</ele>
        <time>2014-06-30T14:07:53Z</time>
      </trkpt>
      <trkpt lat="40.672367" lon="-4.744900">
        <ele>2354.0</ele>
        <time>2014-06-30T14:07:54Z</time>
      </trkpt>
      <trkpt lat="40.672300" lon="-4.744967">
        <ele>2355.0</ele>
        <time>2014-06-30T14:07:55Z</time>
      </trkpt>
      <trkpt lat="40.672250" lon="-4.745017">
        <ele>2356.0</ele>
        <time>2014-06-30T14:07:56Z</time>
      </trkpt>
      <trkpt lat="40.672183" lon="-4.745050">
        <ele>2358.0</ele>
        <time>2014-06-30T14:07:57Z</time>
      </trkpt>
      <trkpt lat="40.672133" lon="-4.745050">
        <ele>2361.0</ele>
        <time>2014-06-30T14:07:58Z</time>
      </trkpt>
      <trkpt lat="40.672083" lon="-4.745050">
        <ele>2363.0</ele>
        <time>2014-06-30T14:07:59Z</time>
      </trkpt>
      <trkpt lat="40.672017" lon="-4.745033">
        <ele>2366.0</ele>
        <time>2014-06-30T14:08:00Z</time>
      </trkpt>
      <trkpt lat="40.671950" lon="-4.744983">
        <ele>2369.0</ele>
        <time>2014-06-30T14:08:01Z</time>
      </trkpt>
      <trkpt lat="40.671883" lon="-4.744933">
        <ele>2372.0</ele>
        <time>2014-06-30T14:08:02Z</time>
      </trkpt>
      <trkpt lat="40.671833" lon="-4.744867">
        <ele>2374.0</ele>
        <time>2014-06-30T14:08:03Z</time>
      </trkpt>
      <trkpt lat="40.671767" lon="-4.744800">
        <ele>2375.0</ele>
        <time>2014-06-30T14:08:04Z</time>
      </trkpt>
      <trkpt lat="40.671717" lon="-4.744700">
        <ele>2376.0</ele>
        <time>2014-06-30T14:08:05Z</time>
      </trkpt>
      <trkpt lat="40.671683" lon="-4.744583">
        <ele>2376.0</ele>
        <time>2014-06-30T14:08:06Z</time>
      </trkpt>
      <trkpt lat="40.671717" lon="-4.744467">
        <ele>2375.0</ele>
        <time>2014-06-30T14:08:07Z</time>
      </trkpt>
      <trkpt lat="40.671817" lon="-4.744383">
        <ele>2375.0</ele>
        <time>2014-06-30T14:08:08Z</time>
      </trkpt>
      <trkpt lat="40.671917" lon="-4.744317">
        <ele>2376.0</ele>
        <time>2014-06-30T14:08:09Z</time>
      </trkpt>
      <trkpt lat="40.672017" lon="-4.744250">
        <ele>2377.0</ele>
        <time>2014-06-30T14:08:10Z</time>
      </trkpt>
      <trkpt lat="40.672100" lon="-4.744183">
        <ele>2378.0</ele>
        <time>2014-06-30T14:08:11Z</time>
      </trkpt>
      <trkpt lat="40.672167" lon="-4.744083">
        <ele>2378.0</ele>
        <time>2014-06-30T14:08:12Z</time>
      </trkpt>
      <trkpt lat="40.672233" lon="-4.744017">
        <ele>2379.0</ele>
        <time>2014-06-30T14:08:13Z</time>
      </trkpt>
      <trkpt lat="40.672283" lon="-4.743967">
        <ele>2380.0</ele>
        <time>2014-06-30T14:08:14Z</time>
      </trkpt>
      <trkpt lat="40.672367" lon="-4.743933">
        <ele>2379.0</ele>
        <time>2014-06-30T14:08:15Z</time>
      </trkpt>
      <trkpt lat="40.672450" lon="-4.743883">
        <ele>2379.0</ele>
        <time>2014-06-30T14:08:16Z</time>
      </trkpt>
      <trkpt lat="40.672533" lon="-4.743833">
        <ele>2380.0</ele>
        <time>2014-06-30T14:08:17Z</time>
      </trkpt>
      <trkpt lat="40.672617" lon="-4.743783">
        <ele>2380.0</ele>
        <time>2014-06-30T14:08:18Z</time>
      </trkpt>
      <trkpt lat="40.672700" lon="-4.743717">
        <ele>2382.0</ele>
        <time>2014-06-30T14:08:19Z</time>
      </trkpt>
      <trkpt lat="40.672783" lon="-4.743667">
        <ele>2386.0</ele>
        <time>2014-06-30T14:08:20Z</time>
      </trkpt>
      <trkpt lat="40.672850" lon="-4.743617">
        <ele>2389.0</ele>
        <time>2014-06-30T14:08:21Z</time>
      </trkpt>
      <trkpt lat="40.672917" lon="-4.743617">
        <ele>2384.0</ele>
        <time>2014-06-30T14:08:22Z</time>
      </trkpt>
      <trkpt lat="40.673000" lon="-4.743567">
        <ele>2385.0</ele>
        <time>2014-06-30T14:08:23Z</time>
      </trkpt>
      <trkpt lat="40.673083" lon="-4.743533">
        <ele>2385.0</ele>
        <time>2014-06-30T14:08:24Z</time>
      </trkpt>
      <trkpt lat="40.673183" lon="-4.743517">
        <ele>2385.0</ele>
        <time>2014-06-30T14:08:25Z</time>
      </trkpt>
      <trkpt lat="40.673283" lon="-4.743533">
        <ele>2386.0</ele>
        <time>2014-06-30T14:08:26Z</time>
      </trkpt>
      <trkpt lat="40.673367" lon="-4.743583">
        <ele>2388.0</ele>
        <time>2014-06-30T14:08:27Z</time>
      </trkpt>
      <trkpt lat="40.673417" lon="-4.743650">
        <ele>2390.0</ele>
        <time>2014-06-30T14:08:28Z</time>
      </trkpt>
      <trkpt lat="40.673450" lon="-4.743733">
        <ele>2391.0</ele>
        <time>2014-06-30T14:08:29Z</time>
      </trkpt>
      <trkpt lat="40.673433" lon="-4.743817">
        <ele>2393.0</ele>
        <time>2014-06-30T14:08:30Z</time>
      </trkpt>
      <trkpt lat="40.673417" lon="-4.743917">
        <ele>2393.0</ele>
        <time>2014-06-30T14:08:31Z</time>
      </trkpt>
      <trkpt lat="40.673367" lon="-4.743967">
        <ele>2393.0</ele>
        <time>2014-06-30T14:08:32Z</time>
      </trkpt>
      <trkpt lat="40.673300" lon="-4.744000">
        <ele>2394.0</ele>
        <time>2014-06-30T14:08:33Z</time>
      </trkpt>
      <trkpt lat="40.673233" lon="-4.744017">
        <ele>2394.0</ele>
        <time>2014-06-30T14:08:34Z</time>
      </trkpt>
      <trkpt lat="40.673167" lon="-4.744017">
        <ele>2395.0</ele>
        <time>2014-06-30T14:08:35Z</time>
      </trkpt>
      <trkpt lat="40.673100" lon="-4.744033">
        <ele>2396.0</ele>
        <time>2014-06-30T14:08:36Z</time>
      </trkpt>
      <trkpt lat="40.673067" lon="-4.744050">
        <ele>2396.0</ele>
        <time>2014-06-30T14:08:37Z</time>
      </trkpt>
      <trkpt lat="40.673000" lon="-4.744067">
        <ele>2397.0</ele>
        <time>2014-06-30T14:08:38Z</time>
      </trkpt>
      <trkpt lat="40.672933" lon="-4.744083">
        <ele>2397.0</ele>
        <time>2014-06-30T14:08:39Z</time>
      </trkpt>
      <trkpt lat="40.672867" lon="-4.744100">
        <ele>2398.0</ele>
        <time>2014-06-30T14:08:40Z</time>
      </trkpt>
      <trkpt lat="40.672800" lon="-4.744117">
        <ele>2399.0</ele>
        <time>2014-06-30T14:08:41Z</time>
      </trkpt>
      <trkpt lat="40.672750" lon="-4.744133">
        <ele>2400.0</ele>
        <time>2014-06-30T14:08:42Z</time>
      </trkpt>
      <trkpt lat="40.672683" lon="-4.744133">
        <ele>2401.0</ele>
        <time>2014-06-30T14:08:43Z</time>
      </trkpt>
      <trkpt lat="40.672633" lon="-4.744117">
        <ele>2402.0</ele>
        <time>2014-06-30T14:08:44Z</time>
      </trkpt>
      <trkpt lat="40.672567" lon="-4.744100">
        <ele>2403.0</ele>
        <time>2014-06-30T14:08:45Z</time>
      </trkpt>
      <trkpt lat="40.672500" lon="-4.744033">
        <ele>2404.0</ele>
        <time>2014-06-30T14:08:46Z</time>
      </trkpt>
      <trkpt lat="40.672450" lon="-4.743950">
        <ele>2406.0</ele>
        <time>2014-06-30T14:08:47Z</time>
      </trkpt>
      <trkpt lat="40.672400" lon="-4.743850">
        <ele>2407.0</ele>
        <time>2014-06-30T14:08:48Z</time>
      </trkpt>
      <trkpt lat="40.672367" lon="-4.743733">
        <ele>2409.0</ele>
        <time>2014-06-30T14:08:49Z</time>
      </trkpt>
      <trkpt lat="40.672333" lon="-4.743617">
        <ele>2411.0</ele>
        <time>2014-06-30T14:08:50Z</time>
      </trkpt>
      <trkpt lat="40.672317" lon="-4.743500">
        <ele>2413.0</ele>
        <time>2014-06-30T14:08:51Z</time>
      </trkpt>
      <trkpt lat="40.672300" lon="-4.743400">
        <ele>2412.0</ele>
        <time>2014-06-30T14:08:52Z</time>
      </trkpt>
      <trkpt lat="40.672300" lon="-4.743300">
        <ele>2414.0</ele>
        <time>2014-06-30T14:08:53Z</time>
      </trkpt>
      <trkpt lat="40.672300" lon="-4.743217">
        <ele>2414.0</ele>
        <time>2014-06-30T14:08:54Z</time>
      </trkpt>
      <trkpt lat="40.672317" lon="-4.743117">
        <ele>2415.0</ele>
        <time>2014-06-30T14:08:55Z</time>
      </trkpt>
      <trkpt lat="40.672333" lon="-4.743017">
        <ele>2415.0</ele>
        <time>2014-06-30T14:08:56Z</time>
      </trkpt>
      <trkpt lat="40.672350" lon="-4.742917">
        <ele>2416.0</ele>
        <time>2014-06-30T14:08:57Z</time>
      </trkpt>
      <trkpt lat="40.672367" lon="-4.742783">
        <ele>2416.0</ele>
        <time>2014-06-30T14:08:58Z</time>
      </trkpt>
      <trkpt lat="40.672383" lon="-4.742667">
        <ele>2417.0</ele>
        <time>2014-06-30T14:08:59Z</time>
      </trkpt>
      <trkpt lat="40.672400" lon="-4.742600">
        <ele>2420.0</ele>
        <time>2014-06-30T14:09:00Z</time>
      </trkpt>
      <trkpt lat="40.672417" lon="-4.742550">
        <ele>2423.0</ele>
        <time>2014-06-30T14:09:01Z</time>
      </trkpt>
      <trkpt lat="40.672450" lon="-4.742517">
        <ele>2425.0</ele>
        <time>2014-06-30T14:09:02Z</time>
      </trkpt>
      <trkpt lat="40.672483" lon="-4.742467">
        <ele>2423.0</ele>
        <time>2014-06-30T14:09:03Z</time>
      </trkpt>
      <trkpt lat="40.672533" lon="-4.742417">
        <ele>2424.0</ele>
        <time>2014-06-30T14:09:04Z</time>
      </trkpt>
      <trkpt lat="40.672617" lon="-4.742367">
        <ele>2424.0</ele>
        <time>2014-06-30T14:09:05Z</time>
      </trkpt>
      <trkpt lat="40.672683" lon="-4.742350">
        <ele>2424.0</ele>
        <time>2014-06-30T14:09:06Z</time>
      </trkpt>
      <trkpt lat="40.672767" lon="-4.742367">
        <ele>2424.0</ele>
        <time>2014-06-30T14:09:07Z</time>
      </trkpt>
      <trkpt lat="40.672833" lon="-4.742400">
        <ele>2424.0</ele>
        <time>2014-06-30T14:09:08Z</time>
      </trkpt>
      <trkpt lat="40.672900" lon="-4.742450">
        <ele>2425.0</ele>
        <time>2014-06-30T14:09:09Z</time>
      </trkpt>
      <trkpt lat="40.672967" lon="-4.742500">
        <ele>2427.0</ele>
        <time>2014-06-30T14:09:10Z</time>
      </trkpt>
      <trkpt lat="40.673017" lon="-4.742567">
        <ele>2427.0</ele>
        <time>2014-06-30T14:09:11Z</time>
      </trkpt>
      <trkpt lat="40.673067" lon="-4.742650">
        <ele>2427.0</ele>
        <time>2014-06-30T14:09:12Z</time>
      </trkpt>
      <trkpt lat="40.673117" lon="-4.742733">
        <ele>2428.0</ele>
        <time>2014-06-30T14:09:13Z</time>
      </trkpt>
      <trkpt lat="40.673150" lon="-4.742850">
        <ele>2429.0</ele>
        <time>2014-06-30T14:09:14Z</time>
      </trkpt>
      <trkpt lat="40.673183" lon="-4.742950">
        <ele>2430.0</ele>
        <time>2014-06-30T14:09:15Z</time>
      </trkpt>
      <trkpt lat="40.673217" lon="-4.743050">
        <ele>2431.0</ele>
        <time>2014-06-30T14:09:16Z</time>
      </trkpt>
      <trkpt lat="40.673217" lon="-4.743150">
        <ele>2432.0</ele>
        <time>2014-06-30T14:09:17Z</time>
      </trkpt>
      <trkpt lat="40.673233" lon="-4.743250">
        <ele>2433.0</ele>
        <time>2014-06-30T14:09:18Z</time>
      </trkpt>
      <trkpt lat="40.673250" lon="-4.743333">
        <ele>2435.0</ele>
        <time>2014-06-30T14:09:19Z</time>
      </trkpt>
      <trkpt lat="40.673250" lon="-4.743433">
        <ele>2433.0</ele>
        <time>2014-06-30T14:09:20Z</time>
      </trkpt>
      <trkpt lat="40.673233" lon="-4.743533">
        <ele>2433.0</ele>
        <time>2014-06-30T14:09:21Z</time>
      </trkpt>
      <trkpt lat="40.673217" lon="-4.743633">
        <ele>2433.0</ele>
        <time>2014-06-30T14:09:22Z</time>
      </trkpt>
      <trkpt lat="40.673183" lon="-4.743733">
        <ele>2434.0</ele>
        <time>2014-06-30T14:09:23Z</time>
      </trkpt>
      <trkpt lat="40.673150" lon="-4.743817">
        <ele>2434.0</ele>
        <time>2014-06-30T14:09:24Z</time>
      </trkpt>
      <trkpt lat="40.673117" lon="-4.743900">
        <ele>2435.0</ele>
        <time>2014-06-30T14:09:25Z</time>
      </trkpt>
      <trkpt lat="40.673067" lon="-4.743967">
        <ele>2435.0</ele>
        <time>2014-06-30T14:09:26Z</time>
      </trkpt>
      <trkpt lat="40.673000" lon="-4.744033">
        <ele>2435.0</ele>
        <time>2014-06-30T14:09:27Z</time>
      </trkpt>
      <trkpt lat="40.672933" lon="-4.744100">
        <ele>2436.0</ele>
        <time>2014-06-30T14:09:28Z</time>
      </trkpt>
      <trkpt lat="40.672867" lon="-4.744167">
        <ele>2436.0</ele>
        <time>2014-06-30T14:09:29Z</time>
      </trkpt>
      <trkpt lat="40.672800" lon="-4.744217">
        <ele>2437.0</ele>
        <time>2014-06-30T14:09:30Z</time>
      </trkpt>
      <trkpt lat="40.672717" lon="-4.744233">
        <ele>2437.0</ele>
        <time>2014-06-30T14:09:31Z</time>
      </trkpt>
      <trkpt lat="40.672650" lon="-4.744250">
        <ele>2438.0</ele>
        <time>2014-06-30T14:09:32Z</time>
      </trkpt>
      <trkpt lat="40.672583" lon="-4.744250">
        <ele>2438.0</ele>
        <time>2014-06-30T14:09:33Z</time>
      </trkpt>
      <trkpt lat="40.672500" lon="-4.744250">
        <ele>2439.0</ele>
        <time>2014-06-30T14:09:34Z</time>
      </trkpt>
      <trkpt lat="40.672417" lon="-4.744233">
        <ele>2440.0</ele>
        <time>2014-06-30T14:09:35Z</time>
      </trkpt>
      <trkpt lat="40.672350" lon="-4.744217">
        <ele>2441.0</ele>
        <time>2014-06-30T14:09:36Z</time>
      </trkpt>
      <trkpt lat="40.672283" lon="-4.744183">
        <ele>2442.0</ele>
        <time>2014-06-30T14:09:37Z</time>
      </trkpt>
      <trkpt lat="40.672233" lon="-4.744150">
        <ele>2443.0</ele>
        <time>2014-06-30T14:09:38Z</time>
      </trkpt>
      <trkpt lat="40.672167" lon="-4.744083">
        <ele>2444.0</ele>
        <time>2014-06-30T14:09:39Z</time>
      </trkpt>
      <trkpt lat="40.672117" lon="-4.744017">
        <ele>2444.0</ele>
        <time>2014-06-30T14:09:40Z</time>
      </trkpt>
      <trkpt lat="40.672050" lon="-4.743950">
        <ele>2444.0</ele>
        <time>2014-06-30T14:09:41Z</time>
      </trkpt>
      <trkpt lat="40.671967" lon="-4.743850">
        <ele>2444.0</ele>
        <time>2014-06-30T14:09:42Z</time>
      </trkpt>
      <trkpt lat="40.671883" lon="-4.743750">
        <ele>2444.0</ele>
        <time>2014-06-30T14:09:43Z</time>
      </trkpt>
      <trkpt lat="40.671817" lon="-4.743667">
        <ele>2446.0</ele>
        <time>2014-06-30T14:09:44Z</time>
      </trkpt>
      <trkpt lat="40.671750" lon="-4.743583">
        <ele>2448.0</ele>
        <time>2014-06-30T14:09:45Z</time>
      </trkpt>
      <trkpt lat="40.671700" lon="-4.743500">
        <ele>2450.0</ele>
        <time>2014-06-30T14:09:46Z</time>
      </trkpt>
      <trkpt lat="40.671633" lon="-4.743417">
        <ele>2449.0</ele>
        <time>2014-06-30T14:09:47Z</time>
      </trkpt>
      <trkpt lat="40.671583" lon="-4.743350">
        <ele>2449.0</ele>
        <time>2014-06-30T14:09:48Z</time>
      </trkpt>
      <trkpt lat="40.671533" lon="-4.743267">
        <ele>2450.0</ele>
        <time>2014-06-30T14:09:49Z</time>
      </trkpt>
      <trkpt lat="40.671500" lon="-4.743183">
        <ele>2451.0</ele>
        <time>2014-06-30T14:09:50Z</time>
      </trkpt>
      <trkpt lat="40.671433" lon="-4.743133">
        <ele>2452.0</ele>
        <time>2014-06-30T14:09:51Z</time>
      </trkpt>
      <trkpt lat="40.671400" lon="-4.743050">
        <ele>2453.0</ele>
        <time>2014-06-30T14:09:52Z</time>
      </trkpt>
      <trkpt lat="40.671367" lon="-4.742983">
        <ele>2453.0</ele>
        <time>2014-06-30T14:09:53Z</time>
      </trkpt>
      <trkpt lat="40.671350" lon="-4.742900">
        <ele>2453.0</ele>
        <time>2014-06-30T14:09:54Z</time>
      </trkpt>
      <trkpt lat="40.671350" lon="-4.742800">
        <ele>2453.0</ele>
        <time>2014-06-30T14:09:55Z</time>
      </trkpt>
      <trkpt lat="40.671367" lon="-4.742717">
        <ele>2453.0</ele>
        <time>2014-06-30T14:09:56Z</time>
      </trkpt>
      <trkpt lat="40.671400" lon="-4.742617">
        <ele>2454.0</ele>
        <time>2014-06-30T14:09:57Z</time>
      </trkpt>
      <trkpt lat="40.671417" lon="-4.742533">
        <ele>2454.0</ele>
        <time>2014-06-30T14:09:58Z</time>
      </trkpt>
      <trkpt lat="40.671467" lon="-4.742417">
        <ele>2454.0</ele>
        <time>2014-06-30T14:09:59Z</time>
      </trkpt>
      <trkpt lat="40.671517" lon="-4.742300">
        <ele>2454.0</ele>
        <time>2014-06-30T14:10:00Z</time>
      </trkpt>
      <trkpt lat="40.671567" lon="-4.742183">
        <ele>2454.0</ele>
        <time>2014-06-30T14:10:01Z</time>
      </trkpt>
      <trkpt lat="40.671617" lon="-4.742083">
        <ele>2454.0</ele>
        <time>2014-06-30T14:10:02Z</time>
      </trkpt>
      <trkpt lat="40.671667" lon="-4.741983">
        <ele>2455.0</ele>
        <time>2014-06-30T14:10:03Z</time>
      </trkpt>
      <trkpt lat="40.671717" lon="-4.741900">
        <ele>2455.0</ele>
        <time>2014-06-30T14:10:04Z</time>
      </trkpt>
      <trkpt lat="40.671750" lon="-4.741817">
        <ele>2455.0</ele>
        <time>2014-06-30T14:10:05Z</time>
      </trkpt>
      <trkpt lat="40.671800" lon="-4.741717">
        <ele>2455.0</ele>
        <time>2014-06-30T14:10:06Z</time>
      </trkpt>
      <trkpt lat="40.671867" lon="-4.741617">
        <ele>2455.0</ele>
        <time>2014-06-30T14:10:07Z</time>
      </trkpt>
      <trkpt lat="40.671933" lon="-4.741517">
        <ele>2454.0</ele>
        <time>2014-06-30T14:10:08Z</time>
      </trkpt>
      <trkpt lat="40.672017" lon="-4.741417">
        <ele>2455.0</ele>
        <time>2014-06-30T14:10:09Z</time>
      </trkpt>
      <trkpt lat="40.672083" lon="-4.741333">
        <ele>2457.0</ele>
        <time>2014-06-30T14:10:10Z</time>
      </trkpt>
      <trkpt lat="40.672133" lon="-4.741267">
        <ele>2459.0</ele>
        <time>2014-06-30T14:10:11Z</time>
      </trkpt>
      <trkpt lat="40.672183" lon="-4.741183">
        <ele>2461.0</ele>
        <time>2014-06-30T14:10:12Z</time>
      </trkpt>
      <trkpt lat="40.672233" lon="-4.741133">
        <ele>2462.0</ele>
        <time>2014-06-30T14:10:13Z</time>
      </trkpt>
      <trkpt lat="40.672250" lon="-4.741067">
        <ele>2464.0</ele>
        <time>2014-06-30T14:10:14Z</time>
      </trkpt>
      <trkpt lat="40.672300" lon="-4.741017">
        <ele>2465.0</ele>
        <time>2014-06-30T14:10:15Z</time>
      </trkpt>
      <trkpt lat="40.672350" lon="-4.741017">
        <ele>2462.0</ele>
        <time>2014-06-30T14:10:16Z</time>
      </trkpt>
      <trkpt lat="40.672417" lon="-4.740983">
        <ele>2462.0</ele>
        <time>2014-06-30T14:10:17Z</time>
      </trkpt>
      <trkpt lat="40.672483" lon="-4.741000">
        <ele>2462.0</ele>
        <time>2014-06-30T14:10:18Z</time>
      </trkpt>
      <trkpt lat="40.672550" lon="-4.741017">
        <ele>2462.0</ele>
        <time>2014-06-30T14:10:19Z</time>
      </trkpt>
      <trkpt lat="40.672600" lon="-4.741050">
        <ele>2463.0</ele>
        <time>2014-06-30T14:10:20Z</time>
      </trkpt>
      <trkpt lat="40.672650" lon="-4.741083">
        <ele>2463.0</ele>
        <time>2014-06-30T14:10:21Z</time>
      </trkpt>
      <trkpt lat="40.672700" lon="-4.741133">
        <ele>2464.0</ele>
        <time>2014-06-30T14:10:22Z</time>
      </trkpt>
      <trkpt lat="40.672750" lon="-4.741217">
        <ele>2464.0</ele>
        <time>2014-06-30T14:10:23Z</time>
      </trkpt>
      <trkpt lat="40.672783" lon="-4.741300">
        <ele>2464.0</ele>
        <time>2014-06-30T14:10:24Z</time>
      </trkpt>
      <trkpt lat="40.672800" lon="-4.741400">
        <ele>2465.0</ele>
        <time>2014-06-30T14:10:25Z</time>
      </trkpt>
      <trkpt lat="40.672800" lon="-4.741500">
        <ele>2465.0</ele>
        <time>2014-06-30T14:10:26Z</time>
      </trkpt>
      <trkpt lat="40.672767" lon="-4.741600">
        <ele>2465.0</ele>
        <time>2014-06-30T14:10:27Z</time>
      </trkpt>
      <trkpt lat="40.672700" lon="-4.741683">
        <ele>2465.0</ele>
        <time>2014-06-30T14:10:28Z</time>
      </trkpt>
      <trkpt lat="40.672617" lon="-4.741717">
        <ele>2465.0</ele>
        <time>2014-06-30T14:10:29Z</time>
      </trkpt>
      <trkpt lat="40.672517" lon="-4.741717">
        <ele>2465.0</ele>
        <time>2014-06-30T14:10:30Z</time>
      </trkpt>
      <trkpt lat="40.672417" lon="-4.741683">
        <ele>2465.0</ele>
        <time>2014-06-30T14:10:31Z</time>
      </trkpt>
      <trkpt lat="40.672350" lon="-4.741633">
        <ele>2465.0</ele>
        <time>2014-06-30T14:10:32Z</time>
      </trkpt>
      <trkpt lat="40.672267" lon="-4.741550">
        <ele>2466.0</ele>
        <time>2014-06-30T14:10:33Z</time>
      </trkpt>
      <trkpt lat="40.672217" lon="-4.741450">
        <ele>2466.0</ele>
        <time>2014-06-30T14:10:34Z</time>
      </trkpt>
      <trkpt lat="40.672167" lon="-4.741350">
        <ele>2467.0</ele>
        <time>2014-06-30T14:10:35Z</time>
      </trkpt>
      <trkpt lat="40.672117" lon="-4.741233">
        <ele>2468.0</ele>
        <time>2014-06-30T14:10:36Z</time>
      </trkpt>
      <trkpt lat="40.672083" lon="-4.741117">
        <ele>2469.0</ele>
        <time>2014-06-30T14:10:37Z</time>
      </trkpt>
      <trkpt lat="40.672050" lon="-4.741017">
        <ele>2470.0</ele>
        <time>2014-06-30T14:10:38Z</time>
      </trkpt>
      <trkpt lat="40.672050" lon="-4.740917">
        <ele>2471.0</ele>
        <time>2014-06-30T14:10:39Z</time>
      </trkpt>
      <trkpt lat="40.672033" lon="-4.740800">
        <ele>2471.0</ele>
        <time>2014-06-30T14:10:40Z</time>
      </trkpt>
      <trkpt lat="40.672000" lon="-4.740700">
        <ele>2471.0</ele>
        <time>2014-06-30T14:10:41Z</time>
      </trkpt>
      <trkpt lat="40.671983" lon="-4.740583">
        <ele>2472.0</ele>
        <time>2014-06-30T14:10:42Z</time>
      </trkpt>
      <trkpt lat="40.671950" lon="-4.740467">
        <ele>2472.0</ele>
        <time>2014-06-30T14:10:43Z</time>
      </trkpt>
      <trkpt lat="40.671950" lon="-4.740367">
        <ele>2472.0</ele>
        <time>2014-06-30T14:10:44Z</time>
      </trkpt>
      <trkpt lat="40.671967" lon="-4.740283">
        <ele>2472.0</ele>
        <time>2014-06-30T14:10:45Z</time>
      </trkpt>
      <trkpt lat="40.672000" lon="-4.740183">
        <ele>2472.0</ele>
        <time>2014-06-30T14:10:46Z</time>
      </trkpt>
      <trkpt lat="40.672033" lon="-4.740100">
        <ele>2472.0</ele>
        <time>2014-06-30T14:10:47Z</time>
      </trkpt>
      <trkpt lat="40.672067" lon="-4.740017">
        <ele>2472.0</ele>
        <time>2014-06-30T14:10:48Z</time>
      </trkpt>
      <trkpt lat="40.672117" lon="-4.739917">
        <ele>2471.0</ele>
        <time>2014-06-30T14:10:49Z</time>
      </trkpt>
      <trkpt lat="40.672183" lon="-4.739833">
        <ele>2471.0</ele>
        <time>2014-06-30T14:10:50Z</time>
      </trkpt>
      <trkpt lat="40.672250" lon="-4.739767">
        <ele>2471.0</ele>
        <time>2014-06-30T14:10:51Z</time>
      </trkpt>
      <trkpt lat="40.672317" lon="-4.739717">
        <ele>2471.0</ele>
        <time>2014-06-30T14:10:52Z</time>
      </trkpt>
      <trkpt lat="40.672400" lon="-4.739683">
        <ele>2471.0</ele>
        <time>2014-06-30T14:10:53Z</time>
      </trkpt>
      <trkpt lat="40.672483" lon="-4.739667">
        <ele>2471.0</ele>
        <time>2014-06-30T14:10:54Z</time>
      </trkpt>
      <trkpt lat="40.672567" lon="-4.739650">
        <ele>2471.0</ele>
        <time>2014-06-30T14:10:55Z</time>
      </trkpt>
      <trkpt lat="40.672650" lon="-4.739650">
        <ele>2471.0</ele>
        <time>2014-06-30T14:10:56Z</time>
      </trkpt>
      <trkpt lat="40.672717" lon="-4.739667">
        <ele>2471.0</ele>
        <time>2014-06-30T14:10:57Z</time>
      </trkpt>
      <trkpt lat="40.672817" lon="-4.739667">
        <ele>2471.0</ele>
        <time>2014-06-30T14:10:58Z</time>
      </trkpt>
      <trkpt lat="40.672917" lon="-4.739667">
        <ele>2470.0</ele>
        <time>2014-06-30T14:10:59Z</time>
      </trkpt>
      <trkpt lat="40.673033" lon="-4.739650">
        <ele>2470.0</ele>
        <time>2014-06-30T14:11:00Z</time>
      </trkpt>
      <trkpt lat="40.673117" lon="-4.739633">
        <ele>2470.0</ele>
        <time>2014-06-30T14:11:01Z</time>
      </trkpt>
      <trkpt lat="40.673217" lon="-4.739617">
        <ele>2470.0</ele>
        <time>2014-06-30T14:11:02Z</time>
      </trkpt>
      <trkpt lat="40.673317" lon="-4.739617">
        <ele>2470.0</ele>
        <time>2014-06-30T14:11:03Z</time>
      </trkpt>
      <trkpt lat="40.673400" lon="-4.739617">
        <ele>2470.0</ele>
        <time>2014-06-30T14:11:04Z</time>
      </trkpt>
      <trkpt lat="40.673500" lon="-4.739633">
        <ele>2469.0</ele>
        <time>2014-06-30T14:11:05Z</time>
      </trkpt>
      <trkpt lat="40.673567" lon="-4.739633">
        <ele>2470.0</ele>
        <time>2014-06-30T14:11:06Z</time>
      </trkpt>
      <trkpt lat="40.673667" lon="-4.739617">
        <ele>2470.0</ele>
        <time>2014-06-30T14:11:07Z</time>
      </trkpt>
      <trkpt lat="40.673783" lon="-4.739583">
        <ele>2469.0</ele>
        <time>2014-06-30T14:11:08Z</time>
      </trkpt>
      <trkpt lat="40.673883" lon="-4.739533">
        <ele>2469.0</ele>
        <time>2014-06-30T14:11:09Z</time>
      </trkpt>
      <trkpt lat="40.673983" lon="-4.739500">
        <ele>2470.0</ele>
        <time>2014-06-30T14:11:10Z</time>
      </trkpt>
      <trkpt lat="40.674067" lon="-4.739467">
        <ele>2471.0</ele>
        <time>2014-06-30T14:11:11Z</time>
      </trkpt>
      <trkpt lat="40.674150" lon="-4.739433">
        <ele>2471.0</ele>
        <time>2014-06-30T14:11:12Z</time>
      </trkpt>
      <trkpt lat="40.674217" lon="-4.739400">
        <ele>2471.0</ele>
        <time>2014-06-30T14:11:13Z</time>
      </trkpt>
      <trkpt lat="40.674267" lon="-4.739367">
        <ele>2471.0</ele>
        <time>2014-06-30T14:11:14Z</time>
      </trkpt>
      <trkpt lat="40.674317" lon="-4.739333">
        <ele>2471.0</ele>
        <time>2014-06-30T14:11:15Z</time>
      </trkpt>
      <trkpt lat="40.674367" lon="-4.739300">
        <ele>2471.0</ele>
        <time>2014-06-30T14:11:16Z</time>
      </trkpt>
      <trkpt lat="40.674417" lon="-4.739283">
        <ele>2471.0</ele>
        <time>2014-06-30T14:11:17Z</time>
      </trkpt>
      <trkpt lat="40.674483" lon="-4.739250">
        <ele>2471.0</ele>
        <time>2014-06-30T14:11:18Z</time>
      </trkpt>
      <trkpt lat="40.674550" lon="-4.739250">
        <ele>2471.0</ele>
        <time>2014-06-30T14:11:19Z</time>
      </trkpt>
      <trkpt lat="40.674617" lon="-4.739300">
        <ele>2471.0</ele>
        <time>2014-06-30T14:11:20Z</time>
      </trkpt>
      <trkpt lat="40.674667" lon="-4.739367">
        <ele>2471.0</ele>
        <time>2014-06-30T14:11:21Z</time>
      </trkpt>
      <trkpt lat="40.674683" lon="-4.739483">
        <ele>2471.0</ele>
        <time>2014-06-30T14:11:22Z</time>
      </trkpt>
      <trkpt lat="40.674683" lon="-4.739600">
        <ele>2471.0</ele>
        <time>2014-06-30T14:11:23Z</time>
      </trkpt>
      <trkpt lat="40.674633" lon="-4.739700">
        <ele>2472.0</ele>
        <time>2014-06-30T14:11:24Z</time>
      </trkpt>
      <trkpt lat="40.674583" lon="-4.739783">
        <ele>2472.0</ele>
        <time>2014-06-30T14:11:25Z</time>
      </trkpt>
      <trkpt lat="40.674533" lon="-4.739817">
        <ele>2472.0</ele>
        <time>2014-06-30T14:11:26Z</time>
      </trkpt>
      <trkpt lat="40.674450" lon="-4.739833">
        <ele>2472.0</ele>
        <time>2014-06-30T14:11:27Z</time>
      </trkpt>
      <trkpt lat="40.674400" lon="-4.739833">
        <ele>2472.0</ele>
        <time>2014-06-30T14:11:28Z</time>
      </trkpt>
      <trkpt lat="40.674333" lon="-4.739833">
        <ele>2473.0</ele>
        <time>2014-06-30T14:11:29Z</time>
      </trkpt>
      <trkpt lat="40.674267" lon="-4.739833">
        <ele>2473.0</ele>
        <time>2014-06-30T14:11:30Z</time>
      </trkpt>
      <trkpt lat="40.674217" lon="-4.739800">
        <ele>2474.0</ele>
        <time>2014-06-30T14:11:31Z</time>
      </trkpt>
      <trkpt lat="40.674150" lon="-4.739750">
        <ele>2474.0</ele>
        <time>2014-06-30T14:11:32Z</time>
      </trkpt>
      <trkpt lat="40.674083" lon="-4.739683">
        <ele>2475.0</ele>
        <time>2014-06-30T14:11:33Z</time>
      </trkpt>
      <trkpt lat="40.674033" lon="-4.739617">
        <ele>2476.0</ele>
        <time>2014-06-30T14:11:34Z</time>
      </trkpt>
      <trkpt lat="40.673983" lon="-4.739533">
        <ele>2478.0</ele>
        <time>2014-06-30T14:11:35Z</time>
      </trkpt>
      <trkpt lat="40.673950" lon="-4.739433">
        <ele>2479.0</ele>
        <time>2014-06-30T14:11:36Z</time>
      </trkpt>
      <trkpt lat="40.673917" lon="-4.739333">
        <ele>2480.0</ele>
        <time>2014-06-30T14:11:37Z</time>
      </trkpt>
      <trkpt lat="40.673883" lon="-4.739233">
        <ele>2481.0</ele>
        <time>2014-06-30T14:11:38Z</time>
      </trkpt>
      <trkpt lat="40.673867" lon="-4.739133">
        <ele>2482.0</ele>
        <time>2014-06-30T14:11:39Z</time>
      </trkpt>
      <trkpt lat="40.673867" lon="-4.739050">
        <ele>2481.0</ele>
        <time>2014-06-30T14:11:40Z</time>
      </trkpt>
      <trkpt lat="40.673867" lon="-4.738967">
        <ele>2480.0</ele>
        <time>2014-06-30T14:11:41Z</time>
      </trkpt>
      <trkpt lat="40.673883" lon="-4.738867">
        <ele>2479.0</ele>
        <time>2014-06-30T14:11:42Z</time>
      </trkpt>
      <trkpt lat="40.673917" lon="-4.738767">
        <ele>2478.0</ele>
        <time>2014-06-30T14:11:43Z</time>
      </trkpt>
      <trkpt lat="40.673950" lon="-4.738667">
        <ele>2479.0</ele>
        <time>2014-06-30T14:11:44Z</time>
      </trkpt>
      <trkpt lat="40.674000" lon="-4.738567">
        <ele>2478.0</ele>
        <time>2014-06-30T14:11:45Z</time>
      </trkpt>
      <trkpt lat="40.674067" lon="-4.738467">
        <ele>2478.0</ele>
        <time>2014-06-30T14:11:46Z</time>
      </trkpt>
      <trkpt lat="40.674117" lon="-4.738350">
        <ele>2477.0</ele>
        <time>2014-06-30T14:11:47Z</time>
      </trkpt>
      <trkpt lat="40.674167" lon="-4.738217">
        <ele>2476.0</ele>
        <time>2014-06-30T14:11:48Z</time>
      </trkpt>
      <trkpt lat="40.674217" lon="-4.738100">
        <ele>2475.0</ele>
        <time>2014-06-30T14:11:49Z</time>
      </trkpt>
      <trkpt lat="40.674267" lon="-4.737983">
        <ele>2476.0</ele>
        <time>2014-06-30T14:11:50Z</time>
      </trkpt>
      <trkpt lat="40.674300" lon="-4.737883">
        <ele>2475.0</ele>
        <time>2014-06-30T14:11:51Z</time>
      </trkpt>
      <trkpt lat="40.674333" lon="-4.737783">
        <ele>2475.0</ele>
        <time>2014-06-30T14:11:52Z</time>
      </trkpt>
      <trkpt lat="40.674350" lon="-4.737700">
        <ele>2475.0</ele>
        <time>2014-06-30T14:11:53Z</time>
      </trkpt>
      <trkpt lat="40.674367" lon="-4.737633">
        <ele>2474.0</ele>
        <time>2014-06-30T14:11:54Z</time>
      </trkpt>
      <trkpt lat="40.674400" lon="-4.737550">
        <ele>2474.0</ele>
        <time>2014-06-30T14:11:55Z</time>
      </trkpt>
      <trkpt lat="40.674417" lon="-4.737450">
        <ele>2473.0</ele>
        <time>2014-06-30T14:11:56Z</time>
      </trkpt>
      <trkpt lat="40.674467" lon="-4.737350">
        <ele>2471.0</ele>
        <time>2014-06-30T14:11:57Z</time>
      </trkpt>
      <trkpt lat="40.674500" lon="-4.737250">
        <ele>2469.0</ele>
        <time>2014-06-30T14:11:58Z</time>
      </trkpt>
      <trkpt lat="40.674550" lon="-4.737133">
        <ele>2465.0</ele>
        <time>2014-06-30T14:11:59Z</time>
      </trkpt>
      <trkpt lat="40.674583" lon="-4.737000">
        <ele>2460.0</ele>
        <time>2014-06-30T14:12:00Z</time>
      </trkpt>
      <trkpt lat="40.674617" lon="-4.736867">
        <ele>2457.0</ele>
        <time>2014-06-30T14:12:01Z</time>
      </trkpt>
      <trkpt lat="40.674633" lon="-4.736750">
        <ele>2454.0</ele>
        <time>2014-06-30T14:12:02Z</time>
      </trkpt>
      <trkpt lat="40.674633" lon="-4.736617">
        <ele>2452.0</ele>
        <time>2014-06-30T14:12:03Z</time>
      </trkpt>
      <trkpt lat="40.674650" lon="-4.736517">
        <ele>2449.0</ele>
        <time>2014-06-30T14:12:04Z</time>
      </trkpt>
      <trkpt lat="40.674667" lon="-4.736400">
        <ele>2447.0</ele>
        <time>2014-06-30T14:12:05Z</time>
      </trkpt>
      <trkpt lat="40.674667" lon="-4.736283">
        <ele>2444.0</ele>
        <time>2014-06-30T14:12:06Z</time>
      </trkpt>
      <trkpt lat="40.674667" lon="-4.736150">
        <ele>2440.0</ele>
        <time>2014-06-30T14:12:07Z</time>
      </trkpt>
      <trkpt lat="40.674633" lon="-4.736017">
        <ele>2437.0</ele>
        <time>2014-06-30T14:12:08Z</time>
      </trkpt>
      <trkpt lat="40.674617" lon="-4.735900">
        <ele>2434.0</ele>
        <time>2014-06-30T14:12:09Z</time>
      </trkpt>
      <trkpt lat="40.674600" lon="-4.735800">
        <ele>2432.0</ele>
        <time>2014-06-30T14:12:10Z</time>
      </trkpt>
      <trkpt lat="40.674583" lon="-4.735700">
        <ele>2430.0</ele>
        <time>2014-06-30T14:12:11Z</time>
      </trkpt>
      <trkpt lat="40.674567" lon="-4.735583">
        <ele>2428.0</ele>
        <time>2014-06-30T14:12:12Z</time>
      </trkpt>
      <trkpt lat="40.674550" lon="-4.735467">
        <ele>2426.0</ele>
        <time>2014-06-30T14:12:13Z</time>
      </trkpt>
      <trkpt lat="40.674517" lon="-4.735350">
        <ele>2423.0</ele>
        <time>2014-06-30T14:12:14Z</time>
      </trkpt>
      <trkpt lat="40.674483" lon="-4.735233">
        <ele>2421.0</ele>
        <time>2014-06-30T14:12:15Z</time>
      </trkpt>
      <trkpt lat="40.674450" lon="-4.735117">
        <ele>2420.0</ele>
        <time>2014-06-30T14:12:16Z</time>
      </trkpt>
      <trkpt lat="40.674400" lon="-4.735000">
        <ele>2418.0</ele>
        <time>2014-06-30T14:12:17Z</time>
      </trkpt>
      <trkpt lat="40.674367" lon="-4.734867">
        <ele>2423.0</ele>
        <time>2014-06-30T14:12:18Z</time>
      </trkpt>
      <trkpt lat="40.674317" lon="-4.734767">
        <ele>2422.0</ele>
        <time>2014-06-30T14:12:19Z</time>
      </trkpt>
      <trkpt lat="40.674283" lon="-4.734650">
        <ele>2423.0</ele>
        <time>2014-06-30T14:12:20Z</time>
      </trkpt>
      <trkpt lat="40.674250" lon="-4.734550">
        <ele>2423.0</ele>
        <time>2014-06-30T14:12:21Z</time>
      </trkpt>
      <trkpt lat="40.674233" lon="-4.734433">
        <ele>2422.0</ele>
        <time>2014-06-30T14:12:22Z</time>
      </trkpt>
      <trkpt lat="40.674200" lon="-4.734317">
        <ele>2422.0</ele>
        <time>2014-06-30T14:12:23Z</time>
      </trkpt>
      <trkpt lat="40.674183" lon="-4.734200">
        <ele>2421.0</ele>
        <time>2014-06-30T14:12:24Z</time>
      </trkpt>
      <trkpt lat="40.674167" lon="-4.734067">
        <ele>2419.0</ele>
        <time>2014-06-30T14:12:25Z</time>
      </trkpt>
      <trkpt lat="40.674133" lon="-4.733950">
        <ele>2417.0</ele>
        <time>2014-06-30T14:12:26Z</time>
      </trkpt>
      <trkpt lat="40.674100" lon="-4.733833">
        <ele>2416.0</ele>
        <time>2014-06-30T14:12:27Z</time>
      </trkpt>
      <trkpt lat="40.674067" lon="-4.733733">
        <ele>2413.0</ele>
        <time>2014-06-30T14:12:28Z</time>
      </trkpt>
      <trkpt lat="40.674017" lon="-4.733633">
        <ele>2413.0</ele>
        <time>2014-06-30T14:12:29Z</time>
      </trkpt>
      <trkpt lat="40.673983" lon="-4.733550">
        <ele>2412.0</ele>
        <time>2014-06-30T14:12:30Z</time>
      </trkpt>
      <trkpt lat="40.673967" lon="-4.733433">
        <ele>2411.0</ele>
        <time>2014-06-30T14:12:31Z</time>
      </trkpt>
      <trkpt lat="40.673950" lon="-4.733300">
        <ele>2409.0</ele>
        <time>2014-06-30T14:12:32Z</time>
      </trkpt>
      <trkpt lat="40.673917" lon="-4.733167">
        <ele>2406.0</ele>
        <time>2014-06-30T14:12:33Z</time>
      </trkpt>
      <trkpt lat="40.673867" lon="-4.733050">
        <ele>2403.0</ele>
        <time>2014-06-30T14:12:34Z</time>
      </trkpt>
      <trkpt lat="40.673833" lon="-4.732917">
        <ele>2401.0</ele>
        <time>2014-06-30T14:12:35Z</time>
      </trkpt>
      <trkpt lat="40.673800" lon="-4.732800">
        <ele>2399.0</ele>
        <time>2014-06-30T14:12:36Z</time>
      </trkpt>
      <trkpt lat="40.673750" lon="-4.732683">
        <ele>2397.0</ele>
        <time>2014-06-30T14:12:37Z</time>
      </trkpt>
      <trkpt lat="40.673717" lon="-4.732550">
        <ele>2395.0</ele>
        <time>2014-06-30T14:12:38Z</time>
      </trkpt>
      <trkpt lat="40.673683" lon="-4.732417">
        <ele>2393.0</ele>
        <time>2014-06-30T14:12:39Z</time>
      </trkpt>
      <trkpt lat="40.673667" lon="-4.732283">
        <ele>2391.0</ele>
        <time>2014-06-30T14:12:40Z</time>
      </trkpt>
      <trkpt lat="40.673650" lon="-4.732167">
        <ele>2390.0</ele>
        <time>2014-06-30T14:12:41Z</time>
      </trkpt>
      <trkpt lat="40.673650" lon="-4.732033">
        <ele>2388.0</ele>
        <time>2014-06-30T14:12:42Z</time>
      </trkpt>
      <trkpt lat="40.673650" lon="-4.731900">
        <ele>2386.0</ele>
        <time>2014-06-30T14:12:43Z</time>
      </trkpt>
      <trkpt lat="40.673633" lon="-4.731750">
        <ele>2384.0</ele>
        <time>2014-06-30T14:12:44Z</time>
      </trkpt>
      <trkpt lat="40.673633" lon="-4.731600">
        <ele>2382.0</ele>
        <time>2014-06-30T14:12:45Z</time>
      </trkpt>
      <trkpt lat="40.673633" lon="-4.731467">
        <ele>2382.0</ele>
        <time>2014-06-30T14:12:46Z</time>
      </trkpt>
      <trkpt lat="40.673617" lon="-4.731333">
        <ele>2382.0</ele>
        <time>2014-06-30T14:12:47Z</time>
      </trkpt>
      <trkpt lat="40.673600" lon="-4.731217">
        <ele>2381.0</ele>
        <time>2014-06-30T14:12:48Z</time>
      </trkpt>
      <trkpt lat="40.673550" lon="-4.731100">
        <ele>2379.0</ele>
        <time>2014-06-30T14:12:49Z</time>
      </trkpt>
      <trkpt lat="40.673517" lon="-4.730967">
        <ele>2377.0</ele>
        <time>2014-06-30T14:12:50Z</time>
      </trkpt>
      <trkpt lat="40.673483" lon="-4.730817">
        <ele>2376.0</ele>
        <time>2014-06-30T14:12:51Z</time>
      </trkpt>
      <trkpt lat="40.673433" lon="-4.730683">
        <ele>2376.0</ele>
        <time>2014-06-30T14:12:52Z</time>
      </trkpt>
      <trkpt lat="40.673383" lon="-4.730567">
        <ele>2376.0</ele>
        <time>2014-06-30T14:12:53Z</time>
      </trkpt>
      <trkpt lat="40.673333" lon="-4.730433">
        <ele>2377.0</ele>
        <time>2014-06-30T14:12:54Z</time>
      </trkpt>
      <trkpt lat="40.673283" lon="-4.730333">
        <ele>2377.0</ele>
        <time>2014-06-30T14:12:55Z</time>
      </trkpt>
      <trkpt lat="40.673250" lon="-4.730233">
        <ele>2378.0</ele>
        <time>2014-06-30T14:12:56Z</time>
      </trkpt>
      <trkpt lat="40.673217" lon="-4.730167">
        <ele>2378.0</ele>
        <time>2014-06-30T14:12:57Z</time>
      </trkpt>
      <trkpt lat="40.673183" lon="-4.730100">
        <ele>2378.0</ele>
        <time>2014-06-30T14:12:58Z</time>
      </trkpt>
      <trkpt lat="40.673167" lon="-4.730000">
        <ele>2378.0</ele>
        <time>2014-06-30T14:12:59Z</time>
      </trkpt>
      <trkpt lat="40.673150" lon="-4.729900">
        <ele>2377.0</ele>
        <time>2014-06-30T14:13:00Z</time>
      </trkpt>
      <trkpt lat="40.673117" lon="-4.729767">
        <ele>2377.0</ele>
        <time>2014-06-30T14:13:01Z</time>
      </trkpt>
      <trkpt lat="40.673083" lon="-4.729617">
        <ele>2376.0</ele>
        <time>2014-06-30T14:13:02Z</time>
      </trkpt>
      <trkpt lat="40.673033" lon="-4.729450">
        <ele>2374.0</ele>
        <time>2014-06-30T14:13:03Z</time>
      </trkpt>
      <trkpt lat="40.672967" lon="-4.729300">
        <ele>2374.0</ele>
        <time>2014-06-30T14:13:04Z</time>
      </trkpt>
      <trkpt lat="40.672917" lon="-4.729150">
        <ele>2373.0</ele>
        <time>2014-06-30T14:13:05Z</time>
      </trkpt>
      <trkpt lat="40.672867" lon="-4.729017">
        <ele>2373.0</ele>
        <time>2014-06-30T14:13:06Z</time>
      </trkpt>
      <trkpt lat="40.672817" lon="-4.728900">
        <ele>2373.0</ele>
        <time>2014-06-30T14:13:07Z</time>
      </trkpt>
      <trkpt lat="40.672767" lon="-4.728750">
        <ele>2372.0</ele>
        <time>2014-06-30T14:13:08Z</time>
      </trkpt>
      <trkpt lat="40.672717" lon="-4.728600">
        <ele>2370.0</ele>
        <time>2014-06-30T14:13:09Z</time>
      </trkpt>
      <trkpt lat="40.672633" lon="-4.728433">
        <ele>2370.0</ele>
        <time>2014-06-30T14:13:10Z</time>
      </trkpt>
      <trkpt lat="40.672583" lon="-4.728283">
        <ele>2373.0</ele>
        <time>2014-06-30T14:13:11Z</time>
      </trkpt>
      <trkpt lat="40.672517" lon="-4.728167">
        <ele>2375.0</ele>
        <time>2014-06-30T14:13:12Z</time>
      </trkpt>
      <trkpt lat="40.672467" lon="-4.728050">
        <ele>2377.0</ele>
        <time>2014-06-30T14:13:13Z</time>
      </trkpt>
      <trkpt lat="40.672417" lon="-4.727983">
        <ele>2375.0</ele>
        <time>2014-06-30T14:13:14Z</time>
      </trkpt>
      <trkpt lat="40.672367" lon="-4.727883">
        <ele>2375.0</ele>
        <time>2014-06-30T14:13:15Z</time>
      </trkpt>
      <trkpt lat="40.672317" lon="-4.727750">
        <ele>2375.0</ele>
        <time>2014-06-30T14:13:16Z</time>
      </trkpt>
      <trkpt lat="40.672267" lon="-4.727617">
        <ele>2376.0</ele>
        <time>2014-06-30T14:13:17Z</time>
      </trkpt>
      <trkpt lat="40.672250" lon="-4.727483">
        <ele>2376.0</ele>
        <time>2014-06-30T14:13:18Z</time>
      </trkpt>
      <trkpt lat="40.672283" lon="-4.727350">
        <ele>2376.0</ele>
        <time>2014-06-30T14:13:19Z</time>
      </trkpt>
      <trkpt lat="40.672350" lon="-4.727267">
        <ele>2376.0</ele>
        <time>2014-06-30T14:13:20Z</time>
      </trkpt>
      <trkpt lat="40.672433" lon="-4.727200">
        <ele>2378.0</ele>
        <time>2014-06-30T14:13:21Z</time>
      </trkpt>
      <trkpt lat="40.672500" lon="-4.727200">
        <ele>2380.0</ele>
        <time>2014-06-30T14:13:22Z</time>
      </trkpt>
      <trkpt lat="40.672550" lon="-4.727217">
        <ele>2382.0</ele>
        <time>2014-06-30T14:13:23Z</time>
      </trkpt>
      <trkpt lat="40.672567" lon="-4.727267">
        <ele>2384.0</ele>
        <time>2014-06-30T14:13:24Z</time>
      </trkpt>
      <trkpt lat="40.672583" lon="-4.727333">
        <ele>2386.0</ele>
        <time>2014-06-30T14:13:25Z</time>
      </trkpt>
      <trkpt lat="40.672583" lon="-4.727400">
        <ele>2387.0</ele>
        <time>2014-06-30T14:13:26Z</time>
      </trkpt>
      <trkpt lat="40.672550" lon="-4.727467">
        <ele>2385.0</ele>
        <time>2014-06-30T14:13:27Z</time>
      </trkpt>
      <trkpt lat="40.672483" lon="-4.727517">
        <ele>2385.0</ele>
        <time>2014-06-30T14:13:28Z</time>
      </trkpt>
      <trkpt lat="40.672400" lon="-4.727550">
        <ele>2386.0</ele>
        <time>2014-06-30T14:13:29Z</time>
      </trkpt>
      <trkpt lat="40.672300" lon="-4.727533">
        <ele>2386.0</ele>
        <time>2014-06-30T14:13:30Z</time>
      </trkpt>
      <trkpt lat="40.672200" lon="-4.727483">
        <ele>2387.0</ele>
        <time>2014-06-30T14:13:31Z</time>
      </trkpt>
      <trkpt lat="40.672117" lon="-4.727383">
        <ele>2387.0</ele>
        <time>2014-06-30T14:13:32Z</time>
      </trkpt>
      <trkpt lat="40.672050" lon="-4.727267">
        <ele>2387.0</ele>
        <time>2014-06-30T14:13:33Z</time>
      </trkpt>
      <trkpt lat="40.672000" lon="-4.727150">
        <ele>2388.0</ele>
        <time>2014-06-30T14:13:34Z</time>
      </trkpt>
      <trkpt lat="40.671950" lon="-4.727033">
        <ele>2390.0</ele>
        <time>2014-06-30T14:13:35Z</time>
      </trkpt>
      <trkpt lat="40.671933" lon="-4.726900">
        <ele>2390.0</ele>
        <time>2014-06-30T14:13:36Z</time>
      </trkpt>
      <trkpt lat="40.671917" lon="-4.726783">
        <ele>2391.0</ele>
        <time>2014-06-30T14:13:37Z</time>
      </trkpt>
      <trkpt lat="40.671900" lon="-4.726650">
        <ele>2391.0</ele>
        <time>2014-06-30T14:13:38Z</time>
      </trkpt>
      <trkpt lat="40.671883" lon="-4.726500">
        <ele>2392.0</ele>
        <time>2014-06-30T14:13:39Z</time>
      </trkpt>
      <trkpt lat="40.671867" lon="-4.726350">
        <ele>2394.0</ele>
        <time>2014-06-30T14:13:40Z</time>
      </trkpt>
      <trkpt lat="40.671850" lon="-4.726233">
        <ele>2396.0</ele>
        <time>2014-06-30T14:13:41Z</time>
      </trkpt>
      <trkpt lat="40.671833" lon="-4.726117">
        <ele>2398.0</ele>
        <time>2014-06-30T14:13:42Z</time>
      </trkpt>
      <trkpt lat="40.671783" lon="-4.726000">
        <ele>2399.0</ele>
        <time>2014-06-30T14:13:43Z</time>
      </trkpt>
      <trkpt lat="40.671750" lon="-4.725900">
        <ele>2402.0</ele>
        <time>2014-06-30T14:13:44Z</time>
      </trkpt>
      <trkpt lat="40.671717" lon="-4.725817">
        <ele>2400.0</ele>
        <time>2014-06-30T14:13:45Z</time>
      </trkpt>
      <trkpt lat="40.671683" lon="-4.725733">
        <ele>2400.0</ele>
        <time>2014-06-30T14:13:46Z</time>
      </trkpt>
      <trkpt lat="40.671700" lon="-4.725633">
        <ele>2401.0</ele>
        <time>2014-06-30T14:13:47Z</time>
      </trkpt>
      <trkpt lat="40.671717" lon="-4.725550">
        <ele>2402.0</ele>
        <time>2014-06-30T14:13:48Z</time>
      </trkpt>
      <trkpt lat="40.671783" lon="-4.725467">
        <ele>2404.0</ele>
        <time>2014-06-30T14:13:49Z</time>
      </trkpt>
      <trkpt lat="40.671850" lon="-4.725400">
        <ele>2407.0</ele>
        <time>2014-06-30T14:13:50Z</time>
      </trkpt>
      <trkpt lat="40.671900" lon="-4.725400">
        <ele>2410.0</ele>
        <time>2014-06-30T14:13:51Z</time>
      </trkpt>
      <trkpt lat="40.671933" lon="-4.725417">
        <ele>2412.0</ele>
        <time>2014-06-30T14:13:52Z</time>
      </trkpt>
      <trkpt lat="40.671933" lon="-4.725500">
        <ele>2410.0</ele>
        <time>2014-06-30T14:13:53Z</time>
      </trkpt>
      <trkpt lat="40.671917" lon="-4.725617">
        <ele>2411.0</ele>
        <time>2014-06-30T14:13:54Z</time>
      </trkpt>
      <trkpt lat="40.671850" lon="-4.725717">
        <ele>2412.0</ele>
        <time>2014-06-30T14:13:55Z</time>
      </trkpt>
      <trkpt lat="40.671767" lon="-4.725783">
        <ele>2413.0</ele>
        <time>2014-06-30T14:13:56Z</time>
      </trkpt>
      <trkpt lat="40.671667" lon="-4.725750">
        <ele>2413.0</ele>
        <time>2014-06-30T14:13:57Z</time>
      </trkpt>
      <trkpt lat="40.671567" lon="-4.725650">
        <ele>2415.0</ele>
        <time>2014-06-30T14:13:58Z</time>
      </trkpt>
      <trkpt lat="40.671500" lon="-4.725517">
        <ele>2418.0</ele>
        <time>2014-06-30T14:13:59Z</time>
      </trkpt>
      <trkpt lat="40.671433" lon="-4.725383">
        <ele>2424.0</ele>
        <time>2014-06-30T14:14:00Z</time>
      </trkpt>
      <trkpt lat="40.671417" lon="-4.725283">
        <ele>2427.0</ele>
        <time>2014-06-30T14:14:01Z</time>
      </trkpt>
      <trkpt lat="40.671400" lon="-4.725200">
        <ele>2430.0</ele>
        <time>2014-06-30T14:14:02Z</time>
      </trkpt>
      <trkpt lat="40.671400" lon="-4.725117">
        <ele>2428.0</ele>
        <time>2014-06-30T14:14:03Z</time>
      </trkpt>
      <trkpt lat="40.671417" lon="-4.725000">
        <ele>2429.0</ele>
        <time>2014-06-30T14:14:04Z</time>
      </trkpt>
      <trkpt lat="40.671467" lon="-4.724900">
        <ele>2430.0</ele>
        <time>2014-06-30T14:14:05Z</time>
      </trkpt>
      <trkpt lat="40.671517" lon="-4.724850">
        <ele>2433.0</ele>
        <time>2014-06-30T14:14:06Z</time>
      </trkpt>
      <trkpt lat="40.671583" lon="-4.724833">
        <ele>2435.0</ele>
        <time>2014-06-30T14:14:07Z</time>
      </trkpt>
      <trkpt lat="40.671617" lon="-4.724867">
        <ele>2437.0</ele>
        <time>2014-06-30T14:14:08Z</time>
      </trkpt>
      <trkpt lat="40.671650" lon="-4.724933">
        <ele>2439.0</ele>
        <time>2014-06-30T14:14:09Z</time>
      </trkpt>
      <trkpt lat="40.671667" lon="-4.725000">
        <ele>2441.0</ele>
        <time>2014-06-30T14:14:10Z</time>
      </trkpt>
      <trkpt lat="40.671650" lon="-4.725067">
        <ele>2439.0</ele>
        <time>2014-06-30T14:14:11Z</time>
      </trkpt>
      <trkpt lat="40.671633" lon="-4.725150">
        <ele>2441.0</ele>
        <time>2014-06-30T14:14:12Z</time>
      </trkpt>
      <trkpt lat="40.671600" lon="-4.725250">
        <ele>2442.0</ele>
        <time>2014-06-30T14:14:13Z</time>
      </trkpt>
      <trkpt lat="40.671517" lon="-4.725300">
        <ele>2443.0</ele>
        <time>2014-06-30T14:14:14Z</time>
      </trkpt>
      <trkpt lat="40.671417" lon="-4.725333">
        <ele>2445.0</ele>
        <time>2014-06-30T14:14:15Z</time>
      </trkpt>
      <trkpt lat="40.671317" lon="-4.725333">
        <ele>2447.0</ele>
        <time>2014-06-30T14:14:16Z</time>
      </trkpt>
      <trkpt lat="40.671233" lon="-4.725300">
        <ele>2450.0</ele>
        <time>2014-06-30T14:14:17Z</time>
      </trkpt>
      <trkpt lat="40.671133" lon="-4.725250">
        <ele>2453.0</ele>
        <time>2014-06-30T14:14:18Z</time>
      </trkpt>
      <trkpt lat="40.671050" lon="-4.725200">
        <ele>2455.0</ele>
        <time>2014-06-30T14:14:19Z</time>
      </trkpt>
      <trkpt lat="40.670967" lon="-4.725117">
        <ele>2458.0</ele>
        <time>2014-06-30T14:14:20Z</time>
      </trkpt>
      <trkpt lat="40.670900" lon="-4.725033">
        <ele>2460.0</ele>
        <time>2014-06-30T14:14:21Z</time>
      </trkpt>
      <trkpt lat="40.670833" lon="-4.724917">
        <ele>2462.0</ele>
        <time>2014-06-30T14:14:22Z</time>
      </trkpt>
      <trkpt lat="40.670800" lon="-4.724817">
        <ele>2464.0</ele>
        <time>2014-06-30T14:14:23Z</time>
      </trkpt>
      <trkpt lat="40.670800" lon="-4.724700">
        <ele>2466.0</ele>
        <time>2014-06-30T14:14:24Z</time>
      </trkpt>
      <trkpt lat="40.670800" lon="-4.724583">
        <ele>2467.0</ele>
        <time>2014-06-30T14:14:25Z</time>
      </trkpt>
      <trkpt lat="40.670817" lon="-4.724483">
        <ele>2469.0</ele>
        <time>2014-06-30T14:14:26Z</time>
      </trkpt>
      <trkpt lat="40.670850" lon="-4.724383">
        <ele>2470.0</ele>
        <time>2014-06-30T14:14:27Z</time>
      </trkpt>
      <trkpt lat="40.670900" lon="-4.724317">
        <ele>2472.0</ele>
        <time>2014-06-30T14:14:28Z</time>
      </trkpt>
      <trkpt lat="40.670967" lon="-4.724267">
        <ele>2474.0</ele>
        <time>2014-06-30T14:14:29Z</time>
      </trkpt>
      <trkpt lat="40.671017" lon="-4.724250">
        <ele>2476.0</ele>
        <time>2014-06-30T14:14:30Z</time>
      </trkpt>
      <trkpt lat="40.671067" lon="-4.724267">
        <ele>2478.0</ele>
        <time>2014-06-30T14:14:31Z</time>
      </trkpt>
      <trkpt lat="40.671083" lon="-4.724283">
        <ele>2477.0</ele>
        <time>2014-06-30T14:14:32Z</time>
      </trkpt>
      <trkpt lat="40.671117" lon="-4.724333">
        <ele>2478.0</ele>
        <time>2014-06-30T14:14:33Z</time>
      </trkpt>
      <trkpt lat="40.671133" lon="-4.724400">
        <ele>2479.0</ele>
        <time>2014-06-30T14:14:34Z</time>
      </trkpt>
      <trkpt lat="40.671150" lon="-4.724483">
        <ele>2481.0</ele>
        <time>2014-06-30T14:14:35Z</time>
      </trkpt>
      <trkpt lat="40.671167" lon="-4.724567">
        <ele>2481.0</ele>
        <time>2014-06-30T14:14:36Z</time>
      </trkpt>
      <trkpt lat="40.671150" lon="-4.724633">
        <ele>2482.0</ele>
        <time>2014-06-30T14:14:37Z</time>
      </trkpt>
      <trkpt lat="40.671133" lon="-4.724700">
        <ele>2483.0</ele>
        <time>2014-06-30T14:14:38Z</time>
      </trkpt>
      <trkpt lat="40.671083" lon="-4.724767">
        <ele>2484.0</ele>
        <time>2014-06-30T14:14:39Z</time>
      </trkpt>
      <trkpt lat="40.671050" lon="-4.724850">
        <ele>2485.0</ele>
        <time>2014-06-30T14:14:40Z</time>
      </trkpt>
      <trkpt lat="40.671000" lon="-4.724917">
        <ele>2485.0</ele>
        <time>2014-06-30T14:14:41Z</time>
      </trkpt>
      <trkpt lat="40.670933" lon="-4.724967">
        <ele>2487.0</ele>
        <time>2014-06-30T14:14:42Z</time>
      </trkpt>
      <trkpt lat="40.670867" lon="-4.725017">
        <ele>2488.0</ele>
        <time>2014-06-30T14:14:43Z</time>
      </trkpt>
      <trkpt lat="40.670783" lon="-4.725033">
        <ele>2489.0</ele>
        <time>2014-06-30T14:14:44Z</time>
      </trkpt>
      <trkpt lat="40.670683" lon="-4.725017">
        <ele>2490.0</ele>
        <time>2014-06-30T14:14:45Z</time>
      </trkpt>
      <trkpt lat="40.670617" lon="-4.724967">
        <ele>2491.0</ele>
        <time>2014-06-30T14:14:46Z</time>
      </trkpt>
      <trkpt lat="40.670567" lon="-4.724900">
        <ele>2494.0</ele>
        <time>2014-06-30T14:14:47Z</time>
      </trkpt>
      <trkpt lat="40.670533" lon="-4.724800">
        <ele>2495.0</ele>
        <time>2014-06-30T14:14:48Z</time>
      </trkpt>
      <trkpt lat="40.670500" lon="-4.724717">
        <ele>2497.0</ele>
        <time>2014-06-30T14:14:49Z</time>
      </trkpt>
      <trkpt lat="40.670483" lon="-4.724617">
        <ele>2497.0</ele>
        <time>2014-06-30T14:14:50Z</time>
      </trkpt>
      <trkpt lat="40.670450" lon="-4.724517">
        <ele>2497.0</ele>
        <time>2014-06-30T14:14:51Z</time>
      </trkpt>
      <trkpt lat="40.670417" lon="-4.724417">
        <ele>2498.0</ele>
        <time>2014-06-30T14:14:52Z</time>
      </trkpt>
      <trkpt lat="40.670417" lon="-4.724283">
        <ele>2498.0</ele>
        <time>2014-06-30T14:14:53Z</time>
      </trkpt>
      <trkpt lat="40.670433" lon="-4.724167">
        <ele>2498.0</ele>
        <time>2014-06-30T14:14:54Z</time>
      </trkpt>
      <trkpt lat="40.670467" lon="-4.724033">
        <ele>2499.0</ele>
        <time>2014-06-30T14:14:55Z</time>
      </trkpt>
      <trkpt lat="40.670517" lon="-4.723917">
        <ele>2500.0</ele>
        <time>2014-06-30T14:14:56Z</time>
      </trkpt>
      <trkpt lat="40.670550" lon="-4.723800">
        <ele>2502.0</ele>
        <time>2014-06-30T14:14:57Z</time>
      </trkpt>
      <trkpt lat="40.670583" lon="-4.723700">
        <ele>2504.0</ele>
        <time>2014-06-30T14:14:58Z</time>
      </trkpt>
      <trkpt lat="40.670600" lon="-4.723617">
        <ele>2503.0</ele>
        <time>2014-06-30T14:14:59Z</time>
      </trkpt>
      <trkpt lat="40.670633" lon="-4.723533">
        <ele>2503.0</ele>
        <time>2014-06-30T14:15:00Z</time>
      </trkpt>
      <trkpt lat="40.670650" lon="-4.723450">
        <ele>2504.0</ele>
        <time>2014-06-30T14:15:01Z</time>
      </trkpt>
      <trkpt lat="40.670683" lon="-4.723383">
        <ele>2504.0</ele>
        <time>2014-06-30T14:15:02Z</time>
      </trkpt>
      <trkpt lat="40.670717" lon="-4.723300">
        <ele>2504.0</ele>
        <time>2014-06-30T14:15:03Z</time>
      </trkpt>
      <trkpt lat="40.670733" lon="-4.723233">
        <ele>2505.0</ele>
        <time>2014-06-30T14:15:04Z</time>
      </trkpt>
      <trkpt lat="40.670767" lon="-4.723167">
        <ele>2505.0</ele>
        <time>2014-06-30T14:15:05Z</time>
      </trkpt>
      <trkpt lat="40.670817" lon="-4.723100">
        <ele>2505.0</ele>
        <time>2014-06-30T14:15:06Z</time>
      </trkpt>
      <trkpt lat="40.670867" lon="-4.723083">
        <ele>2506.0</ele>
        <time>2014-06-30T14:15:07Z</time>
      </trkpt>
      <trkpt lat="40.670900" lon="-4.723100">
        <ele>2507.0</ele>
        <time>2014-06-30T14:15:08Z</time>
      </trkpt>
      <trkpt lat="40.670933" lon="-4.723150">
        <ele>2507.0</ele>
        <time>2014-06-30T14:15:09Z</time>
      </trkpt>
      <trkpt lat="40.670950" lon="-4.723233">
        <ele>2509.0</ele>
        <time>2014-06-30T14:15:10Z</time>
      </trkpt>
      <trkpt lat="40.670950" lon="-4.723300">
        <ele>2511.0</ele>
        <time>2014-06-30T14:15:11Z</time>
      </trkpt>
      <trkpt lat="40.670950" lon="-4.723367">
        <ele>2513.0</ele>
        <time>2014-06-30T14:15:12Z</time>
      </trkpt>
      <trkpt lat="40.670917" lon="-4.723433">
        <ele>2515.0</ele>
        <time>2014-06-30T14:15:13Z</time>
      </trkpt>
      <trkpt lat="40.670867" lon="-4.723500">
        <ele>2514.0</ele>
        <time>2014-06-30T14:15:14Z</time>
      </trkpt>
      <trkpt lat="40.670800" lon="-4.723567">
        <ele>2515.0</ele>
        <time>2014-06-30T14:15:15Z</time>
      </trkpt>
      <trkpt lat="40.670717" lon="-4.723617">
        <ele>2515.0</ele>
        <time>2014-06-30T14:15:16Z</time>
      </trkpt>
      <trkpt lat="40.670633" lon="-4.723650">
        <ele>2516.0</ele>
        <time>2014-06-30T14:15:17Z</time>
      </trkpt>
      <trkpt lat="40.670567" lon="-4.723667">
        <ele>2517.0</ele>
        <time>2014-06-30T14:15:18Z</time>
      </trkpt>
      <trkpt lat="40.670483" lon="-4.723683">
        <ele>2516.0</ele>
        <time>2014-06-30T14:15:19Z</time>
      </trkpt>
      <trkpt lat="40.670383" lon="-4.723683">
        <ele>2516.0</ele>
        <time>2014-06-30T14:15:20Z</time>
      </trkpt>
      <trkpt lat="40.670300" lon="-4.723650">
        <ele>2516.0</ele>
        <time>2014-06-30T14:15:21Z</time>
      </trkpt>
      <trkpt lat="40.670200" lon="-4.723600">
        <ele>2517.0</ele>
        <time>2014-06-30T14:15:22Z</time>
      </trkpt>
      <trkpt lat="40.670117" lon="-4.723517">
        <ele>2517.0</ele>
        <time>2014-06-30T14:15:23Z</time>
      </trkpt>
      <trkpt lat="40.670050" lon="-4.723400">
        <ele>2516.0</ele>
        <time>2014-06-30T14:15:24Z</time>
      </trkpt>
      <trkpt lat="40.670000" lon="-4.723283">
        <ele>2516.0</ele>
        <time>2014-06-30T14:15:25Z</time>
      </trkpt>
      <trkpt lat="40.669967" lon="-4.723167">
        <ele>2516.0</ele>
        <time>2014-06-30T14:15:26Z</time>
      </trkpt>
      <trkpt lat="40.669933" lon="-4.723050">
        <ele>2517.0</ele>
        <time>2014-06-30T14:15:27Z</time>
      </trkpt>
      <trkpt lat="40.669883" lon="-4.722933">
        <ele>2518.0</ele>
        <time>2014-06-30T14:15:28Z</time>
      </trkpt>
      <trkpt lat="40.669850" lon="-4.722817">
        <ele>2518.0</ele>
        <time>2014-06-30T14:15:29Z</time>
      </trkpt>
      <trkpt lat="40.669833" lon="-4.722700">
        <ele>2519.0</ele>
        <time>2014-06-30T14:15:30Z</time>
      </trkpt>
      <trkpt lat="40.669817" lon="-4.722583">
        <ele>2519.0</ele>
        <time>2014-06-30T14:15:31Z</time>
      </trkpt>
      <trkpt lat="40.669800" lon="-4.722450">
        <ele>2519.0</ele>
        <time>2014-06-30T14:15:32Z</time>
      </trkpt>
      <trkpt lat="40.669800" lon="-4.722333">
        <ele>2519.0</ele>
        <time>2014-06-30T14:15:33Z</time>
      </trkpt>
      <trkpt lat="40.669800" lon="-4.722200">
        <ele>2520.0</ele>
        <time>2014-06-30T14:15:34Z</time>
      </trkpt>
      <trkpt lat="40.669783" lon="-4.722083">
        <ele>2520.0</ele>
        <time>2014-06-30T14:15:35Z</time>
      </trkpt>
      <trkpt lat="40.669800" lon="-4.721950">
        <ele>2520.0</ele>
        <time>2014-06-30T14:15:36Z</time>
      </trkpt>
      <trkpt lat="40.669850" lon="-4.721833">
        <ele>2519.0</ele>
        <time>2014-06-30T14:15:37Z</time>
      </trkpt>
      <trkpt lat="40.669883" lon="-4.721733">
        <ele>2517.0</ele>
        <time>2014-06-30T14:15:38Z</time>
      </trkpt>
      <trkpt lat="40.669900" lon="-4.721600">
        <ele>2515.0</ele>
        <time>2014-06-30T14:15:39Z</time>
      </trkpt>
      <trkpt lat="40.669933" lon="-4.721467">
        <ele>2514.0</ele>
        <time>2014-06-30T14:15:40Z</time>
      </trkpt>
      <trkpt lat="40.669950" lon="-4.721317">
        <ele>2512.0</ele>
        <time>2014-06-30T14:15:41Z</time>
      </trkpt>
      <trkpt lat="40.669983" lon="-4.721183">
        <ele>2511.0</ele>
        <time>2014-06-30T14:15:42Z</time>
      </trkpt>
      <trkpt lat="40.670017" lon="-4.721050">
        <ele>2511.0</ele>
        <time>2014-06-30T14:15:43Z</time>
      </trkpt>
      <trkpt lat="40.670033" lon="-4.720917">
        <ele>2511.0</ele>
        <time>2014-06-30T14:15:44Z</time>
      </trkpt>
      <trkpt lat="40.670050" lon="-4.720783">
        <ele>2511.0</ele>
        <time>2014-06-30T14:15:45Z</time>
      </trkpt>
      <trkpt lat="40.670083" lon="-4.720650">
        <ele>2511.0</ele>
        <time>2014-06-30T14:15:46Z</time>
      </trkpt>
      <trkpt lat="40.670117" lon="-4.720517">
        <ele>2509.0</ele>
        <time>2014-06-30T14:15:47Z</time>
      </trkpt>
      <trkpt lat="40.670183" lon="-4.720400">
        <ele>2508.0</ele>
        <time>2014-06-30T14:15:48Z</time>
      </trkpt>
      <trkpt lat="40.670233" lon="-4.720267">
        <ele>2508.0</ele>
        <time>2014-06-30T14:15:49Z</time>
      </trkpt>
      <trkpt lat="40.670267" lon="-4.720133">
        <ele>2508.0</ele>
        <time>2014-06-30T14:15:50Z</time>
      </trkpt>
      <trkpt lat="40.670283" lon="-4.720000">
        <ele>2509.0</ele>
        <time>2014-06-30T14:15:51Z</time>
      </trkpt>
      <trkpt lat="40.670300" lon="-4.719883">
        <ele>2509.0</ele>
        <time>2014-06-30T14:15:52Z</time>
      </trkpt>
      <trkpt lat="40.670333" lon="-4.719767">
        <ele>2507.0</ele>
        <time>2014-06-30T14:15:53Z</time>
      </trkpt>
      <trkpt lat="40.670367" lon="-4.719650">
        <ele>2506.0</ele>
        <time>2014-06-30T14:15:54Z</time>
      </trkpt>
      <trkpt lat="40.670400" lon="-4.719533">
        <ele>2502.0</ele>
        <time>2014-06-30T14:15:55Z</time>
      </trkpt>
      <trkpt lat="40.670450" lon="-4.719383">
        <ele>2500.0</ele>
        <time>2014-06-30T14:15:56Z</time>
      </trkpt>
      <trkpt lat="40.670483" lon="-4.719217">
        <ele>2498.0</ele>
        <time>2014-06-30T14:15:57Z</time>
      </trkpt>
      <trkpt lat="40.670517" lon="-4.719067">
        <ele>2496.0</ele>
        <time>2014-06-30T14:15:58Z</time>
      </trkpt>
      <trkpt lat="40.670550" lon="-4.718917">
        <ele>2495.0</ele>
        <time>2014-06-30T14:15:59Z</time>
      </trkpt>
      <trkpt lat="40.670600" lon="-4.718783">
        <ele>2494.0</ele>
        <time>2014-06-30T14:16:00Z</time>
      </trkpt>
      <trkpt lat="40.670650" lon="-4.718667">
        <ele>2493.0</ele>
        <time>2014-06-30T14:16:01Z</time>
      </trkpt>
      <trkpt lat="40.670683" lon="-4.718517">
        <ele>2491.0</ele>
        <time>2014-06-30T14:16:02Z</time>
      </trkpt>
      <trkpt lat="40.670733" lon="-4.718367">
        <ele>2488.0</ele>
        <time>2014-06-30T14:16:03Z</time>
      </trkpt>
      <trkpt lat="40.670783" lon="-4.718233">
        <ele>2486.0</ele>
        <time>2014-06-30T14:16:04Z</time>
      </trkpt>
      <trkpt lat="40.670850" lon="-4.718083">
        <ele>2484.0</ele>
        <time>2014-06-30T14:16:05Z</time>
      </trkpt>
      <trkpt lat="40.670917" lon="-4.717967">
        <ele>2482.0</ele>
        <time>2014-06-30T14:16:06Z</time>
      </trkpt>
      <trkpt lat="40.670983" lon="-4.717833">
        <ele>2481.0</ele>
        <time>2014-06-30T14:16:07Z</time>
      </trkpt>
      <trkpt lat="40.671050" lon="-4.717717">
        <ele>2479.0</ele>
        <time>2014-06-30T14:16:08Z</time>
      </trkpt>
      <trkpt lat="40.671100" lon="-4.717583">
        <ele>2478.0</ele>
        <time>2014-06-30T14:16:09Z</time>
      </trkpt>
      <trkpt lat="40.671167" lon="-4.717433">
        <ele>2477.0</ele>
        <time>2014-06-30T14:16:10Z</time>
      </trkpt>
      <trkpt lat="40.671233" lon="-4.717300">
        <ele>2475.0</ele>
        <time>2014-06-30T14:16:11Z</time>
      </trkpt>
      <trkpt lat="40.671300" lon="-4.717167">
        <ele>2474.0</ele>
        <time>2014-06-30T14:16:12Z</time>
      </trkpt>
      <trkpt lat="40.671383" lon="-4.717017">
        <ele>2475.0</ele>
        <time>2014-06-30T14:16:13Z</time>
      </trkpt>
      <trkpt lat="40.671450" lon="-4.716900">
        <ele>2475.0</ele>
        <time>2014-06-30T14:16:14Z</time>
      </trkpt>
      <trkpt lat="40.671517" lon="-4.716783">
        <ele>2475.0</ele>
        <time>2014-06-30T14:16:15Z</time>
      </trkpt>
      <trkpt lat="40.671583" lon="-4.716667">
        <ele>2474.0</ele>
        <time>2014-06-30T14:16:16Z</time>
      </trkpt>
      <trkpt lat="40.671650" lon="-4.716533">
        <ele>2473.0</ele>
        <time>2014-06-30T14:16:17Z</time>
      </trkpt>
      <trkpt lat="40.671733" lon="-4.716400">
        <ele>2471.0</ele>
        <time>2014-06-30T14:16:18Z</time>
      </trkpt>
      <trkpt lat="40.671817" lon="-4.716267">
        <ele>2469.0</ele>
        <time>2014-06-30T14:16:19Z</time>
      </trkpt>
      <trkpt lat="40.671900" lon="-4.716133">
        <ele>2470.0</ele>
        <time>2014-06-30T14:16:20Z</time>
      </trkpt>
      <trkpt lat="40.671967" lon="-4.716000">
        <ele>2470.0</ele>
        <time>2014-06-30T14:16:21Z</time>
      </trkpt>
      <trkpt lat="40.672033" lon="-4.715883">
        <ele>2471.0</ele>
        <time>2014-06-30T14:16:22Z</time>
      </trkpt>
      <trkpt lat="40.672100" lon="-4.715800">
        <ele>2471.0</ele>
        <time>2014-06-30T14:16:23Z</time>
      </trkpt>
      <trkpt lat="40.672167" lon="-4.715683">
        <ele>2470.0</ele>
        <time>2014-06-30T14:16:24Z</time>
      </trkpt>
      <trkpt lat="40.672233" lon="-4.715583">
        <ele>2468.0</ele>
        <time>2014-06-30T14:16:25Z</time>
      </trkpt>
      <trkpt lat="40.672300" lon="-4.715450">
        <ele>2467.0</ele>
        <time>2014-06-30T14:16:26Z</time>
      </trkpt>
      <trkpt lat="40.672367" lon="-4.715333">
        <ele>2466.0</ele>
        <time>2014-06-30T14:16:27Z</time>
      </trkpt>
      <trkpt lat="40.672433" lon="-4.715233">
        <ele>2464.0</ele>
        <time>2014-06-30T14:16:28Z</time>
      </trkpt>
      <trkpt lat="40.672500" lon="-4.715150">
        <ele>2462.0</ele>
        <time>2014-06-30T14:16:29Z</time>
      </trkpt>
      <trkpt lat="40.672583" lon="-4.715050">
        <ele>2460.0</ele>
        <time>2014-06-30T14:16:30Z</time>
      </trkpt>
      <trkpt lat="40.672650" lon="-4.714950">
        <ele>2458.0</ele>
        <time>2014-06-30T14:16:31Z</time>
      </trkpt>
      <trkpt lat="40.672733" lon="-4.714850">
        <ele>2457.0</ele>
        <time>2014-06-30T14:16:32Z</time>
      </trkpt>
      <trkpt lat="40.672800" lon="-4.714750">
        <ele>2454.0</ele>
        <time>2014-06-30T14:16:33Z</time>
      </trkpt>
      <trkpt lat="40.672867" lon="-4.714650">
        <ele>2452.0</ele>
        <time>2014-06-30T14:16:34Z</time>
      </trkpt>
      <trkpt lat="40.672950" lon="-4.714550">
        <ele>2450.0</ele>
        <time>2014-06-30T14:16:35Z</time>
      </trkpt>
      <trkpt lat="40.673033" lon="-4.714450">
        <ele>2448.0</ele>
        <time>2014-06-30T14:16:36Z</time>
      </trkpt>
      <trkpt lat="40.673117" lon="-4.714367">
        <ele>2447.0</ele>
        <time>2014-06-30T14:16:37Z</time>
      </trkpt>
      <trkpt lat="40.673200" lon="-4.714283">
        <ele>2445.0</ele>
        <time>2014-06-30T14:16:38Z</time>
      </trkpt>
      <trkpt lat="40.673267" lon="-4.714200">
        <ele>2444.0</ele>
        <time>2014-06-30T14:16:39Z</time>
      </trkpt>
      <trkpt lat="40.673350" lon="-4.714117">
        <ele>2442.0</ele>
        <time>2014-06-30T14:16:40Z</time>
      </trkpt>
      <trkpt lat="40.673433" lon="-4.714033">
        <ele>2440.0</ele>
        <time>2014-06-30T14:16:41Z</time>
      </trkpt>
      <trkpt lat="40.673517" lon="-4.713950">
        <ele>2438.0</ele>
        <time>2014-06-30T14:16:42Z</time>
      </trkpt>
      <trkpt lat="40.673583" lon="-4.713867">
        <ele>2437.0</ele>
        <time>2014-06-30T14:16:43Z</time>
      </trkpt>
      <trkpt lat="40.673667" lon="-4.713783">
        <ele>2436.0</ele>
        <time>2014-06-30T14:16:44Z</time>
      </trkpt>
      <trkpt lat="40.673750" lon="-4.713700">
        <ele>2435.0</ele>
        <time>2014-06-30T14:16:45Z</time>
      </trkpt>
      <trkpt lat="40.673817" lon="-4.713617">
        <ele>2433.0</ele>
        <time>2014-06-30T14:16:46Z</time>
      </trkpt>
      <trkpt lat="40.673900" lon="-4.713533">
        <ele>2431.0</ele>
        <time>2014-06-30T14:16:47Z</time>
      </trkpt>
      <trkpt lat="40.673983" lon="-4.713450">
        <ele>2428.0</ele>
        <time>2014-06-30T14:16:48Z</time>
      </trkpt>
      <trkpt lat="40.674083" lon="-4.713350">
        <ele>2427.0</ele>
        <time>2014-06-30T14:16:49Z</time>
      </trkpt>
      <trkpt lat="40.674167" lon="-4.713267">
        <ele>2425.0</ele>
        <time>2014-06-30T14:16:50Z</time>
      </trkpt>
      <trkpt lat="40.674283" lon="-4.713200">
        <ele>2424.0</ele>
        <time>2014-06-30T14:16:51Z</time>
      </trkpt>
      <trkpt lat="40.674383" lon="-4.713117">
        <ele>2422.0</ele>
        <time>2014-06-30T14:16:52Z</time>
      </trkpt>
      <trkpt lat="40.674467" lon="-4.713033">
        <ele>2421.0</ele>
        <time>2014-06-30T14:16:53Z</time>
      </trkpt>
      <trkpt lat="40.674567" lon="-4.712950">
        <ele>2419.0</ele>
        <time>2014-06-30T14:16:54Z</time>
      </trkpt>
      <trkpt lat="40.674650" lon="-4.712867">
        <ele>2418.0</ele>
        <time>2014-06-30T14:16:55Z</time>
      </trkpt>
      <trkpt lat="40.674750" lon="-4.712783">
        <ele>2416.0</ele>
        <time>2014-06-30T14:16:56Z</time>
      </trkpt>
      <trkpt lat="40.674850" lon="-4.712700">
        <ele>2415.0</ele>
        <time>2014-06-30T14:16:57Z</time>
      </trkpt>
      <trkpt lat="40.674933" lon="-4.712617">
        <ele>2414.0</ele>
        <time>2014-06-30T14:16:58Z</time>
      </trkpt>
      <trkpt lat="40.675033" lon="-4.712533">
        <ele>2412.0</ele>
        <time>2014-06-30T14:16:59Z</time>
      </trkpt>
      <trkpt lat="40.675133" lon="-4.712467">
        <ele>2411.0</ele>
        <time>2014-06-30T14:17:00Z</time>
      </trkpt>
      <trkpt lat="40.675217" lon="-4.712400">
        <ele>2410.0</ele>
        <time>2014-06-30T14:17:01Z</time>
      </trkpt>
      <trkpt lat="40.675317" lon="-4.712333">
        <ele>2408.0</ele>
        <time>2014-06-30T14:17:02Z</time>
      </trkpt>
      <trkpt lat="40.675417" lon="-4.712250">
        <ele>2407.0</ele>
        <time>2014-06-30T14:17:03Z</time>
      </trkpt>
      <trkpt lat="40.675517" lon="-4.712167">
        <ele>2405.0</ele>
        <time>2014-06-30T14:17:04Z</time>
      </trkpt>
      <trkpt lat="40.675600" lon="-4.712067">
        <ele>2403.0</ele>
        <time>2014-06-30T14:17:05Z</time>
      </trkpt>
      <trkpt lat="40.675700" lon="-4.711983">
        <ele>2402.0</ele>
        <time>2014-06-30T14:17:06Z</time>
      </trkpt>
      <trkpt lat="40.675783" lon="-4.711900">
        <ele>2402.0</ele>
        <time>2014-06-30T14:17:07Z</time>
      </trkpt>
      <trkpt lat="40.675867" lon="-4.711817">
        <ele>2401.0</ele>
        <time>2014-06-30T14:17:08Z</time>
      </trkpt>
      <trkpt lat="40.675950" lon="-4.711750">
        <ele>2400.0</ele>
        <time>2014-06-30T14:17:09Z</time>
      </trkpt>
      <trkpt lat="40.676050" lon="-4.711667">
        <ele>2399.0</ele>
        <time>2014-06-30T14:17:10Z</time>
      </trkpt>
      <trkpt lat="40.676133" lon="-4.711583">
        <ele>2397.0</ele>
        <time>2014-06-30T14:17:11Z</time>
      </trkpt>
      <trkpt lat="40.676233" lon="-4.711517">
        <ele>2395.0</ele>
        <time>2014-06-30T14:17:12Z</time>
      </trkpt>
      <trkpt lat="40.676333" lon="-4.711433">
        <ele>2394.0</ele>
        <time>2014-06-30T14:17:13Z</time>
      </trkpt>
      <trkpt lat="40.676417" lon="-4.711350">
        <ele>2393.0</ele>
        <time>2014-06-30T14:17:14Z</time>
      </trkpt>
      <trkpt lat="40.676517" lon="-4.711267">
        <ele>2391.0</ele>
        <time>2014-06-30T14:17:15Z</time>
      </trkpt>
      <trkpt lat="40.676600" lon="-4.711200">
        <ele>2389.0</ele>
        <time>2014-06-30T14:17:16Z</time>
      </trkpt>
      <trkpt lat="40.676683" lon="-4.711117">
        <ele>2386.0</ele>
        <time>2014-06-30T14:17:17Z</time>
      </trkpt>
      <trkpt lat="40.676767" lon="-4.711017">
        <ele>2384.0</ele>
        <time>2014-06-30T14:17:18Z</time>
      </trkpt>
      <trkpt lat="40.676850" lon="-4.710917">
        <ele>2383.0</ele>
        <time>2014-06-30T14:17:19Z</time>
      </trkpt>
      <trkpt lat="40.676933" lon="-4.710817">
        <ele>2382.0</ele>
        <time>2014-06-30T14:17:20Z</time>
      </trkpt>
      <trkpt lat="40.677017" lon="-4.710733">
        <ele>2381.0</ele>
        <time>2014-06-30T14:17:21Z</time>
      </trkpt>
      <trkpt lat="40.677117" lon="-4.710650">
        <ele>2379.0</ele>
        <time>2014-06-30T14:17:22Z</time>
      </trkpt>
      <trkpt lat="40.677200" lon="-4.710550">
        <ele>2377.0</ele>
        <time>2014-06-30T14:17:23Z</time>
      </trkpt>
      <trkpt lat="40.677267" lon="-4.710417">
        <ele>2375.0</ele>
        <time>2014-06-30T14:17:24Z</time>
      </trkpt>
      <trkpt lat="40.677350" lon="-4.710300">
        <ele>2373.0</ele>
        <time>2014-06-30T14:17:25Z</time>
      </trkpt>
      <trkpt lat="40.677433" lon="-4.710200">
        <ele>2372.0</ele>
        <time>2014-06-30T14:17:26Z</time>
      </trkpt>
      <trkpt lat="40.677533" lon="-4.710117">
        <ele>2371.0</ele>
        <time>2014-06-30T14:17:27Z</time>
      </trkpt>
      <trkpt lat="40.677600" lon="-4.710017">
        <ele>2369.0</ele>
        <time>2014-06-30T14:17:28Z</time>
      </trkpt>
      <trkpt lat="40.677683" lon="-4.709917">
        <ele>2367.0</ele>
        <time>2014-06-30T14:17:29Z</time>
      </trkpt>
      <trkpt lat="40.677750" lon="-4.709817">
        <ele>2365.0</ele>
        <time>2014-06-30T14:17:30Z</time>
      </trkpt>
      <trkpt lat="40.677850" lon="-4.709733">
        <ele>2362.0</ele>
        <time>2014-06-30T14:17:31Z</time>
      </trkpt>
      <trkpt lat="40.677950" lon="-4.709650">
        <ele>2359.0</ele>
        <time>2014-06-30T14:17:32Z</time>
      </trkpt>
      <trkpt lat="40.678050" lon="-4.709533">
        <ele>2358.0</ele>
        <time>2014-06-30T14:17:33Z</time>
      </trkpt>
      <trkpt lat="40.678133" lon="-4.709417">
        <ele>2358.0</ele>
        <time>2014-06-30T14:17:34Z</time>
      </trkpt>
      <trkpt lat="40.678217" lon="-4.709317">
        <ele>2357.0</ele>
        <time>2014-06-30T14:17:35Z</time>
      </trkpt>
      <trkpt lat="40.678300" lon="-4.709233">
        <ele>2356.0</ele>
        <time>2014-06-30T14:17:36Z</time>
      </trkpt>
      <trkpt lat="40.678400" lon="-4.709150">
        <ele>2354.0</ele>
        <time>2014-06-30T14:17:37Z</time>
      </trkpt>
      <trkpt lat="40.678483" lon="-4.709050">
        <ele>2352.0</ele>
        <time>2014-06-30T14:17:38Z</time>
      </trkpt>
      <trkpt lat="40.678550" lon="-4.708917">
        <ele>2350.0</ele>
        <time>2014-06-30T14:17:39Z</time>
      </trkpt>
      <trkpt lat="40.678633" lon="-4.708800">
        <ele>2349.0</ele>
        <time>2014-06-30T14:17:40Z</time>
      </trkpt>
      <trkpt lat="40.678717" lon="-4.708717">
        <ele>2348.0</ele>
        <time>2014-06-30T14:17:41Z</time>
      </trkpt>
      <trkpt lat="40.678817" lon="-4.708667">
        <ele>2347.0</ele>
        <time>2014-06-30T14:17:42Z</time>
      </trkpt>
      <trkpt lat="40.678917" lon="-4.708617">
        <ele>2347.0</ele>
        <time>2014-06-30T14:17:43Z</time>
      </trkpt>
      <trkpt lat="40.678967" lon="-4.708533">
        <ele>2346.0</ele>
        <time>2014-06-30T14:17:44Z</time>
      </trkpt>
      <trkpt lat="40.679017" lon="-4.708450">
        <ele>2348.0</ele>
        <time>2014-06-30T14:17:45Z</time>
      </trkpt>
      <trkpt lat="40.679083" lon="-4.708350">
        <ele>2348.0</ele>
        <time>2014-06-30T14:17:46Z</time>
      </trkpt>
      <trkpt lat="40.679183" lon="-4.708250">
        <ele>2348.0</ele>
        <time>2014-06-30T14:17:47Z</time>
      </trkpt>
      <trkpt lat="40.679267" lon="-4.708150">
        <ele>2346.0</ele>
        <time>2014-06-30T14:17:48Z</time>
      </trkpt>
      <trkpt lat="40.679350" lon="-4.708050">
        <ele>2344.0</ele>
        <time>2014-06-30T14:17:49Z</time>
      </trkpt>
      <trkpt lat="40.679400" lon="-4.707917">
        <ele>2342.0</ele>
        <time>2014-06-30T14:17:50Z</time>
      </trkpt>
      <trkpt lat="40.679450" lon="-4.707800">
        <ele>2341.0</ele>
        <time>2014-06-30T14:17:51Z</time>
      </trkpt>
      <trkpt lat="40.679517" lon="-4.707700">
        <ele>2338.0</ele>
        <time>2014-06-30T14:17:52Z</time>
      </trkpt>
      <trkpt lat="40.679600" lon="-4.707600">
        <ele>2335.0</ele>
        <time>2014-06-30T14:17:53Z</time>
      </trkpt>
      <trkpt lat="40.679667" lon="-4.707483">
        <ele>2332.0</ele>
        <time>2014-06-30T14:17:54Z</time>
      </trkpt>
      <trkpt lat="40.679750" lon="-4.707350">
        <ele>2329.0</ele>
        <time>2014-06-30T14:17:55Z</time>
      </trkpt>
      <trkpt lat="40.679800" lon="-4.707217">
        <ele>2327.0</ele>
        <time>2014-06-30T14:17:56Z</time>
      </trkpt>
      <trkpt lat="40.679883" lon="-4.707083">
        <ele>2324.0</ele>
        <time>2014-06-30T14:17:57Z</time>
      </trkpt>
      <trkpt lat="40.679967" lon="-4.707000">
        <ele>2320.0</ele>
        <time>2014-06-30T14:17:58Z</time>
      </trkpt>
      <trkpt lat="40.680050" lon="-4.706883">
        <ele>2316.0</ele>
        <time>2014-06-30T14:17:59Z</time>
      </trkpt>
      <trkpt lat="40.680100" lon="-4.706733">
        <ele>2311.0</ele>
        <time>2014-06-30T14:18:00Z</time>
      </trkpt>
      <trkpt lat="40.680150" lon="-4.706600">
        <ele>2307.0</ele>
        <time>2014-06-30T14:18:01Z</time>
      </trkpt>
      <trkpt lat="40.680200" lon="-4.706467">
        <ele>2304.0</ele>
        <time>2014-06-30T14:18:02Z</time>
      </trkpt>
      <trkpt lat="40.680283" lon="-4.706333">
        <ele>2301.0</ele>
        <time>2014-06-30T14:18:03Z</time>
      </trkpt>
      <trkpt lat="40.680367" lon="-4.706217">
        <ele>2299.0</ele>
        <time>2014-06-30T14:18:04Z</time>
      </trkpt>
      <trkpt lat="40.680450" lon="-4.706083">
        <ele>2298.0</ele>
        <time>2014-06-30T14:18:05Z</time>
      </trkpt>
      <trkpt lat="40.680517" lon="-4.705950">
        <ele>2297.0</ele>
        <time>2014-06-30T14:18:06Z</time>
      </trkpt>
      <trkpt lat="40.680583" lon="-4.705817">
        <ele>2296.0</ele>
        <time>2014-06-30T14:18:07Z</time>
      </trkpt>
      <trkpt lat="40.680667" lon="-4.705717">
        <ele>2296.0</ele>
        <time>2014-06-30T14:18:08Z</time>
      </trkpt>
      <trkpt lat="40.680733" lon="-4.705617">
        <ele>2296.0</ele>
        <time>2014-06-30T14:18:09Z</time>
      </trkpt>
      <trkpt lat="40.680783" lon="-4.705500">
        <ele>2295.0</ele>
        <time>2014-06-30T14:18:10Z</time>
      </trkpt>
      <trkpt lat="40.680850" lon="-4.705400">
        <ele>2294.0</ele>
        <time>2014-06-30T14:18:11Z</time>
      </trkpt>
      <trkpt lat="40.680900" lon="-4.705283">
        <ele>2293.0</ele>
        <time>2014-06-30T14:18:12Z</time>
      </trkpt>
      <trkpt lat="40.680967" lon="-4.705183">
        <ele>2292.0</ele>
        <time>2014-06-30T14:18:13Z</time>
      </trkpt>
      <trkpt lat="40.681033" lon="-4.705100">
        <ele>2291.0</ele>
        <time>2014-06-30T14:18:14Z</time>
      </trkpt>
      <trkpt lat="40.681083" lon="-4.705000">
        <ele>2290.0</ele>
        <time>2014-06-30T14:18:15Z</time>
      </trkpt>
      <trkpt lat="40.681150" lon="-4.704917">
        <ele>2294.0</ele>
        <time>2014-06-30T14:18:16Z</time>
      </trkpt>
      <trkpt lat="40.681217" lon="-4.704817">
        <ele>2293.0</ele>
        <time>2014-06-30T14:18:17Z</time>
      </trkpt>
      <trkpt lat="40.681283" lon="-4.704700">
        <ele>2293.0</ele>
        <time>2014-06-30T14:18:18Z</time>
      </trkpt>
      <trkpt lat="40.681350" lon="-4.704600">
        <ele>2292.0</ele>
        <time>2014-06-30T14:18:19Z</time>
      </trkpt>
      <trkpt lat="40.681433" lon="-4.704500">
        <ele>2291.0</ele>
        <time>2014-06-30T14:18:20Z</time>
      </trkpt>
      <trkpt lat="40.681500" lon="-4.704383">
        <ele>2290.0</ele>
        <time>2014-06-30T14:18:21Z</time>
      </trkpt>
      <trkpt lat="40.681567" lon="-4.704283">
        <ele>2288.0</ele>
        <time>2014-06-30T14:18:22Z</time>
      </trkpt>
      <trkpt lat="40.681617" lon="-4.704183">
        <ele>2286.0</ele>
        <time>2014-06-30T14:18:23Z</time>
      </trkpt>
      <trkpt lat="40.681683" lon="-4.704083">
        <ele>2283.0</ele>
        <time>2014-06-30T14:18:24Z</time>
      </trkpt>
      <trkpt lat="40.681767" lon="-4.703983">
        <ele>2280.0</ele>
        <time>2014-06-30T14:18:25Z</time>
      </trkpt>
      <trkpt lat="40.681867" lon="-4.703883">
        <ele>2277.0</ele>
        <time>2014-06-30T14:18:26Z</time>
      </trkpt>
      <trkpt lat="40.681967" lon="-4.703783">
        <ele>2275.0</ele>
        <time>2014-06-30T14:18:27Z</time>
      </trkpt>
      <trkpt lat="40.682050" lon="-4.703683">
        <ele>2272.0</ele>
        <time>2014-06-30T14:18:28Z</time>
      </trkpt>
      <trkpt lat="40.682133" lon="-4.703583">
        <ele>2269.0</ele>
        <time>2014-06-30T14:18:29Z</time>
      </trkpt>
      <trkpt lat="40.682217" lon="-4.703467">
        <ele>2266.0</ele>
        <time>2014-06-30T14:18:30Z</time>
      </trkpt>
      <trkpt lat="40.682300" lon="-4.703350">
        <ele>2263.0</ele>
        <time>2014-06-30T14:18:31Z</time>
      </trkpt>
      <trkpt lat="40.682400" lon="-4.703233">
        <ele>2260.0</ele>
        <time>2014-06-30T14:18:32Z</time>
      </trkpt>
      <trkpt lat="40.682483" lon="-4.703117">
        <ele>2257.0</ele>
        <time>2014-06-30T14:18:33Z</time>
      </trkpt>
      <trkpt lat="40.682583" lon="-4.703000">
        <ele>2254.0</ele>
        <time>2014-06-30T14:18:34Z</time>
      </trkpt>
      <trkpt lat="40.682667" lon="-4.702883">
        <ele>2252.0</ele>
        <time>2014-06-30T14:18:35Z</time>
      </trkpt>
      <trkpt lat="40.682733" lon="-4.702783">
        <ele>2249.0</ele>
        <time>2014-06-30T14:18:36Z</time>
      </trkpt>
      <trkpt lat="40.682817" lon="-4.702667">
        <ele>2246.0</ele>
        <time>2014-06-30T14:18:37Z</time>
      </trkpt>
      <trkpt lat="40.682900" lon="-4.702567">
        <ele>2243.0</ele>
        <time>2014-06-30T14:18:38Z</time>
      </trkpt>
      <trkpt lat="40.682983" lon="-4.702467">
        <ele>2241.0</ele>
        <time>2014-06-30T14:18:39Z</time>
      </trkpt>
      <trkpt lat="40.683067" lon="-4.702350">
        <ele>2239.0</ele>
        <time>2014-06-30T14:18:40Z</time>
      </trkpt>
      <trkpt lat="40.683117" lon="-4.702233">
        <ele>2236.0</ele>
        <time>2014-06-30T14:18:41Z</time>
      </trkpt>
      <trkpt lat="40.683183" lon="-4.702133">
        <ele>2234.0</ele>
        <time>2014-06-30T14:18:42Z</time>
      </trkpt>
      <trkpt lat="40.683233" lon="-4.702017">
        <ele>2231.0</ele>
        <time>2014-06-30T14:18:43Z</time>
      </trkpt>
      <trkpt lat="40.683267" lon="-4.701900">
        <ele>2228.0</ele>
        <time>2014-06-30T14:18:44Z</time>
      </trkpt>
      <trkpt lat="40.683333" lon="-4.701783">
        <ele>2225.0</ele>
        <time>2014-06-30T14:18:45Z</time>
      </trkpt>
      <trkpt lat="40.683400" lon="-4.701667">
        <ele>2222.0</ele>
        <time>2014-06-30T14:18:46Z</time>
      </trkpt>
      <trkpt lat="40.683450" lon="-4.701550">
        <ele>2219.0</ele>
        <time>2014-06-30T14:18:47Z</time>
      </trkpt>
      <trkpt lat="40.683533" lon="-4.701450">
        <ele>2216.0</ele>
        <time>2014-06-30T14:18:48Z</time>
      </trkpt>
      <trkpt lat="40.683600" lon="-4.701333">
        <ele>2213.0</ele>
        <time>2014-06-30T14:18:49Z</time>
      </trkpt>
      <trkpt lat="40.683683" lon="-4.701233">
        <ele>2210.0</ele>
        <time>2014-06-30T14:18:50Z</time>
      </trkpt>
      <trkpt lat="40.683767" lon="-4.701117">
        <ele>2207.0</ele>
        <time>2014-06-30T14:18:51Z</time>
      </trkpt>
      <trkpt lat="40.683850" lon="-4.701017">
        <ele>2205.0</ele>
        <time>2014-06-30T14:18:52Z</time>
      </trkpt>
      <trkpt lat="40.683933" lon="-4.700917">
        <ele>2202.0</ele>
        <time>2014-06-30T14:18:53Z</time>
      </trkpt>
      <trkpt lat="40.684017" lon="-4.700817">
        <ele>2199.0</ele>
        <time>2014-06-30T14:18:54Z</time>
      </trkpt>
      <trkpt lat="40.684100" lon="-4.700733">
        <ele>2196.0</ele>
        <time>2014-06-30T14:18:55Z</time>
      </trkpt>
      <trkpt lat="40.684200" lon="-4.700650">
        <ele>2194.0</ele>
        <time>2014-06-30T14:18:56Z</time>
      </trkpt>
      <trkpt lat="40.684300" lon="-4.700567">
        <ele>2192.0</ele>
        <time>2014-06-30T14:18:57Z</time>
      </trkpt>
      <trkpt lat="40.684383" lon="-4.700483">
        <ele>2189.0</ele>
        <time>2014-06-30T14:18:58Z</time>
      </trkpt>
      <trkpt lat="40.684467" lon="-4.700383">
        <ele>2187.0</ele>
        <time>2014-06-30T14:18:59Z</time>
      </trkpt>
      <trkpt lat="40.684550" lon="-4.700267">
        <ele>2184.0</ele>
        <time>2014-06-30T14:19:00Z</time>
      </trkpt>
      <trkpt lat="40.684633" lon="-4.700167">
        <ele>2182.0</ele>
        <time>2014-06-30T14:19:01Z</time>
      </trkpt>
      <trkpt lat="40.684700" lon="-4.700050">
        <ele>2179.0</ele>
        <time>2014-06-30T14:19:02Z</time>
      </trkpt>
      <trkpt lat="40.684783" lon="-4.699933">
        <ele>2177.0</ele>
        <time>2014-06-30T14:19:03Z</time>
      </trkpt>
      <trkpt lat="40.684867" lon="-4.699817">
        <ele>2174.0</ele>
        <time>2014-06-30T14:19:04Z</time>
      </trkpt>
      <trkpt lat="40.684933" lon="-4.699700">
        <ele>2171.0</ele>
        <time>2014-06-30T14:19:05Z</time>
      </trkpt>
      <trkpt lat="40.685017" lon="-4.699583">
        <ele>2169.0</ele>
        <time>2014-06-30T14:19:06Z</time>
      </trkpt>
      <trkpt lat="40.685083" lon="-4.699467">
        <ele>2166.0</ele>
        <time>2014-06-30T14:19:07Z</time>
      </trkpt>
      <trkpt lat="40.685150" lon="-4.699317">
        <ele>2164.0</ele>
        <time>2014-06-30T14:19:08Z</time>
      </trkpt>
      <trkpt lat="40.685233" lon="-4.699183">
        <ele>2162.0</ele>
        <time>2014-06-30T14:19:09Z</time>
      </trkpt>
      <trkpt lat="40.685317" lon="-4.699067">
        <ele>2160.0</ele>
        <time>2014-06-30T14:19:10Z</time>
      </trkpt>
      <trkpt lat="40.685400" lon="-4.698950">
        <ele>2160.0</ele>
        <time>2014-06-30T14:19:11Z</time>
      </trkpt>
      <trkpt lat="40.685467" lon="-4.698833">
        <ele>2159.0</ele>
        <time>2014-06-30T14:19:12Z</time>
      </trkpt>
      <trkpt lat="40.685550" lon="-4.698717">
        <ele>2157.0</ele>
        <time>2014-06-30T14:19:13Z</time>
      </trkpt>
      <trkpt lat="40.685617" lon="-4.698600">
        <ele>2155.0</ele>
        <time>2014-06-30T14:19:14Z</time>
      </trkpt>
      <trkpt lat="40.685700" lon="-4.698450">
        <ele>2153.0</ele>
        <time>2014-06-30T14:19:15Z</time>
      </trkpt>
      <trkpt lat="40.685783" lon="-4.698300">
        <ele>2153.0</ele>
        <time>2014-06-30T14:19:16Z</time>
      </trkpt>
      <trkpt lat="40.685883" lon="-4.698183">
        <ele>2153.0</ele>
        <time>2014-06-30T14:19:17Z</time>
      </trkpt>
      <trkpt lat="40.685967" lon="-4.698067">
        <ele>2154.0</ele>
        <time>2014-06-30T14:19:18Z</time>
      </trkpt>
      <trkpt lat="40.686033" lon="-4.697967">
        <ele>2154.0</ele>
        <time>2014-06-30T14:19:19Z</time>
      </trkpt>
      <trkpt lat="40.686083" lon="-4.697867">
        <ele>2153.0</ele>
        <time>2014-06-30T14:19:20Z</time>
      </trkpt>
      <trkpt lat="40.686150" lon="-4.697750">
        <ele>2152.0</ele>
        <time>2014-06-30T14:19:21Z</time>
      </trkpt>
      <trkpt lat="40.686217" lon="-4.697633">
        <ele>2150.0</ele>
        <time>2014-06-30T14:19:22Z</time>
      </trkpt>
      <trkpt lat="40.686283" lon="-4.697500">
        <ele>2149.0</ele>
        <time>2014-06-30T14:19:23Z</time>
      </trkpt>
      <trkpt lat="40.686367" lon="-4.697383">
        <ele>2148.0</ele>
        <time>2014-06-30T14:19:24Z</time>
      </trkpt>
      <trkpt lat="40.686433" lon="-4.697267">
        <ele>2147.0</ele>
        <time>2014-06-30T14:19:25Z</time>
      </trkpt>
      <trkpt lat="40.686500" lon="-4.697167">
        <ele>2146.0</ele>
        <time>2014-06-30T14:19:26Z</time>
      </trkpt>
      <trkpt lat="40.686567" lon="-4.697050">
        <ele>2144.0</ele>
        <time>2014-06-30T14:19:27Z</time>
      </trkpt>
      <trkpt lat="40.686650" lon="-4.696933">
        <ele>2141.0</ele>
        <time>2014-06-30T14:19:28Z</time>
      </trkpt>
      <trkpt lat="40.686733" lon="-4.696800">
        <ele>2140.0</ele>
        <time>2014-06-30T14:19:29Z</time>
      </trkpt>
      <trkpt lat="40.686800" lon="-4.696683">
        <ele>2138.0</ele>
        <time>2014-06-30T14:19:30Z</time>
      </trkpt>
      <trkpt lat="40.686867" lon="-4.696550">
        <ele>2137.0</ele>
        <time>2014-06-30T14:19:31Z</time>
      </trkpt>
      <trkpt lat="40.686933" lon="-4.696433">
        <ele>2136.0</ele>
        <time>2014-06-30T14:19:32Z</time>
      </trkpt>
      <trkpt lat="40.687000" lon="-4.696333">
        <ele>2135.0</ele>
        <time>2014-06-30T14:19:33Z</time>
      </trkpt>
      <trkpt lat="40.687067" lon="-4.696233">
        <ele>2133.0</ele>
        <time>2014-06-30T14:19:34Z</time>
      </trkpt>
      <trkpt lat="40.687150" lon="-4.696117">
        <ele>2132.0</ele>
        <time>2014-06-30T14:19:35Z</time>
      </trkpt>
      <trkpt lat="40.687233" lon="-4.696000">
        <ele>2130.0</ele>
        <time>2014-06-30T14:19:36Z</time>
      </trkpt>
      <trkpt lat="40.687300" lon="-4.695883">
        <ele>2129.0</ele>
        <time>2014-06-30T14:19:37Z</time>
      </trkpt>
      <trkpt lat="40.687367" lon="-4.695767">
        <ele>2128.0</ele>
        <time>2014-06-30T14:19:38Z</time>
      </trkpt>
      <trkpt lat="40.687417" lon="-4.695650">
        <ele>2126.0</ele>
        <time>2014-06-30T14:19:39Z</time>
      </trkpt>
      <trkpt lat="40.687483" lon="-4.695550">
        <ele>2125.0</ele>
        <time>2014-06-30T14:19:40Z</time>
      </trkpt>
      <trkpt lat="40.687533" lon="-4.695433">
        <ele>2123.0</ele>
        <time>2014-06-30T14:19:41Z</time>
      </trkpt>
      <trkpt lat="40.687583" lon="-4.695317">
        <ele>2121.0</ele>
        <time>2014-06-30T14:19:42Z</time>
      </trkpt>
      <trkpt lat="40.687633" lon="-4.695217">
        <ele>2119.0</ele>
        <time>2014-06-30T14:19:43Z</time>
      </trkpt>
      <trkpt lat="40.687700" lon="-4.695117">
        <ele>2117.0</ele>
        <time>2014-06-30T14:19:44Z</time>
      </trkpt>
      <trkpt lat="40.687700" lon="-4.695000">
        <ele>2121.0</ele>
        <time>2014-06-30T14:19:45Z</time>
      </trkpt>
      <trkpt lat="40.687750" lon="-4.694900">
        <ele>2122.0</ele>
        <time>2014-06-30T14:19:46Z</time>
      </trkpt>
      <trkpt lat="40.687800" lon="-4.694783">
        <ele>2121.0</ele>
        <time>2014-06-30T14:19:47Z</time>
      </trkpt>
      <trkpt lat="40.687867" lon="-4.694650">
        <ele>2120.0</ele>
        <time>2014-06-30T14:19:48Z</time>
      </trkpt>
      <trkpt lat="40.687933" lon="-4.694517">
        <ele>2117.0</ele>
        <time>2014-06-30T14:19:49Z</time>
      </trkpt>
      <trkpt lat="40.688033" lon="-4.694400">
        <ele>2115.0</ele>
        <time>2014-06-30T14:19:50Z</time>
      </trkpt>
      <trkpt lat="40.688133" lon="-4.694267">
        <ele>2112.0</ele>
        <time>2014-06-30T14:19:51Z</time>
      </trkpt>
      <trkpt lat="40.688200" lon="-4.694133">
        <ele>2110.0</ele>
        <time>2014-06-30T14:19:52Z</time>
      </trkpt>
      <trkpt lat="40.688250" lon="-4.693967">
        <ele>2108.0</ele>
        <time>2014-06-30T14:19:53Z</time>
      </trkpt>
      <trkpt lat="40.688283" lon="-4.693817">
        <ele>2106.0</ele>
        <time>2014-06-30T14:19:54Z</time>
      </trkpt>
      <trkpt lat="40.688317" lon="-4.693650">
        <ele>2104.0</ele>
        <time>2014-06-30T14:19:55Z</time>
      </trkpt>
      <trkpt lat="40.688383" lon="-4.693500">
        <ele>2101.0</ele>
        <time>2014-06-30T14:19:56Z</time>
      </trkpt>
      <trkpt lat="40.688450" lon="-4.693350">
        <ele>2098.0</ele>
        <time>2014-06-30T14:19:57Z</time>
      </trkpt>
      <trkpt lat="40.688483" lon="-4.693200">
        <ele>2097.0</ele>
        <time>2014-06-30T14:19:58Z</time>
      </trkpt>
      <trkpt lat="40.688517" lon="-4.693067">
        <ele>2096.0</ele>
        <time>2014-06-30T14:19:59Z</time>
      </trkpt>
      <trkpt lat="40.688550" lon="-4.692933">
        <ele>2094.0</ele>
        <time>2014-06-30T14:20:00Z</time>
      </trkpt>
      <trkpt lat="40.688583" lon="-4.692817">
        <ele>2093.0</ele>
        <time>2014-06-30T14:20:01Z</time>
      </trkpt>
      <trkpt lat="40.688650" lon="-4.692700">
        <ele>2091.0</ele>
        <time>2014-06-30T14:20:02Z</time>
      </trkpt>
      <trkpt lat="40.688717" lon="-4.692600">
        <ele>2087.0</ele>
        <time>2014-06-30T14:20:03Z</time>
      </trkpt>
      <trkpt lat="40.688800" lon="-4.692500">
        <ele>2085.0</ele>
        <time>2014-06-30T14:20:04Z</time>
      </trkpt>
      <trkpt lat="40.688867" lon="-4.692383">
        <ele>2083.0</ele>
        <time>2014-06-30T14:20:05Z</time>
      </trkpt>
      <trkpt lat="40.688917" lon="-4.692283">
        <ele>2081.0</ele>
        <time>2014-06-30T14:20:06Z</time>
      </trkpt>
      <trkpt lat="40.689000" lon="-4.692183">
        <ele>2079.0</ele>
        <time>2014-06-30T14:20:07Z</time>
      </trkpt>
      <trkpt lat="40.689067" lon="-4.692067">
        <ele>2076.0</ele>
        <time>2014-06-30T14:20:08Z</time>
      </trkpt>
      <trkpt lat="40.689133" lon="-4.691950">
        <ele>2075.0</ele>
        <time>2014-06-30T14:20:09Z</time>
      </trkpt>
      <trkpt lat="40.689183" lon="-4.691817">
        <ele>2073.0</ele>
        <time>2014-06-30T14:20:10Z</time>
      </trkpt>
      <trkpt lat="40.689233" lon="-4.691700">
        <ele>2072.0</ele>
        <time>2014-06-30T14:20:11Z</time>
      </trkpt>
      <trkpt lat="40.689283" lon="-4.691567">
        <ele>2070.0</ele>
        <time>2014-06-30T14:20:12Z</time>
      </trkpt>
      <trkpt lat="40.689333" lon="-4.691450">
        <ele>2068.0</ele>
        <time>2014-06-30T14:20:13Z</time>
      </trkpt>
      <trkpt lat="40.689367" lon="-4.691300">
        <ele>2067.0</ele>
        <time>2014-06-30T14:20:14Z</time>
      </trkpt>
      <trkpt lat="40.689400" lon="-4.691167">
        <ele>2065.0</ele>
        <time>2014-06-30T14:20:15Z</time>
      </trkpt>
      <trkpt lat="40.689450" lon="-4.691033">
        <ele>2063.0</ele>
        <time>2014-06-30T14:20:16Z</time>
      </trkpt>
      <trkpt lat="40.689483" lon="-4.690917">
        <ele>2062.0</ele>
        <time>2014-06-30T14:20:17Z</time>
      </trkpt>
      <trkpt lat="40.689533" lon="-4.690800">
        <ele>2060.0</ele>
        <time>2014-06-30T14:20:18Z</time>
      </trkpt>
      <trkpt lat="40.689567" lon="-4.690667">
        <ele>2058.0</ele>
        <time>2014-06-30T14:20:19Z</time>
      </trkpt>
      <trkpt lat="40.689617" lon="-4.690533">
        <ele>2056.0</ele>
        <time>2014-06-30T14:20:20Z</time>
      </trkpt>
      <trkpt lat="40.689667" lon="-4.690400">
        <ele>2052.0</ele>
        <time>2014-06-30T14:20:21Z</time>
      </trkpt>
      <trkpt lat="40.689717" lon="-4.690250">
        <ele>2050.0</ele>
        <time>2014-06-30T14:20:22Z</time>
      </trkpt>
      <trkpt lat="40.689767" lon="-4.690133">
        <ele>2048.0</ele>
        <time>2014-06-30T14:20:23Z</time>
      </trkpt>
      <trkpt lat="40.689817" lon="-4.690000">
        <ele>2046.0</ele>
        <time>2014-06-30T14:20:24Z</time>
      </trkpt>
      <trkpt lat="40.689883" lon="-4.689883">
        <ele>2043.0</ele>
        <time>2014-06-30T14:20:25Z</time>
      </trkpt>
      <trkpt lat="40.689933" lon="-4.689733">
        <ele>2041.0</ele>
        <time>2014-06-30T14:20:26Z</time>
      </trkpt>
      <trkpt lat="40.689983" lon="-4.689600">
        <ele>2038.0</ele>
        <time>2014-06-30T14:20:27Z</time>
      </trkpt>
      <trkpt lat="40.690033" lon="-4.689450">
        <ele>2036.0</ele>
        <time>2014-06-30T14:20:28Z</time>
      </trkpt>
      <trkpt lat="40.690083" lon="-4.689317">
        <ele>2033.0</ele>
        <time>2014-06-30T14:20:29Z</time>
      </trkpt>
      <trkpt lat="40.690150" lon="-4.689167">
        <ele>2031.0</ele>
        <time>2014-06-30T14:20:30Z</time>
      </trkpt>
      <trkpt lat="40.690217" lon="-4.689017">
        <ele>2030.0</ele>
        <time>2014-06-30T14:20:31Z</time>
      </trkpt>
      <trkpt lat="40.690283" lon="-4.688867">
        <ele>2029.0</ele>
        <time>2014-06-30T14:20:32Z</time>
      </trkpt>
      <trkpt lat="40.690333" lon="-4.688750">
        <ele>2029.0</ele>
        <time>2014-06-30T14:20:33Z</time>
      </trkpt>
      <trkpt lat="40.690400" lon="-4.688617">
        <ele>2028.0</ele>
        <time>2014-06-30T14:20:34Z</time>
      </trkpt>
      <trkpt lat="40.690450" lon="-4.688500">
        <ele>2027.0</ele>
        <time>2014-06-30T14:20:35Z</time>
      </trkpt>
      <trkpt lat="40.690500" lon="-4.688400">
        <ele>2026.0</ele>
        <time>2014-06-30T14:20:36Z</time>
      </trkpt>
      <trkpt lat="40.690550" lon="-4.688283">
        <ele>2025.0</ele>
        <time>2014-06-30T14:20:37Z</time>
      </trkpt>
      <trkpt lat="40.690600" lon="-4.688150">
        <ele>2024.0</ele>
        <time>2014-06-30T14:20:38Z</time>
      </trkpt>
      <trkpt lat="40.690633" lon="-4.688000">
        <ele>2024.0</ele>
        <time>2014-06-30T14:20:39Z</time>
      </trkpt>
      <trkpt lat="40.690650" lon="-4.687833">
        <ele>2024.0</ele>
        <time>2014-06-30T14:20:40Z</time>
      </trkpt>
      <trkpt lat="40.690667" lon="-4.687700">
        <ele>2025.0</ele>
        <time>2014-06-30T14:20:41Z</time>
      </trkpt>
      <trkpt lat="40.690683" lon="-4.687583">
        <ele>2025.0</ele>
        <time>2014-06-30T14:20:42Z</time>
      </trkpt>
      <trkpt lat="40.690683" lon="-4.687450">
        <ele>2025.0</ele>
        <time>2014-06-30T14:20:43Z</time>
      </trkpt>
      <trkpt lat="40.690683" lon="-4.687317">
        <ele>2025.0</ele>
        <time>2014-06-30T14:20:44Z</time>
      </trkpt>
      <trkpt lat="40.690667" lon="-4.687183">
        <ele>2026.0</ele>
        <time>2014-06-30T14:20:45Z</time>
      </trkpt>
      <trkpt lat="40.690650" lon="-4.687050">
        <ele>2025.0</ele>
        <time>2014-06-30T14:20:46Z</time>
      </trkpt>
      <trkpt lat="40.690617" lon="-4.686900">
        <ele>2024.0</ele>
        <time>2014-06-30T14:20:47Z</time>
      </trkpt>
      <trkpt lat="40.690600" lon="-4.686733">
        <ele>2023.0</ele>
        <time>2014-06-30T14:20:48Z</time>
      </trkpt>
      <trkpt lat="40.690583" lon="-4.686567">
        <ele>2022.0</ele>
        <time>2014-06-30T14:20:49Z</time>
      </trkpt>
      <trkpt lat="40.690567" lon="-4.686417">
        <ele>2022.0</ele>
        <time>2014-06-30T14:20:50Z</time>
      </trkpt>
      <trkpt lat="40.690533" lon="-4.686283">
        <ele>2022.0</ele>
        <time>2014-06-30T14:20:51Z</time>
      </trkpt>
      <trkpt lat="40.690500" lon="-4.686150">
        <ele>2021.0</ele>
        <time>2014-06-30T14:20:52Z</time>
      </trkpt>
      <trkpt lat="40.690467" lon="-4.686000">
        <ele>2019.0</ele>
        <time>2014-06-30T14:20:53Z</time>
      </trkpt>
      <trkpt lat="40.690450" lon="-4.685833">
        <ele>2018.0</ele>
        <time>2014-06-30T14:20:54Z</time>
      </trkpt>
      <trkpt lat="40.690433" lon="-4.685667">
        <ele>2017.0</ele>
        <time>2014-06-30T14:20:55Z</time>
      </trkpt>
      <trkpt lat="40.690417" lon="-4.685500">
        <ele>2017.0</ele>
        <time>2014-06-30T14:20:56Z</time>
      </trkpt>
      <trkpt lat="40.690400" lon="-4.685350">
        <ele>2018.0</ele>
        <time>2014-06-30T14:20:57Z</time>
      </trkpt>
      <trkpt lat="40.690367" lon="-4.685233">
        <ele>2018.0</ele>
        <time>2014-06-30T14:20:58Z</time>
      </trkpt>
      <trkpt lat="40.690333" lon="-4.685133">
        <ele>2018.0</ele>
        <time>2014-06-30T14:20:59Z</time>
      </trkpt>
      <trkpt lat="40.690317" lon="-4.685017">
        <ele>2018.0</ele>
        <time>2014-06-30T14:21:00Z</time>
      </trkpt>
      <trkpt lat="40.690283" lon="-4.684900">
        <ele>2017.0</ele>
        <time>2014-06-30T14:21:01Z</time>
      </trkpt>
      <trkpt lat="40.690250" lon="-4.684767">
        <ele>2016.0</ele>
        <time>2014-06-30T14:21:02Z</time>
      </trkpt>
      <trkpt lat="40.690200" lon="-4.684617">
        <ele>2015.0</ele>
        <time>2014-06-30T14:21:03Z</time>
      </trkpt>
      <trkpt lat="40.690167" lon="-4.684467">
        <ele>2014.0</ele>
        <time>2014-06-30T14:21:04Z</time>
      </trkpt>
      <trkpt lat="40.690133" lon="-4.684300">
        <ele>2014.0</ele>
        <time>2014-06-30T14:21:05Z</time>
      </trkpt>
      <trkpt lat="40.690117" lon="-4.684150">
        <ele>2013.0</ele>
        <time>2014-06-30T14:21:06Z</time>
      </trkpt>
      <trkpt lat="40.690100" lon="-4.683983">
        <ele>2012.0</ele>
        <time>2014-06-30T14:21:07Z</time>
      </trkpt>
      <trkpt lat="40.690083" lon="-4.683800">
        <ele>2011.0</ele>
        <time>2014-06-30T14:21:08Z</time>
      </trkpt>
      <trkpt lat="40.690050" lon="-4.683633">
        <ele>2012.0</ele>
        <time>2014-06-30T14:21:09Z</time>
      </trkpt>
      <trkpt lat="40.690033" lon="-4.683500">
        <ele>2013.0</ele>
        <time>2014-06-30T14:21:10Z</time>
      </trkpt>
      <trkpt lat="40.690000" lon="-4.683417">
        <ele>2012.0</ele>
        <time>2014-06-30T14:21:11Z</time>
      </trkpt>
      <trkpt lat="40.690000" lon="-4.683333">
        <ele>2012.0</ele>
        <time>2014-06-30T14:21:12Z</time>
      </trkpt>
      <trkpt lat="40.690017" lon="-4.683267">
        <ele>2012.0</ele>
        <time>2014-06-30T14:21:13Z</time>
      </trkpt>
      <trkpt lat="40.690033" lon="-4.683200">
        <ele>2013.0</ele>
        <time>2014-06-30T14:21:14Z</time>
      </trkpt>
      <trkpt lat="40.690033" lon="-4.683150">
        <ele>2013.0</ele>
        <time>2014-06-30T14:21:15Z</time>
      </trkpt>
      <trkpt lat="40.690017" lon="-4.683100">
        <ele>2014.0</ele>
        <time>2014-06-30T14:21:16Z</time>
      </trkpt>
      <trkpt lat="40.689983" lon="-4.683050">
        <ele>2015.0</ele>
        <time>2014-06-30T14:21:17Z</time>
      </trkpt>
      <trkpt lat="40.689950" lon="-4.682950">
        <ele>2017.0</ele>
        <time>2014-06-30T14:21:18Z</time>
      </trkpt>
      <trkpt lat="40.689967" lon="-4.682867">
        <ele>2018.0</ele>
        <time>2014-06-30T14:21:19Z</time>
      </trkpt>
      <trkpt lat="40.690000" lon="-4.682767">
        <ele>2019.0</ele>
        <time>2014-06-30T14:21:20Z</time>
      </trkpt>
      <trkpt lat="40.690067" lon="-4.682717">
        <ele>2021.0</ele>
        <time>2014-06-30T14:21:21Z</time>
      </trkpt>
      <trkpt lat="40.690167" lon="-4.682717">
        <ele>2024.0</ele>
        <time>2014-06-30T14:21:22Z</time>
      </trkpt>
      <trkpt lat="40.690250" lon="-4.682783">
        <ele>2027.0</ele>
        <time>2014-06-30T14:21:23Z</time>
      </trkpt>
      <trkpt lat="40.690317" lon="-4.682833">
        <ele>2030.0</ele>
        <time>2014-06-30T14:21:24Z</time>
      </trkpt>
      <trkpt lat="40.690350" lon="-4.682900">
        <ele>2035.0</ele>
        <time>2014-06-30T14:21:25Z</time>
      </trkpt>
      <trkpt lat="40.690383" lon="-4.682933">
        <ele>2039.0</ele>
        <time>2014-06-30T14:21:26Z</time>
      </trkpt>
      <trkpt lat="40.690417" lon="-4.682967">
        <ele>2042.0</ele>
        <time>2014-06-30T14:21:27Z</time>
      </trkpt>
      <trkpt lat="40.690467" lon="-4.683000">
        <ele>2041.0</ele>
        <time>2014-06-30T14:21:28Z</time>
      </trkpt>
      <trkpt lat="40.690483" lon="-4.683083">
        <ele>2042.0</ele>
        <time>2014-06-30T14:21:29Z</time>
      </trkpt>
      <trkpt lat="40.690467" lon="-4.683150">
        <ele>2042.0</ele>
        <time>2014-06-30T14:21:30Z</time>
      </trkpt>
      <trkpt lat="40.690417" lon="-4.683200">
        <ele>2043.0</ele>
        <time>2014-06-30T14:21:31Z</time>
      </trkpt>
      <trkpt lat="40.690333" lon="-4.683217">
        <ele>2045.0</ele>
        <time>2014-06-30T14:21:32Z</time>
      </trkpt>
      <trkpt lat="40.690267" lon="-4.683200">
        <ele>2047.0</ele>
        <time>2014-06-30T14:21:33Z</time>
      </trkpt>
      <trkpt lat="40.690200" lon="-4.683150">
        <ele>2049.0</ele>
        <time>2014-06-30T14:21:34Z</time>
      </trkpt>
      <trkpt lat="40.690150" lon="-4.683133">
        <ele>2052.0</ele>
        <time>2014-06-30T14:21:35Z</time>
      </trkpt>
      <trkpt lat="40.690083" lon="-4.683117">
        <ele>2057.0</ele>
        <time>2014-06-30T14:21:36Z</time>
      </trkpt>
      <trkpt lat="40.690033" lon="-4.683150">
        <ele>2061.0</ele>
        <time>2014-06-30T14:21:37Z</time>
      </trkpt>
      <trkpt lat="40.689967" lon="-4.683200">
        <ele>2065.0</ele>
        <time>2014-06-30T14:21:38Z</time>
      </trkpt>
      <trkpt lat="40.689900" lon="-4.683250">
        <ele>2071.0</ele>
        <time>2014-06-30T14:21:39Z</time>
      </trkpt>
      <trkpt lat="40.689867" lon="-4.683317">
        <ele>2077.0</ele>
        <time>2014-06-30T14:21:40Z</time>
      </trkpt>
      <trkpt lat="40.689867" lon="-4.683400">
        <ele>2082.0</ele>
        <time>2014-06-30T14:21:41Z</time>
      </trkpt>
      <trkpt lat="40.689867" lon="-4.683500">
        <ele>2084.0</ele>
        <time>2014-06-30T14:21:42Z</time>
      </trkpt>
      <trkpt lat="40.689900" lon="-4.683600">
        <ele>2087.0</ele>
        <time>2014-06-30T14:21:43Z</time>
      </trkpt>
      <trkpt lat="40.689950" lon="-4.683667">
        <ele>2088.0</ele>
        <time>2014-06-30T14:21:44Z</time>
      </trkpt>
      <trkpt lat="40.690017" lon="-4.683683">
        <ele>2087.0</ele>
        <time>2014-06-30T14:21:45Z</time>
      </trkpt>
      <trkpt lat="40.690100" lon="-4.683683">
        <ele>2088.0</ele>
        <time>2014-06-30T14:21:46Z</time>
      </trkpt>
      <trkpt lat="40.690200" lon="-4.683650">
        <ele>2088.0</ele>
        <time>2014-06-30T14:21:47Z</time>
      </trkpt>
      <trkpt lat="40.690283" lon="-4.683617">
        <ele>2089.0</ele>
        <time>2014-06-30T14:21:48Z</time>
      </trkpt>
      <trkpt lat="40.690350" lon="-4.683550">
        <ele>2090.0</ele>
        <time>2014-06-30T14:21:49Z</time>
      </trkpt>
      <trkpt lat="40.690433" lon="-4.683483">
        <ele>2090.0</ele>
        <time>2014-06-30T14:21:50Z</time>
      </trkpt>
      <trkpt lat="40.690500" lon="-4.683383">
        <ele>2091.0</ele>
        <time>2014-06-30T14:21:51Z</time>
      </trkpt>
      <trkpt lat="40.690550" lon="-4.683283">
        <ele>2092.0</ele>
        <time>2014-06-30T14:21:52Z</time>
      </trkpt>
      <trkpt lat="40.690583" lon="-4.683150">
        <ele>2092.0</ele>
        <time>2014-06-30T14:21:53Z</time>
      </trkpt>
      <trkpt lat="40.690583" lon="-4.683000">
        <ele>2093.0</ele>
        <time>2014-06-30T14:21:54Z</time>
      </trkpt>
      <trkpt lat="40.690583" lon="-4.682850">
        <ele>2093.0</ele>
        <time>2014-06-30T14:21:55Z</time>
      </trkpt>
      <trkpt lat="40.690567" lon="-4.682700">
        <ele>2095.0</ele>
        <time>2014-06-30T14:21:56Z</time>
      </trkpt>
      <trkpt lat="40.690533" lon="-4.682583">
        <ele>2098.0</ele>
        <time>2014-06-30T14:21:57Z</time>
      </trkpt>
      <trkpt lat="40.690450" lon="-4.682500">
        <ele>2101.0</ele>
        <time>2014-06-30T14:21:58Z</time>
      </trkpt>
      <trkpt lat="40.690367" lon="-4.682450">
        <ele>2104.0</ele>
        <time>2014-06-30T14:21:59Z</time>
      </trkpt>
      <trkpt lat="40.690283" lon="-4.682417">
        <ele>2108.0</ele>
        <time>2014-06-30T14:22:00Z</time>
      </trkpt>
      <trkpt lat="40.690200" lon="-4.682383">
        <ele>2112.0</ele>
        <time>2014-06-30T14:22:01Z</time>
      </trkpt>
      <trkpt lat="40.690167" lon="-4.682367">
        <ele>2110.0</ele>
        <time>2014-06-30T14:22:02Z</time>
      </trkpt>
      <trkpt lat="40.690100" lon="-4.682350">
        <ele>2114.0</ele>
        <time>2014-06-30T14:22:03Z</time>
      </trkpt>
      <trkpt lat="40.690033" lon="-4.682350">
        <ele>2118.0</ele>
        <time>2014-06-30T14:22:04Z</time>
      </trkpt>
      <trkpt lat="40.689967" lon="-4.682367">
        <ele>2119.0</ele>
        <time>2014-06-30T14:22:05Z</time>
      </trkpt>
      <trkpt lat="40.689883" lon="-4.682417">
        <ele>2123.0</ele>
        <time>2014-06-30T14:22:06Z</time>
      </trkpt>
      <trkpt lat="40.689833" lon="-4.682483">
        <ele>2126.0</ele>
        <time>2014-06-30T14:22:07Z</time>
      </trkpt>
      <trkpt lat="40.689783" lon="-4.682583">
        <ele>2129.0</ele>
        <time>2014-06-30T14:22:08Z</time>
      </trkpt>
      <trkpt lat="40.689767" lon="-4.682683">
        <ele>2132.0</ele>
        <time>2014-06-30T14:22:09Z</time>
      </trkpt>
      <trkpt lat="40.689783" lon="-4.682817">
        <ele>2135.0</ele>
        <time>2014-06-30T14:22:10Z</time>
      </trkpt>
      <trkpt lat="40.689817" lon="-4.682933">
        <ele>2141.0</ele>
        <time>2014-06-30T14:22:11Z</time>
      </trkpt>
      <trkpt lat="40.689867" lon="-4.683017">
        <ele>2146.0</ele>
        <time>2014-06-30T14:22:12Z</time>
      </trkpt>
      <trkpt lat="40.689950" lon="-4.683050">
        <ele>2142.0</ele>
        <time>2014-06-30T14:22:13Z</time>
      </trkpt>
      <trkpt lat="40.690017" lon="-4.683033">
        <ele>2143.0</ele>
        <time>2014-06-30T14:22:14Z</time>
      </trkpt>
      <trkpt lat="40.690100" lon="-4.682983">
        <ele>2144.0</ele>
        <time>2014-06-30T14:22:15Z</time>
      </trkpt>
      <trkpt lat="40.690150" lon="-4.682917">
        <ele>2145.0</ele>
        <time>2014-06-30T14:22:16Z</time>
      </trkpt>
      <trkpt lat="40.690167" lon="-4.682850">
        <ele>2147.0</ele>
        <time>2014-06-30T14:22:17Z</time>
      </trkpt>
      <trkpt lat="40.690150" lon="-4.682767">
        <ele>2148.0</ele>
        <time>2014-06-30T14:22:18Z</time>
      </trkpt>
      <trkpt lat="40.690083" lon="-4.682700">
        <ele>2151.0</ele>
        <time>2014-06-30T14:22:19Z</time>
      </trkpt>
      <trkpt lat="40.690017" lon="-4.682667">
        <ele>2156.0</ele>
        <time>2014-06-30T14:22:20Z</time>
      </trkpt>
      <trkpt lat="40.689950" lon="-4.682650">
        <ele>2161.0</ele>
        <time>2014-06-30T14:22:21Z</time>
      </trkpt>
      <trkpt lat="40.689900" lon="-4.682667">
        <ele>2166.0</ele>
        <time>2014-06-30T14:22:22Z</time>
      </trkpt>
      <trkpt lat="40.689833" lon="-4.682700">
        <ele>2171.0</ele>
        <time>2014-06-30T14:22:23Z</time>
      </trkpt>
      <trkpt lat="40.689750" lon="-4.682767">
        <ele>2174.0</ele>
        <time>2014-06-30T14:22:24Z</time>
      </trkpt>
      <trkpt lat="40.689667" lon="-4.682850">
        <ele>2177.0</ele>
        <time>2014-06-30T14:22:25Z</time>
      </trkpt>
      <trkpt lat="40.689583" lon="-4.682933">
        <ele>2181.0</ele>
        <time>2014-06-30T14:22:26Z</time>
      </trkpt>
      <trkpt lat="40.689500" lon="-4.683017">
        <ele>2186.0</ele>
        <time>2014-06-30T14:22:27Z</time>
      </trkpt>
      <trkpt lat="40.689450" lon="-4.683100">
        <ele>2190.0</ele>
        <time>2014-06-30T14:22:28Z</time>
      </trkpt>
      <trkpt lat="40.689433" lon="-4.683200">
        <ele>2193.0</ele>
        <time>2014-06-30T14:22:29Z</time>
      </trkpt>
      <trkpt lat="40.689433" lon="-4.683317">
        <ele>2190.0</ele>
        <time>2014-06-30T14:22:30Z</time>
      </trkpt>
      <trkpt lat="40.689433" lon="-4.683417">
        <ele>2191.0</ele>
        <time>2014-06-30T14:22:31Z</time>
      </trkpt>
      <trkpt lat="40.689417" lon="-4.683517">
        <ele>2191.0</ele>
        <time>2014-06-30T14:22:32Z</time>
      </trkpt>
      <trkpt lat="40.689417" lon="-4.683617">
        <ele>2191.0</ele>
        <time>2014-06-30T14:22:33Z</time>
      </trkpt>
      <trkpt lat="40.689400" lon="-4.683700">
        <ele>2191.0</ele>
        <time>2014-06-30T14:22:34Z</time>
      </trkpt>
      <trkpt lat="40.689417" lon="-4.683767">
        <ele>2192.0</ele>
        <time>2014-06-30T14:22:35Z</time>
      </trkpt>
      <trkpt lat="40.689433" lon="-4.683850">
        <ele>2191.0</ele>
        <time>2014-06-30T14:22:36Z</time>
      </trkpt>
      <trkpt lat="40.689483" lon="-4.683917">
        <ele>2191.0</ele>
        <time>2014-06-30T14:22:37Z</time>
      </trkpt>
      <trkpt lat="40.689533" lon="-4.683933">
        <ele>2190.0</ele>
        <time>2014-06-30T14:22:38Z</time>
      </trkpt>
      <trkpt lat="40.689583" lon="-4.683917">
        <ele>2189.0</ele>
        <time>2014-06-30T14:22:39Z</time>
      </trkpt>
      <trkpt lat="40.689633" lon="-4.683850">
        <ele>2188.0</ele>
        <time>2014-06-30T14:22:40Z</time>
      </trkpt>
      <trkpt lat="40.689683" lon="-4.683767">
        <ele>2187.0</ele>
        <time>2014-06-30T14:22:41Z</time>
      </trkpt>
      <trkpt lat="40.689700" lon="-4.683667">
        <ele>2187.0</ele>
        <time>2014-06-30T14:22:42Z</time>
      </trkpt>
      <trkpt lat="40.689717" lon="-4.683550">
        <ele>2186.0</ele>
        <time>2014-06-30T14:22:43Z</time>
      </trkpt>
      <trkpt lat="40.689733" lon="-4.683417">
        <ele>2184.0</ele>
        <time>2014-06-30T14:22:44Z</time>
      </trkpt>
      <trkpt lat="40.689750" lon="-4.683283">
        <ele>2182.0</ele>
        <time>2014-06-30T14:22:45Z</time>
      </trkpt>
      <trkpt lat="40.689783" lon="-4.683150">
        <ele>2181.0</ele>
        <time>2014-06-30T14:22:46Z</time>
      </trkpt>
      <trkpt lat="40.689833" lon="-4.683017">
        <ele>2180.0</ele>
        <time>2014-06-30T14:22:47Z</time>
      </trkpt>
      <trkpt lat="40.689867" lon="-4.682867">
        <ele>2178.0</ele>
        <time>2014-06-30T14:22:48Z</time>
      </trkpt>
      <trkpt lat="40.689900" lon="-4.682717">
        <ele>2179.0</ele>
        <time>2014-06-30T14:22:49Z</time>
      </trkpt>
      <trkpt lat="40.689933" lon="-4.682583">
        <ele>2181.0</ele>
        <time>2014-06-30T14:22:50Z</time>
      </trkpt>
      <trkpt lat="40.689933" lon="-4.682467">
        <ele>2183.0</ele>
        <time>2014-06-30T14:22:51Z</time>
      </trkpt>
      <trkpt lat="40.689933" lon="-4.682383">
        <ele>2188.0</ele>
        <time>2014-06-30T14:22:52Z</time>
      </trkpt>
      <trkpt lat="40.689917" lon="-4.682333">
        <ele>2192.0</ele>
        <time>2014-06-30T14:22:53Z</time>
      </trkpt>
      <trkpt lat="40.689900" lon="-4.682300">
        <ele>2196.0</ele>
        <time>2014-06-30T14:22:54Z</time>
      </trkpt>
      <trkpt lat="40.689917" lon="-4.682283">
        <ele>2190.0</ele>
        <time>2014-06-30T14:22:55Z</time>
      </trkpt>
      <trkpt lat="40.689933" lon="-4.682200">
        <ele>2191.0</ele>
        <time>2014-06-30T14:22:56Z</time>
      </trkpt>
      <trkpt lat="40.689967" lon="-4.682133">
        <ele>2193.0</ele>
        <time>2014-06-30T14:22:57Z</time>
      </trkpt>
      <trkpt lat="40.690033" lon="-4.682100">
        <ele>2196.0</ele>
        <time>2014-06-30T14:22:58Z</time>
      </trkpt>
      <trkpt lat="40.690117" lon="-4.682117">
        <ele>2198.0</ele>
        <time>2014-06-30T14:22:59Z</time>
      </trkpt>
      <trkpt lat="40.690167" lon="-4.682217">
        <ele>2199.0</ele>
        <time>2014-06-30T14:23:00Z</time>
      </trkpt>
      <trkpt lat="40.690200" lon="-4.682350">
        <ele>2201.0</ele>
        <time>2014-06-30T14:23:01Z</time>
      </trkpt>
      <trkpt lat="40.690183" lon="-4.682467">
        <ele>2202.0</ele>
        <time>2014-06-30T14:23:02Z</time>
      </trkpt>
      <trkpt lat="40.690117" lon="-4.682533">
        <ele>2202.0</ele>
        <time>2014-06-30T14:23:03Z</time>
      </trkpt>
      <trkpt lat="40.690033" lon="-4.682583">
        <ele>2204.0</ele>
        <time>2014-06-30T14:23:04Z</time>
      </trkpt>
      <trkpt lat="40.689933" lon="-4.682583">
        <ele>2205.0</ele>
        <time>2014-06-30T14:23:05Z</time>
      </trkpt>
      <trkpt lat="40.689833" lon="-4.682567">
        <ele>2206.0</ele>
        <time>2014-06-30T14:23:06Z</time>
      </trkpt>
      <trkpt lat="40.689750" lon="-4.682533">
        <ele>2206.0</ele>
        <time>2014-06-30T14:23:07Z</time>
      </trkpt>
      <trkpt lat="40.689667" lon="-4.682467">
        <ele>2207.0</ele>
        <time>2014-06-30T14:23:08Z</time>
      </trkpt>
      <trkpt lat="40.689617" lon="-4.682367">
        <ele>2209.0</ele>
        <time>2014-06-30T14:23:09Z</time>
      </trkpt>
      <trkpt lat="40.689617" lon="-4.682267">
        <ele>2209.0</ele>
        <time>2014-06-30T14:23:10Z</time>
      </trkpt>
      <trkpt lat="40.689650" lon="-4.682183">
        <ele>2208.0</ele>
        <time>2014-06-30T14:23:11Z</time>
      </trkpt>
      <trkpt lat="40.689700" lon="-4.682117">
        <ele>2210.0</ele>
        <time>2014-06-30T14:23:12Z</time>
      </trkpt>
      <trkpt lat="40.689750" lon="-4.682067">
        <ele>2211.0</ele>
        <time>2014-06-30T14:23:13Z</time>
      </trkpt>
      <trkpt lat="40.689767" lon="-4.682033">
        <ele>2213.0</ele>
        <time>2014-06-30T14:23:14Z</time>
      </trkpt>
      <trkpt lat="40.689783" lon="-4.682000">
        <ele>2214.0</ele>
        <time>2014-06-30T14:23:15Z</time>
      </trkpt>
      <trkpt lat="40.689800" lon="-4.681967">
        <ele>2216.0</ele>
        <time>2014-06-30T14:23:16Z</time>
      </trkpt>
      <trkpt lat="40.689833" lon="-4.681933">
        <ele>2217.0</ele>
        <time>2014-06-30T14:23:17Z</time>
      </trkpt>
      <trkpt lat="40.689917" lon="-4.681917">
        <ele>2218.0</ele>
        <time>2014-06-30T14:23:18Z</time>
      </trkpt>
      <trkpt lat="40.689983" lon="-4.681950">
        <ele>2219.0</ele>
        <time>2014-06-30T14:23:19Z</time>
      </trkpt>
      <trkpt lat="40.690033" lon="-4.682033">
        <ele>2221.0</ele>
        <time>2014-06-30T14:23:20Z</time>
      </trkpt>
      <trkpt lat="40.690050" lon="-4.682150">
        <ele>2222.0</ele>
        <time>2014-06-30T14:23:21Z</time>
      </trkpt>
      <trkpt lat="40.690067" lon="-4.682267">
        <ele>2223.0</ele>
        <time>2014-06-30T14:23:22Z</time>
      </trkpt>
      <trkpt lat="40.690083" lon="-4.682383">
        <ele>2225.0</ele>
        <time>2014-06-30T14:23:23Z</time>
      </trkpt>
      <trkpt lat="40.690083" lon="-4.682500">
        <ele>2227.0</ele>
        <time>2014-06-30T14:23:24Z</time>
      </trkpt>
      <trkpt lat="40.690067" lon="-4.682583">
        <ele>2229.0</ele>
        <time>2014-06-30T14:23:25Z</time>
      </trkpt>
      <trkpt lat="40.690050" lon="-4.682667">
        <ele>2231.0</ele>
        <time>2014-06-30T14:23:26Z</time>
      </trkpt>
      <trkpt lat="40.690017" lon="-4.682733">
        <ele>2231.0</ele>
        <time>2014-06-30T14:23:27Z</time>
      </trkpt>
      <trkpt lat="40.689983" lon="-4.682833">
        <ele>2232.0</ele>
        <time>2014-06-30T14:23:28Z</time>
      </trkpt>
      <trkpt lat="40.689967" lon="-4.682933">
        <ele>2231.0</ele>
        <time>2014-06-30T14:23:29Z</time>
      </trkpt>
      <trkpt lat="40.689917" lon="-4.683000">
        <ele>2232.0</ele>
        <time>2014-06-30T14:23:30Z</time>
      </trkpt>
      <trkpt lat="40.689867" lon="-4.683067">
        <ele>2232.0</ele>
        <time>2014-06-30T14:23:31Z</time>
      </trkpt>
      <trkpt lat="40.689800" lon="-4.683117">
        <ele>2233.0</ele>
        <time>2014-06-30T14:23:32Z</time>
      </trkpt>
      <trkpt lat="40.689700" lon="-4.683167">
        <ele>2233.0</ele>
        <time>2014-06-30T14:23:33Z</time>
      </trkpt>
      <trkpt lat="40.689600" lon="-4.683183">
        <ele>2233.0</ele>
        <time>2014-06-30T14:23:34Z</time>
      </trkpt>
      <trkpt lat="40.689467" lon="-4.683200">
        <ele>2232.0</ele>
        <time>2014-06-30T14:23:35Z</time>
      </trkpt>
      <trkpt lat="40.689367" lon="-4.683183">
        <ele>2233.0</ele>
        <time>2014-06-30T14:23:36Z</time>
      </trkpt>
      <trkpt lat="40.689250" lon="-4.683133">
        <ele>2233.0</ele>
        <time>2014-06-30T14:23:37Z</time>
      </trkpt>
      <trkpt lat="40.689167" lon="-4.683050">
        <ele>2234.0</ele>
        <time>2014-06-30T14:23:38Z</time>
      </trkpt>
      <trkpt lat="40.689067" lon="-4.682983">
        <ele>2234.0</ele>
        <time>2014-06-30T14:23:39Z</time>
      </trkpt>
      <trkpt lat="40.689000" lon="-4.682900">
        <ele>2235.0</ele>
        <time>2014-06-30T14:23:40Z</time>
      </trkpt>
      <trkpt lat="40.688933" lon="-4.682800">
        <ele>2235.0</ele>
        <time>2014-06-30T14:23:41Z</time>
      </trkpt>
      <trkpt lat="40.688883" lon="-4.682700">
        <ele>2235.0</ele>
        <time>2014-06-30T14:23:42Z</time>
      </trkpt>
      <trkpt lat="40.688850" lon="-4.682617">
        <ele>2235.0</ele>
        <time>2014-06-30T14:23:43Z</time>
      </trkpt>
      <trkpt lat="40.688817" lon="-4.682500">
        <ele>2235.0</ele>
        <time>2014-06-30T14:23:44Z</time>
      </trkpt>
      <trkpt lat="40.688767" lon="-4.682400">
        <ele>2235.0</ele>
        <time>2014-06-30T14:23:45Z</time>
      </trkpt>
      <trkpt lat="40.688750" lon="-4.682283">
        <ele>2235.0</ele>
        <time>2014-06-30T14:23:46Z</time>
      </trkpt>
      <trkpt lat="40.688733" lon="-4.682167">
        <ele>2234.0</ele>
        <time>2014-06-30T14:23:47Z</time>
      </trkpt>
      <trkpt lat="40.688717" lon="-4.682050">
        <ele>2233.0</ele>
        <time>2014-06-30T14:23:48Z</time>
      </trkpt>
      <trkpt lat="40.688717" lon="-4.681883">
        <ele>2232.0</ele>
        <time>2014-06-30T14:23:49Z</time>
      </trkpt>
      <trkpt lat="40.688733" lon="-4.681717">
        <ele>2231.0</ele>
        <time>2014-06-30T14:23:50Z</time>
      </trkpt>
      <trkpt lat="40.688733" lon="-4.681533">
        <ele>2230.0</ele>
        <time>2014-06-30T14:23:51Z</time>
      </trkpt>
      <trkpt lat="40.688733" lon="-4.681367">
        <ele>2230.0</ele>
        <time>2014-06-30T14:23:52Z</time>
      </trkpt>
      <trkpt lat="40.688700" lon="-4.681217">
        <ele>2230.0</ele>
        <time>2014-06-30T14:23:53Z</time>
      </trkpt>
      <trkpt lat="40.688683" lon="-4.681083">
        <ele>2231.0</ele>
        <time>2014-06-30T14:23:54Z</time>
      </trkpt>
      <trkpt lat="40.688667" lon="-4.680950">
        <ele>2232.0</ele>
        <time>2014-06-30T14:23:55Z</time>
      </trkpt>
      <trkpt lat="40.688683" lon="-4.680833">
        <ele>2233.0</ele>
        <time>2014-06-30T14:23:56Z</time>
      </trkpt>
      <trkpt lat="40.688683" lon="-4.680733">
        <ele>2232.0</ele>
        <time>2014-06-30T14:23:57Z</time>
      </trkpt>
      <trkpt lat="40.688717" lon="-4.680617">
        <ele>2232.0</ele>
        <time>2014-06-30T14:23:58Z</time>
      </trkpt>
      <trkpt lat="40.688750" lon="-4.680500">
        <ele>2232.0</ele>
        <time>2014-06-30T14:23:59Z</time>
      </trkpt>
      <trkpt lat="40.688800" lon="-4.680400">
        <ele>2233.0</ele>
        <time>2014-06-30T14:24:00Z</time>
      </trkpt>
      <trkpt lat="40.688850" lon="-4.680333">
        <ele>2234.0</ele>
        <time>2014-06-30T14:24:01Z</time>
      </trkpt>
      <trkpt lat="40.688883" lon="-4.680283">
        <ele>2237.0</ele>
        <time>2014-06-30T14:24:02Z</time>
      </trkpt>
      <trkpt lat="40.688933" lon="-4.680233">
        <ele>2239.0</ele>
        <time>2014-06-30T14:24:03Z</time>
      </trkpt>
      <trkpt lat="40.688983" lon="-4.680167">
        <ele>2237.0</ele>
        <time>2014-06-30T14:24:04Z</time>
      </trkpt>
      <trkpt lat="40.689050" lon="-4.680083">
        <ele>2238.0</ele>
        <time>2014-06-30T14:24:05Z</time>
      </trkpt>
      <trkpt lat="40.689133" lon="-4.680033">
        <ele>2240.0</ele>
        <time>2014-06-30T14:24:06Z</time>
      </trkpt>
      <trkpt lat="40.689250" lon="-4.680033">
        <ele>2241.0</ele>
        <time>2014-06-30T14:24:07Z</time>
      </trkpt>
      <trkpt lat="40.689350" lon="-4.680083">
        <ele>2242.0</ele>
        <time>2014-06-30T14:24:08Z</time>
      </trkpt>
      <trkpt lat="40.689433" lon="-4.680183">
        <ele>2244.0</ele>
        <time>2014-06-30T14:24:09Z</time>
      </trkpt>
      <trkpt lat="40.689500" lon="-4.680283">
        <ele>2247.0</ele>
        <time>2014-06-30T14:24:10Z</time>
      </trkpt>
      <trkpt lat="40.689533" lon="-4.680367">
        <ele>2249.0</ele>
        <time>2014-06-30T14:24:11Z</time>
      </trkpt>
      <trkpt lat="40.689550" lon="-4.680467">
        <ele>2251.0</ele>
        <time>2014-06-30T14:24:12Z</time>
      </trkpt>
      <trkpt lat="40.689550" lon="-4.680567">
        <ele>2252.0</ele>
        <time>2014-06-30T14:24:13Z</time>
      </trkpt>
      <trkpt lat="40.689533" lon="-4.680667">
        <ele>2250.0</ele>
        <time>2014-06-30T14:24:14Z</time>
      </trkpt>
      <trkpt lat="40.689500" lon="-4.680750">
        <ele>2250.0</ele>
        <time>2014-06-30T14:24:15Z</time>
      </trkpt>
      <trkpt lat="40.689433" lon="-4.680783">
        <ele>2250.0</ele>
        <time>2014-06-30T14:24:16Z</time>
      </trkpt>
      <trkpt lat="40.689350" lon="-4.680800">
        <ele>2251.0</ele>
        <time>2014-06-30T14:24:17Z</time>
      </trkpt>
      <trkpt lat="40.689267" lon="-4.680800">
        <ele>2250.0</ele>
        <time>2014-06-30T14:24:18Z</time>
      </trkpt>
      <trkpt lat="40.689183" lon="-4.680800">
        <ele>2250.0</ele>
        <time>2014-06-30T14:24:19Z</time>
      </trkpt>
      <trkpt lat="40.689100" lon="-4.680767">
        <ele>2250.0</ele>
        <time>2014-06-30T14:24:20Z</time>
      </trkpt>
      <trkpt lat="40.689017" lon="-4.680733">
        <ele>2249.0</ele>
        <time>2014-06-30T14:24:21Z</time>
      </trkpt>
      <trkpt lat="40.688933" lon="-4.680667">
        <ele>2247.0</ele>
        <time>2014-06-30T14:24:22Z</time>
      </trkpt>
      <trkpt lat="40.688867" lon="-4.680583">
        <ele>2248.0</ele>
        <time>2014-06-30T14:24:23Z</time>
      </trkpt>
      <trkpt lat="40.688800" lon="-4.680500">
        <ele>2248.0</ele>
        <time>2014-06-30T14:24:24Z</time>
      </trkpt>
      <trkpt lat="40.688750" lon="-4.680433">
        <ele>2249.0</ele>
        <time>2014-06-30T14:24:25Z</time>
      </trkpt>
      <trkpt lat="40.688683" lon="-4.680367">
        <ele>2249.0</ele>
        <time>2014-06-30T14:24:26Z</time>
      </trkpt>
      <trkpt lat="40.688633" lon="-4.680283">
        <ele>2249.0</ele>
        <time>2014-06-30T14:24:27Z</time>
      </trkpt>
      <trkpt lat="40.688567" lon="-4.680167">
        <ele>2248.0</ele>
        <time>2014-06-30T14:24:28Z</time>
      </trkpt>
      <trkpt lat="40.688500" lon="-4.680050">
        <ele>2248.0</ele>
        <time>2014-06-30T14:24:29Z</time>
      </trkpt>
      <trkpt lat="40.688417" lon="-4.679917">
        <ele>2248.0</ele>
        <time>2014-06-30T14:24:30Z</time>
      </trkpt>
      <trkpt lat="40.688350" lon="-4.679800">
        <ele>2250.0</ele>
        <time>2014-06-30T14:24:31Z</time>
      </trkpt>
      <trkpt lat="40.688283" lon="-4.679700">
        <ele>2252.0</ele>
        <time>2014-06-30T14:24:32Z</time>
      </trkpt>
      <trkpt lat="40.688233" lon="-4.679600">
        <ele>2253.0</ele>
        <time>2014-06-30T14:24:33Z</time>
      </trkpt>
      <trkpt lat="40.688200" lon="-4.679517">
        <ele>2252.0</ele>
        <time>2014-06-30T14:24:34Z</time>
      </trkpt>
      <trkpt lat="40.688183" lon="-4.679433">
        <ele>2252.0</ele>
        <time>2014-06-30T14:24:35Z</time>
      </trkpt>
      <trkpt lat="40.688167" lon="-4.679350">
        <ele>2253.0</ele>
        <time>2014-06-30T14:24:36Z</time>
      </trkpt>
      <trkpt lat="40.688133" lon="-4.679283">
        <ele>2255.0</ele>
        <time>2014-06-30T14:24:37Z</time>
      </trkpt>
      <trkpt lat="40.688100" lon="-4.679200">
        <ele>2256.0</ele>
        <time>2014-06-30T14:24:38Z</time>
      </trkpt>
      <trkpt lat="40.688100" lon="-4.679117">
        <ele>2255.0</ele>
        <time>2014-06-30T14:24:39Z</time>
      </trkpt>
      <trkpt lat="40.688083" lon="-4.679017">
        <ele>2256.0</ele>
        <time>2014-06-30T14:24:40Z</time>
      </trkpt>
      <trkpt lat="40.688083" lon="-4.678933">
        <ele>2257.0</ele>
        <time>2014-06-30T14:24:41Z</time>
      </trkpt>
      <trkpt lat="40.688067" lon="-4.678850">
        <ele>2258.0</ele>
        <time>2014-06-30T14:24:42Z</time>
      </trkpt>
      <trkpt lat="40.688033" lon="-4.678767">
        <ele>2259.0</ele>
        <time>2014-06-30T14:24:43Z</time>
      </trkpt>
      <trkpt lat="40.688000" lon="-4.678683">
        <ele>2262.0</ele>
        <time>2014-06-30T14:24:44Z</time>
      </trkpt>
      <trkpt lat="40.688000" lon="-4.678600">
        <ele>2263.0</ele>
        <time>2014-06-30T14:24:45Z</time>
      </trkpt>
      <trkpt lat="40.687983" lon="-4.678500">
        <ele>2263.0</ele>
        <time>2014-06-30T14:24:46Z</time>
      </trkpt>
      <trkpt lat="40.687967" lon="-4.678417">
        <ele>2264.0</ele>
        <time>2014-06-30T14:24:47Z</time>
      </trkpt>
      <trkpt lat="40.687967" lon="-4.678317">
        <ele>2264.0</ele>
        <time>2014-06-30T14:24:48Z</time>
      </trkpt>
      <trkpt lat="40.687967" lon="-4.678233">
        <ele>2266.0</ele>
        <time>2014-06-30T14:24:49Z</time>
      </trkpt>
      <trkpt lat="40.687950" lon="-4.678133">
        <ele>2266.0</ele>
        <time>2014-06-30T14:24:50Z</time>
      </trkpt>
      <trkpt lat="40.687933" lon="-4.678050">
        <ele>2267.0</ele>
        <time>2014-06-30T14:24:51Z</time>
      </trkpt>
      <trkpt lat="40.687917" lon="-4.677950">
        <ele>2268.0</ele>
        <time>2014-06-30T14:24:52Z</time>
      </trkpt>
      <trkpt lat="40.687917" lon="-4.677850">
        <ele>2268.0</ele>
        <time>2014-06-30T14:24:53Z</time>
      </trkpt>
      <trkpt lat="40.687917" lon="-4.677750">
        <ele>2269.0</ele>
        <time>2014-06-30T14:24:54Z</time>
      </trkpt>
      <trkpt lat="40.687933" lon="-4.677633">
        <ele>2269.0</ele>
        <time>2014-06-30T14:24:55Z</time>
      </trkpt>
      <trkpt lat="40.687967" lon="-4.677533">
        <ele>2271.0</ele>
        <time>2014-06-30T14:24:56Z</time>
      </trkpt>
      <trkpt lat="40.688017" lon="-4.677467">
        <ele>2273.0</ele>
        <time>2014-06-30T14:24:57Z</time>
      </trkpt>
      <trkpt lat="40.688083" lon="-4.677433">
        <ele>2276.0</ele>
        <time>2014-06-30T14:24:58Z</time>
      </trkpt>
      <trkpt lat="40.688133" lon="-4.677433">
        <ele>2276.0</ele>
        <time>2014-06-30T14:24:59Z</time>
      </trkpt>
      <trkpt lat="40.688183" lon="-4.677417">
        <ele>2277.0</ele>
        <time>2014-06-30T14:25:00Z</time>
      </trkpt>
      <trkpt lat="40.688233" lon="-4.677417">
        <ele>2278.0</ele>
        <time>2014-06-30T14:25:01Z</time>
      </trkpt>
      <trkpt lat="40.688300" lon="-4.677400">
        <ele>2278.0</ele>
        <time>2014-06-30T14:25:02Z</time>
      </trkpt>
      <trkpt lat="40.688367" lon="-4.677417">
        <ele>2278.0</ele>
        <time>2014-06-30T14:25:03Z</time>
      </trkpt>
      <trkpt lat="40.688450" lon="-4.677433">
        <ele>2279.0</ele>
        <time>2014-06-30T14:25:04Z</time>
      </trkpt>
      <trkpt lat="40.688533" lon="-4.677450">
        <ele>2279.0</ele>
        <time>2014-06-30T14:25:05Z</time>
      </trkpt>
      <trkpt lat="40.688617" lon="-4.677483">
        <ele>2279.0</ele>
        <time>2014-06-30T14:25:06Z</time>
      </trkpt>
      <trkpt lat="40.688700" lon="-4.677500">
        <ele>2279.0</ele>
        <time>2014-06-30T14:25:07Z</time>
      </trkpt>
      <trkpt lat="40.688767" lon="-4.677533">
        <ele>2279.0</ele>
        <time>2014-06-30T14:25:08Z</time>
      </trkpt>
      <trkpt lat="40.688833" lon="-4.677567">
        <ele>2279.0</ele>
        <time>2014-06-30T14:25:09Z</time>
      </trkpt>
      <trkpt lat="40.688900" lon="-4.677617">
        <ele>2280.0</ele>
        <time>2014-06-30T14:25:10Z</time>
      </trkpt>
      <trkpt lat="40.688967" lon="-4.677667">
        <ele>2280.0</ele>
        <time>2014-06-30T14:25:11Z</time>
      </trkpt>
      <trkpt lat="40.689017" lon="-4.677700">
        <ele>2280.0</ele>
        <time>2014-06-30T14:25:12Z</time>
      </trkpt>
      <trkpt lat="40.689050" lon="-4.677767">
        <ele>2281.0</ele>
        <time>2014-06-30T14:25:13Z</time>
      </trkpt>
      <trkpt lat="40.689100" lon="-4.677833">
        <ele>2281.0</ele>
        <time>2014-06-30T14:25:14Z</time>
      </trkpt>
      <trkpt lat="40.689133" lon="-4.677933">
        <ele>2281.0</ele>
        <time>2014-06-30T14:25:15Z</time>
      </trkpt>
      <trkpt lat="40.689167" lon="-4.678017">
        <ele>2282.0</ele>
        <time>2014-06-30T14:25:16Z</time>
      </trkpt>
      <trkpt lat="40.689200" lon="-4.678117">
        <ele>2284.0</ele>
        <time>2014-06-30T14:25:17Z</time>
      </trkpt>
      <trkpt lat="40.689217" lon="-4.678200">
        <ele>2286.0</ele>
        <time>2014-06-30T14:25:18Z</time>
      </trkpt>
      <trkpt lat="40.689233" lon="-4.678283">
        <ele>2288.0</ele>
        <time>2014-06-30T14:25:19Z</time>
      </trkpt>
      <trkpt lat="40.689250" lon="-4.678383">
        <ele>2289.0</ele>
        <time>2014-06-30T14:25:20Z</time>
      </trkpt>
      <trkpt lat="40.689250" lon="-4.678467">
        <ele>2291.0</ele>
        <time>2014-06-30T14:25:21Z</time>
      </trkpt>
      <trkpt lat="40.689267" lon="-4.678550">
        <ele>2289.0</ele>
        <time>2014-06-30T14:25:22Z</time>
      </trkpt>
      <trkpt lat="40.689267" lon="-4.678633">
        <ele>2289.0</ele>
        <time>2014-06-30T14:25:23Z</time>
      </trkpt>
      <trkpt lat="40.689267" lon="-4.678700">
        <ele>2290.0</ele>
        <time>2014-06-30T14:25:24Z</time>
      </trkpt>
      <trkpt lat="40.689250" lon="-4.678783">
        <ele>2292.0</ele>
        <time>2014-06-30T14:25:25Z</time>
      </trkpt>
      <trkpt lat="40.689233" lon="-4.678850">
        <ele>2293.0</ele>
        <time>2014-06-30T14:25:26Z</time>
      </trkpt>
      <trkpt lat="40.689183" lon="-4.678900">
        <ele>2294.0</ele>
        <time>2014-06-30T14:25:27Z</time>
      </trkpt>
      <trkpt lat="40.689117" lon="-4.678950">
        <ele>2295.0</ele>
        <time>2014-06-30T14:25:28Z</time>
      </trkpt>
      <trkpt lat="40.689033" lon="-4.678983">
        <ele>2296.0</ele>
        <time>2014-06-30T14:25:29Z</time>
      </trkpt>
      <trkpt lat="40.688933" lon="-4.678967">
        <ele>2297.0</ele>
        <time>2014-06-30T14:25:30Z</time>
      </trkpt>
      <trkpt lat="40.688867" lon="-4.678933">
        <ele>2298.0</ele>
        <time>2014-06-30T14:25:31Z</time>
      </trkpt>
      <trkpt lat="40.688800" lon="-4.678850">
        <ele>2299.0</ele>
        <time>2014-06-30T14:25:32Z</time>
      </trkpt>
      <trkpt lat="40.688750" lon="-4.678767">
        <ele>2300.0</ele>
        <time>2014-06-30T14:25:33Z</time>
      </trkpt>
      <trkpt lat="40.688717" lon="-4.678650">
        <ele>2300.0</ele>
        <time>2014-06-30T14:25:34Z</time>
      </trkpt>
      <trkpt lat="40.688700" lon="-4.678517">
        <ele>2301.0</ele>
        <time>2014-06-30T14:25:35Z</time>
      </trkpt>
      <trkpt lat="40.688700" lon="-4.678400">
        <ele>2302.0</ele>
        <time>2014-06-30T14:25:36Z</time>
      </trkpt>
      <trkpt lat="40.688733" lon="-4.678300">
        <ele>2304.0</ele>
        <time>2014-06-30T14:25:37Z</time>
      </trkpt>
      <trkpt lat="40.688767" lon="-4.678183">
        <ele>2306.0</ele>
        <time>2014-06-30T14:25:38Z</time>
      </trkpt>
      <trkpt lat="40.688800" lon="-4.678083">
        <ele>2308.0</ele>
        <time>2014-06-30T14:25:39Z</time>
      </trkpt>
      <trkpt lat="40.688867" lon="-4.678000">
        <ele>2311.0</ele>
        <time>2014-06-30T14:25:40Z</time>
      </trkpt>
      <trkpt lat="40.688933" lon="-4.677950">
        <ele>2310.0</ele>
        <time>2014-06-30T14:25:41Z</time>
      </trkpt>
      <trkpt lat="40.688983" lon="-4.677900">
        <ele>2313.0</ele>
        <time>2014-06-30T14:25:42Z</time>
      </trkpt>
      <trkpt lat="40.689017" lon="-4.677850">
        <ele>2316.0</ele>
        <time>2014-06-30T14:25:43Z</time>
      </trkpt>
      <trkpt lat="40.689067" lon="-4.677817">
        <ele>2319.0</ele>
        <time>2014-06-30T14:25:44Z</time>
      </trkpt>
      <trkpt lat="40.689117" lon="-4.677800">
        <ele>2321.0</ele>
        <time>2014-06-30T14:25:45Z</time>
      </trkpt>
      <trkpt lat="40.689167" lon="-4.677833">
        <ele>2323.0</ele>
        <time>2014-06-30T14:25:46Z</time>
      </trkpt>
      <trkpt lat="40.689233" lon="-4.677883">
        <ele>2324.0</ele>
        <time>2014-06-30T14:25:47Z</time>
      </trkpt>
      <trkpt lat="40.689267" lon="-4.677983">
        <ele>2327.0</ele>
        <time>2014-06-30T14:25:48Z</time>
      </trkpt>
      <trkpt lat="40.689300" lon="-4.678067">
        <ele>2329.0</ele>
        <time>2014-06-30T14:25:49Z</time>
      </trkpt>
      <trkpt lat="40.689300" lon="-4.678150">
        <ele>2331.0</ele>
        <time>2014-06-30T14:25:50Z</time>
      </trkpt>
      <trkpt lat="40.689267" lon="-4.678233">
        <ele>2333.0</ele>
        <time>2014-06-30T14:25:51Z</time>
      </trkpt>
      <trkpt lat="40.689217" lon="-4.678300">
        <ele>2335.0</ele>
        <time>2014-06-30T14:25:52Z</time>
      </trkpt>
      <trkpt lat="40.689183" lon="-4.678367">
        <ele>2336.0</ele>
        <time>2014-06-30T14:25:53Z</time>
      </trkpt>
      <trkpt lat="40.689133" lon="-4.678417">
        <ele>2334.0</ele>
        <time>2014-06-30T14:25:54Z</time>
      </trkpt>
      <trkpt lat="40.689067" lon="-4.678483">
        <ele>2334.0</ele>
        <time>2014-06-30T14:25:55Z</time>
      </trkpt>
      <trkpt lat="40.689000" lon="-4.678533">
        <ele>2335.0</ele>
        <time>2014-06-30T14:25:56Z</time>
      </trkpt>
      <trkpt lat="40.688933" lon="-4.678567">
        <ele>2336.0</ele>
        <time>2014-06-30T14:25:57Z</time>
      </trkpt>
      <trkpt lat="40.688867" lon="-4.678600">
        <ele>2337.0</ele>
        <time>2014-06-30T14:25:58Z</time>
      </trkpt>
      <trkpt lat="40.688783" lon="-4.678600">
        <ele>2338.0</ele>
        <time>2014-06-30T14:25:59Z</time>
      </trkpt>
      <trkpt lat="40.688700" lon="-4.678583">
        <ele>2338.0</ele>
        <time>2014-06-30T14:26:00Z</time>
      </trkpt>
      <trkpt lat="40.688617" lon="-4.678567">
        <ele>2338.0</ele>
        <time>2014-06-30T14:26:01Z</time>
      </trkpt>
      <trkpt lat="40.688533" lon="-4.678533">
        <ele>2339.0</ele>
        <time>2014-06-30T14:26:02Z</time>
      </trkpt>
      <trkpt lat="40.688450" lon="-4.678467">
        <ele>2340.0</ele>
        <time>2014-06-30T14:26:03Z</time>
      </trkpt>
      <trkpt lat="40.688383" lon="-4.678383">
        <ele>2341.0</ele>
        <time>2014-06-30T14:26:04Z</time>
      </trkpt>
      <trkpt lat="40.688317" lon="-4.678300">
        <ele>2342.0</ele>
        <time>2014-06-30T14:26:05Z</time>
      </trkpt>
      <trkpt lat="40.688250" lon="-4.678217">
        <ele>2342.0</ele>
        <time>2014-06-30T14:26:06Z</time>
      </trkpt>
      <trkpt lat="40.688183" lon="-4.678133">
        <ele>2342.0</ele>
        <time>2014-06-30T14:26:07Z</time>
      </trkpt>
      <trkpt lat="40.688133" lon="-4.678033">
        <ele>2342.0</ele>
        <time>2014-06-30T14:26:08Z</time>
      </trkpt>
      <trkpt lat="40.688067" lon="-4.677933">
        <ele>2343.0</ele>
        <time>2014-06-30T14:26:09Z</time>
      </trkpt>
      <trkpt lat="40.688000" lon="-4.677833">
        <ele>2343.0</ele>
        <time>2014-06-30T14:26:10Z</time>
      </trkpt>
      <trkpt lat="40.687933" lon="-4.677733">
        <ele>2343.0</ele>
        <time>2014-06-30T14:26:11Z</time>
      </trkpt>
      <trkpt lat="40.687867" lon="-4.677633">
        <ele>2344.0</ele>
        <time>2014-06-30T14:26:12Z</time>
      </trkpt>
      <trkpt lat="40.687800" lon="-4.677533">
        <ele>2346.0</ele>
        <time>2014-06-30T14:26:13Z</time>
      </trkpt>
      <trkpt lat="40.687767" lon="-4.677417">
        <ele>2347.0</ele>
        <time>2014-06-30T14:26:14Z</time>
      </trkpt>
      <trkpt lat="40.687717" lon="-4.677300">
        <ele>2348.0</ele>
        <time>2014-06-30T14:26:15Z</time>
      </trkpt>
      <trkpt lat="40.687700" lon="-4.677183">
        <ele>2349.0</ele>
        <time>2014-06-30T14:26:16Z</time>
      </trkpt>
      <trkpt lat="40.687683" lon="-4.677050">
        <ele>2350.0</ele>
        <time>2014-06-30T14:26:17Z</time>
      </trkpt>
      <trkpt lat="40.687667" lon="-4.676917">
        <ele>2352.0</ele>
        <time>2014-06-30T14:26:18Z</time>
      </trkpt>
      <trkpt lat="40.687667" lon="-4.676800">
        <ele>2353.0</ele>
        <time>2014-06-30T14:26:19Z</time>
      </trkpt>
      <trkpt lat="40.687700" lon="-4.676700">
        <ele>2351.0</ele>
        <time>2014-06-30T14:26:20Z</time>
      </trkpt>
      <trkpt lat="40.687717" lon="-4.676617">
        <ele>2351.0</ele>
        <time>2014-06-30T14:26:21Z</time>
      </trkpt>
      <trkpt lat="40.687733" lon="-4.676517">
        <ele>2352.0</ele>
        <time>2014-06-30T14:26:22Z</time>
      </trkpt>
      <trkpt lat="40.687750" lon="-4.676417">
        <ele>2352.0</ele>
        <time>2014-06-30T14:26:23Z</time>
      </trkpt>
      <trkpt lat="40.687800" lon="-4.676300">
        <ele>2352.0</ele>
        <time>2014-06-30T14:26:24Z</time>
      </trkpt>
      <trkpt lat="40.687867" lon="-4.676183">
        <ele>2351.0</ele>
        <time>2014-06-30T14:26:25Z</time>
      </trkpt>
      <trkpt lat="40.687967" lon="-4.676100">
        <ele>2351.0</ele>
        <time>2014-06-30T14:26:26Z</time>
      </trkpt>
      <trkpt lat="40.688067" lon="-4.676050">
        <ele>2350.0</ele>
        <time>2014-06-30T14:26:27Z</time>
      </trkpt>
      <trkpt lat="40.688167" lon="-4.676033">
        <ele>2350.0</ele>
        <time>2014-06-30T14:26:28Z</time>
      </trkpt>
      <trkpt lat="40.688267" lon="-4.676017">
        <ele>2349.0</ele>
        <time>2014-06-30T14:26:29Z</time>
      </trkpt>
      <trkpt lat="40.688350" lon="-4.676017">
        <ele>2349.0</ele>
        <time>2014-06-30T14:26:30Z</time>
      </trkpt>
      <trkpt lat="40.688433" lon="-4.676017">
        <ele>2350.0</ele>
        <time>2014-06-30T14:26:31Z</time>
      </trkpt>
      <trkpt lat="40.688517" lon="-4.676000">
        <ele>2350.0</ele>
        <time>2014-06-30T14:26:32Z</time>
      </trkpt>
      <trkpt lat="40.688600" lon="-4.676017">
        <ele>2350.0</ele>
        <time>2014-06-30T14:26:33Z</time>
      </trkpt>
      <trkpt lat="40.688683" lon="-4.676050">
        <ele>2349.0</ele>
        <time>2014-06-30T14:26:34Z</time>
      </trkpt>
      <trkpt lat="40.688750" lon="-4.676100">
        <ele>2349.0</ele>
        <time>2014-06-30T14:26:35Z</time>
      </trkpt>
      <trkpt lat="40.688833" lon="-4.676150">
        <ele>2349.0</ele>
        <time>2014-06-30T14:26:36Z</time>
      </trkpt>
      <trkpt lat="40.688917" lon="-4.676200">
        <ele>2349.0</ele>
        <time>2014-06-30T14:26:37Z</time>
      </trkpt>
      <trkpt lat="40.689000" lon="-4.676267">
        <ele>2348.0</ele>
        <time>2014-06-30T14:26:38Z</time>
      </trkpt>
      <trkpt lat="40.689067" lon="-4.676317">
        <ele>2348.0</ele>
        <time>2014-06-30T14:26:39Z</time>
      </trkpt>
      <trkpt lat="40.689100" lon="-4.676383">
        <ele>2348.0</ele>
        <time>2014-06-30T14:26:40Z</time>
      </trkpt>
      <trkpt lat="40.689150" lon="-4.676450">
        <ele>2348.0</ele>
        <time>2014-06-30T14:26:41Z</time>
      </trkpt>
      <trkpt lat="40.689200" lon="-4.676500">
        <ele>2348.0</ele>
        <time>2014-06-30T14:26:42Z</time>
      </trkpt>
      <trkpt lat="40.689250" lon="-4.676550">
        <ele>2349.0</ele>
        <time>2014-06-30T14:26:43Z</time>
      </trkpt>
      <trkpt lat="40.689283" lon="-4.676600">
        <ele>2349.0</ele>
        <time>2014-06-30T14:26:44Z</time>
      </trkpt>
      <trkpt lat="40.689317" lon="-4.676667">
        <ele>2349.0</ele>
        <time>2014-06-30T14:26:45Z</time>
      </trkpt>
      <trkpt lat="40.689367" lon="-4.676733">
        <ele>2349.0</ele>
        <time>2014-06-30T14:26:46Z</time>
      </trkpt>
      <trkpt lat="40.689383" lon="-4.676817">
        <ele>2350.0</ele>
        <time>2014-06-30T14:26:47Z</time>
      </trkpt>
      <trkpt lat="40.689400" lon="-4.676883">
        <ele>2352.0</ele>
        <time>2014-06-30T14:26:48Z</time>
      </trkpt>
      <trkpt lat="40.689433" lon="-4.676933">
        <ele>2352.0</ele>
        <time>2014-06-30T14:26:49Z</time>
      </trkpt>
      <trkpt lat="40.689450" lon="-4.677000">
        <ele>2353.0</ele>
        <time>2014-06-30T14:26:50Z</time>
      </trkpt>
      <trkpt lat="40.689450" lon="-4.677067">
        <ele>2355.0</ele>
        <time>2014-06-30T14:26:51Z</time>
      </trkpt>
      <trkpt lat="40.689433" lon="-4.677150">
        <ele>2356.0</ele>
        <time>2014-06-30T14:26:52Z</time>
      </trkpt>
      <trkpt lat="40.689400" lon="-4.677217">
        <ele>2357.0</ele>
        <time>2014-06-30T14:26:53Z</time>
      </trkpt>
      <trkpt lat="40.689333" lon="-4.677267">
        <ele>2358.0</ele>
        <time>2014-06-30T14:26:54Z</time>
      </trkpt>
      <trkpt lat="40.689267" lon="-4.677317">
        <ele>2359.0</ele>
        <time>2014-06-30T14:26:55Z</time>
      </trkpt>
      <trkpt lat="40.689200" lon="-4.677350">
        <ele>2359.0</ele>
        <time>2014-06-30T14:26:56Z</time>
      </trkpt>
      <trkpt lat="40.689100" lon="-4.677350">
        <ele>2357.0</ele>
        <time>2014-06-30T14:26:57Z</time>
      </trkpt>
      <trkpt lat="40.689000" lon="-4.677317">
        <ele>2356.0</ele>
        <time>2014-06-30T14:26:58Z</time>
      </trkpt>
      <trkpt lat="40.688917" lon="-4.677250">
        <ele>2356.0</ele>
        <time>2014-06-30T14:26:59Z</time>
      </trkpt>
      <trkpt lat="40.688833" lon="-4.677150">
        <ele>2355.0</ele>
        <time>2014-06-30T14:27:00Z</time>
      </trkpt>
      <trkpt lat="40.688767" lon="-4.677050">
        <ele>2355.0</ele>
        <time>2014-06-30T14:27:01Z</time>
      </trkpt>
      <trkpt lat="40.688683" lon="-4.676967">
        <ele>2357.0</ele>
        <time>2014-06-30T14:27:02Z</time>
      </trkpt>
      <trkpt lat="40.688600" lon="-4.676900">
        <ele>2358.0</ele>
        <time>2014-06-30T14:27:03Z</time>
      </trkpt>
      <trkpt lat="40.688500" lon="-4.676833">
        <ele>2359.0</ele>
        <time>2014-06-30T14:27:04Z</time>
      </trkpt>
      <trkpt lat="40.688450" lon="-4.676733">
        <ele>2359.0</ele>
        <time>2014-06-30T14:27:05Z</time>
      </trkpt>
      <trkpt lat="40.688383" lon="-4.676650">
        <ele>2359.0</ele>
        <time>2014-06-30T14:27:06Z</time>
      </trkpt>
      <trkpt lat="40.688317" lon="-4.676533">
        <ele>2358.0</ele>
        <time>2014-06-30T14:27:07Z</time>
      </trkpt>
      <trkpt lat="40.688250" lon="-4.676400">
        <ele>2358.0</ele>
        <time>2014-06-30T14:27:08Z</time>
      </trkpt>
      <trkpt lat="40.688183" lon="-4.676233">
        <ele>2357.0</ele>
        <time>2014-06-30T14:27:09Z</time>
      </trkpt>
      <trkpt lat="40.688150" lon="-4.676083">
        <ele>2357.0</ele>
        <time>2014-06-30T14:27:10Z</time>
      </trkpt>
      <trkpt lat="40.688150" lon="-4.675933">
        <ele>2358.0</ele>
        <time>2014-06-30T14:27:11Z</time>
      </trkpt>
      <trkpt lat="40.688150" lon="-4.675800">
        <ele>2359.0</ele>
        <time>2014-06-30T14:27:12Z</time>
      </trkpt>
      <trkpt lat="40.688150" lon="-4.675700">
        <ele>2361.0</ele>
        <time>2014-06-30T14:27:13Z</time>
      </trkpt>
      <trkpt lat="40.688133" lon="-4.675617">
        <ele>2364.0</ele>
        <time>2014-06-30T14:27:14Z</time>
      </trkpt>
      <trkpt lat="40.688150" lon="-4.675567">
        <ele>2362.0</ele>
        <time>2014-06-30T14:27:15Z</time>
      </trkpt>
      <trkpt lat="40.688167" lon="-4.675467">
        <ele>2362.0</ele>
        <time>2014-06-30T14:27:16Z</time>
      </trkpt>
      <trkpt lat="40.688200" lon="-4.675350">
        <ele>2362.0</ele>
        <time>2014-06-30T14:27:17Z</time>
      </trkpt>
      <trkpt lat="40.688267" lon="-4.675250">
        <ele>2363.0</ele>
        <time>2014-06-30T14:27:18Z</time>
      </trkpt>
      <trkpt lat="40.688350" lon="-4.675183">
        <ele>2364.0</ele>
        <time>2014-06-30T14:27:19Z</time>
      </trkpt>
      <trkpt lat="40.688450" lon="-4.675167">
        <ele>2365.0</ele>
        <time>2014-06-30T14:27:20Z</time>
      </trkpt>
      <trkpt lat="40.688533" lon="-4.675200">
        <ele>2365.0</ele>
        <time>2014-06-30T14:27:21Z</time>
      </trkpt>
      <trkpt lat="40.688617" lon="-4.675267">
        <ele>2365.0</ele>
        <time>2014-06-30T14:27:22Z</time>
      </trkpt>
      <trkpt lat="40.688667" lon="-4.675333">
        <ele>2365.0</ele>
        <time>2014-06-30T14:27:23Z</time>
      </trkpt>
      <trkpt lat="40.688717" lon="-4.675433">
        <ele>2366.0</ele>
        <time>2014-06-30T14:27:24Z</time>
      </trkpt>
      <trkpt lat="40.688733" lon="-4.675517">
        <ele>2368.0</ele>
        <time>2014-06-30T14:27:25Z</time>
      </trkpt>
      <trkpt lat="40.688717" lon="-4.675600">
        <ele>2370.0</ele>
        <time>2014-06-30T14:27:26Z</time>
      </trkpt>
      <trkpt lat="40.688717" lon="-4.675650">
        <ele>2369.0</ele>
        <time>2014-06-30T14:27:27Z</time>
      </trkpt>
      <trkpt lat="40.688683" lon="-4.675750">
        <ele>2369.0</ele>
        <time>2014-06-30T14:27:28Z</time>
      </trkpt>
      <trkpt lat="40.688650" lon="-4.675833">
        <ele>2369.0</ele>
        <time>2014-06-30T14:27:29Z</time>
      </trkpt>
      <trkpt lat="40.688583" lon="-4.675933">
        <ele>2369.0</ele>
        <time>2014-06-30T14:27:30Z</time>
      </trkpt>
      <trkpt lat="40.688517" lon="-4.676033">
        <ele>2370.0</ele>
        <time>2014-06-30T14:27:31Z</time>
      </trkpt>
      <trkpt lat="40.688433" lon="-4.676100">
        <ele>2370.0</ele>
        <time>2014-06-30T14:27:32Z</time>
      </trkpt>
      <trkpt lat="40.688333" lon="-4.676150">
        <ele>2370.0</ele>
        <time>2014-06-30T14:27:33Z</time>
      </trkpt>
      <trkpt lat="40.688233" lon="-4.676150">
        <ele>2370.0</ele>
        <time>2014-06-30T14:27:34Z</time>
      </trkpt>
      <trkpt lat="40.688100" lon="-4.676117">
        <ele>2369.0</ele>
        <time>2014-06-30T14:27:35Z</time>
      </trkpt>
      <trkpt lat="40.688033" lon="-4.676067">
        <ele>2368.0</ele>
        <time>2014-06-30T14:27:36Z</time>
      </trkpt>
      <trkpt lat="40.687950" lon="-4.676067">
        <ele>2367.0</ele>
        <time>2014-06-30T14:27:37Z</time>
      </trkpt>
      <trkpt lat="40.687850" lon="-4.676083">
        <ele>2363.0</ele>
        <time>2014-06-30T14:27:38Z</time>
      </trkpt>
      <trkpt lat="40.687783" lon="-4.676150">
        <ele>2365.0</ele>
        <time>2014-06-30T14:27:39Z</time>
      </trkpt>
      <trkpt lat="40.687717" lon="-4.676217">
        <ele>2364.0</ele>
        <time>2014-06-30T14:27:40Z</time>
      </trkpt>
      <trkpt lat="40.687683" lon="-4.676283">
        <ele>2363.0</ele>
        <time>2014-06-30T14:27:41Z</time>
      </trkpt>
      <trkpt lat="40.687650" lon="-4.676350">
        <ele>2363.0</ele>
        <time>2014-06-30T14:27:42Z</time>
      </trkpt>
      <trkpt lat="40.687617" lon="-4.676417">
        <ele>2362.0</ele>
        <time>2014-06-30T14:27:43Z</time>
      </trkpt>
      <trkpt lat="40.687567" lon="-4.676500">
        <ele>2362.0</ele>
        <time>2014-06-30T14:27:44Z</time>
      </trkpt>
      <trkpt lat="40.687517" lon="-4.676567">
        <ele>2362.0</ele>
        <time>2014-06-30T14:27:45Z</time>
      </trkpt>
      <trkpt lat="40.687467" lon="-4.676650">
        <ele>2361.0</ele>
        <time>2014-06-30T14:27:46Z</time>
      </trkpt>
      <trkpt lat="40.687417" lon="-4.676717">
        <ele>2360.0</ele>
        <time>2014-06-30T14:27:47Z</time>
      </trkpt>
      <trkpt lat="40.687367" lon="-4.676767">
        <ele>2359.0</ele>
        <time>2014-06-30T14:27:48Z</time>
      </trkpt>
      <trkpt lat="40.687300" lon="-4.676817">
        <ele>2358.0</ele>
        <time>2014-06-30T14:27:49Z</time>
      </trkpt>
      <trkpt lat="40.687233" lon="-4.676833">
        <ele>2357.0</ele>
        <time>2014-06-30T14:27:50Z</time>
      </trkpt>
      <trkpt lat="40.687150" lon="-4.676833">
        <ele>2355.0</ele>
        <time>2014-06-30T14:27:51Z</time>
      </trkpt>
      <trkpt lat="40.687067" lon="-4.676833">
        <ele>2354.0</ele>
        <time>2014-06-30T14:27:52Z</time>
      </trkpt>
      <trkpt lat="40.687000" lon="-4.676850">
        <ele>2352.0</ele>
        <time>2014-06-30T14:27:53Z</time>
      </trkpt>
      <trkpt lat="40.686950" lon="-4.676883">
        <ele>2350.0</ele>
        <time>2014-06-30T14:27:54Z</time>
      </trkpt>
      <trkpt lat="40.686900" lon="-4.676950">
        <ele>2346.0</ele>
        <time>2014-06-30T14:27:55Z</time>
      </trkpt>
      <trkpt lat="40.686817" lon="-4.677000">
        <ele>2342.0</ele>
        <time>2014-06-30T14:27:56Z</time>
      </trkpt>
      <trkpt lat="40.686733" lon="-4.677050">
        <ele>2339.0</ele>
        <time>2014-06-30T14:27:57Z</time>
      </trkpt>
      <trkpt lat="40.686633" lon="-4.677033">
        <ele>2336.0</ele>
        <time>2014-06-30T14:27:58Z</time>
      </trkpt>
      <trkpt lat="40.686550" lon="-4.677000">
        <ele>2335.0</ele>
        <time>2014-06-30T14:27:59Z</time>
      </trkpt>
      <trkpt lat="40.686467" lon="-4.676917">
        <ele>2333.0</ele>
        <time>2014-06-30T14:28:00Z</time>
      </trkpt>
      <trkpt lat="40.686417" lon="-4.676817">
        <ele>2331.0</ele>
        <time>2014-06-30T14:28:01Z</time>
      </trkpt>
      <trkpt lat="40.686367" lon="-4.676683">
        <ele>2333.0</ele>
        <time>2014-06-30T14:28:02Z</time>
      </trkpt>
      <trkpt lat="40.686350" lon="-4.676567">
        <ele>2332.0</ele>
        <time>2014-06-30T14:28:03Z</time>
      </trkpt>
      <trkpt lat="40.686333" lon="-4.676450">
        <ele>2331.0</ele>
        <time>2014-06-30T14:28:04Z</time>
      </trkpt>
      <trkpt lat="40.686317" lon="-4.676317">
        <ele>2331.0</ele>
        <time>2014-06-30T14:28:05Z</time>
      </trkpt>
      <trkpt lat="40.686317" lon="-4.676217">
        <ele>2331.0</ele>
        <time>2014-06-30T14:28:06Z</time>
      </trkpt>
      <trkpt lat="40.686300" lon="-4.676100">
        <ele>2330.0</ele>
        <time>2014-06-30T14:28:07Z</time>
      </trkpt>
      <trkpt lat="40.686300" lon="-4.675983">
        <ele>2330.0</ele>
        <time>2014-06-30T14:28:08Z</time>
      </trkpt>
      <trkpt lat="40.686333" lon="-4.675883">
        <ele>2330.0</ele>
        <time>2014-06-30T14:28:09Z</time>
      </trkpt>
      <trkpt lat="40.686350" lon="-4.675767">
        <ele>2329.0</ele>
        <time>2014-06-30T14:28:10Z</time>
      </trkpt>
      <trkpt lat="40.686350" lon="-4.675650">
        <ele>2328.0</ele>
        <time>2014-06-30T14:28:11Z</time>
      </trkpt>
      <trkpt lat="40.686350" lon="-4.675533">
        <ele>2327.0</ele>
        <time>2014-06-30T14:28:12Z</time>
      </trkpt>
      <trkpt lat="40.686350" lon="-4.675400">
        <ele>2326.0</ele>
        <time>2014-06-30T14:28:13Z</time>
      </trkpt>
      <trkpt lat="40.686367" lon="-4.675283">
        <ele>2326.0</ele>
        <time>2014-06-30T14:28:14Z</time>
      </trkpt>
      <trkpt lat="40.686367" lon="-4.675150">
        <ele>2324.0</ele>
        <time>2014-06-30T14:28:15Z</time>
      </trkpt>
      <trkpt lat="40.686367" lon="-4.675000">
        <ele>2323.0</ele>
        <time>2014-06-30T14:28:16Z</time>
      </trkpt>
      <trkpt lat="40.686383" lon="-4.674850">
        <ele>2321.0</ele>
        <time>2014-06-30T14:28:17Z</time>
      </trkpt>
      <trkpt lat="40.686383" lon="-4.674733">
        <ele>2320.0</ele>
        <time>2014-06-30T14:28:18Z</time>
      </trkpt>
      <trkpt lat="40.686383" lon="-4.674617">
        <ele>2320.0</ele>
        <time>2014-06-30T14:28:19Z</time>
      </trkpt>
      <trkpt lat="40.686367" lon="-4.674517">
        <ele>2319.0</ele>
        <time>2014-06-30T14:28:20Z</time>
      </trkpt>
      <trkpt lat="40.686350" lon="-4.674417">
        <ele>2319.0</ele>
        <time>2014-06-30T14:28:21Z</time>
      </trkpt>
      <trkpt lat="40.686333" lon="-4.674333">
        <ele>2321.0</ele>
        <time>2014-06-30T14:28:22Z</time>
      </trkpt>
      <trkpt lat="40.686333" lon="-4.674250">
        <ele>2320.0</ele>
        <time>2014-06-30T14:28:23Z</time>
      </trkpt>
      <trkpt lat="40.686350" lon="-4.674167">
        <ele>2320.0</ele>
        <time>2014-06-30T14:28:24Z</time>
      </trkpt>
      <trkpt lat="40.686333" lon="-4.674067">
        <ele>2319.0</ele>
        <time>2014-06-30T14:28:25Z</time>
      </trkpt>
      <trkpt lat="40.686333" lon="-4.673967">
        <ele>2319.0</ele>
        <time>2014-06-30T14:28:26Z</time>
      </trkpt>
      <trkpt lat="40.686333" lon="-4.673850">
        <ele>2319.0</ele>
        <time>2014-06-30T14:28:27Z</time>
      </trkpt>
      <trkpt lat="40.686367" lon="-4.673750">
        <ele>2318.0</ele>
        <time>2014-06-30T14:28:28Z</time>
      </trkpt>
      <trkpt lat="40.686417" lon="-4.673650">
        <ele>2317.0</ele>
        <time>2014-06-30T14:28:29Z</time>
      </trkpt>
      <trkpt lat="40.686483" lon="-4.673567">
        <ele>2317.0</ele>
        <time>2014-06-30T14:28:30Z</time>
      </trkpt>
      <trkpt lat="40.686533" lon="-4.673483">
        <ele>2316.0</ele>
        <time>2014-06-30T14:28:31Z</time>
      </trkpt>
      <trkpt lat="40.686550" lon="-4.673400">
        <ele>2316.0</ele>
        <time>2014-06-30T14:28:32Z</time>
      </trkpt>
      <trkpt lat="40.686583" lon="-4.673300">
        <ele>2315.0</ele>
        <time>2014-06-30T14:28:33Z</time>
      </trkpt>
      <trkpt lat="40.686617" lon="-4.673183">
        <ele>2314.0</ele>
        <time>2014-06-30T14:28:34Z</time>
      </trkpt>
      <trkpt lat="40.686650" lon="-4.673033">
        <ele>2313.0</ele>
        <time>2014-06-30T14:28:35Z</time>
      </trkpt>
      <trkpt lat="40.686700" lon="-4.672900">
        <ele>2311.0</ele>
        <time>2014-06-30T14:28:36Z</time>
      </trkpt>
      <trkpt lat="40.686750" lon="-4.672750">
        <ele>2310.0</ele>
        <time>2014-06-30T14:28:37Z</time>
      </trkpt>
      <trkpt lat="40.686800" lon="-4.672600">
        <ele>2310.0</ele>
        <time>2014-06-30T14:28:38Z</time>
      </trkpt>
      <trkpt lat="40.686817" lon="-4.672483">
        <ele>2310.0</ele>
        <time>2014-06-30T14:28:39Z</time>
      </trkpt>
      <trkpt lat="40.686833" lon="-4.672400">
        <ele>2310.0</ele>
        <time>2014-06-30T14:28:40Z</time>
      </trkpt>
      <trkpt lat="40.686850" lon="-4.672300">
        <ele>2310.0</ele>
        <time>2014-06-30T14:28:41Z</time>
      </trkpt>
      <trkpt lat="40.686850" lon="-4.672200">
        <ele>2310.0</ele>
        <time>2014-06-30T14:28:42Z</time>
      </trkpt>
      <trkpt lat="40.686867" lon="-4.672083">
        <ele>2310.0</ele>
        <time>2014-06-30T14:28:43Z</time>
      </trkpt>
      <trkpt lat="40.686900" lon="-4.671950">
        <ele>2309.0</ele>
        <time>2014-06-30T14:28:44Z</time>
      </trkpt>
      <trkpt lat="40.686933" lon="-4.671833">
        <ele>2309.0</ele>
        <time>2014-06-30T14:28:45Z</time>
      </trkpt>
      <trkpt lat="40.686950" lon="-4.671733">
        <ele>2308.0</ele>
        <time>2014-06-30T14:28:46Z</time>
      </trkpt>
      <trkpt lat="40.686983" lon="-4.671617">
        <ele>2307.0</ele>
        <time>2014-06-30T14:28:47Z</time>
      </trkpt>
      <trkpt lat="40.687000" lon="-4.671500">
        <ele>2307.0</ele>
        <time>2014-06-30T14:28:48Z</time>
      </trkpt>
      <trkpt lat="40.687033" lon="-4.671367">
        <ele>2306.0</ele>
        <time>2014-06-30T14:28:49Z</time>
      </trkpt>
      <trkpt lat="40.687083" lon="-4.671233">
        <ele>2305.0</ele>
        <time>2014-06-30T14:28:50Z</time>
      </trkpt>
      <trkpt lat="40.687117" lon="-4.671100">
        <ele>2304.0</ele>
        <time>2014-06-30T14:28:51Z</time>
      </trkpt>
      <trkpt lat="40.687150" lon="-4.671000">
        <ele>2304.0</ele>
        <time>2014-06-30T14:28:52Z</time>
      </trkpt>
      <trkpt lat="40.687183" lon="-4.670883">
        <ele>2302.0</ele>
        <time>2014-06-30T14:28:53Z</time>
      </trkpt>
      <trkpt lat="40.687233" lon="-4.670783">
        <ele>2298.0</ele>
        <time>2014-06-30T14:28:54Z</time>
      </trkpt>
      <trkpt lat="40.687283" lon="-4.670667">
        <ele>2295.0</ele>
        <time>2014-06-30T14:28:55Z</time>
      </trkpt>
      <trkpt lat="40.687333" lon="-4.670550">
        <ele>2291.0</ele>
        <time>2014-06-30T14:28:56Z</time>
      </trkpt>
      <trkpt lat="40.687400" lon="-4.670450">
        <ele>2286.0</ele>
        <time>2014-06-30T14:28:57Z</time>
      </trkpt>
      <trkpt lat="40.687467" lon="-4.670350">
        <ele>2282.0</ele>
        <time>2014-06-30T14:28:58Z</time>
      </trkpt>
      <trkpt lat="40.687500" lon="-4.670233">
        <ele>2279.0</ele>
        <time>2014-06-30T14:28:59Z</time>
      </trkpt>
      <trkpt lat="40.687550" lon="-4.670133">
        <ele>2285.0</ele>
        <time>2014-06-30T14:29:00Z</time>
      </trkpt>
      <trkpt lat="40.687617" lon="-4.670033">
        <ele>2281.0</ele>
        <time>2014-06-30T14:29:01Z</time>
      </trkpt>
      <trkpt lat="40.687700" lon="-4.669933">
        <ele>2277.0</ele>
        <time>2014-06-30T14:29:02Z</time>
      </trkpt>
      <trkpt lat="40.687783" lon="-4.669817">
        <ele>2273.0</ele>
        <time>2014-06-30T14:29:03Z</time>
      </trkpt>
      <trkpt lat="40.687883" lon="-4.669733">
        <ele>2270.0</ele>
        <time>2014-06-30T14:29:04Z</time>
      </trkpt>
      <trkpt lat="40.687967" lon="-4.669650">
        <ele>2267.0</ele>
        <time>2014-06-30T14:29:05Z</time>
      </trkpt>
      <trkpt lat="40.688083" lon="-4.669600">
        <ele>2263.0</ele>
        <time>2014-06-30T14:29:06Z</time>
      </trkpt>
      <trkpt lat="40.688183" lon="-4.669533">
        <ele>2259.0</ele>
        <time>2014-06-30T14:29:07Z</time>
      </trkpt>
      <trkpt lat="40.688283" lon="-4.669467">
        <ele>2255.0</ele>
        <time>2014-06-30T14:29:08Z</time>
      </trkpt>
      <trkpt lat="40.688367" lon="-4.669383">
        <ele>2252.0</ele>
        <time>2014-06-30T14:29:09Z</time>
      </trkpt>
      <trkpt lat="40.688483" lon="-4.669333">
        <ele>2248.0</ele>
        <time>2014-06-30T14:29:10Z</time>
      </trkpt>
      <trkpt lat="40.688583" lon="-4.669283">
        <ele>2244.0</ele>
        <time>2014-06-30T14:29:11Z</time>
      </trkpt>
      <trkpt lat="40.688700" lon="-4.669200">
        <ele>2239.0</ele>
        <time>2014-06-30T14:29:12Z</time>
      </trkpt>
      <trkpt lat="40.688800" lon="-4.669117">
        <ele>2235.0</ele>
        <time>2014-06-30T14:29:13Z</time>
      </trkpt>
      <trkpt lat="40.688900" lon="-4.669033">
        <ele>2231.0</ele>
        <time>2014-06-30T14:29:14Z</time>
      </trkpt>
      <trkpt lat="40.689000" lon="-4.668950">
        <ele>2227.0</ele>
        <time>2014-06-30T14:29:15Z</time>
      </trkpt>
      <trkpt lat="40.689100" lon="-4.668867">
        <ele>2223.0</ele>
        <time>2014-06-30T14:29:16Z</time>
      </trkpt>
      <trkpt lat="40.689200" lon="-4.668767">
        <ele>2219.0</ele>
        <time>2014-06-30T14:29:17Z</time>
      </trkpt>
      <trkpt lat="40.689283" lon="-4.668650">
        <ele>2216.0</ele>
        <time>2014-06-30T14:29:18Z</time>
      </trkpt>
      <trkpt lat="40.689367" lon="-4.668533">
        <ele>2214.0</ele>
        <time>2014-06-30T14:29:19Z</time>
      </trkpt>
      <trkpt lat="40.689433" lon="-4.668450">
        <ele>2212.0</ele>
        <time>2014-06-30T14:29:20Z</time>
      </trkpt>
      <trkpt lat="40.689517" lon="-4.668367">
        <ele>2209.0</ele>
        <time>2014-06-30T14:29:21Z</time>
      </trkpt>
      <trkpt lat="40.689600" lon="-4.668283">
        <ele>2206.0</ele>
        <time>2014-06-30T14:29:22Z</time>
      </trkpt>
      <trkpt lat="40.689667" lon="-4.668167">
        <ele>2203.0</ele>
        <time>2014-06-30T14:29:23Z</time>
      </trkpt>
      <trkpt lat="40.689750" lon="-4.668033">
        <ele>2200.0</ele>
        <time>2014-06-30T14:29:24Z</time>
      </trkpt>
      <trkpt lat="40.689833" lon="-4.667900">
        <ele>2197.0</ele>
        <time>2014-06-30T14:29:25Z</time>
      </trkpt>
      <trkpt lat="40.689917" lon="-4.667783">
        <ele>2194.0</ele>
        <time>2014-06-30T14:29:26Z</time>
      </trkpt>
      <trkpt lat="40.690000" lon="-4.667667">
        <ele>2192.0</ele>
        <time>2014-06-30T14:29:27Z</time>
      </trkpt>
      <trkpt lat="40.690083" lon="-4.667550">
        <ele>2191.0</ele>
        <time>2014-06-30T14:29:28Z</time>
      </trkpt>
      <trkpt lat="40.690133" lon="-4.667433">
        <ele>2189.0</ele>
        <time>2014-06-30T14:29:29Z</time>
      </trkpt>
      <trkpt lat="40.690200" lon="-4.667333">
        <ele>2187.0</ele>
        <time>2014-06-30T14:29:30Z</time>
      </trkpt>
      <trkpt lat="40.690267" lon="-4.667233">
        <ele>2184.0</ele>
        <time>2014-06-30T14:29:31Z</time>
      </trkpt>
      <trkpt lat="40.690333" lon="-4.667117">
        <ele>2182.0</ele>
        <time>2014-06-30T14:29:32Z</time>
      </trkpt>
      <trkpt lat="40.690400" lon="-4.667000">
        <ele>2180.0</ele>
        <time>2014-06-30T14:29:33Z</time>
      </trkpt>
      <trkpt lat="40.690467" lon="-4.666867">
        <ele>2178.0</ele>
        <time>2014-06-30T14:29:34Z</time>
      </trkpt>
      <trkpt lat="40.690533" lon="-4.666750">
        <ele>2176.0</ele>
        <time>2014-06-30T14:29:35Z</time>
      </trkpt>
      <trkpt lat="40.690600" lon="-4.666650">
        <ele>2174.0</ele>
        <time>2014-06-30T14:29:36Z</time>
      </trkpt>
      <trkpt lat="40.690667" lon="-4.666533">
        <ele>2172.0</ele>
        <time>2014-06-30T14:29:37Z</time>
      </trkpt>
      <trkpt lat="40.690733" lon="-4.666400">
        <ele>2169.0</ele>
        <time>2014-06-30T14:29:38Z</time>
      </trkpt>
      <trkpt lat="40.690800" lon="-4.666267">
        <ele>2167.0</ele>
        <time>2014-06-30T14:29:39Z</time>
      </trkpt>
      <trkpt lat="40.690867" lon="-4.666117">
        <ele>2165.0</ele>
        <time>2014-06-30T14:29:40Z</time>
      </trkpt>
      <trkpt lat="40.690933" lon="-4.665983">
        <ele>2163.0</ele>
        <time>2014-06-30T14:29:41Z</time>
      </trkpt>
      <trkpt lat="40.690983" lon="-4.665867">
        <ele>2161.0</ele>
        <time>2014-06-30T14:29:42Z</time>
      </trkpt>
      <trkpt lat="40.691050" lon="-4.665733">
        <ele>2158.0</ele>
        <time>2014-06-30T14:29:43Z</time>
      </trkpt>
      <trkpt lat="40.691117" lon="-4.665583">
        <ele>2156.0</ele>
        <time>2014-06-30T14:29:44Z</time>
      </trkpt>
      <trkpt lat="40.691167" lon="-4.665450">
        <ele>2154.0</ele>
        <time>2014-06-30T14:29:45Z</time>
      </trkpt>
      <trkpt lat="40.691233" lon="-4.665317">
        <ele>2152.0</ele>
        <time>2014-06-30T14:29:46Z</time>
      </trkpt>
      <trkpt lat="40.691283" lon="-4.665200">
        <ele>2150.0</ele>
        <time>2014-06-30T14:29:47Z</time>
      </trkpt>
      <trkpt lat="40.691350" lon="-4.665100">
        <ele>2147.0</ele>
        <time>2014-06-30T14:29:48Z</time>
      </trkpt>
      <trkpt lat="40.691417" lon="-4.665000">
        <ele>2145.0</ele>
        <time>2014-06-30T14:29:49Z</time>
      </trkpt>
      <trkpt lat="40.691500" lon="-4.664900">
        <ele>2142.0</ele>
        <time>2014-06-30T14:29:50Z</time>
      </trkpt>
      <trkpt lat="40.691583" lon="-4.664800">
        <ele>2141.0</ele>
        <time>2014-06-30T14:29:51Z</time>
      </trkpt>
      <trkpt lat="40.691667" lon="-4.664683">
        <ele>2142.0</ele>
        <time>2014-06-30T14:29:52Z</time>
      </trkpt>
      <trkpt lat="40.691733" lon="-4.664533">
        <ele>2142.0</ele>
        <time>2014-06-30T14:29:53Z</time>
      </trkpt>
      <trkpt lat="40.691767" lon="-4.664383">
        <ele>2143.0</ele>
        <time>2014-06-30T14:29:54Z</time>
      </trkpt>
      <trkpt lat="40.691783" lon="-4.664250">
        <ele>2145.0</ele>
        <time>2014-06-30T14:29:55Z</time>
      </trkpt>
      <trkpt lat="40.691800" lon="-4.664150">
        <ele>2145.0</ele>
        <time>2014-06-30T14:29:56Z</time>
      </trkpt>
      <trkpt lat="40.691817" lon="-4.664067">
        <ele>2145.0</ele>
        <time>2014-06-30T14:29:57Z</time>
      </trkpt>
      <trkpt lat="40.691817" lon="-4.663967">
        <ele>2146.0</ele>
        <time>2014-06-30T14:29:58Z</time>
      </trkpt>
      <trkpt lat="40.691817" lon="-4.663867">
        <ele>2146.0</ele>
        <time>2014-06-30T14:29:59Z</time>
      </trkpt>
      <trkpt lat="40.691850" lon="-4.663767">
        <ele>2147.0</ele>
        <time>2014-06-30T14:30:00Z</time>
      </trkpt>
      <trkpt lat="40.691867" lon="-4.663700">
        <ele>2149.0</ele>
        <time>2014-06-30T14:30:01Z</time>
      </trkpt>
      <trkpt lat="40.691900" lon="-4.663667">
        <ele>2149.0</ele>
        <time>2014-06-30T14:30:02Z</time>
      </trkpt>
      <trkpt lat="40.691917" lon="-4.663683">
        <ele>2149.0</ele>
        <time>2014-06-30T14:30:03Z</time>
      </trkpt>
      <trkpt lat="40.691950" lon="-4.663717">
        <ele>2150.0</ele>
        <time>2014-06-30T14:30:04Z</time>
      </trkpt>
      <trkpt lat="40.691950" lon="-4.663767">
        <ele>2151.0</ele>
        <time>2014-06-30T14:30:05Z</time>
      </trkpt>
      <trkpt lat="40.691933" lon="-4.663817">
        <ele>2151.0</ele>
        <time>2014-06-30T14:30:06Z</time>
      </trkpt>
      <trkpt lat="40.691883" lon="-4.663850">
        <ele>2151.0</ele>
        <time>2014-06-30T14:30:07Z</time>
      </trkpt>
      <trkpt lat="40.691800" lon="-4.663867">
        <ele>2152.0</ele>
        <time>2014-06-30T14:30:08Z</time>
      </trkpt>
      <trkpt lat="40.691700" lon="-4.663867">
        <ele>2153.0</ele>
        <time>2014-06-30T14:30:09Z</time>
      </trkpt>
      <trkpt lat="40.691600" lon="-4.663850">
        <ele>2153.0</ele>
        <time>2014-06-30T14:30:10Z</time>
      </trkpt>
      <trkpt lat="40.691533" lon="-4.663783">
        <ele>2154.0</ele>
        <time>2014-06-30T14:30:11Z</time>
      </trkpt>
      <trkpt lat="40.691450" lon="-4.663700">
        <ele>2155.0</ele>
        <time>2014-06-30T14:30:12Z</time>
      </trkpt>
      <trkpt lat="40.691400" lon="-4.663600">
        <ele>2156.0</ele>
        <time>2014-06-30T14:30:13Z</time>
      </trkpt>
      <trkpt lat="40.691350" lon="-4.663483">
        <ele>2157.0</ele>
        <time>2014-06-30T14:30:14Z</time>
      </trkpt>
      <trkpt lat="40.691317" lon="-4.663350">
        <ele>2157.0</ele>
        <time>2014-06-30T14:30:15Z</time>
      </trkpt>
      <trkpt lat="40.691300" lon="-4.663217">
        <ele>2158.0</ele>
        <time>2014-06-30T14:30:16Z</time>
      </trkpt>
      <trkpt lat="40.691267" lon="-4.663067">
        <ele>2160.0</ele>
        <time>2014-06-30T14:30:17Z</time>
      </trkpt>
      <trkpt lat="40.691250" lon="-4.662900">
        <ele>2161.0</ele>
        <time>2014-06-30T14:30:18Z</time>
      </trkpt>
      <trkpt lat="40.691233" lon="-4.662767">
        <ele>2163.0</ele>
        <time>2014-06-30T14:30:19Z</time>
      </trkpt>
      <trkpt lat="40.691200" lon="-4.662617">
        <ele>2165.0</ele>
        <time>2014-06-30T14:30:20Z</time>
      </trkpt>
      <trkpt lat="40.691183" lon="-4.662483">
        <ele>2166.0</ele>
        <time>2014-06-30T14:30:21Z</time>
      </trkpt>
      <trkpt lat="40.691167" lon="-4.662367">
        <ele>2168.0</ele>
        <time>2014-06-30T14:30:22Z</time>
      </trkpt>
      <trkpt lat="40.691150" lon="-4.662250">
        <ele>2170.0</ele>
        <time>2014-06-30T14:30:23Z</time>
      </trkpt>
      <trkpt lat="40.691133" lon="-4.662133">
        <ele>2171.0</ele>
        <time>2014-06-30T14:30:24Z</time>
      </trkpt>
      <trkpt lat="40.691167" lon="-4.662017">
        <ele>2171.0</ele>
        <time>2014-06-30T14:30:25Z</time>
      </trkpt>
      <trkpt lat="40.691200" lon="-4.661933">
        <ele>2172.0</ele>
        <time>2014-06-30T14:30:26Z</time>
      </trkpt>
      <trkpt lat="40.691267" lon="-4.661850">
        <ele>2171.0</ele>
        <time>2014-06-30T14:30:27Z</time>
      </trkpt>
      <trkpt lat="40.691333" lon="-4.661817">
        <ele>2172.0</ele>
        <time>2014-06-30T14:30:28Z</time>
      </trkpt>
      <trkpt lat="40.691383" lon="-4.661783">
        <ele>2173.0</ele>
        <time>2014-06-30T14:30:29Z</time>
      </trkpt>
      <trkpt lat="40.691433" lon="-4.661783">
        <ele>2173.0</ele>
        <time>2014-06-30T14:30:30Z</time>
      </trkpt>
      <trkpt lat="40.691467" lon="-4.661783">
        <ele>2174.0</ele>
        <time>2014-06-30T14:30:31Z</time>
      </trkpt>
      <trkpt lat="40.691500" lon="-4.661800">
        <ele>2175.0</ele>
        <time>2014-06-30T14:30:32Z</time>
      </trkpt>
      <trkpt lat="40.691567" lon="-4.661800">
        <ele>2176.0</ele>
        <time>2014-06-30T14:30:33Z</time>
      </trkpt>
      <trkpt lat="40.691617" lon="-4.661817">
        <ele>2176.0</ele>
        <time>2014-06-30T14:30:34Z</time>
      </trkpt>
      <trkpt lat="40.691683" lon="-4.661833">
        <ele>2178.0</ele>
        <time>2014-06-30T14:30:35Z</time>
      </trkpt>
      <trkpt lat="40.691733" lon="-4.661850">
        <ele>2179.0</ele>
        <time>2014-06-30T14:30:36Z</time>
      </trkpt>
      <trkpt lat="40.691783" lon="-4.661883">
        <ele>2179.0</ele>
        <time>2014-06-30T14:30:37Z</time>
      </trkpt>
      <trkpt lat="40.691800" lon="-4.661917">
        <ele>2180.0</ele>
        <time>2014-06-30T14:30:38Z</time>
      </trkpt>
      <trkpt lat="40.691817" lon="-4.661933">
        <ele>2180.0</ele>
        <time>2014-06-30T14:30:39Z</time>
      </trkpt>
      <trkpt lat="40.691850" lon="-4.661967">
        <ele>2181.0</ele>
        <time>2014-06-30T14:30:40Z</time>
      </trkpt>
      <trkpt lat="40.691867" lon="-4.661983">
        <ele>2182.0</ele>
        <time>2014-06-30T14:30:41Z</time>
      </trkpt>
      <trkpt lat="40.691883" lon="-4.662017">
        <ele>2182.0</ele>
        <time>2014-06-30T14:30:42Z</time>
      </trkpt>
      <trkpt lat="40.691917" lon="-4.662050">
        <ele>2183.0</ele>
        <time>2014-06-30T14:30:43Z</time>
      </trkpt>
      <trkpt lat="40.691917" lon="-4.662083">
        <ele>2184.0</ele>
        <time>2014-06-30T14:30:44Z</time>
      </trkpt>
      <trkpt lat="40.691933" lon="-4.662150">
        <ele>2184.0</ele>
        <time>2014-06-30T14:30:45Z</time>
      </trkpt>
      <trkpt lat="40.691917" lon="-4.662200">
        <ele>2186.0</ele>
        <time>2014-06-30T14:30:46Z</time>
      </trkpt>
      <trkpt lat="40.691917" lon="-4.662233">
        <ele>2186.0</ele>
        <time>2014-06-30T14:30:47Z</time>
      </trkpt>
      <trkpt lat="40.691900" lon="-4.662267">
        <ele>2187.0</ele>
        <time>2014-06-30T14:30:48Z</time>
      </trkpt>
      <trkpt lat="40.691917" lon="-4.662283">
        <ele>2188.0</ele>
        <time>2014-06-30T14:30:49Z</time>
      </trkpt>
      <trkpt lat="40.691917" lon="-4.662333">
        <ele>2189.0</ele>
        <time>2014-06-30T14:30:50Z</time>
      </trkpt>
      <trkpt lat="40.691917" lon="-4.662367">
        <ele>2191.0</ele>
        <time>2014-06-30T14:30:51Z</time>
      </trkpt>
      <trkpt lat="40.691900" lon="-4.662417">
        <ele>2192.0</ele>
        <time>2014-06-30T14:30:52Z</time>
      </trkpt>
      <trkpt lat="40.691883" lon="-4.662450">
        <ele>2192.0</ele>
        <time>2014-06-30T14:30:53Z</time>
      </trkpt>
      <trkpt lat="40.691833" lon="-4.662467">
        <ele>2192.0</ele>
        <time>2014-06-30T14:30:54Z</time>
      </trkpt>
      <trkpt lat="40.691783" lon="-4.662500">
        <ele>2193.0</ele>
        <time>2014-06-30T14:30:55Z</time>
      </trkpt>
      <trkpt lat="40.691717" lon="-4.662533">
        <ele>2194.0</ele>
        <time>2014-06-30T14:30:56Z</time>
      </trkpt>
      <trkpt lat="40.691617" lon="-4.662567">
        <ele>2195.0</ele>
        <time>2014-06-30T14:30:57Z</time>
      </trkpt>
      <trkpt lat="40.691500" lon="-4.662617">
        <ele>2197.0</ele>
        <time>2014-06-30T14:30:58Z</time>
      </trkpt>
      <trkpt lat="40.691400" lon="-4.662633">
        <ele>2200.0</ele>
        <time>2014-06-30T14:30:59Z</time>
      </trkpt>
      <trkpt lat="40.691317" lon="-4.662683">
        <ele>2203.0</ele>
        <time>2014-06-30T14:31:00Z</time>
      </trkpt>
      <trkpt lat="40.691267" lon="-4.662700">
        <ele>2208.0</ele>
        <time>2014-06-30T14:31:01Z</time>
      </trkpt>
      <trkpt lat="40.691217" lon="-4.662700">
        <ele>2211.0</ele>
        <time>2014-06-30T14:31:02Z</time>
      </trkpt>
      <trkpt lat="40.691150" lon="-4.662667">
        <ele>2213.0</ele>
        <time>2014-06-30T14:31:03Z</time>
      </trkpt>
      <trkpt lat="40.691083" lon="-4.662617">
        <ele>2212.0</ele>
        <time>2014-06-30T14:31:04Z</time>
      </trkpt>
      <trkpt lat="40.691000" lon="-4.662517">
        <ele>2212.0</ele>
        <time>2014-06-30T14:31:05Z</time>
      </trkpt>
      <trkpt lat="40.690950" lon="-4.662400">
        <ele>2213.0</ele>
        <time>2014-06-30T14:31:06Z</time>
      </trkpt>
      <trkpt lat="40.690933" lon="-4.662283">
        <ele>2214.0</ele>
        <time>2014-06-30T14:31:07Z</time>
      </trkpt>
      <trkpt lat="40.690950" lon="-4.662150">
        <ele>2215.0</ele>
        <time>2014-06-30T14:31:08Z</time>
      </trkpt>
      <trkpt lat="40.690983" lon="-4.662033">
        <ele>2216.0</ele>
        <time>2014-06-30T14:31:09Z</time>
      </trkpt>
      <trkpt lat="40.691033" lon="-4.661967">
        <ele>2219.0</ele>
        <time>2014-06-30T14:31:10Z</time>
      </trkpt>
      <trkpt lat="40.691083" lon="-4.661933">
        <ele>2224.0</ele>
        <time>2014-06-30T14:31:11Z</time>
      </trkpt>
      <trkpt lat="40.691117" lon="-4.661917">
        <ele>2225.0</ele>
        <time>2014-06-30T14:31:12Z</time>
      </trkpt>
      <trkpt lat="40.691150" lon="-4.661933">
        <ele>2228.0</ele>
        <time>2014-06-30T14:31:13Z</time>
      </trkpt>
      <trkpt lat="40.691183" lon="-4.661933">
        <ele>2228.0</ele>
        <time>2014-06-30T14:31:14Z</time>
      </trkpt>
      <trkpt lat="40.691200" lon="-4.661967">
        <ele>2229.0</ele>
        <time>2014-06-30T14:31:15Z</time>
      </trkpt>
      <trkpt lat="40.691217" lon="-4.661967">
        <ele>2230.0</ele>
        <time>2014-06-30T14:31:16Z</time>
      </trkpt>
      <trkpt lat="40.691233" lon="-4.661933">
        <ele>2233.0</ele>
        <time>2014-06-30T14:31:17Z</time>
      </trkpt>
      <trkpt lat="40.691267" lon="-4.661900">
        <ele>2235.0</ele>
        <time>2014-06-30T14:31:18Z</time>
      </trkpt>
      <trkpt lat="40.691300" lon="-4.661867">
        <ele>2240.0</ele>
        <time>2014-06-30T14:31:19Z</time>
      </trkpt>
      <trkpt lat="40.691333" lon="-4.661900">
        <ele>2243.0</ele>
        <time>2014-06-30T14:31:20Z</time>
      </trkpt>
      <trkpt lat="40.691350" lon="-4.661950">
        <ele>2248.0</ele>
        <time>2014-06-30T14:31:21Z</time>
      </trkpt>
      <trkpt lat="40.691333" lon="-4.662000">
        <ele>2254.0</ele>
        <time>2014-06-30T14:31:22Z</time>
      </trkpt>
      <trkpt lat="40.691283" lon="-4.662050">
        <ele>2259.0</ele>
        <time>2014-06-30T14:31:23Z</time>
      </trkpt>
      <trkpt lat="40.691250" lon="-4.662083">
        <ele>2264.0</ele>
        <time>2014-06-30T14:31:24Z</time>
      </trkpt>
      <trkpt lat="40.691217" lon="-4.662067">
        <ele>2269.0</ele>
        <time>2014-06-30T14:31:25Z</time>
      </trkpt>
      <trkpt lat="40.691183" lon="-4.662050">
        <ele>2272.0</ele>
        <time>2014-06-30T14:31:26Z</time>
      </trkpt>
      <trkpt lat="40.691133" lon="-4.662033">
        <ele>2274.0</ele>
        <time>2014-06-30T14:31:27Z</time>
      </trkpt>
      <trkpt lat="40.691067" lon="-4.662000">
        <ele>2273.0</ele>
        <time>2014-06-30T14:31:28Z</time>
      </trkpt>
      <trkpt lat="40.691000" lon="-4.661950">
        <ele>2275.0</ele>
        <time>2014-06-30T14:31:29Z</time>
      </trkpt>
      <trkpt lat="40.690950" lon="-4.661867">
        <ele>2277.0</ele>
        <time>2014-06-30T14:31:30Z</time>
      </trkpt>
      <trkpt lat="40.690917" lon="-4.661783">
        <ele>2279.0</ele>
        <time>2014-06-30T14:31:31Z</time>
      </trkpt>
      <trkpt lat="40.690933" lon="-4.661683">
        <ele>2281.0</ele>
        <time>2014-06-30T14:31:32Z</time>
      </trkpt>
      <trkpt lat="40.690967" lon="-4.661600">
        <ele>2283.0</ele>
        <time>2014-06-30T14:31:33Z</time>
      </trkpt>
      <trkpt lat="40.691000" lon="-4.661517">
        <ele>2282.0</ele>
        <time>2014-06-30T14:31:34Z</time>
      </trkpt>
      <trkpt lat="40.691033" lon="-4.661417">
        <ele>2284.0</ele>
        <time>2014-06-30T14:31:35Z</time>
      </trkpt>
      <trkpt lat="40.691067" lon="-4.661333">
        <ele>2286.0</ele>
        <time>2014-06-30T14:31:36Z</time>
      </trkpt>
      <trkpt lat="40.691083" lon="-4.661200">
        <ele>2291.0</ele>
        <time>2014-06-30T14:31:37Z</time>
      </trkpt>
      <trkpt lat="40.691083" lon="-4.661083">
        <ele>2297.0</ele>
        <time>2014-06-30T14:31:38Z</time>
      </trkpt>
      <trkpt lat="40.691067" lon="-4.661000">
        <ele>2302.0</ele>
        <time>2014-06-30T14:31:39Z</time>
      </trkpt>
      <trkpt lat="40.691083" lon="-4.660933">
        <ele>2306.0</ele>
        <time>2014-06-30T14:31:40Z</time>
      </trkpt>
      <trkpt lat="40.691117" lon="-4.660883">
        <ele>2309.0</ele>
        <time>2014-06-30T14:31:41Z</time>
      </trkpt>
      <trkpt lat="40.691167" lon="-4.660850">
        <ele>2311.0</ele>
        <time>2014-06-30T14:31:42Z</time>
      </trkpt>
      <trkpt lat="40.691217" lon="-4.660817">
        <ele>2315.0</ele>
        <time>2014-06-30T14:31:43Z</time>
      </trkpt>
      <trkpt lat="40.691250" lon="-4.660800">
        <ele>2319.0</ele>
        <time>2014-06-30T14:31:44Z</time>
      </trkpt>
      <trkpt lat="40.691267" lon="-4.660833">
        <ele>2322.0</ele>
        <time>2014-06-30T14:31:45Z</time>
      </trkpt>
      <trkpt lat="40.691267" lon="-4.660883">
        <ele>2325.0</ele>
        <time>2014-06-30T14:31:46Z</time>
      </trkpt>
      <trkpt lat="40.691250" lon="-4.660967">
        <ele>2329.0</ele>
        <time>2014-06-30T14:31:47Z</time>
      </trkpt>
      <trkpt lat="40.691233" lon="-4.661017">
        <ele>2332.0</ele>
        <time>2014-06-30T14:31:48Z</time>
      </trkpt>
      <trkpt lat="40.691183" lon="-4.661067">
        <ele>2336.0</ele>
        <time>2014-06-30T14:31:49Z</time>
      </trkpt>
      <trkpt lat="40.691117" lon="-4.661100">
        <ele>2340.0</ele>
        <time>2014-06-30T14:31:50Z</time>
      </trkpt>
      <trkpt lat="40.691050" lon="-4.661133">
        <ele>2344.0</ele>
        <time>2014-06-30T14:31:51Z</time>
      </trkpt>
      <trkpt lat="40.690983" lon="-4.661150">
        <ele>2348.0</ele>
        <time>2014-06-30T14:31:52Z</time>
      </trkpt>
      <trkpt lat="40.690917" lon="-4.661183">
        <ele>2351.0</ele>
        <time>2014-06-30T14:31:53Z</time>
      </trkpt>
      <trkpt lat="40.690867" lon="-4.661167">
        <ele>2353.0</ele>
        <time>2014-06-30T14:31:54Z</time>
      </trkpt>
      <trkpt lat="40.690783" lon="-4.661100">
        <ele>2353.0</ele>
        <time>2014-06-30T14:31:55Z</time>
      </trkpt>
      <trkpt lat="40.690717" lon="-4.661017">
        <ele>2352.0</ele>
        <time>2014-06-30T14:31:56Z</time>
      </trkpt>
      <trkpt lat="40.690650" lon="-4.660933">
        <ele>2353.0</ele>
        <time>2014-06-30T14:31:57Z</time>
      </trkpt>
      <trkpt lat="40.690600" lon="-4.660833">
        <ele>2354.0</ele>
        <time>2014-06-30T14:31:58Z</time>
      </trkpt>
      <trkpt lat="40.690567" lon="-4.660767">
        <ele>2352.0</ele>
        <time>2014-06-30T14:31:59Z</time>
      </trkpt>
      <trkpt lat="40.690533" lon="-4.660700">
        <ele>2352.0</ele>
        <time>2014-06-30T14:32:00Z</time>
      </trkpt>
      <trkpt lat="40.690517" lon="-4.660617">
        <ele>2352.0</ele>
        <time>2014-06-30T14:32:01Z</time>
      </trkpt>
      <trkpt lat="40.690517" lon="-4.660533">
        <ele>2352.0</ele>
        <time>2014-06-30T14:32:02Z</time>
      </trkpt>
      <trkpt lat="40.690550" lon="-4.660433">
        <ele>2352.0</ele>
        <time>2014-06-30T14:32:03Z</time>
      </trkpt>
      <trkpt lat="40.690600" lon="-4.660350">
        <ele>2352.0</ele>
        <time>2014-06-30T14:32:04Z</time>
      </trkpt>
      <trkpt lat="40.690650" lon="-4.660250">
        <ele>2353.0</ele>
        <time>2014-06-30T14:32:05Z</time>
      </trkpt>
      <trkpt lat="40.690683" lon="-4.660183">
        <ele>2356.0</ele>
        <time>2014-06-30T14:32:06Z</time>
      </trkpt>
      <trkpt lat="40.690717" lon="-4.660117">
        <ele>2359.0</ele>
        <time>2014-06-30T14:32:07Z</time>
      </trkpt>
      <trkpt lat="40.690733" lon="-4.660033">
        <ele>2362.0</ele>
        <time>2014-06-30T14:32:08Z</time>
      </trkpt>
      <trkpt lat="40.690767" lon="-4.659950">
        <ele>2365.0</ele>
        <time>2014-06-30T14:32:09Z</time>
      </trkpt>
      <trkpt lat="40.690800" lon="-4.659900">
        <ele>2367.0</ele>
        <time>2014-06-30T14:32:10Z</time>
      </trkpt>
      <trkpt lat="40.690850" lon="-4.659883">
        <ele>2369.0</ele>
        <time>2014-06-30T14:32:11Z</time>
      </trkpt>
      <trkpt lat="40.690883" lon="-4.659917">
        <ele>2371.0</ele>
        <time>2014-06-30T14:32:12Z</time>
      </trkpt>
      <trkpt lat="40.690917" lon="-4.659967">
        <ele>2373.0</ele>
        <time>2014-06-30T14:32:13Z</time>
      </trkpt>
      <trkpt lat="40.690917" lon="-4.660033">
        <ele>2376.0</ele>
        <time>2014-06-30T14:32:14Z</time>
      </trkpt>
      <trkpt lat="40.690917" lon="-4.660100">
        <ele>2379.0</ele>
        <time>2014-06-30T14:32:15Z</time>
      </trkpt>
      <trkpt lat="40.690917" lon="-4.660167">
        <ele>2376.0</ele>
        <time>2014-06-30T14:32:16Z</time>
      </trkpt>
      <trkpt lat="40.690917" lon="-4.660233">
        <ele>2377.0</ele>
        <time>2014-06-30T14:32:17Z</time>
      </trkpt>
      <trkpt lat="40.690917" lon="-4.660300">
        <ele>2379.0</ele>
        <time>2014-06-30T14:32:18Z</time>
      </trkpt>
      <trkpt lat="40.690883" lon="-4.660383">
        <ele>2382.0</ele>
        <time>2014-06-30T14:32:19Z</time>
      </trkpt>
      <trkpt lat="40.690817" lon="-4.660467">
        <ele>2383.0</ele>
        <time>2014-06-30T14:32:20Z</time>
      </trkpt>
      <trkpt lat="40.690750" lon="-4.660550">
        <ele>2385.0</ele>
        <time>2014-06-30T14:32:21Z</time>
      </trkpt>
      <trkpt lat="40.690700" lon="-4.660600">
        <ele>2387.0</ele>
        <time>2014-06-30T14:32:22Z</time>
      </trkpt>
      <trkpt lat="40.690633" lon="-4.660617">
        <ele>2388.0</ele>
        <time>2014-06-30T14:32:23Z</time>
      </trkpt>
      <trkpt lat="40.690583" lon="-4.660617">
        <ele>2388.0</ele>
        <time>2014-06-30T14:32:24Z</time>
      </trkpt>
      <trkpt lat="40.690550" lon="-4.660583">
        <ele>2387.0</ele>
        <time>2014-06-30T14:32:25Z</time>
      </trkpt>
      <trkpt lat="40.690467" lon="-4.660533">
        <ele>2382.0</ele>
        <time>2014-06-30T14:32:26Z</time>
      </trkpt>
      <trkpt lat="40.690383" lon="-4.660450">
        <ele>2377.0</ele>
        <time>2014-06-30T14:32:27Z</time>
      </trkpt>
      <trkpt lat="40.690317" lon="-4.660350">
        <ele>2375.0</ele>
        <time>2014-06-30T14:32:28Z</time>
      </trkpt>
      <trkpt lat="40.690267" lon="-4.660233">
        <ele>2373.0</ele>
        <time>2014-06-30T14:32:29Z</time>
      </trkpt>
      <trkpt lat="40.690267" lon="-4.660117">
        <ele>2373.0</ele>
        <time>2014-06-30T14:32:30Z</time>
      </trkpt>
      <trkpt lat="40.690283" lon="-4.660000">
        <ele>2372.0</ele>
        <time>2014-06-30T14:32:31Z</time>
      </trkpt>
      <trkpt lat="40.690317" lon="-4.659917">
        <ele>2374.0</ele>
        <time>2014-06-30T14:32:32Z</time>
      </trkpt>
      <trkpt lat="40.690350" lon="-4.659817">
        <ele>2374.0</ele>
        <time>2014-06-30T14:32:33Z</time>
      </trkpt>
      <trkpt lat="40.690367" lon="-4.659733">
        <ele>2374.0</ele>
        <time>2014-06-30T14:32:34Z</time>
      </trkpt>
      <trkpt lat="40.690400" lon="-4.659650">
        <ele>2374.0</ele>
        <time>2014-06-30T14:32:35Z</time>
      </trkpt>
      <trkpt lat="40.690433" lon="-4.659583">
        <ele>2374.0</ele>
        <time>2014-06-30T14:32:36Z</time>
      </trkpt>
      <trkpt lat="40.690450" lon="-4.659483">
        <ele>2375.0</ele>
        <time>2014-06-30T14:32:37Z</time>
      </trkpt>
      <trkpt lat="40.690467" lon="-4.659383">
        <ele>2376.0</ele>
        <time>2014-06-30T14:32:38Z</time>
      </trkpt>
      <trkpt lat="40.690467" lon="-4.659283">
        <ele>2378.0</ele>
        <time>2014-06-30T14:32:39Z</time>
      </trkpt>
      <trkpt lat="40.690500" lon="-4.659217">
        <ele>2379.0</ele>
        <time>2014-06-30T14:32:40Z</time>
      </trkpt>
      <trkpt lat="40.690533" lon="-4.659167">
        <ele>2381.0</ele>
        <time>2014-06-30T14:32:41Z</time>
      </trkpt>
      <trkpt lat="40.690567" lon="-4.659117">
        <ele>2383.0</ele>
        <time>2014-06-30T14:32:42Z</time>
      </trkpt>
      <trkpt lat="40.690600" lon="-4.659100">
        <ele>2385.0</ele>
        <time>2014-06-30T14:32:43Z</time>
      </trkpt>
      <trkpt lat="40.690650" lon="-4.659067">
        <ele>2387.0</ele>
        <time>2014-06-30T14:32:44Z</time>
      </trkpt>
      <trkpt lat="40.690683" lon="-4.659050">
        <ele>2389.0</ele>
        <time>2014-06-30T14:32:45Z</time>
      </trkpt>
      <trkpt lat="40.690717" lon="-4.659017">
        <ele>2386.0</ele>
        <time>2014-06-30T14:32:46Z</time>
      </trkpt>
      <trkpt lat="40.690750" lon="-4.659000">
        <ele>2386.0</ele>
        <time>2014-06-30T14:32:47Z</time>
      </trkpt>
      <trkpt lat="40.690783" lon="-4.659000">
        <ele>2387.0</ele>
        <time>2014-06-30T14:32:48Z</time>
      </trkpt>
      <trkpt lat="40.690817" lon="-4.659000">
        <ele>2387.0</ele>
        <time>2014-06-30T14:32:49Z</time>
      </trkpt>
      <trkpt lat="40.690833" lon="-4.659017">
        <ele>2389.0</ele>
        <time>2014-06-30T14:32:50Z</time>
      </trkpt>
      <trkpt lat="40.690867" lon="-4.659033">
        <ele>2390.0</ele>
        <time>2014-06-30T14:32:51Z</time>
      </trkpt>
      <trkpt lat="40.690883" lon="-4.659067">
        <ele>2390.0</ele>
        <time>2014-06-30T14:32:52Z</time>
      </trkpt>
      <trkpt lat="40.690900" lon="-4.659117">
        <ele>2390.0</ele>
        <time>2014-06-30T14:32:53Z</time>
      </trkpt>
      <trkpt lat="40.690917" lon="-4.659150">
        <ele>2391.0</ele>
        <time>2014-06-30T14:32:54Z</time>
      </trkpt>
      <trkpt lat="40.690933" lon="-4.659200">
        <ele>2392.0</ele>
        <time>2014-06-30T14:32:55Z</time>
      </trkpt>
      <trkpt lat="40.690950" lon="-4.659233">
        <ele>2393.0</ele>
        <time>2014-06-30T14:32:56Z</time>
      </trkpt>
      <trkpt lat="40.690950" lon="-4.659267">
        <ele>2394.0</ele>
        <time>2014-06-30T14:32:57Z</time>
      </trkpt>
      <trkpt lat="40.690950" lon="-4.659300">
        <ele>2394.0</ele>
        <time>2014-06-30T14:32:58Z</time>
      </trkpt>
      <trkpt lat="40.690950" lon="-4.659333">
        <ele>2395.0</ele>
        <time>2014-06-30T14:32:59Z</time>
      </trkpt>
      <trkpt lat="40.690917" lon="-4.659367">
        <ele>2395.0</ele>
        <time>2014-06-30T14:33:00Z</time>
      </trkpt>
      <trkpt lat="40.690883" lon="-4.659400">
        <ele>2396.0</ele>
        <time>2014-06-30T14:33:01Z</time>
      </trkpt>
      <trkpt lat="40.690817" lon="-4.659383">
        <ele>2395.0</ele>
        <time>2014-06-30T14:33:02Z</time>
      </trkpt>
      <trkpt lat="40.690767" lon="-4.659333">
        <ele>2395.0</ele>
        <time>2014-06-30T14:33:03Z</time>
      </trkpt>
      <trkpt lat="40.690683" lon="-4.659267">
        <ele>2395.0</ele>
        <time>2014-06-30T14:33:04Z</time>
      </trkpt>
      <trkpt lat="40.690617" lon="-4.659200">
        <ele>2394.0</ele>
        <time>2014-06-30T14:33:05Z</time>
      </trkpt>
      <trkpt lat="40.690533" lon="-4.659117">
        <ele>2393.0</ele>
        <time>2014-06-30T14:33:06Z</time>
      </trkpt>
      <trkpt lat="40.690467" lon="-4.659017">
        <ele>2392.0</ele>
        <time>2014-06-30T14:33:07Z</time>
      </trkpt>
      <trkpt lat="40.690400" lon="-4.658917">
        <ele>2391.0</ele>
        <time>2014-06-30T14:33:08Z</time>
      </trkpt>
      <trkpt lat="40.690350" lon="-4.658817">
        <ele>2391.0</ele>
        <time>2014-06-30T14:33:09Z</time>
      </trkpt>
      <trkpt lat="40.690300" lon="-4.658733">
        <ele>2391.0</ele>
        <time>2014-06-30T14:33:10Z</time>
      </trkpt>
      <trkpt lat="40.690217" lon="-4.658633">
        <ele>2391.0</ele>
        <time>2014-06-30T14:33:11Z</time>
      </trkpt>
      <trkpt lat="40.690150" lon="-4.658517">
        <ele>2391.0</ele>
        <time>2014-06-30T14:33:12Z</time>
      </trkpt>
      <trkpt lat="40.690083" lon="-4.658383">
        <ele>2393.0</ele>
        <time>2014-06-30T14:33:13Z</time>
      </trkpt>
      <trkpt lat="40.690050" lon="-4.658267">
        <ele>2394.0</ele>
        <time>2014-06-30T14:33:14Z</time>
      </trkpt>
      <trkpt lat="40.690000" lon="-4.658167">
        <ele>2397.0</ele>
        <time>2014-06-30T14:33:15Z</time>
      </trkpt>
      <trkpt lat="40.689967" lon="-4.658100">
        <ele>2398.0</ele>
        <time>2014-06-30T14:33:16Z</time>
      </trkpt>
      <trkpt lat="40.689917" lon="-4.658033">
        <ele>2397.0</ele>
        <time>2014-06-30T14:33:17Z</time>
      </trkpt>
      <trkpt lat="40.689867" lon="-4.657933">
        <ele>2398.0</ele>
        <time>2014-06-30T14:33:18Z</time>
      </trkpt>
      <trkpt lat="40.689850" lon="-4.657817">
        <ele>2399.0</ele>
        <time>2014-06-30T14:33:19Z</time>
      </trkpt>
      <trkpt lat="40.689867" lon="-4.657667">
        <ele>2399.0</ele>
        <time>2014-06-30T14:33:20Z</time>
      </trkpt>
      <trkpt lat="40.689900" lon="-4.657550">
        <ele>2402.0</ele>
        <time>2014-06-30T14:33:21Z</time>
      </trkpt>
      <trkpt lat="40.689933" lon="-4.657467">
        <ele>2405.0</ele>
        <time>2014-06-30T14:33:22Z</time>
      </trkpt>
      <trkpt lat="40.689967" lon="-4.657417">
        <ele>2410.0</ele>
        <time>2014-06-30T14:33:23Z</time>
      </trkpt>
      <trkpt lat="40.690017" lon="-4.657383">
        <ele>2413.0</ele>
        <time>2014-06-30T14:33:24Z</time>
      </trkpt>
      <trkpt lat="40.690067" lon="-4.657367">
        <ele>2416.0</ele>
        <time>2014-06-30T14:33:25Z</time>
      </trkpt>
      <trkpt lat="40.690117" lon="-4.657333">
        <ele>2419.0</ele>
        <time>2014-06-30T14:33:26Z</time>
      </trkpt>
      <trkpt lat="40.690183" lon="-4.657317">
        <ele>2421.0</ele>
        <time>2014-06-30T14:33:27Z</time>
      </trkpt>
      <trkpt lat="40.690250" lon="-4.657333">
        <ele>2424.0</ele>
        <time>2014-06-30T14:33:28Z</time>
      </trkpt>
      <trkpt lat="40.690283" lon="-4.657367">
        <ele>2426.0</ele>
        <time>2014-06-30T14:33:29Z</time>
      </trkpt>
      <trkpt lat="40.690267" lon="-4.657417">
        <ele>2429.0</ele>
        <time>2014-06-30T14:33:30Z</time>
      </trkpt>
      <trkpt lat="40.690233" lon="-4.657483">
        <ele>2431.0</ele>
        <time>2014-06-30T14:33:31Z</time>
      </trkpt>
      <trkpt lat="40.690200" lon="-4.657533">
        <ele>2428.0</ele>
        <time>2014-06-30T14:33:32Z</time>
      </trkpt>
      <trkpt lat="40.690150" lon="-4.657567">
        <ele>2430.0</ele>
        <time>2014-06-30T14:33:33Z</time>
      </trkpt>
      <trkpt lat="40.690117" lon="-4.657600">
        <ele>2432.0</ele>
        <time>2014-06-30T14:33:34Z</time>
      </trkpt>
      <trkpt lat="40.690050" lon="-4.657617">
        <ele>2430.0</ele>
        <time>2014-06-30T14:33:35Z</time>
      </trkpt>
      <trkpt lat="40.689967" lon="-4.657600">
        <ele>2430.0</ele>
        <time>2014-06-30T14:33:36Z</time>
      </trkpt>
      <trkpt lat="40.689883" lon="-4.657567">
        <ele>2431.0</ele>
        <time>2014-06-30T14:33:37Z</time>
      </trkpt>
      <trkpt lat="40.689800" lon="-4.657517">
        <ele>2431.0</ele>
        <time>2014-06-30T14:33:38Z</time>
      </trkpt>
      <trkpt lat="40.689733" lon="-4.657450">
        <ele>2432.0</ele>
        <time>2014-06-30T14:33:39Z</time>
      </trkpt>
      <trkpt lat="40.689667" lon="-4.657367">
        <ele>2433.0</ele>
        <time>2014-06-30T14:33:40Z</time>
      </trkpt>
      <trkpt lat="40.689617" lon="-4.657267">
        <ele>2434.0</ele>
        <time>2014-06-30T14:33:41Z</time>
      </trkpt>
      <trkpt lat="40.689567" lon="-4.657167">
        <ele>2434.0</ele>
        <time>2014-06-30T14:33:42Z</time>
      </trkpt>
      <trkpt lat="40.689550" lon="-4.657033">
        <ele>2435.0</ele>
        <time>2014-06-30T14:33:43Z</time>
      </trkpt>
      <trkpt lat="40.689533" lon="-4.656917">
        <ele>2436.0</ele>
        <time>2014-06-30T14:33:44Z</time>
      </trkpt>
      <trkpt lat="40.689533" lon="-4.656833">
        <ele>2437.0</ele>
        <time>2014-06-30T14:33:45Z</time>
      </trkpt>
      <trkpt lat="40.689550" lon="-4.656733">
        <ele>2438.0</ele>
        <time>2014-06-30T14:33:46Z</time>
      </trkpt>
      <trkpt lat="40.689567" lon="-4.656633">
        <ele>2439.0</ele>
        <time>2014-06-30T14:33:47Z</time>
      </trkpt>
      <trkpt lat="40.689600" lon="-4.656550">
        <ele>2440.0</ele>
        <time>2014-06-30T14:33:48Z</time>
      </trkpt>
      <trkpt lat="40.689650" lon="-4.656467">
        <ele>2442.0</ele>
        <time>2014-06-30T14:33:49Z</time>
      </trkpt>
      <trkpt lat="40.689683" lon="-4.656400">
        <ele>2443.0</ele>
        <time>2014-06-30T14:33:50Z</time>
      </trkpt>
      <trkpt lat="40.689733" lon="-4.656333">
        <ele>2444.0</ele>
        <time>2014-06-30T14:33:51Z</time>
      </trkpt>
      <trkpt lat="40.689783" lon="-4.656267">
        <ele>2444.0</ele>
        <time>2014-06-30T14:33:52Z</time>
      </trkpt>
      <trkpt lat="40.689833" lon="-4.656183">
        <ele>2445.0</ele>
        <time>2014-06-30T14:33:53Z</time>
      </trkpt>
      <trkpt lat="40.689867" lon="-4.656067">
        <ele>2447.0</ele>
        <time>2014-06-30T14:33:54Z</time>
      </trkpt>
      <trkpt lat="40.689900" lon="-4.655917">
        <ele>2449.0</ele>
        <time>2014-06-30T14:33:55Z</time>
      </trkpt>
      <trkpt lat="40.689933" lon="-4.655783">
        <ele>2452.0</ele>
        <time>2014-06-30T14:33:56Z</time>
      </trkpt>
      <trkpt lat="40.689917" lon="-4.655667">
        <ele>2455.0</ele>
        <time>2014-06-30T14:33:57Z</time>
      </trkpt>
      <trkpt lat="40.689900" lon="-4.655550">
        <ele>2458.0</ele>
        <time>2014-06-30T14:33:58Z</time>
      </trkpt>
      <trkpt lat="40.689883" lon="-4.655417">
        <ele>2459.0</ele>
        <time>2014-06-30T14:33:59Z</time>
      </trkpt>
      <trkpt lat="40.689833" lon="-4.655267">
        <ele>2461.0</ele>
        <time>2014-06-30T14:34:00Z</time>
      </trkpt>
      <trkpt lat="40.689783" lon="-4.655117">
        <ele>2464.0</ele>
        <time>2014-06-30T14:34:01Z</time>
      </trkpt>
      <trkpt lat="40.689700" lon="-4.655000">
        <ele>2467.0</ele>
        <time>2014-06-30T14:34:02Z</time>
      </trkpt>
      <trkpt lat="40.689600" lon="-4.654917">
        <ele>2469.0</ele>
        <time>2014-06-30T14:34:03Z</time>
      </trkpt>
      <trkpt lat="40.689500" lon="-4.654867">
        <ele>2473.0</ele>
        <time>2014-06-30T14:34:04Z</time>
      </trkpt>
      <trkpt lat="40.689383" lon="-4.654817">
        <ele>2478.0</ele>
        <time>2014-06-30T14:34:05Z</time>
      </trkpt>
      <trkpt lat="40.689283" lon="-4.654783">
        <ele>2482.0</ele>
        <time>2014-06-30T14:34:06Z</time>
      </trkpt>
      <trkpt lat="40.689183" lon="-4.654767">
        <ele>2486.0</ele>
        <time>2014-06-30T14:34:07Z</time>
      </trkpt>
      <trkpt lat="40.689083" lon="-4.654767">
        <ele>2489.0</ele>
        <time>2014-06-30T14:34:08Z</time>
      </trkpt>
      <trkpt lat="40.689000" lon="-4.654817">
        <ele>2492.0</ele>
        <time>2014-06-30T14:34:09Z</time>
      </trkpt>
      <trkpt lat="40.688917" lon="-4.654883">
        <ele>2495.0</ele>
        <time>2014-06-30T14:34:10Z</time>
      </trkpt>
      <trkpt lat="40.688883" lon="-4.654967">
        <ele>2498.0</ele>
        <time>2014-06-30T14:34:11Z</time>
      </trkpt>
      <trkpt lat="40.688883" lon="-4.655050">
        <ele>2501.0</ele>
        <time>2014-06-30T14:34:12Z</time>
      </trkpt>
      <trkpt lat="40.688900" lon="-4.655100">
        <ele>2504.0</ele>
        <time>2014-06-30T14:34:13Z</time>
      </trkpt>
      <trkpt lat="40.688917" lon="-4.655150">
        <ele>2507.0</ele>
        <time>2014-06-30T14:34:14Z</time>
      </trkpt>
      <trkpt lat="40.688933" lon="-4.655167">
        <ele>2510.0</ele>
        <time>2014-06-30T14:34:15Z</time>
      </trkpt>
      <trkpt lat="40.688967" lon="-4.655167">
        <ele>2513.0</ele>
        <time>2014-06-30T14:34:16Z</time>
      </trkpt>
      <trkpt lat="40.688983" lon="-4.655133">
        <ele>2515.0</ele>
        <time>2014-06-30T14:34:17Z</time>
      </trkpt>
      <trkpt lat="40.689017" lon="-4.655100">
        <ele>2510.0</ele>
        <time>2014-06-30T14:34:18Z</time>
      </trkpt>
      <trkpt lat="40.689067" lon="-4.655033">
        <ele>2510.0</ele>
        <time>2014-06-30T14:34:19Z</time>
      </trkpt>
      <trkpt lat="40.689100" lon="-4.654933">
        <ele>2511.0</ele>
        <time>2014-06-30T14:34:20Z</time>
      </trkpt>
      <trkpt lat="40.689117" lon="-4.654817">
        <ele>2513.0</ele>
        <time>2014-06-30T14:34:21Z</time>
      </trkpt>
      <trkpt lat="40.689100" lon="-4.654683">
        <ele>2515.0</ele>
        <time>2014-06-30T14:34:22Z</time>
      </trkpt>
      <trkpt lat="40.689050" lon="-4.654550">
        <ele>2517.0</ele>
        <time>2014-06-30T14:34:23Z</time>
      </trkpt>
      <trkpt lat="40.688983" lon="-4.654433">
        <ele>2519.0</ele>
        <time>2014-06-30T14:34:24Z</time>
      </trkpt>
      <trkpt lat="40.688933" lon="-4.654317">
        <ele>2521.0</ele>
        <time>2014-06-30T14:34:25Z</time>
      </trkpt>
      <trkpt lat="40.688900" lon="-4.654200">
        <ele>2524.0</ele>
        <time>2014-06-30T14:34:26Z</time>
      </trkpt>
      <trkpt lat="40.688833" lon="-4.654083">
        <ele>2526.0</ele>
        <time>2014-06-30T14:34:27Z</time>
      </trkpt>
      <trkpt lat="40.688767" lon="-4.653983">
        <ele>2529.0</ele>
        <time>2014-06-30T14:34:28Z</time>
      </trkpt>
      <trkpt lat="40.688667" lon="-4.653867">
        <ele>2532.0</ele>
        <time>2014-06-30T14:34:29Z</time>
      </trkpt>
      <trkpt lat="40.688583" lon="-4.653800">
        <ele>2536.0</ele>
        <time>2014-06-30T14:34:30Z</time>
      </trkpt>
      <trkpt lat="40.688483" lon="-4.653733">
        <ele>2541.0</ele>
        <time>2014-06-30T14:34:31Z</time>
      </trkpt>
      <trkpt lat="40.688383" lon="-4.653700">
        <ele>2544.0</ele>
        <time>2014-06-30T14:34:32Z</time>
      </trkpt>
      <trkpt lat="40.688283" lon="-4.653667">
        <ele>2547.0</ele>
        <time>2014-06-30T14:34:33Z</time>
      </trkpt>
      <trkpt lat="40.688183" lon="-4.653667">
        <ele>2551.0</ele>
        <time>2014-06-30T14:34:34Z</time>
      </trkpt>
      <trkpt lat="40.688100" lon="-4.653683">
        <ele>2554.0</ele>
        <time>2014-06-30T14:34:35Z</time>
      </trkpt>
      <trkpt lat="40.688033" lon="-4.653717">
        <ele>2556.0</ele>
        <time>2014-06-30T14:34:36Z</time>
      </trkpt>
      <trkpt lat="40.687967" lon="-4.653767">
        <ele>2558.0</ele>
        <time>2014-06-30T14:34:37Z</time>
      </trkpt>
      <trkpt lat="40.687900" lon="-4.653850">
        <ele>2559.0</ele>
        <time>2014-06-30T14:34:38Z</time>
      </trkpt>
      <trkpt lat="40.687867" lon="-4.653933">
        <ele>2561.0</ele>
        <time>2014-06-30T14:34:39Z</time>
      </trkpt>
      <trkpt lat="40.687850" lon="-4.654017">
        <ele>2563.0</ele>
        <time>2014-06-30T14:34:40Z</time>
      </trkpt>
      <trkpt lat="40.687867" lon="-4.654100">
        <ele>2566.0</ele>
        <time>2014-06-30T14:34:41Z</time>
      </trkpt>
      <trkpt lat="40.687883" lon="-4.654167">
        <ele>2567.0</ele>
        <time>2014-06-30T14:34:42Z</time>
      </trkpt>
      <trkpt lat="40.687933" lon="-4.654217">
        <ele>2568.0</ele>
        <time>2014-06-30T14:34:43Z</time>
      </trkpt>
      <trkpt lat="40.688000" lon="-4.654233">
        <ele>2569.0</ele>
        <time>2014-06-30T14:34:44Z</time>
      </trkpt>
      <trkpt lat="40.688067" lon="-4.654200">
        <ele>2570.0</ele>
        <time>2014-06-30T14:34:45Z</time>
      </trkpt>
      <trkpt lat="40.688117" lon="-4.654117">
        <ele>2571.0</ele>
        <time>2014-06-30T14:34:46Z</time>
      </trkpt>
      <trkpt lat="40.688150" lon="-4.654017">
        <ele>2573.0</ele>
        <time>2014-06-30T14:34:47Z</time>
      </trkpt>
      <trkpt lat="40.688167" lon="-4.653900">
        <ele>2574.0</ele>
        <time>2014-06-30T14:34:48Z</time>
      </trkpt>
      <trkpt lat="40.688167" lon="-4.653783">
        <ele>2576.0</ele>
        <time>2014-06-30T14:34:49Z</time>
      </trkpt>
      <trkpt lat="40.688183" lon="-4.653683">
        <ele>2574.0</ele>
        <time>2014-06-30T14:34:50Z</time>
      </trkpt>
      <trkpt lat="40.688200" lon="-4.653550">
        <ele>2575.0</ele>
        <time>2014-06-30T14:34:51Z</time>
      </trkpt>
      <trkpt lat="40.688200" lon="-4.653433">
        <ele>2577.0</ele>
        <time>2014-06-30T14:34:52Z</time>
      </trkpt>
      <trkpt lat="40.688183" lon="-4.653317">
        <ele>2578.0</ele>
        <time>2014-06-30T14:34:53Z</time>
      </trkpt>
      <trkpt lat="40.688167" lon="-4.653183">
        <ele>2580.0</ele>
        <time>2014-06-30T14:34:54Z</time>
      </trkpt>
      <trkpt lat="40.688133" lon="-4.653083">
        <ele>2582.0</ele>
        <time>2014-06-30T14:34:55Z</time>
      </trkpt>
      <trkpt lat="40.688100" lon="-4.652967">
        <ele>2584.0</ele>
        <time>2014-06-30T14:34:56Z</time>
      </trkpt>
      <trkpt lat="40.688083" lon="-4.652833">
        <ele>2586.0</ele>
        <time>2014-06-30T14:34:57Z</time>
      </trkpt>
      <trkpt lat="40.688050" lon="-4.652717">
        <ele>2588.0</ele>
        <time>2014-06-30T14:34:58Z</time>
      </trkpt>
      <trkpt lat="40.688000" lon="-4.652583">
        <ele>2591.0</ele>
        <time>2014-06-30T14:34:59Z</time>
      </trkpt>
      <trkpt lat="40.687933" lon="-4.652467">
        <ele>2594.0</ele>
        <time>2014-06-30T14:35:00Z</time>
      </trkpt>
      <trkpt lat="40.687850" lon="-4.652350">
        <ele>2597.0</ele>
        <time>2014-06-30T14:35:01Z</time>
      </trkpt>
      <trkpt lat="40.687767" lon="-4.652250">
        <ele>2600.0</ele>
        <time>2014-06-30T14:35:02Z</time>
      </trkpt>
      <trkpt lat="40.687667" lon="-4.652167">
        <ele>2604.0</ele>
        <time>2014-06-30T14:35:03Z</time>
      </trkpt>
      <trkpt lat="40.687567" lon="-4.652117">
        <ele>2606.0</ele>
        <time>2014-06-30T14:35:04Z</time>
      </trkpt>
      <trkpt lat="40.687467" lon="-4.652067">
        <ele>2609.0</ele>
        <time>2014-06-30T14:35:05Z</time>
      </trkpt>
      <trkpt lat="40.687367" lon="-4.652050">
        <ele>2612.0</ele>
        <time>2014-06-30T14:35:06Z</time>
      </trkpt>
      <trkpt lat="40.687267" lon="-4.652050">
        <ele>2614.0</ele>
        <time>2014-06-30T14:35:07Z</time>
      </trkpt>
      <trkpt lat="40.687183" lon="-4.652067">
        <ele>2614.0</ele>
        <time>2014-06-30T14:35:08Z</time>
      </trkpt>
      <trkpt lat="40.687100" lon="-4.652100">
        <ele>2616.0</ele>
        <time>2014-06-30T14:35:09Z</time>
      </trkpt>
      <trkpt lat="40.687017" lon="-4.652167">
        <ele>2617.0</ele>
        <time>2014-06-30T14:35:10Z</time>
      </trkpt>
      <trkpt lat="40.686967" lon="-4.652233">
        <ele>2619.0</ele>
        <time>2014-06-30T14:35:11Z</time>
      </trkpt>
      <trkpt lat="40.686933" lon="-4.652300">
        <ele>2621.0</ele>
        <time>2014-06-30T14:35:12Z</time>
      </trkpt>
      <trkpt lat="40.686950" lon="-4.652383">
        <ele>2622.0</ele>
        <time>2014-06-30T14:35:13Z</time>
      </trkpt>
      <trkpt lat="40.686967" lon="-4.652450">
        <ele>2622.0</ele>
        <time>2014-06-30T14:35:14Z</time>
      </trkpt>
      <trkpt lat="40.687000" lon="-4.652500">
        <ele>2623.0</ele>
        <time>2014-06-30T14:35:15Z</time>
      </trkpt>
      <trkpt lat="40.687050" lon="-4.652517">
        <ele>2624.0</ele>
        <time>2014-06-30T14:35:16Z</time>
      </trkpt>
      <trkpt lat="40.687100" lon="-4.652500">
        <ele>2625.0</ele>
        <time>2014-06-30T14:35:17Z</time>
      </trkpt>
      <trkpt lat="40.687150" lon="-4.652450">
        <ele>2626.0</ele>
        <time>2014-06-30T14:35:18Z</time>
      </trkpt>
      <trkpt lat="40.687200" lon="-4.652367">
        <ele>2628.0</ele>
        <time>2014-06-30T14:35:19Z</time>
      </trkpt>
      <trkpt lat="40.687233" lon="-4.652283">
        <ele>2629.0</ele>
        <time>2014-06-30T14:35:20Z</time>
      </trkpt>
      <trkpt lat="40.687233" lon="-4.652183">
        <ele>2627.0</ele>
        <time>2014-06-30T14:35:21Z</time>
      </trkpt>
      <trkpt lat="40.687250" lon="-4.652083">
        <ele>2629.0</ele>
        <time>2014-06-30T14:35:22Z</time>
      </trkpt>
      <trkpt lat="40.687267" lon="-4.651983">
        <ele>2631.0</ele>
        <time>2014-06-30T14:35:23Z</time>
      </trkpt>
      <trkpt lat="40.687267" lon="-4.651883">
        <ele>2634.0</ele>
        <time>2014-06-30T14:35:24Z</time>
      </trkpt>
      <trkpt lat="40.687283" lon="-4.651783">
        <ele>2636.0</ele>
        <time>2014-06-30T14:35:25Z</time>
      </trkpt>
      <trkpt lat="40.687283" lon="-4.651650">
        <ele>2638.0</ele>
        <time>2014-06-30T14:35:26Z</time>
      </trkpt>
      <trkpt lat="40.687267" lon="-4.651533">
        <ele>2641.0</ele>
        <time>2014-06-30T14:35:27Z</time>
      </trkpt>
      <trkpt lat="40.687233" lon="-4.651400">
        <ele>2643.0</ele>
        <time>2014-06-30T14:35:28Z</time>
      </trkpt>
      <trkpt lat="40.687183" lon="-4.651283">
        <ele>2645.0</ele>
        <time>2014-06-30T14:35:29Z</time>
      </trkpt>
      <trkpt lat="40.687133" lon="-4.651167">
        <ele>2647.0</ele>
        <time>2014-06-30T14:35:30Z</time>
      </trkpt>
      <trkpt lat="40.687083" lon="-4.651033">
        <ele>2649.0</ele>
        <time>2014-06-30T14:35:31Z</time>
      </trkpt>
      <trkpt lat="40.687033" lon="-4.650917">
        <ele>2651.0</ele>
        <time>2014-06-30T14:35:32Z</time>
      </trkpt>
      <trkpt lat="40.686950" lon="-4.650800">
        <ele>2653.0</ele>
        <time>2014-06-30T14:35:33Z</time>
      </trkpt>
      <trkpt lat="40.686867" lon="-4.650700">
        <ele>2655.0</ele>
        <time>2014-06-30T14:35:34Z</time>
      </trkpt>
      <trkpt lat="40.686783" lon="-4.650617">
        <ele>2656.0</ele>
        <time>2014-06-30T14:35:35Z</time>
      </trkpt>
      <trkpt lat="40.686683" lon="-4.650550">
        <ele>2657.0</ele>
        <time>2014-06-30T14:35:36Z</time>
      </trkpt>
      <trkpt lat="40.686567" lon="-4.650500">
        <ele>2659.0</ele>
        <time>2014-06-30T14:35:37Z</time>
      </trkpt>
      <trkpt lat="40.686467" lon="-4.650467">
        <ele>2661.0</ele>
        <time>2014-06-30T14:35:38Z</time>
      </trkpt>
      <trkpt lat="40.686350" lon="-4.650483">
        <ele>2662.0</ele>
        <time>2014-06-30T14:35:39Z</time>
      </trkpt>
      <trkpt lat="40.686267" lon="-4.650517">
        <ele>2663.0</ele>
        <time>2014-06-30T14:35:40Z</time>
      </trkpt>
      <trkpt lat="40.686183" lon="-4.650583">
        <ele>2665.0</ele>
        <time>2014-06-30T14:35:41Z</time>
      </trkpt>
      <trkpt lat="40.686133" lon="-4.650650">
        <ele>2667.0</ele>
        <time>2014-06-30T14:35:42Z</time>
      </trkpt>
      <trkpt lat="40.686100" lon="-4.650733">
        <ele>2670.0</ele>
        <time>2014-06-30T14:35:43Z</time>
      </trkpt>
      <trkpt lat="40.686100" lon="-4.650783">
        <ele>2672.0</ele>
        <time>2014-06-30T14:35:44Z</time>
      </trkpt>
      <trkpt lat="40.686117" lon="-4.650833">
        <ele>2673.0</ele>
        <time>2014-06-30T14:35:45Z</time>
      </trkpt>
      <trkpt lat="40.686150" lon="-4.650883">
        <ele>2674.0</ele>
        <time>2014-06-30T14:35:46Z</time>
      </trkpt>
      <trkpt lat="40.686183" lon="-4.650900">
        <ele>2675.0</ele>
        <time>2014-06-30T14:35:47Z</time>
      </trkpt>
      <trkpt lat="40.686233" lon="-4.650900">
        <ele>2676.0</ele>
        <time>2014-06-30T14:35:48Z</time>
      </trkpt>
      <trkpt lat="40.686283" lon="-4.650850">
        <ele>2677.0</ele>
        <time>2014-06-30T14:35:49Z</time>
      </trkpt>
      <trkpt lat="40.686333" lon="-4.650783">
        <ele>2677.0</ele>
        <time>2014-06-30T14:35:50Z</time>
      </trkpt>
      <trkpt lat="40.686383" lon="-4.650717">
        <ele>2678.0</ele>
        <time>2014-06-30T14:35:51Z</time>
      </trkpt>
      <trkpt lat="40.686417" lon="-4.650633">
        <ele>2679.0</ele>
        <time>2014-06-30T14:35:52Z</time>
      </trkpt>
      <trkpt lat="40.686467" lon="-4.650567">
        <ele>2680.0</ele>
        <time>2014-06-30T14:35:53Z</time>
      </trkpt>
      <trkpt lat="40.686517" lon="-4.650517">
        <ele>2681.0</ele>
        <time>2014-06-30T14:35:54Z</time>
      </trkpt>
      <trkpt lat="40.686583" lon="-4.650450">
        <ele>2682.0</ele>
        <time>2014-06-30T14:35:55Z</time>
      </trkpt>
      <trkpt lat="40.686633" lon="-4.650383">
        <ele>2681.0</ele>
        <time>2014-06-30T14:35:56Z</time>
      </trkpt>
      <trkpt lat="40.686667" lon="-4.650333">
        <ele>2681.0</ele>
        <time>2014-06-30T14:35:57Z</time>
      </trkpt>
      <trkpt lat="40.686717" lon="-4.650283">
        <ele>2682.0</ele>
        <time>2014-06-30T14:35:58Z</time>
      </trkpt>
      <trkpt lat="40.686767" lon="-4.650233">
        <ele>2682.0</ele>
        <time>2014-06-30T14:35:59Z</time>
      </trkpt>
      <trkpt lat="40.686800" lon="-4.650183">
        <ele>2682.0</ele>
        <time>2014-06-30T14:36:00Z</time>
      </trkpt>
      <trkpt lat="40.686833" lon="-4.650133">
        <ele>2683.0</ele>
        <time>2014-06-30T14:36:01Z</time>
      </trkpt>
      <trkpt lat="40.686883" lon="-4.650067">
        <ele>2683.0</ele>
        <time>2014-06-30T14:36:02Z</time>
      </trkpt>
      <trkpt lat="40.686933" lon="-4.650000">
        <ele>2685.0</ele>
        <time>2014-06-30T14:36:03Z</time>
      </trkpt>
      <trkpt lat="40.686983" lon="-4.649917">
        <ele>2686.0</ele>
        <time>2014-06-30T14:36:04Z</time>
      </trkpt>
      <trkpt lat="40.687017" lon="-4.649833">
        <ele>2686.0</ele>
        <time>2014-06-30T14:36:05Z</time>
      </trkpt>
      <trkpt lat="40.687050" lon="-4.649750">
        <ele>2687.0</ele>
        <time>2014-06-30T14:36:06Z</time>
      </trkpt>
      <trkpt lat="40.687083" lon="-4.649633">
        <ele>2688.0</ele>
        <time>2014-06-30T14:36:07Z</time>
      </trkpt>
      <trkpt lat="40.687100" lon="-4.649500">
        <ele>2690.0</ele>
        <time>2014-06-30T14:36:08Z</time>
      </trkpt>
      <trkpt lat="40.687117" lon="-4.649367">
        <ele>2693.0</ele>
        <time>2014-06-30T14:36:09Z</time>
      </trkpt>
      <trkpt lat="40.687117" lon="-4.649200">
        <ele>2696.0</ele>
        <time>2014-06-30T14:36:10Z</time>
      </trkpt>
      <trkpt lat="40.687083" lon="-4.649050">
        <ele>2699.0</ele>
        <time>2014-06-30T14:36:11Z</time>
      </trkpt>
      <trkpt lat="40.687067" lon="-4.648900">
        <ele>2702.0</ele>
        <time>2014-06-30T14:36:12Z</time>
      </trkpt>
      <trkpt lat="40.687017" lon="-4.648767">
        <ele>2705.0</ele>
        <time>2014-06-30T14:36:13Z</time>
      </trkpt>
      <trkpt lat="40.686967" lon="-4.648633">
        <ele>2708.0</ele>
        <time>2014-06-30T14:36:14Z</time>
      </trkpt>
      <trkpt lat="40.686883" lon="-4.648517">
        <ele>2711.0</ele>
        <time>2014-06-30T14:36:15Z</time>
      </trkpt>
      <trkpt lat="40.686800" lon="-4.648400">
        <ele>2714.0</ele>
        <time>2014-06-30T14:36:16Z</time>
      </trkpt>
      <trkpt lat="40.686700" lon="-4.648333">
        <ele>2719.0</ele>
        <time>2014-06-30T14:36:17Z</time>
      </trkpt>
      <trkpt lat="40.686600" lon="-4.648300">
        <ele>2723.0</ele>
        <time>2014-06-30T14:36:18Z</time>
      </trkpt>
      <trkpt lat="40.686517" lon="-4.648283">
        <ele>2727.0</ele>
        <time>2014-06-30T14:36:19Z</time>
      </trkpt>
      <trkpt lat="40.686433" lon="-4.648317">
        <ele>2729.0</ele>
        <time>2014-06-30T14:36:20Z</time>
      </trkpt>
      <trkpt lat="40.686350" lon="-4.648350">
        <ele>2732.0</ele>
        <time>2014-06-30T14:36:21Z</time>
      </trkpt>
      <trkpt lat="40.686283" lon="-4.648400">
        <ele>2736.0</ele>
        <time>2014-06-30T14:36:22Z</time>
      </trkpt>
      <trkpt lat="40.686233" lon="-4.648450">
        <ele>2740.0</ele>
        <time>2014-06-30T14:36:23Z</time>
      </trkpt>
      <trkpt lat="40.686217" lon="-4.648517">
        <ele>2742.0</ele>
        <time>2014-06-30T14:36:24Z</time>
      </trkpt>
      <trkpt lat="40.686233" lon="-4.648567">
        <ele>2745.0</ele>
        <time>2014-06-30T14:36:25Z</time>
      </trkpt>
      <trkpt lat="40.686283" lon="-4.648617">
        <ele>2747.0</ele>
        <time>2014-06-30T14:36:26Z</time>
      </trkpt>
      <trkpt lat="40.686333" lon="-4.648633">
        <ele>2750.0</ele>
        <time>2014-06-30T14:36:27Z</time>
      </trkpt>
      <trkpt lat="40.686367" lon="-4.648650">
        <ele>2753.0</ele>
        <time>2014-06-30T14:36:28Z</time>
      </trkpt>
      <trkpt lat="40.686417" lon="-4.648650">
        <ele>2756.0</ele>
        <time>2014-06-30T14:36:29Z</time>
      </trkpt>
      <trkpt lat="40.686467" lon="-4.648667">
        <ele>2758.0</ele>
        <time>2014-06-30T14:36:30Z</time>
      </trkpt>
      <trkpt lat="40.686467" lon="-4.648650">
        <ele>2755.0</ele>
        <time>2014-06-30T14:36:31Z</time>
      </trkpt>
      <trkpt lat="40.686533" lon="-4.648633">
        <ele>2756.0</ele>
        <time>2014-06-30T14:36:32Z</time>
      </trkpt>
      <trkpt lat="40.686583" lon="-4.648633">
        <ele>2758.0</ele>
        <time>2014-06-30T14:36:33Z</time>
      </trkpt>
      <trkpt lat="40.686650" lon="-4.648600">
        <ele>2760.0</ele>
        <time>2014-06-30T14:36:34Z</time>
      </trkpt>
      <trkpt lat="40.686700" lon="-4.648567">
        <ele>2763.0</ele>
        <time>2014-06-30T14:36:35Z</time>
      </trkpt>
      <trkpt lat="40.686750" lon="-4.648533">
        <ele>2765.0</ele>
        <time>2014-06-30T14:36:36Z</time>
      </trkpt>
      <trkpt lat="40.686783" lon="-4.648467">
        <ele>2764.0</ele>
        <time>2014-06-30T14:36:37Z</time>
      </trkpt>
      <trkpt lat="40.686833" lon="-4.648400">
        <ele>2768.0</ele>
        <time>2014-06-30T14:36:38Z</time>
      </trkpt>
      <trkpt lat="40.686900" lon="-4.648350">
        <ele>2770.0</ele>
        <time>2014-06-30T14:36:39Z</time>
      </trkpt>
      <trkpt lat="40.686950" lon="-4.648283">
        <ele>2774.0</ele>
        <time>2014-06-30T14:36:40Z</time>
      </trkpt>
      <trkpt lat="40.687000" lon="-4.648217">
        <ele>2775.0</ele>
        <time>2014-06-30T14:36:41Z</time>
      </trkpt>
      <trkpt lat="40.687033" lon="-4.648150">
        <ele>2776.0</ele>
        <time>2014-06-30T14:36:42Z</time>
      </trkpt>
      <trkpt lat="40.687067" lon="-4.648067">
        <ele>2777.0</ele>
        <time>2014-06-30T14:36:43Z</time>
      </trkpt>
      <trkpt lat="40.687100" lon="-4.647967">
        <ele>2778.0</ele>
        <time>2014-06-30T14:36:44Z</time>
      </trkpt>
      <trkpt lat="40.687117" lon="-4.647850">
        <ele>2779.0</ele>
        <time>2014-06-30T14:36:45Z</time>
      </trkpt>
      <trkpt lat="40.687117" lon="-4.647733">
        <ele>2780.0</ele>
        <time>2014-06-30T14:36:46Z</time>
      </trkpt>
      <trkpt lat="40.687150" lon="-4.647617">
        <ele>2782.0</ele>
        <time>2014-06-30T14:36:47Z</time>
      </trkpt>
      <trkpt lat="40.687183" lon="-4.647517">
        <ele>2784.0</ele>
        <time>2014-06-30T14:36:48Z</time>
      </trkpt>
      <trkpt lat="40.687217" lon="-4.647433">
        <ele>2783.0</ele>
        <time>2014-06-30T14:36:49Z</time>
      </trkpt>
      <trkpt lat="40.687300" lon="-4.647383">
        <ele>2788.0</ele>
        <time>2014-06-30T14:36:50Z</time>
      </trkpt>
      <trkpt lat="40.687333" lon="-4.647300">
        <ele>2792.0</ele>
        <time>2014-06-30T14:36:51Z</time>
      </trkpt>
      <trkpt lat="40.687350" lon="-4.647200">
        <ele>2793.0</ele>
        <time>2014-06-30T14:36:52Z</time>
      </trkpt>
      <trkpt lat="40.687367" lon="-4.647100">
        <ele>2795.0</ele>
        <time>2014-06-30T14:36:53Z</time>
      </trkpt>
      <trkpt lat="40.687400" lon="-4.646983">
        <ele>2798.0</ele>
        <time>2014-06-30T14:36:54Z</time>
      </trkpt>
      <trkpt lat="40.687400" lon="-4.646867">
        <ele>2800.0</ele>
        <time>2014-06-30T14:36:55Z</time>
      </trkpt>
      <trkpt lat="40.687400" lon="-4.646750">
        <ele>2799.0</ele>
        <time>2014-06-30T14:36:56Z</time>
      </trkpt>
      <trkpt lat="40.687400" lon="-4.646633">
        <ele>2800.0</ele>
        <time>2014-06-30T14:36:57Z</time>
      </trkpt>
      <trkpt lat="40.687417" lon="-4.646533">
        <ele>2803.0</ele>
        <time>2014-06-30T14:36:58Z</time>
      </trkpt>
      <trkpt lat="40.687450" lon="-4.646417">
        <ele>2805.0</ele>
        <time>2014-06-30T14:36:59Z</time>
      </trkpt>
      <trkpt lat="40.687467" lon="-4.646300">
        <ele>2807.0</ele>
        <time>2014-06-30T14:37:00Z</time>
      </trkpt>
      <trkpt lat="40.687500" lon="-4.646167">
        <ele>2809.0</ele>
        <time>2014-06-30T14:37:01Z</time>
      </trkpt>
      <trkpt lat="40.687517" lon="-4.646050">
        <ele>2811.0</ele>
        <time>2014-06-30T14:37:02Z</time>
      </trkpt>
      <trkpt lat="40.687533" lon="-4.645917">
        <ele>2814.0</ele>
        <time>2014-06-30T14:37:03Z</time>
      </trkpt>
      <trkpt lat="40.687583" lon="-4.645800">
        <ele>2816.0</ele>
        <time>2014-06-30T14:37:04Z</time>
      </trkpt>
      <trkpt lat="40.687617" lon="-4.645683">
        <ele>2820.0</ele>
        <time>2014-06-30T14:37:05Z</time>
      </trkpt>
      <trkpt lat="40.687667" lon="-4.645550">
        <ele>2824.0</ele>
        <time>2014-06-30T14:37:06Z</time>
      </trkpt>
      <trkpt lat="40.687717" lon="-4.645417">
        <ele>2829.0</ele>
        <time>2014-06-30T14:37:07Z</time>
      </trkpt>
      <trkpt lat="40.687767" lon="-4.645283">
        <ele>2836.0</ele>
        <time>2014-06-30T14:37:08Z</time>
      </trkpt>
      <trkpt lat="40.687817" lon="-4.645150">
        <ele>2842.0</ele>
        <time>2014-06-30T14:37:09Z</time>
      </trkpt>
      <trkpt lat="40.687867" lon="-4.645000">
        <ele>2847.0</ele>
        <time>2014-06-30T14:37:10Z</time>
      </trkpt>
      <trkpt lat="40.687917" lon="-4.644883">
        <ele>2853.0</ele>
        <time>2014-06-30T14:37:11Z</time>
      </trkpt>
      <trkpt lat="40.687967" lon="-4.644767">
        <ele>2859.0</ele>
        <time>2014-06-30T14:37:12Z</time>
      </trkpt>
      <trkpt lat="40.688033" lon="-4.644650">
        <ele>2867.0</ele>
        <time>2014-06-30T14:37:13Z</time>
      </trkpt>
      <trkpt lat="40.688083" lon="-4.644533">
        <ele>2875.0</ele>
        <time>2014-06-30T14:37:14Z</time>
      </trkpt>
      <trkpt lat="40.688150" lon="-4.644417">
        <ele>2883.0</ele>
        <time>2014-06-30T14:37:15Z</time>
      </trkpt>
      <trkpt lat="40.688233" lon="-4.644333">
        <ele>2894.0</ele>
        <time>2014-06-30T14:37:16Z</time>
      </trkpt>
      <trkpt lat="40.688267" lon="-4.644233">
        <ele>2901.0</ele>
        <time>2014-06-30T14:37:17Z</time>
      </trkpt>
      <trkpt lat="40.688317" lon="-4.644117">
        <ele>2907.0</ele>
        <time>2014-06-30T14:37:18Z</time>
      </trkpt>
      <trkpt lat="40.688350" lon="-4.644000">
        <ele>2912.0</ele>
        <time>2014-06-30T14:37:19Z</time>
      </trkpt>
      <trkpt lat="40.688400" lon="-4.643883">
        <ele>2917.0</ele>
        <time>2014-06-30T14:37:20Z</time>
      </trkpt>
      <trkpt lat="40.688450" lon="-4.643767">
        <ele>2921.0</ele>
        <time>2014-06-30T14:37:21Z</time>
      </trkpt>
      <trkpt lat="40.688517" lon="-4.643650">
        <ele>2924.0</ele>
        <time>2014-06-30T14:37:22Z</time>
      </trkpt>
      <trkpt lat="40.688583" lon="-4.643500">
        <ele>2926.0</ele>
        <time>2014-06-30T14:37:23Z</time>
      </trkpt>
      <trkpt lat="40.688650" lon="-4.643350">
        <ele>2929.0</ele>
        <time>2014-06-30T14:37:24Z</time>
      </trkpt>
      <trkpt lat="40.688683" lon="-4.643183">
        <ele>2932.0</ele>
        <time>2014-06-30T14:37:25Z</time>
      </trkpt>
      <trkpt lat="40.688733" lon="-4.643033">
        <ele>2934.0</ele>
        <time>2014-06-30T14:37:26Z</time>
      </trkpt>
      <trkpt lat="40.688767" lon="-4.642883">
        <ele>2938.0</ele>
        <time>2014-06-30T14:37:27Z</time>
      </trkpt>
      <trkpt lat="40.688817" lon="-4.642733">
        <ele>2941.0</ele>
        <time>2014-06-30T14:37:28Z</time>
      </trkpt>
      <trkpt lat="40.688867" lon="-4.642600">
        <ele>2943.0</ele>
        <time>2014-06-30T14:37:29Z</time>
      </trkpt>
      <trkpt lat="40.688933" lon="-4.642467">
        <ele>2944.0</ele>
        <time>2014-06-30T14:37:30Z</time>
      </trkpt>
      <trkpt lat="40.689000" lon="-4.642333">
        <ele>2946.0</ele>
        <time>2014-06-30T14:37:31Z</time>
      </trkpt>
      <trkpt lat="40.689067" lon="-4.642200">
        <ele>2948.0</ele>
        <time>2014-06-30T14:37:32Z</time>
      </trkpt>
      <trkpt lat="40.689117" lon="-4.642050">
        <ele>2950.0</ele>
        <time>2014-06-30T14:37:33Z</time>
      </trkpt>
      <trkpt lat="40.689167" lon="-4.641917">
        <ele>2952.0</ele>
        <time>2014-06-30T14:37:34Z</time>
      </trkpt>
      <trkpt lat="40.689217" lon="-4.641783">
        <ele>2954.0</ele>
        <time>2014-06-30T14:37:35Z</time>
      </trkpt>
      <trkpt lat="40.689300" lon="-4.641633">
        <ele>2955.0</ele>
        <time>2014-06-30T14:37:36Z</time>
      </trkpt>
      <trkpt lat="40.689367" lon="-4.641450">
        <ele>2956.0</ele>
        <time>2014-06-30T14:37:37Z</time>
      </trkpt>
      <trkpt lat="40.689450" lon="-4.641267">
        <ele>2961.0</ele>
        <time>2014-06-30T14:37:38Z</time>
      </trkpt>
      <trkpt lat="40.689500" lon="-4.641100">
        <ele>2967.0</ele>
        <time>2014-06-30T14:37:39Z</time>
      </trkpt>
      <trkpt lat="40.689550" lon="-4.640933">
        <ele>2972.0</ele>
        <time>2014-06-30T14:37:40Z</time>
      </trkpt>
      <trkpt lat="40.689600" lon="-4.640783">
        <ele>2977.0</ele>
        <time>2014-06-30T14:37:41Z</time>
      </trkpt>
      <trkpt lat="40.689633" lon="-4.640633">
        <ele>2981.0</ele>
        <time>2014-06-30T14:37:42Z</time>
      </trkpt>
      <trkpt lat="40.689683" lon="-4.640517">
        <ele>2984.0</ele>
        <time>2014-06-30T14:37:43Z</time>
      </trkpt>
      <trkpt lat="40.689733" lon="-4.640383">
        <ele>2987.0</ele>
        <time>2014-06-30T14:37:44Z</time>
      </trkpt>
      <trkpt lat="40.689783" lon="-4.640233">
        <ele>2989.0</ele>
        <time>2014-06-30T14:37:45Z</time>
      </trkpt>
      <trkpt lat="40.689850" lon="-4.640067">
        <ele>2991.0</ele>
        <time>2014-06-30T14:37:46Z</time>
      </trkpt>
      <trkpt lat="40.689933" lon="-4.639917">
        <ele>2993.0</ele>
        <time>2014-06-30T14:37:47Z</time>
      </trkpt>
      <trkpt lat="40.690000" lon="-4.639767">
        <ele>2994.0</ele>
        <time>2014-06-30T14:37:48Z</time>
      </trkpt>
      <trkpt lat="40.690050" lon="-4.639633">
        <ele>2995.0</ele>
        <time>2014-06-30T14:37:49Z</time>
      </trkpt>
      <trkpt lat="40.690100" lon="-4.639517">
        <ele>2995.0</ele>
        <time>2014-06-30T14:37:50Z</time>
      </trkpt>
      <trkpt lat="40.690150" lon="-4.639383">
        <ele>2994.0</ele>
        <time>2014-06-30T14:37:51Z</time>
      </trkpt>
      <trkpt lat="40.690233" lon="-4.639283">
        <ele>2994.0</ele>
        <time>2014-06-30T14:37:52Z</time>
      </trkpt>
      <trkpt lat="40.690317" lon="-4.639167">
        <ele>2993.0</ele>
        <time>2014-06-30T14:37:53Z</time>
      </trkpt>
      <trkpt lat="40.690400" lon="-4.639050">
        <ele>2992.0</ele>
        <time>2014-06-30T14:37:54Z</time>
      </trkpt>
      <trkpt lat="40.690467" lon="-4.638917">
        <ele>2991.0</ele>
        <time>2014-06-30T14:37:55Z</time>
      </trkpt>
      <trkpt lat="40.690517" lon="-4.638800">
        <ele>2988.0</ele>
        <time>2014-06-30T14:37:56Z</time>
      </trkpt>
      <trkpt lat="40.690583" lon="-4.638700">
        <ele>2985.0</ele>
        <time>2014-06-30T14:37:57Z</time>
      </trkpt>
      <trkpt lat="40.690667" lon="-4.638567">
        <ele>2984.0</ele>
        <time>2014-06-30T14:37:58Z</time>
      </trkpt>
      <trkpt lat="40.690733" lon="-4.638433">
        <ele>2981.0</ele>
        <time>2014-06-30T14:37:59Z</time>
      </trkpt>
      <trkpt lat="40.690800" lon="-4.638300">
        <ele>2980.0</ele>
        <time>2014-06-30T14:38:00Z</time>
      </trkpt>
      <trkpt lat="40.690867" lon="-4.638183">
        <ele>2978.0</ele>
        <time>2014-06-30T14:38:01Z</time>
      </trkpt>
      <trkpt lat="40.690933" lon="-4.638083">
        <ele>2976.0</ele>
        <time>2014-06-30T14:38:02Z</time>
      </trkpt>
      <trkpt lat="40.691017" lon="-4.637983">
        <ele>2973.0</ele>
        <time>2014-06-30T14:38:03Z</time>
      </trkpt>
      <trkpt lat="40.691083" lon="-4.637867">
        <ele>2969.0</ele>
        <time>2014-06-30T14:38:04Z</time>
      </trkpt>
      <trkpt lat="40.691183" lon="-4.637767">
        <ele>2965.0</ele>
        <time>2014-06-30T14:38:05Z</time>
      </trkpt>
      <trkpt lat="40.691267" lon="-4.637667">
        <ele>2963.0</ele>
        <time>2014-06-30T14:38:06Z</time>
      </trkpt>
      <trkpt lat="40.691350" lon="-4.637567">
        <ele>2960.0</ele>
        <time>2014-06-30T14:38:07Z</time>
      </trkpt>
      <trkpt lat="40.691433" lon="-4.637450">
        <ele>2958.0</ele>
        <time>2014-06-30T14:38:08Z</time>
      </trkpt>
      <trkpt lat="40.691500" lon="-4.637350">
        <ele>2956.0</ele>
        <time>2014-06-30T14:38:09Z</time>
      </trkpt>
      <trkpt lat="40.691583" lon="-4.637250">
        <ele>2954.0</ele>
        <time>2014-06-30T14:38:10Z</time>
      </trkpt>
      <trkpt lat="40.691667" lon="-4.637133">
        <ele>2950.0</ele>
        <time>2014-06-30T14:38:11Z</time>
      </trkpt>
      <trkpt lat="40.691750" lon="-4.637017">
        <ele>2947.0</ele>
        <time>2014-06-30T14:38:12Z</time>
      </trkpt>
      <trkpt lat="40.691833" lon="-4.636900">
        <ele>2943.0</ele>
        <time>2014-06-30T14:38:13Z</time>
      </trkpt>
      <trkpt lat="40.691917" lon="-4.636783">
        <ele>2940.0</ele>
        <time>2014-06-30T14:38:14Z</time>
      </trkpt>
      <trkpt lat="40.692000" lon="-4.636683">
        <ele>2937.0</ele>
        <time>2014-06-30T14:38:15Z</time>
      </trkpt>
      <trkpt lat="40.692100" lon="-4.636600">
        <ele>2933.0</ele>
        <time>2014-06-30T14:38:16Z</time>
      </trkpt>
      <trkpt lat="40.692200" lon="-4.636500">
        <ele>2930.0</ele>
        <time>2014-06-30T14:38:17Z</time>
      </trkpt>
      <trkpt lat="40.692300" lon="-4.636400">
        <ele>2927.0</ele>
        <time>2014-06-30T14:38:18Z</time>
      </trkpt>
      <trkpt lat="40.692383" lon="-4.636300">
        <ele>2925.0</ele>
        <time>2014-06-30T14:38:19Z</time>
      </trkpt>
      <trkpt lat="40.692483" lon="-4.636183">
        <ele>2922.0</ele>
        <time>2014-06-30T14:38:20Z</time>
      </trkpt>
      <trkpt lat="40.692567" lon="-4.636067">
        <ele>2919.0</ele>
        <time>2014-06-30T14:38:21Z</time>
      </trkpt>
      <trkpt lat="40.692667" lon="-4.635967">
        <ele>2915.0</ele>
        <time>2014-06-30T14:38:22Z</time>
      </trkpt>
      <trkpt lat="40.692767" lon="-4.635850">
        <ele>2912.0</ele>
        <time>2014-06-30T14:38:23Z</time>
      </trkpt>
      <trkpt lat="40.692867" lon="-4.635750">
        <ele>2910.0</ele>
        <time>2014-06-30T14:38:24Z</time>
      </trkpt>
      <trkpt lat="40.692967" lon="-4.635600">
        <ele>2907.0</ele>
        <time>2014-06-30T14:38:25Z</time>
      </trkpt>
      <trkpt lat="40.693033" lon="-4.635467">
        <ele>2905.0</ele>
        <time>2014-06-30T14:38:26Z</time>
      </trkpt>
      <trkpt lat="40.693100" lon="-4.635350">
        <ele>2904.0</ele>
        <time>2014-06-30T14:38:27Z</time>
      </trkpt>
      <trkpt lat="40.693150" lon="-4.635250">
        <ele>2903.0</ele>
        <time>2014-06-30T14:38:28Z</time>
      </trkpt>
      <trkpt lat="40.693217" lon="-4.635150">
        <ele>2901.0</ele>
        <time>2014-06-30T14:38:29Z</time>
      </trkpt>
      <trkpt lat="40.693300" lon="-4.635067">
        <ele>2899.0</ele>
        <time>2014-06-30T14:38:30Z</time>
      </trkpt>
      <trkpt lat="40.693383" lon="-4.634967">
        <ele>2897.0</ele>
        <time>2014-06-30T14:38:31Z</time>
      </trkpt>
      <trkpt lat="40.693500" lon="-4.634867">
        <ele>2895.0</ele>
        <time>2014-06-30T14:38:32Z</time>
      </trkpt>
      <trkpt lat="40.693600" lon="-4.634750">
        <ele>2893.0</ele>
        <time>2014-06-30T14:38:33Z</time>
      </trkpt>
      <trkpt lat="40.693700" lon="-4.634650">
        <ele>2891.0</ele>
        <time>2014-06-30T14:38:34Z</time>
      </trkpt>
      <trkpt lat="40.693783" lon="-4.634550">
        <ele>2891.0</ele>
        <time>2014-06-30T14:38:35Z</time>
      </trkpt>
      <trkpt lat="40.693850" lon="-4.634467">
        <ele>2889.0</ele>
        <time>2014-06-30T14:38:36Z</time>
      </trkpt>
      <trkpt lat="40.693933" lon="-4.634367">
        <ele>2888.0</ele>
        <time>2014-06-30T14:38:37Z</time>
      </trkpt>
      <trkpt lat="40.694017" lon="-4.634267">
        <ele>2886.0</ele>
        <time>2014-06-30T14:38:38Z</time>
      </trkpt>
      <trkpt lat="40.694100" lon="-4.634150">
        <ele>2884.0</ele>
        <time>2014-06-30T14:38:39Z</time>
      </trkpt>
      <trkpt lat="40.694183" lon="-4.634050">
        <ele>2884.0</ele>
        <time>2014-06-30T14:38:40Z</time>
      </trkpt>
      <trkpt lat="40.694267" lon="-4.633950">
        <ele>2883.0</ele>
        <time>2014-06-30T14:38:41Z</time>
      </trkpt>
      <trkpt lat="40.694350" lon="-4.633867">
        <ele>2882.0</ele>
        <time>2014-06-30T14:38:42Z</time>
      </trkpt>
      <trkpt lat="40.694417" lon="-4.633783">
        <ele>2880.0</ele>
        <time>2014-06-30T14:38:43Z</time>
      </trkpt>
      <trkpt lat="40.694500" lon="-4.633700">
        <ele>2879.0</ele>
        <time>2014-06-30T14:38:44Z</time>
      </trkpt>
      <trkpt lat="40.694600" lon="-4.633600">
        <ele>2876.0</ele>
        <time>2014-06-30T14:38:45Z</time>
      </trkpt>
      <trkpt lat="40.694683" lon="-4.633500">
        <ele>2874.0</ele>
        <time>2014-06-30T14:38:46Z</time>
      </trkpt>
      <trkpt lat="40.694783" lon="-4.633400">
        <ele>2871.0</ele>
        <time>2014-06-30T14:38:47Z</time>
      </trkpt>
      <trkpt lat="40.694867" lon="-4.633300">
        <ele>2870.0</ele>
        <time>2014-06-30T14:38:48Z</time>
      </trkpt>
      <trkpt lat="40.694950" lon="-4.633200">
        <ele>2867.0</ele>
        <time>2014-06-30T14:38:49Z</time>
      </trkpt>
      <trkpt lat="40.695017" lon="-4.633083">
        <ele>2863.0</ele>
        <time>2014-06-30T14:38:50Z</time>
      </trkpt>
      <trkpt lat="40.695100" lon="-4.632983">
        <ele>2860.0</ele>
        <time>2014-06-30T14:38:51Z</time>
      </trkpt>
      <trkpt lat="40.695183" lon="-4.632867">
        <ele>2854.0</ele>
        <time>2014-06-30T14:38:52Z</time>
      </trkpt>
      <trkpt lat="40.695267" lon="-4.632750">
        <ele>2850.0</ele>
        <time>2014-06-30T14:38:53Z</time>
      </trkpt>
      <trkpt lat="40.695367" lon="-4.632617">
        <ele>2846.0</ele>
        <time>2014-06-30T14:38:54Z</time>
      </trkpt>
      <trkpt lat="40.695450" lon="-4.632483">
        <ele>2842.0</ele>
        <time>2014-06-30T14:38:55Z</time>
      </trkpt>
      <trkpt lat="40.695517" lon="-4.632367">
        <ele>2839.0</ele>
        <time>2014-06-30T14:38:56Z</time>
      </trkpt>
      <trkpt lat="40.695600" lon="-4.632233">
        <ele>2835.0</ele>
        <time>2014-06-30T14:38:57Z</time>
      </trkpt>
      <trkpt lat="40.695683" lon="-4.632100">
        <ele>2831.0</ele>
        <time>2014-06-30T14:38:58Z</time>
      </trkpt>
      <trkpt lat="40.695767" lon="-4.631933">
        <ele>2827.0</ele>
        <time>2014-06-30T14:38:59Z</time>
      </trkpt>
      <trkpt lat="40.695817" lon="-4.631750">
        <ele>2823.0</ele>
        <time>2014-06-30T14:39:00Z</time>
      </trkpt>
      <trkpt lat="40.695850" lon="-4.631550">
        <ele>2820.0</ele>
        <time>2014-06-30T14:39:01Z</time>
      </trkpt>
      <trkpt lat="40.695900" lon="-4.631383">
        <ele>2817.0</ele>
        <time>2014-06-30T14:39:02Z</time>
      </trkpt>
      <trkpt lat="40.695950" lon="-4.631217">
        <ele>2813.0</ele>
        <time>2014-06-30T14:39:03Z</time>
      </trkpt>
      <trkpt lat="40.696000" lon="-4.631050">
        <ele>2809.0</ele>
        <time>2014-06-30T14:39:04Z</time>
      </trkpt>
      <trkpt lat="40.696050" lon="-4.630867">
        <ele>2805.0</ele>
        <time>2014-06-30T14:39:05Z</time>
      </trkpt>
      <trkpt lat="40.696067" lon="-4.630650">
        <ele>2800.0</ele>
        <time>2014-06-30T14:39:06Z</time>
      </trkpt>
      <trkpt lat="40.696100" lon="-4.630450">
        <ele>2796.0</ele>
        <time>2014-06-30T14:39:07Z</time>
      </trkpt>
      <trkpt lat="40.696167" lon="-4.630250">
        <ele>2792.0</ele>
        <time>2014-06-30T14:39:08Z</time>
      </trkpt>
      <trkpt lat="40.696217" lon="-4.630050">
        <ele>2790.0</ele>
        <time>2014-06-30T14:39:09Z</time>
      </trkpt>
      <trkpt lat="40.696250" lon="-4.629867">
        <ele>2788.0</ele>
        <time>2014-06-30T14:39:10Z</time>
      </trkpt>
      <trkpt lat="40.696267" lon="-4.629683">
        <ele>2786.0</ele>
        <time>2014-06-30T14:39:11Z</time>
      </trkpt>
      <trkpt lat="40.696267" lon="-4.629500">
        <ele>2783.0</ele>
        <time>2014-06-30T14:39:12Z</time>
      </trkpt>
      <trkpt lat="40.696300" lon="-4.629317">
        <ele>2779.0</ele>
        <time>2014-06-30T14:39:13Z</time>
      </trkpt>
      <trkpt lat="40.696367" lon="-4.629150">
        <ele>2775.0</ele>
        <time>2014-06-30T14:39:14Z</time>
      </trkpt>
      <trkpt lat="40.696417" lon="-4.628983">
        <ele>2772.0</ele>
        <time>2014-06-30T14:39:15Z</time>
      </trkpt>
      <trkpt lat="40.696450" lon="-4.628767">
        <ele>2768.0</ele>
        <time>2014-06-30T14:39:16Z</time>
      </trkpt>
      <trkpt lat="40.696467" lon="-4.628567">
        <ele>2764.0</ele>
        <time>2014-06-30T14:39:17Z</time>
      </trkpt>
      <trkpt lat="40.696483" lon="-4.628383">
        <ele>2762.0</ele>
        <time>2014-06-30T14:39:18Z</time>
      </trkpt>
      <trkpt lat="40.696517" lon="-4.628217">
        <ele>2758.0</ele>
        <time>2014-06-30T14:39:19Z</time>
      </trkpt>
      <trkpt lat="40.696567" lon="-4.628033">
        <ele>2754.0</ele>
        <time>2014-06-30T14:39:20Z</time>
      </trkpt>
      <trkpt lat="40.696600" lon="-4.627850">
        <ele>2749.0</ele>
        <time>2014-06-30T14:39:21Z</time>
      </trkpt>
      <trkpt lat="40.696617" lon="-4.627617">
        <ele>2745.0</ele>
        <time>2014-06-30T14:39:22Z</time>
      </trkpt>
      <trkpt lat="40.696633" lon="-4.627383">
        <ele>2741.0</ele>
        <time>2014-06-30T14:39:23Z</time>
      </trkpt>
      <trkpt lat="40.696650" lon="-4.627167">
        <ele>2738.0</ele>
        <time>2014-06-30T14:39:24Z</time>
      </trkpt>
      <trkpt lat="40.696683" lon="-4.627000">
        <ele>2736.0</ele>
        <time>2014-06-30T14:39:25Z</time>
      </trkpt>
      <trkpt lat="40.696717" lon="-4.626850">
        <ele>2734.0</ele>
        <time>2014-06-30T14:39:26Z</time>
      </trkpt>
      <trkpt lat="40.696733" lon="-4.626700">
        <ele>2732.0</ele>
        <time>2014-06-30T14:39:27Z</time>
      </trkpt>
      <trkpt lat="40.696750" lon="-4.626533">
        <ele>2730.0</ele>
        <time>2014-06-30T14:39:28Z</time>
      </trkpt>
      <trkpt lat="40.696767" lon="-4.626367">
        <ele>2728.0</ele>
        <time>2014-06-30T14:39:29Z</time>
      </trkpt>
      <trkpt lat="40.696800" lon="-4.626167">
        <ele>2725.0</ele>
        <time>2014-06-30T14:39:30Z</time>
      </trkpt>
      <trkpt lat="40.696833" lon="-4.625967">
        <ele>2724.0</ele>
        <time>2014-06-30T14:39:31Z</time>
      </trkpt>
      <trkpt lat="40.696867" lon="-4.625767">
        <ele>2721.0</ele>
        <time>2014-06-30T14:39:32Z</time>
      </trkpt>
      <trkpt lat="40.696900" lon="-4.625617">
        <ele>2721.0</ele>
        <time>2014-06-30T14:39:33Z</time>
      </trkpt>
      <trkpt lat="40.696950" lon="-4.625450">
        <ele>2720.0</ele>
        <time>2014-06-30T14:39:34Z</time>
      </trkpt>
      <trkpt lat="40.697017" lon="-4.625300">
        <ele>2717.0</ele>
        <time>2014-06-30T14:39:35Z</time>
      </trkpt>
      <trkpt lat="40.697083" lon="-4.625133">
        <ele>2713.0</ele>
        <time>2014-06-30T14:39:36Z</time>
      </trkpt>
      <trkpt lat="40.697150" lon="-4.624950">
        <ele>2710.0</ele>
        <time>2014-06-30T14:39:37Z</time>
      </trkpt>
      <trkpt lat="40.697200" lon="-4.624750">
        <ele>2707.0</ele>
        <time>2014-06-30T14:39:38Z</time>
      </trkpt>
      <trkpt lat="40.697250" lon="-4.624567">
        <ele>2704.0</ele>
        <time>2014-06-30T14:39:39Z</time>
      </trkpt>
      <trkpt lat="40.697317" lon="-4.624400">
        <ele>2701.0</ele>
        <time>2014-06-30T14:39:40Z</time>
      </trkpt>
      <trkpt lat="40.697400" lon="-4.624233">
        <ele>2698.0</ele>
        <time>2014-06-30T14:39:41Z</time>
      </trkpt>
      <trkpt lat="40.697450" lon="-4.624033">
        <ele>2694.0</ele>
        <time>2014-06-30T14:39:42Z</time>
      </trkpt>
      <trkpt lat="40.697500" lon="-4.623833">
        <ele>2691.0</ele>
        <time>2014-06-30T14:39:43Z</time>
      </trkpt>
      <trkpt lat="40.697550" lon="-4.623633">
        <ele>2688.0</ele>
        <time>2014-06-30T14:39:44Z</time>
      </trkpt>
      <trkpt lat="40.697617" lon="-4.623450">
        <ele>2684.0</ele>
        <time>2014-06-30T14:39:45Z</time>
      </trkpt>
      <trkpt lat="40.697683" lon="-4.623283">
        <ele>2680.0</ele>
        <time>2014-06-30T14:39:46Z</time>
      </trkpt>
      <trkpt lat="40.697750" lon="-4.623133">
        <ele>2676.0</ele>
        <time>2014-06-30T14:39:47Z</time>
      </trkpt>
      <trkpt lat="40.697833" lon="-4.622983">
        <ele>2672.0</ele>
        <time>2014-06-30T14:39:48Z</time>
      </trkpt>
      <trkpt lat="40.697900" lon="-4.622800">
        <ele>2667.0</ele>
        <time>2014-06-30T14:39:49Z</time>
      </trkpt>
      <trkpt lat="40.697983" lon="-4.622600">
        <ele>2663.0</ele>
        <time>2014-06-30T14:39:50Z</time>
      </trkpt>
      <trkpt lat="40.698067" lon="-4.622417">
        <ele>2659.0</ele>
        <time>2014-06-30T14:39:51Z</time>
      </trkpt>
      <trkpt lat="40.698167" lon="-4.622250">
        <ele>2657.0</ele>
        <time>2014-06-30T14:39:52Z</time>
      </trkpt>
      <trkpt lat="40.698250" lon="-4.622100">
        <ele>2653.0</ele>
        <time>2014-06-30T14:39:53Z</time>
      </trkpt>
      <trkpt lat="40.698333" lon="-4.621950">
        <ele>2649.0</ele>
        <time>2014-06-30T14:39:54Z</time>
      </trkpt>
      <trkpt lat="40.698417" lon="-4.621817">
        <ele>2643.0</ele>
        <time>2014-06-30T14:39:55Z</time>
      </trkpt>
      <trkpt lat="40.698517" lon="-4.621667">
        <ele>2638.0</ele>
        <time>2014-06-30T14:39:56Z</time>
      </trkpt>
      <trkpt lat="40.698600" lon="-4.621500">
        <ele>2632.0</ele>
        <time>2014-06-30T14:39:57Z</time>
      </trkpt>
      <trkpt lat="40.698700" lon="-4.621317">
        <ele>2627.0</ele>
        <time>2014-06-30T14:39:58Z</time>
      </trkpt>
      <trkpt lat="40.698783" lon="-4.621133">
        <ele>2622.0</ele>
        <time>2014-06-30T14:39:59Z</time>
      </trkpt>
      <trkpt lat="40.698867" lon="-4.620967">
        <ele>2617.0</ele>
        <time>2014-06-30T14:40:00Z</time>
      </trkpt>
      <trkpt lat="40.698950" lon="-4.620800">
        <ele>2612.0</ele>
        <time>2014-06-30T14:40:01Z</time>
      </trkpt>
      <trkpt lat="40.699033" lon="-4.620633">
        <ele>2607.0</ele>
        <time>2014-06-30T14:40:02Z</time>
      </trkpt>
      <trkpt lat="40.699117" lon="-4.620467">
        <ele>2604.0</ele>
        <time>2014-06-30T14:40:03Z</time>
      </trkpt>
      <trkpt lat="40.699183" lon="-4.620283">
        <ele>2600.0</ele>
        <time>2014-06-30T14:40:04Z</time>
      </trkpt>
      <trkpt lat="40.699267" lon="-4.620100">
        <ele>2596.0</ele>
        <time>2014-06-30T14:40:05Z</time>
      </trkpt>
      <trkpt lat="40.699350" lon="-4.619933">
        <ele>2593.0</ele>
        <time>2014-06-30T14:40:06Z</time>
      </trkpt>
      <trkpt lat="40.699433" lon="-4.619783">
        <ele>2591.0</ele>
        <time>2014-06-30T14:40:07Z</time>
      </trkpt>
      <trkpt lat="40.699500" lon="-4.619650">
        <ele>2589.0</ele>
        <time>2014-06-30T14:40:08Z</time>
      </trkpt>
      <trkpt lat="40.699567" lon="-4.619483">
        <ele>2588.0</ele>
        <time>2014-06-30T14:40:09Z</time>
      </trkpt>
      <trkpt lat="40.699633" lon="-4.619350">
        <ele>2588.0</ele>
        <time>2014-06-30T14:40:10Z</time>
      </trkpt>
      <trkpt lat="40.699667" lon="-4.619217">
        <ele>2587.0</ele>
        <time>2014-06-30T14:40:11Z</time>
      </trkpt>
      <trkpt lat="40.699733" lon="-4.619083">
        <ele>2585.0</ele>
        <time>2014-06-30T14:40:12Z</time>
      </trkpt>
      <trkpt lat="40.699800" lon="-4.618950">
        <ele>2583.0</ele>
        <time>2014-06-30T14:40:13Z</time>
      </trkpt>
      <trkpt lat="40.699850" lon="-4.618817">
        <ele>2582.0</ele>
        <time>2014-06-30T14:40:14Z</time>
      </trkpt>
      <trkpt lat="40.699900" lon="-4.618667">
        <ele>2580.0</ele>
        <time>2014-06-30T14:40:15Z</time>
      </trkpt>
      <trkpt lat="40.699950" lon="-4.618533">
        <ele>2579.0</ele>
        <time>2014-06-30T14:40:16Z</time>
      </trkpt>
      <trkpt lat="40.700000" lon="-4.618383">
        <ele>2577.0</ele>
        <time>2014-06-30T14:40:17Z</time>
      </trkpt>
      <trkpt lat="40.700083" lon="-4.618267">
        <ele>2576.0</ele>
        <time>2014-06-30T14:40:18Z</time>
      </trkpt>
      <trkpt lat="40.700167" lon="-4.618133">
        <ele>2576.0</ele>
        <time>2014-06-30T14:40:19Z</time>
      </trkpt>
      <trkpt lat="40.700217" lon="-4.618000">
        <ele>2574.0</ele>
        <time>2014-06-30T14:40:20Z</time>
      </trkpt>
      <trkpt lat="40.700283" lon="-4.617867">
        <ele>2572.0</ele>
        <time>2014-06-30T14:40:21Z</time>
      </trkpt>
      <trkpt lat="40.700350" lon="-4.617717">
        <ele>2571.0</ele>
        <time>2014-06-30T14:40:22Z</time>
      </trkpt>
      <trkpt lat="40.700417" lon="-4.617583">
        <ele>2569.0</ele>
        <time>2014-06-30T14:40:23Z</time>
      </trkpt>
      <trkpt lat="40.700500" lon="-4.617433">
        <ele>2567.0</ele>
        <time>2014-06-30T14:40:24Z</time>
      </trkpt>
      <trkpt lat="40.700567" lon="-4.617283">
        <ele>2565.0</ele>
        <time>2014-06-30T14:40:25Z</time>
      </trkpt>
      <trkpt lat="40.700633" lon="-4.617133">
        <ele>2562.0</ele>
        <time>2014-06-30T14:40:26Z</time>
      </trkpt>
      <trkpt lat="40.700717" lon="-4.616983">
        <ele>2560.0</ele>
        <time>2014-06-30T14:40:27Z</time>
      </trkpt>
      <trkpt lat="40.700783" lon="-4.616833">
        <ele>2557.0</ele>
        <time>2014-06-30T14:40:28Z</time>
      </trkpt>
      <trkpt lat="40.700867" lon="-4.616667">
        <ele>2554.0</ele>
        <time>2014-06-30T14:40:29Z</time>
      </trkpt>
      <trkpt lat="40.700933" lon="-4.616500">
        <ele>2552.0</ele>
        <time>2014-06-30T14:40:30Z</time>
      </trkpt>
      <trkpt lat="40.701000" lon="-4.616350">
        <ele>2550.0</ele>
        <time>2014-06-30T14:40:31Z</time>
      </trkpt>
      <trkpt lat="40.701050" lon="-4.616200">
        <ele>2548.0</ele>
        <time>2014-06-30T14:40:32Z</time>
      </trkpt>
      <trkpt lat="40.701117" lon="-4.616067">
        <ele>2544.0</ele>
        <time>2014-06-30T14:40:33Z</time>
      </trkpt>
      <trkpt lat="40.701183" lon="-4.615950">
        <ele>2541.0</ele>
        <time>2014-06-30T14:40:34Z</time>
      </trkpt>
      <trkpt lat="40.701250" lon="-4.615800">
        <ele>2537.0</ele>
        <time>2014-06-30T14:40:35Z</time>
      </trkpt>
      <trkpt lat="40.701300" lon="-4.615650">
        <ele>2532.0</ele>
        <time>2014-06-30T14:40:36Z</time>
      </trkpt>
      <trkpt lat="40.701367" lon="-4.615483">
        <ele>2528.0</ele>
        <time>2014-06-30T14:40:37Z</time>
      </trkpt>
      <trkpt lat="40.701433" lon="-4.615317">
        <ele>2525.0</ele>
        <time>2014-06-30T14:40:38Z</time>
      </trkpt>
      <trkpt lat="40.701500" lon="-4.615183">
        <ele>2521.0</ele>
        <time>2014-06-30T14:40:39Z</time>
      </trkpt>
      <trkpt lat="40.701550" lon="-4.615050">
        <ele>2517.0</ele>
        <time>2014-06-30T14:40:40Z</time>
      </trkpt>
      <trkpt lat="40.701617" lon="-4.614917">
        <ele>2513.0</ele>
        <time>2014-06-30T14:40:41Z</time>
      </trkpt>
      <trkpt lat="40.701700" lon="-4.614767">
        <ele>2508.0</ele>
        <time>2014-06-30T14:40:42Z</time>
      </trkpt>
      <trkpt lat="40.701783" lon="-4.614600">
        <ele>2503.0</ele>
        <time>2014-06-30T14:40:43Z</time>
      </trkpt>
      <trkpt lat="40.701867" lon="-4.614417">
        <ele>2499.0</ele>
        <time>2014-06-30T14:40:44Z</time>
      </trkpt>
      <trkpt lat="40.701933" lon="-4.614233">
        <ele>2496.0</ele>
        <time>2014-06-30T14:40:45Z</time>
      </trkpt>
      <trkpt lat="40.702000" lon="-4.614033">
        <ele>2494.0</ele>
        <time>2014-06-30T14:40:46Z</time>
      </trkpt>
      <trkpt lat="40.702050" lon="-4.613867">
        <ele>2491.0</ele>
        <time>2014-06-30T14:40:47Z</time>
      </trkpt>
      <trkpt lat="40.702100" lon="-4.613717">
        <ele>2487.0</ele>
        <time>2014-06-30T14:40:48Z</time>
      </trkpt>
      <trkpt lat="40.702150" lon="-4.613567">
        <ele>2483.0</ele>
        <time>2014-06-30T14:40:49Z</time>
      </trkpt>
      <trkpt lat="40.702200" lon="-4.613383">
        <ele>2479.0</ele>
        <time>2014-06-30T14:40:50Z</time>
      </trkpt>
      <trkpt lat="40.702233" lon="-4.613183">
        <ele>2474.0</ele>
        <time>2014-06-30T14:40:51Z</time>
      </trkpt>
      <trkpt lat="40.702250" lon="-4.612967">
        <ele>2471.0</ele>
        <time>2014-06-30T14:40:52Z</time>
      </trkpt>
      <trkpt lat="40.702267" lon="-4.612767">
        <ele>2468.0</ele>
        <time>2014-06-30T14:40:53Z</time>
      </trkpt>
      <trkpt lat="40.702300" lon="-4.612583">
        <ele>2465.0</ele>
        <time>2014-06-30T14:40:54Z</time>
      </trkpt>
      <trkpt lat="40.702333" lon="-4.612433">
        <ele>2463.0</ele>
        <time>2014-06-30T14:40:55Z</time>
      </trkpt>
      <trkpt lat="40.702367" lon="-4.612283">
        <ele>2460.0</ele>
        <time>2014-06-30T14:40:56Z</time>
      </trkpt>
      <trkpt lat="40.702400" lon="-4.612133">
        <ele>2456.0</ele>
        <time>2014-06-30T14:40:57Z</time>
      </trkpt>
      <trkpt lat="40.702417" lon="-4.611950">
        <ele>2453.0</ele>
        <time>2014-06-30T14:40:58Z</time>
      </trkpt>
      <trkpt lat="40.702450" lon="-4.611783">
        <ele>2450.0</ele>
        <time>2014-06-30T14:40:59Z</time>
      </trkpt>
      <trkpt lat="40.702500" lon="-4.611617">
        <ele>2447.0</ele>
        <time>2014-06-30T14:41:00Z</time>
      </trkpt>
      <trkpt lat="40.702550" lon="-4.611433">
        <ele>2444.0</ele>
        <time>2014-06-30T14:41:01Z</time>
      </trkpt>
      <trkpt lat="40.702600" lon="-4.611267">
        <ele>2442.0</ele>
        <time>2014-06-30T14:41:02Z</time>
      </trkpt>
      <trkpt lat="40.702633" lon="-4.611100">
        <ele>2439.0</ele>
        <time>2014-06-30T14:41:03Z</time>
      </trkpt>
      <trkpt lat="40.702667" lon="-4.610917">
        <ele>2436.0</ele>
        <time>2014-06-30T14:41:04Z</time>
      </trkpt>
      <trkpt lat="40.702717" lon="-4.610733">
        <ele>2433.0</ele>
        <time>2014-06-30T14:41:05Z</time>
      </trkpt>
      <trkpt lat="40.702767" lon="-4.610567">
        <ele>2432.0</ele>
        <time>2014-06-30T14:41:06Z</time>
      </trkpt>
      <trkpt lat="40.702817" lon="-4.610417">
        <ele>2430.0</ele>
        <time>2014-06-30T14:41:07Z</time>
      </trkpt>
      <trkpt lat="40.702867" lon="-4.610283">
        <ele>2428.0</ele>
        <time>2014-06-30T14:41:08Z</time>
      </trkpt>
      <trkpt lat="40.702900" lon="-4.610150">
        <ele>2425.0</ele>
        <time>2014-06-30T14:41:09Z</time>
      </trkpt>
      <trkpt lat="40.702933" lon="-4.610017">
        <ele>2422.0</ele>
        <time>2014-06-30T14:41:10Z</time>
      </trkpt>
      <trkpt lat="40.702983" lon="-4.609867">
        <ele>2418.0</ele>
        <time>2014-06-30T14:41:11Z</time>
      </trkpt>
      <trkpt lat="40.703033" lon="-4.609700">
        <ele>2414.0</ele>
        <time>2014-06-30T14:41:12Z</time>
      </trkpt>
      <trkpt lat="40.703083" lon="-4.609533">
        <ele>2410.0</ele>
        <time>2014-06-30T14:41:13Z</time>
      </trkpt>
      <trkpt lat="40.703133" lon="-4.609383">
        <ele>2406.0</ele>
        <time>2014-06-30T14:41:14Z</time>
      </trkpt>
      <trkpt lat="40.703183" lon="-4.609217">
        <ele>2402.0</ele>
        <time>2014-06-30T14:41:15Z</time>
      </trkpt>
      <trkpt lat="40.703217" lon="-4.609083">
        <ele>2398.0</ele>
        <time>2014-06-30T14:41:16Z</time>
      </trkpt>
      <trkpt lat="40.703267" lon="-4.608917">
        <ele>2393.0</ele>
        <time>2014-06-30T14:41:17Z</time>
      </trkpt>
      <trkpt lat="40.703333" lon="-4.608783">
        <ele>2388.0</ele>
        <time>2014-06-30T14:41:18Z</time>
      </trkpt>
      <trkpt lat="40.703383" lon="-4.608617">
        <ele>2384.0</ele>
        <time>2014-06-30T14:41:19Z</time>
      </trkpt>
      <trkpt lat="40.703417" lon="-4.608417">
        <ele>2379.0</ele>
        <time>2014-06-30T14:41:20Z</time>
      </trkpt>
      <trkpt lat="40.703483" lon="-4.608217">
        <ele>2374.0</ele>
        <time>2014-06-30T14:41:21Z</time>
      </trkpt>
      <trkpt lat="40.703533" lon="-4.608033">
        <ele>2370.0</ele>
        <time>2014-06-30T14:41:22Z</time>
      </trkpt>
      <trkpt lat="40.703600" lon="-4.607867">
        <ele>2365.0</ele>
        <time>2014-06-30T14:41:23Z</time>
      </trkpt>
      <trkpt lat="40.703667" lon="-4.607700">
        <ele>2361.0</ele>
        <time>2014-06-30T14:41:24Z</time>
      </trkpt>
      <trkpt lat="40.703733" lon="-4.607517">
        <ele>2355.0</ele>
        <time>2014-06-30T14:41:25Z</time>
      </trkpt>
      <trkpt lat="40.703800" lon="-4.607317">
        <ele>2350.0</ele>
        <time>2014-06-30T14:41:26Z</time>
      </trkpt>
      <trkpt lat="40.703867" lon="-4.607133">
        <ele>2345.0</ele>
        <time>2014-06-30T14:41:27Z</time>
      </trkpt>
      <trkpt lat="40.703933" lon="-4.606950">
        <ele>2341.0</ele>
        <time>2014-06-30T14:41:28Z</time>
      </trkpt>
      <trkpt lat="40.704017" lon="-4.606783">
        <ele>2338.0</ele>
        <time>2014-06-30T14:41:29Z</time>
      </trkpt>
      <trkpt lat="40.704083" lon="-4.606617">
        <ele>2334.0</ele>
        <time>2014-06-30T14:41:30Z</time>
      </trkpt>
      <trkpt lat="40.704150" lon="-4.606450">
        <ele>2329.0</ele>
        <time>2014-06-30T14:41:31Z</time>
      </trkpt>
      <trkpt lat="40.704217" lon="-4.606267">
        <ele>2325.0</ele>
        <time>2014-06-30T14:41:32Z</time>
      </trkpt>
      <trkpt lat="40.704283" lon="-4.606100">
        <ele>2320.0</ele>
        <time>2014-06-30T14:41:33Z</time>
      </trkpt>
      <trkpt lat="40.704367" lon="-4.605933">
        <ele>2315.0</ele>
        <time>2014-06-30T14:41:34Z</time>
      </trkpt>
      <trkpt lat="40.704433" lon="-4.605767">
        <ele>2311.0</ele>
        <time>2014-06-30T14:41:35Z</time>
      </trkpt>
      <trkpt lat="40.704483" lon="-4.605583">
        <ele>2306.0</ele>
        <time>2014-06-30T14:41:36Z</time>
      </trkpt>
      <trkpt lat="40.704533" lon="-4.605367">
        <ele>2300.0</ele>
        <time>2014-06-30T14:41:37Z</time>
      </trkpt>
      <trkpt lat="40.704567" lon="-4.605167">
        <ele>2296.0</ele>
        <time>2014-06-30T14:41:38Z</time>
      </trkpt>
      <trkpt lat="40.704617" lon="-4.604967">
        <ele>2293.0</ele>
        <time>2014-06-30T14:41:39Z</time>
      </trkpt>
      <trkpt lat="40.704650" lon="-4.604783">
        <ele>2289.0</ele>
        <time>2014-06-30T14:41:40Z</time>
      </trkpt>
      <trkpt lat="40.704683" lon="-4.604633">
        <ele>2285.0</ele>
        <time>2014-06-30T14:41:41Z</time>
      </trkpt>
      <trkpt lat="40.704717" lon="-4.604483">
        <ele>2280.0</ele>
        <time>2014-06-30T14:41:42Z</time>
      </trkpt>
      <trkpt lat="40.704767" lon="-4.604300">
        <ele>2275.0</ele>
        <time>2014-06-30T14:41:43Z</time>
      </trkpt>
      <trkpt lat="40.704833" lon="-4.604133">
        <ele>2269.0</ele>
        <time>2014-06-30T14:41:44Z</time>
      </trkpt>
      <trkpt lat="40.704900" lon="-4.603933">
        <ele>2265.0</ele>
        <time>2014-06-30T14:41:45Z</time>
      </trkpt>
      <trkpt lat="40.704967" lon="-4.603750">
        <ele>2262.0</ele>
        <time>2014-06-30T14:41:46Z</time>
      </trkpt>
      <trkpt lat="40.705017" lon="-4.603567">
        <ele>2259.0</ele>
        <time>2014-06-30T14:41:47Z</time>
      </trkpt>
      <trkpt lat="40.705050" lon="-4.603400">
        <ele>2257.0</ele>
        <time>2014-06-30T14:41:48Z</time>
      </trkpt>
      <trkpt lat="40.705117" lon="-4.603250">
        <ele>2253.0</ele>
        <time>2014-06-30T14:41:49Z</time>
      </trkpt>
      <trkpt lat="40.705183" lon="-4.603100">
        <ele>2249.0</ele>
        <time>2014-06-30T14:41:50Z</time>
      </trkpt>
      <trkpt lat="40.705250" lon="-4.602933">
        <ele>2245.0</ele>
        <time>2014-06-30T14:41:51Z</time>
      </trkpt>
      <trkpt lat="40.705317" lon="-4.602733">
        <ele>2242.0</ele>
        <time>2014-06-30T14:41:52Z</time>
      </trkpt>
      <trkpt lat="40.705350" lon="-4.602517">
        <ele>2239.0</ele>
        <time>2014-06-30T14:41:53Z</time>
      </trkpt>
      <trkpt lat="40.705400" lon="-4.602300">
        <ele>2236.0</ele>
        <time>2014-06-30T14:41:54Z</time>
      </trkpt>
      <trkpt lat="40.705450" lon="-4.602133">
        <ele>2234.0</ele>
        <time>2014-06-30T14:41:55Z</time>
      </trkpt>
      <trkpt lat="40.705517" lon="-4.601950">
        <ele>2232.0</ele>
        <time>2014-06-30T14:41:56Z</time>
      </trkpt>
      <trkpt lat="40.705567" lon="-4.601800">
        <ele>2231.0</ele>
        <time>2014-06-30T14:41:57Z</time>
      </trkpt>
      <trkpt lat="40.705617" lon="-4.601633">
        <ele>2229.0</ele>
        <time>2014-06-30T14:41:58Z</time>
      </trkpt>
      <trkpt lat="40.705667" lon="-4.601467">
        <ele>2226.0</ele>
        <time>2014-06-30T14:41:59Z</time>
      </trkpt>
      <trkpt lat="40.705733" lon="-4.601283">
        <ele>2223.0</ele>
        <time>2014-06-30T14:42:00Z</time>
      </trkpt>
      <trkpt lat="40.705800" lon="-4.601100">
        <ele>2221.0</ele>
        <time>2014-06-30T14:42:01Z</time>
      </trkpt>
      <trkpt lat="40.705867" lon="-4.600917">
        <ele>2218.0</ele>
        <time>2014-06-30T14:42:02Z</time>
      </trkpt>
      <trkpt lat="40.705917" lon="-4.600750">
        <ele>2216.0</ele>
        <time>2014-06-30T14:42:03Z</time>
      </trkpt>
      <trkpt lat="40.705983" lon="-4.600600">
        <ele>2215.0</ele>
        <time>2014-06-30T14:42:04Z</time>
      </trkpt>
      <trkpt lat="40.706067" lon="-4.600450">
        <ele>2214.0</ele>
        <time>2014-06-30T14:42:05Z</time>
      </trkpt>
      <trkpt lat="40.706167" lon="-4.600300">
        <ele>2214.0</ele>
        <time>2014-06-30T14:42:06Z</time>
      </trkpt>
      <trkpt lat="40.706250" lon="-4.600167">
        <ele>2213.0</ele>
        <time>2014-06-30T14:42:07Z</time>
      </trkpt>
      <trkpt lat="40.706317" lon="-4.600017">
        <ele>2213.0</ele>
        <time>2014-06-30T14:42:08Z</time>
      </trkpt>
      <trkpt lat="40.706400" lon="-4.599883">
        <ele>2214.0</ele>
        <time>2014-06-30T14:42:09Z</time>
      </trkpt>
      <trkpt lat="40.706483" lon="-4.599750">
        <ele>2215.0</ele>
        <time>2014-06-30T14:42:10Z</time>
      </trkpt>
      <trkpt lat="40.706567" lon="-4.599650">
        <ele>2214.0</ele>
        <time>2014-06-30T14:42:11Z</time>
      </trkpt>
      <trkpt lat="40.706667" lon="-4.599533">
        <ele>2213.0</ele>
        <time>2014-06-30T14:42:12Z</time>
      </trkpt>
      <trkpt lat="40.706767" lon="-4.599417">
        <ele>2212.0</ele>
        <time>2014-06-30T14:42:13Z</time>
      </trkpt>
      <trkpt lat="40.706850" lon="-4.599283">
        <ele>2210.0</ele>
        <time>2014-06-30T14:42:14Z</time>
      </trkpt>
      <trkpt lat="40.706950" lon="-4.599167">
        <ele>2209.0</ele>
        <time>2014-06-30T14:42:15Z</time>
      </trkpt>
      <trkpt lat="40.707050" lon="-4.599033">
        <ele>2208.0</ele>
        <time>2014-06-30T14:42:16Z</time>
      </trkpt>
      <trkpt lat="40.707167" lon="-4.598917">
        <ele>2207.0</ele>
        <time>2014-06-30T14:42:17Z</time>
      </trkpt>
      <trkpt lat="40.707267" lon="-4.598817">
        <ele>2207.0</ele>
        <time>2014-06-30T14:42:18Z</time>
      </trkpt>
      <trkpt lat="40.707367" lon="-4.598700">
        <ele>2207.0</ele>
        <time>2014-06-30T14:42:19Z</time>
      </trkpt>
      <trkpt lat="40.707450" lon="-4.598583">
        <ele>2206.0</ele>
        <time>2014-06-30T14:42:20Z</time>
      </trkpt>
      <trkpt lat="40.707533" lon="-4.598483">
        <ele>2205.0</ele>
        <time>2014-06-30T14:42:21Z</time>
      </trkpt>
      <trkpt lat="40.707617" lon="-4.598367">
        <ele>2204.0</ele>
        <time>2014-06-30T14:42:22Z</time>
      </trkpt>
      <trkpt lat="40.707717" lon="-4.598250">
        <ele>2204.0</ele>
        <time>2014-06-30T14:42:23Z</time>
      </trkpt>
      <trkpt lat="40.707800" lon="-4.598150">
        <ele>2203.0</ele>
        <time>2014-06-30T14:42:24Z</time>
      </trkpt>
      <trkpt lat="40.707883" lon="-4.598067">
        <ele>2203.0</ele>
        <time>2014-06-30T14:42:25Z</time>
      </trkpt>
      <trkpt lat="40.707983" lon="-4.597983">
        <ele>2202.0</ele>
        <time>2014-06-30T14:42:26Z</time>
      </trkpt>
      <trkpt lat="40.708083" lon="-4.597883">
        <ele>2201.0</ele>
        <time>2014-06-30T14:42:27Z</time>
      </trkpt>
      <trkpt lat="40.708167" lon="-4.597800">
        <ele>2200.0</ele>
        <time>2014-06-30T14:42:28Z</time>
      </trkpt>
      <trkpt lat="40.708267" lon="-4.597717">
        <ele>2199.0</ele>
        <time>2014-06-30T14:42:29Z</time>
      </trkpt>
      <trkpt lat="40.708367" lon="-4.597633">
        <ele>2198.0</ele>
        <time>2014-06-30T14:42:30Z</time>
      </trkpt>
      <trkpt lat="40.708467" lon="-4.597533">
        <ele>2197.0</ele>
        <time>2014-06-30T14:42:31Z</time>
      </trkpt>
      <trkpt lat="40.708583" lon="-4.597433">
        <ele>2196.0</ele>
        <time>2014-06-30T14:42:32Z</time>
      </trkpt>
      <trkpt lat="40.708683" lon="-4.597333">
        <ele>2195.0</ele>
        <time>2014-06-30T14:42:33Z</time>
      </trkpt>
      <trkpt lat="40.708767" lon="-4.597233">
        <ele>2194.0</ele>
        <time>2014-06-30T14:42:34Z</time>
      </trkpt>
      <trkpt lat="40.708867" lon="-4.597100">
        <ele>2192.0</ele>
        <time>2014-06-30T14:42:35Z</time>
      </trkpt>
      <trkpt lat="40.708950" lon="-4.596983">
        <ele>2191.0</ele>
        <time>2014-06-30T14:42:36Z</time>
      </trkpt>
      <trkpt lat="40.709067" lon="-4.596883">
        <ele>2190.0</ele>
        <time>2014-06-30T14:42:37Z</time>
      </trkpt>
      <trkpt lat="40.709167" lon="-4.596767">
        <ele>2189.0</ele>
        <time>2014-06-30T14:42:38Z</time>
      </trkpt>
      <trkpt lat="40.709283" lon="-4.596633">
        <ele>2188.0</ele>
        <time>2014-06-30T14:42:39Z</time>
      </trkpt>
      <trkpt lat="40.709383" lon="-4.596500">
        <ele>2187.0</ele>
        <time>2014-06-30T14:42:40Z</time>
      </trkpt>
      <trkpt lat="40.709500" lon="-4.596400">
        <ele>2188.0</ele>
        <time>2014-06-30T14:42:41Z</time>
      </trkpt>
      <trkpt lat="40.709600" lon="-4.596317">
        <ele>2189.0</ele>
        <time>2014-06-30T14:42:42Z</time>
      </trkpt>
      <trkpt lat="40.709683" lon="-4.596250">
        <ele>2188.0</ele>
        <time>2014-06-30T14:42:43Z</time>
      </trkpt>
      <trkpt lat="40.709767" lon="-4.596167">
        <ele>2186.0</ele>
        <time>2014-06-30T14:42:44Z</time>
      </trkpt>
      <trkpt lat="40.709850" lon="-4.596050">
        <ele>2183.0</ele>
        <time>2014-06-30T14:42:45Z</time>
      </trkpt>
      <trkpt lat="40.709917" lon="-4.595900">
        <ele>2179.0</ele>
        <time>2014-06-30T14:42:46Z</time>
      </trkpt>
      <trkpt lat="40.710000" lon="-4.595750">
        <ele>2176.0</ele>
        <time>2014-06-30T14:42:47Z</time>
      </trkpt>
      <trkpt lat="40.710067" lon="-4.595583">
        <ele>2173.0</ele>
        <time>2014-06-30T14:42:48Z</time>
      </trkpt>
      <trkpt lat="40.710150" lon="-4.595400">
        <ele>2170.0</ele>
        <time>2014-06-30T14:42:49Z</time>
      </trkpt>
      <trkpt lat="40.710200" lon="-4.595217">
        <ele>2169.0</ele>
        <time>2014-06-30T14:42:50Z</time>
      </trkpt>
      <trkpt lat="40.710267" lon="-4.595050">
        <ele>2168.0</ele>
        <time>2014-06-30T14:42:51Z</time>
      </trkpt>
      <trkpt lat="40.710317" lon="-4.594900">
        <ele>2167.0</ele>
        <time>2014-06-30T14:42:52Z</time>
      </trkpt>
      <trkpt lat="40.710367" lon="-4.594767">
        <ele>2167.0</ele>
        <time>2014-06-30T14:42:53Z</time>
      </trkpt>
      <trkpt lat="40.710417" lon="-4.594633">
        <ele>2166.0</ele>
        <time>2014-06-30T14:42:54Z</time>
      </trkpt>
      <trkpt lat="40.710467" lon="-4.594500">
        <ele>2164.0</ele>
        <time>2014-06-30T14:42:55Z</time>
      </trkpt>
      <trkpt lat="40.710517" lon="-4.594350">
        <ele>2163.0</ele>
        <time>2014-06-30T14:42:56Z</time>
      </trkpt>
      <trkpt lat="40.710583" lon="-4.594200">
        <ele>2161.0</ele>
        <time>2014-06-30T14:42:57Z</time>
      </trkpt>
      <trkpt lat="40.710650" lon="-4.594050">
        <ele>2160.0</ele>
        <time>2014-06-30T14:42:58Z</time>
      </trkpt>
      <trkpt lat="40.710717" lon="-4.593883">
        <ele>2159.0</ele>
        <time>2014-06-30T14:42:59Z</time>
      </trkpt>
      <trkpt lat="40.710800" lon="-4.593717">
        <ele>2158.0</ele>
        <time>2014-06-30T14:43:00Z</time>
      </trkpt>
      <trkpt lat="40.710867" lon="-4.593550">
        <ele>2158.0</ele>
        <time>2014-06-30T14:43:01Z</time>
      </trkpt>
      <trkpt lat="40.710950" lon="-4.593400">
        <ele>2157.0</ele>
        <time>2014-06-30T14:43:02Z</time>
      </trkpt>
      <trkpt lat="40.711017" lon="-4.593250">
        <ele>2156.0</ele>
        <time>2014-06-30T14:43:03Z</time>
      </trkpt>
      <trkpt lat="40.711100" lon="-4.593083">
        <ele>2155.0</ele>
        <time>2014-06-30T14:43:04Z</time>
      </trkpt>
      <trkpt lat="40.711167" lon="-4.592917">
        <ele>2154.0</ele>
        <time>2014-06-30T14:43:05Z</time>
      </trkpt>
      <trkpt lat="40.711250" lon="-4.592733">
        <ele>2152.0</ele>
        <time>2014-06-30T14:43:06Z</time>
      </trkpt>
      <trkpt lat="40.711333" lon="-4.592567">
        <ele>2151.0</ele>
        <time>2014-06-30T14:43:07Z</time>
      </trkpt>
      <trkpt lat="40.711400" lon="-4.592417">
        <ele>2152.0</ele>
        <time>2014-06-30T14:43:08Z</time>
      </trkpt>
      <trkpt lat="40.711467" lon="-4.592250">
        <ele>2151.0</ele>
        <time>2014-06-30T14:43:09Z</time>
      </trkpt>
      <trkpt lat="40.711533" lon="-4.592083">
        <ele>2150.0</ele>
        <time>2014-06-30T14:43:10Z</time>
      </trkpt>
      <trkpt lat="40.711617" lon="-4.591883">
        <ele>2148.0</ele>
        <time>2014-06-30T14:43:11Z</time>
      </trkpt>
      <trkpt lat="40.711700" lon="-4.591700">
        <ele>2147.0</ele>
        <time>2014-06-30T14:43:12Z</time>
      </trkpt>
      <trkpt lat="40.711767" lon="-4.591483">
        <ele>2146.0</ele>
        <time>2014-06-30T14:43:13Z</time>
      </trkpt>
      <trkpt lat="40.711833" lon="-4.591250">
        <ele>2145.0</ele>
        <time>2014-06-30T14:43:14Z</time>
      </trkpt>
      <trkpt lat="40.711883" lon="-4.591033">
        <ele>2144.0</ele>
        <time>2014-06-30T14:43:15Z</time>
      </trkpt>
      <trkpt lat="40.711933" lon="-4.590800">
        <ele>2143.0</ele>
        <time>2014-06-30T14:43:16Z</time>
      </trkpt>
      <trkpt lat="40.711983" lon="-4.590583">
        <ele>2142.0</ele>
        <time>2014-06-30T14:43:17Z</time>
      </trkpt>
      <trkpt lat="40.712050" lon="-4.590367">
        <ele>2142.0</ele>
        <time>2014-06-30T14:43:18Z</time>
      </trkpt>
      <trkpt lat="40.712117" lon="-4.590167">
        <ele>2143.0</ele>
        <time>2014-06-30T14:43:19Z</time>
      </trkpt>
      <trkpt lat="40.712183" lon="-4.589967">
        <ele>2143.0</ele>
        <time>2014-06-30T14:43:20Z</time>
      </trkpt>
      <trkpt lat="40.712250" lon="-4.589783">
        <ele>2143.0</ele>
        <time>2014-06-30T14:43:21Z</time>
      </trkpt>
      <trkpt lat="40.712317" lon="-4.589617">
        <ele>2143.0</ele>
        <time>2014-06-30T14:43:22Z</time>
      </trkpt>
      <trkpt lat="40.712367" lon="-4.589467">
        <ele>2142.0</ele>
        <time>2014-06-30T14:43:23Z</time>
      </trkpt>
      <trkpt lat="40.712450" lon="-4.589317">
        <ele>2142.0</ele>
        <time>2014-06-30T14:43:24Z</time>
      </trkpt>
      <trkpt lat="40.712533" lon="-4.589150">
        <ele>2140.0</ele>
        <time>2014-06-30T14:43:25Z</time>
      </trkpt>
      <trkpt lat="40.712633" lon="-4.588967">
        <ele>2138.0</ele>
        <time>2014-06-30T14:43:26Z</time>
      </trkpt>
      <trkpt lat="40.712733" lon="-4.588783">
        <ele>2137.0</ele>
        <time>2014-06-30T14:43:27Z</time>
      </trkpt>
      <trkpt lat="40.712850" lon="-4.588600">
        <ele>2137.0</ele>
        <time>2014-06-30T14:43:28Z</time>
      </trkpt>
      <trkpt lat="40.712950" lon="-4.588417">
        <ele>2137.0</ele>
        <time>2014-06-30T14:43:29Z</time>
      </trkpt>
      <trkpt lat="40.713050" lon="-4.588233">
        <ele>2137.0</ele>
        <time>2014-06-30T14:43:30Z</time>
      </trkpt>
      <trkpt lat="40.713117" lon="-4.588050">
        <ele>2137.0</ele>
        <time>2014-06-30T14:43:31Z</time>
      </trkpt>
      <trkpt lat="40.713200" lon="-4.587883">
        <ele>2137.0</ele>
        <time>2014-06-30T14:43:32Z</time>
      </trkpt>
      <trkpt lat="40.713250" lon="-4.587717">
        <ele>2137.0</ele>
        <time>2014-06-30T14:43:33Z</time>
      </trkpt>
      <trkpt lat="40.713317" lon="-4.587550">
        <ele>2138.0</ele>
        <time>2014-06-30T14:43:34Z</time>
      </trkpt>
      <trkpt lat="40.713367" lon="-4.587417">
        <ele>2138.0</ele>
        <time>2014-06-30T14:43:35Z</time>
      </trkpt>
      <trkpt lat="40.713450" lon="-4.587283">
        <ele>2136.0</ele>
        <time>2014-06-30T14:43:36Z</time>
      </trkpt>
      <trkpt lat="40.713550" lon="-4.587133">
        <ele>2134.0</ele>
        <time>2014-06-30T14:43:37Z</time>
      </trkpt>
      <trkpt lat="40.713650" lon="-4.586983">
        <ele>2131.0</ele>
        <time>2014-06-30T14:43:38Z</time>
      </trkpt>
      <trkpt lat="40.713767" lon="-4.586850">
        <ele>2128.0</ele>
        <time>2014-06-30T14:43:39Z</time>
      </trkpt>
      <trkpt lat="40.713900" lon="-4.586717">
        <ele>2125.0</ele>
        <time>2014-06-30T14:43:40Z</time>
      </trkpt>
      <trkpt lat="40.714017" lon="-4.586567">
        <ele>2123.0</ele>
        <time>2014-06-30T14:43:41Z</time>
      </trkpt>
      <trkpt lat="40.714133" lon="-4.586400">
        <ele>2121.0</ele>
        <time>2014-06-30T14:43:42Z</time>
      </trkpt>
      <trkpt lat="40.714233" lon="-4.586233">
        <ele>2119.0</ele>
        <time>2014-06-30T14:43:43Z</time>
      </trkpt>
      <trkpt lat="40.714333" lon="-4.586067">
        <ele>2117.0</ele>
        <time>2014-06-30T14:43:44Z</time>
      </trkpt>
      <trkpt lat="40.714433" lon="-4.585917">
        <ele>2115.0</ele>
        <time>2014-06-30T14:43:45Z</time>
      </trkpt>
      <trkpt lat="40.714550" lon="-4.585783">
        <ele>2113.0</ele>
        <time>2014-06-30T14:43:46Z</time>
      </trkpt>
      <trkpt lat="40.714650" lon="-4.585617">
        <ele>2112.0</ele>
        <time>2014-06-30T14:43:47Z</time>
      </trkpt>
      <trkpt lat="40.714717" lon="-4.585433">
        <ele>2109.0</ele>
        <time>2014-06-30T14:43:48Z</time>
      </trkpt>
      <trkpt lat="40.714817" lon="-4.585250">
        <ele>2108.0</ele>
        <time>2014-06-30T14:43:49Z</time>
      </trkpt>
      <trkpt lat="40.714900" lon="-4.585100">
        <ele>2107.0</ele>
        <time>2014-06-30T14:43:50Z</time>
      </trkpt>
      <trkpt lat="40.715000" lon="-4.584967">
        <ele>2105.0</ele>
        <time>2014-06-30T14:43:51Z</time>
      </trkpt>
      <trkpt lat="40.715083" lon="-4.584850">
        <ele>2103.0</ele>
        <time>2014-06-30T14:43:52Z</time>
      </trkpt>
      <trkpt lat="40.715183" lon="-4.584700">
        <ele>2101.0</ele>
        <time>2014-06-30T14:43:53Z</time>
      </trkpt>
      <trkpt lat="40.715283" lon="-4.584517">
        <ele>2098.0</ele>
        <time>2014-06-30T14:43:54Z</time>
      </trkpt>
      <trkpt lat="40.715383" lon="-4.584333">
        <ele>2096.0</ele>
        <time>2014-06-30T14:43:55Z</time>
      </trkpt>
      <trkpt lat="40.715483" lon="-4.584183">
        <ele>2096.0</ele>
        <time>2014-06-30T14:43:56Z</time>
      </trkpt>
      <trkpt lat="40.715583" lon="-4.584050">
        <ele>2097.0</ele>
        <time>2014-06-30T14:43:57Z</time>
      </trkpt>
      <trkpt lat="40.715667" lon="-4.583883">
        <ele>2098.0</ele>
        <time>2014-06-30T14:43:58Z</time>
      </trkpt>
      <trkpt lat="40.715733" lon="-4.583717">
        <ele>2099.0</ele>
        <time>2014-06-30T14:43:59Z</time>
      </trkpt>
      <trkpt lat="40.715783" lon="-4.583567">
        <ele>2101.0</ele>
        <time>2014-06-30T14:44:00Z</time>
      </trkpt>
      <trkpt lat="40.715850" lon="-4.583433">
        <ele>2103.0</ele>
        <time>2014-06-30T14:44:01Z</time>
      </trkpt>
      <trkpt lat="40.715917" lon="-4.583300">
        <ele>2103.0</ele>
        <time>2014-06-30T14:44:02Z</time>
      </trkpt>
      <trkpt lat="40.716000" lon="-4.583200">
        <ele>2104.0</ele>
        <time>2014-06-30T14:44:03Z</time>
      </trkpt>
      <trkpt lat="40.716083" lon="-4.583100">
        <ele>2104.0</ele>
        <time>2014-06-30T14:44:04Z</time>
      </trkpt>
      <trkpt lat="40.716183" lon="-4.583033">
        <ele>2105.0</ele>
        <time>2014-06-30T14:44:05Z</time>
      </trkpt>
      <trkpt lat="40.716250" lon="-4.583017">
        <ele>2105.0</ele>
        <time>2014-06-30T14:44:06Z</time>
      </trkpt>
      <trkpt lat="40.716283" lon="-4.583033">
        <ele>2103.0</ele>
        <time>2014-06-30T14:44:07Z</time>
      </trkpt>
      <trkpt lat="40.716283" lon="-4.583067">
        <ele>2103.0</ele>
        <time>2014-06-30T14:44:08Z</time>
      </trkpt>
      <trkpt lat="40.716233" lon="-4.583067">
        <ele>2103.0</ele>
        <time>2014-06-30T14:44:09Z</time>
      </trkpt>
      <trkpt lat="40.716167" lon="-4.583017">
        <ele>2104.0</ele>
        <time>2014-06-30T14:44:10Z</time>
      </trkpt>
      <trkpt lat="40.716117" lon="-4.582933">
        <ele>2104.0</ele>
        <time>2014-06-30T14:44:11Z</time>
      </trkpt>
      <trkpt lat="40.716067" lon="-4.582850">
        <ele>2105.0</ele>
        <time>2014-06-30T14:44:12Z</time>
      </trkpt>
      <trkpt lat="40.716017" lon="-4.582750">
        <ele>2105.0</ele>
        <time>2014-06-30T14:44:13Z</time>
      </trkpt>
      <trkpt lat="40.715967" lon="-4.582650">
        <ele>2106.0</ele>
        <time>2014-06-30T14:44:14Z</time>
      </trkpt>
      <trkpt lat="40.715933" lon="-4.582550">
        <ele>2107.0</ele>
        <time>2014-06-30T14:44:15Z</time>
      </trkpt>
      <trkpt lat="40.715883" lon="-4.582400">
        <ele>2107.0</ele>
        <time>2014-06-30T14:44:16Z</time>
      </trkpt>
      <trkpt lat="40.715883" lon="-4.582233">
        <ele>2108.0</ele>
        <time>2014-06-30T14:44:17Z</time>
      </trkpt>
      <trkpt lat="40.715917" lon="-4.582067">
        <ele>2110.0</ele>
        <time>2014-06-30T14:44:18Z</time>
      </trkpt>
      <trkpt lat="40.715950" lon="-4.581900">
        <ele>2111.0</ele>
        <time>2014-06-30T14:44:19Z</time>
      </trkpt>
      <trkpt lat="40.716017" lon="-4.581750">
        <ele>2112.0</ele>
        <time>2014-06-30T14:44:20Z</time>
      </trkpt>
      <trkpt lat="40.716083" lon="-4.581633">
        <ele>2115.0</ele>
        <time>2014-06-30T14:44:21Z</time>
      </trkpt>
      <trkpt lat="40.716167" lon="-4.581533">
        <ele>2117.0</ele>
        <time>2014-06-30T14:44:22Z</time>
      </trkpt>
      <trkpt lat="40.716250" lon="-4.581467">
        <ele>2119.0</ele>
        <time>2014-06-30T14:44:23Z</time>
      </trkpt>
      <trkpt lat="40.716350" lon="-4.581400">
        <ele>2121.0</ele>
        <time>2014-06-30T14:44:24Z</time>
      </trkpt>
      <trkpt lat="40.716433" lon="-4.581367">
        <ele>2122.0</ele>
        <time>2014-06-30T14:44:25Z</time>
      </trkpt>
      <trkpt lat="40.716517" lon="-4.581367">
        <ele>2124.0</ele>
        <time>2014-06-30T14:44:26Z</time>
      </trkpt>
      <trkpt lat="40.716567" lon="-4.581383">
        <ele>2126.0</ele>
        <time>2014-06-30T14:44:27Z</time>
      </trkpt>
      <trkpt lat="40.716600" lon="-4.581400">
        <ele>2129.0</ele>
        <time>2014-06-30T14:44:28Z</time>
      </trkpt>
      <trkpt lat="40.716583" lon="-4.581417">
        <ele>2131.0</ele>
        <time>2014-06-30T14:44:29Z</time>
      </trkpt>
      <trkpt lat="40.716550" lon="-4.581417">
        <ele>2126.0</ele>
        <time>2014-06-30T14:44:30Z</time>
      </trkpt>
      <trkpt lat="40.716483" lon="-4.581417">
        <ele>2126.0</ele>
        <time>2014-06-30T14:44:31Z</time>
      </trkpt>
      <trkpt lat="40.716433" lon="-4.581383">
        <ele>2127.0</ele>
        <time>2014-06-30T14:44:32Z</time>
      </trkpt>
      <trkpt lat="40.716400" lon="-4.581333">
        <ele>2128.0</ele>
        <time>2014-06-30T14:44:33Z</time>
      </trkpt>
      <trkpt lat="40.716367" lon="-4.581233">
        <ele>2129.0</ele>
        <time>2014-06-30T14:44:34Z</time>
      </trkpt>
      <trkpt lat="40.716317" lon="-4.581117">
        <ele>2129.0</ele>
        <time>2014-06-30T14:44:35Z</time>
      </trkpt>
      <trkpt lat="40.716283" lon="-4.580967">
        <ele>2130.0</ele>
        <time>2014-06-30T14:44:36Z</time>
      </trkpt>
      <trkpt lat="40.716267" lon="-4.580817">
        <ele>2132.0</ele>
        <time>2014-06-30T14:44:37Z</time>
      </trkpt>
      <trkpt lat="40.716283" lon="-4.580650">
        <ele>2134.0</ele>
        <time>2014-06-30T14:44:38Z</time>
      </trkpt>
      <trkpt lat="40.716317" lon="-4.580500">
        <ele>2135.0</ele>
        <time>2014-06-30T14:44:39Z</time>
      </trkpt>
      <trkpt lat="40.716350" lon="-4.580333">
        <ele>2138.0</ele>
        <time>2014-06-30T14:44:40Z</time>
      </trkpt>
      <trkpt lat="40.716400" lon="-4.580183">
        <ele>2140.0</ele>
        <time>2014-06-30T14:44:41Z</time>
      </trkpt>
      <trkpt lat="40.716483" lon="-4.580083">
        <ele>2142.0</ele>
        <time>2014-06-30T14:44:42Z</time>
      </trkpt>
      <trkpt lat="40.716567" lon="-4.580000">
        <ele>2145.0</ele>
        <time>2014-06-30T14:44:43Z</time>
      </trkpt>
      <trkpt lat="40.716667" lon="-4.579967">
        <ele>2147.0</ele>
        <time>2014-06-30T14:44:44Z</time>
      </trkpt>
      <trkpt lat="40.716733" lon="-4.579983">
        <ele>2151.0</ele>
        <time>2014-06-30T14:44:45Z</time>
      </trkpt>
      <trkpt lat="40.716783" lon="-4.580000">
        <ele>2153.0</ele>
        <time>2014-06-30T14:44:46Z</time>
      </trkpt>
      <trkpt lat="40.716817" lon="-4.580033">
        <ele>2156.0</ele>
        <time>2014-06-30T14:44:47Z</time>
      </trkpt>
      <trkpt lat="40.716817" lon="-4.580067">
        <ele>2158.0</ele>
        <time>2014-06-30T14:44:48Z</time>
      </trkpt>
      <trkpt lat="40.716783" lon="-4.580100">
        <ele>2161.0</ele>
        <time>2014-06-30T14:44:49Z</time>
      </trkpt>
      <trkpt lat="40.716750" lon="-4.580100">
        <ele>2165.0</ele>
        <time>2014-06-30T14:44:50Z</time>
      </trkpt>
      <trkpt lat="40.716683" lon="-4.580067">
        <ele>2159.0</ele>
        <time>2014-06-30T14:44:51Z</time>
      </trkpt>
      <trkpt lat="40.716650" lon="-4.580017">
        <ele>2160.0</ele>
        <time>2014-06-30T14:44:52Z</time>
      </trkpt>
      <trkpt lat="40.716617" lon="-4.579917">
        <ele>2160.0</ele>
        <time>2014-06-30T14:44:53Z</time>
      </trkpt>
      <trkpt lat="40.716567" lon="-4.579783">
        <ele>2161.0</ele>
        <time>2014-06-30T14:44:54Z</time>
      </trkpt>
      <trkpt lat="40.716550" lon="-4.579633">
        <ele>2162.0</ele>
        <time>2014-06-30T14:44:55Z</time>
      </trkpt>
      <trkpt lat="40.716567" lon="-4.579483">
        <ele>2163.0</ele>
        <time>2014-06-30T14:44:56Z</time>
      </trkpt>
      <trkpt lat="40.716583" lon="-4.579350">
        <ele>2165.0</ele>
        <time>2014-06-30T14:44:57Z</time>
      </trkpt>
      <trkpt lat="40.716633" lon="-4.579200">
        <ele>2166.0</ele>
        <time>2014-06-30T14:44:58Z</time>
      </trkpt>
      <trkpt lat="40.716683" lon="-4.579067">
        <ele>2168.0</ele>
        <time>2014-06-30T14:44:59Z</time>
      </trkpt>
      <trkpt lat="40.716767" lon="-4.578933">
        <ele>2170.0</ele>
        <time>2014-06-30T14:45:00Z</time>
      </trkpt>
      <trkpt lat="40.716867" lon="-4.578850">
        <ele>2173.0</ele>
        <time>2014-06-30T14:45:01Z</time>
      </trkpt>
      <trkpt lat="40.716967" lon="-4.578800">
        <ele>2175.0</ele>
        <time>2014-06-30T14:45:02Z</time>
      </trkpt>
      <trkpt lat="40.717050" lon="-4.578767">
        <ele>2179.0</ele>
        <time>2014-06-30T14:45:03Z</time>
      </trkpt>
      <trkpt lat="40.717117" lon="-4.578750">
        <ele>2177.0</ele>
        <time>2014-06-30T14:45:04Z</time>
      </trkpt>
      <trkpt lat="40.717183" lon="-4.578750">
        <ele>2177.0</ele>
        <time>2014-06-30T14:45:05Z</time>
      </trkpt>
      <trkpt lat="40.717250" lon="-4.578783">
        <ele>2179.0</ele>
        <time>2014-06-30T14:45:06Z</time>
      </trkpt>
      <trkpt lat="40.717283" lon="-4.578800">
        <ele>2180.0</ele>
        <time>2014-06-30T14:45:07Z</time>
      </trkpt>
      <trkpt lat="40.717300" lon="-4.578817">
        <ele>2182.0</ele>
        <time>2014-06-30T14:45:08Z</time>
      </trkpt>
      <trkpt lat="40.717317" lon="-4.578833">
        <ele>2184.0</ele>
        <time>2014-06-30T14:45:09Z</time>
      </trkpt>
      <trkpt lat="40.717317" lon="-4.578833">
        <ele>2185.0</ele>
        <time>2014-06-30T14:45:10Z</time>
      </trkpt>
      <trkpt lat="40.717317" lon="-4.578850">
        <ele>2186.0</ele>
        <time>2014-06-30T14:45:11Z</time>
      </trkpt>
      <trkpt lat="40.717283" lon="-4.578833">
        <ele>2187.0</ele>
        <time>2014-06-30T14:45:12Z</time>
      </trkpt>
      <trkpt lat="40.717250" lon="-4.578800">
        <ele>2188.0</ele>
        <time>2014-06-30T14:45:13Z</time>
      </trkpt>
      <trkpt lat="40.717217" lon="-4.578700">
        <ele>2188.0</ele>
        <time>2014-06-30T14:45:14Z</time>
      </trkpt>
      <trkpt lat="40.717200" lon="-4.578567">
        <ele>2189.0</ele>
        <time>2014-06-30T14:45:15Z</time>
      </trkpt>
      <trkpt lat="40.717217" lon="-4.578400">
        <ele>2191.0</ele>
        <time>2014-06-30T14:45:16Z</time>
      </trkpt>
      <trkpt lat="40.717267" lon="-4.578233">
        <ele>2192.0</ele>
        <time>2014-06-30T14:45:17Z</time>
      </trkpt>
      <trkpt lat="40.717333" lon="-4.578083">
        <ele>2193.0</ele>
        <time>2014-06-30T14:45:18Z</time>
      </trkpt>
      <trkpt lat="40.717367" lon="-4.577933">
        <ele>2195.0</ele>
        <time>2014-06-30T14:45:19Z</time>
      </trkpt>
      <trkpt lat="40.717400" lon="-4.577767">
        <ele>2198.0</ele>
        <time>2014-06-30T14:45:20Z</time>
      </trkpt>
      <trkpt lat="40.717450" lon="-4.577600">
        <ele>2200.0</ele>
        <time>2014-06-30T14:45:21Z</time>
      </trkpt>
      <trkpt lat="40.717533" lon="-4.577467">
        <ele>2204.0</ele>
        <time>2014-06-30T14:45:22Z</time>
      </trkpt>
      <trkpt lat="40.717633" lon="-4.577383">
        <ele>2208.0</ele>
        <time>2014-06-30T14:45:23Z</time>
      </trkpt>
      <trkpt lat="40.717717" lon="-4.577367">
        <ele>2212.0</ele>
        <time>2014-06-30T14:45:24Z</time>
      </trkpt>
      <trkpt lat="40.717783" lon="-4.577367">
        <ele>2216.0</ele>
        <time>2014-06-30T14:45:25Z</time>
      </trkpt>
      <trkpt lat="40.717833" lon="-4.577383">
        <ele>2219.0</ele>
        <time>2014-06-30T14:45:26Z</time>
      </trkpt>
      <trkpt lat="40.717900" lon="-4.577400">
        <ele>2222.0</ele>
        <time>2014-06-30T14:45:27Z</time>
      </trkpt>
      <trkpt lat="40.717950" lon="-4.577417">
        <ele>2217.0</ele>
        <time>2014-06-30T14:45:28Z</time>
      </trkpt>
      <trkpt lat="40.718000" lon="-4.577433">
        <ele>2218.0</ele>
        <time>2014-06-30T14:45:29Z</time>
      </trkpt>
      <trkpt lat="40.718033" lon="-4.577450">
        <ele>2219.0</ele>
        <time>2014-06-30T14:45:30Z</time>
      </trkpt>
      <trkpt lat="40.718033" lon="-4.577450">
        <ele>2220.0</ele>
        <time>2014-06-30T14:45:31Z</time>
      </trkpt>
      <trkpt lat="40.718017" lon="-4.577450">
        <ele>2220.0</ele>
        <time>2014-06-30T14:45:32Z</time>
      </trkpt>
      <trkpt lat="40.717983" lon="-4.577417">
        <ele>2221.0</ele>
        <time>2014-06-30T14:45:33Z</time>
      </trkpt>
      <trkpt lat="40.717933" lon="-4.577367">
        <ele>2221.0</ele>
        <time>2014-06-30T14:45:34Z</time>
      </trkpt>
      <trkpt lat="40.717900" lon="-4.577267">
        <ele>2222.0</ele>
        <time>2014-06-30T14:45:35Z</time>
      </trkpt>
      <trkpt lat="40.717883" lon="-4.577133">
        <ele>2222.0</ele>
        <time>2014-06-30T14:45:36Z</time>
      </trkpt>
      <trkpt lat="40.717883" lon="-4.576967">
        <ele>2223.0</ele>
        <time>2014-06-30T14:45:37Z</time>
      </trkpt>
      <trkpt lat="40.717883" lon="-4.576767">
        <ele>2224.0</ele>
        <time>2014-06-30T14:45:38Z</time>
      </trkpt>
      <trkpt lat="40.717883" lon="-4.576600">
        <ele>2225.0</ele>
        <time>2014-06-30T14:45:39Z</time>
      </trkpt>
      <trkpt lat="40.717883" lon="-4.576433">
        <ele>2226.0</ele>
        <time>2014-06-30T14:45:40Z</time>
      </trkpt>
      <trkpt lat="40.717917" lon="-4.576267">
        <ele>2228.0</ele>
        <time>2014-06-30T14:45:41Z</time>
      </trkpt>
      <trkpt lat="40.717933" lon="-4.576083">
        <ele>2230.0</ele>
        <time>2014-06-30T14:45:42Z</time>
      </trkpt>
      <trkpt lat="40.717950" lon="-4.575917">
        <ele>2234.0</ele>
        <time>2014-06-30T14:45:43Z</time>
      </trkpt>
      <trkpt lat="40.717983" lon="-4.575767">
        <ele>2236.0</ele>
        <time>2014-06-30T14:45:44Z</time>
      </trkpt>
      <trkpt lat="40.718017" lon="-4.575650">
        <ele>2240.0</ele>
        <time>2014-06-30T14:45:45Z</time>
      </trkpt>
      <trkpt lat="40.718083" lon="-4.575517">
        <ele>2243.0</ele>
        <time>2014-06-30T14:45:46Z</time>
      </trkpt>
      <trkpt lat="40.718150" lon="-4.575433">
        <ele>2246.0</ele>
        <time>2014-06-30T14:45:47Z</time>
      </trkpt>
      <trkpt lat="40.718233" lon="-4.575383">
        <ele>2249.0</ele>
        <time>2014-06-30T14:45:48Z</time>
      </trkpt>
      <trkpt lat="40.718317" lon="-4.575367">
        <ele>2252.0</ele>
        <time>2014-06-30T14:45:49Z</time>
      </trkpt>
      <trkpt lat="40.718383" lon="-4.575383">
        <ele>2256.0</ele>
        <time>2014-06-30T14:45:50Z</time>
      </trkpt>
      <trkpt lat="40.718417" lon="-4.575400">
        <ele>2259.0</ele>
        <time>2014-06-30T14:45:51Z</time>
      </trkpt>
      <trkpt lat="40.718450" lon="-4.575433">
        <ele>2262.0</ele>
        <time>2014-06-30T14:45:52Z</time>
      </trkpt>
      <trkpt lat="40.718450" lon="-4.575450">
        <ele>2265.0</ele>
        <time>2014-06-30T14:45:53Z</time>
      </trkpt>
      <trkpt lat="40.718433" lon="-4.575467">
        <ele>2267.0</ele>
        <time>2014-06-30T14:45:54Z</time>
      </trkpt>
      <trkpt lat="40.718383" lon="-4.575467">
        <ele>2261.0</ele>
        <time>2014-06-30T14:45:55Z</time>
      </trkpt>
      <trkpt lat="40.718367" lon="-4.575483">
        <ele>2262.0</ele>
        <time>2014-06-30T14:45:56Z</time>
      </trkpt>
      <trkpt lat="40.718333" lon="-4.575483">
        <ele>2263.0</ele>
        <time>2014-06-30T14:45:57Z</time>
      </trkpt>
      <trkpt lat="40.718300" lon="-4.575483">
        <ele>2263.0</ele>
        <time>2014-06-30T14:45:58Z</time>
      </trkpt>
      <trkpt lat="40.718250" lon="-4.575450">
        <ele>2264.0</ele>
        <time>2014-06-30T14:45:59Z</time>
      </trkpt>
      <trkpt lat="40.718183" lon="-4.575400">
        <ele>2265.0</ele>
        <time>2014-06-30T14:46:00Z</time>
      </trkpt>
      <trkpt lat="40.718133" lon="-4.575333">
        <ele>2266.0</ele>
        <time>2014-06-30T14:46:01Z</time>
      </trkpt>
      <trkpt lat="40.718083" lon="-4.575233">
        <ele>2268.0</ele>
        <time>2014-06-30T14:46:02Z</time>
      </trkpt>
      <trkpt lat="40.718033" lon="-4.575100">
        <ele>2269.0</ele>
        <time>2014-06-30T14:46:03Z</time>
      </trkpt>
      <trkpt lat="40.718017" lon="-4.574967">
        <ele>2270.0</ele>
        <time>2014-06-30T14:46:04Z</time>
      </trkpt>
      <trkpt lat="40.718000" lon="-4.574833">
        <ele>2272.0</ele>
        <time>2014-06-30T14:46:05Z</time>
      </trkpt>
      <trkpt lat="40.717983" lon="-4.574683">
        <ele>2273.0</ele>
        <time>2014-06-30T14:46:06Z</time>
      </trkpt>
      <trkpt lat="40.717967" lon="-4.574550">
        <ele>2276.0</ele>
        <time>2014-06-30T14:46:07Z</time>
      </trkpt>
      <trkpt lat="40.717983" lon="-4.574400">
        <ele>2278.0</ele>
        <time>2014-06-30T14:46:08Z</time>
      </trkpt>
      <trkpt lat="40.718017" lon="-4.574267">
        <ele>2280.0</ele>
        <time>2014-06-30T14:46:09Z</time>
      </trkpt>
      <trkpt lat="40.718067" lon="-4.574117">
        <ele>2283.0</ele>
        <time>2014-06-30T14:46:10Z</time>
      </trkpt>
      <trkpt lat="40.718150" lon="-4.573983">
        <ele>2287.0</ele>
        <time>2014-06-30T14:46:11Z</time>
      </trkpt>
      <trkpt lat="40.718250" lon="-4.573900">
        <ele>2291.0</ele>
        <time>2014-06-30T14:46:12Z</time>
      </trkpt>
      <trkpt lat="40.718350" lon="-4.573850">
        <ele>2295.0</ele>
        <time>2014-06-30T14:46:13Z</time>
      </trkpt>
      <trkpt lat="40.718450" lon="-4.573867">
        <ele>2299.0</ele>
        <time>2014-06-30T14:46:14Z</time>
      </trkpt>
      <trkpt lat="40.718500" lon="-4.573883">
        <ele>2303.0</ele>
        <time>2014-06-30T14:46:15Z</time>
      </trkpt>
      <trkpt lat="40.718550" lon="-4.573917">
        <ele>2308.0</ele>
        <time>2014-06-30T14:46:16Z</time>
      </trkpt>
      <trkpt lat="40.718550" lon="-4.573917">
        <ele>2301.0</ele>
        <time>2014-06-30T14:46:17Z</time>
      </trkpt>
      <trkpt lat="40.718567" lon="-4.573950">
        <ele>2303.0</ele>
        <time>2014-06-30T14:46:18Z</time>
      </trkpt>
      <trkpt lat="40.718567" lon="-4.573967">
        <ele>2305.0</ele>
        <time>2014-06-30T14:46:19Z</time>
      </trkpt>
      <trkpt lat="40.718550" lon="-4.573983">
        <ele>2308.0</ele>
        <time>2014-06-30T14:46:20Z</time>
      </trkpt>
      <trkpt lat="40.718517" lon="-4.574000">
        <ele>2310.0</ele>
        <time>2014-06-30T14:46:21Z</time>
      </trkpt>
      <trkpt lat="40.718450" lon="-4.573967">
        <ele>2309.0</ele>
        <time>2014-06-30T14:46:22Z</time>
      </trkpt>
      <trkpt lat="40.718400" lon="-4.573900">
        <ele>2310.0</ele>
        <time>2014-06-30T14:46:23Z</time>
      </trkpt>
      <trkpt lat="40.718333" lon="-4.573850">
        <ele>2312.0</ele>
        <time>2014-06-30T14:46:24Z</time>
      </trkpt>
      <trkpt lat="40.718283" lon="-4.573767">
        <ele>2314.0</ele>
        <time>2014-06-30T14:46:25Z</time>
      </trkpt>
      <trkpt lat="40.718250" lon="-4.573667">
        <ele>2316.0</ele>
        <time>2014-06-30T14:46:26Z</time>
      </trkpt>
      <trkpt lat="40.718200" lon="-4.573567">
        <ele>2319.0</ele>
        <time>2014-06-30T14:46:27Z</time>
      </trkpt>
      <trkpt lat="40.718167" lon="-4.573433">
        <ele>2322.0</ele>
        <time>2014-06-30T14:46:28Z</time>
      </trkpt>
      <trkpt lat="40.718150" lon="-4.573317">
        <ele>2326.0</ele>
        <time>2014-06-30T14:46:29Z</time>
      </trkpt>
      <trkpt lat="40.718150" lon="-4.573167">
        <ele>2329.0</ele>
        <time>2014-06-30T14:46:30Z</time>
      </trkpt>
      <trkpt lat="40.718183" lon="-4.573033">
        <ele>2333.0</ele>
        <time>2014-06-30T14:46:31Z</time>
      </trkpt>
      <trkpt lat="40.718233" lon="-4.572883">
        <ele>2337.0</ele>
        <time>2014-06-30T14:46:32Z</time>
      </trkpt>
      <trkpt lat="40.718300" lon="-4.572750">
        <ele>2340.0</ele>
        <time>2014-06-30T14:46:33Z</time>
      </trkpt>
      <trkpt lat="40.718383" lon="-4.572650">
        <ele>2344.0</ele>
        <time>2014-06-30T14:46:34Z</time>
      </trkpt>
      <trkpt lat="40.718483" lon="-4.572583">
        <ele>2347.0</ele>
        <time>2014-06-30T14:46:35Z</time>
      </trkpt>
      <trkpt lat="40.718567" lon="-4.572550">
        <ele>2351.0</ele>
        <time>2014-06-30T14:46:36Z</time>
      </trkpt>
      <trkpt lat="40.718600" lon="-4.572517">
        <ele>2344.0</ele>
        <time>2014-06-30T14:46:37Z</time>
      </trkpt>
      <trkpt lat="40.718650" lon="-4.572500">
        <ele>2344.0</ele>
        <time>2014-06-30T14:46:38Z</time>
      </trkpt>
      <trkpt lat="40.718717" lon="-4.572483">
        <ele>2344.0</ele>
        <time>2014-06-30T14:46:39Z</time>
      </trkpt>
      <trkpt lat="40.718783" lon="-4.572467">
        <ele>2346.0</ele>
        <time>2014-06-30T14:46:40Z</time>
      </trkpt>
      <trkpt lat="40.718833" lon="-4.572500">
        <ele>2347.0</ele>
        <time>2014-06-30T14:46:41Z</time>
      </trkpt>
      <trkpt lat="40.718883" lon="-4.572550">
        <ele>2349.0</ele>
        <time>2014-06-30T14:46:42Z</time>
      </trkpt>
      <trkpt lat="40.718933" lon="-4.572600">
        <ele>2350.0</ele>
        <time>2014-06-30T14:46:43Z</time>
      </trkpt>
      <trkpt lat="40.718967" lon="-4.572633">
        <ele>2351.0</ele>
        <time>2014-06-30T14:46:44Z</time>
      </trkpt>
      <trkpt lat="40.719000" lon="-4.572667">
        <ele>2352.0</ele>
        <time>2014-06-30T14:46:45Z</time>
      </trkpt>
      <trkpt lat="40.719017" lon="-4.572717">
        <ele>2353.0</ele>
        <time>2014-06-30T14:46:46Z</time>
      </trkpt>
      <trkpt lat="40.719017" lon="-4.572767">
        <ele>2355.0</ele>
        <time>2014-06-30T14:46:47Z</time>
      </trkpt>
      <trkpt lat="40.719017" lon="-4.572817">
        <ele>2355.0</ele>
        <time>2014-06-30T14:46:48Z</time>
      </trkpt>
      <trkpt lat="40.719000" lon="-4.572883">
        <ele>2357.0</ele>
        <time>2014-06-30T14:46:49Z</time>
      </trkpt>
      <trkpt lat="40.718967" lon="-4.572950">
        <ele>2359.0</ele>
        <time>2014-06-30T14:46:50Z</time>
      </trkpt>
      <trkpt lat="40.718950" lon="-4.572983">
        <ele>2361.0</ele>
        <time>2014-06-30T14:46:51Z</time>
      </trkpt>
      <trkpt lat="40.718917" lon="-4.573000">
        <ele>2362.0</ele>
        <time>2014-06-30T14:46:52Z</time>
      </trkpt>
      <trkpt lat="40.718883" lon="-4.573000">
        <ele>2362.0</ele>
        <time>2014-06-30T14:46:53Z</time>
      </trkpt>
      <trkpt lat="40.718833" lon="-4.572983">
        <ele>2363.0</ele>
        <time>2014-06-30T14:46:54Z</time>
      </trkpt>
      <trkpt lat="40.718783" lon="-4.572983">
        <ele>2363.0</ele>
        <time>2014-06-30T14:46:55Z</time>
      </trkpt>
      <trkpt lat="40.718750" lon="-4.573000">
        <ele>2365.0</ele>
        <time>2014-06-30T14:46:56Z</time>
      </trkpt>
      <trkpt lat="40.718717" lon="-4.573000">
        <ele>2366.0</ele>
        <time>2014-06-30T14:46:57Z</time>
      </trkpt>
      <trkpt lat="40.718650" lon="-4.572983">
        <ele>2367.0</ele>
        <time>2014-06-30T14:46:58Z</time>
      </trkpt>
      <trkpt lat="40.718600" lon="-4.572917">
        <ele>2367.0</ele>
        <time>2014-06-30T14:46:59Z</time>
      </trkpt>
      <trkpt lat="40.718533" lon="-4.572817">
        <ele>2368.0</ele>
        <time>2014-06-30T14:47:00Z</time>
      </trkpt>
      <trkpt lat="40.718483" lon="-4.572683">
        <ele>2368.0</ele>
        <time>2014-06-30T14:47:01Z</time>
      </trkpt>
      <trkpt lat="40.718433" lon="-4.572533">
        <ele>2369.0</ele>
        <time>2014-06-30T14:47:02Z</time>
      </trkpt>
      <trkpt lat="40.718433" lon="-4.572383">
        <ele>2370.0</ele>
        <time>2014-06-30T14:47:03Z</time>
      </trkpt>
      <trkpt lat="40.718417" lon="-4.572250">
        <ele>2372.0</ele>
        <time>2014-06-30T14:47:04Z</time>
      </trkpt>
      <trkpt lat="40.718400" lon="-4.572133">
        <ele>2372.0</ele>
        <time>2014-06-30T14:47:05Z</time>
      </trkpt>
      <trkpt lat="40.718400" lon="-4.572033">
        <ele>2373.0</ele>
        <time>2014-06-30T14:47:06Z</time>
      </trkpt>
      <trkpt lat="40.718417" lon="-4.571883">
        <ele>2373.0</ele>
        <time>2014-06-30T14:47:07Z</time>
      </trkpt>
      <trkpt lat="40.718433" lon="-4.571733">
        <ele>2374.0</ele>
        <time>2014-06-30T14:47:08Z</time>
      </trkpt>
      <trkpt lat="40.718483" lon="-4.571583">
        <ele>2375.0</ele>
        <time>2014-06-30T14:47:09Z</time>
      </trkpt>
      <trkpt lat="40.718517" lon="-4.571433">
        <ele>2376.0</ele>
        <time>2014-06-30T14:47:10Z</time>
      </trkpt>
      <trkpt lat="40.718533" lon="-4.571300">
        <ele>2378.0</ele>
        <time>2014-06-30T14:47:11Z</time>
      </trkpt>
      <trkpt lat="40.718583" lon="-4.571167">
        <ele>2380.0</ele>
        <time>2014-06-30T14:47:12Z</time>
      </trkpt>
      <trkpt lat="40.718617" lon="-4.571050">
        <ele>2382.0</ele>
        <time>2014-06-30T14:47:13Z</time>
      </trkpt>
      <trkpt lat="40.718683" lon="-4.570933">
        <ele>2384.0</ele>
        <time>2014-06-30T14:47:14Z</time>
      </trkpt>
      <trkpt lat="40.718767" lon="-4.570833">
        <ele>2386.0</ele>
        <time>2014-06-30T14:47:15Z</time>
      </trkpt>
      <trkpt lat="40.718850" lon="-4.570767">
        <ele>2390.0</ele>
        <time>2014-06-30T14:47:16Z</time>
      </trkpt>
      <trkpt lat="40.718933" lon="-4.570717">
        <ele>2393.0</ele>
        <time>2014-06-30T14:47:17Z</time>
      </trkpt>
      <trkpt lat="40.719017" lon="-4.570683">
        <ele>2397.0</ele>
        <time>2014-06-30T14:47:18Z</time>
      </trkpt>
      <trkpt lat="40.719100" lon="-4.570683">
        <ele>2400.0</ele>
        <time>2014-06-30T14:47:19Z</time>
      </trkpt>
      <trkpt lat="40.719183" lon="-4.570683">
        <ele>2403.0</ele>
        <time>2014-06-30T14:47:20Z</time>
      </trkpt>
      <trkpt lat="40.719267" lon="-4.570683">
        <ele>2406.0</ele>
        <time>2014-06-30T14:47:21Z</time>
      </trkpt>
      <trkpt lat="40.719283" lon="-4.570700">
        <ele>2400.0</ele>
        <time>2014-06-30T14:47:22Z</time>
      </trkpt>
      <trkpt lat="40.719367" lon="-4.570717">
        <ele>2401.0</ele>
        <time>2014-06-30T14:47:23Z</time>
      </trkpt>
      <trkpt lat="40.719433" lon="-4.570750">
        <ele>2404.0</ele>
        <time>2014-06-30T14:47:24Z</time>
      </trkpt>
      <trkpt lat="40.719467" lon="-4.570783">
        <ele>2405.0</ele>
        <time>2014-06-30T14:47:25Z</time>
      </trkpt>
      <trkpt lat="40.719483" lon="-4.570833">
        <ele>2407.0</ele>
        <time>2014-06-30T14:47:26Z</time>
      </trkpt>
      <trkpt lat="40.719467" lon="-4.570883">
        <ele>2409.0</ele>
        <time>2014-06-30T14:47:27Z</time>
      </trkpt>
      <trkpt lat="40.719433" lon="-4.570917">
        <ele>2410.0</ele>
        <time>2014-06-30T14:47:28Z</time>
      </trkpt>
      <trkpt lat="40.719400" lon="-4.570933">
        <ele>2412.0</ele>
        <time>2014-06-30T14:47:29Z</time>
      </trkpt>
      <trkpt lat="40.719383" lon="-4.570950">
        <ele>2413.0</ele>
        <time>2014-06-30T14:47:30Z</time>
      </trkpt>
      <trkpt lat="40.719350" lon="-4.570933">
        <ele>2414.0</ele>
        <time>2014-06-30T14:47:31Z</time>
      </trkpt>
      <trkpt lat="40.719317" lon="-4.570917">
        <ele>2415.0</ele>
        <time>2014-06-30T14:47:32Z</time>
      </trkpt>
      <trkpt lat="40.719267" lon="-4.570917">
        <ele>2415.0</ele>
        <time>2014-06-30T14:47:33Z</time>
      </trkpt>
      <trkpt lat="40.719217" lon="-4.570900">
        <ele>2417.0</ele>
        <time>2014-06-30T14:47:34Z</time>
      </trkpt>
      <trkpt lat="40.719183" lon="-4.570850">
        <ele>2417.0</ele>
        <time>2014-06-30T14:47:35Z</time>
      </trkpt>
      <trkpt lat="40.719150" lon="-4.570783">
        <ele>2418.0</ele>
        <time>2014-06-30T14:47:36Z</time>
      </trkpt>
      <trkpt lat="40.719117" lon="-4.570700">
        <ele>2420.0</ele>
        <time>2014-06-30T14:47:37Z</time>
      </trkpt>
      <trkpt lat="40.719083" lon="-4.570600">
        <ele>2420.0</ele>
        <time>2014-06-30T14:47:38Z</time>
      </trkpt>
      <trkpt lat="40.719033" lon="-4.570517">
        <ele>2421.0</ele>
        <time>2014-06-30T14:47:39Z</time>
      </trkpt>
      <trkpt lat="40.719000" lon="-4.570400">
        <ele>2422.0</ele>
        <time>2014-06-30T14:47:40Z</time>
      </trkpt>
      <trkpt lat="40.718983" lon="-4.570283">
        <ele>2423.0</ele>
        <time>2014-06-30T14:47:41Z</time>
      </trkpt>
      <trkpt lat="40.719017" lon="-4.570183">
        <ele>2424.0</ele>
        <time>2014-06-30T14:47:42Z</time>
      </trkpt>
      <trkpt lat="40.719033" lon="-4.570067">
        <ele>2425.0</ele>
        <time>2014-06-30T14:47:43Z</time>
      </trkpt>
      <trkpt lat="40.719083" lon="-4.569950">
        <ele>2426.0</ele>
        <time>2014-06-30T14:47:44Z</time>
      </trkpt>
      <trkpt lat="40.719100" lon="-4.569800">
        <ele>2427.0</ele>
        <time>2014-06-30T14:47:45Z</time>
      </trkpt>
      <trkpt lat="40.719133" lon="-4.569650">
        <ele>2429.0</ele>
        <time>2014-06-30T14:47:46Z</time>
      </trkpt>
      <trkpt lat="40.719200" lon="-4.569533">
        <ele>2430.0</ele>
        <time>2014-06-30T14:47:47Z</time>
      </trkpt>
      <trkpt lat="40.719267" lon="-4.569467">
        <ele>2431.0</ele>
        <time>2014-06-30T14:47:48Z</time>
      </trkpt>
      <trkpt lat="40.719350" lon="-4.569400">
        <ele>2432.0</ele>
        <time>2014-06-30T14:47:49Z</time>
      </trkpt>
      <trkpt lat="40.719433" lon="-4.569317">
        <ele>2434.0</ele>
        <time>2014-06-30T14:47:50Z</time>
      </trkpt>
      <trkpt lat="40.719533" lon="-4.569233">
        <ele>2436.0</ele>
        <time>2014-06-30T14:47:51Z</time>
      </trkpt>
      <trkpt lat="40.719617" lon="-4.569183">
        <ele>2438.0</ele>
        <time>2014-06-30T14:47:52Z</time>
      </trkpt>
      <trkpt lat="40.719700" lon="-4.569167">
        <ele>2441.0</ele>
        <time>2014-06-30T14:47:53Z</time>
      </trkpt>
      <trkpt lat="40.719767" lon="-4.569183">
        <ele>2439.0</ele>
        <time>2014-06-30T14:47:54Z</time>
      </trkpt>
      <trkpt lat="40.719833" lon="-4.569200">
        <ele>2439.0</ele>
        <time>2014-06-30T14:47:55Z</time>
      </trkpt>
      <trkpt lat="40.719900" lon="-4.569217">
        <ele>2440.0</ele>
        <time>2014-06-30T14:47:56Z</time>
      </trkpt>
      <trkpt lat="40.719933" lon="-4.569250">
        <ele>2441.0</ele>
        <time>2014-06-30T14:47:57Z</time>
      </trkpt>
      <trkpt lat="40.719967" lon="-4.569283">
        <ele>2442.0</ele>
        <time>2014-06-30T14:47:58Z</time>
      </trkpt>
      <trkpt lat="40.719983" lon="-4.569317">
        <ele>2444.0</ele>
        <time>2014-06-30T14:47:59Z</time>
      </trkpt>
      <trkpt lat="40.720000" lon="-4.569350">
        <ele>2445.0</ele>
        <time>2014-06-30T14:48:00Z</time>
      </trkpt>
      <trkpt lat="40.720017" lon="-4.569400">
        <ele>2446.0</ele>
        <time>2014-06-30T14:48:01Z</time>
      </trkpt>
      <trkpt lat="40.720000" lon="-4.569433">
        <ele>2447.0</ele>
        <time>2014-06-30T14:48:02Z</time>
      </trkpt>
      <trkpt lat="40.719967" lon="-4.569467">
        <ele>2447.0</ele>
        <time>2014-06-30T14:48:03Z</time>
      </trkpt>
      <trkpt lat="40.719917" lon="-4.569500">
        <ele>2448.0</ele>
        <time>2014-06-30T14:48:04Z</time>
      </trkpt>
      <trkpt lat="40.719867" lon="-4.569517">
        <ele>2449.0</ele>
        <time>2014-06-30T14:48:05Z</time>
      </trkpt>
      <trkpt lat="40.719817" lon="-4.569500">
        <ele>2449.0</ele>
        <time>2014-06-30T14:48:06Z</time>
      </trkpt>
      <trkpt lat="40.719750" lon="-4.569517">
        <ele>2449.0</ele>
        <time>2014-06-30T14:48:07Z</time>
      </trkpt>
      <trkpt lat="40.719633" lon="-4.569517">
        <ele>2450.0</ele>
        <time>2014-06-30T14:48:08Z</time>
      </trkpt>
      <trkpt lat="40.719533" lon="-4.569483">
        <ele>2451.0</ele>
        <time>2014-06-30T14:48:09Z</time>
      </trkpt>
      <trkpt lat="40.719450" lon="-4.569367">
        <ele>2451.0</ele>
        <time>2014-06-30T14:48:10Z</time>
      </trkpt>
      <trkpt lat="40.719417" lon="-4.569233">
        <ele>2452.0</ele>
        <time>2014-06-30T14:48:11Z</time>
      </trkpt>
      <trkpt lat="40.719433" lon="-4.569100">
        <ele>2452.0</ele>
        <time>2014-06-30T14:48:12Z</time>
      </trkpt>
      <trkpt lat="40.719450" lon="-4.568983">
        <ele>2451.0</ele>
        <time>2014-06-30T14:48:13Z</time>
      </trkpt>
      <trkpt lat="40.719467" lon="-4.568883">
        <ele>2453.0</ele>
        <time>2014-06-30T14:48:14Z</time>
      </trkpt>
      <trkpt lat="40.719517" lon="-4.568750">
        <ele>2453.0</ele>
        <time>2014-06-30T14:48:15Z</time>
      </trkpt>
      <trkpt lat="40.719617" lon="-4.568583">
        <ele>2454.0</ele>
        <time>2014-06-30T14:48:16Z</time>
      </trkpt>
      <trkpt lat="40.719717" lon="-4.568467">
        <ele>2454.0</ele>
        <time>2014-06-30T14:48:17Z</time>
      </trkpt>
      <trkpt lat="40.719833" lon="-4.568367">
        <ele>2455.0</ele>
        <time>2014-06-30T14:48:18Z</time>
      </trkpt>
      <trkpt lat="40.719933" lon="-4.568283">
        <ele>2456.0</ele>
        <time>2014-06-30T14:48:19Z</time>
      </trkpt>
      <trkpt lat="40.720050" lon="-4.568200">
        <ele>2458.0</ele>
        <time>2014-06-30T14:48:20Z</time>
      </trkpt>
      <trkpt lat="40.720133" lon="-4.568117">
        <ele>2460.0</ele>
        <time>2014-06-30T14:48:21Z</time>
      </trkpt>
      <trkpt lat="40.720233" lon="-4.568067">
        <ele>2463.0</ele>
        <time>2014-06-30T14:48:22Z</time>
      </trkpt>
      <trkpt lat="40.720333" lon="-4.568033">
        <ele>2463.0</ele>
        <time>2014-06-30T14:48:23Z</time>
      </trkpt>
      <trkpt lat="40.720400" lon="-4.568033">
        <ele>2465.0</ele>
        <time>2014-06-30T14:48:24Z</time>
      </trkpt>
      <trkpt lat="40.720483" lon="-4.568033">
        <ele>2466.0</ele>
        <time>2014-06-30T14:48:25Z</time>
      </trkpt>
      <trkpt lat="40.720533" lon="-4.568050">
        <ele>2467.0</ele>
        <time>2014-06-30T14:48:26Z</time>
      </trkpt>
      <trkpt lat="40.720600" lon="-4.568067">
        <ele>2469.0</ele>
        <time>2014-06-30T14:48:27Z</time>
      </trkpt>
      <trkpt lat="40.720650" lon="-4.568117">
        <ele>2470.0</ele>
        <time>2014-06-30T14:48:28Z</time>
      </trkpt>
      <trkpt lat="40.720683" lon="-4.568150">
        <ele>2471.0</ele>
        <time>2014-06-30T14:48:29Z</time>
      </trkpt>
      <trkpt lat="40.720700" lon="-4.568233">
        <ele>2472.0</ele>
        <time>2014-06-30T14:48:30Z</time>
      </trkpt>
      <trkpt lat="40.720683" lon="-4.568300">
        <ele>2473.0</ele>
        <time>2014-06-30T14:48:31Z</time>
      </trkpt>
      <trkpt lat="40.720667" lon="-4.568367">
        <ele>2475.0</ele>
        <time>2014-06-30T14:48:32Z</time>
      </trkpt>
      <trkpt lat="40.720633" lon="-4.568400">
        <ele>2476.0</ele>
        <time>2014-06-30T14:48:33Z</time>
      </trkpt>
      <trkpt lat="40.720600" lon="-4.568417">
        <ele>2477.0</ele>
        <time>2014-06-30T14:48:34Z</time>
      </trkpt>
      <trkpt lat="40.720567" lon="-4.568417">
        <ele>2477.0</ele>
        <time>2014-06-30T14:48:35Z</time>
      </trkpt>
      <trkpt lat="40.720533" lon="-4.568383">
        <ele>2478.0</ele>
        <time>2014-06-30T14:48:36Z</time>
      </trkpt>
      <trkpt lat="40.720500" lon="-4.568350">
        <ele>2479.0</ele>
        <time>2014-06-30T14:48:37Z</time>
      </trkpt>
      <trkpt lat="40.720467" lon="-4.568317">
        <ele>2480.0</ele>
        <time>2014-06-30T14:48:38Z</time>
      </trkpt>
      <trkpt lat="40.720417" lon="-4.568250">
        <ele>2481.0</ele>
        <time>2014-06-30T14:48:39Z</time>
      </trkpt>
      <trkpt lat="40.720367" lon="-4.568167">
        <ele>2482.0</ele>
        <time>2014-06-30T14:48:40Z</time>
      </trkpt>
      <trkpt lat="40.720333" lon="-4.568067">
        <ele>2482.0</ele>
        <time>2014-06-30T14:48:41Z</time>
      </trkpt>
      <trkpt lat="40.720300" lon="-4.567917">
        <ele>2483.0</ele>
        <time>2014-06-30T14:48:42Z</time>
      </trkpt>
      <trkpt lat="40.720317" lon="-4.567783">
        <ele>2484.0</ele>
        <time>2014-06-30T14:48:43Z</time>
      </trkpt>
      <trkpt lat="40.720333" lon="-4.567667">
        <ele>2486.0</ele>
        <time>2014-06-30T14:48:44Z</time>
      </trkpt>
      <trkpt lat="40.720333" lon="-4.567533">
        <ele>2486.0</ele>
        <time>2014-06-30T14:48:45Z</time>
      </trkpt>
      <trkpt lat="40.720317" lon="-4.567417">
        <ele>2487.0</ele>
        <time>2014-06-30T14:48:46Z</time>
      </trkpt>
      <trkpt lat="40.720300" lon="-4.567283">
        <ele>2487.0</ele>
        <time>2014-06-30T14:48:47Z</time>
      </trkpt>
      <trkpt lat="40.720300" lon="-4.567150">
        <ele>2489.0</ele>
        <time>2014-06-30T14:48:48Z</time>
      </trkpt>
      <trkpt lat="40.720333" lon="-4.567000">
        <ele>2490.0</ele>
        <time>2014-06-30T14:48:49Z</time>
      </trkpt>
      <trkpt lat="40.720383" lon="-4.566867">
        <ele>2491.0</ele>
        <time>2014-06-30T14:48:50Z</time>
      </trkpt>
      <trkpt lat="40.720467" lon="-4.566750">
        <ele>2492.0</ele>
        <time>2014-06-30T14:48:51Z</time>
      </trkpt>
      <trkpt lat="40.720550" lon="-4.566683">
        <ele>2495.0</ele>
        <time>2014-06-30T14:48:52Z</time>
      </trkpt>
      <trkpt lat="40.720633" lon="-4.566617">
        <ele>2497.0</ele>
        <time>2014-06-30T14:48:53Z</time>
      </trkpt>
      <trkpt lat="40.720717" lon="-4.566550">
        <ele>2500.0</ele>
        <time>2014-06-30T14:48:54Z</time>
      </trkpt>
      <trkpt lat="40.720783" lon="-4.566483">
        <ele>2503.0</ele>
        <time>2014-06-30T14:48:55Z</time>
      </trkpt>
      <trkpt lat="40.720817" lon="-4.566433">
        <ele>2506.0</ele>
        <time>2014-06-30T14:48:56Z</time>
      </trkpt>
      <trkpt lat="40.720883" lon="-4.566383">
        <ele>2502.0</ele>
        <time>2014-06-30T14:48:57Z</time>
      </trkpt>
      <trkpt lat="40.720983" lon="-4.566350">
        <ele>2503.0</ele>
        <time>2014-06-30T14:48:58Z</time>
      </trkpt>
      <trkpt lat="40.721067" lon="-4.566333">
        <ele>2504.0</ele>
        <time>2014-06-30T14:48:59Z</time>
      </trkpt>
      <trkpt lat="40.721150" lon="-4.566333">
        <ele>2505.0</ele>
        <time>2014-06-30T14:49:00Z</time>
      </trkpt>
      <trkpt lat="40.721217" lon="-4.566350">
        <ele>2507.0</ele>
        <time>2014-06-30T14:49:01Z</time>
      </trkpt>
      <trkpt lat="40.721283" lon="-4.566367">
        <ele>2509.0</ele>
        <time>2014-06-30T14:49:02Z</time>
      </trkpt>
      <trkpt lat="40.721333" lon="-4.566400">
        <ele>2510.0</ele>
        <time>2014-06-30T14:49:03Z</time>
      </trkpt>
      <trkpt lat="40.721400" lon="-4.566450">
        <ele>2512.0</ele>
        <time>2014-06-30T14:49:04Z</time>
      </trkpt>
      <trkpt lat="40.721450" lon="-4.566517">
        <ele>2513.0</ele>
        <time>2014-06-30T14:49:05Z</time>
      </trkpt>
      <trkpt lat="40.721450" lon="-4.566617">
        <ele>2515.0</ele>
        <time>2014-06-30T14:49:06Z</time>
      </trkpt>
      <trkpt lat="40.721450" lon="-4.566683">
        <ele>2516.0</ele>
        <time>2014-06-30T14:49:07Z</time>
      </trkpt>
      <trkpt lat="40.721433" lon="-4.566717">
        <ele>2517.0</ele>
        <time>2014-06-30T14:49:08Z</time>
      </trkpt>
      <trkpt lat="40.721383" lon="-4.566733">
        <ele>2518.0</ele>
        <time>2014-06-30T14:49:09Z</time>
      </trkpt>
      <trkpt lat="40.721333" lon="-4.566717">
        <ele>2518.0</ele>
        <time>2014-06-30T14:49:10Z</time>
      </trkpt>
      <trkpt lat="40.721283" lon="-4.566717">
        <ele>2520.0</ele>
        <time>2014-06-30T14:49:11Z</time>
      </trkpt>
      <trkpt lat="40.721233" lon="-4.566700">
        <ele>2521.0</ele>
        <time>2014-06-30T14:49:12Z</time>
      </trkpt>
      <trkpt lat="40.721183" lon="-4.566650">
        <ele>2522.0</ele>
        <time>2014-06-30T14:49:13Z</time>
      </trkpt>
      <trkpt lat="40.721150" lon="-4.566567">
        <ele>2522.0</ele>
        <time>2014-06-30T14:49:14Z</time>
      </trkpt>
      <trkpt lat="40.721100" lon="-4.566450">
        <ele>2523.0</ele>
        <time>2014-06-30T14:49:15Z</time>
      </trkpt>
      <trkpt lat="40.721083" lon="-4.566317">
        <ele>2523.0</ele>
        <time>2014-06-30T14:49:16Z</time>
      </trkpt>
      <trkpt lat="40.721100" lon="-4.566183">
        <ele>2524.0</ele>
        <time>2014-06-30T14:49:17Z</time>
      </trkpt>
      <trkpt lat="40.721133" lon="-4.566050">
        <ele>2525.0</ele>
        <time>2014-06-30T14:49:18Z</time>
      </trkpt>
      <trkpt lat="40.721183" lon="-4.565900">
        <ele>2525.0</ele>
        <time>2014-06-30T14:49:19Z</time>
      </trkpt>
      <trkpt lat="40.721217" lon="-4.565750">
        <ele>2527.0</ele>
        <time>2014-06-30T14:49:20Z</time>
      </trkpt>
      <trkpt lat="40.721283" lon="-4.565617">
        <ele>2528.0</ele>
        <time>2014-06-30T14:49:21Z</time>
      </trkpt>
      <trkpt lat="40.721350" lon="-4.565483">
        <ele>2529.0</ele>
        <time>2014-06-30T14:49:22Z</time>
      </trkpt>
      <trkpt lat="40.721450" lon="-4.565400">
        <ele>2530.0</ele>
        <time>2014-06-30T14:49:23Z</time>
      </trkpt>
      <trkpt lat="40.721550" lon="-4.565333">
        <ele>2533.0</ele>
        <time>2014-06-30T14:49:24Z</time>
      </trkpt>
      <trkpt lat="40.721633" lon="-4.565300">
        <ele>2537.0</ele>
        <time>2014-06-30T14:49:25Z</time>
      </trkpt>
      <trkpt lat="40.721700" lon="-4.565267">
        <ele>2541.0</ele>
        <time>2014-06-30T14:49:26Z</time>
      </trkpt>
      <trkpt lat="40.721750" lon="-4.565267">
        <ele>2536.0</ele>
        <time>2014-06-30T14:49:27Z</time>
      </trkpt>
      <trkpt lat="40.721817" lon="-4.565283">
        <ele>2538.0</ele>
        <time>2014-06-30T14:49:28Z</time>
      </trkpt>
      <trkpt lat="40.721883" lon="-4.565300">
        <ele>2539.0</ele>
        <time>2014-06-30T14:49:29Z</time>
      </trkpt>
      <trkpt lat="40.721950" lon="-4.565350">
        <ele>2541.0</ele>
        <time>2014-06-30T14:49:30Z</time>
      </trkpt>
      <trkpt lat="40.721983" lon="-4.565417">
        <ele>2542.0</ele>
        <time>2014-06-30T14:49:31Z</time>
      </trkpt>
      <trkpt lat="40.722000" lon="-4.565483">
        <ele>2543.0</ele>
        <time>2014-06-30T14:49:32Z</time>
      </trkpt>
      <trkpt lat="40.722000" lon="-4.565550">
        <ele>2544.0</ele>
        <time>2014-06-30T14:49:33Z</time>
      </trkpt>
      <trkpt lat="40.721983" lon="-4.565600">
        <ele>2545.0</ele>
        <time>2014-06-30T14:49:34Z</time>
      </trkpt>
      <trkpt lat="40.721967" lon="-4.565667">
        <ele>2546.0</ele>
        <time>2014-06-30T14:49:35Z</time>
      </trkpt>
      <trkpt lat="40.721950" lon="-4.565717">
        <ele>2548.0</ele>
        <time>2014-06-30T14:49:36Z</time>
      </trkpt>
      <trkpt lat="40.721917" lon="-4.565750">
        <ele>2549.0</ele>
        <time>2014-06-30T14:49:37Z</time>
      </trkpt>
      <trkpt lat="40.721883" lon="-4.565783">
        <ele>2550.0</ele>
        <time>2014-06-30T14:49:38Z</time>
      </trkpt>
      <trkpt lat="40.721833" lon="-4.565783">
        <ele>2551.0</ele>
        <time>2014-06-30T14:49:39Z</time>
      </trkpt>
      <trkpt lat="40.721800" lon="-4.565750">
        <ele>2551.0</ele>
        <time>2014-06-30T14:49:40Z</time>
      </trkpt>
      <trkpt lat="40.721750" lon="-4.565683">
        <ele>2552.0</ele>
        <time>2014-06-30T14:49:41Z</time>
      </trkpt>
      <trkpt lat="40.721717" lon="-4.565583">
        <ele>2552.0</ele>
        <time>2014-06-30T14:49:42Z</time>
      </trkpt>
      <trkpt lat="40.721683" lon="-4.565483">
        <ele>2553.0</ele>
        <time>2014-06-30T14:49:43Z</time>
      </trkpt>
      <trkpt lat="40.721650" lon="-4.565367">
        <ele>2553.0</ele>
        <time>2014-06-30T14:49:44Z</time>
      </trkpt>
      <trkpt lat="40.721617" lon="-4.565233">
        <ele>2554.0</ele>
        <time>2014-06-30T14:49:45Z</time>
      </trkpt>
      <trkpt lat="40.721600" lon="-4.565083">
        <ele>2554.0</ele>
        <time>2014-06-30T14:49:46Z</time>
      </trkpt>
      <trkpt lat="40.721600" lon="-4.564933">
        <ele>2555.0</ele>
        <time>2014-06-30T14:49:47Z</time>
      </trkpt>
      <trkpt lat="40.721617" lon="-4.564800">
        <ele>2555.0</ele>
        <time>2014-06-30T14:49:48Z</time>
      </trkpt>
      <trkpt lat="40.721617" lon="-4.564667">
        <ele>2557.0</ele>
        <time>2014-06-30T14:49:49Z</time>
      </trkpt>
      <trkpt lat="40.721617" lon="-4.564533">
        <ele>2558.0</ele>
        <time>2014-06-30T14:49:50Z</time>
      </trkpt>
      <trkpt lat="40.721633" lon="-4.564400">
        <ele>2557.0</ele>
        <time>2014-06-30T14:49:51Z</time>
      </trkpt>
      <trkpt lat="40.721650" lon="-4.564250">
        <ele>2558.0</ele>
        <time>2014-06-30T14:49:52Z</time>
      </trkpt>
      <trkpt lat="40.721667" lon="-4.564083">
        <ele>2559.0</ele>
        <time>2014-06-30T14:49:53Z</time>
      </trkpt>
      <trkpt lat="40.721717" lon="-4.563917">
        <ele>2560.0</ele>
        <time>2014-06-30T14:49:54Z</time>
      </trkpt>
      <trkpt lat="40.721750" lon="-4.563750">
        <ele>2561.0</ele>
        <time>2014-06-30T14:49:55Z</time>
      </trkpt>
      <trkpt lat="40.721800" lon="-4.563583">
        <ele>2562.0</ele>
        <time>2014-06-30T14:49:56Z</time>
      </trkpt>
      <trkpt lat="40.721850" lon="-4.563467">
        <ele>2563.0</ele>
        <time>2014-06-30T14:49:57Z</time>
      </trkpt>
      <trkpt lat="40.721900" lon="-4.563350">
        <ele>2564.0</ele>
        <time>2014-06-30T14:49:58Z</time>
      </trkpt>
      <trkpt lat="40.721983" lon="-4.563250">
        <ele>2567.0</ele>
        <time>2014-06-30T14:49:59Z</time>
      </trkpt>
      <trkpt lat="40.722033" lon="-4.563183">
        <ele>2571.0</ele>
        <time>2014-06-30T14:50:00Z</time>
      </trkpt>
      <trkpt lat="40.722100" lon="-4.563117">
        <ele>2575.0</ele>
        <time>2014-06-30T14:50:01Z</time>
      </trkpt>
      <trkpt lat="40.722150" lon="-4.563067">
        <ele>2572.0</ele>
        <time>2014-06-30T14:50:02Z</time>
      </trkpt>
      <trkpt lat="40.722233" lon="-4.563033">
        <ele>2573.0</ele>
        <time>2014-06-30T14:50:03Z</time>
      </trkpt>
      <trkpt lat="40.722333" lon="-4.563017">
        <ele>2574.0</ele>
        <time>2014-06-30T14:50:04Z</time>
      </trkpt>
      <trkpt lat="40.722417" lon="-4.563000">
        <ele>2575.0</ele>
        <time>2014-06-30T14:50:05Z</time>
      </trkpt>
      <trkpt lat="40.722517" lon="-4.563000">
        <ele>2575.0</ele>
        <time>2014-06-30T14:50:06Z</time>
      </trkpt>
      <trkpt lat="40.722600" lon="-4.563033">
        <ele>2577.0</ele>
        <time>2014-06-30T14:50:07Z</time>
      </trkpt>
      <trkpt lat="40.722667" lon="-4.563067">
        <ele>2578.0</ele>
        <time>2014-06-30T14:50:08Z</time>
      </trkpt>
      <trkpt lat="40.722750" lon="-4.563100">
        <ele>2579.0</ele>
        <time>2014-06-30T14:50:09Z</time>
      </trkpt>
      <trkpt lat="40.722800" lon="-4.563133">
        <ele>2579.0</ele>
        <time>2014-06-30T14:50:10Z</time>
      </trkpt>
      <trkpt lat="40.722867" lon="-4.563167">
        <ele>2579.0</ele>
        <time>2014-06-30T14:50:11Z</time>
      </trkpt>
      <trkpt lat="40.722917" lon="-4.563250">
        <ele>2580.0</ele>
        <time>2014-06-30T14:50:12Z</time>
      </trkpt>
      <trkpt lat="40.722967" lon="-4.563317">
        <ele>2581.0</ele>
        <time>2014-06-30T14:50:13Z</time>
      </trkpt>
      <trkpt lat="40.722967" lon="-4.563400">
        <ele>2581.0</ele>
        <time>2014-06-30T14:50:14Z</time>
      </trkpt>
      <trkpt lat="40.722950" lon="-4.563467">
        <ele>2582.0</ele>
        <time>2014-06-30T14:50:15Z</time>
      </trkpt>
      <trkpt lat="40.722917" lon="-4.563533">
        <ele>2582.0</ele>
        <time>2014-06-30T14:50:16Z</time>
      </trkpt>
      <trkpt lat="40.722867" lon="-4.563550">
        <ele>2582.0</ele>
        <time>2014-06-30T14:50:17Z</time>
      </trkpt>
      <trkpt lat="40.722800" lon="-4.563533">
        <ele>2583.0</ele>
        <time>2014-06-30T14:50:18Z</time>
      </trkpt>
      <trkpt lat="40.722733" lon="-4.563517">
        <ele>2583.0</ele>
        <time>2014-06-30T14:50:19Z</time>
      </trkpt>
      <trkpt lat="40.722667" lon="-4.563483">
        <ele>2584.0</ele>
        <time>2014-06-30T14:50:20Z</time>
      </trkpt>
      <trkpt lat="40.722617" lon="-4.563417">
        <ele>2584.0</ele>
        <time>2014-06-30T14:50:21Z</time>
      </trkpt>
      <trkpt lat="40.722550" lon="-4.563350">
        <ele>2584.0</ele>
        <time>2014-06-30T14:50:22Z</time>
      </trkpt>
      <trkpt lat="40.722500" lon="-4.563250">
        <ele>2585.0</ele>
        <time>2014-06-30T14:50:23Z</time>
      </trkpt>
      <trkpt lat="40.722450" lon="-4.563133">
        <ele>2585.0</ele>
        <time>2014-06-30T14:50:24Z</time>
      </trkpt>
      <trkpt lat="40.722400" lon="-4.563017">
        <ele>2585.0</ele>
        <time>2014-06-30T14:50:25Z</time>
      </trkpt>
      <trkpt lat="40.722367" lon="-4.562883">
        <ele>2585.0</ele>
        <time>2014-06-30T14:50:26Z</time>
      </trkpt>
      <trkpt lat="40.722350" lon="-4.562733">
        <ele>2586.0</ele>
        <time>2014-06-30T14:50:27Z</time>
      </trkpt>
      <trkpt lat="40.722367" lon="-4.562600">
        <ele>2586.0</ele>
        <time>2014-06-30T14:50:28Z</time>
      </trkpt>
      <trkpt lat="40.722350" lon="-4.562483">
        <ele>2587.0</ele>
        <time>2014-06-30T14:50:29Z</time>
      </trkpt>
      <trkpt lat="40.722350" lon="-4.562350">
        <ele>2588.0</ele>
        <time>2014-06-30T14:50:30Z</time>
      </trkpt>
      <trkpt lat="40.722333" lon="-4.562217">
        <ele>2588.0</ele>
        <time>2014-06-30T14:50:31Z</time>
      </trkpt>
      <trkpt lat="40.722317" lon="-4.562067">
        <ele>2589.0</ele>
        <time>2014-06-30T14:50:32Z</time>
      </trkpt>
      <trkpt lat="40.722333" lon="-4.561917">
        <ele>2589.0</ele>
        <time>2014-06-30T14:50:33Z</time>
      </trkpt>
      <trkpt lat="40.722333" lon="-4.561767">
        <ele>2590.0</ele>
        <time>2014-06-30T14:50:34Z</time>
      </trkpt>
      <trkpt lat="40.722350" lon="-4.561633">
        <ele>2591.0</ele>
        <time>2014-06-30T14:50:35Z</time>
      </trkpt>
      <trkpt lat="40.722400" lon="-4.561483">
        <ele>2591.0</ele>
        <time>2014-06-30T14:50:36Z</time>
      </trkpt>
      <trkpt lat="40.722433" lon="-4.561350">
        <ele>2593.0</ele>
        <time>2014-06-30T14:50:37Z</time>
      </trkpt>
      <trkpt lat="40.722483" lon="-4.561217">
        <ele>2594.0</ele>
        <time>2014-06-30T14:50:38Z</time>
      </trkpt>
      <trkpt lat="40.722533" lon="-4.561100">
        <ele>2596.0</ele>
        <time>2014-06-30T14:50:39Z</time>
      </trkpt>
      <trkpt lat="40.722600" lon="-4.560983">
        <ele>2598.0</ele>
        <time>2014-06-30T14:50:40Z</time>
      </trkpt>
      <trkpt lat="40.722667" lon="-4.560883">
        <ele>2599.0</ele>
        <time>2014-06-30T14:50:41Z</time>
      </trkpt>
      <trkpt lat="40.722733" lon="-4.560783">
        <ele>2600.0</ele>
        <time>2014-06-30T14:50:42Z</time>
      </trkpt>
      <trkpt lat="40.722817" lon="-4.560667">
        <ele>2600.0</ele>
        <time>2014-06-30T14:50:43Z</time>
      </trkpt>
      <trkpt lat="40.722900" lon="-4.560533">
        <ele>2601.0</ele>
        <time>2014-06-30T14:50:44Z</time>
      </trkpt>
      <trkpt lat="40.722967" lon="-4.560433">
        <ele>2602.0</ele>
        <time>2014-06-30T14:50:45Z</time>
      </trkpt>
      <trkpt lat="40.723050" lon="-4.560317">
        <ele>2603.0</ele>
        <time>2014-06-30T14:50:46Z</time>
      </trkpt>
      <trkpt lat="40.723117" lon="-4.560217">
        <ele>2603.0</ele>
        <time>2014-06-30T14:50:47Z</time>
      </trkpt>
      <trkpt lat="40.723217" lon="-4.560117">
        <ele>2603.0</ele>
        <time>2014-06-30T14:50:48Z</time>
      </trkpt>
      <trkpt lat="40.723300" lon="-4.560017">
        <ele>2602.0</ele>
        <time>2014-06-30T14:50:49Z</time>
      </trkpt>
      <trkpt lat="40.723400" lon="-4.559900">
        <ele>2601.0</ele>
        <time>2014-06-30T14:50:50Z</time>
      </trkpt>
      <trkpt lat="40.723483" lon="-4.559767">
        <ele>2600.0</ele>
        <time>2014-06-30T14:50:51Z</time>
      </trkpt>
      <trkpt lat="40.723583" lon="-4.559650">
        <ele>2600.0</ele>
        <time>2014-06-30T14:50:52Z</time>
      </trkpt>
      <trkpt lat="40.723667" lon="-4.559517">
        <ele>2599.0</ele>
        <time>2014-06-30T14:50:53Z</time>
      </trkpt>
      <trkpt lat="40.723750" lon="-4.559383">
        <ele>2598.0</ele>
        <time>2014-06-30T14:50:54Z</time>
      </trkpt>
      <trkpt lat="40.723833" lon="-4.559250">
        <ele>2598.0</ele>
        <time>2014-06-30T14:50:55Z</time>
      </trkpt>
      <trkpt lat="40.723917" lon="-4.559117">
        <ele>2597.0</ele>
        <time>2014-06-30T14:50:56Z</time>
      </trkpt>
      <trkpt lat="40.724000" lon="-4.559000">
        <ele>2597.0</ele>
        <time>2014-06-30T14:50:57Z</time>
      </trkpt>
      <trkpt lat="40.724083" lon="-4.558867">
        <ele>2597.0</ele>
        <time>2014-06-30T14:50:58Z</time>
      </trkpt>
      <trkpt lat="40.724167" lon="-4.558733">
        <ele>2597.0</ele>
        <time>2014-06-30T14:50:59Z</time>
      </trkpt>
      <trkpt lat="40.724250" lon="-4.558600">
        <ele>2598.0</ele>
        <time>2014-06-30T14:51:00Z</time>
      </trkpt>
      <trkpt lat="40.724317" lon="-4.558483">
        <ele>2599.0</ele>
        <time>2014-06-30T14:51:01Z</time>
      </trkpt>
      <trkpt lat="40.724367" lon="-4.558383">
        <ele>2600.0</ele>
        <time>2014-06-30T14:51:02Z</time>
      </trkpt>
      <trkpt lat="40.724433" lon="-4.558300">
        <ele>2600.0</ele>
        <time>2014-06-30T14:51:03Z</time>
      </trkpt>
      <trkpt lat="40.724517" lon="-4.558233">
        <ele>2601.0</ele>
        <time>2014-06-30T14:51:04Z</time>
      </trkpt>
      <trkpt lat="40.724600" lon="-4.558167">
        <ele>2601.0</ele>
        <time>2014-06-30T14:51:05Z</time>
      </trkpt>
      <trkpt lat="40.724683" lon="-4.558083">
        <ele>2600.0</ele>
        <time>2014-06-30T14:51:06Z</time>
      </trkpt>
      <trkpt lat="40.724767" lon="-4.558000">
        <ele>2599.0</ele>
        <time>2014-06-30T14:51:07Z</time>
      </trkpt>
      <trkpt lat="40.724850" lon="-4.557900">
        <ele>2599.0</ele>
        <time>2014-06-30T14:51:08Z</time>
      </trkpt>
      <trkpt lat="40.724933" lon="-4.557800">
        <ele>2599.0</ele>
        <time>2014-06-30T14:51:09Z</time>
      </trkpt>
      <trkpt lat="40.725017" lon="-4.557700">
        <ele>2599.0</ele>
        <time>2014-06-30T14:51:10Z</time>
      </trkpt>
      <trkpt lat="40.725083" lon="-4.557583">
        <ele>2598.0</ele>
        <time>2014-06-30T14:51:11Z</time>
      </trkpt>
      <trkpt lat="40.725167" lon="-4.557450">
        <ele>2597.0</ele>
        <time>2014-06-30T14:51:12Z</time>
      </trkpt>
      <trkpt lat="40.725250" lon="-4.557317">
        <ele>2596.0</ele>
        <time>2014-06-30T14:51:13Z</time>
      </trkpt>
      <trkpt lat="40.725333" lon="-4.557183">
        <ele>2595.0</ele>
        <time>2014-06-30T14:51:14Z</time>
      </trkpt>
      <trkpt lat="40.725400" lon="-4.557067">
        <ele>2595.0</ele>
        <time>2014-06-30T14:51:15Z</time>
      </trkpt>
      <trkpt lat="40.725467" lon="-4.556933">
        <ele>2594.0</ele>
        <time>2014-06-30T14:51:16Z</time>
      </trkpt>
      <trkpt lat="40.725517" lon="-4.556817">
        <ele>2594.0</ele>
        <time>2014-06-30T14:51:17Z</time>
      </trkpt>
      <trkpt lat="40.725567" lon="-4.556700">
        <ele>2594.0</ele>
        <time>2014-06-30T14:51:18Z</time>
      </trkpt>
      <trkpt lat="40.725633" lon="-4.556600">
        <ele>2594.0</ele>
        <time>2014-06-30T14:51:19Z</time>
      </trkpt>
      <trkpt lat="40.725700" lon="-4.556467">
        <ele>2593.0</ele>
        <time>2014-06-30T14:51:20Z</time>
      </trkpt>
      <trkpt lat="40.725767" lon="-4.556333">
        <ele>2590.0</ele>
        <time>2014-06-30T14:51:21Z</time>
      </trkpt>
      <trkpt lat="40.725850" lon="-4.556167">
        <ele>2589.0</ele>
        <time>2014-06-30T14:51:22Z</time>
      </trkpt>
      <trkpt lat="40.725933" lon="-4.556017">
        <ele>2588.0</ele>
        <time>2014-06-30T14:51:23Z</time>
      </trkpt>
      <trkpt lat="40.726000" lon="-4.555867">
        <ele>2587.0</ele>
        <time>2014-06-30T14:51:24Z</time>
      </trkpt>
      <trkpt lat="40.726067" lon="-4.555733">
        <ele>2586.0</ele>
        <time>2014-06-30T14:51:25Z</time>
      </trkpt>
      <trkpt lat="40.726150" lon="-4.555600">
        <ele>2584.0</ele>
        <time>2014-06-30T14:51:26Z</time>
      </trkpt>
      <trkpt lat="40.726233" lon="-4.555467">
        <ele>2582.0</ele>
        <time>2014-06-30T14:51:27Z</time>
      </trkpt>
      <trkpt lat="40.726317" lon="-4.555317">
        <ele>2581.0</ele>
        <time>2014-06-30T14:51:28Z</time>
      </trkpt>
      <trkpt lat="40.726400" lon="-4.555167">
        <ele>2579.0</ele>
        <time>2014-06-30T14:51:29Z</time>
      </trkpt>
      <trkpt lat="40.726467" lon="-4.555017">
        <ele>2577.0</ele>
        <time>2014-06-30T14:51:30Z</time>
      </trkpt>
      <trkpt lat="40.726533" lon="-4.554883">
        <ele>2576.0</ele>
        <time>2014-06-30T14:51:31Z</time>
      </trkpt>
      <trkpt lat="40.726617" lon="-4.554767">
        <ele>2574.0</ele>
        <time>2014-06-30T14:51:32Z</time>
      </trkpt>
      <trkpt lat="40.726683" lon="-4.554633">
        <ele>2573.0</ele>
        <time>2014-06-30T14:51:33Z</time>
      </trkpt>
      <trkpt lat="40.726750" lon="-4.554500">
        <ele>2570.0</ele>
        <time>2014-06-30T14:51:34Z</time>
      </trkpt>
      <trkpt lat="40.726817" lon="-4.554367">
        <ele>2568.0</ele>
        <time>2014-06-30T14:51:35Z</time>
      </trkpt>
      <trkpt lat="40.726883" lon="-4.554233">
        <ele>2566.0</ele>
        <time>2014-06-30T14:51:36Z</time>
      </trkpt>
      <trkpt lat="40.726950" lon="-4.554100">
        <ele>2564.0</ele>
        <time>2014-06-30T14:51:37Z</time>
      </trkpt>
      <trkpt lat="40.727017" lon="-4.553950">
        <ele>2561.0</ele>
        <time>2014-06-30T14:51:38Z</time>
      </trkpt>
      <trkpt lat="40.727100" lon="-4.553817">
        <ele>2558.0</ele>
        <time>2014-06-30T14:51:39Z</time>
      </trkpt>
      <trkpt lat="40.727183" lon="-4.553667">
        <ele>2554.0</ele>
        <time>2014-06-30T14:51:40Z</time>
      </trkpt>
      <trkpt lat="40.727267" lon="-4.553533">
        <ele>2551.0</ele>
        <time>2014-06-30T14:51:41Z</time>
      </trkpt>
      <trkpt lat="40.727367" lon="-4.553400">
        <ele>2548.0</ele>
        <time>2014-06-30T14:51:42Z</time>
      </trkpt>
      <trkpt lat="40.727450" lon="-4.553267">
        <ele>2546.0</ele>
        <time>2014-06-30T14:51:43Z</time>
      </trkpt>
      <trkpt lat="40.727533" lon="-4.553150">
        <ele>2543.0</ele>
        <time>2014-06-30T14:51:44Z</time>
      </trkpt>
      <trkpt lat="40.727633" lon="-4.553050">
        <ele>2540.0</ele>
        <time>2014-06-30T14:51:45Z</time>
      </trkpt>
      <trkpt lat="40.727733" lon="-4.552933">
        <ele>2537.0</ele>
        <time>2014-06-30T14:51:46Z</time>
      </trkpt>
      <trkpt lat="40.727833" lon="-4.552800">
        <ele>2534.0</ele>
        <time>2014-06-30T14:51:47Z</time>
      </trkpt>
      <trkpt lat="40.727933" lon="-4.552683">
        <ele>2532.0</ele>
        <time>2014-06-30T14:51:48Z</time>
      </trkpt>
      <trkpt lat="40.728033" lon="-4.552567">
        <ele>2529.0</ele>
        <time>2014-06-30T14:51:49Z</time>
      </trkpt>
      <trkpt lat="40.728133" lon="-4.552450">
        <ele>2526.0</ele>
        <time>2014-06-30T14:51:50Z</time>
      </trkpt>
      <trkpt lat="40.728233" lon="-4.552350">
        <ele>2524.0</ele>
        <time>2014-06-30T14:51:51Z</time>
      </trkpt>
      <trkpt lat="40.728350" lon="-4.552233">
        <ele>2522.0</ele>
        <time>2014-06-30T14:51:52Z</time>
      </trkpt>
      <trkpt lat="40.728450" lon="-4.552117">
        <ele>2519.0</ele>
        <time>2014-06-30T14:51:53Z</time>
      </trkpt>
      <trkpt lat="40.728550" lon="-4.552017">
        <ele>2517.0</ele>
        <time>2014-06-30T14:51:54Z</time>
      </trkpt>
      <trkpt lat="40.728650" lon="-4.551900">
        <ele>2515.0</ele>
        <time>2014-06-30T14:51:55Z</time>
      </trkpt>
      <trkpt lat="40.728750" lon="-4.551783">
        <ele>2512.0</ele>
        <time>2014-06-30T14:51:56Z</time>
      </trkpt>
      <trkpt lat="40.728850" lon="-4.551650">
        <ele>2510.0</ele>
        <time>2014-06-30T14:51:57Z</time>
      </trkpt>
      <trkpt lat="40.728950" lon="-4.551517">
        <ele>2508.0</ele>
        <time>2014-06-30T14:51:58Z</time>
      </trkpt>
      <trkpt lat="40.729050" lon="-4.551383">
        <ele>2506.0</ele>
        <time>2014-06-30T14:51:59Z</time>
      </trkpt>
      <trkpt lat="40.729150" lon="-4.551267">
        <ele>2503.0</ele>
        <time>2014-06-30T14:52:00Z</time>
      </trkpt>
      <trkpt lat="40.729250" lon="-4.551133">
        <ele>2500.0</ele>
        <time>2014-06-30T14:52:01Z</time>
      </trkpt>
      <trkpt lat="40.729350" lon="-4.551017">
        <ele>2498.0</ele>
        <time>2014-06-30T14:52:02Z</time>
      </trkpt>
      <trkpt lat="40.729450" lon="-4.550883">
        <ele>2496.0</ele>
        <time>2014-06-30T14:52:03Z</time>
      </trkpt>
      <trkpt lat="40.729550" lon="-4.550767">
        <ele>2494.0</ele>
        <time>2014-06-30T14:52:04Z</time>
      </trkpt>
      <trkpt lat="40.729650" lon="-4.550650">
        <ele>2492.0</ele>
        <time>2014-06-30T14:52:05Z</time>
      </trkpt>
      <trkpt lat="40.729750" lon="-4.550533">
        <ele>2491.0</ele>
        <time>2014-06-30T14:52:06Z</time>
      </trkpt>
      <trkpt lat="40.729850" lon="-4.550417">
        <ele>2489.0</ele>
        <time>2014-06-30T14:52:07Z</time>
      </trkpt>
      <trkpt lat="40.729967" lon="-4.550300">
        <ele>2487.0</ele>
        <time>2014-06-30T14:52:08Z</time>
      </trkpt>
      <trkpt lat="40.730067" lon="-4.550200">
        <ele>2485.0</ele>
        <time>2014-06-30T14:52:09Z</time>
      </trkpt>
      <trkpt lat="40.730183" lon="-4.550100">
        <ele>2483.0</ele>
        <time>2014-06-30T14:52:10Z</time>
      </trkpt>
      <trkpt lat="40.730300" lon="-4.549983">
        <ele>2481.0</ele>
        <time>2014-06-30T14:52:11Z</time>
      </trkpt>
      <trkpt lat="40.730417" lon="-4.549883">
        <ele>2479.0</ele>
        <time>2014-06-30T14:52:12Z</time>
      </trkpt>
      <trkpt lat="40.730517" lon="-4.549767">
        <ele>2478.0</ele>
        <time>2014-06-30T14:52:13Z</time>
      </trkpt>
      <trkpt lat="40.730633" lon="-4.549650">
        <ele>2476.0</ele>
        <time>2014-06-30T14:52:14Z</time>
      </trkpt>
      <trkpt lat="40.730750" lon="-4.549550">
        <ele>2474.0</ele>
        <time>2014-06-30T14:52:15Z</time>
      </trkpt>
      <trkpt lat="40.730867" lon="-4.549467">
        <ele>2472.0</ele>
        <time>2014-06-30T14:52:16Z</time>
      </trkpt>
      <trkpt lat="40.730983" lon="-4.549367">
        <ele>2470.0</ele>
        <time>2014-06-30T14:52:17Z</time>
      </trkpt>
      <trkpt lat="40.731100" lon="-4.549267">
        <ele>2470.0</ele>
        <time>2014-06-30T14:52:18Z</time>
      </trkpt>
      <trkpt lat="40.731217" lon="-4.549167">
        <ele>2469.0</ele>
        <time>2014-06-30T14:52:19Z</time>
      </trkpt>
      <trkpt lat="40.731317" lon="-4.549067">
        <ele>2468.0</ele>
        <time>2014-06-30T14:52:20Z</time>
      </trkpt>
      <trkpt lat="40.731433" lon="-4.548983">
        <ele>2466.0</ele>
        <time>2014-06-30T14:52:21Z</time>
      </trkpt>
      <trkpt lat="40.731550" lon="-4.548883">
        <ele>2465.0</ele>
        <time>2014-06-30T14:52:22Z</time>
      </trkpt>
      <trkpt lat="40.731667" lon="-4.548783">
        <ele>2464.0</ele>
        <time>2014-06-30T14:52:23Z</time>
      </trkpt>
      <trkpt lat="40.731783" lon="-4.548683">
        <ele>2462.0</ele>
        <time>2014-06-30T14:52:24Z</time>
      </trkpt>
      <trkpt lat="40.731900" lon="-4.548583">
        <ele>2461.0</ele>
        <time>2014-06-30T14:52:25Z</time>
      </trkpt>
      <trkpt lat="40.732017" lon="-4.548500">
        <ele>2460.0</ele>
        <time>2014-06-30T14:52:26Z</time>
      </trkpt>
      <trkpt lat="40.732117" lon="-4.548400">
        <ele>2459.0</ele>
        <time>2014-06-30T14:52:27Z</time>
      </trkpt>
      <trkpt lat="40.732200" lon="-4.548300">
        <ele>2458.0</ele>
        <time>2014-06-30T14:52:28Z</time>
      </trkpt>
      <trkpt lat="40.732283" lon="-4.548183">
        <ele>2457.0</ele>
        <time>2014-06-30T14:52:29Z</time>
      </trkpt>
      <trkpt lat="40.732367" lon="-4.548083">
        <ele>2455.0</ele>
        <time>2014-06-30T14:52:30Z</time>
      </trkpt>
      <trkpt lat="40.732467" lon="-4.547983">
        <ele>2453.0</ele>
        <time>2014-06-30T14:52:31Z</time>
      </trkpt>
      <trkpt lat="40.732600" lon="-4.547883">
        <ele>2451.0</ele>
        <time>2014-06-30T14:52:32Z</time>
      </trkpt>
      <trkpt lat="40.732717" lon="-4.547767">
        <ele>2449.0</ele>
        <time>2014-06-30T14:52:33Z</time>
      </trkpt>
      <trkpt lat="40.732817" lon="-4.547633">
        <ele>2447.0</ele>
        <time>2014-06-30T14:52:34Z</time>
      </trkpt>
      <trkpt lat="40.732917" lon="-4.547500">
        <ele>2445.0</ele>
        <time>2014-06-30T14:52:35Z</time>
      </trkpt>
      <trkpt lat="40.733017" lon="-4.547367">
        <ele>2444.0</ele>
        <time>2014-06-30T14:52:36Z</time>
      </trkpt>
      <trkpt lat="40.733117" lon="-4.547250">
        <ele>2443.0</ele>
        <time>2014-06-30T14:52:37Z</time>
      </trkpt>
      <trkpt lat="40.733217" lon="-4.547150">
        <ele>2442.0</ele>
        <time>2014-06-30T14:52:38Z</time>
      </trkpt>
      <trkpt lat="40.733317" lon="-4.547050">
        <ele>2441.0</ele>
        <time>2014-06-30T14:52:39Z</time>
      </trkpt>
      <trkpt lat="40.733417" lon="-4.546950">
        <ele>2440.0</ele>
        <time>2014-06-30T14:52:40Z</time>
      </trkpt>
      <trkpt lat="40.733533" lon="-4.546850">
        <ele>2439.0</ele>
        <time>2014-06-30T14:52:41Z</time>
      </trkpt>
      <trkpt lat="40.733633" lon="-4.546733">
        <ele>2437.0</ele>
        <time>2014-06-30T14:52:42Z</time>
      </trkpt>
      <trkpt lat="40.733750" lon="-4.546633">
        <ele>2435.0</ele>
        <time>2014-06-30T14:52:43Z</time>
      </trkpt>
      <trkpt lat="40.733867" lon="-4.546533">
        <ele>2434.0</ele>
        <time>2014-06-30T14:52:44Z</time>
      </trkpt>
      <trkpt lat="40.733967" lon="-4.546417">
        <ele>2433.0</ele>
        <time>2014-06-30T14:52:45Z</time>
      </trkpt>
      <trkpt lat="40.734083" lon="-4.546317">
        <ele>2432.0</ele>
        <time>2014-06-30T14:52:46Z</time>
      </trkpt>
      <trkpt lat="40.734183" lon="-4.546217">
        <ele>2431.0</ele>
        <time>2014-06-30T14:52:47Z</time>
      </trkpt>
      <trkpt lat="40.734300" lon="-4.546117">
        <ele>2430.0</ele>
        <time>2014-06-30T14:52:48Z</time>
      </trkpt>
      <trkpt lat="40.734400" lon="-4.546017">
        <ele>2428.0</ele>
        <time>2014-06-30T14:52:49Z</time>
      </trkpt>
      <trkpt lat="40.734500" lon="-4.545883">
        <ele>2427.0</ele>
        <time>2014-06-30T14:52:50Z</time>
      </trkpt>
      <trkpt lat="40.734600" lon="-4.545767">
        <ele>2426.0</ele>
        <time>2014-06-30T14:52:51Z</time>
      </trkpt>
      <trkpt lat="40.734717" lon="-4.545650">
        <ele>2424.0</ele>
        <time>2014-06-30T14:52:52Z</time>
      </trkpt>
      <trkpt lat="40.734817" lon="-4.545550">
        <ele>2423.0</ele>
        <time>2014-06-30T14:52:53Z</time>
      </trkpt>
      <trkpt lat="40.734917" lon="-4.545450">
        <ele>2423.0</ele>
        <time>2014-06-30T14:52:54Z</time>
      </trkpt>
      <trkpt lat="40.735017" lon="-4.545333">
        <ele>2422.0</ele>
        <time>2014-06-30T14:52:55Z</time>
      </trkpt>
      <trkpt lat="40.735117" lon="-4.545233">
        <ele>2421.0</ele>
        <time>2014-06-30T14:52:56Z</time>
      </trkpt>
      <trkpt lat="40.735217" lon="-4.545117">
        <ele>2420.0</ele>
        <time>2014-06-30T14:52:57Z</time>
      </trkpt>
      <trkpt lat="40.735317" lon="-4.545017">
        <ele>2418.0</ele>
        <time>2014-06-30T14:52:58Z</time>
      </trkpt>
      <trkpt lat="40.735433" lon="-4.544900">
        <ele>2417.0</ele>
        <time>2014-06-30T14:52:59Z</time>
      </trkpt>
      <trkpt lat="40.735533" lon="-4.544800">
        <ele>2416.0</ele>
        <time>2014-06-30T14:53:00Z</time>
      </trkpt>
      <trkpt lat="40.735650" lon="-4.544683">
        <ele>2415.0</ele>
        <time>2014-06-30T14:53:01Z</time>
      </trkpt>
      <trkpt lat="40.735750" lon="-4.544583">
        <ele>2414.0</ele>
        <time>2014-06-30T14:53:02Z</time>
      </trkpt>
      <trkpt lat="40.735850" lon="-4.544483">
        <ele>2413.0</ele>
        <time>2014-06-30T14:53:03Z</time>
      </trkpt>
      <trkpt lat="40.735967" lon="-4.544383">
        <ele>2412.0</ele>
        <time>2014-06-30T14:53:04Z</time>
      </trkpt>
      <trkpt lat="40.736083" lon="-4.544267">
        <ele>2410.0</ele>
        <time>2014-06-30T14:53:05Z</time>
      </trkpt>
      <trkpt lat="40.736183" lon="-4.544150">
        <ele>2408.0</ele>
        <time>2014-06-30T14:53:06Z</time>
      </trkpt>
      <trkpt lat="40.736300" lon="-4.544033">
        <ele>2407.0</ele>
        <time>2014-06-30T14:53:07Z</time>
      </trkpt>
      <trkpt lat="40.736417" lon="-4.543900">
        <ele>2406.0</ele>
        <time>2014-06-30T14:53:08Z</time>
      </trkpt>
      <trkpt lat="40.736517" lon="-4.543767">
        <ele>2405.0</ele>
        <time>2014-06-30T14:53:09Z</time>
      </trkpt>
      <trkpt lat="40.736617" lon="-4.543650">
        <ele>2404.0</ele>
        <time>2014-06-30T14:53:10Z</time>
      </trkpt>
      <trkpt lat="40.736733" lon="-4.543550">
        <ele>2403.0</ele>
        <time>2014-06-30T14:53:11Z</time>
      </trkpt>
      <trkpt lat="40.736850" lon="-4.543433">
        <ele>2402.0</ele>
        <time>2014-06-30T14:53:12Z</time>
      </trkpt>
      <trkpt lat="40.736950" lon="-4.543317">
        <ele>2401.0</ele>
        <time>2014-06-30T14:53:13Z</time>
      </trkpt>
      <trkpt lat="40.737050" lon="-4.543200">
        <ele>2400.0</ele>
        <time>2014-06-30T14:53:14Z</time>
      </trkpt>
      <trkpt lat="40.737150" lon="-4.543083">
        <ele>2398.0</ele>
        <time>2014-06-30T14:53:15Z</time>
      </trkpt>
      <trkpt lat="40.737267" lon="-4.542983">
        <ele>2397.0</ele>
        <time>2014-06-30T14:53:16Z</time>
      </trkpt>
      <trkpt lat="40.737367" lon="-4.542883">
        <ele>2396.0</ele>
        <time>2014-06-30T14:53:17Z</time>
      </trkpt>
      <trkpt lat="40.737483" lon="-4.542767">
        <ele>2394.0</ele>
        <time>2014-06-30T14:53:18Z</time>
      </trkpt>
      <trkpt lat="40.737583" lon="-4.542650">
        <ele>2393.0</ele>
        <time>2014-06-30T14:53:19Z</time>
      </trkpt>
      <trkpt lat="40.737683" lon="-4.542533">
        <ele>2390.0</ele>
        <time>2014-06-30T14:53:20Z</time>
      </trkpt>
      <trkpt lat="40.737783" lon="-4.542433">
        <ele>2388.0</ele>
        <time>2014-06-30T14:53:21Z</time>
      </trkpt>
      <trkpt lat="40.737900" lon="-4.542333">
        <ele>2386.0</ele>
        <time>2014-06-30T14:53:22Z</time>
      </trkpt>
      <trkpt lat="40.738000" lon="-4.542233">
        <ele>2384.0</ele>
        <time>2014-06-30T14:53:23Z</time>
      </trkpt>
      <trkpt lat="40.738117" lon="-4.542117">
        <ele>2383.0</ele>
        <time>2014-06-30T14:53:24Z</time>
      </trkpt>
      <trkpt lat="40.738217" lon="-4.542000">
        <ele>2381.0</ele>
        <time>2014-06-30T14:53:25Z</time>
      </trkpt>
      <trkpt lat="40.738317" lon="-4.541900">
        <ele>2380.0</ele>
        <time>2014-06-30T14:53:26Z</time>
      </trkpt>
      <trkpt lat="40.738417" lon="-4.541800">
        <ele>2378.0</ele>
        <time>2014-06-30T14:53:27Z</time>
      </trkpt>
      <trkpt lat="40.738533" lon="-4.541683">
        <ele>2376.0</ele>
        <time>2014-06-30T14:53:28Z</time>
      </trkpt>
      <trkpt lat="40.738650" lon="-4.541567">
        <ele>2375.0</ele>
        <time>2014-06-30T14:53:29Z</time>
      </trkpt>
      <trkpt lat="40.738750" lon="-4.541450">
        <ele>2373.0</ele>
        <time>2014-06-30T14:53:30Z</time>
      </trkpt>
      <trkpt lat="40.738850" lon="-4.541317">
        <ele>2371.0</ele>
        <time>2014-06-30T14:53:31Z</time>
      </trkpt>
      <trkpt lat="40.738950" lon="-4.541183">
        <ele>2370.0</ele>
        <time>2014-06-30T14:53:32Z</time>
      </trkpt>
      <trkpt lat="40.739050" lon="-4.541067">
        <ele>2368.0</ele>
        <time>2014-06-30T14:53:33Z</time>
      </trkpt>
      <trkpt lat="40.739150" lon="-4.540950">
        <ele>2366.0</ele>
        <time>2014-06-30T14:53:34Z</time>
      </trkpt>
      <trkpt lat="40.739250" lon="-4.540817">
        <ele>2364.0</ele>
        <time>2014-06-30T14:53:35Z</time>
      </trkpt>
      <trkpt lat="40.739350" lon="-4.540683">
        <ele>2363.0</ele>
        <time>2014-06-30T14:53:36Z</time>
      </trkpt>
      <trkpt lat="40.739450" lon="-4.540550">
        <ele>2361.0</ele>
        <time>2014-06-30T14:53:37Z</time>
      </trkpt>
      <trkpt lat="40.739550" lon="-4.540400">
        <ele>2359.0</ele>
        <time>2014-06-30T14:53:38Z</time>
      </trkpt>
      <trkpt lat="40.739650" lon="-4.540267">
        <ele>2357.0</ele>
        <time>2014-06-30T14:53:39Z</time>
      </trkpt>
      <trkpt lat="40.739750" lon="-4.540133">
        <ele>2356.0</ele>
        <time>2014-06-30T14:53:40Z</time>
      </trkpt>
      <trkpt lat="40.739833" lon="-4.540000">
        <ele>2354.0</ele>
        <time>2014-06-30T14:53:41Z</time>
      </trkpt>
      <trkpt lat="40.739900" lon="-4.539850">
        <ele>2353.0</ele>
        <time>2014-06-30T14:53:42Z</time>
      </trkpt>
      <trkpt lat="40.739967" lon="-4.539700">
        <ele>2351.0</ele>
        <time>2014-06-30T14:53:43Z</time>
      </trkpt>
      <trkpt lat="40.740050" lon="-4.539550">
        <ele>2349.0</ele>
        <time>2014-06-30T14:53:44Z</time>
      </trkpt>
      <trkpt lat="40.740133" lon="-4.539400">
        <ele>2348.0</ele>
        <time>2014-06-30T14:53:45Z</time>
      </trkpt>
      <trkpt lat="40.740217" lon="-4.539267">
        <ele>2346.0</ele>
        <time>2014-06-30T14:53:46Z</time>
      </trkpt>
      <trkpt lat="40.740300" lon="-4.539117">
        <ele>2345.0</ele>
        <time>2014-06-30T14:53:47Z</time>
      </trkpt>
      <trkpt lat="40.740367" lon="-4.538983">
        <ele>2343.0</ele>
        <time>2014-06-30T14:53:48Z</time>
      </trkpt>
      <trkpt lat="40.740433" lon="-4.538833">
        <ele>2341.0</ele>
        <time>2014-06-30T14:53:49Z</time>
      </trkpt>
      <trkpt lat="40.740517" lon="-4.538700">
        <ele>2339.0</ele>
        <time>2014-06-30T14:53:50Z</time>
      </trkpt>
      <trkpt lat="40.740617" lon="-4.538567">
        <ele>2338.0</ele>
        <time>2014-06-30T14:53:51Z</time>
      </trkpt>
      <trkpt lat="40.740700" lon="-4.538433">
        <ele>2337.0</ele>
        <time>2014-06-30T14:53:52Z</time>
      </trkpt>
      <trkpt lat="40.740783" lon="-4.538300">
        <ele>2335.0</ele>
        <time>2014-06-30T14:53:53Z</time>
      </trkpt>
      <trkpt lat="40.740867" lon="-4.538167">
        <ele>2334.0</ele>
        <time>2014-06-30T14:53:54Z</time>
      </trkpt>
      <trkpt lat="40.740950" lon="-4.538050">
        <ele>2332.0</ele>
        <time>2014-06-30T14:53:55Z</time>
      </trkpt>
      <trkpt lat="40.741033" lon="-4.537933">
        <ele>2329.0</ele>
        <time>2014-06-30T14:53:56Z</time>
      </trkpt>
      <trkpt lat="40.741150" lon="-4.537800">
        <ele>2326.0</ele>
        <time>2014-06-30T14:53:57Z</time>
      </trkpt>
      <trkpt lat="40.741250" lon="-4.537667">
        <ele>2323.0</ele>
        <time>2014-06-30T14:53:58Z</time>
      </trkpt>
      <trkpt lat="40.741350" lon="-4.537517">
        <ele>2322.0</ele>
        <time>2014-06-30T14:53:59Z</time>
      </trkpt>
      <trkpt lat="40.741417" lon="-4.537383">
        <ele>2320.0</ele>
        <time>2014-06-30T14:54:00Z</time>
      </trkpt>
      <trkpt lat="40.741483" lon="-4.537250">
        <ele>2319.0</ele>
        <time>2014-06-30T14:54:01Z</time>
      </trkpt>
      <trkpt lat="40.741550" lon="-4.537133">
        <ele>2317.0</ele>
        <time>2014-06-30T14:54:02Z</time>
      </trkpt>
      <trkpt lat="40.741633" lon="-4.537017">
        <ele>2315.0</ele>
        <time>2014-06-30T14:54:03Z</time>
      </trkpt>
      <trkpt lat="40.741733" lon="-4.536883">
        <ele>2313.0</ele>
        <time>2014-06-30T14:54:04Z</time>
      </trkpt>
      <trkpt lat="40.741817" lon="-4.536733">
        <ele>2310.0</ele>
        <time>2014-06-30T14:54:05Z</time>
      </trkpt>
      <trkpt lat="40.741900" lon="-4.536583">
        <ele>2308.0</ele>
        <time>2014-06-30T14:54:06Z</time>
      </trkpt>
      <trkpt lat="40.741967" lon="-4.536417">
        <ele>2307.0</ele>
        <time>2014-06-30T14:54:07Z</time>
      </trkpt>
      <trkpt lat="40.742050" lon="-4.536267">
        <ele>2306.0</ele>
        <time>2014-06-30T14:54:08Z</time>
      </trkpt>
      <trkpt lat="40.742117" lon="-4.536117">
        <ele>2304.0</ele>
        <time>2014-06-30T14:54:09Z</time>
      </trkpt>
      <trkpt lat="40.742183" lon="-4.535983">
        <ele>2304.0</ele>
        <time>2014-06-30T14:54:10Z</time>
      </trkpt>
      <trkpt lat="40.742250" lon="-4.535833">
        <ele>2302.0</ele>
        <time>2014-06-30T14:54:11Z</time>
      </trkpt>
      <trkpt lat="40.742317" lon="-4.535700">
        <ele>2301.0</ele>
        <time>2014-06-30T14:54:12Z</time>
      </trkpt>
      <trkpt lat="40.742383" lon="-4.535550">
        <ele>2300.0</ele>
        <time>2014-06-30T14:54:13Z</time>
      </trkpt>
      <trkpt lat="40.742467" lon="-4.535400">
        <ele>2299.0</ele>
        <time>2014-06-30T14:54:14Z</time>
      </trkpt>
      <trkpt lat="40.742533" lon="-4.535267">
        <ele>2298.0</ele>
        <time>2014-06-30T14:54:15Z</time>
      </trkpt>
      <trkpt lat="40.742617" lon="-4.535117">
        <ele>2297.0</ele>
        <time>2014-06-30T14:54:16Z</time>
      </trkpt>
      <trkpt lat="40.742683" lon="-4.534967">
        <ele>2297.0</ele>
        <time>2014-06-30T14:54:17Z</time>
      </trkpt>
      <trkpt lat="40.742750" lon="-4.534817">
        <ele>2297.0</ele>
        <time>2014-06-30T14:54:18Z</time>
      </trkpt>
      <trkpt lat="40.742833" lon="-4.534650">
        <ele>2297.0</ele>
        <time>2014-06-30T14:54:19Z</time>
      </trkpt>
      <trkpt lat="40.742900" lon="-4.534500">
        <ele>2297.0</ele>
        <time>2014-06-30T14:54:20Z</time>
      </trkpt>
      <trkpt lat="40.742967" lon="-4.534333">
        <ele>2297.0</ele>
        <time>2014-06-30T14:54:21Z</time>
      </trkpt>
      <trkpt lat="40.743050" lon="-4.534183">
        <ele>2297.0</ele>
        <time>2014-06-30T14:54:22Z</time>
      </trkpt>
      <trkpt lat="40.743133" lon="-4.534050">
        <ele>2298.0</ele>
        <time>2014-06-30T14:54:23Z</time>
      </trkpt>
      <trkpt lat="40.743233" lon="-4.533883">
        <ele>2298.0</ele>
        <time>2014-06-30T14:54:24Z</time>
      </trkpt>
      <trkpt lat="40.743300" lon="-4.533733">
        <ele>2298.0</ele>
        <time>2014-06-30T14:54:25Z</time>
      </trkpt>
      <trkpt lat="40.743383" lon="-4.533583">
        <ele>2298.0</ele>
        <time>2014-06-30T14:54:26Z</time>
      </trkpt>
      <trkpt lat="40.743450" lon="-4.533433">
        <ele>2299.0</ele>
        <time>2014-06-30T14:54:27Z</time>
      </trkpt>
      <trkpt lat="40.743533" lon="-4.533300">
        <ele>2299.0</ele>
        <time>2014-06-30T14:54:28Z</time>
      </trkpt>
      <trkpt lat="40.743617" lon="-4.533167">
        <ele>2298.0</ele>
        <time>2014-06-30T14:54:29Z</time>
      </trkpt>
      <trkpt lat="40.743683" lon="-4.533033">
        <ele>2298.0</ele>
        <time>2014-06-30T14:54:30Z</time>
      </trkpt>
      <trkpt lat="40.743767" lon="-4.532883">
        <ele>2298.0</ele>
        <time>2014-06-30T14:54:31Z</time>
      </trkpt>
      <trkpt lat="40.743850" lon="-4.532750">
        <ele>2297.0</ele>
        <time>2014-06-30T14:54:32Z</time>
      </trkpt>
      <trkpt lat="40.743933" lon="-4.532617">
        <ele>2297.0</ele>
        <time>2014-06-30T14:54:33Z</time>
      </trkpt>
      <trkpt lat="40.744000" lon="-4.532483">
        <ele>2296.0</ele>
        <time>2014-06-30T14:54:34Z</time>
      </trkpt>
      <trkpt lat="40.744067" lon="-4.532350">
        <ele>2296.0</ele>
        <time>2014-06-30T14:54:35Z</time>
      </trkpt>
      <trkpt lat="40.744133" lon="-4.532217">
        <ele>2295.0</ele>
        <time>2014-06-30T14:54:36Z</time>
      </trkpt>
      <trkpt lat="40.744200" lon="-4.532100">
        <ele>2293.0</ele>
        <time>2014-06-30T14:54:37Z</time>
      </trkpt>
      <trkpt lat="40.744267" lon="-4.531967">
        <ele>2291.0</ele>
        <time>2014-06-30T14:54:38Z</time>
      </trkpt>
      <trkpt lat="40.744350" lon="-4.531833">
        <ele>2290.0</ele>
        <time>2014-06-30T14:54:39Z</time>
      </trkpt>
      <trkpt lat="40.744433" lon="-4.531700">
        <ele>2288.0</ele>
        <time>2014-06-30T14:54:40Z</time>
      </trkpt>
      <trkpt lat="40.744517" lon="-4.531567">
        <ele>2287.0</ele>
        <time>2014-06-30T14:54:41Z</time>
      </trkpt>
      <trkpt lat="40.744600" lon="-4.531417">
        <ele>2286.0</ele>
        <time>2014-06-30T14:54:42Z</time>
      </trkpt>
      <trkpt lat="40.744683" lon="-4.531283">
        <ele>2285.0</ele>
        <time>2014-06-30T14:54:43Z</time>
      </trkpt>
      <trkpt lat="40.744750" lon="-4.531150">
        <ele>2284.0</ele>
        <time>2014-06-30T14:54:44Z</time>
      </trkpt>
      <trkpt lat="40.744850" lon="-4.531033">
        <ele>2283.0</ele>
        <time>2014-06-30T14:54:45Z</time>
      </trkpt>
      <trkpt lat="40.744933" lon="-4.530917">
        <ele>2282.0</ele>
        <time>2014-06-30T14:54:46Z</time>
      </trkpt>
      <trkpt lat="40.745017" lon="-4.530783">
        <ele>2280.0</ele>
        <time>2014-06-30T14:54:47Z</time>
      </trkpt>
      <trkpt lat="40.745117" lon="-4.530650">
        <ele>2279.0</ele>
        <time>2014-06-30T14:54:48Z</time>
      </trkpt>
      <trkpt lat="40.745233" lon="-4.530500">
        <ele>2276.0</ele>
        <time>2014-06-30T14:54:49Z</time>
      </trkpt>
      <trkpt lat="40.745317" lon="-4.530367">
        <ele>2277.0</ele>
        <time>2014-06-30T14:54:50Z</time>
      </trkpt>
      <trkpt lat="40.745417" lon="-4.530233">
        <ele>2276.0</ele>
        <time>2014-06-30T14:54:51Z</time>
      </trkpt>
      <trkpt lat="40.745500" lon="-4.530100">
        <ele>2276.0</ele>
        <time>2014-06-30T14:54:52Z</time>
      </trkpt>
      <trkpt lat="40.745600" lon="-4.529967">
        <ele>2275.0</ele>
        <time>2014-06-30T14:54:53Z</time>
      </trkpt>
      <trkpt lat="40.745683" lon="-4.529833">
        <ele>2275.0</ele>
        <time>2014-06-30T14:54:54Z</time>
      </trkpt>
      <trkpt lat="40.745767" lon="-4.529717">
        <ele>2274.0</ele>
        <time>2014-06-30T14:54:55Z</time>
      </trkpt>
      <trkpt lat="40.745833" lon="-4.529583">
        <ele>2274.0</ele>
        <time>2014-06-30T14:54:56Z</time>
      </trkpt>
      <trkpt lat="40.745883" lon="-4.529450">
        <ele>2273.0</ele>
        <time>2014-06-30T14:54:57Z</time>
      </trkpt>
      <trkpt lat="40.745933" lon="-4.529317">
        <ele>2272.0</ele>
        <time>2014-06-30T14:54:58Z</time>
      </trkpt>
      <trkpt lat="40.745983" lon="-4.529183">
        <ele>2272.0</ele>
        <time>2014-06-30T14:54:59Z</time>
      </trkpt>
      <trkpt lat="40.746017" lon="-4.529033">
        <ele>2271.0</ele>
        <time>2014-06-30T14:55:00Z</time>
      </trkpt>
      <trkpt lat="40.746083" lon="-4.528867">
        <ele>2270.0</ele>
        <time>2014-06-30T14:55:01Z</time>
      </trkpt>
      <trkpt lat="40.746133" lon="-4.528700">
        <ele>2269.0</ele>
        <time>2014-06-30T14:55:02Z</time>
      </trkpt>
      <trkpt lat="40.746183" lon="-4.528550">
        <ele>2267.0</ele>
        <time>2014-06-30T14:55:03Z</time>
      </trkpt>
      <trkpt lat="40.746250" lon="-4.528383">
        <ele>2266.0</ele>
        <time>2014-06-30T14:55:04Z</time>
      </trkpt>
      <trkpt lat="40.746300" lon="-4.528217">
        <ele>2266.0</ele>
        <time>2014-06-30T14:55:05Z</time>
      </trkpt>
      <trkpt lat="40.746350" lon="-4.528050">
        <ele>2266.0</ele>
        <time>2014-06-30T14:55:06Z</time>
      </trkpt>
      <trkpt lat="40.746417" lon="-4.527867">
        <ele>2267.0</ele>
        <time>2014-06-30T14:55:07Z</time>
      </trkpt>
      <trkpt lat="40.746467" lon="-4.527700">
        <ele>2267.0</ele>
        <time>2014-06-30T14:55:08Z</time>
      </trkpt>
      <trkpt lat="40.746533" lon="-4.527533">
        <ele>2267.0</ele>
        <time>2014-06-30T14:55:09Z</time>
      </trkpt>
      <trkpt lat="40.746567" lon="-4.527367">
        <ele>2267.0</ele>
        <time>2014-06-30T14:55:10Z</time>
      </trkpt>
      <trkpt lat="40.746600" lon="-4.527233">
        <ele>2268.0</ele>
        <time>2014-06-30T14:55:11Z</time>
      </trkpt>
      <trkpt lat="40.746633" lon="-4.527100">
        <ele>2269.0</ele>
        <time>2014-06-30T14:55:12Z</time>
      </trkpt>
      <trkpt lat="40.746667" lon="-4.526983">
        <ele>2270.0</ele>
        <time>2014-06-30T14:55:13Z</time>
      </trkpt>
      <trkpt lat="40.746700" lon="-4.526867">
        <ele>2270.0</ele>
        <time>2014-06-30T14:55:14Z</time>
      </trkpt>
      <trkpt lat="40.746733" lon="-4.526750">
        <ele>2268.0</ele>
        <time>2014-06-30T14:55:15Z</time>
      </trkpt>
      <trkpt lat="40.746783" lon="-4.526600">
        <ele>2268.0</ele>
        <time>2014-06-30T14:55:16Z</time>
      </trkpt>
      <trkpt lat="40.746850" lon="-4.526450">
        <ele>2268.0</ele>
        <time>2014-06-30T14:55:17Z</time>
      </trkpt>
      <trkpt lat="40.746917" lon="-4.526267">
        <ele>2268.0</ele>
        <time>2014-06-30T14:55:18Z</time>
      </trkpt>
      <trkpt lat="40.746950" lon="-4.526100">
        <ele>2268.0</ele>
        <time>2014-06-30T14:55:19Z</time>
      </trkpt>
      <trkpt lat="40.746983" lon="-4.525950">
        <ele>2268.0</ele>
        <time>2014-06-30T14:55:20Z</time>
      </trkpt>
      <trkpt lat="40.747017" lon="-4.525800">
        <ele>2268.0</ele>
        <time>2014-06-30T14:55:21Z</time>
      </trkpt>
      <trkpt lat="40.747050" lon="-4.525667">
        <ele>2268.0</ele>
        <time>2014-06-30T14:55:22Z</time>
      </trkpt>
      <trkpt lat="40.747100" lon="-4.525517">
        <ele>2268.0</ele>
        <time>2014-06-30T14:55:23Z</time>
      </trkpt>
      <trkpt lat="40.747133" lon="-4.525333">
        <ele>2267.0</ele>
        <time>2014-06-30T14:55:24Z</time>
      </trkpt>
      <trkpt lat="40.747167" lon="-4.525150">
        <ele>2267.0</ele>
        <time>2014-06-30T14:55:25Z</time>
      </trkpt>
      <trkpt lat="40.747200" lon="-4.524983">
        <ele>2267.0</ele>
        <time>2014-06-30T14:55:26Z</time>
      </trkpt>
      <trkpt lat="40.747233" lon="-4.524817">
        <ele>2268.0</ele>
        <time>2014-06-30T14:55:27Z</time>
      </trkpt>
      <trkpt lat="40.747267" lon="-4.524667">
        <ele>2268.0</ele>
        <time>2014-06-30T14:55:28Z</time>
      </trkpt>
      <trkpt lat="40.747300" lon="-4.524550">
        <ele>2268.0</ele>
        <time>2014-06-30T14:55:29Z</time>
      </trkpt>
      <trkpt lat="40.747333" lon="-4.524417">
        <ele>2268.0</ele>
        <time>2014-06-30T14:55:30Z</time>
      </trkpt>
      <trkpt lat="40.747383" lon="-4.524300">
        <ele>2267.0</ele>
        <time>2014-06-30T14:55:31Z</time>
      </trkpt>
      <trkpt lat="40.747433" lon="-4.524183">
        <ele>2266.0</ele>
        <time>2014-06-30T14:55:32Z</time>
      </trkpt>
      <trkpt lat="40.747500" lon="-4.524083">
        <ele>2266.0</ele>
        <time>2014-06-30T14:55:33Z</time>
      </trkpt>
      <trkpt lat="40.747567" lon="-4.524017">
        <ele>2266.0</ele>
        <time>2014-06-30T14:55:34Z</time>
      </trkpt>
      <trkpt lat="40.747650" lon="-4.523950">
        <ele>2265.0</ele>
        <time>2014-06-30T14:55:35Z</time>
      </trkpt>
      <trkpt lat="40.747733" lon="-4.523933">
        <ele>2263.0</ele>
        <time>2014-06-30T14:55:36Z</time>
      </trkpt>
      <trkpt lat="40.747817" lon="-4.523933">
        <ele>2263.0</ele>
        <time>2014-06-30T14:55:37Z</time>
      </trkpt>
      <trkpt lat="40.747883" lon="-4.523950">
        <ele>2262.0</ele>
        <time>2014-06-30T14:55:38Z</time>
      </trkpt>
      <trkpt lat="40.747933" lon="-4.523983">
        <ele>2262.0</ele>
        <time>2014-06-30T14:55:39Z</time>
      </trkpt>
      <trkpt lat="40.747983" lon="-4.524050">
        <ele>2261.0</ele>
        <time>2014-06-30T14:55:40Z</time>
      </trkpt>
      <trkpt lat="40.748000" lon="-4.524117">
        <ele>2260.0</ele>
        <time>2014-06-30T14:55:41Z</time>
      </trkpt>
      <trkpt lat="40.748000" lon="-4.524183">
        <ele>2259.0</ele>
        <time>2014-06-30T14:55:42Z</time>
      </trkpt>
      <trkpt lat="40.748000" lon="-4.524233">
        <ele>2259.0</ele>
        <time>2014-06-30T14:55:43Z</time>
      </trkpt>
      <trkpt lat="40.747950" lon="-4.524267">
        <ele>2258.0</ele>
        <time>2014-06-30T14:55:44Z</time>
      </trkpt>
      <trkpt lat="40.747883" lon="-4.524267">
        <ele>2257.0</ele>
        <time>2014-06-30T14:55:45Z</time>
      </trkpt>
      <trkpt lat="40.747817" lon="-4.524233">
        <ele>2257.0</ele>
        <time>2014-06-30T14:55:46Z</time>
      </trkpt>
      <trkpt lat="40.747717" lon="-4.524167">
        <ele>2257.0</ele>
        <time>2014-06-30T14:55:47Z</time>
      </trkpt>
      <trkpt lat="40.747650" lon="-4.524083">
        <ele>2257.0</ele>
        <time>2014-06-30T14:55:48Z</time>
      </trkpt>
      <trkpt lat="40.747583" lon="-4.523983">
        <ele>2257.0</ele>
        <time>2014-06-30T14:55:49Z</time>
      </trkpt>
      <trkpt lat="40.747500" lon="-4.523900">
        <ele>2256.0</ele>
        <time>2014-06-30T14:55:50Z</time>
      </trkpt>
      <trkpt lat="40.747433" lon="-4.523800">
        <ele>2256.0</ele>
        <time>2014-06-30T14:55:51Z</time>
      </trkpt>
      <trkpt lat="40.747350" lon="-4.523683">
        <ele>2255.0</ele>
        <time>2014-06-30T14:55:52Z</time>
      </trkpt>
      <trkpt lat="40.747283" lon="-4.523533">
        <ele>2254.0</ele>
        <time>2014-06-30T14:55:53Z</time>
      </trkpt>
      <trkpt lat="40.747217" lon="-4.523400">
        <ele>2254.0</ele>
        <time>2014-06-30T14:55:54Z</time>
      </trkpt>
      <trkpt lat="40.747150" lon="-4.523267">
        <ele>2253.0</ele>
        <time>2014-06-30T14:55:55Z</time>
      </trkpt>
      <trkpt lat="40.747083" lon="-4.523133">
        <ele>2253.0</ele>
        <time>2014-06-30T14:55:56Z</time>
      </trkpt>
      <trkpt lat="40.747033" lon="-4.523000">
        <ele>2253.0</ele>
        <time>2014-06-30T14:55:57Z</time>
      </trkpt>
      <trkpt lat="40.746983" lon="-4.522867">
        <ele>2254.0</ele>
        <time>2014-06-30T14:55:58Z</time>
      </trkpt>
      <trkpt lat="40.746933" lon="-4.522717">
        <ele>2253.0</ele>
        <time>2014-06-30T14:55:59Z</time>
      </trkpt>
      <trkpt lat="40.746900" lon="-4.522567">
        <ele>2252.0</ele>
        <time>2014-06-30T14:56:00Z</time>
      </trkpt>
      <trkpt lat="40.746867" lon="-4.522417">
        <ele>2252.0</ele>
        <time>2014-06-30T14:56:01Z</time>
      </trkpt>
      <trkpt lat="40.746833" lon="-4.522250">
        <ele>2250.0</ele>
        <time>2014-06-30T14:56:02Z</time>
      </trkpt>
      <trkpt lat="40.746783" lon="-4.522083">
        <ele>2248.0</ele>
        <time>2014-06-30T14:56:03Z</time>
      </trkpt>
      <trkpt lat="40.746750" lon="-4.521900">
        <ele>2244.0</ele>
        <time>2014-06-30T14:56:04Z</time>
      </trkpt>
      <trkpt lat="40.746733" lon="-4.521683">
        <ele>2242.0</ele>
        <time>2014-06-30T14:56:05Z</time>
      </trkpt>
      <trkpt lat="40.746717" lon="-4.521500">
        <ele>2241.0</ele>
        <time>2014-06-30T14:56:06Z</time>
      </trkpt>
      <trkpt lat="40.746700" lon="-4.521317">
        <ele>2239.0</ele>
        <time>2014-06-30T14:56:07Z</time>
      </trkpt>
      <trkpt lat="40.746683" lon="-4.521133">
        <ele>2238.0</ele>
        <time>2014-06-30T14:56:08Z</time>
      </trkpt>
      <trkpt lat="40.746683" lon="-4.520950">
        <ele>2237.0</ele>
        <time>2014-06-30T14:56:09Z</time>
      </trkpt>
      <trkpt lat="40.746683" lon="-4.520750">
        <ele>2235.0</ele>
        <time>2014-06-30T14:56:10Z</time>
      </trkpt>
      <trkpt lat="40.746700" lon="-4.520550">
        <ele>2233.0</ele>
        <time>2014-06-30T14:56:11Z</time>
      </trkpt>
      <trkpt lat="40.746717" lon="-4.520350">
        <ele>2232.0</ele>
        <time>2014-06-30T14:56:12Z</time>
      </trkpt>
      <trkpt lat="40.746733" lon="-4.520167">
        <ele>2231.0</ele>
        <time>2014-06-30T14:56:13Z</time>
      </trkpt>
      <trkpt lat="40.746750" lon="-4.520000">
        <ele>2230.0</ele>
        <time>2014-06-30T14:56:14Z</time>
      </trkpt>
      <trkpt lat="40.746767" lon="-4.519817">
        <ele>2229.0</ele>
        <time>2014-06-30T14:56:15Z</time>
      </trkpt>
      <trkpt lat="40.746783" lon="-4.519650">
        <ele>2228.0</ele>
        <time>2014-06-30T14:56:16Z</time>
      </trkpt>
      <trkpt lat="40.746800" lon="-4.519467">
        <ele>2227.0</ele>
        <time>2014-06-30T14:56:17Z</time>
      </trkpt>
      <trkpt lat="40.746833" lon="-4.519300">
        <ele>2226.0</ele>
        <time>2014-06-30T14:56:18Z</time>
      </trkpt>
      <trkpt lat="40.746850" lon="-4.519117">
        <ele>2226.0</ele>
        <time>2014-06-30T14:56:19Z</time>
      </trkpt>
      <trkpt lat="40.746883" lon="-4.518950">
        <ele>2225.0</ele>
        <time>2014-06-30T14:56:20Z</time>
      </trkpt>
      <trkpt lat="40.746883" lon="-4.518783">
        <ele>2224.0</ele>
        <time>2014-06-30T14:56:21Z</time>
      </trkpt>
      <trkpt lat="40.746917" lon="-4.518617">
        <ele>2224.0</ele>
        <time>2014-06-30T14:56:22Z</time>
      </trkpt>
      <trkpt lat="40.746917" lon="-4.518433">
        <ele>2224.0</ele>
        <time>2014-06-30T14:56:23Z</time>
      </trkpt>
      <trkpt lat="40.746933" lon="-4.518267">
        <ele>2224.0</ele>
        <time>2014-06-30T14:56:24Z</time>
      </trkpt>
      <trkpt lat="40.746950" lon="-4.518117">
        <ele>2225.0</ele>
        <time>2014-06-30T14:56:25Z</time>
      </trkpt>
      <trkpt lat="40.746950" lon="-4.517967">
        <ele>2225.0</ele>
        <time>2014-06-30T14:56:26Z</time>
      </trkpt>
      <trkpt lat="40.746967" lon="-4.517817">
        <ele>2224.0</ele>
        <time>2014-06-30T14:56:27Z</time>
      </trkpt>
      <trkpt lat="40.746967" lon="-4.517667">
        <ele>2223.0</ele>
        <time>2014-06-30T14:56:28Z</time>
      </trkpt>
      <trkpt lat="40.746983" lon="-4.517500">
        <ele>2223.0</ele>
        <time>2014-06-30T14:56:29Z</time>
      </trkpt>
      <trkpt lat="40.746983" lon="-4.517317">
        <ele>2222.0</ele>
        <time>2014-06-30T14:56:30Z</time>
      </trkpt>
      <trkpt lat="40.747000" lon="-4.517150">
        <ele>2222.0</ele>
        <time>2014-06-30T14:56:31Z</time>
      </trkpt>
      <trkpt lat="40.747017" lon="-4.516983">
        <ele>2221.0</ele>
        <time>2014-06-30T14:56:32Z</time>
      </trkpt>
      <trkpt lat="40.747050" lon="-4.516833">
        <ele>2220.0</ele>
        <time>2014-06-30T14:56:33Z</time>
      </trkpt>
      <trkpt lat="40.747067" lon="-4.516683">
        <ele>2219.0</ele>
        <time>2014-06-30T14:56:34Z</time>
      </trkpt>
      <trkpt lat="40.747083" lon="-4.516533">
        <ele>2217.0</ele>
        <time>2014-06-30T14:56:35Z</time>
      </trkpt>
      <trkpt lat="40.747117" lon="-4.516383">
        <ele>2216.0</ele>
        <time>2014-06-30T14:56:36Z</time>
      </trkpt>
      <trkpt lat="40.747150" lon="-4.516233">
        <ele>2215.0</ele>
        <time>2014-06-30T14:56:37Z</time>
      </trkpt>
      <trkpt lat="40.747200" lon="-4.516083">
        <ele>2213.0</ele>
        <time>2014-06-30T14:56:38Z</time>
      </trkpt>
      <trkpt lat="40.747233" lon="-4.515933">
        <ele>2211.0</ele>
        <time>2014-06-30T14:56:39Z</time>
      </trkpt>
      <trkpt lat="40.747283" lon="-4.515783">
        <ele>2209.0</ele>
        <time>2014-06-30T14:56:40Z</time>
      </trkpt>
      <trkpt lat="40.747317" lon="-4.515633">
        <ele>2207.0</ele>
        <time>2014-06-30T14:56:41Z</time>
      </trkpt>
      <trkpt lat="40.747350" lon="-4.515483">
        <ele>2204.0</ele>
        <time>2014-06-30T14:56:42Z</time>
      </trkpt>
      <trkpt lat="40.747383" lon="-4.515317">
        <ele>2202.0</ele>
        <time>2014-06-30T14:56:43Z</time>
      </trkpt>
      <trkpt lat="40.747433" lon="-4.515150">
        <ele>2200.0</ele>
        <time>2014-06-30T14:56:44Z</time>
      </trkpt>
      <trkpt lat="40.747483" lon="-4.514983">
        <ele>2198.0</ele>
        <time>2014-06-30T14:56:45Z</time>
      </trkpt>
      <trkpt lat="40.747517" lon="-4.514850">
        <ele>2197.0</ele>
        <time>2014-06-30T14:56:46Z</time>
      </trkpt>
      <trkpt lat="40.747550" lon="-4.514733">
        <ele>2198.0</ele>
        <time>2014-06-30T14:56:47Z</time>
      </trkpt>
      <trkpt lat="40.747600" lon="-4.514633">
        <ele>2197.0</ele>
        <time>2014-06-30T14:56:48Z</time>
      </trkpt>
      <trkpt lat="40.747650" lon="-4.514567">
        <ele>2203.0</ele>
        <time>2014-06-30T14:56:49Z</time>
      </trkpt>
      <trkpt lat="40.747700" lon="-4.514450">
        <ele>2203.0</ele>
        <time>2014-06-30T14:56:50Z</time>
      </trkpt>
      <trkpt lat="40.747733" lon="-4.514333">
        <ele>2201.0</ele>
        <time>2014-06-30T14:56:51Z</time>
      </trkpt>
      <trkpt lat="40.747783" lon="-4.514217">
        <ele>2201.0</ele>
        <time>2014-06-30T14:56:52Z</time>
      </trkpt>
      <trkpt lat="40.747833" lon="-4.514067">
        <ele>2200.0</ele>
        <time>2014-06-30T14:56:53Z</time>
      </trkpt>
      <trkpt lat="40.747900" lon="-4.513933">
        <ele>2198.0</ele>
        <time>2014-06-30T14:56:54Z</time>
      </trkpt>
      <trkpt lat="40.747933" lon="-4.513800">
        <ele>2197.0</ele>
        <time>2014-06-30T14:56:55Z</time>
      </trkpt>
      <trkpt lat="40.747983" lon="-4.513650">
        <ele>2195.0</ele>
        <time>2014-06-30T14:56:56Z</time>
      </trkpt>
      <trkpt lat="40.748033" lon="-4.513517">
        <ele>2191.0</ele>
        <time>2014-06-30T14:56:57Z</time>
      </trkpt>
      <trkpt lat="40.748083" lon="-4.513433">
        <ele>2188.0</ele>
        <time>2014-06-30T14:56:58Z</time>
      </trkpt>
      <trkpt lat="40.748133" lon="-4.513367">
        <ele>2189.0</ele>
        <time>2014-06-30T14:56:59Z</time>
      </trkpt>
      <trkpt lat="40.748167" lon="-4.513283">
        <ele>2188.0</ele>
        <time>2014-06-30T14:57:00Z</time>
      </trkpt>
      <trkpt lat="40.748217" lon="-4.513183">
        <ele>2187.0</ele>
        <time>2014-06-30T14:57:01Z</time>
      </trkpt>
      <trkpt lat="40.748267" lon="-4.513050">
        <ele>2185.0</ele>
        <time>2014-06-30T14:57:02Z</time>
      </trkpt>
      <trkpt lat="40.748333" lon="-4.512933">
        <ele>2183.0</ele>
        <time>2014-06-30T14:57:03Z</time>
      </trkpt>
      <trkpt lat="40.748383" lon="-4.512817">
        <ele>2180.0</ele>
        <time>2014-06-30T14:57:04Z</time>
      </trkpt>
      <trkpt lat="40.748433" lon="-4.512700">
        <ele>2178.0</ele>
        <time>2014-06-30T14:57:05Z</time>
      </trkpt>
      <trkpt lat="40.748467" lon="-4.512567">
        <ele>2177.0</ele>
        <time>2014-06-30T14:57:06Z</time>
      </trkpt>
      <trkpt lat="40.748500" lon="-4.512450">
        <ele>2176.0</ele>
        <time>2014-06-30T14:57:07Z</time>
      </trkpt>
      <trkpt lat="40.748550" lon="-4.512333">
        <ele>2174.0</ele>
        <time>2014-06-30T14:57:08Z</time>
      </trkpt>
      <trkpt lat="40.748600" lon="-4.512217">
        <ele>2171.0</ele>
        <time>2014-06-30T14:57:09Z</time>
      </trkpt>
      <trkpt lat="40.748667" lon="-4.512100">
        <ele>2168.0</ele>
        <time>2014-06-30T14:57:10Z</time>
      </trkpt>
      <trkpt lat="40.748717" lon="-4.511967">
        <ele>2165.0</ele>
        <time>2014-06-30T14:57:11Z</time>
      </trkpt>
      <trkpt lat="40.748767" lon="-4.511833">
        <ele>2163.0</ele>
        <time>2014-06-30T14:57:12Z</time>
      </trkpt>
      <trkpt lat="40.748817" lon="-4.511683">
        <ele>2160.0</ele>
        <time>2014-06-30T14:57:13Z</time>
      </trkpt>
      <trkpt lat="40.748850" lon="-4.511517">
        <ele>2157.0</ele>
        <time>2014-06-30T14:57:14Z</time>
      </trkpt>
      <trkpt lat="40.748900" lon="-4.511383">
        <ele>2155.0</ele>
        <time>2014-06-30T14:57:15Z</time>
      </trkpt>
      <trkpt lat="40.748933" lon="-4.511283">
        <ele>2154.0</ele>
        <time>2014-06-30T14:57:16Z</time>
      </trkpt>
      <trkpt lat="40.748950" lon="-4.511150">
        <ele>2152.0</ele>
        <time>2014-06-30T14:57:17Z</time>
      </trkpt>
      <trkpt lat="40.748967" lon="-4.511033">
        <ele>2151.0</ele>
        <time>2014-06-30T14:57:18Z</time>
      </trkpt>
      <trkpt lat="40.748967" lon="-4.510917">
        <ele>2149.0</ele>
        <time>2014-06-30T14:57:19Z</time>
      </trkpt>
      <trkpt lat="40.748983" lon="-4.510783">
        <ele>2147.0</ele>
        <time>2014-06-30T14:57:20Z</time>
      </trkpt>
      <trkpt lat="40.748983" lon="-4.510667">
        <ele>2146.0</ele>
        <time>2014-06-30T14:57:21Z</time>
      </trkpt>
      <trkpt lat="40.749000" lon="-4.510533">
        <ele>2144.0</ele>
        <time>2014-06-30T14:57:22Z</time>
      </trkpt>
      <trkpt lat="40.749000" lon="-4.510400">
        <ele>2142.0</ele>
        <time>2014-06-30T14:57:23Z</time>
      </trkpt>
      <trkpt lat="40.749033" lon="-4.510267">
        <ele>2139.0</ele>
        <time>2014-06-30T14:57:24Z</time>
      </trkpt>
      <trkpt lat="40.749083" lon="-4.510117">
        <ele>2136.0</ele>
        <time>2014-06-30T14:57:25Z</time>
      </trkpt>
      <trkpt lat="40.749100" lon="-4.509967">
        <ele>2133.0</ele>
        <time>2014-06-30T14:57:26Z</time>
      </trkpt>
      <trkpt lat="40.749133" lon="-4.509817">
        <ele>2132.0</ele>
        <time>2014-06-30T14:57:27Z</time>
      </trkpt>
      <trkpt lat="40.749167" lon="-4.509683">
        <ele>2131.0</ele>
        <time>2014-06-30T14:57:28Z</time>
      </trkpt>
      <trkpt lat="40.749200" lon="-4.509567">
        <ele>2129.0</ele>
        <time>2014-06-30T14:57:29Z</time>
      </trkpt>
      <trkpt lat="40.749250" lon="-4.509467">
        <ele>2133.0</ele>
        <time>2014-06-30T14:57:30Z</time>
      </trkpt>
      <trkpt lat="40.749300" lon="-4.509333">
        <ele>2132.0</ele>
        <time>2014-06-30T14:57:31Z</time>
      </trkpt>
      <trkpt lat="40.749333" lon="-4.509150">
        <ele>2131.0</ele>
        <time>2014-06-30T14:57:32Z</time>
      </trkpt>
      <trkpt lat="40.749350" lon="-4.508983">
        <ele>2130.0</ele>
        <time>2014-06-30T14:57:33Z</time>
      </trkpt>
      <trkpt lat="40.749383" lon="-4.508833">
        <ele>2130.0</ele>
        <time>2014-06-30T14:57:34Z</time>
      </trkpt>
      <trkpt lat="40.749417" lon="-4.508683">
        <ele>2130.0</ele>
        <time>2014-06-30T14:57:35Z</time>
      </trkpt>
      <trkpt lat="40.749450" lon="-4.508517">
        <ele>2130.0</ele>
        <time>2014-06-30T14:57:36Z</time>
      </trkpt>
      <trkpt lat="40.749467" lon="-4.508367">
        <ele>2131.0</ele>
        <time>2014-06-30T14:57:37Z</time>
      </trkpt>
      <trkpt lat="40.749483" lon="-4.508200">
        <ele>2131.0</ele>
        <time>2014-06-30T14:57:38Z</time>
      </trkpt>
      <trkpt lat="40.749533" lon="-4.508050">
        <ele>2131.0</ele>
        <time>2014-06-30T14:57:39Z</time>
      </trkpt>
      <trkpt lat="40.749583" lon="-4.507917">
        <ele>2131.0</ele>
        <time>2014-06-30T14:57:40Z</time>
      </trkpt>
      <trkpt lat="40.749633" lon="-4.507833">
        <ele>2130.0</ele>
        <time>2014-06-30T14:57:41Z</time>
      </trkpt>
      <trkpt lat="40.749700" lon="-4.507783">
        <ele>2131.0</ele>
        <time>2014-06-30T14:57:42Z</time>
      </trkpt>
      <trkpt lat="40.749767" lon="-4.507767">
        <ele>2131.0</ele>
        <time>2014-06-30T14:57:43Z</time>
      </trkpt>
      <trkpt lat="40.749833" lon="-4.507800">
        <ele>2130.0</ele>
        <time>2014-06-30T14:57:44Z</time>
      </trkpt>
      <trkpt lat="40.749883" lon="-4.507867">
        <ele>2128.0</ele>
        <time>2014-06-30T14:57:45Z</time>
      </trkpt>
      <trkpt lat="40.749933" lon="-4.507933">
        <ele>2126.0</ele>
        <time>2014-06-30T14:57:46Z</time>
      </trkpt>
      <trkpt lat="40.749933" lon="-4.508033">
        <ele>2124.0</ele>
        <time>2014-06-30T14:57:47Z</time>
      </trkpt>
      <trkpt lat="40.749883" lon="-4.508117">
        <ele>2123.0</ele>
        <time>2014-06-30T14:57:48Z</time>
      </trkpt>
      <trkpt lat="40.749817" lon="-4.508167">
        <ele>2122.0</ele>
        <time>2014-06-30T14:57:49Z</time>
      </trkpt>
      <trkpt lat="40.749767" lon="-4.508183">
        <ele>2120.0</ele>
        <time>2014-06-30T14:57:50Z</time>
      </trkpt>
      <trkpt lat="40.749683" lon="-4.508200">
        <ele>2118.0</ele>
        <time>2014-06-30T14:57:51Z</time>
      </trkpt>
      <trkpt lat="40.749567" lon="-4.508200">
        <ele>2117.0</ele>
        <time>2014-06-30T14:57:52Z</time>
      </trkpt>
      <trkpt lat="40.749433" lon="-4.508117">
        <ele>2116.0</ele>
        <time>2014-06-30T14:57:53Z</time>
      </trkpt>
      <trkpt lat="40.749317" lon="-4.507967">
        <ele>2114.0</ele>
        <time>2014-06-30T14:57:54Z</time>
      </trkpt>
      <trkpt lat="40.749217" lon="-4.507767">
        <ele>2113.0</ele>
        <time>2014-06-30T14:57:55Z</time>
      </trkpt>
      <trkpt lat="40.749150" lon="-4.507583">
        <ele>2113.0</ele>
        <time>2014-06-30T14:57:56Z</time>
      </trkpt>
      <trkpt lat="40.749083" lon="-4.507417">
        <ele>2112.0</ele>
        <time>2014-06-30T14:57:57Z</time>
      </trkpt>
      <trkpt lat="40.749033" lon="-4.507283">
        <ele>2112.0</ele>
        <time>2014-06-30T14:57:58Z</time>
      </trkpt>
      <trkpt lat="40.748983" lon="-4.507133">
        <ele>2111.0</ele>
        <time>2014-06-30T14:57:59Z</time>
      </trkpt>
      <trkpt lat="40.748967" lon="-4.506967">
        <ele>2110.0</ele>
        <time>2014-06-30T14:58:00Z</time>
      </trkpt>
      <trkpt lat="40.748950" lon="-4.506800">
        <ele>2108.0</ele>
        <time>2014-06-30T14:58:01Z</time>
      </trkpt>
      <trkpt lat="40.748950" lon="-4.506600">
        <ele>2106.0</ele>
        <time>2014-06-30T14:58:02Z</time>
      </trkpt>
      <trkpt lat="40.748967" lon="-4.506383">
        <ele>2104.0</ele>
        <time>2014-06-30T14:58:03Z</time>
      </trkpt>
      <trkpt lat="40.748967" lon="-4.506200">
        <ele>2103.0</ele>
        <time>2014-06-30T14:58:04Z</time>
      </trkpt>
      <trkpt lat="40.748967" lon="-4.506083">
        <ele>2101.0</ele>
        <time>2014-06-30T14:58:05Z</time>
      </trkpt>
      <trkpt lat="40.748950" lon="-4.506017">
        <ele>2099.0</ele>
        <time>2014-06-30T14:58:06Z</time>
      </trkpt>
      <trkpt lat="40.748967" lon="-4.505883">
        <ele>2104.0</ele>
        <time>2014-06-30T14:58:07Z</time>
      </trkpt>
      <trkpt lat="40.748983" lon="-4.505750">
        <ele>2103.0</ele>
        <time>2014-06-30T14:58:08Z</time>
      </trkpt>
      <trkpt lat="40.749000" lon="-4.505567">
        <ele>2103.0</ele>
        <time>2014-06-30T14:58:09Z</time>
      </trkpt>
      <trkpt lat="40.749033" lon="-4.505400">
        <ele>2102.0</ele>
        <time>2014-06-30T14:58:10Z</time>
      </trkpt>
      <trkpt lat="40.749050" lon="-4.505250">
        <ele>2101.0</ele>
        <time>2014-06-30T14:58:11Z</time>
      </trkpt>
      <trkpt lat="40.749083" lon="-4.505117">
        <ele>2101.0</ele>
        <time>2014-06-30T14:58:12Z</time>
      </trkpt>
      <trkpt lat="40.749117" lon="-4.505033">
        <ele>2101.0</ele>
        <time>2014-06-30T14:58:13Z</time>
      </trkpt>
      <trkpt lat="40.749167" lon="-4.504933">
        <ele>2101.0</ele>
        <time>2014-06-30T14:58:14Z</time>
      </trkpt>
      <trkpt lat="40.749200" lon="-4.504850">
        <ele>2102.0</ele>
        <time>2014-06-30T14:58:15Z</time>
      </trkpt>
      <trkpt lat="40.749250" lon="-4.504783">
        <ele>2100.0</ele>
        <time>2014-06-30T14:58:16Z</time>
      </trkpt>
      <trkpt lat="40.749300" lon="-4.504750">
        <ele>2100.0</ele>
        <time>2014-06-30T14:58:17Z</time>
      </trkpt>
      <trkpt lat="40.749367" lon="-4.504750">
        <ele>2100.0</ele>
        <time>2014-06-30T14:58:18Z</time>
      </trkpt>
      <trkpt lat="40.749400" lon="-4.504817">
        <ele>2100.0</ele>
        <time>2014-06-30T14:58:19Z</time>
      </trkpt>
      <trkpt lat="40.749400" lon="-4.504883">
        <ele>2100.0</ele>
        <time>2014-06-30T14:58:20Z</time>
      </trkpt>
      <trkpt lat="40.749383" lon="-4.504950">
        <ele>2100.0</ele>
        <time>2014-06-30T14:58:21Z</time>
      </trkpt>
      <trkpt lat="40.749333" lon="-4.505017">
        <ele>2100.0</ele>
        <time>2014-06-30T14:58:22Z</time>
      </trkpt>
      <trkpt lat="40.749267" lon="-4.505083">
        <ele>2101.0</ele>
        <time>2014-06-30T14:58:23Z</time>
      </trkpt>
      <trkpt lat="40.749200" lon="-4.505117">
        <ele>2101.0</ele>
        <time>2014-06-30T14:58:24Z</time>
      </trkpt>
      <trkpt lat="40.749133" lon="-4.505117">
        <ele>2101.0</ele>
        <time>2014-06-30T14:58:25Z</time>
      </trkpt>
      <trkpt lat="40.749050" lon="-4.505083">
        <ele>2102.0</ele>
        <time>2014-06-30T14:58:26Z</time>
      </trkpt>
      <trkpt lat="40.748950" lon="-4.505033">
        <ele>2102.0</ele>
        <time>2014-06-30T14:58:27Z</time>
      </trkpt>
      <trkpt lat="40.748867" lon="-4.504950">
        <ele>2102.0</ele>
        <time>2014-06-30T14:58:28Z</time>
      </trkpt>
      <trkpt lat="40.748783" lon="-4.504850">
        <ele>2102.0</ele>
        <time>2014-06-30T14:58:29Z</time>
      </trkpt>
      <trkpt lat="40.748733" lon="-4.504733">
        <ele>2102.0</ele>
        <time>2014-06-30T14:58:30Z</time>
      </trkpt>
      <trkpt lat="40.748683" lon="-4.504617">
        <ele>2103.0</ele>
        <time>2014-06-30T14:58:31Z</time>
      </trkpt>
      <trkpt lat="40.748667" lon="-4.504467">
        <ele>2105.0</ele>
        <time>2014-06-30T14:58:32Z</time>
      </trkpt>
      <trkpt lat="40.748667" lon="-4.504333">
        <ele>2106.0</ele>
        <time>2014-06-30T14:58:33Z</time>
      </trkpt>
      <trkpt lat="40.748667" lon="-4.504217">
        <ele>2107.0</ele>
        <time>2014-06-30T14:58:34Z</time>
      </trkpt>
      <trkpt lat="40.748667" lon="-4.504100">
        <ele>2106.0</ele>
        <time>2014-06-30T14:58:35Z</time>
      </trkpt>
      <trkpt lat="40.748683" lon="-4.504017">
        <ele>2106.0</ele>
        <time>2014-06-30T14:58:36Z</time>
      </trkpt>
      <trkpt lat="40.748700" lon="-4.503933">
        <ele>2107.0</ele>
        <time>2014-06-30T14:58:37Z</time>
      </trkpt>
      <trkpt lat="40.748717" lon="-4.503867">
        <ele>2107.0</ele>
        <time>2014-06-30T14:58:38Z</time>
      </trkpt>
      <trkpt lat="40.748750" lon="-4.503800">
        <ele>2108.0</ele>
        <time>2014-06-30T14:58:39Z</time>
      </trkpt>
      <trkpt lat="40.748800" lon="-4.503767">
        <ele>2108.0</ele>
        <time>2014-06-30T14:58:40Z</time>
      </trkpt>
      <trkpt lat="40.748850" lon="-4.503800">
        <ele>2109.0</ele>
        <time>2014-06-30T14:58:41Z</time>
      </trkpt>
      <trkpt lat="40.748850" lon="-4.503883">
        <ele>2110.0</ele>
        <time>2014-06-30T14:58:42Z</time>
      </trkpt>
      <trkpt lat="40.748800" lon="-4.504000">
        <ele>2111.0</ele>
        <time>2014-06-30T14:58:43Z</time>
      </trkpt>
      <trkpt lat="40.748767" lon="-4.504083">
        <ele>2112.0</ele>
        <time>2014-06-30T14:58:44Z</time>
      </trkpt>
      <trkpt lat="40.748700" lon="-4.504150">
        <ele>2113.0</ele>
        <time>2014-06-30T14:58:45Z</time>
      </trkpt>
      <trkpt lat="40.748667" lon="-4.504200">
        <ele>2115.0</ele>
        <time>2014-06-30T14:58:46Z</time>
      </trkpt>
      <trkpt lat="40.748617" lon="-4.504217">
        <ele>2117.0</ele>
        <time>2014-06-30T14:58:47Z</time>
      </trkpt>
      <trkpt lat="40.748567" lon="-4.504250">
        <ele>2117.0</ele>
        <time>2014-06-30T14:58:48Z</time>
      </trkpt>
      <trkpt lat="40.748500" lon="-4.504233">
        <ele>2118.0</ele>
        <time>2014-06-30T14:58:49Z</time>
      </trkpt>
      <trkpt lat="40.748433" lon="-4.504183">
        <ele>2119.0</ele>
        <time>2014-06-30T14:58:50Z</time>
      </trkpt>
      <trkpt lat="40.748383" lon="-4.504100">
        <ele>2120.0</ele>
        <time>2014-06-30T14:58:51Z</time>
      </trkpt>
      <trkpt lat="40.748333" lon="-4.503983">
        <ele>2120.0</ele>
        <time>2014-06-30T14:58:52Z</time>
      </trkpt>
      <trkpt lat="40.748317" lon="-4.503850">
        <ele>2121.0</ele>
        <time>2014-06-30T14:58:53Z</time>
      </trkpt>
      <trkpt lat="40.748317" lon="-4.503717">
        <ele>2121.0</ele>
        <time>2014-06-30T14:58:54Z</time>
      </trkpt>
      <trkpt lat="40.748317" lon="-4.503617">
        <ele>2122.0</ele>
        <time>2014-06-30T14:58:55Z</time>
      </trkpt>
      <trkpt lat="40.748317" lon="-4.503533">
        <ele>2123.0</ele>
        <time>2014-06-30T14:58:56Z</time>
      </trkpt>
      <trkpt lat="40.748350" lon="-4.503467">
        <ele>2124.0</ele>
        <time>2014-06-30T14:58:57Z</time>
      </trkpt>
      <trkpt lat="40.748400" lon="-4.503383">
        <ele>2124.0</ele>
        <time>2014-06-30T14:58:58Z</time>
      </trkpt>
      <trkpt lat="40.748483" lon="-4.503283">
        <ele>2123.0</ele>
        <time>2014-06-30T14:58:59Z</time>
      </trkpt>
      <trkpt lat="40.748533" lon="-4.503167">
        <ele>2125.0</ele>
        <time>2014-06-30T14:59:00Z</time>
      </trkpt>
      <trkpt lat="40.748567" lon="-4.503033">
        <ele>2127.0</ele>
        <time>2014-06-30T14:59:01Z</time>
      </trkpt>
      <trkpt lat="40.748600" lon="-4.502917">
        <ele>2129.0</ele>
        <time>2014-06-30T14:59:02Z</time>
      </trkpt>
      <trkpt lat="40.748617" lon="-4.502817">
        <ele>2131.0</ele>
        <time>2014-06-30T14:59:03Z</time>
      </trkpt>
      <trkpt lat="40.748667" lon="-4.502733">
        <ele>2134.0</ele>
        <time>2014-06-30T14:59:04Z</time>
      </trkpt>
      <trkpt lat="40.748700" lon="-4.502650">
        <ele>2136.0</ele>
        <time>2014-06-30T14:59:05Z</time>
      </trkpt>
      <trkpt lat="40.748767" lon="-4.502567">
        <ele>2137.0</ele>
        <time>2014-06-30T14:59:06Z</time>
      </trkpt>
      <trkpt lat="40.748833" lon="-4.502517">
        <ele>2138.0</ele>
        <time>2014-06-30T14:59:07Z</time>
      </trkpt>
      <trkpt lat="40.748900" lon="-4.502500">
        <ele>2140.0</ele>
        <time>2014-06-30T14:59:08Z</time>
      </trkpt>
      <trkpt lat="40.748967" lon="-4.502517">
        <ele>2141.0</ele>
        <time>2014-06-30T14:59:09Z</time>
      </trkpt>
      <trkpt lat="40.749017" lon="-4.502533">
        <ele>2143.0</ele>
        <time>2014-06-30T14:59:10Z</time>
      </trkpt>
      <trkpt lat="40.749050" lon="-4.502550">
        <ele>2144.0</ele>
        <time>2014-06-30T14:59:11Z</time>
      </trkpt>
      <trkpt lat="40.749100" lon="-4.502550">
        <ele>2144.0</ele>
        <time>2014-06-30T14:59:12Z</time>
      </trkpt>
      <trkpt lat="40.749167" lon="-4.502567">
        <ele>2145.0</ele>
        <time>2014-06-30T14:59:13Z</time>
      </trkpt>
      <trkpt lat="40.749217" lon="-4.502617">
        <ele>2143.0</ele>
        <time>2014-06-30T14:59:14Z</time>
      </trkpt>
      <trkpt lat="40.749250" lon="-4.502700">
        <ele>2143.0</ele>
        <time>2014-06-30T14:59:15Z</time>
      </trkpt>
      <trkpt lat="40.749250" lon="-4.502783">
        <ele>2143.0</ele>
        <time>2014-06-30T14:59:16Z</time>
      </trkpt>
      <trkpt lat="40.749233" lon="-4.502883">
        <ele>2143.0</ele>
        <time>2014-06-30T14:59:17Z</time>
      </trkpt>
      <trkpt lat="40.749233" lon="-4.502983">
        <ele>2144.0</ele>
        <time>2014-06-30T14:59:18Z</time>
      </trkpt>
      <trkpt lat="40.749217" lon="-4.503067">
        <ele>2145.0</ele>
        <time>2014-06-30T14:59:19Z</time>
      </trkpt>
      <trkpt lat="40.749183" lon="-4.503167">
        <ele>2145.0</ele>
        <time>2014-06-30T14:59:20Z</time>
      </trkpt>
      <trkpt lat="40.749133" lon="-4.503250">
        <ele>2146.0</ele>
        <time>2014-06-30T14:59:21Z</time>
      </trkpt>
      <trkpt lat="40.749117" lon="-4.503317">
        <ele>2147.0</ele>
        <time>2014-06-30T14:59:22Z</time>
      </trkpt>
      <trkpt lat="40.749083" lon="-4.503367">
        <ele>2150.0</ele>
        <time>2014-06-30T14:59:23Z</time>
      </trkpt>
      <trkpt lat="40.749067" lon="-4.503400">
        <ele>2150.0</ele>
        <time>2014-06-30T14:59:24Z</time>
      </trkpt>
      <trkpt lat="40.749033" lon="-4.503467">
        <ele>2152.0</ele>
        <time>2014-06-30T14:59:25Z</time>
      </trkpt>
      <trkpt lat="40.749000" lon="-4.503517">
        <ele>2154.0</ele>
        <time>2014-06-30T14:59:26Z</time>
      </trkpt>
      <trkpt lat="40.748950" lon="-4.503567">
        <ele>2154.0</ele>
        <time>2014-06-30T14:59:27Z</time>
      </trkpt>
      <trkpt lat="40.748867" lon="-4.503567">
        <ele>2155.0</ele>
        <time>2014-06-30T14:59:28Z</time>
      </trkpt>
      <trkpt lat="40.748783" lon="-4.503517">
        <ele>2156.0</ele>
        <time>2014-06-30T14:59:29Z</time>
      </trkpt>
      <trkpt lat="40.748733" lon="-4.503417">
        <ele>2156.0</ele>
        <time>2014-06-30T14:59:30Z</time>
      </trkpt>
      <trkpt lat="40.748700" lon="-4.503300">
        <ele>2157.0</ele>
        <time>2014-06-30T14:59:31Z</time>
      </trkpt>
      <trkpt lat="40.748700" lon="-4.503167">
        <ele>2158.0</ele>
        <time>2014-06-30T14:59:32Z</time>
      </trkpt>
      <trkpt lat="40.748683" lon="-4.503050">
        <ele>2160.0</ele>
        <time>2014-06-30T14:59:33Z</time>
      </trkpt>
      <trkpt lat="40.748683" lon="-4.502950">
        <ele>2159.0</ele>
        <time>2014-06-30T14:59:34Z</time>
      </trkpt>
      <trkpt lat="40.748700" lon="-4.502833">
        <ele>2159.0</ele>
        <time>2014-06-30T14:59:35Z</time>
      </trkpt>
      <trkpt lat="40.748717" lon="-4.502717">
        <ele>2159.0</ele>
        <time>2014-06-30T14:59:36Z</time>
      </trkpt>
      <trkpt lat="40.748767" lon="-4.502567">
        <ele>2159.0</ele>
        <time>2014-06-30T14:59:37Z</time>
      </trkpt>
      <trkpt lat="40.748800" lon="-4.502450">
        <ele>2160.0</ele>
        <time>2014-06-30T14:59:38Z</time>
      </trkpt>
      <trkpt lat="40.748850" lon="-4.502350">
        <ele>2162.0</ele>
        <time>2014-06-30T14:59:39Z</time>
      </trkpt>
      <trkpt lat="40.748883" lon="-4.502267">
        <ele>2164.0</ele>
        <time>2014-06-30T14:59:40Z</time>
      </trkpt>
      <trkpt lat="40.748917" lon="-4.502200">
        <ele>2166.0</ele>
        <time>2014-06-30T14:59:41Z</time>
      </trkpt>
      <trkpt lat="40.748983" lon="-4.502117">
        <ele>2168.0</ele>
        <time>2014-06-30T14:59:42Z</time>
      </trkpt>
      <trkpt lat="40.749050" lon="-4.502050">
        <ele>2169.0</ele>
        <time>2014-06-30T14:59:43Z</time>
      </trkpt>
      <trkpt lat="40.749133" lon="-4.502017">
        <ele>2170.0</ele>
        <time>2014-06-30T14:59:44Z</time>
      </trkpt>
      <trkpt lat="40.749217" lon="-4.502033">
        <ele>2170.0</ele>
        <time>2014-06-30T14:59:45Z</time>
      </trkpt>
      <trkpt lat="40.749300" lon="-4.502067">
        <ele>2171.0</ele>
        <time>2014-06-30T14:59:46Z</time>
      </trkpt>
      <trkpt lat="40.749367" lon="-4.502150">
        <ele>2173.0</ele>
        <time>2014-06-30T14:59:47Z</time>
      </trkpt>
      <trkpt lat="40.749417" lon="-4.502217">
        <ele>2176.0</ele>
        <time>2014-06-30T14:59:48Z</time>
      </trkpt>
      <trkpt lat="40.749450" lon="-4.502267">
        <ele>2177.0</ele>
        <time>2014-06-30T14:59:49Z</time>
      </trkpt>
      <trkpt lat="40.749483" lon="-4.502333">
        <ele>2179.0</ele>
        <time>2014-06-30T14:59:50Z</time>
      </trkpt>
      <trkpt lat="40.749533" lon="-4.502417">
        <ele>2182.0</ele>
        <time>2014-06-30T14:59:51Z</time>
      </trkpt>
      <trkpt lat="40.749550" lon="-4.502483">
        <ele>2185.0</ele>
        <time>2014-06-30T14:59:52Z</time>
      </trkpt>
      <trkpt lat="40.749550" lon="-4.502517">
        <ele>2189.0</ele>
        <time>2014-06-30T14:59:53Z</time>
      </trkpt>
      <trkpt lat="40.749533" lon="-4.502533">
        <ele>2192.0</ele>
        <time>2014-06-30T14:59:54Z</time>
      </trkpt>
      <trkpt lat="40.749500" lon="-4.502517">
        <ele>2187.0</ele>
        <time>2014-06-30T14:59:55Z</time>
      </trkpt>
      <trkpt lat="40.749467" lon="-4.502550">
        <ele>2188.0</ele>
        <time>2014-06-30T14:59:56Z</time>
      </trkpt>
      <trkpt lat="40.749400" lon="-4.502567">
        <ele>2189.0</ele>
        <time>2014-06-30T14:59:57Z</time>
      </trkpt>
      <trkpt lat="40.749333" lon="-4.502550">
        <ele>2190.0</ele>
        <time>2014-06-30T14:59:58Z</time>
      </trkpt>
      <trkpt lat="40.749250" lon="-4.502483">
        <ele>2190.0</ele>
        <time>2014-06-30T14:59:59Z</time>
      </trkpt>
      <trkpt lat="40.749200" lon="-4.502367">
        <ele>2191.0</ele>
        <time>2014-06-30T15:00:00Z</time>
      </trkpt>
      <trkpt lat="40.749200" lon="-4.502200">
        <ele>2192.0</ele>
        <time>2014-06-30T15:00:01Z</time>
      </trkpt>
      <trkpt lat="40.749233" lon="-4.502033">
        <ele>2193.0</ele>
        <time>2014-06-30T15:00:02Z</time>
      </trkpt>
      <trkpt lat="40.749267" lon="-4.501900">
        <ele>2194.0</ele>
        <time>2014-06-30T15:00:03Z</time>
      </trkpt>
      <trkpt lat="40.749300" lon="-4.501800">
        <ele>2196.0</ele>
        <time>2014-06-30T15:00:04Z</time>
      </trkpt>
      <trkpt lat="40.749333" lon="-4.501733">
        <ele>2199.0</ele>
        <time>2014-06-30T15:00:05Z</time>
      </trkpt>
      <trkpt lat="40.749383" lon="-4.501683">
        <ele>2201.0</ele>
        <time>2014-06-30T15:00:06Z</time>
      </trkpt>
      <trkpt lat="40.749433" lon="-4.501617">
        <ele>2202.0</ele>
        <time>2014-06-30T15:00:07Z</time>
      </trkpt>
      <trkpt lat="40.749517" lon="-4.501567">
        <ele>2201.0</ele>
        <time>2014-06-30T15:00:08Z</time>
      </trkpt>
      <trkpt lat="40.749617" lon="-4.501517">
        <ele>2202.0</ele>
        <time>2014-06-30T15:00:09Z</time>
      </trkpt>
      <trkpt lat="40.749700" lon="-4.501500">
        <ele>2203.0</ele>
        <time>2014-06-30T15:00:10Z</time>
      </trkpt>
      <trkpt lat="40.749767" lon="-4.501517">
        <ele>2207.0</ele>
        <time>2014-06-30T15:00:11Z</time>
      </trkpt>
      <trkpt lat="40.749817" lon="-4.501550">
        <ele>2209.0</ele>
        <time>2014-06-30T15:00:12Z</time>
      </trkpt>
      <trkpt lat="40.749850" lon="-4.501583">
        <ele>2210.0</ele>
        <time>2014-06-30T15:00:13Z</time>
      </trkpt>
      <trkpt lat="40.749917" lon="-4.501633">
        <ele>2208.0</ele>
        <time>2014-06-30T15:00:14Z</time>
      </trkpt>
      <trkpt lat="40.749967" lon="-4.501700">
        <ele>2208.0</ele>
        <time>2014-06-30T15:00:15Z</time>
      </trkpt>
      <trkpt lat="40.750033" lon="-4.501767">
        <ele>2208.0</ele>
        <time>2014-06-30T15:00:16Z</time>
      </trkpt>
      <trkpt lat="40.750050" lon="-4.501850">
        <ele>2207.0</ele>
        <time>2014-06-30T15:00:17Z</time>
      </trkpt>
      <trkpt lat="40.750050" lon="-4.501950">
        <ele>2206.0</ele>
        <time>2014-06-30T15:00:18Z</time>
      </trkpt>
      <trkpt lat="40.750033" lon="-4.502033">
        <ele>2206.0</ele>
        <time>2014-06-30T15:00:19Z</time>
      </trkpt>
      <trkpt lat="40.750000" lon="-4.502117">
        <ele>2209.0</ele>
        <time>2014-06-30T15:00:20Z</time>
      </trkpt>
      <trkpt lat="40.749983" lon="-4.502183">
        <ele>2211.0</ele>
        <time>2014-06-30T15:00:21Z</time>
      </trkpt>
      <trkpt lat="40.749950" lon="-4.502250">
        <ele>2214.0</ele>
        <time>2014-06-30T15:00:22Z</time>
      </trkpt>
      <trkpt lat="40.749900" lon="-4.502300">
        <ele>2217.0</ele>
        <time>2014-06-30T15:00:23Z</time>
      </trkpt>
      <trkpt lat="40.749850" lon="-4.502350">
        <ele>2220.0</ele>
        <time>2014-06-30T15:00:24Z</time>
      </trkpt>
      <trkpt lat="40.749817" lon="-4.502350">
        <ele>2225.0</ele>
        <time>2014-06-30T15:00:25Z</time>
      </trkpt>
      <trkpt lat="40.749767" lon="-4.502333">
        <ele>2229.0</ele>
        <time>2014-06-30T15:00:26Z</time>
      </trkpt>
      <trkpt lat="40.749683" lon="-4.502283">
        <ele>2232.0</ele>
        <time>2014-06-30T15:00:27Z</time>
      </trkpt>
      <trkpt lat="40.749617" lon="-4.502200">
        <ele>2235.0</ele>
        <time>2014-06-30T15:00:28Z</time>
      </trkpt>
      <trkpt lat="40.749550" lon="-4.502083">
        <ele>2238.0</ele>
        <time>2014-06-30T15:00:29Z</time>
      </trkpt>
      <trkpt lat="40.749500" lon="-4.501933">
        <ele>2242.0</ele>
        <time>2014-06-30T15:00:30Z</time>
      </trkpt>
      <trkpt lat="40.749517" lon="-4.501800">
        <ele>2246.0</ele>
        <time>2014-06-30T15:00:31Z</time>
      </trkpt>
      <trkpt lat="40.749583" lon="-4.501717">
        <ele>2249.0</ele>
        <time>2014-06-30T15:00:32Z</time>
      </trkpt>
      <trkpt lat="40.749667" lon="-4.501667">
        <ele>2252.0</ele>
        <time>2014-06-30T15:00:33Z</time>
      </trkpt>
      <trkpt lat="40.749767" lon="-4.501600">
        <ele>2254.0</ele>
        <time>2014-06-30T15:00:34Z</time>
      </trkpt>
      <trkpt lat="40.749867" lon="-4.501533">
        <ele>2256.0</ele>
        <time>2014-06-30T15:00:35Z</time>
      </trkpt>
      <trkpt lat="40.749967" lon="-4.501467">
        <ele>2259.0</ele>
        <time>2014-06-30T15:00:36Z</time>
      </trkpt>
      <trkpt lat="40.750050" lon="-4.501450">
        <ele>2261.0</ele>
        <time>2014-06-30T15:00:37Z</time>
      </trkpt>
      <trkpt lat="40.750117" lon="-4.501500">
        <ele>2263.0</ele>
        <time>2014-06-30T15:00:38Z</time>
      </trkpt>
      <trkpt lat="40.750183" lon="-4.501567">
        <ele>2263.0</ele>
        <time>2014-06-30T15:00:39Z</time>
      </trkpt>
      <trkpt lat="40.750250" lon="-4.501667">
        <ele>2263.0</ele>
        <time>2014-06-30T15:00:40Z</time>
      </trkpt>
      <trkpt lat="40.750283" lon="-4.501733">
        <ele>2261.0</ele>
        <time>2014-06-30T15:00:41Z</time>
      </trkpt>
      <trkpt lat="40.750317" lon="-4.501817">
        <ele>2262.0</ele>
        <time>2014-06-30T15:00:42Z</time>
      </trkpt>
      <trkpt lat="40.750333" lon="-4.501867">
        <ele>2261.0</ele>
        <time>2014-06-30T15:00:43Z</time>
      </trkpt>
      <trkpt lat="40.750350" lon="-4.501933">
        <ele>2263.0</ele>
        <time>2014-06-30T15:00:44Z</time>
      </trkpt>
      <trkpt lat="40.750350" lon="-4.501983">
        <ele>2265.0</ele>
        <time>2014-06-30T15:00:45Z</time>
      </trkpt>
      <trkpt lat="40.750333" lon="-4.502033">
        <ele>2268.0</ele>
        <time>2014-06-30T15:00:46Z</time>
      </trkpt>
      <trkpt lat="40.750267" lon="-4.502067">
        <ele>2268.0</ele>
        <time>2014-06-30T15:00:47Z</time>
      </trkpt>
      <trkpt lat="40.750217" lon="-4.502100">
        <ele>2270.0</ele>
        <time>2014-06-30T15:00:48Z</time>
      </trkpt>
      <trkpt lat="40.750133" lon="-4.502083">
        <ele>2271.0</ele>
        <time>2014-06-30T15:00:49Z</time>
      </trkpt>
      <trkpt lat="40.750050" lon="-4.502017">
        <ele>2274.0</ele>
        <time>2014-06-30T15:00:50Z</time>
      </trkpt>
      <trkpt lat="40.750000" lon="-4.501917">
        <ele>2276.0</ele>
        <time>2014-06-30T15:00:51Z</time>
      </trkpt>
      <trkpt lat="40.749983" lon="-4.501767">
        <ele>2279.0</ele>
        <time>2014-06-30T15:00:52Z</time>
      </trkpt>
      <trkpt lat="40.750017" lon="-4.501633">
        <ele>2281.0</ele>
        <time>2014-06-30T15:00:53Z</time>
      </trkpt>
      <trkpt lat="40.750067" lon="-4.501533">
        <ele>2284.0</ele>
        <time>2014-06-30T15:00:54Z</time>
      </trkpt>
      <trkpt lat="40.750117" lon="-4.501467">
        <ele>2288.0</ele>
        <time>2014-06-30T15:00:55Z</time>
      </trkpt>
      <trkpt lat="40.750150" lon="-4.501400">
        <ele>2292.0</ele>
        <time>2014-06-30T15:00:56Z</time>
      </trkpt>
      <trkpt lat="40.750217" lon="-4.501350">
        <ele>2289.0</ele>
        <time>2014-06-30T15:00:57Z</time>
      </trkpt>
      <trkpt lat="40.750300" lon="-4.501300">
        <ele>2291.0</ele>
        <time>2014-06-30T15:00:58Z</time>
      </trkpt>
      <trkpt lat="40.750400" lon="-4.501233">
        <ele>2293.0</ele>
        <time>2014-06-30T15:00:59Z</time>
      </trkpt>
      <trkpt lat="40.750500" lon="-4.501200">
        <ele>2296.0</ele>
        <time>2014-06-30T15:01:00Z</time>
      </trkpt>
      <trkpt lat="40.750583" lon="-4.501200">
        <ele>2299.0</ele>
        <time>2014-06-30T15:01:01Z</time>
      </trkpt>
      <trkpt lat="40.750667" lon="-4.501217">
        <ele>2302.0</ele>
        <time>2014-06-30T15:01:02Z</time>
      </trkpt>
      <trkpt lat="40.750733" lon="-4.501250">
        <ele>2308.0</ele>
        <time>2014-06-30T15:01:03Z</time>
      </trkpt>
      <trkpt lat="40.750783" lon="-4.501300">
        <ele>2313.0</ele>
        <time>2014-06-30T15:01:04Z</time>
      </trkpt>
      <trkpt lat="40.750800" lon="-4.501367">
        <ele>2317.0</ele>
        <time>2014-06-30T15:01:05Z</time>
      </trkpt>
      <trkpt lat="40.750817" lon="-4.501433">
        <ele>2322.0</ele>
        <time>2014-06-30T15:01:06Z</time>
      </trkpt>
      <trkpt lat="40.750800" lon="-4.501483">
        <ele>2320.0</ele>
        <time>2014-06-30T15:01:07Z</time>
      </trkpt>
      <trkpt lat="40.750783" lon="-4.501550">
        <ele>2322.0</ele>
        <time>2014-06-30T15:01:08Z</time>
      </trkpt>
      <trkpt lat="40.750733" lon="-4.501600">
        <ele>2325.0</ele>
        <time>2014-06-30T15:01:09Z</time>
      </trkpt>
      <trkpt lat="40.750683" lon="-4.501667">
        <ele>2328.0</ele>
        <time>2014-06-30T15:01:10Z</time>
      </trkpt>
      <trkpt lat="40.750617" lon="-4.501700">
        <ele>2332.0</ele>
        <time>2014-06-30T15:01:11Z</time>
      </trkpt>
      <trkpt lat="40.750550" lon="-4.501700">
        <ele>2332.0</ele>
        <time>2014-06-30T15:01:12Z</time>
      </trkpt>
      <trkpt lat="40.750500" lon="-4.501683">
        <ele>2334.0</ele>
        <time>2014-06-30T15:01:13Z</time>
      </trkpt>
      <trkpt lat="40.750433" lon="-4.501683">
        <ele>2335.0</ele>
        <time>2014-06-30T15:01:14Z</time>
      </trkpt>
      <trkpt lat="40.750367" lon="-4.501667">
        <ele>2337.0</ele>
        <time>2014-06-30T15:01:15Z</time>
      </trkpt>
      <trkpt lat="40.750283" lon="-4.501650">
        <ele>2339.0</ele>
        <time>2014-06-30T15:01:16Z</time>
      </trkpt>
      <trkpt lat="40.750200" lon="-4.501600">
        <ele>2341.0</ele>
        <time>2014-06-30T15:01:17Z</time>
      </trkpt>
      <trkpt lat="40.750133" lon="-4.501517">
        <ele>2343.0</ele>
        <time>2014-06-30T15:01:18Z</time>
      </trkpt>
      <trkpt lat="40.750067" lon="-4.501400">
        <ele>2344.0</ele>
        <time>2014-06-30T15:01:19Z</time>
      </trkpt>
      <trkpt lat="40.750000" lon="-4.501283">
        <ele>2346.0</ele>
        <time>2014-06-30T15:01:20Z</time>
      </trkpt>
      <trkpt lat="40.749950" lon="-4.501150">
        <ele>2348.0</ele>
        <time>2014-06-30T15:01:21Z</time>
      </trkpt>
      <trkpt lat="40.749917" lon="-4.501000">
        <ele>2350.0</ele>
        <time>2014-06-30T15:01:22Z</time>
      </trkpt>
      <trkpt lat="40.749900" lon="-4.500850">
        <ele>2352.0</ele>
        <time>2014-06-30T15:01:23Z</time>
      </trkpt>
      <trkpt lat="40.749917" lon="-4.500700">
        <ele>2354.0</ele>
        <time>2014-06-30T15:01:24Z</time>
      </trkpt>
      <trkpt lat="40.749950" lon="-4.500550">
        <ele>2356.0</ele>
        <time>2014-06-30T15:01:25Z</time>
      </trkpt>
      <trkpt lat="40.750017" lon="-4.500400">
        <ele>2358.0</ele>
        <time>2014-06-30T15:01:26Z</time>
      </trkpt>
      <trkpt lat="40.750067" lon="-4.500267">
        <ele>2362.0</ele>
        <time>2014-06-30T15:01:27Z</time>
      </trkpt>
      <trkpt lat="40.750117" lon="-4.500133">
        <ele>2366.0</ele>
        <time>2014-06-30T15:01:28Z</time>
      </trkpt>
      <trkpt lat="40.750183" lon="-4.500033">
        <ele>2370.0</ele>
        <time>2014-06-30T15:01:29Z</time>
      </trkpt>
      <trkpt lat="40.750233" lon="-4.499950">
        <ele>2374.0</ele>
        <time>2014-06-30T15:01:30Z</time>
      </trkpt>
      <trkpt lat="40.750300" lon="-4.499850">
        <ele>2376.0</ele>
        <time>2014-06-30T15:01:31Z</time>
      </trkpt>
      <trkpt lat="40.750383" lon="-4.499733">
        <ele>2377.0</ele>
        <time>2014-06-30T15:01:32Z</time>
      </trkpt>
      <trkpt lat="40.750467" lon="-4.499633">
        <ele>2379.0</ele>
        <time>2014-06-30T15:01:33Z</time>
      </trkpt>
      <trkpt lat="40.750567" lon="-4.499567">
        <ele>2381.0</ele>
        <time>2014-06-30T15:01:34Z</time>
      </trkpt>
      <trkpt lat="40.750633" lon="-4.499550">
        <ele>2383.0</ele>
        <time>2014-06-30T15:01:35Z</time>
      </trkpt>
      <trkpt lat="40.750700" lon="-4.499550">
        <ele>2385.0</ele>
        <time>2014-06-30T15:01:36Z</time>
      </trkpt>
      <trkpt lat="40.750767" lon="-4.499567">
        <ele>2385.0</ele>
        <time>2014-06-30T15:01:37Z</time>
      </trkpt>
      <trkpt lat="40.750817" lon="-4.499583">
        <ele>2386.0</ele>
        <time>2014-06-30T15:01:38Z</time>
      </trkpt>
      <trkpt lat="40.750883" lon="-4.499617">
        <ele>2387.0</ele>
        <time>2014-06-30T15:01:39Z</time>
      </trkpt>
      <trkpt lat="40.750950" lon="-4.499633">
        <ele>2388.0</ele>
        <time>2014-06-30T15:01:40Z</time>
      </trkpt>
      <trkpt lat="40.751033" lon="-4.499650">
        <ele>2389.0</ele>
        <time>2014-06-30T15:01:41Z</time>
      </trkpt>
      <trkpt lat="40.751100" lon="-4.499700">
        <ele>2389.0</ele>
        <time>2014-06-30T15:01:42Z</time>
      </trkpt>
      <trkpt lat="40.751150" lon="-4.499783">
        <ele>2391.0</ele>
        <time>2014-06-30T15:01:43Z</time>
      </trkpt>
      <trkpt lat="40.751167" lon="-4.499883">
        <ele>2394.0</ele>
        <time>2014-06-30T15:01:44Z</time>
      </trkpt>
      <trkpt lat="40.751133" lon="-4.499967">
        <ele>2398.0</ele>
        <time>2014-06-30T15:01:45Z</time>
      </trkpt>
      <trkpt lat="40.751067" lon="-4.500033">
        <ele>2401.0</ele>
        <time>2014-06-30T15:01:46Z</time>
      </trkpt>
      <trkpt lat="40.750983" lon="-4.500083">
        <ele>2404.0</ele>
        <time>2014-06-30T15:01:47Z</time>
      </trkpt>
      <trkpt lat="40.750917" lon="-4.500117">
        <ele>2408.0</ele>
        <time>2014-06-30T15:01:48Z</time>
      </trkpt>
      <trkpt lat="40.750867" lon="-4.500133">
        <ele>2413.0</ele>
        <time>2014-06-30T15:01:49Z</time>
      </trkpt>
      <trkpt lat="40.750817" lon="-4.500117">
        <ele>2416.0</ele>
        <time>2014-06-30T15:01:50Z</time>
      </trkpt>
      <trkpt lat="40.750750" lon="-4.500083">
        <ele>2412.0</ele>
        <time>2014-06-30T15:01:51Z</time>
      </trkpt>
      <trkpt lat="40.750667" lon="-4.500033">
        <ele>2413.0</ele>
        <time>2014-06-30T15:01:52Z</time>
      </trkpt>
      <trkpt lat="40.750600" lon="-4.499950">
        <ele>2414.0</ele>
        <time>2014-06-30T15:01:53Z</time>
      </trkpt>
      <trkpt lat="40.750533" lon="-4.499833">
        <ele>2415.0</ele>
        <time>2014-06-30T15:01:54Z</time>
      </trkpt>
      <trkpt lat="40.750483" lon="-4.499717">
        <ele>2417.0</ele>
        <time>2014-06-30T15:01:55Z</time>
      </trkpt>
      <trkpt lat="40.750450" lon="-4.499583">
        <ele>2419.0</ele>
        <time>2014-06-30T15:01:56Z</time>
      </trkpt>
      <trkpt lat="40.750433" lon="-4.499450">
        <ele>2421.0</ele>
        <time>2014-06-30T15:01:57Z</time>
      </trkpt>
      <trkpt lat="40.750433" lon="-4.499300">
        <ele>2422.0</ele>
        <time>2014-06-30T15:01:58Z</time>
      </trkpt>
      <trkpt lat="40.750467" lon="-4.499150">
        <ele>2422.0</ele>
        <time>2014-06-30T15:01:59Z</time>
      </trkpt>
      <trkpt lat="40.750500" lon="-4.498983">
        <ele>2422.0</ele>
        <time>2014-06-30T15:02:00Z</time>
      </trkpt>
      <trkpt lat="40.750567" lon="-4.498817">
        <ele>2423.0</ele>
        <time>2014-06-30T15:02:01Z</time>
      </trkpt>
      <trkpt lat="40.750633" lon="-4.498667">
        <ele>2424.0</ele>
        <time>2014-06-30T15:02:02Z</time>
      </trkpt>
      <trkpt lat="40.750700" lon="-4.498533">
        <ele>2425.0</ele>
        <time>2014-06-30T15:02:03Z</time>
      </trkpt>
      <trkpt lat="40.750783" lon="-4.498417">
        <ele>2425.0</ele>
        <time>2014-06-30T15:02:04Z</time>
      </trkpt>
      <trkpt lat="40.750867" lon="-4.498333">
        <ele>2426.0</ele>
        <time>2014-06-30T15:02:05Z</time>
      </trkpt>
      <trkpt lat="40.750967" lon="-4.498267">
        <ele>2427.0</ele>
        <time>2014-06-30T15:02:06Z</time>
      </trkpt>
      <trkpt lat="40.751067" lon="-4.498217">
        <ele>2428.0</ele>
        <time>2014-06-30T15:02:07Z</time>
      </trkpt>
      <trkpt lat="40.751167" lon="-4.498183">
        <ele>2430.0</ele>
        <time>2014-06-30T15:02:08Z</time>
      </trkpt>
      <trkpt lat="40.751250" lon="-4.498200">
        <ele>2433.0</ele>
        <time>2014-06-30T15:02:09Z</time>
      </trkpt>
      <trkpt lat="40.751300" lon="-4.498217">
        <ele>2434.0</ele>
        <time>2014-06-30T15:02:10Z</time>
      </trkpt>
      <trkpt lat="40.751350" lon="-4.498250">
        <ele>2434.0</ele>
        <time>2014-06-30T15:02:11Z</time>
      </trkpt>
      <trkpt lat="40.751367" lon="-4.498283">
        <ele>2434.0</ele>
        <time>2014-06-30T15:02:12Z</time>
      </trkpt>
      <trkpt lat="40.751400" lon="-4.498350">
        <ele>2434.0</ele>
        <time>2014-06-30T15:02:13Z</time>
      </trkpt>
      <trkpt lat="40.751383" lon="-4.498417">
        <ele>2433.0</ele>
        <time>2014-06-30T15:02:14Z</time>
      </trkpt>
      <trkpt lat="40.751350" lon="-4.498483">
        <ele>2433.0</ele>
        <time>2014-06-30T15:02:15Z</time>
      </trkpt>
      <trkpt lat="40.751300" lon="-4.498550">
        <ele>2433.0</ele>
        <time>2014-06-30T15:02:16Z</time>
      </trkpt>
      <trkpt lat="40.751217" lon="-4.498550">
        <ele>2433.0</ele>
        <time>2014-06-30T15:02:17Z</time>
      </trkpt>
      <trkpt lat="40.751133" lon="-4.498483">
        <ele>2433.0</ele>
        <time>2014-06-30T15:02:18Z</time>
      </trkpt>
      <trkpt lat="40.751083" lon="-4.498383">
        <ele>2434.0</ele>
        <time>2014-06-30T15:02:19Z</time>
      </trkpt>
      <trkpt lat="40.751033" lon="-4.498283">
        <ele>2435.0</ele>
        <time>2014-06-30T15:02:20Z</time>
      </trkpt>
      <trkpt lat="40.751017" lon="-4.498183">
        <ele>2437.0</ele>
        <time>2014-06-30T15:02:21Z</time>
      </trkpt>
      <trkpt lat="40.750983" lon="-4.498117">
        <ele>2438.0</ele>
        <time>2014-06-30T15:02:22Z</time>
      </trkpt>
      <trkpt lat="40.750950" lon="-4.498017">
        <ele>2439.0</ele>
        <time>2014-06-30T15:02:23Z</time>
      </trkpt>
      <trkpt lat="40.750917" lon="-4.497917">
        <ele>2440.0</ele>
        <time>2014-06-30T15:02:24Z</time>
      </trkpt>
      <trkpt lat="40.750917" lon="-4.497783">
        <ele>2440.0</ele>
        <time>2014-06-30T15:02:25Z</time>
      </trkpt>
      <trkpt lat="40.750917" lon="-4.497633">
        <ele>2441.0</ele>
        <time>2014-06-30T15:02:26Z</time>
      </trkpt>
      <trkpt lat="40.750967" lon="-4.497483">
        <ele>2442.0</ele>
        <time>2014-06-30T15:02:27Z</time>
      </trkpt>
      <trkpt lat="40.751000" lon="-4.497333">
        <ele>2444.0</ele>
        <time>2014-06-30T15:02:28Z</time>
      </trkpt>
      <trkpt lat="40.751067" lon="-4.497217">
        <ele>2446.0</ele>
        <time>2014-06-30T15:02:29Z</time>
      </trkpt>
      <trkpt lat="40.751117" lon="-4.497117">
        <ele>2448.0</ele>
        <time>2014-06-30T15:02:30Z</time>
      </trkpt>
      <trkpt lat="40.751167" lon="-4.497017">
        <ele>2450.0</ele>
        <time>2014-06-30T15:02:31Z</time>
      </trkpt>
      <trkpt lat="40.751250" lon="-4.496933">
        <ele>2452.0</ele>
        <time>2014-06-30T15:02:32Z</time>
      </trkpt>
      <trkpt lat="40.751333" lon="-4.496867">
        <ele>2452.0</ele>
        <time>2014-06-30T15:02:33Z</time>
      </trkpt>
      <trkpt lat="40.751417" lon="-4.496833">
        <ele>2453.0</ele>
        <time>2014-06-30T15:02:34Z</time>
      </trkpt>
      <trkpt lat="40.751517" lon="-4.496817">
        <ele>2454.0</ele>
        <time>2014-06-30T15:02:35Z</time>
      </trkpt>
      <trkpt lat="40.751583" lon="-4.496817">
        <ele>2453.0</ele>
        <time>2014-06-30T15:02:36Z</time>
      </trkpt>
      <trkpt lat="40.751633" lon="-4.496833">
        <ele>2453.0</ele>
        <time>2014-06-30T15:02:37Z</time>
      </trkpt>
      <trkpt lat="40.751683" lon="-4.496867">
        <ele>2453.0</ele>
        <time>2014-06-30T15:02:38Z</time>
      </trkpt>
      <trkpt lat="40.751733" lon="-4.496917">
        <ele>2453.0</ele>
        <time>2014-06-30T15:02:39Z</time>
      </trkpt>
      <trkpt lat="40.751767" lon="-4.497000">
        <ele>2453.0</ele>
        <time>2014-06-30T15:02:40Z</time>
      </trkpt>
      <trkpt lat="40.751767" lon="-4.497067">
        <ele>2451.0</ele>
        <time>2014-06-30T15:02:41Z</time>
      </trkpt>
      <trkpt lat="40.751767" lon="-4.497117">
        <ele>2451.0</ele>
        <time>2014-06-30T15:02:42Z</time>
      </trkpt>
      <trkpt lat="40.751767" lon="-4.497150">
        <ele>2452.0</ele>
        <time>2014-06-30T15:02:43Z</time>
      </trkpt>
      <trkpt lat="40.751767" lon="-4.497200">
        <ele>2453.0</ele>
        <time>2014-06-30T15:02:44Z</time>
      </trkpt>
      <trkpt lat="40.751750" lon="-4.497233">
        <ele>2453.0</ele>
        <time>2014-06-30T15:02:45Z</time>
      </trkpt>
      <trkpt lat="40.751733" lon="-4.497283">
        <ele>2454.0</ele>
        <time>2014-06-30T15:02:46Z</time>
      </trkpt>
      <trkpt lat="40.751700" lon="-4.497333">
        <ele>2454.0</ele>
        <time>2014-06-30T15:02:47Z</time>
      </trkpt>
      <trkpt lat="40.751650" lon="-4.497400">
        <ele>2454.0</ele>
        <time>2014-06-30T15:02:48Z</time>
      </trkpt>
      <trkpt lat="40.751567" lon="-4.497450">
        <ele>2455.0</ele>
        <time>2014-06-30T15:02:49Z</time>
      </trkpt>
      <trkpt lat="40.751483" lon="-4.497467">
        <ele>2457.0</ele>
        <time>2014-06-30T15:02:50Z</time>
      </trkpt>
      <trkpt lat="40.751400" lon="-4.497467">
        <ele>2459.0</ele>
        <time>2014-06-30T15:02:51Z</time>
      </trkpt>
      <trkpt lat="40.751333" lon="-4.497450">
        <ele>2462.0</ele>
        <time>2014-06-30T15:02:52Z</time>
      </trkpt>
      <trkpt lat="40.751267" lon="-4.497417">
        <ele>2465.0</ele>
        <time>2014-06-30T15:02:53Z</time>
      </trkpt>
      <trkpt lat="40.751217" lon="-4.497400">
        <ele>2468.0</ele>
        <time>2014-06-30T15:02:54Z</time>
      </trkpt>
      <trkpt lat="40.751167" lon="-4.497367">
        <ele>2470.0</ele>
        <time>2014-06-30T15:02:55Z</time>
      </trkpt>
      <trkpt lat="40.751100" lon="-4.497317">
        <ele>2468.0</ele>
        <time>2014-06-30T15:02:56Z</time>
      </trkpt>
      <trkpt lat="40.751033" lon="-4.497233">
        <ele>2468.0</ele>
        <time>2014-06-30T15:02:57Z</time>
      </trkpt>
      <trkpt lat="40.751000" lon="-4.497117">
        <ele>2469.0</ele>
        <time>2014-06-30T15:02:58Z</time>
      </trkpt>
      <trkpt lat="40.751000" lon="-4.496967">
        <ele>2470.0</ele>
        <time>2014-06-30T15:02:59Z</time>
      </trkpt>
      <trkpt lat="40.751033" lon="-4.496833">
        <ele>2472.0</ele>
        <time>2014-06-30T15:03:00Z</time>
      </trkpt>
      <trkpt lat="40.751100" lon="-4.496717">
        <ele>2474.0</ele>
        <time>2014-06-30T15:03:01Z</time>
      </trkpt>
      <trkpt lat="40.751183" lon="-4.496650">
        <ele>2475.0</ele>
        <time>2014-06-30T15:03:02Z</time>
      </trkpt>
      <trkpt lat="40.751267" lon="-4.496633">
        <ele>2477.0</ele>
        <time>2014-06-30T15:03:03Z</time>
      </trkpt>
      <trkpt lat="40.751333" lon="-4.496650">
        <ele>2479.0</ele>
        <time>2014-06-30T15:03:04Z</time>
      </trkpt>
      <trkpt lat="40.751417" lon="-4.496683">
        <ele>2480.0</ele>
        <time>2014-06-30T15:03:05Z</time>
      </trkpt>
      <trkpt lat="40.751467" lon="-4.496717">
        <ele>2479.0</ele>
        <time>2014-06-30T15:03:06Z</time>
      </trkpt>
      <trkpt lat="40.751517" lon="-4.496767">
        <ele>2480.0</ele>
        <time>2014-06-30T15:03:07Z</time>
      </trkpt>
      <trkpt lat="40.751550" lon="-4.496850">
        <ele>2481.0</ele>
        <time>2014-06-30T15:03:08Z</time>
      </trkpt>
      <trkpt lat="40.751550" lon="-4.496950">
        <ele>2482.0</ele>
        <time>2014-06-30T15:03:09Z</time>
      </trkpt>
      <trkpt lat="40.751517" lon="-4.497033">
        <ele>2483.0</ele>
        <time>2014-06-30T15:03:10Z</time>
      </trkpt>
      <trkpt lat="40.751433" lon="-4.497083">
        <ele>2483.0</ele>
        <time>2014-06-30T15:03:11Z</time>
      </trkpt>
      <trkpt lat="40.751350" lon="-4.497083">
        <ele>2483.0</ele>
        <time>2014-06-30T15:03:12Z</time>
      </trkpt>
      <trkpt lat="40.751267" lon="-4.497083">
        <ele>2486.0</ele>
        <time>2014-06-30T15:03:13Z</time>
      </trkpt>
      <trkpt lat="40.751200" lon="-4.497050">
        <ele>2491.0</ele>
        <time>2014-06-30T15:03:14Z</time>
      </trkpt>
      <trkpt lat="40.751167" lon="-4.496967">
        <ele>2494.0</ele>
        <time>2014-06-30T15:03:15Z</time>
      </trkpt>
      <trkpt lat="40.751150" lon="-4.496883">
        <ele>2491.0</ele>
        <time>2014-06-30T15:03:16Z</time>
      </trkpt>
      <trkpt lat="40.751133" lon="-4.496800">
        <ele>2492.0</ele>
        <time>2014-06-30T15:03:17Z</time>
      </trkpt>
      <trkpt lat="40.751100" lon="-4.496717">
        <ele>2492.0</ele>
        <time>2014-06-30T15:03:18Z</time>
      </trkpt>
      <trkpt lat="40.751050" lon="-4.496617">
        <ele>2492.0</ele>
        <time>2014-06-30T15:03:19Z</time>
      </trkpt>
      <trkpt lat="40.751000" lon="-4.496483">
        <ele>2493.0</ele>
        <time>2014-06-30T15:03:20Z</time>
      </trkpt>
      <trkpt lat="40.750983" lon="-4.496350">
        <ele>2493.0</ele>
        <time>2014-06-30T15:03:21Z</time>
      </trkpt>
      <trkpt lat="40.750983" lon="-4.496217">
        <ele>2493.0</ele>
        <time>2014-06-30T15:03:22Z</time>
      </trkpt>
      <trkpt lat="40.750983" lon="-4.496083">
        <ele>2494.0</ele>
        <time>2014-06-30T15:03:23Z</time>
      </trkpt>
      <trkpt lat="40.751000" lon="-4.495950">
        <ele>2495.0</ele>
        <time>2014-06-30T15:03:24Z</time>
      </trkpt>
      <trkpt lat="40.750983" lon="-4.495783">
        <ele>2495.0</ele>
        <time>2014-06-30T15:03:25Z</time>
      </trkpt>
      <trkpt lat="40.750983" lon="-4.495617">
        <ele>2496.0</ele>
        <time>2014-06-30T15:03:26Z</time>
      </trkpt>
      <trkpt lat="40.750983" lon="-4.495450">
        <ele>2496.0</ele>
        <time>2014-06-30T15:03:27Z</time>
      </trkpt>
      <trkpt lat="40.751017" lon="-4.495267">
        <ele>2497.0</ele>
        <time>2014-06-30T15:03:28Z</time>
      </trkpt>
      <trkpt lat="40.751033" lon="-4.495083">
        <ele>2499.0</ele>
        <time>2014-06-30T15:03:29Z</time>
      </trkpt>
      <trkpt lat="40.751050" lon="-4.494950">
        <ele>2502.0</ele>
        <time>2014-06-30T15:03:30Z</time>
      </trkpt>
      <trkpt lat="40.751067" lon="-4.494833">
        <ele>2505.0</ele>
        <time>2014-06-30T15:03:31Z</time>
      </trkpt>
      <trkpt lat="40.751083" lon="-4.494700">
        <ele>2503.0</ele>
        <time>2014-06-30T15:03:32Z</time>
      </trkpt>
      <trkpt lat="40.751100" lon="-4.494583">
        <ele>2503.0</ele>
        <time>2014-06-30T15:03:33Z</time>
      </trkpt>
      <trkpt lat="40.751133" lon="-4.494467">
        <ele>2503.0</ele>
        <time>2014-06-30T15:03:34Z</time>
      </trkpt>
      <trkpt lat="40.751183" lon="-4.494350">
        <ele>2504.0</ele>
        <time>2014-06-30T15:03:35Z</time>
      </trkpt>
      <trkpt lat="40.751283" lon="-4.494250">
        <ele>2504.0</ele>
        <time>2014-06-30T15:03:36Z</time>
      </trkpt>
      <trkpt lat="40.751383" lon="-4.494167">
        <ele>2504.0</ele>
        <time>2014-06-30T15:03:37Z</time>
      </trkpt>
      <trkpt lat="40.751500" lon="-4.494133">
        <ele>2504.0</ele>
        <time>2014-06-30T15:03:38Z</time>
      </trkpt>
      <trkpt lat="40.751600" lon="-4.494133">
        <ele>2503.0</ele>
        <time>2014-06-30T15:03:39Z</time>
      </trkpt>
      <trkpt lat="40.751683" lon="-4.494167">
        <ele>2503.0</ele>
        <time>2014-06-30T15:03:40Z</time>
      </trkpt>
      <trkpt lat="40.751767" lon="-4.494183">
        <ele>2504.0</ele>
        <time>2014-06-30T15:03:41Z</time>
      </trkpt>
      <trkpt lat="40.751833" lon="-4.494200">
        <ele>2505.0</ele>
        <time>2014-06-30T15:03:42Z</time>
      </trkpt>
      <trkpt lat="40.751883" lon="-4.494233">
        <ele>2505.0</ele>
        <time>2014-06-30T15:03:43Z</time>
      </trkpt>
      <trkpt lat="40.751933" lon="-4.494300">
        <ele>2504.0</ele>
        <time>2014-06-30T15:03:44Z</time>
      </trkpt>
      <trkpt lat="40.751950" lon="-4.494383">
        <ele>2504.0</ele>
        <time>2014-06-30T15:03:45Z</time>
      </trkpt>
      <trkpt lat="40.751967" lon="-4.494483">
        <ele>2503.0</ele>
        <time>2014-06-30T15:03:46Z</time>
      </trkpt>
      <trkpt lat="40.751950" lon="-4.494567">
        <ele>2503.0</ele>
        <time>2014-06-30T15:03:47Z</time>
      </trkpt>
      <trkpt lat="40.751950" lon="-4.494633">
        <ele>2503.0</ele>
        <time>2014-06-30T15:03:48Z</time>
      </trkpt>
      <trkpt lat="40.751933" lon="-4.494683">
        <ele>2503.0</ele>
        <time>2014-06-30T15:03:49Z</time>
      </trkpt>
      <trkpt lat="40.751917" lon="-4.494733">
        <ele>2503.0</ele>
        <time>2014-06-30T15:03:50Z</time>
      </trkpt>
      <trkpt lat="40.751883" lon="-4.494767">
        <ele>2503.0</ele>
        <time>2014-06-30T15:03:51Z</time>
      </trkpt>
      <trkpt lat="40.751817" lon="-4.494767">
        <ele>2503.0</ele>
        <time>2014-06-30T15:03:52Z</time>
      </trkpt>
      <trkpt lat="40.751733" lon="-4.494733">
        <ele>2503.0</ele>
        <time>2014-06-30T15:03:53Z</time>
      </trkpt>
      <trkpt lat="40.751650" lon="-4.494683">
        <ele>2502.0</ele>
        <time>2014-06-30T15:03:54Z</time>
      </trkpt>
      <trkpt lat="40.751583" lon="-4.494633">
        <ele>2502.0</ele>
        <time>2014-06-30T15:03:55Z</time>
      </trkpt>
      <trkpt lat="40.751533" lon="-4.494583">
        <ele>2502.0</ele>
        <time>2014-06-30T15:03:56Z</time>
      </trkpt>
      <trkpt lat="40.751467" lon="-4.494517">
        <ele>2502.0</ele>
        <time>2014-06-30T15:03:57Z</time>
      </trkpt>
      <trkpt lat="40.751417" lon="-4.494433">
        <ele>2503.0</ele>
        <time>2014-06-30T15:03:58Z</time>
      </trkpt>
      <trkpt lat="40.751350" lon="-4.494367">
        <ele>2503.0</ele>
        <time>2014-06-30T15:03:59Z</time>
      </trkpt>
      <trkpt lat="40.751300" lon="-4.494283">
        <ele>2503.0</ele>
        <time>2014-06-30T15:04:00Z</time>
      </trkpt>
      <trkpt lat="40.751250" lon="-4.494200">
        <ele>2503.0</ele>
        <time>2014-06-30T15:04:01Z</time>
      </trkpt>
      <trkpt lat="40.751200" lon="-4.494100">
        <ele>2503.0</ele>
        <time>2014-06-30T15:04:02Z</time>
      </trkpt>
      <trkpt lat="40.751133" lon="-4.494000">
        <ele>2503.0</ele>
        <time>2014-06-30T15:04:03Z</time>
      </trkpt>
      <trkpt lat="40.751100" lon="-4.493883">
        <ele>2503.0</ele>
        <time>2014-06-30T15:04:04Z</time>
      </trkpt>
      <trkpt lat="40.751067" lon="-4.493767">
        <ele>2503.0</ele>
        <time>2014-06-30T15:04:05Z</time>
      </trkpt>
      <trkpt lat="40.751033" lon="-4.493650">
        <ele>2503.0</ele>
        <time>2014-06-30T15:04:06Z</time>
      </trkpt>
      <trkpt lat="40.750983" lon="-4.493517">
        <ele>2503.0</ele>
        <time>2014-06-30T15:04:07Z</time>
      </trkpt>
      <trkpt lat="40.750950" lon="-4.493383">
        <ele>2502.0</ele>
        <time>2014-06-30T15:04:08Z</time>
      </trkpt>
      <trkpt lat="40.750917" lon="-4.493250">
        <ele>2502.0</ele>
        <time>2014-06-30T15:04:09Z</time>
      </trkpt>
      <trkpt lat="40.750900" lon="-4.493117">
        <ele>2502.0</ele>
        <time>2014-06-30T15:04:10Z</time>
      </trkpt>
      <trkpt lat="40.750900" lon="-4.493000">
        <ele>2502.0</ele>
        <time>2014-06-30T15:04:11Z</time>
      </trkpt>
      <trkpt lat="40.750900" lon="-4.492900">
        <ele>2502.0</ele>
        <time>2014-06-30T15:04:12Z</time>
      </trkpt>
      <trkpt lat="40.750917" lon="-4.492767">
        <ele>2503.0</ele>
        <time>2014-06-30T15:04:13Z</time>
      </trkpt>
      <trkpt lat="40.750933" lon="-4.492633">
        <ele>2503.0</ele>
        <time>2014-06-30T15:04:14Z</time>
      </trkpt>
      <trkpt lat="40.750967" lon="-4.492483">
        <ele>2503.0</ele>
        <time>2014-06-30T15:04:15Z</time>
      </trkpt>
      <trkpt lat="40.751000" lon="-4.492333">
        <ele>2502.0</ele>
        <time>2014-06-30T15:04:16Z</time>
      </trkpt>
      <trkpt lat="40.751067" lon="-4.492183">
        <ele>2502.0</ele>
        <time>2014-06-30T15:04:17Z</time>
      </trkpt>
      <trkpt lat="40.751117" lon="-4.492000">
        <ele>2501.0</ele>
        <time>2014-06-30T15:04:18Z</time>
      </trkpt>
      <trkpt lat="40.751183" lon="-4.491833">
        <ele>2500.0</ele>
        <time>2014-06-30T15:04:19Z</time>
      </trkpt>
      <trkpt lat="40.751233" lon="-4.491667">
        <ele>2499.0</ele>
        <time>2014-06-30T15:04:20Z</time>
      </trkpt>
      <trkpt lat="40.751300" lon="-4.491483">
        <ele>2498.0</ele>
        <time>2014-06-30T15:04:21Z</time>
      </trkpt>
      <trkpt lat="40.751367" lon="-4.491317">
        <ele>2496.0</ele>
        <time>2014-06-30T15:04:22Z</time>
      </trkpt>
      <trkpt lat="40.751450" lon="-4.491150">
        <ele>2494.0</ele>
        <time>2014-06-30T15:04:23Z</time>
      </trkpt>
      <trkpt lat="40.751533" lon="-4.491000">
        <ele>2491.0</ele>
        <time>2014-06-30T15:04:24Z</time>
      </trkpt>
      <trkpt lat="40.751617" lon="-4.490850">
        <ele>2488.0</ele>
        <time>2014-06-30T15:04:25Z</time>
      </trkpt>
      <trkpt lat="40.751683" lon="-4.490700">
        <ele>2486.0</ele>
        <time>2014-06-30T15:04:26Z</time>
      </trkpt>
      <trkpt lat="40.751750" lon="-4.490550">
        <ele>2484.0</ele>
        <time>2014-06-30T15:04:27Z</time>
      </trkpt>
      <trkpt lat="40.751833" lon="-4.490417">
        <ele>2482.0</ele>
        <time>2014-06-30T15:04:28Z</time>
      </trkpt>
      <trkpt lat="40.751917" lon="-4.490283">
        <ele>2478.0</ele>
        <time>2014-06-30T15:04:29Z</time>
      </trkpt>
      <trkpt lat="40.752017" lon="-4.490150">
        <ele>2473.0</ele>
        <time>2014-06-30T15:04:30Z</time>
      </trkpt>
      <trkpt lat="40.752117" lon="-4.490017">
        <ele>2468.0</ele>
        <time>2014-06-30T15:04:31Z</time>
      </trkpt>
      <trkpt lat="40.752217" lon="-4.489900">
        <ele>2466.0</ele>
        <time>2014-06-30T15:04:32Z</time>
      </trkpt>
      <trkpt lat="40.752317" lon="-4.489783">
        <ele>2463.0</ele>
        <time>2014-06-30T15:04:33Z</time>
      </trkpt>
      <trkpt lat="40.752400" lon="-4.489667">
        <ele>2459.0</ele>
        <time>2014-06-30T15:04:34Z</time>
      </trkpt>
      <trkpt lat="40.752500" lon="-4.489550">
        <ele>2454.0</ele>
        <time>2014-06-30T15:04:35Z</time>
      </trkpt>
      <trkpt lat="40.752617" lon="-4.489433">
        <ele>2449.0</ele>
        <time>2014-06-30T15:04:36Z</time>
      </trkpt>
      <trkpt lat="40.752750" lon="-4.489300">
        <ele>2444.0</ele>
        <time>2014-06-30T15:04:37Z</time>
      </trkpt>
      <trkpt lat="40.752867" lon="-4.489167">
        <ele>2440.0</ele>
        <time>2014-06-30T15:04:38Z</time>
      </trkpt>
      <trkpt lat="40.752983" lon="-4.489033">
        <ele>2437.0</ele>
        <time>2014-06-30T15:04:39Z</time>
      </trkpt>
      <trkpt lat="40.753100" lon="-4.488917">
        <ele>2434.0</ele>
        <time>2014-06-30T15:04:40Z</time>
      </trkpt>
      <trkpt lat="40.753217" lon="-4.488800">
        <ele>2431.0</ele>
        <time>2014-06-30T15:04:41Z</time>
      </trkpt>
      <trkpt lat="40.753333" lon="-4.488683">
        <ele>2427.0</ele>
        <time>2014-06-30T15:04:42Z</time>
      </trkpt>
      <trkpt lat="40.753433" lon="-4.488550">
        <ele>2425.0</ele>
        <time>2014-06-30T15:04:43Z</time>
      </trkpt>
      <trkpt lat="40.753567" lon="-4.488433">
        <ele>2422.0</ele>
        <time>2014-06-30T15:04:44Z</time>
      </trkpt>
      <trkpt lat="40.753683" lon="-4.488317">
        <ele>2419.0</ele>
        <time>2014-06-30T15:04:45Z</time>
      </trkpt>
      <trkpt lat="40.753817" lon="-4.488200">
        <ele>2416.0</ele>
        <time>2014-06-30T15:04:46Z</time>
      </trkpt>
      <trkpt lat="40.753933" lon="-4.488067">
        <ele>2414.0</ele>
        <time>2014-06-30T15:04:47Z</time>
      </trkpt>
      <trkpt lat="40.754050" lon="-4.487933">
        <ele>2412.0</ele>
        <time>2014-06-30T15:04:48Z</time>
      </trkpt>
      <trkpt lat="40.754150" lon="-4.487800">
        <ele>2411.0</ele>
        <time>2014-06-30T15:04:49Z</time>
      </trkpt>
      <trkpt lat="40.754250" lon="-4.487683">
        <ele>2409.0</ele>
        <time>2014-06-30T15:04:50Z</time>
      </trkpt>
      <trkpt lat="40.754367" lon="-4.487567">
        <ele>2407.0</ele>
        <time>2014-06-30T15:04:51Z</time>
      </trkpt>
      <trkpt lat="40.754483" lon="-4.487467">
        <ele>2404.0</ele>
        <time>2014-06-30T15:04:52Z</time>
      </trkpt>
      <trkpt lat="40.754617" lon="-4.487350">
        <ele>2401.0</ele>
        <time>2014-06-30T15:04:53Z</time>
      </trkpt>
      <trkpt lat="40.754733" lon="-4.487217">
        <ele>2398.0</ele>
        <time>2014-06-30T15:04:54Z</time>
      </trkpt>
      <trkpt lat="40.754867" lon="-4.487083">
        <ele>2395.0</ele>
        <time>2014-06-30T15:04:55Z</time>
      </trkpt>
      <trkpt lat="40.754967" lon="-4.486983">
        <ele>2393.0</ele>
        <time>2014-06-30T15:04:56Z</time>
      </trkpt>
      <trkpt lat="40.755083" lon="-4.486883">
        <ele>2391.0</ele>
        <time>2014-06-30T15:04:57Z</time>
      </trkpt>
      <trkpt lat="40.755200" lon="-4.486817">
        <ele>2388.0</ele>
        <time>2014-06-30T15:04:58Z</time>
      </trkpt>
      <trkpt lat="40.755317" lon="-4.486750">
        <ele>2385.0</ele>
        <time>2014-06-30T15:04:59Z</time>
      </trkpt>
      <trkpt lat="40.755450" lon="-4.486667">
        <ele>2381.0</ele>
        <time>2014-06-30T15:05:00Z</time>
      </trkpt>
      <trkpt lat="40.755600" lon="-4.486600">
        <ele>2377.0</ele>
        <time>2014-06-30T15:05:01Z</time>
      </trkpt>
      <trkpt lat="40.755733" lon="-4.486500">
        <ele>2374.0</ele>
        <time>2014-06-30T15:05:02Z</time>
      </trkpt>
      <trkpt lat="40.755883" lon="-4.486400">
        <ele>2371.0</ele>
        <time>2014-06-30T15:05:03Z</time>
      </trkpt>
      <trkpt lat="40.756000" lon="-4.486300">
        <ele>2368.0</ele>
        <time>2014-06-30T15:05:04Z</time>
      </trkpt>
      <trkpt lat="40.756133" lon="-4.486200">
        <ele>2364.0</ele>
        <time>2014-06-30T15:05:05Z</time>
      </trkpt>
      <trkpt lat="40.756267" lon="-4.486100">
        <ele>2360.0</ele>
        <time>2014-06-30T15:05:06Z</time>
      </trkpt>
      <trkpt lat="40.756417" lon="-4.486000">
        <ele>2357.0</ele>
        <time>2014-06-30T15:05:07Z</time>
      </trkpt>
      <trkpt lat="40.756550" lon="-4.485883">
        <ele>2353.0</ele>
        <time>2014-06-30T15:05:08Z</time>
      </trkpt>
      <trkpt lat="40.756683" lon="-4.485750">
        <ele>2351.0</ele>
        <time>2014-06-30T15:05:09Z</time>
      </trkpt>
      <trkpt lat="40.756817" lon="-4.485600">
        <ele>2348.0</ele>
        <time>2014-06-30T15:05:10Z</time>
      </trkpt>
      <trkpt lat="40.756933" lon="-4.485467">
        <ele>2345.0</ele>
        <time>2014-06-30T15:05:11Z</time>
      </trkpt>
      <trkpt lat="40.757050" lon="-4.485317">
        <ele>2343.0</ele>
        <time>2014-06-30T15:05:12Z</time>
      </trkpt>
      <trkpt lat="40.757167" lon="-4.485167">
        <ele>2342.0</ele>
        <time>2014-06-30T15:05:13Z</time>
      </trkpt>
      <trkpt lat="40.757267" lon="-4.485017">
        <ele>2340.0</ele>
        <time>2014-06-30T15:05:14Z</time>
      </trkpt>
      <trkpt lat="40.757367" lon="-4.484867">
        <ele>2338.0</ele>
        <time>2014-06-30T15:05:15Z</time>
      </trkpt>
      <trkpt lat="40.757483" lon="-4.484750">
        <ele>2338.0</ele>
        <time>2014-06-30T15:05:16Z</time>
      </trkpt>
      <trkpt lat="40.757567" lon="-4.484633">
        <ele>2338.0</ele>
        <time>2014-06-30T15:05:17Z</time>
      </trkpt>
      <trkpt lat="40.757667" lon="-4.484517">
        <ele>2338.0</ele>
        <time>2014-06-30T15:05:18Z</time>
      </trkpt>
      <trkpt lat="40.757750" lon="-4.484400">
        <ele>2338.0</ele>
        <time>2014-06-30T15:05:19Z</time>
      </trkpt>
      <trkpt lat="40.757833" lon="-4.484300">
        <ele>2337.0</ele>
        <time>2014-06-30T15:05:20Z</time>
      </trkpt>
      <trkpt lat="40.757933" lon="-4.484200">
        <ele>2336.0</ele>
        <time>2014-06-30T15:05:21Z</time>
      </trkpt>
      <trkpt lat="40.758033" lon="-4.484100">
        <ele>2334.0</ele>
        <time>2014-06-30T15:05:22Z</time>
      </trkpt>
      <trkpt lat="40.758150" lon="-4.484017">
        <ele>2332.0</ele>
        <time>2014-06-30T15:05:23Z</time>
      </trkpt>
      <trkpt lat="40.758267" lon="-4.483917">
        <ele>2330.0</ele>
        <time>2014-06-30T15:05:24Z</time>
      </trkpt>
      <trkpt lat="40.758383" lon="-4.483833">
        <ele>2328.0</ele>
        <time>2014-06-30T15:05:25Z</time>
      </trkpt>
      <trkpt lat="40.758483" lon="-4.483750">
        <ele>2326.0</ele>
        <time>2014-06-30T15:05:26Z</time>
      </trkpt>
      <trkpt lat="40.758583" lon="-4.483683">
        <ele>2325.0</ele>
        <time>2014-06-30T15:05:27Z</time>
      </trkpt>
      <trkpt lat="40.758683" lon="-4.483617">
        <ele>2322.0</ele>
        <time>2014-06-30T15:05:28Z</time>
      </trkpt>
      <trkpt lat="40.758800" lon="-4.483533">
        <ele>2319.0</ele>
        <time>2014-06-30T15:05:29Z</time>
      </trkpt>
      <trkpt lat="40.758900" lon="-4.483433">
        <ele>2316.0</ele>
        <time>2014-06-30T15:05:30Z</time>
      </trkpt>
      <trkpt lat="40.759017" lon="-4.483350">
        <ele>2314.0</ele>
        <time>2014-06-30T15:05:31Z</time>
      </trkpt>
      <trkpt lat="40.759133" lon="-4.483250">
        <ele>2312.0</ele>
        <time>2014-06-30T15:05:32Z</time>
      </trkpt>
      <trkpt lat="40.759250" lon="-4.483167">
        <ele>2309.0</ele>
        <time>2014-06-30T15:05:33Z</time>
      </trkpt>
      <trkpt lat="40.759350" lon="-4.483083">
        <ele>2306.0</ele>
        <time>2014-06-30T15:05:34Z</time>
      </trkpt>
      <trkpt lat="40.759467" lon="-4.483000">
        <ele>2302.0</ele>
        <time>2014-06-30T15:05:35Z</time>
      </trkpt>
      <trkpt lat="40.759600" lon="-4.482900">
        <ele>2298.0</ele>
        <time>2014-06-30T15:05:36Z</time>
      </trkpt>
      <trkpt lat="40.759733" lon="-4.482783">
        <ele>2293.0</ele>
        <time>2014-06-30T15:05:37Z</time>
      </trkpt>
      <trkpt lat="40.759867" lon="-4.482667">
        <ele>2290.0</ele>
        <time>2014-06-30T15:05:38Z</time>
      </trkpt>
      <trkpt lat="40.759967" lon="-4.482550">
        <ele>2287.0</ele>
        <time>2014-06-30T15:05:39Z</time>
      </trkpt>
      <trkpt lat="40.760083" lon="-4.482417">
        <ele>2284.0</ele>
        <time>2014-06-30T15:05:40Z</time>
      </trkpt>
      <trkpt lat="40.760183" lon="-4.482300">
        <ele>2281.0</ele>
        <time>2014-06-30T15:05:41Z</time>
      </trkpt>
      <trkpt lat="40.760283" lon="-4.482183">
        <ele>2278.0</ele>
        <time>2014-06-30T15:05:42Z</time>
      </trkpt>
      <trkpt lat="40.760400" lon="-4.482033">
        <ele>2274.0</ele>
        <time>2014-06-30T15:05:43Z</time>
      </trkpt>
      <trkpt lat="40.760517" lon="-4.481883">
        <ele>2271.0</ele>
        <time>2014-06-30T15:05:44Z</time>
      </trkpt>
      <trkpt lat="40.760633" lon="-4.481733">
        <ele>2268.0</ele>
        <time>2014-06-30T15:05:45Z</time>
      </trkpt>
      <trkpt lat="40.760750" lon="-4.481617">
        <ele>2265.0</ele>
        <time>2014-06-30T15:05:46Z</time>
      </trkpt>
      <trkpt lat="40.760850" lon="-4.481500">
        <ele>2262.0</ele>
        <time>2014-06-30T15:05:47Z</time>
      </trkpt>
      <trkpt lat="40.760950" lon="-4.481400">
        <ele>2260.0</ele>
        <time>2014-06-30T15:05:48Z</time>
      </trkpt>
      <trkpt lat="40.761050" lon="-4.481267">
        <ele>2257.0</ele>
        <time>2014-06-30T15:05:49Z</time>
      </trkpt>
      <trkpt lat="40.761133" lon="-4.481133">
        <ele>2253.0</ele>
        <time>2014-06-30T15:05:50Z</time>
      </trkpt>
      <trkpt lat="40.761250" lon="-4.481000">
        <ele>2250.0</ele>
        <time>2014-06-30T15:05:51Z</time>
      </trkpt>
      <trkpt lat="40.761350" lon="-4.480867">
        <ele>2247.0</ele>
        <time>2014-06-30T15:05:52Z</time>
      </trkpt>
      <trkpt lat="40.761433" lon="-4.480733">
        <ele>2245.0</ele>
        <time>2014-06-30T15:05:53Z</time>
      </trkpt>
      <trkpt lat="40.761500" lon="-4.480600">
        <ele>2242.0</ele>
        <time>2014-06-30T15:05:54Z</time>
      </trkpt>
      <trkpt lat="40.761583" lon="-4.480467">
        <ele>2239.0</ele>
        <time>2014-06-30T15:05:55Z</time>
      </trkpt>
      <trkpt lat="40.761650" lon="-4.480317">
        <ele>2235.0</ele>
        <time>2014-06-30T15:05:56Z</time>
      </trkpt>
      <trkpt lat="40.761733" lon="-4.480183">
        <ele>2231.0</ele>
        <time>2014-06-30T15:05:57Z</time>
      </trkpt>
      <trkpt lat="40.761833" lon="-4.480033">
        <ele>2229.0</ele>
        <time>2014-06-30T15:05:58Z</time>
      </trkpt>
      <trkpt lat="40.761950" lon="-4.479900">
        <ele>2226.0</ele>
        <time>2014-06-30T15:05:59Z</time>
      </trkpt>
      <trkpt lat="40.762050" lon="-4.479767">
        <ele>2223.0</ele>
        <time>2014-06-30T15:06:00Z</time>
      </trkpt>
      <trkpt lat="40.762167" lon="-4.479650">
        <ele>2220.0</ele>
        <time>2014-06-30T15:06:01Z</time>
      </trkpt>
      <trkpt lat="40.762267" lon="-4.479533">
        <ele>2217.0</ele>
        <time>2014-06-30T15:06:02Z</time>
      </trkpt>
      <trkpt lat="40.762367" lon="-4.479417">
        <ele>2213.0</ele>
        <time>2014-06-30T15:06:03Z</time>
      </trkpt>
      <trkpt lat="40.762450" lon="-4.479317">
        <ele>2210.0</ele>
        <time>2014-06-30T15:06:04Z</time>
      </trkpt>
      <trkpt lat="40.762550" lon="-4.479217">
        <ele>2207.0</ele>
        <time>2014-06-30T15:06:05Z</time>
      </trkpt>
      <trkpt lat="40.762650" lon="-4.479100">
        <ele>2203.0</ele>
        <time>2014-06-30T15:06:06Z</time>
      </trkpt>
      <trkpt lat="40.762750" lon="-4.478967">
        <ele>2199.0</ele>
        <time>2014-06-30T15:06:07Z</time>
      </trkpt>
      <trkpt lat="40.762850" lon="-4.478817">
        <ele>2195.0</ele>
        <time>2014-06-30T15:06:08Z</time>
      </trkpt>
      <trkpt lat="40.762967" lon="-4.478683">
        <ele>2191.0</ele>
        <time>2014-06-30T15:06:09Z</time>
      </trkpt>
      <trkpt lat="40.763083" lon="-4.478567">
        <ele>2189.0</ele>
        <time>2014-06-30T15:06:10Z</time>
      </trkpt>
      <trkpt lat="40.763167" lon="-4.478433">
        <ele>2186.0</ele>
        <time>2014-06-30T15:06:11Z</time>
      </trkpt>
      <trkpt lat="40.763250" lon="-4.478283">
        <ele>2183.0</ele>
        <time>2014-06-30T15:06:12Z</time>
      </trkpt>
      <trkpt lat="40.763333" lon="-4.478133">
        <ele>2180.0</ele>
        <time>2014-06-30T15:06:13Z</time>
      </trkpt>
      <trkpt lat="40.763433" lon="-4.478000">
        <ele>2178.0</ele>
        <time>2014-06-30T15:06:14Z</time>
      </trkpt>
      <trkpt lat="40.763533" lon="-4.477867">
        <ele>2175.0</ele>
        <time>2014-06-30T15:06:15Z</time>
      </trkpt>
      <trkpt lat="40.763633" lon="-4.477750">
        <ele>2173.0</ele>
        <time>2014-06-30T15:06:16Z</time>
      </trkpt>
      <trkpt lat="40.763733" lon="-4.477600">
        <ele>2170.0</ele>
        <time>2014-06-30T15:06:17Z</time>
      </trkpt>
      <trkpt lat="40.763817" lon="-4.477450">
        <ele>2168.0</ele>
        <time>2014-06-30T15:06:18Z</time>
      </trkpt>
      <trkpt lat="40.763883" lon="-4.477300">
        <ele>2165.0</ele>
        <time>2014-06-30T15:06:19Z</time>
      </trkpt>
      <trkpt lat="40.763967" lon="-4.477150">
        <ele>2162.0</ele>
        <time>2014-06-30T15:06:20Z</time>
      </trkpt>
      <trkpt lat="40.764050" lon="-4.477000">
        <ele>2158.0</ele>
        <time>2014-06-30T15:06:21Z</time>
      </trkpt>
      <trkpt lat="40.764150" lon="-4.476833">
        <ele>2154.0</ele>
        <time>2014-06-30T15:06:22Z</time>
      </trkpt>
      <trkpt lat="40.764233" lon="-4.476667">
        <ele>2150.0</ele>
        <time>2014-06-30T15:06:23Z</time>
      </trkpt>
      <trkpt lat="40.764317" lon="-4.476483">
        <ele>2146.0</ele>
        <time>2014-06-30T15:06:24Z</time>
      </trkpt>
      <trkpt lat="40.764400" lon="-4.476317">
        <ele>2144.0</ele>
        <time>2014-06-30T15:06:25Z</time>
      </trkpt>
      <trkpt lat="40.764483" lon="-4.476183">
        <ele>2141.0</ele>
        <time>2014-06-30T15:06:26Z</time>
      </trkpt>
      <trkpt lat="40.764567" lon="-4.476033">
        <ele>2137.0</ele>
        <time>2014-06-30T15:06:27Z</time>
      </trkpt>
      <trkpt lat="40.764667" lon="-4.475883">
        <ele>2132.0</ele>
        <time>2014-06-30T15:06:28Z</time>
      </trkpt>
      <trkpt lat="40.764750" lon="-4.475700">
        <ele>2128.0</ele>
        <time>2014-06-30T15:06:29Z</time>
      </trkpt>
      <trkpt lat="40.764817" lon="-4.475500">
        <ele>2123.0</ele>
        <time>2014-06-30T15:06:30Z</time>
      </trkpt>
      <trkpt lat="40.764900" lon="-4.475317">
        <ele>2120.0</ele>
        <time>2014-06-30T15:06:31Z</time>
      </trkpt>
      <trkpt lat="40.764983" lon="-4.475167">
        <ele>2119.0</ele>
        <time>2014-06-30T15:06:32Z</time>
      </trkpt>
      <trkpt lat="40.765050" lon="-4.475050">
        <ele>2119.0</ele>
        <time>2014-06-30T15:06:33Z</time>
      </trkpt>
      <trkpt lat="40.765100" lon="-4.474933">
        <ele>2120.0</ele>
        <time>2014-06-30T15:06:34Z</time>
      </trkpt>
      <trkpt lat="40.765150" lon="-4.474800">
        <ele>2118.0</ele>
        <time>2014-06-30T15:06:35Z</time>
      </trkpt>
      <trkpt lat="40.765183" lon="-4.474667">
        <ele>2117.0</ele>
        <time>2014-06-30T15:06:36Z</time>
      </trkpt>
      <trkpt lat="40.765250" lon="-4.474517">
        <ele>2114.0</ele>
        <time>2014-06-30T15:06:37Z</time>
      </trkpt>
      <trkpt lat="40.765300" lon="-4.474350">
        <ele>2112.0</ele>
        <time>2014-06-30T15:06:38Z</time>
      </trkpt>
      <trkpt lat="40.765367" lon="-4.474167">
        <ele>2110.0</ele>
        <time>2014-06-30T15:06:39Z</time>
      </trkpt>
      <trkpt lat="40.765433" lon="-4.474000">
        <ele>2108.0</ele>
        <time>2014-06-30T15:06:40Z</time>
      </trkpt>
      <trkpt lat="40.765517" lon="-4.473817">
        <ele>2105.0</ele>
        <time>2014-06-30T15:06:41Z</time>
      </trkpt>
      <trkpt lat="40.765600" lon="-4.473617">
        <ele>2103.0</ele>
        <time>2014-06-30T15:06:42Z</time>
      </trkpt>
      <trkpt lat="40.765700" lon="-4.473417">
        <ele>2101.0</ele>
        <time>2014-06-30T15:06:43Z</time>
      </trkpt>
      <trkpt lat="40.765767" lon="-4.473233">
        <ele>2102.0</ele>
        <time>2014-06-30T15:06:44Z</time>
      </trkpt>
      <trkpt lat="40.765833" lon="-4.473083">
        <ele>2103.0</ele>
        <time>2014-06-30T15:06:45Z</time>
      </trkpt>
      <trkpt lat="40.765900" lon="-4.472933">
        <ele>2103.0</ele>
        <time>2014-06-30T15:06:46Z</time>
      </trkpt>
      <trkpt lat="40.765967" lon="-4.472783">
        <ele>2103.0</ele>
        <time>2014-06-30T15:06:47Z</time>
      </trkpt>
      <trkpt lat="40.766017" lon="-4.472633">
        <ele>2102.0</ele>
        <time>2014-06-30T15:06:48Z</time>
      </trkpt>
      <trkpt lat="40.766083" lon="-4.472483">
        <ele>2102.0</ele>
        <time>2014-06-30T15:06:49Z</time>
      </trkpt>
      <trkpt lat="40.766133" lon="-4.472333">
        <ele>2101.0</ele>
        <time>2014-06-30T15:06:50Z</time>
      </trkpt>
      <trkpt lat="40.766200" lon="-4.472200">
        <ele>2101.0</ele>
        <time>2014-06-30T15:06:51Z</time>
      </trkpt>
      <trkpt lat="40.766267" lon="-4.472050">
        <ele>2100.0</ele>
        <time>2014-06-30T15:06:52Z</time>
      </trkpt>
      <trkpt lat="40.766350" lon="-4.471900">
        <ele>2099.0</ele>
        <time>2014-06-30T15:06:53Z</time>
      </trkpt>
      <trkpt lat="40.766417" lon="-4.471717">
        <ele>2099.0</ele>
        <time>2014-06-30T15:06:54Z</time>
      </trkpt>
      <trkpt lat="40.766483" lon="-4.471550">
        <ele>2098.0</ele>
        <time>2014-06-30T15:06:55Z</time>
      </trkpt>
      <trkpt lat="40.766550" lon="-4.471367">
        <ele>2099.0</ele>
        <time>2014-06-30T15:06:56Z</time>
      </trkpt>
      <trkpt lat="40.766617" lon="-4.471200">
        <ele>2100.0</ele>
        <time>2014-06-30T15:06:57Z</time>
      </trkpt>
      <trkpt lat="40.766667" lon="-4.471033">
        <ele>2101.0</ele>
        <time>2014-06-30T15:06:58Z</time>
      </trkpt>
      <trkpt lat="40.766700" lon="-4.470900">
        <ele>2102.0</ele>
        <time>2014-06-30T15:06:59Z</time>
      </trkpt>
      <trkpt lat="40.766733" lon="-4.470750">
        <ele>2103.0</ele>
        <time>2014-06-30T15:07:00Z</time>
      </trkpt>
      <trkpt lat="40.766767" lon="-4.470617">
        <ele>2105.0</ele>
        <time>2014-06-30T15:07:01Z</time>
      </trkpt>
      <trkpt lat="40.766817" lon="-4.470500">
        <ele>2106.0</ele>
        <time>2014-06-30T15:07:02Z</time>
      </trkpt>
      <trkpt lat="40.766867" lon="-4.470400">
        <ele>2106.0</ele>
        <time>2014-06-30T15:07:03Z</time>
      </trkpt>
      <trkpt lat="40.766917" lon="-4.470300">
        <ele>2105.0</ele>
        <time>2014-06-30T15:07:04Z</time>
      </trkpt>
      <trkpt lat="40.766983" lon="-4.470200">
        <ele>2105.0</ele>
        <time>2014-06-30T15:07:05Z</time>
      </trkpt>
      <trkpt lat="40.767033" lon="-4.470067">
        <ele>2105.0</ele>
        <time>2014-06-30T15:07:06Z</time>
      </trkpt>
      <trkpt lat="40.767067" lon="-4.469933">
        <ele>2105.0</ele>
        <time>2014-06-30T15:07:07Z</time>
      </trkpt>
      <trkpt lat="40.767117" lon="-4.469800">
        <ele>2104.0</ele>
        <time>2014-06-30T15:07:08Z</time>
      </trkpt>
      <trkpt lat="40.767167" lon="-4.469667">
        <ele>2102.0</ele>
        <time>2014-06-30T15:07:09Z</time>
      </trkpt>
      <trkpt lat="40.767233" lon="-4.469550">
        <ele>2101.0</ele>
        <time>2014-06-30T15:07:10Z</time>
      </trkpt>
      <trkpt lat="40.767300" lon="-4.469417">
        <ele>2100.0</ele>
        <time>2014-06-30T15:07:11Z</time>
      </trkpt>
      <trkpt lat="40.767367" lon="-4.469283">
        <ele>2099.0</ele>
        <time>2014-06-30T15:07:12Z</time>
      </trkpt>
      <trkpt lat="40.767433" lon="-4.469117">
        <ele>2098.0</ele>
        <time>2014-06-30T15:07:13Z</time>
      </trkpt>
      <trkpt lat="40.767483" lon="-4.468950">
        <ele>2096.0</ele>
        <time>2014-06-30T15:07:14Z</time>
      </trkpt>
      <trkpt lat="40.767550" lon="-4.468800">
        <ele>2095.0</ele>
        <time>2014-06-30T15:07:15Z</time>
      </trkpt>
      <trkpt lat="40.767600" lon="-4.468633">
        <ele>2093.0</ele>
        <time>2014-06-30T15:07:16Z</time>
      </trkpt>
      <trkpt lat="40.767650" lon="-4.468500">
        <ele>2092.0</ele>
        <time>2014-06-30T15:07:17Z</time>
      </trkpt>
      <trkpt lat="40.767683" lon="-4.468350">
        <ele>2090.0</ele>
        <time>2014-06-30T15:07:18Z</time>
      </trkpt>
      <trkpt lat="40.767733" lon="-4.468200">
        <ele>2088.0</ele>
        <time>2014-06-30T15:07:19Z</time>
      </trkpt>
      <trkpt lat="40.767783" lon="-4.468033">
        <ele>2087.0</ele>
        <time>2014-06-30T15:07:20Z</time>
      </trkpt>
      <trkpt lat="40.767833" lon="-4.467867">
        <ele>2084.0</ele>
        <time>2014-06-30T15:07:21Z</time>
      </trkpt>
      <trkpt lat="40.767900" lon="-4.467717">
        <ele>2083.0</ele>
        <time>2014-06-30T15:07:22Z</time>
      </trkpt>
      <trkpt lat="40.767967" lon="-4.467567">
        <ele>2080.0</ele>
        <time>2014-06-30T15:07:23Z</time>
      </trkpt>
      <trkpt lat="40.768017" lon="-4.467417">
        <ele>2078.0</ele>
        <time>2014-06-30T15:07:24Z</time>
      </trkpt>
      <trkpt lat="40.768083" lon="-4.467267">
        <ele>2075.0</ele>
        <time>2014-06-30T15:07:25Z</time>
      </trkpt>
      <trkpt lat="40.768150" lon="-4.467117">
        <ele>2073.0</ele>
        <time>2014-06-30T15:07:26Z</time>
      </trkpt>
      <trkpt lat="40.768200" lon="-4.466967">
        <ele>2071.0</ele>
        <time>2014-06-30T15:07:27Z</time>
      </trkpt>
      <trkpt lat="40.768267" lon="-4.466833">
        <ele>2071.0</ele>
        <time>2014-06-30T15:07:28Z</time>
      </trkpt>
      <trkpt lat="40.768300" lon="-4.466700">
        <ele>2070.0</ele>
        <time>2014-06-30T15:07:29Z</time>
      </trkpt>
      <trkpt lat="40.768350" lon="-4.466583">
        <ele>2070.0</ele>
        <time>2014-06-30T15:07:30Z</time>
      </trkpt>
      <trkpt lat="40.768383" lon="-4.466450">
        <ele>2068.0</ele>
        <time>2014-06-30T15:07:31Z</time>
      </trkpt>
      <trkpt lat="40.768433" lon="-4.466317">
        <ele>2066.0</ele>
        <time>2014-06-30T15:07:32Z</time>
      </trkpt>
      <trkpt lat="40.768483" lon="-4.466183">
        <ele>2065.0</ele>
        <time>2014-06-30T15:07:33Z</time>
      </trkpt>
      <trkpt lat="40.768550" lon="-4.466033">
        <ele>2062.0</ele>
        <time>2014-06-30T15:07:34Z</time>
      </trkpt>
      <trkpt lat="40.768633" lon="-4.465883">
        <ele>2060.0</ele>
        <time>2014-06-30T15:07:35Z</time>
      </trkpt>
      <trkpt lat="40.768700" lon="-4.465733">
        <ele>2059.0</ele>
        <time>2014-06-30T15:07:36Z</time>
      </trkpt>
      <trkpt lat="40.768750" lon="-4.465567">
        <ele>2057.0</ele>
        <time>2014-06-30T15:07:37Z</time>
      </trkpt>
      <trkpt lat="40.768800" lon="-4.465383">
        <ele>2055.0</ele>
        <time>2014-06-30T15:07:38Z</time>
      </trkpt>
      <trkpt lat="40.768850" lon="-4.465200">
        <ele>2053.0</ele>
        <time>2014-06-30T15:07:39Z</time>
      </trkpt>
      <trkpt lat="40.768883" lon="-4.465033">
        <ele>2051.0</ele>
        <time>2014-06-30T15:07:40Z</time>
      </trkpt>
      <trkpt lat="40.768933" lon="-4.464883">
        <ele>2049.0</ele>
        <time>2014-06-30T15:07:41Z</time>
      </trkpt>
      <trkpt lat="40.769000" lon="-4.464733">
        <ele>2046.0</ele>
        <time>2014-06-30T15:07:42Z</time>
      </trkpt>
      <trkpt lat="40.769050" lon="-4.464583">
        <ele>2043.0</ele>
        <time>2014-06-30T15:07:43Z</time>
      </trkpt>
      <trkpt lat="40.769100" lon="-4.464417">
        <ele>2041.0</ele>
        <time>2014-06-30T15:07:44Z</time>
      </trkpt>
      <trkpt lat="40.769167" lon="-4.464233">
        <ele>2037.0</ele>
        <time>2014-06-30T15:07:45Z</time>
      </trkpt>
      <trkpt lat="40.769233" lon="-4.464050">
        <ele>2034.0</ele>
        <time>2014-06-30T15:07:46Z</time>
      </trkpt>
      <trkpt lat="40.769300" lon="-4.463867">
        <ele>2031.0</ele>
        <time>2014-06-30T15:07:47Z</time>
      </trkpt>
      <trkpt lat="40.769367" lon="-4.463717">
        <ele>2030.0</ele>
        <time>2014-06-30T15:07:48Z</time>
      </trkpt>
      <trkpt lat="40.769417" lon="-4.463583">
        <ele>2029.0</ele>
        <time>2014-06-30T15:07:49Z</time>
      </trkpt>
      <trkpt lat="40.769467" lon="-4.463467">
        <ele>2028.0</ele>
        <time>2014-06-30T15:07:50Z</time>
      </trkpt>
      <trkpt lat="40.769517" lon="-4.463350">
        <ele>2026.0</ele>
        <time>2014-06-30T15:07:51Z</time>
      </trkpt>
      <trkpt lat="40.769567" lon="-4.463233">
        <ele>2024.0</ele>
        <time>2014-06-30T15:07:52Z</time>
      </trkpt>
      <trkpt lat="40.769633" lon="-4.463083">
        <ele>2022.0</ele>
        <time>2014-06-30T15:07:53Z</time>
      </trkpt>
      <trkpt lat="40.769700" lon="-4.462900">
        <ele>2019.0</ele>
        <time>2014-06-30T15:07:54Z</time>
      </trkpt>
      <trkpt lat="40.769750" lon="-4.462717">
        <ele>2018.0</ele>
        <time>2014-06-30T15:07:55Z</time>
      </trkpt>
      <trkpt lat="40.769783" lon="-4.462533">
        <ele>2016.0</ele>
        <time>2014-06-30T15:07:56Z</time>
      </trkpt>
      <trkpt lat="40.769817" lon="-4.462350">
        <ele>2014.0</ele>
        <time>2014-06-30T15:07:57Z</time>
      </trkpt>
      <trkpt lat="40.769850" lon="-4.462200">
        <ele>2011.0</ele>
        <time>2014-06-30T15:07:58Z</time>
      </trkpt>
      <trkpt lat="40.769917" lon="-4.462033">
        <ele>2008.0</ele>
        <time>2014-06-30T15:07:59Z</time>
      </trkpt>
      <trkpt lat="40.769967" lon="-4.461850">
        <ele>2005.0</ele>
        <time>2014-06-30T15:08:00Z</time>
      </trkpt>
      <trkpt lat="40.770033" lon="-4.461683">
        <ele>2003.0</ele>
        <time>2014-06-30T15:08:01Z</time>
      </trkpt>
      <trkpt lat="40.770083" lon="-4.461517">
        <ele>2002.0</ele>
        <time>2014-06-30T15:08:02Z</time>
      </trkpt>
      <trkpt lat="40.770133" lon="-4.461367">
        <ele>2001.0</ele>
        <time>2014-06-30T15:08:03Z</time>
      </trkpt>
      <trkpt lat="40.770183" lon="-4.461217">
        <ele>2000.0</ele>
        <time>2014-06-30T15:08:04Z</time>
      </trkpt>
      <trkpt lat="40.770233" lon="-4.461083">
        <ele>1998.0</ele>
        <time>2014-06-30T15:08:05Z</time>
      </trkpt>
      <trkpt lat="40.770283" lon="-4.460917">
        <ele>1996.0</ele>
        <time>2014-06-30T15:08:06Z</time>
      </trkpt>
      <trkpt lat="40.770350" lon="-4.460767">
        <ele>1993.0</ele>
        <time>2014-06-30T15:08:07Z</time>
      </trkpt>
      <trkpt lat="40.770417" lon="-4.460633">
        <ele>1991.0</ele>
        <time>2014-06-30T15:08:08Z</time>
      </trkpt>
      <trkpt lat="40.770483" lon="-4.460500">
        <ele>1988.0</ele>
        <time>2014-06-30T15:08:09Z</time>
      </trkpt>
      <trkpt lat="40.770550" lon="-4.460383">
        <ele>1985.0</ele>
        <time>2014-06-30T15:08:10Z</time>
      </trkpt>
      <trkpt lat="40.770617" lon="-4.460250">
        <ele>1983.0</ele>
        <time>2014-06-30T15:08:11Z</time>
      </trkpt>
      <trkpt lat="40.770667" lon="-4.460100">
        <ele>1980.0</ele>
        <time>2014-06-30T15:08:12Z</time>
      </trkpt>
      <trkpt lat="40.770733" lon="-4.459967">
        <ele>1977.0</ele>
        <time>2014-06-30T15:08:13Z</time>
      </trkpt>
      <trkpt lat="40.770817" lon="-4.459833">
        <ele>1975.0</ele>
        <time>2014-06-30T15:08:14Z</time>
      </trkpt>
      <trkpt lat="40.770883" lon="-4.459700">
        <ele>1973.0</ele>
        <time>2014-06-30T15:08:15Z</time>
      </trkpt>
      <trkpt lat="40.770933" lon="-4.459567">
        <ele>1970.0</ele>
        <time>2014-06-30T15:08:16Z</time>
      </trkpt>
      <trkpt lat="40.771000" lon="-4.459433">
        <ele>1967.0</ele>
        <time>2014-06-30T15:08:17Z</time>
      </trkpt>
      <trkpt lat="40.771067" lon="-4.459267">
        <ele>1964.0</ele>
        <time>2014-06-30T15:08:18Z</time>
      </trkpt>
      <trkpt lat="40.771150" lon="-4.459100">
        <ele>1961.0</ele>
        <time>2014-06-30T15:08:19Z</time>
      </trkpt>
      <trkpt lat="40.771217" lon="-4.458933">
        <ele>1958.0</ele>
        <time>2014-06-30T15:08:20Z</time>
      </trkpt>
      <trkpt lat="40.771267" lon="-4.458783">
        <ele>1957.0</ele>
        <time>2014-06-30T15:08:21Z</time>
      </trkpt>
      <trkpt lat="40.771317" lon="-4.458617">
        <ele>1956.0</ele>
        <time>2014-06-30T15:08:22Z</time>
      </trkpt>
      <trkpt lat="40.771367" lon="-4.458467">
        <ele>1954.0</ele>
        <time>2014-06-30T15:08:23Z</time>
      </trkpt>
      <trkpt lat="40.771417" lon="-4.458317">
        <ele>1952.0</ele>
        <time>2014-06-30T15:08:24Z</time>
      </trkpt>
      <trkpt lat="40.771483" lon="-4.458183">
        <ele>1951.0</ele>
        <time>2014-06-30T15:08:25Z</time>
      </trkpt>
      <trkpt lat="40.771567" lon="-4.458067">
        <ele>1948.0</ele>
        <time>2014-06-30T15:08:26Z</time>
      </trkpt>
      <trkpt lat="40.771633" lon="-4.457967">
        <ele>1946.0</ele>
        <time>2014-06-30T15:08:27Z</time>
      </trkpt>
      <trkpt lat="40.771717" lon="-4.457850">
        <ele>1944.0</ele>
        <time>2014-06-30T15:08:28Z</time>
      </trkpt>
      <trkpt lat="40.771783" lon="-4.457717">
        <ele>1942.0</ele>
        <time>2014-06-30T15:08:29Z</time>
      </trkpt>
      <trkpt lat="40.771850" lon="-4.457600">
        <ele>1940.0</ele>
        <time>2014-06-30T15:08:30Z</time>
      </trkpt>
      <trkpt lat="40.771933" lon="-4.457500">
        <ele>1937.0</ele>
        <time>2014-06-30T15:08:31Z</time>
      </trkpt>
      <trkpt lat="40.772033" lon="-4.457400">
        <ele>1933.0</ele>
        <time>2014-06-30T15:08:32Z</time>
      </trkpt>
      <trkpt lat="40.772133" lon="-4.457300">
        <ele>1930.0</ele>
        <time>2014-06-30T15:08:33Z</time>
      </trkpt>
      <trkpt lat="40.772217" lon="-4.457167">
        <ele>1927.0</ele>
        <time>2014-06-30T15:08:34Z</time>
      </trkpt>
      <trkpt lat="40.772283" lon="-4.457017">
        <ele>1924.0</ele>
        <time>2014-06-30T15:08:35Z</time>
      </trkpt>
      <trkpt lat="40.772350" lon="-4.456850">
        <ele>1921.0</ele>
        <time>2014-06-30T15:08:36Z</time>
      </trkpt>
      <trkpt lat="40.772417" lon="-4.456717">
        <ele>1919.0</ele>
        <time>2014-06-30T15:08:37Z</time>
      </trkpt>
      <trkpt lat="40.772483" lon="-4.456567">
        <ele>1917.0</ele>
        <time>2014-06-30T15:08:38Z</time>
      </trkpt>
      <trkpt lat="40.772550" lon="-4.456433">
        <ele>1914.0</ele>
        <time>2014-06-30T15:08:39Z</time>
      </trkpt>
      <trkpt lat="40.772617" lon="-4.456283">
        <ele>1912.0</ele>
        <time>2014-06-30T15:08:40Z</time>
      </trkpt>
      <trkpt lat="40.772667" lon="-4.456117">
        <ele>1908.0</ele>
        <time>2014-06-30T15:08:41Z</time>
      </trkpt>
      <trkpt lat="40.772733" lon="-4.455967">
        <ele>1905.0</ele>
        <time>2014-06-30T15:08:42Z</time>
      </trkpt>
      <trkpt lat="40.772783" lon="-4.455817">
        <ele>1902.0</ele>
        <time>2014-06-30T15:08:43Z</time>
      </trkpt>
      <trkpt lat="40.772833" lon="-4.455667">
        <ele>1899.0</ele>
        <time>2014-06-30T15:08:44Z</time>
      </trkpt>
      <trkpt lat="40.772883" lon="-4.455517">
        <ele>1896.0</ele>
        <time>2014-06-30T15:08:45Z</time>
      </trkpt>
      <trkpt lat="40.772917" lon="-4.455367">
        <ele>1892.0</ele>
        <time>2014-06-30T15:08:46Z</time>
      </trkpt>
      <trkpt lat="40.772950" lon="-4.455217">
        <ele>1888.0</ele>
        <time>2014-06-30T15:08:47Z</time>
      </trkpt>
      <trkpt lat="40.773000" lon="-4.455050">
        <ele>1884.0</ele>
        <time>2014-06-30T15:08:48Z</time>
      </trkpt>
      <trkpt lat="40.773067" lon="-4.454883">
        <ele>1880.0</ele>
        <time>2014-06-30T15:08:49Z</time>
      </trkpt>
      <trkpt lat="40.773133" lon="-4.454717">
        <ele>1877.0</ele>
        <time>2014-06-30T15:08:50Z</time>
      </trkpt>
      <trkpt lat="40.773183" lon="-4.454533">
        <ele>1874.0</ele>
        <time>2014-06-30T15:08:51Z</time>
      </trkpt>
      <trkpt lat="40.773233" lon="-4.454350">
        <ele>1871.0</ele>
        <time>2014-06-30T15:08:52Z</time>
      </trkpt>
      <trkpt lat="40.773283" lon="-4.454167">
        <ele>1868.0</ele>
        <time>2014-06-30T15:08:53Z</time>
      </trkpt>
      <trkpt lat="40.773333" lon="-4.453983">
        <ele>1865.0</ele>
        <time>2014-06-30T15:08:54Z</time>
      </trkpt>
      <trkpt lat="40.773400" lon="-4.453783">
        <ele>1861.0</ele>
        <time>2014-06-30T15:08:55Z</time>
      </trkpt>
      <trkpt lat="40.773467" lon="-4.453600">
        <ele>1857.0</ele>
        <time>2014-06-30T15:08:56Z</time>
      </trkpt>
      <trkpt lat="40.773533" lon="-4.453417">
        <ele>1853.0</ele>
        <time>2014-06-30T15:08:57Z</time>
      </trkpt>
      <trkpt lat="40.773583" lon="-4.453233">
        <ele>1851.0</ele>
        <time>2014-06-30T15:08:58Z</time>
      </trkpt>
      <trkpt lat="40.773617" lon="-4.453067">
        <ele>1849.0</ele>
        <time>2014-06-30T15:08:59Z</time>
      </trkpt>
      <trkpt lat="40.773667" lon="-4.452883">
        <ele>1846.0</ele>
        <time>2014-06-30T15:09:00Z</time>
      </trkpt>
      <trkpt lat="40.773700" lon="-4.452700">
        <ele>1844.0</ele>
        <time>2014-06-30T15:09:01Z</time>
      </trkpt>
      <trkpt lat="40.773750" lon="-4.452533">
        <ele>1841.0</ele>
        <time>2014-06-30T15:09:02Z</time>
      </trkpt>
      <trkpt lat="40.773817" lon="-4.452350">
        <ele>1838.0</ele>
        <time>2014-06-30T15:09:03Z</time>
      </trkpt>
      <trkpt lat="40.773883" lon="-4.452167">
        <ele>1836.0</ele>
        <time>2014-06-30T15:09:04Z</time>
      </trkpt>
      <trkpt lat="40.773933" lon="-4.452000">
        <ele>1833.0</ele>
        <time>2014-06-30T15:09:05Z</time>
      </trkpt>
      <trkpt lat="40.774000" lon="-4.451833">
        <ele>1831.0</ele>
        <time>2014-06-30T15:09:06Z</time>
      </trkpt>
      <trkpt lat="40.774067" lon="-4.451683">
        <ele>1829.0</ele>
        <time>2014-06-30T15:09:07Z</time>
      </trkpt>
      <trkpt lat="40.774133" lon="-4.451533">
        <ele>1828.0</ele>
        <time>2014-06-30T15:09:08Z</time>
      </trkpt>
      <trkpt lat="40.774200" lon="-4.451383">
        <ele>1826.0</ele>
        <time>2014-06-30T15:09:09Z</time>
      </trkpt>
      <trkpt lat="40.774283" lon="-4.451233">
        <ele>1823.0</ele>
        <time>2014-06-30T15:09:10Z</time>
      </trkpt>
      <trkpt lat="40.774350" lon="-4.451067">
        <ele>1822.0</ele>
        <time>2014-06-30T15:09:11Z</time>
      </trkpt>
      <trkpt lat="40.774417" lon="-4.450900">
        <ele>1821.0</ele>
        <time>2014-06-30T15:09:12Z</time>
      </trkpt>
      <trkpt lat="40.774483" lon="-4.450750">
        <ele>1820.0</ele>
        <time>2014-06-30T15:09:13Z</time>
      </trkpt>
      <trkpt lat="40.774550" lon="-4.450583">
        <ele>1820.0</ele>
        <time>2014-06-30T15:09:14Z</time>
      </trkpt>
      <trkpt lat="40.774617" lon="-4.450433">
        <ele>1819.0</ele>
        <time>2014-06-30T15:09:15Z</time>
      </trkpt>
      <trkpt lat="40.774683" lon="-4.450283">
        <ele>1818.0</ele>
        <time>2014-06-30T15:09:16Z</time>
      </trkpt>
      <trkpt lat="40.774750" lon="-4.450117">
        <ele>1818.0</ele>
        <time>2014-06-30T15:09:17Z</time>
      </trkpt>
      <trkpt lat="40.774817" lon="-4.449967">
        <ele>1817.0</ele>
        <time>2014-06-30T15:09:18Z</time>
      </trkpt>
      <trkpt lat="40.774867" lon="-4.449800">
        <ele>1815.0</ele>
        <time>2014-06-30T15:09:19Z</time>
      </trkpt>
      <trkpt lat="40.774933" lon="-4.449617">
        <ele>1814.0</ele>
        <time>2014-06-30T15:09:20Z</time>
      </trkpt>
      <trkpt lat="40.774983" lon="-4.449450">
        <ele>1812.0</ele>
        <time>2014-06-30T15:09:21Z</time>
      </trkpt>
      <trkpt lat="40.775050" lon="-4.449300">
        <ele>1811.0</ele>
        <time>2014-06-30T15:09:22Z</time>
      </trkpt>
      <trkpt lat="40.775100" lon="-4.449133">
        <ele>1810.0</ele>
        <time>2014-06-30T15:09:23Z</time>
      </trkpt>
      <trkpt lat="40.775167" lon="-4.448967">
        <ele>1807.0</ele>
        <time>2014-06-30T15:09:24Z</time>
      </trkpt>
      <trkpt lat="40.775250" lon="-4.448800">
        <ele>1805.0</ele>
        <time>2014-06-30T15:09:25Z</time>
      </trkpt>
      <trkpt lat="40.775317" lon="-4.448633">
        <ele>1805.0</ele>
        <time>2014-06-30T15:09:26Z</time>
      </trkpt>
      <trkpt lat="40.775367" lon="-4.448450">
        <ele>1805.0</ele>
        <time>2014-06-30T15:09:27Z</time>
      </trkpt>
      <trkpt lat="40.775400" lon="-4.448283">
        <ele>1805.0</ele>
        <time>2014-06-30T15:09:28Z</time>
      </trkpt>
      <trkpt lat="40.775433" lon="-4.448100">
        <ele>1805.0</ele>
        <time>2014-06-30T15:09:29Z</time>
      </trkpt>
      <trkpt lat="40.775483" lon="-4.447950">
        <ele>1804.0</ele>
        <time>2014-06-30T15:09:30Z</time>
      </trkpt>
      <trkpt lat="40.775550" lon="-4.447817">
        <ele>1804.0</ele>
        <time>2014-06-30T15:09:31Z</time>
      </trkpt>
      <trkpt lat="40.775600" lon="-4.447650">
        <ele>1803.0</ele>
        <time>2014-06-30T15:09:32Z</time>
      </trkpt>
      <trkpt lat="40.775667" lon="-4.447483">
        <ele>1803.0</ele>
        <time>2014-06-30T15:09:33Z</time>
      </trkpt>
      <trkpt lat="40.775717" lon="-4.447300">
        <ele>1803.0</ele>
        <time>2014-06-30T15:09:34Z</time>
      </trkpt>
      <trkpt lat="40.775783" lon="-4.447133">
        <ele>1803.0</ele>
        <time>2014-06-30T15:09:35Z</time>
      </trkpt>
      <trkpt lat="40.775833" lon="-4.446983">
        <ele>1803.0</ele>
        <time>2014-06-30T15:09:36Z</time>
      </trkpt>
      <trkpt lat="40.775867" lon="-4.446850">
        <ele>1803.0</ele>
        <time>2014-06-30T15:09:37Z</time>
      </trkpt>
      <trkpt lat="40.775900" lon="-4.446700">
        <ele>1804.0</ele>
        <time>2014-06-30T15:09:38Z</time>
      </trkpt>
      <trkpt lat="40.775917" lon="-4.446567">
        <ele>1806.0</ele>
        <time>2014-06-30T15:09:39Z</time>
      </trkpt>
      <trkpt lat="40.775933" lon="-4.446450">
        <ele>1807.0</ele>
        <time>2014-06-30T15:09:40Z</time>
      </trkpt>
      <trkpt lat="40.775950" lon="-4.446333">
        <ele>1809.0</ele>
        <time>2014-06-30T15:09:41Z</time>
      </trkpt>
      <trkpt lat="40.775967" lon="-4.446200">
        <ele>1810.0</ele>
        <time>2014-06-30T15:09:42Z</time>
      </trkpt>
      <trkpt lat="40.776017" lon="-4.446067">
        <ele>1810.0</ele>
        <time>2014-06-30T15:09:43Z</time>
      </trkpt>
      <trkpt lat="40.776050" lon="-4.445933">
        <ele>1812.0</ele>
        <time>2014-06-30T15:09:44Z</time>
      </trkpt>
      <trkpt lat="40.776083" lon="-4.445817">
        <ele>1813.0</ele>
        <time>2014-06-30T15:09:45Z</time>
      </trkpt>
      <trkpt lat="40.776117" lon="-4.445700">
        <ele>1814.0</ele>
        <time>2014-06-30T15:09:46Z</time>
      </trkpt>
      <trkpt lat="40.776150" lon="-4.445583">
        <ele>1815.0</ele>
        <time>2014-06-30T15:09:47Z</time>
      </trkpt>
      <trkpt lat="40.776183" lon="-4.445483">
        <ele>1816.0</ele>
        <time>2014-06-30T15:09:48Z</time>
      </trkpt>
      <trkpt lat="40.776200" lon="-4.445367">
        <ele>1817.0</ele>
        <time>2014-06-30T15:09:49Z</time>
      </trkpt>
      <trkpt lat="40.776217" lon="-4.445267">
        <ele>1813.0</ele>
        <time>2014-06-30T15:09:50Z</time>
      </trkpt>
      <trkpt lat="40.776250" lon="-4.445167">
        <ele>1814.0</ele>
        <time>2014-06-30T15:09:51Z</time>
      </trkpt>
      <trkpt lat="40.776283" lon="-4.445083">
        <ele>1814.0</ele>
        <time>2014-06-30T15:09:52Z</time>
      </trkpt>
      <trkpt lat="40.776333" lon="-4.445000">
        <ele>1814.0</ele>
        <time>2014-06-30T15:09:53Z</time>
      </trkpt>
      <trkpt lat="40.776367" lon="-4.444917">
        <ele>1814.0</ele>
        <time>2014-06-30T15:09:54Z</time>
      </trkpt>
      <trkpt lat="40.776417" lon="-4.444817">
        <ele>1814.0</ele>
        <time>2014-06-30T15:09:55Z</time>
      </trkpt>
      <trkpt lat="40.776467" lon="-4.444717">
        <ele>1814.0</ele>
        <time>2014-06-30T15:09:56Z</time>
      </trkpt>
      <trkpt lat="40.776517" lon="-4.444617">
        <ele>1814.0</ele>
        <time>2014-06-30T15:09:57Z</time>
      </trkpt>
      <trkpt lat="40.776567" lon="-4.444500">
        <ele>1814.0</ele>
        <time>2014-06-30T15:09:58Z</time>
      </trkpt>
      <trkpt lat="40.776617" lon="-4.444383">
        <ele>1814.0</ele>
        <time>2014-06-30T15:09:59Z</time>
      </trkpt>
      <trkpt lat="40.776667" lon="-4.444267">
        <ele>1813.0</ele>
        <time>2014-06-30T15:10:00Z</time>
      </trkpt>
      <trkpt lat="40.776717" lon="-4.444133">
        <ele>1813.0</ele>
        <time>2014-06-30T15:10:01Z</time>
      </trkpt>
      <trkpt lat="40.776767" lon="-4.444017">
        <ele>1813.0</ele>
        <time>2014-06-30T15:10:02Z</time>
      </trkpt>
      <trkpt lat="40.776817" lon="-4.443883">
        <ele>1812.0</ele>
        <time>2014-06-30T15:10:03Z</time>
      </trkpt>
      <trkpt lat="40.776850" lon="-4.443750">
        <ele>1811.0</ele>
        <time>2014-06-30T15:10:04Z</time>
      </trkpt>
      <trkpt lat="40.776900" lon="-4.443583">
        <ele>1810.0</ele>
        <time>2014-06-30T15:10:05Z</time>
      </trkpt>
      <trkpt lat="40.776967" lon="-4.443417">
        <ele>1809.0</ele>
        <time>2014-06-30T15:10:06Z</time>
      </trkpt>
      <trkpt lat="40.777017" lon="-4.443283">
        <ele>1807.0</ele>
        <time>2014-06-30T15:10:07Z</time>
      </trkpt>
      <trkpt lat="40.777067" lon="-4.443150">
        <ele>1806.0</ele>
        <time>2014-06-30T15:10:08Z</time>
      </trkpt>
      <trkpt lat="40.777117" lon="-4.443017">
        <ele>1805.0</ele>
        <time>2014-06-30T15:10:09Z</time>
      </trkpt>
      <trkpt lat="40.777167" lon="-4.442883">
        <ele>1803.0</ele>
        <time>2014-06-30T15:10:10Z</time>
      </trkpt>
      <trkpt lat="40.777233" lon="-4.442750">
        <ele>1802.0</ele>
        <time>2014-06-30T15:10:11Z</time>
      </trkpt>
      <trkpt lat="40.777300" lon="-4.442617">
        <ele>1800.0</ele>
        <time>2014-06-30T15:10:12Z</time>
      </trkpt>
      <trkpt lat="40.777367" lon="-4.442500">
        <ele>1799.0</ele>
        <time>2014-06-30T15:10:13Z</time>
      </trkpt>
      <trkpt lat="40.777450" lon="-4.442400">
        <ele>1799.0</ele>
        <time>2014-06-30T15:10:14Z</time>
      </trkpt>
      <trkpt lat="40.777483" lon="-4.442317">
        <ele>1802.0</ele>
        <time>2014-06-30T15:10:15Z</time>
      </trkpt>
      <trkpt lat="40.777500" lon="-4.442217">
        <ele>1802.0</ele>
        <time>2014-06-30T15:10:16Z</time>
      </trkpt>
      <trkpt lat="40.777533" lon="-4.442133">
        <ele>1802.0</ele>
        <time>2014-06-30T15:10:17Z</time>
      </trkpt>
      <trkpt lat="40.777583" lon="-4.442050">
        <ele>1803.0</ele>
        <time>2014-06-30T15:10:18Z</time>
      </trkpt>
      <trkpt lat="40.777633" lon="-4.441967">
        <ele>1802.0</ele>
        <time>2014-06-30T15:10:19Z</time>
      </trkpt>
      <trkpt lat="40.777700" lon="-4.441900">
        <ele>1802.0</ele>
        <time>2014-06-30T15:10:20Z</time>
      </trkpt>
      <trkpt lat="40.777767" lon="-4.441833">
        <ele>1802.0</ele>
        <time>2014-06-30T15:10:21Z</time>
      </trkpt>
      <trkpt lat="40.777817" lon="-4.441783">
        <ele>1803.0</ele>
        <time>2014-06-30T15:10:22Z</time>
      </trkpt>
      <trkpt lat="40.777867" lon="-4.441767">
        <ele>1803.0</ele>
        <time>2014-06-30T15:10:23Z</time>
      </trkpt>
      <trkpt lat="40.777900" lon="-4.441783">
        <ele>1804.0</ele>
        <time>2014-06-30T15:10:24Z</time>
      </trkpt>
      <trkpt lat="40.777933" lon="-4.441800">
        <ele>1804.0</ele>
        <time>2014-06-30T15:10:25Z</time>
      </trkpt>
      <trkpt lat="40.777967" lon="-4.441833">
        <ele>1804.0</ele>
        <time>2014-06-30T15:10:26Z</time>
      </trkpt>
      <trkpt lat="40.778000" lon="-4.441867">
        <ele>1805.0</ele>
        <time>2014-06-30T15:10:27Z</time>
      </trkpt>
      <trkpt lat="40.778017" lon="-4.441917">
        <ele>1805.0</ele>
        <time>2014-06-30T15:10:28Z</time>
      </trkpt>
      <trkpt lat="40.778017" lon="-4.441983">
        <ele>1805.0</ele>
        <time>2014-06-30T15:10:29Z</time>
      </trkpt>
      <trkpt lat="40.778000" lon="-4.442050">
        <ele>1806.0</ele>
        <time>2014-06-30T15:10:30Z</time>
      </trkpt>
      <trkpt lat="40.777983" lon="-4.442100">
        <ele>1806.0</ele>
        <time>2014-06-30T15:10:31Z</time>
      </trkpt>
      <trkpt lat="40.777933" lon="-4.442150">
        <ele>1806.0</ele>
        <time>2014-06-30T15:10:32Z</time>
      </trkpt>
      <trkpt lat="40.777900" lon="-4.442217">
        <ele>1805.0</ele>
        <time>2014-06-30T15:10:33Z</time>
      </trkpt>
      <trkpt lat="40.777867" lon="-4.442283">
        <ele>1805.0</ele>
        <time>2014-06-30T15:10:34Z</time>
      </trkpt>
      <trkpt lat="40.777833" lon="-4.442367">
        <ele>1805.0</ele>
        <time>2014-06-30T15:10:35Z</time>
      </trkpt>
      <trkpt lat="40.777800" lon="-4.442450">
        <ele>1805.0</ele>
        <time>2014-06-30T15:10:36Z</time>
      </trkpt>
      <trkpt lat="40.777767" lon="-4.442533">
        <ele>1805.0</ele>
        <time>2014-06-30T15:10:37Z</time>
      </trkpt>
      <trkpt lat="40.777733" lon="-4.442583">
        <ele>1804.0</ele>
        <time>2014-06-30T15:10:38Z</time>
      </trkpt>
      <trkpt lat="40.777683" lon="-4.442650">
        <ele>1804.0</ele>
        <time>2014-06-30T15:10:39Z</time>
      </trkpt>
      <trkpt lat="40.777650" lon="-4.442700">
        <ele>1804.0</ele>
        <time>2014-06-30T15:10:40Z</time>
      </trkpt>
      <trkpt lat="40.777617" lon="-4.442767">
        <ele>1803.0</ele>
        <time>2014-06-30T15:10:41Z</time>
      </trkpt>
      <trkpt lat="40.777583" lon="-4.442833">
        <ele>1803.0</ele>
        <time>2014-06-30T15:10:42Z</time>
      </trkpt>
      <trkpt lat="40.777550" lon="-4.442900">
        <ele>1803.0</ele>
        <time>2014-06-30T15:10:43Z</time>
      </trkpt>
      <trkpt lat="40.777517" lon="-4.442950">
        <ele>1803.0</ele>
        <time>2014-06-30T15:10:44Z</time>
      </trkpt>
      <trkpt lat="40.777467" lon="-4.442983">
        <ele>1804.0</ele>
        <time>2014-06-30T15:10:45Z</time>
      </trkpt>
      <trkpt lat="40.777433" lon="-4.443017">
        <ele>1805.0</ele>
        <time>2014-06-30T15:10:46Z</time>
      </trkpt>
      <trkpt lat="40.777400" lon="-4.443017">
        <ele>1807.0</ele>
        <time>2014-06-30T15:10:47Z</time>
      </trkpt>
      <trkpt lat="40.777367" lon="-4.443017">
        <ele>1806.0</ele>
        <time>2014-06-30T15:10:48Z</time>
      </trkpt>
      <trkpt lat="40.777333" lon="-4.443017">
        <ele>1806.0</ele>
        <time>2014-06-30T15:10:49Z</time>
      </trkpt>
      <trkpt lat="40.777300" lon="-4.443033">
        <ele>1807.0</ele>
        <time>2014-06-30T15:10:50Z</time>
      </trkpt>
      <trkpt lat="40.777250" lon="-4.443050">
        <ele>1807.0</ele>
        <time>2014-06-30T15:10:51Z</time>
      </trkpt>
      <trkpt lat="40.777200" lon="-4.443067">
        <ele>1809.0</ele>
        <time>2014-06-30T15:10:52Z</time>
      </trkpt>
      <trkpt lat="40.777150" lon="-4.443067">
        <ele>1811.0</ele>
        <time>2014-06-30T15:10:53Z</time>
      </trkpt>
      <trkpt lat="40.777117" lon="-4.443083">
        <ele>1812.0</ele>
        <time>2014-06-30T15:10:54Z</time>
      </trkpt>
      <trkpt lat="40.777083" lon="-4.443083">
        <ele>1811.0</ele>
        <time>2014-06-30T15:10:55Z</time>
      </trkpt>
      <trkpt lat="40.777033" lon="-4.443100">
        <ele>1812.0</ele>
        <time>2014-06-30T15:10:56Z</time>
      </trkpt>
      <trkpt lat="40.776983" lon="-4.443117">
        <ele>1813.0</ele>
        <time>2014-06-30T15:10:57Z</time>
      </trkpt>
      <trkpt lat="40.776933" lon="-4.443117">
        <ele>1814.0</ele>
        <time>2014-06-30T15:10:58Z</time>
      </trkpt>
      <trkpt lat="40.776867" lon="-4.443117">
        <ele>1814.0</ele>
        <time>2014-06-30T15:10:59Z</time>
      </trkpt>
      <trkpt lat="40.776783" lon="-4.443067">
        <ele>1816.0</ele>
        <time>2014-06-30T15:11:00Z</time>
      </trkpt>
      <trkpt lat="40.776700" lon="-4.443000">
        <ele>1817.0</ele>
        <time>2014-06-30T15:11:01Z</time>
      </trkpt>
      <trkpt lat="40.776633" lon="-4.442883">
        <ele>1818.0</ele>
        <time>2014-06-30T15:11:02Z</time>
      </trkpt>
      <trkpt lat="40.776583" lon="-4.442767">
        <ele>1819.0</ele>
        <time>2014-06-30T15:11:03Z</time>
      </trkpt>
      <trkpt lat="40.776533" lon="-4.442650">
        <ele>1821.0</ele>
        <time>2014-06-30T15:11:04Z</time>
      </trkpt>
      <trkpt lat="40.776483" lon="-4.442533">
        <ele>1822.0</ele>
        <time>2014-06-30T15:11:05Z</time>
      </trkpt>
      <trkpt lat="40.776433" lon="-4.442417">
        <ele>1823.0</ele>
        <time>2014-06-30T15:11:06Z</time>
      </trkpt>
      <trkpt lat="40.776400" lon="-4.442267">
        <ele>1824.0</ele>
        <time>2014-06-30T15:11:07Z</time>
      </trkpt>
      <trkpt lat="40.776400" lon="-4.442117">
        <ele>1825.0</ele>
        <time>2014-06-30T15:11:08Z</time>
      </trkpt>
      <trkpt lat="40.776400" lon="-4.441950">
        <ele>1826.0</ele>
        <time>2014-06-30T15:11:09Z</time>
      </trkpt>
      <trkpt lat="40.776433" lon="-4.441800">
        <ele>1827.0</ele>
        <time>2014-06-30T15:11:10Z</time>
      </trkpt>
      <trkpt lat="40.776483" lon="-4.441667">
        <ele>1829.0</ele>
        <time>2014-06-30T15:11:11Z</time>
      </trkpt>
      <trkpt lat="40.776517" lon="-4.441567">
        <ele>1831.0</ele>
        <time>2014-06-30T15:11:12Z</time>
      </trkpt>
      <trkpt lat="40.776567" lon="-4.441450">
        <ele>1833.0</ele>
        <time>2014-06-30T15:11:13Z</time>
      </trkpt>
      <trkpt lat="40.776633" lon="-4.441350">
        <ele>1833.0</ele>
        <time>2014-06-30T15:11:14Z</time>
      </trkpt>
      <trkpt lat="40.776700" lon="-4.441267">
        <ele>1833.0</ele>
        <time>2014-06-30T15:11:15Z</time>
      </trkpt>
      <trkpt lat="40.776767" lon="-4.441233">
        <ele>1834.0</ele>
        <time>2014-06-30T15:11:16Z</time>
      </trkpt>
      <trkpt lat="40.776833" lon="-4.441217">
        <ele>1835.0</ele>
        <time>2014-06-30T15:11:17Z</time>
      </trkpt>
      <trkpt lat="40.776883" lon="-4.441233">
        <ele>1836.0</ele>
        <time>2014-06-30T15:11:18Z</time>
      </trkpt>
      <trkpt lat="40.776917" lon="-4.441250">
        <ele>1837.0</ele>
        <time>2014-06-30T15:11:19Z</time>
      </trkpt>
      <trkpt lat="40.776950" lon="-4.441283">
        <ele>1839.0</ele>
        <time>2014-06-30T15:11:20Z</time>
      </trkpt>
      <trkpt lat="40.776983" lon="-4.441300">
        <ele>1841.0</ele>
        <time>2014-06-30T15:11:21Z</time>
      </trkpt>
      <trkpt lat="40.777000" lon="-4.441317">
        <ele>1842.0</ele>
        <time>2014-06-30T15:11:22Z</time>
      </trkpt>
      <trkpt lat="40.777000" lon="-4.441350">
        <ele>1842.0</ele>
        <time>2014-06-30T15:11:23Z</time>
      </trkpt>
      <trkpt lat="40.776983" lon="-4.441383">
        <ele>1841.0</ele>
        <time>2014-06-30T15:11:24Z</time>
      </trkpt>
      <trkpt lat="40.776950" lon="-4.441433">
        <ele>1841.0</ele>
        <time>2014-06-30T15:11:25Z</time>
      </trkpt>
      <trkpt lat="40.776917" lon="-4.441483">
        <ele>1842.0</ele>
        <time>2014-06-30T15:11:26Z</time>
      </trkpt>
      <trkpt lat="40.776900" lon="-4.441533">
        <ele>1842.0</ele>
        <time>2014-06-30T15:11:27Z</time>
      </trkpt>
      <trkpt lat="40.776867" lon="-4.441583">
        <ele>1843.0</ele>
        <time>2014-06-30T15:11:28Z</time>
      </trkpt>
      <trkpt lat="40.776817" lon="-4.441617">
        <ele>1844.0</ele>
        <time>2014-06-30T15:11:29Z</time>
      </trkpt>
      <trkpt lat="40.776767" lon="-4.441633">
        <ele>1845.0</ele>
        <time>2014-06-30T15:11:30Z</time>
      </trkpt>
      <trkpt lat="40.776700" lon="-4.441667">
        <ele>1846.0</ele>
        <time>2014-06-30T15:11:31Z</time>
      </trkpt>
      <trkpt lat="40.776633" lon="-4.441683">
        <ele>1844.0</ele>
        <time>2014-06-30T15:11:32Z</time>
      </trkpt>
      <trkpt lat="40.776583" lon="-4.441683">
        <ele>1846.0</ele>
        <time>2014-06-30T15:11:33Z</time>
      </trkpt>
      <trkpt lat="40.776533" lon="-4.441700">
        <ele>1845.0</ele>
        <time>2014-06-30T15:11:34Z</time>
      </trkpt>
      <trkpt lat="40.776483" lon="-4.441700">
        <ele>1846.0</ele>
        <time>2014-06-30T15:11:35Z</time>
      </trkpt>
      <trkpt lat="40.776433" lon="-4.441700">
        <ele>1847.0</ele>
        <time>2014-06-30T15:11:36Z</time>
      </trkpt>
      <trkpt lat="40.776367" lon="-4.441733">
        <ele>1847.0</ele>
        <time>2014-06-30T15:11:37Z</time>
      </trkpt>
      <trkpt lat="40.776283" lon="-4.441733">
        <ele>1848.0</ele>
        <time>2014-06-30T15:11:38Z</time>
      </trkpt>
      <trkpt lat="40.776200" lon="-4.441683">
        <ele>1849.0</ele>
        <time>2014-06-30T15:11:39Z</time>
      </trkpt>
      <trkpt lat="40.776133" lon="-4.441617">
        <ele>1850.0</ele>
        <time>2014-06-30T15:11:40Z</time>
      </trkpt>
      <trkpt lat="40.776050" lon="-4.441517">
        <ele>1851.0</ele>
        <time>2014-06-30T15:11:41Z</time>
      </trkpt>
      <trkpt lat="40.775967" lon="-4.441383">
        <ele>1852.0</ele>
        <time>2014-06-30T15:11:42Z</time>
      </trkpt>
      <trkpt lat="40.775900" lon="-4.441250">
        <ele>1853.0</ele>
        <time>2014-06-30T15:11:43Z</time>
      </trkpt>
      <trkpt lat="40.775833" lon="-4.441133">
        <ele>1854.0</ele>
        <time>2014-06-30T15:11:44Z</time>
      </trkpt>
      <trkpt lat="40.775800" lon="-4.441017">
        <ele>1855.0</ele>
        <time>2014-06-30T15:11:45Z</time>
      </trkpt>
      <trkpt lat="40.775767" lon="-4.440900">
        <ele>1856.0</ele>
        <time>2014-06-30T15:11:46Z</time>
      </trkpt>
      <trkpt lat="40.775750" lon="-4.440767">
        <ele>1858.0</ele>
        <time>2014-06-30T15:11:47Z</time>
      </trkpt>
      <trkpt lat="40.775717" lon="-4.440633">
        <ele>1859.0</ele>
        <time>2014-06-30T15:11:48Z</time>
      </trkpt>
      <trkpt lat="40.775683" lon="-4.440467">
        <ele>1861.0</ele>
        <time>2014-06-30T15:11:49Z</time>
      </trkpt>
      <trkpt lat="40.775683" lon="-4.440317">
        <ele>1863.0</ele>
        <time>2014-06-30T15:11:50Z</time>
      </trkpt>
      <trkpt lat="40.775717" lon="-4.440167">
        <ele>1865.0</ele>
        <time>2014-06-30T15:11:51Z</time>
      </trkpt>
      <trkpt lat="40.775767" lon="-4.440050">
        <ele>1867.0</ele>
        <time>2014-06-30T15:11:52Z</time>
      </trkpt>
      <trkpt lat="40.775817" lon="-4.439933">
        <ele>1870.0</ele>
        <time>2014-06-30T15:11:53Z</time>
      </trkpt>
      <trkpt lat="40.775867" lon="-4.439833">
        <ele>1872.0</ele>
        <time>2014-06-30T15:11:54Z</time>
      </trkpt>
      <trkpt lat="40.775933" lon="-4.439750">
        <ele>1874.0</ele>
        <time>2014-06-30T15:11:55Z</time>
      </trkpt>
      <trkpt lat="40.776017" lon="-4.439700">
        <ele>1876.0</ele>
        <time>2014-06-30T15:11:56Z</time>
      </trkpt>
      <trkpt lat="40.776083" lon="-4.439683">
        <ele>1878.0</ele>
        <time>2014-06-30T15:11:57Z</time>
      </trkpt>
      <trkpt lat="40.776150" lon="-4.439683">
        <ele>1879.0</ele>
        <time>2014-06-30T15:11:58Z</time>
      </trkpt>
      <trkpt lat="40.776167" lon="-4.439717">
        <ele>1875.0</ele>
        <time>2014-06-30T15:11:59Z</time>
      </trkpt>
      <trkpt lat="40.776183" lon="-4.439767">
        <ele>1875.0</ele>
        <time>2014-06-30T15:12:00Z</time>
      </trkpt>
      <trkpt lat="40.776167" lon="-4.439817">
        <ele>1876.0</ele>
        <time>2014-06-30T15:12:01Z</time>
      </trkpt>
      <trkpt lat="40.776133" lon="-4.439850">
        <ele>1876.0</ele>
        <time>2014-06-30T15:12:02Z</time>
      </trkpt>
      <trkpt lat="40.776100" lon="-4.439883">
        <ele>1877.0</ele>
        <time>2014-06-30T15:12:03Z</time>
      </trkpt>
      <trkpt lat="40.776067" lon="-4.439900">
        <ele>1877.0</ele>
        <time>2014-06-30T15:12:04Z</time>
      </trkpt>
      <trkpt lat="40.776017" lon="-4.439950">
        <ele>1877.0</ele>
        <time>2014-06-30T15:12:05Z</time>
      </trkpt>
      <trkpt lat="40.775983" lon="-4.439983">
        <ele>1877.0</ele>
        <time>2014-06-30T15:12:06Z</time>
      </trkpt>
      <trkpt lat="40.775933" lon="-4.440000">
        <ele>1878.0</ele>
        <time>2014-06-30T15:12:07Z</time>
      </trkpt>
      <trkpt lat="40.775867" lon="-4.440033">
        <ele>1878.0</ele>
        <time>2014-06-30T15:12:08Z</time>
      </trkpt>
      <trkpt lat="40.775817" lon="-4.440067">
        <ele>1879.0</ele>
        <time>2014-06-30T15:12:09Z</time>
      </trkpt>
      <trkpt lat="40.775750" lon="-4.440117">
        <ele>1879.0</ele>
        <time>2014-06-30T15:12:10Z</time>
      </trkpt>
      <trkpt lat="40.775717" lon="-4.440133">
        <ele>1880.0</ele>
        <time>2014-06-30T15:12:11Z</time>
      </trkpt>
      <trkpt lat="40.775667" lon="-4.440150">
        <ele>1881.0</ele>
        <time>2014-06-30T15:12:12Z</time>
      </trkpt>
      <trkpt lat="40.775633" lon="-4.440167">
        <ele>1882.0</ele>
        <time>2014-06-30T15:12:13Z</time>
      </trkpt>
      <trkpt lat="40.775583" lon="-4.440183">
        <ele>1882.0</ele>
        <time>2014-06-30T15:12:14Z</time>
      </trkpt>
      <trkpt lat="40.775550" lon="-4.440183">
        <ele>1882.0</ele>
        <time>2014-06-30T15:12:15Z</time>
      </trkpt>
      <trkpt lat="40.775500" lon="-4.440217">
        <ele>1883.0</ele>
        <time>2014-06-30T15:12:16Z</time>
      </trkpt>
      <trkpt lat="40.775433" lon="-4.440200">
        <ele>1883.0</ele>
        <time>2014-06-30T15:12:17Z</time>
      </trkpt>
      <trkpt lat="40.775367" lon="-4.440167">
        <ele>1884.0</ele>
        <time>2014-06-30T15:12:18Z</time>
      </trkpt>
      <trkpt lat="40.775283" lon="-4.440100">
        <ele>1885.0</ele>
        <time>2014-06-30T15:12:19Z</time>
      </trkpt>
      <trkpt lat="40.775233" lon="-4.439983">
        <ele>1885.0</ele>
        <time>2014-06-30T15:12:20Z</time>
      </trkpt>
      <trkpt lat="40.775183" lon="-4.439850">
        <ele>1885.0</ele>
        <time>2014-06-30T15:12:21Z</time>
      </trkpt>
      <trkpt lat="40.775150" lon="-4.439683">
        <ele>1886.0</ele>
        <time>2014-06-30T15:12:22Z</time>
      </trkpt>
      <trkpt lat="40.775117" lon="-4.439533">
        <ele>1887.0</ele>
        <time>2014-06-30T15:12:23Z</time>
      </trkpt>
      <trkpt lat="40.775100" lon="-4.439367">
        <ele>1887.0</ele>
        <time>2014-06-30T15:12:24Z</time>
      </trkpt>
      <trkpt lat="40.775083" lon="-4.439233">
        <ele>1888.0</ele>
        <time>2014-06-30T15:12:25Z</time>
      </trkpt>
      <trkpt lat="40.775083" lon="-4.439083">
        <ele>1889.0</ele>
        <time>2014-06-30T15:12:26Z</time>
      </trkpt>
      <trkpt lat="40.775067" lon="-4.438933">
        <ele>1889.0</ele>
        <time>2014-06-30T15:12:27Z</time>
      </trkpt>
      <trkpt lat="40.775067" lon="-4.438750">
        <ele>1889.0</ele>
        <time>2014-06-30T15:12:28Z</time>
      </trkpt>
      <trkpt lat="40.775067" lon="-4.438583">
        <ele>1889.0</ele>
        <time>2014-06-30T15:12:29Z</time>
      </trkpt>
      <trkpt lat="40.775083" lon="-4.438417">
        <ele>1890.0</ele>
        <time>2014-06-30T15:12:30Z</time>
      </trkpt>
      <trkpt lat="40.775100" lon="-4.438267">
        <ele>1890.0</ele>
        <time>2014-06-30T15:12:31Z</time>
      </trkpt>
      <trkpt lat="40.775117" lon="-4.438100">
        <ele>1890.0</ele>
        <time>2014-06-30T15:12:32Z</time>
      </trkpt>
      <trkpt lat="40.775117" lon="-4.437933">
        <ele>1890.0</ele>
        <time>2014-06-30T15:12:33Z</time>
      </trkpt>
      <trkpt lat="40.775133" lon="-4.437750">
        <ele>1890.0</ele>
        <time>2014-06-30T15:12:34Z</time>
      </trkpt>
      <trkpt lat="40.775150" lon="-4.437567">
        <ele>1891.0</ele>
        <time>2014-06-30T15:12:35Z</time>
      </trkpt>
      <trkpt lat="40.775150" lon="-4.437383">
        <ele>1892.0</ele>
        <time>2014-06-30T15:12:36Z</time>
      </trkpt>
      <trkpt lat="40.775150" lon="-4.437217">
        <ele>1893.0</ele>
        <time>2014-06-30T15:12:37Z</time>
      </trkpt>
      <trkpt lat="40.775167" lon="-4.437050">
        <ele>1895.0</ele>
        <time>2014-06-30T15:12:38Z</time>
      </trkpt>
      <trkpt lat="40.775183" lon="-4.436883">
        <ele>1895.0</ele>
        <time>2014-06-30T15:12:39Z</time>
      </trkpt>
      <trkpt lat="40.775183" lon="-4.436717">
        <ele>1897.0</ele>
        <time>2014-06-30T15:12:40Z</time>
      </trkpt>
      <trkpt lat="40.775200" lon="-4.436567">
        <ele>1898.0</ele>
        <time>2014-06-30T15:12:41Z</time>
      </trkpt>
      <trkpt lat="40.775217" lon="-4.436433">
        <ele>1899.0</ele>
        <time>2014-06-30T15:12:42Z</time>
      </trkpt>
      <trkpt lat="40.775217" lon="-4.436300">
        <ele>1899.0</ele>
        <time>2014-06-30T15:12:43Z</time>
      </trkpt>
      <trkpt lat="40.775233" lon="-4.436167">
        <ele>1900.0</ele>
        <time>2014-06-30T15:12:44Z</time>
      </trkpt>
      <trkpt lat="40.775267" lon="-4.436033">
        <ele>1898.0</ele>
        <time>2014-06-30T15:12:45Z</time>
      </trkpt>
      <trkpt lat="40.775317" lon="-4.435883">
        <ele>1896.0</ele>
        <time>2014-06-30T15:12:46Z</time>
      </trkpt>
      <trkpt lat="40.775383" lon="-4.435783">
        <ele>1893.0</ele>
        <time>2014-06-30T15:12:47Z</time>
      </trkpt>
      <trkpt lat="40.775467" lon="-4.435717">
        <ele>1889.0</ele>
        <time>2014-06-30T15:12:48Z</time>
      </trkpt>
      <trkpt lat="40.775550" lon="-4.435683">
        <ele>1888.0</ele>
        <time>2014-06-30T15:12:49Z</time>
      </trkpt>
      <trkpt lat="40.775633" lon="-4.435650">
        <ele>1888.0</ele>
        <time>2014-06-30T15:12:50Z</time>
      </trkpt>
      <trkpt lat="40.775700" lon="-4.435633">
        <ele>1888.0</ele>
        <time>2014-06-30T15:12:51Z</time>
      </trkpt>
      <trkpt lat="40.775767" lon="-4.435633">
        <ele>1888.0</ele>
        <time>2014-06-30T15:12:52Z</time>
      </trkpt>
      <trkpt lat="40.775817" lon="-4.435633">
        <ele>1888.0</ele>
        <time>2014-06-30T15:12:53Z</time>
      </trkpt>
      <trkpt lat="40.775867" lon="-4.435633">
        <ele>1891.0</ele>
        <time>2014-06-30T15:12:54Z</time>
      </trkpt>
      <trkpt lat="40.775933" lon="-4.435633">
        <ele>1893.0</ele>
        <time>2014-06-30T15:12:55Z</time>
      </trkpt>
      <trkpt lat="40.775983" lon="-4.435617">
        <ele>1894.0</ele>
        <time>2014-06-30T15:12:56Z</time>
      </trkpt>
      <trkpt lat="40.776067" lon="-4.435567">
        <ele>1895.0</ele>
        <time>2014-06-30T15:12:57Z</time>
      </trkpt>
      <trkpt lat="40.776150" lon="-4.435500">
        <ele>1896.0</ele>
        <time>2014-06-30T15:12:58Z</time>
      </trkpt>
      <trkpt lat="40.776217" lon="-4.435450">
        <ele>1897.0</ele>
        <time>2014-06-30T15:12:59Z</time>
      </trkpt>
      <trkpt lat="40.776267" lon="-4.435417">
        <ele>1898.0</ele>
        <time>2014-06-30T15:13:00Z</time>
      </trkpt>
      <trkpt lat="40.776317" lon="-4.435417">
        <ele>1899.0</ele>
        <time>2014-06-30T15:13:01Z</time>
      </trkpt>
      <trkpt lat="40.776350" lon="-4.435433">
        <ele>1900.0</ele>
        <time>2014-06-30T15:13:02Z</time>
      </trkpt>
      <trkpt lat="40.776367" lon="-4.435433">
        <ele>1902.0</ele>
        <time>2014-06-30T15:13:03Z</time>
      </trkpt>
      <trkpt lat="40.776367" lon="-4.435450">
        <ele>1899.0</ele>
        <time>2014-06-30T15:13:04Z</time>
      </trkpt>
      <trkpt lat="40.776367" lon="-4.435483">
        <ele>1898.0</ele>
        <time>2014-06-30T15:13:05Z</time>
      </trkpt>
      <trkpt lat="40.776350" lon="-4.435500">
        <ele>1899.0</ele>
        <time>2014-06-30T15:13:06Z</time>
      </trkpt>
      <trkpt lat="40.776317" lon="-4.435517">
        <ele>1899.0</ele>
        <time>2014-06-30T15:13:07Z</time>
      </trkpt>
      <trkpt lat="40.776250" lon="-4.435517">
        <ele>1899.0</ele>
        <time>2014-06-30T15:13:08Z</time>
      </trkpt>
      <trkpt lat="40.776167" lon="-4.435483">
        <ele>1900.0</ele>
        <time>2014-06-30T15:13:09Z</time>
      </trkpt>
      <trkpt lat="40.776100" lon="-4.435417">
        <ele>1901.0</ele>
        <time>2014-06-30T15:13:10Z</time>
      </trkpt>
      <trkpt lat="40.776033" lon="-4.435333">
        <ele>1902.0</ele>
        <time>2014-06-30T15:13:11Z</time>
      </trkpt>
      <trkpt lat="40.775983" lon="-4.435217">
        <ele>1903.0</ele>
        <time>2014-06-30T15:13:12Z</time>
      </trkpt>
      <trkpt lat="40.775933" lon="-4.435117">
        <ele>1904.0</ele>
        <time>2014-06-30T15:13:13Z</time>
      </trkpt>
      <trkpt lat="40.775867" lon="-4.435000">
        <ele>1905.0</ele>
        <time>2014-06-30T15:13:14Z</time>
      </trkpt>
      <trkpt lat="40.775817" lon="-4.434867">
        <ele>1906.0</ele>
        <time>2014-06-30T15:13:15Z</time>
      </trkpt>
      <trkpt lat="40.775783" lon="-4.434700">
        <ele>1907.0</ele>
        <time>2014-06-30T15:13:16Z</time>
      </trkpt>
      <trkpt lat="40.775800" lon="-4.434533">
        <ele>1908.0</ele>
        <time>2014-06-30T15:13:17Z</time>
      </trkpt>
      <trkpt lat="40.775833" lon="-4.434383">
        <ele>1909.0</ele>
        <time>2014-06-30T15:13:18Z</time>
      </trkpt>
      <trkpt lat="40.775900" lon="-4.434267">
        <ele>1910.0</ele>
        <time>2014-06-30T15:13:19Z</time>
      </trkpt>
      <trkpt lat="40.775950" lon="-4.434133">
        <ele>1911.0</ele>
        <time>2014-06-30T15:13:20Z</time>
      </trkpt>
      <trkpt lat="40.776000" lon="-4.434000">
        <ele>1913.0</ele>
        <time>2014-06-30T15:13:21Z</time>
      </trkpt>
      <trkpt lat="40.776050" lon="-4.433867">
        <ele>1914.0</ele>
        <time>2014-06-30T15:13:22Z</time>
      </trkpt>
      <trkpt lat="40.776100" lon="-4.433767">
        <ele>1915.0</ele>
        <time>2014-06-30T15:13:23Z</time>
      </trkpt>
      <trkpt lat="40.776167" lon="-4.433700">
        <ele>1916.0</ele>
        <time>2014-06-30T15:13:24Z</time>
      </trkpt>
      <trkpt lat="40.776250" lon="-4.433667">
        <ele>1916.0</ele>
        <time>2014-06-30T15:13:25Z</time>
      </trkpt>
      <trkpt lat="40.776317" lon="-4.433667">
        <ele>1916.0</ele>
        <time>2014-06-30T15:13:26Z</time>
      </trkpt>
      <trkpt lat="40.776383" lon="-4.433667">
        <ele>1917.0</ele>
        <time>2014-06-30T15:13:27Z</time>
      </trkpt>
      <trkpt lat="40.776417" lon="-4.433683">
        <ele>1918.0</ele>
        <time>2014-06-30T15:13:28Z</time>
      </trkpt>
      <trkpt lat="40.776450" lon="-4.433683">
        <ele>1918.0</ele>
        <time>2014-06-30T15:13:29Z</time>
      </trkpt>
      <trkpt lat="40.776467" lon="-4.433700">
        <ele>1915.0</ele>
        <time>2014-06-30T15:13:30Z</time>
      </trkpt>
      <trkpt lat="40.776500" lon="-4.433733">
        <ele>1915.0</ele>
        <time>2014-06-30T15:13:31Z</time>
      </trkpt>
      <trkpt lat="40.776517" lon="-4.433767">
        <ele>1915.0</ele>
        <time>2014-06-30T15:13:32Z</time>
      </trkpt>
      <trkpt lat="40.776550" lon="-4.433800">
        <ele>1915.0</ele>
        <time>2014-06-30T15:13:33Z</time>
      </trkpt>
      <trkpt lat="40.776550" lon="-4.433833">
        <ele>1916.0</ele>
        <time>2014-06-30T15:13:34Z</time>
      </trkpt>
      <trkpt lat="40.776550" lon="-4.433867">
        <ele>1916.0</ele>
        <time>2014-06-30T15:13:35Z</time>
      </trkpt>
      <trkpt lat="40.776550" lon="-4.433867">
        <ele>1916.0</ele>
        <time>2014-06-30T15:13:36Z</time>
      </trkpt>
      <trkpt lat="40.776550" lon="-4.433917">
        <ele>1916.0</ele>
        <time>2014-06-30T15:13:37Z</time>
      </trkpt>
      <trkpt lat="40.776550" lon="-4.433967">
        <ele>1917.0</ele>
        <time>2014-06-30T15:13:38Z</time>
      </trkpt>
      <trkpt lat="40.776517" lon="-4.434017">
        <ele>1917.0</ele>
        <time>2014-06-30T15:13:39Z</time>
      </trkpt>
      <trkpt lat="40.776450" lon="-4.434033">
        <ele>1918.0</ele>
        <time>2014-06-30T15:13:40Z</time>
      </trkpt>
      <trkpt lat="40.776367" lon="-4.434000">
        <ele>1918.0</ele>
        <time>2014-06-30T15:13:41Z</time>
      </trkpt>
      <trkpt lat="40.776267" lon="-4.433967">
        <ele>1919.0</ele>
        <time>2014-06-30T15:13:42Z</time>
      </trkpt>
      <trkpt lat="40.776183" lon="-4.433950">
        <ele>1921.0</ele>
        <time>2014-06-30T15:13:43Z</time>
      </trkpt>
      <trkpt lat="40.776117" lon="-4.433933">
        <ele>1922.0</ele>
        <time>2014-06-30T15:13:44Z</time>
      </trkpt>
      <trkpt lat="40.776033" lon="-4.433917">
        <ele>1923.0</ele>
        <time>2014-06-30T15:13:45Z</time>
      </trkpt>
      <trkpt lat="40.775950" lon="-4.433883">
        <ele>1923.0</ele>
        <time>2014-06-30T15:13:46Z</time>
      </trkpt>
      <trkpt lat="40.775867" lon="-4.433833">
        <ele>1924.0</ele>
        <time>2014-06-30T15:13:47Z</time>
      </trkpt>
      <trkpt lat="40.775800" lon="-4.433750">
        <ele>1925.0</ele>
        <time>2014-06-30T15:13:48Z</time>
      </trkpt>
      <trkpt lat="40.775733" lon="-4.433650">
        <ele>1925.0</ele>
        <time>2014-06-30T15:13:49Z</time>
      </trkpt>
      <trkpt lat="40.775667" lon="-4.433550">
        <ele>1926.0</ele>
        <time>2014-06-30T15:13:50Z</time>
      </trkpt>
      <trkpt lat="40.775600" lon="-4.433467">
        <ele>1927.0</ele>
        <time>2014-06-30T15:13:51Z</time>
      </trkpt>
      <trkpt lat="40.775567" lon="-4.433367">
        <ele>1926.0</ele>
        <time>2014-06-30T15:13:52Z</time>
      </trkpt>
      <trkpt lat="40.775517" lon="-4.433250">
        <ele>1927.0</ele>
        <time>2014-06-30T15:13:53Z</time>
      </trkpt>
      <trkpt lat="40.775467" lon="-4.433100">
        <ele>1927.0</ele>
        <time>2014-06-30T15:13:54Z</time>
      </trkpt>
      <trkpt lat="40.775433" lon="-4.432933">
        <ele>1928.0</ele>
        <time>2014-06-30T15:13:55Z</time>
      </trkpt>
      <trkpt lat="40.775433" lon="-4.432783">
        <ele>1928.0</ele>
        <time>2014-06-30T15:13:56Z</time>
      </trkpt>
      <trkpt lat="40.775450" lon="-4.432633">
        <ele>1929.0</ele>
        <time>2014-06-30T15:13:57Z</time>
      </trkpt>
      <trkpt lat="40.775483" lon="-4.432483">
        <ele>1930.0</ele>
        <time>2014-06-30T15:13:58Z</time>
      </trkpt>
      <trkpt lat="40.775533" lon="-4.432350">
        <ele>1931.0</ele>
        <time>2014-06-30T15:13:59Z</time>
      </trkpt>
      <trkpt lat="40.775617" lon="-4.432233">
        <ele>1931.0</ele>
        <time>2014-06-30T15:14:00Z</time>
      </trkpt>
      <trkpt lat="40.775717" lon="-4.432150">
        <ele>1932.0</ele>
        <time>2014-06-30T15:14:01Z</time>
      </trkpt>
      <trkpt lat="40.775800" lon="-4.432100">
        <ele>1934.0</ele>
        <time>2014-06-30T15:14:02Z</time>
      </trkpt>
      <trkpt lat="40.775883" lon="-4.432067">
        <ele>1935.0</ele>
        <time>2014-06-30T15:14:03Z</time>
      </trkpt>
      <trkpt lat="40.775950" lon="-4.432067">
        <ele>1936.0</ele>
        <time>2014-06-30T15:14:04Z</time>
      </trkpt>
      <trkpt lat="40.776017" lon="-4.432067">
        <ele>1936.0</ele>
        <time>2014-06-30T15:14:05Z</time>
      </trkpt>
      <trkpt lat="40.776083" lon="-4.432067">
        <ele>1935.0</ele>
        <time>2014-06-30T15:14:06Z</time>
      </trkpt>
      <trkpt lat="40.776133" lon="-4.432100">
        <ele>1935.0</ele>
        <time>2014-06-30T15:14:07Z</time>
      </trkpt>
      <trkpt lat="40.776183" lon="-4.432150">
        <ele>1935.0</ele>
        <time>2014-06-30T15:14:08Z</time>
      </trkpt>
      <trkpt lat="40.776217" lon="-4.432200">
        <ele>1935.0</ele>
        <time>2014-06-30T15:14:09Z</time>
      </trkpt>
      <trkpt lat="40.776250" lon="-4.432233">
        <ele>1935.0</ele>
        <time>2014-06-30T15:14:10Z</time>
      </trkpt>
      <trkpt lat="40.776283" lon="-4.432283">
        <ele>1936.0</ele>
        <time>2014-06-30T15:14:11Z</time>
      </trkpt>
      <trkpt lat="40.776317" lon="-4.432300">
        <ele>1936.0</ele>
        <time>2014-06-30T15:14:12Z</time>
      </trkpt>
      <trkpt lat="40.776350" lon="-4.432333">
        <ele>1936.0</ele>
        <time>2014-06-30T15:14:13Z</time>
      </trkpt>
      <trkpt lat="40.776367" lon="-4.432367">
        <ele>1936.0</ele>
        <time>2014-06-30T15:14:14Z</time>
      </trkpt>
      <trkpt lat="40.776350" lon="-4.432417">
        <ele>1936.0</ele>
        <time>2014-06-30T15:14:15Z</time>
      </trkpt>
      <trkpt lat="40.776317" lon="-4.432483">
        <ele>1936.0</ele>
        <time>2014-06-30T15:14:16Z</time>
      </trkpt>
      <trkpt lat="40.776267" lon="-4.432550">
        <ele>1937.0</ele>
        <time>2014-06-30T15:14:17Z</time>
      </trkpt>
      <trkpt lat="40.776217" lon="-4.432600">
        <ele>1938.0</ele>
        <time>2014-06-30T15:14:18Z</time>
      </trkpt>
      <trkpt lat="40.776200" lon="-4.432633">
        <ele>1939.0</ele>
        <time>2014-06-30T15:14:19Z</time>
      </trkpt>
      <trkpt lat="40.776167" lon="-4.432667">
        <ele>1939.0</ele>
        <time>2014-06-30T15:14:20Z</time>
      </trkpt>
      <trkpt lat="40.776150" lon="-4.432717">
        <ele>1940.0</ele>
        <time>2014-06-30T15:14:21Z</time>
      </trkpt>
      <trkpt lat="40.776117" lon="-4.432767">
        <ele>1940.0</ele>
        <time>2014-06-30T15:14:22Z</time>
      </trkpt>
      <trkpt lat="40.776083" lon="-4.432817">
        <ele>1940.0</ele>
        <time>2014-06-30T15:14:23Z</time>
      </trkpt>
      <trkpt lat="40.776067" lon="-4.432867">
        <ele>1941.0</ele>
        <time>2014-06-30T15:14:24Z</time>
      </trkpt>
      <trkpt lat="40.776067" lon="-4.432900">
        <ele>1942.0</ele>
        <time>2014-06-30T15:14:25Z</time>
      </trkpt>
      <trkpt lat="40.776067" lon="-4.432933">
        <ele>1943.0</ele>
        <time>2014-06-30T15:14:26Z</time>
      </trkpt>
      <trkpt lat="40.776067" lon="-4.432950">
        <ele>1942.0</ele>
        <time>2014-06-30T15:14:27Z</time>
      </trkpt>
      <trkpt lat="40.776083" lon="-4.432967">
        <ele>1940.0</ele>
        <time>2014-06-30T15:14:28Z</time>
      </trkpt>
      <trkpt lat="40.776100" lon="-4.433000">
        <ele>1941.0</ele>
        <time>2014-06-30T15:14:29Z</time>
      </trkpt>
      <trkpt lat="40.776133" lon="-4.433017">
        <ele>1941.0</ele>
        <time>2014-06-30T15:14:30Z</time>
      </trkpt>
      <trkpt lat="40.776150" lon="-4.433050">
        <ele>1941.0</ele>
        <time>2014-06-30T15:14:31Z</time>
      </trkpt>
      <trkpt lat="40.776183" lon="-4.433083">
        <ele>1941.0</ele>
        <time>2014-06-30T15:14:32Z</time>
      </trkpt>
      <trkpt lat="40.776217" lon="-4.433100">
        <ele>1941.0</ele>
        <time>2014-06-30T15:14:33Z</time>
      </trkpt>
      <trkpt lat="40.776267" lon="-4.433117">
        <ele>1940.0</ele>
        <time>2014-06-30T15:14:34Z</time>
      </trkpt>
      <trkpt lat="40.776350" lon="-4.433100">
        <ele>1940.0</ele>
        <time>2014-06-30T15:14:35Z</time>
      </trkpt>
      <trkpt lat="40.776433" lon="-4.433050">
        <ele>1939.0</ele>
        <time>2014-06-30T15:14:36Z</time>
      </trkpt>
      <trkpt lat="40.776517" lon="-4.432983">
        <ele>1937.0</ele>
        <time>2014-06-30T15:14:37Z</time>
      </trkpt>
      <trkpt lat="40.776600" lon="-4.432917">
        <ele>1936.0</ele>
        <time>2014-06-30T15:14:38Z</time>
      </trkpt>
      <trkpt lat="40.776683" lon="-4.432817">
        <ele>1935.0</ele>
        <time>2014-06-30T15:14:39Z</time>
      </trkpt>
      <trkpt lat="40.776750" lon="-4.432700">
        <ele>1934.0</ele>
        <time>2014-06-30T15:14:40Z</time>
      </trkpt>
      <trkpt lat="40.776800" lon="-4.432567">
        <ele>1934.0</ele>
        <time>2014-06-30T15:14:41Z</time>
      </trkpt>
      <trkpt lat="40.776850" lon="-4.432433">
        <ele>1933.0</ele>
        <time>2014-06-30T15:14:42Z</time>
      </trkpt>
      <trkpt lat="40.776883" lon="-4.432283">
        <ele>1932.0</ele>
        <time>2014-06-30T15:14:43Z</time>
      </trkpt>
      <trkpt lat="40.776900" lon="-4.432133">
        <ele>1931.0</ele>
        <time>2014-06-30T15:14:44Z</time>
      </trkpt>
      <trkpt lat="40.776900" lon="-4.431983">
        <ele>1931.0</ele>
        <time>2014-06-30T15:14:45Z</time>
      </trkpt>
      <trkpt lat="40.776900" lon="-4.431817">
        <ele>1929.0</ele>
        <time>2014-06-30T15:14:46Z</time>
      </trkpt>
      <trkpt lat="40.776883" lon="-4.431650">
        <ele>1928.0</ele>
        <time>2014-06-30T15:14:47Z</time>
      </trkpt>
      <trkpt lat="40.776850" lon="-4.431483">
        <ele>1928.0</ele>
        <time>2014-06-30T15:14:48Z</time>
      </trkpt>
      <trkpt lat="40.776817" lon="-4.431317">
        <ele>1927.0</ele>
        <time>2014-06-30T15:14:49Z</time>
      </trkpt>
      <trkpt lat="40.776767" lon="-4.431183">
        <ele>1928.0</ele>
        <time>2014-06-30T15:14:50Z</time>
      </trkpt>
      <trkpt lat="40.776717" lon="-4.431050">
        <ele>1927.0</ele>
        <time>2014-06-30T15:14:51Z</time>
      </trkpt>
      <trkpt lat="40.776667" lon="-4.430917">
        <ele>1926.0</ele>
        <time>2014-06-30T15:14:52Z</time>
      </trkpt>
      <trkpt lat="40.776617" lon="-4.430783">
        <ele>1926.0</ele>
        <time>2014-06-30T15:14:53Z</time>
      </trkpt>
      <trkpt lat="40.776567" lon="-4.430650">
        <ele>1924.0</ele>
        <time>2014-06-30T15:14:54Z</time>
      </trkpt>
      <trkpt lat="40.776500" lon="-4.430533">
        <ele>1922.0</ele>
        <time>2014-06-30T15:14:55Z</time>
      </trkpt>
      <trkpt lat="40.776417" lon="-4.430450">
        <ele>1920.0</ele>
        <time>2014-06-30T15:14:56Z</time>
      </trkpt>
      <trkpt lat="40.776333" lon="-4.430383">
        <ele>1919.0</ele>
        <time>2014-06-30T15:14:57Z</time>
      </trkpt>
      <trkpt lat="40.776233" lon="-4.430317">
        <ele>1918.0</ele>
        <time>2014-06-30T15:14:58Z</time>
      </trkpt>
      <trkpt lat="40.776150" lon="-4.430283">
        <ele>1917.0</ele>
        <time>2014-06-30T15:14:59Z</time>
      </trkpt>
      <trkpt lat="40.776067" lon="-4.430233">
        <ele>1916.0</ele>
        <time>2014-06-30T15:15:00Z</time>
      </trkpt>
      <trkpt lat="40.775967" lon="-4.430200">
        <ele>1914.0</ele>
        <time>2014-06-30T15:15:01Z</time>
      </trkpt>
      <trkpt lat="40.775850" lon="-4.430167">
        <ele>1913.0</ele>
        <time>2014-06-30T15:15:02Z</time>
      </trkpt>
      <trkpt lat="40.775750" lon="-4.430150">
        <ele>1912.0</ele>
        <time>2014-06-30T15:15:03Z</time>
      </trkpt>
      <trkpt lat="40.775650" lon="-4.430117">
        <ele>1913.0</ele>
        <time>2014-06-30T15:15:04Z</time>
      </trkpt>
      <trkpt lat="40.775550" lon="-4.430083">
        <ele>1914.0</ele>
        <time>2014-06-30T15:15:05Z</time>
      </trkpt>
      <trkpt lat="40.775467" lon="-4.430017">
        <ele>1914.0</ele>
        <time>2014-06-30T15:15:06Z</time>
      </trkpt>
      <trkpt lat="40.775383" lon="-4.429967">
        <ele>1916.0</ele>
        <time>2014-06-30T15:15:07Z</time>
      </trkpt>
      <trkpt lat="40.775317" lon="-4.429933">
        <ele>1916.0</ele>
        <time>2014-06-30T15:15:08Z</time>
      </trkpt>
      <trkpt lat="40.775267" lon="-4.429900">
        <ele>1916.0</ele>
        <time>2014-06-30T15:15:09Z</time>
      </trkpt>
      <trkpt lat="40.775200" lon="-4.429883">
        <ele>1915.0</ele>
        <time>2014-06-30T15:15:10Z</time>
      </trkpt>
      <trkpt lat="40.775117" lon="-4.429850">
        <ele>1915.0</ele>
        <time>2014-06-30T15:15:11Z</time>
      </trkpt>
      <trkpt lat="40.775033" lon="-4.429817">
        <ele>1914.0</ele>
        <time>2014-06-30T15:15:12Z</time>
      </trkpt>
      <trkpt lat="40.774933" lon="-4.429767">
        <ele>1913.0</ele>
        <time>2014-06-30T15:15:13Z</time>
      </trkpt>
      <trkpt lat="40.774833" lon="-4.429733">
        <ele>1913.0</ele>
        <time>2014-06-30T15:15:14Z</time>
      </trkpt>
      <trkpt lat="40.774733" lon="-4.429700">
        <ele>1912.0</ele>
        <time>2014-06-30T15:15:15Z</time>
      </trkpt>
      <trkpt lat="40.774633" lon="-4.429667">
        <ele>1913.0</ele>
        <time>2014-06-30T15:15:16Z</time>
      </trkpt>
      <trkpt lat="40.774550" lon="-4.429633">
        <ele>1913.0</ele>
        <time>2014-06-30T15:15:17Z</time>
      </trkpt>
      <trkpt lat="40.774467" lon="-4.429583">
        <ele>1913.0</ele>
        <time>2014-06-30T15:15:18Z</time>
      </trkpt>
      <trkpt lat="40.774367" lon="-4.429550">
        <ele>1913.0</ele>
        <time>2014-06-30T15:15:19Z</time>
      </trkpt>
      <trkpt lat="40.774283" lon="-4.429517">
        <ele>1912.0</ele>
        <time>2014-06-30T15:15:20Z</time>
      </trkpt>
      <trkpt lat="40.774200" lon="-4.429500">
        <ele>1912.0</ele>
        <time>2014-06-30T15:15:21Z</time>
      </trkpt>
      <trkpt lat="40.774133" lon="-4.429500">
        <ele>1912.0</ele>
        <time>2014-06-30T15:15:22Z</time>
      </trkpt>
      <trkpt lat="40.774067" lon="-4.429483">
        <ele>1912.0</ele>
        <time>2014-06-30T15:15:23Z</time>
      </trkpt>
      <trkpt lat="40.774017" lon="-4.429467">
        <ele>1912.0</ele>
        <time>2014-06-30T15:15:24Z</time>
      </trkpt>
      <trkpt lat="40.773950" lon="-4.429450">
        <ele>1912.0</ele>
        <time>2014-06-30T15:15:25Z</time>
      </trkpt>
      <trkpt lat="40.773883" lon="-4.429417">
        <ele>1912.0</ele>
        <time>2014-06-30T15:15:26Z</time>
      </trkpt>
      <trkpt lat="40.773800" lon="-4.429383">
        <ele>1911.0</ele>
        <time>2014-06-30T15:15:27Z</time>
      </trkpt>
      <trkpt lat="40.773717" lon="-4.429317">
        <ele>1912.0</ele>
        <time>2014-06-30T15:15:28Z</time>
      </trkpt>
      <trkpt lat="40.773633" lon="-4.429217">
        <ele>1913.0</ele>
        <time>2014-06-30T15:15:29Z</time>
      </trkpt>
      <trkpt lat="40.773550" lon="-4.429133">
        <ele>1914.0</ele>
        <time>2014-06-30T15:15:30Z</time>
      </trkpt>
      <trkpt lat="40.773467" lon="-4.429033">
        <ele>1916.0</ele>
        <time>2014-06-30T15:15:31Z</time>
      </trkpt>
      <trkpt lat="40.773400" lon="-4.428950">
        <ele>1918.0</ele>
        <time>2014-06-30T15:15:32Z</time>
      </trkpt>
      <trkpt lat="40.773333" lon="-4.428883">
        <ele>1919.0</ele>
        <time>2014-06-30T15:15:33Z</time>
      </trkpt>
      <trkpt lat="40.773267" lon="-4.428800">
        <ele>1920.0</ele>
        <time>2014-06-30T15:15:34Z</time>
      </trkpt>
      <trkpt lat="40.773200" lon="-4.428717">
        <ele>1921.0</ele>
        <time>2014-06-30T15:15:35Z</time>
      </trkpt>
      <trkpt lat="40.773150" lon="-4.428617">
        <ele>1922.0</ele>
        <time>2014-06-30T15:15:36Z</time>
      </trkpt>
      <trkpt lat="40.773117" lon="-4.428483">
        <ele>1922.0</ele>
        <time>2014-06-30T15:15:37Z</time>
      </trkpt>
      <trkpt lat="40.773083" lon="-4.428333">
        <ele>1922.0</ele>
        <time>2014-06-30T15:15:38Z</time>
      </trkpt>
      <trkpt lat="40.773100" lon="-4.428183">
        <ele>1923.0</ele>
        <time>2014-06-30T15:15:39Z</time>
      </trkpt>
      <trkpt lat="40.773117" lon="-4.428017">
        <ele>1923.0</ele>
        <time>2014-06-30T15:15:40Z</time>
      </trkpt>
      <trkpt lat="40.773167" lon="-4.427883">
        <ele>1924.0</ele>
        <time>2014-06-30T15:15:41Z</time>
      </trkpt>
      <trkpt lat="40.773217" lon="-4.427767">
        <ele>1926.0</ele>
        <time>2014-06-30T15:15:42Z</time>
      </trkpt>
      <trkpt lat="40.773300" lon="-4.427667">
        <ele>1926.0</ele>
        <time>2014-06-30T15:15:43Z</time>
      </trkpt>
      <trkpt lat="40.773367" lon="-4.427583">
        <ele>1925.0</ele>
        <time>2014-06-30T15:15:44Z</time>
      </trkpt>
      <trkpt lat="40.773433" lon="-4.427517">
        <ele>1924.0</ele>
        <time>2014-06-30T15:15:45Z</time>
      </trkpt>
      <trkpt lat="40.773500" lon="-4.427450">
        <ele>1924.0</ele>
        <time>2014-06-30T15:15:46Z</time>
      </trkpt>
      <trkpt lat="40.773583" lon="-4.427400">
        <ele>1923.0</ele>
        <time>2014-06-30T15:15:47Z</time>
      </trkpt>
      <trkpt lat="40.773650" lon="-4.427350">
        <ele>1923.0</ele>
        <time>2014-06-30T15:15:48Z</time>
      </trkpt>
      <trkpt lat="40.773733" lon="-4.427333">
        <ele>1922.0</ele>
        <time>2014-06-30T15:15:49Z</time>
      </trkpt>
      <trkpt lat="40.773800" lon="-4.427317">
        <ele>1921.0</ele>
        <time>2014-06-30T15:15:50Z</time>
      </trkpt>
      <trkpt lat="40.773883" lon="-4.427300">
        <ele>1921.0</ele>
        <time>2014-06-30T15:15:51Z</time>
      </trkpt>
      <trkpt lat="40.773950" lon="-4.427317">
        <ele>1921.0</ele>
        <time>2014-06-30T15:15:52Z</time>
      </trkpt>
      <trkpt lat="40.773983" lon="-4.427350">
        <ele>1921.0</ele>
        <time>2014-06-30T15:15:53Z</time>
      </trkpt>
      <trkpt lat="40.774000" lon="-4.427400">
        <ele>1921.0</ele>
        <time>2014-06-30T15:15:54Z</time>
      </trkpt>
      <trkpt lat="40.773983" lon="-4.427433">
        <ele>1921.0</ele>
        <time>2014-06-30T15:15:55Z</time>
      </trkpt>
      <trkpt lat="40.773950" lon="-4.427467">
        <ele>1920.0</ele>
        <time>2014-06-30T15:15:56Z</time>
      </trkpt>
      <trkpt lat="40.773883" lon="-4.427483">
        <ele>1920.0</ele>
        <time>2014-06-30T15:15:57Z</time>
      </trkpt>
      <trkpt lat="40.773817" lon="-4.427483">
        <ele>1920.0</ele>
        <time>2014-06-30T15:15:58Z</time>
      </trkpt>
      <trkpt lat="40.773750" lon="-4.427467">
        <ele>1920.0</ele>
        <time>2014-06-30T15:15:59Z</time>
      </trkpt>
      <trkpt lat="40.773667" lon="-4.427400">
        <ele>1920.0</ele>
        <time>2014-06-30T15:16:00Z</time>
      </trkpt>
      <trkpt lat="40.773583" lon="-4.427317">
        <ele>1921.0</ele>
        <time>2014-06-30T15:16:01Z</time>
      </trkpt>
      <trkpt lat="40.773533" lon="-4.427200">
        <ele>1921.0</ele>
        <time>2014-06-30T15:16:02Z</time>
      </trkpt>
      <trkpt lat="40.773483" lon="-4.427067">
        <ele>1921.0</ele>
        <time>2014-06-30T15:16:03Z</time>
      </trkpt>
      <trkpt lat="40.773450" lon="-4.426933">
        <ele>1922.0</ele>
        <time>2014-06-30T15:16:04Z</time>
      </trkpt>
      <trkpt lat="40.773433" lon="-4.426783">
        <ele>1922.0</ele>
        <time>2014-06-30T15:16:05Z</time>
      </trkpt>
      <trkpt lat="40.773417" lon="-4.426650">
        <ele>1923.0</ele>
        <time>2014-06-30T15:16:06Z</time>
      </trkpt>
      <trkpt lat="40.773417" lon="-4.426517">
        <ele>1923.0</ele>
        <time>2014-06-30T15:16:07Z</time>
      </trkpt>
      <trkpt lat="40.773433" lon="-4.426367">
        <ele>1923.0</ele>
        <time>2014-06-30T15:16:08Z</time>
      </trkpt>
      <trkpt lat="40.773450" lon="-4.426233">
        <ele>1923.0</ele>
        <time>2014-06-30T15:16:09Z</time>
      </trkpt>
      <trkpt lat="40.773500" lon="-4.426100">
        <ele>1922.0</ele>
        <time>2014-06-30T15:16:10Z</time>
      </trkpt>
      <trkpt lat="40.773550" lon="-4.425967">
        <ele>1920.0</ele>
        <time>2014-06-30T15:16:11Z</time>
      </trkpt>
      <trkpt lat="40.773633" lon="-4.425833">
        <ele>1919.0</ele>
        <time>2014-06-30T15:16:12Z</time>
      </trkpt>
      <trkpt lat="40.773700" lon="-4.425717">
        <ele>1918.0</ele>
        <time>2014-06-30T15:16:13Z</time>
      </trkpt>
      <trkpt lat="40.773783" lon="-4.425617">
        <ele>1917.0</ele>
        <time>2014-06-30T15:16:14Z</time>
      </trkpt>
      <trkpt lat="40.773867" lon="-4.425533">
        <ele>1915.0</ele>
        <time>2014-06-30T15:16:15Z</time>
      </trkpt>
      <trkpt lat="40.773950" lon="-4.425467">
        <ele>1914.0</ele>
        <time>2014-06-30T15:16:16Z</time>
      </trkpt>
      <trkpt lat="40.774050" lon="-4.425417">
        <ele>1913.0</ele>
        <time>2014-06-30T15:16:17Z</time>
      </trkpt>
      <trkpt lat="40.774133" lon="-4.425383">
        <ele>1911.0</ele>
        <time>2014-06-30T15:16:18Z</time>
      </trkpt>
      <trkpt lat="40.774217" lon="-4.425383">
        <ele>1910.0</ele>
        <time>2014-06-30T15:16:19Z</time>
      </trkpt>
      <trkpt lat="40.774283" lon="-4.425417">
        <ele>1909.0</ele>
        <time>2014-06-30T15:16:20Z</time>
      </trkpt>
      <trkpt lat="40.774333" lon="-4.425450">
        <ele>1908.0</ele>
        <time>2014-06-30T15:16:21Z</time>
      </trkpt>
      <trkpt lat="40.774367" lon="-4.425517">
        <ele>1909.0</ele>
        <time>2014-06-30T15:16:22Z</time>
      </trkpt>
      <trkpt lat="40.774367" lon="-4.425550">
        <ele>1908.0</ele>
        <time>2014-06-30T15:16:23Z</time>
      </trkpt>
      <trkpt lat="40.774350" lon="-4.425583">
        <ele>1908.0</ele>
        <time>2014-06-30T15:16:24Z</time>
      </trkpt>
      <trkpt lat="40.774317" lon="-4.425617">
        <ele>1907.0</ele>
        <time>2014-06-30T15:16:25Z</time>
      </trkpt>
      <trkpt lat="40.774283" lon="-4.425633">
        <ele>1906.0</ele>
        <time>2014-06-30T15:16:26Z</time>
      </trkpt>
      <trkpt lat="40.774233" lon="-4.425650">
        <ele>1906.0</ele>
        <time>2014-06-30T15:16:27Z</time>
      </trkpt>
      <trkpt lat="40.774183" lon="-4.425667">
        <ele>1905.0</ele>
        <time>2014-06-30T15:16:28Z</time>
      </trkpt>
      <trkpt lat="40.774117" lon="-4.425667">
        <ele>1905.0</ele>
        <time>2014-06-30T15:16:29Z</time>
      </trkpt>
      <trkpt lat="40.774033" lon="-4.425683">
        <ele>1904.0</ele>
        <time>2014-06-30T15:16:30Z</time>
      </trkpt>
      <trkpt lat="40.773950" lon="-4.425683">
        <ele>1903.0</ele>
        <time>2014-06-30T15:16:31Z</time>
      </trkpt>
      <trkpt lat="40.773867" lon="-4.425683">
        <ele>1903.0</ele>
        <time>2014-06-30T15:16:32Z</time>
      </trkpt>
      <trkpt lat="40.773800" lon="-4.425700">
        <ele>1902.0</ele>
        <time>2014-06-30T15:16:33Z</time>
      </trkpt>
      <trkpt lat="40.773717" lon="-4.425700">
        <ele>1902.0</ele>
        <time>2014-06-30T15:16:34Z</time>
      </trkpt>
      <trkpt lat="40.773617" lon="-4.425717">
        <ele>1901.0</ele>
        <time>2014-06-30T15:16:35Z</time>
      </trkpt>
      <trkpt lat="40.773500" lon="-4.425700">
        <ele>1900.0</ele>
        <time>2014-06-30T15:16:36Z</time>
      </trkpt>
      <trkpt lat="40.773383" lon="-4.425667">
        <ele>1899.0</ele>
        <time>2014-06-30T15:16:37Z</time>
      </trkpt>
      <trkpt lat="40.773267" lon="-4.425633">
        <ele>1898.0</ele>
        <time>2014-06-30T15:16:38Z</time>
      </trkpt>
      <trkpt lat="40.773167" lon="-4.425600">
        <ele>1898.0</ele>
        <time>2014-06-30T15:16:39Z</time>
      </trkpt>
      <trkpt lat="40.773067" lon="-4.425567">
        <ele>1896.0</ele>
        <time>2014-06-30T15:16:40Z</time>
      </trkpt>
      <trkpt lat="40.772967" lon="-4.425550">
        <ele>1895.0</ele>
        <time>2014-06-30T15:16:41Z</time>
      </trkpt>
      <trkpt lat="40.772850" lon="-4.425517">
        <ele>1894.0</ele>
        <time>2014-06-30T15:16:42Z</time>
      </trkpt>
      <trkpt lat="40.772750" lon="-4.425483">
        <ele>1893.0</ele>
        <time>2014-06-30T15:16:43Z</time>
      </trkpt>
      <trkpt lat="40.772633" lon="-4.425417">
        <ele>1893.0</ele>
        <time>2014-06-30T15:16:44Z</time>
      </trkpt>
      <trkpt lat="40.772533" lon="-4.425367">
        <ele>1893.0</ele>
        <time>2014-06-30T15:16:45Z</time>
      </trkpt>
      <trkpt lat="40.772417" lon="-4.425317">
        <ele>1893.0</ele>
        <time>2014-06-30T15:16:46Z</time>
      </trkpt>
      <trkpt lat="40.772300" lon="-4.425283">
        <ele>1893.0</ele>
        <time>2014-06-30T15:16:47Z</time>
      </trkpt>
      <trkpt lat="40.772183" lon="-4.425233">
        <ele>1893.0</ele>
        <time>2014-06-30T15:16:48Z</time>
      </trkpt>
      <trkpt lat="40.772067" lon="-4.425200">
        <ele>1894.0</ele>
        <time>2014-06-30T15:16:49Z</time>
      </trkpt>
      <trkpt lat="40.771950" lon="-4.425150">
        <ele>1895.0</ele>
        <time>2014-06-30T15:16:50Z</time>
      </trkpt>
      <trkpt lat="40.771850" lon="-4.425083">
        <ele>1896.0</ele>
        <time>2014-06-30T15:16:51Z</time>
      </trkpt>
      <trkpt lat="40.771767" lon="-4.425017">
        <ele>1897.0</ele>
        <time>2014-06-30T15:16:52Z</time>
      </trkpt>
      <trkpt lat="40.771683" lon="-4.424950">
        <ele>1898.0</ele>
        <time>2014-06-30T15:16:53Z</time>
      </trkpt>
      <trkpt lat="40.771617" lon="-4.424883">
        <ele>1898.0</ele>
        <time>2014-06-30T15:16:54Z</time>
      </trkpt>
      <trkpt lat="40.771550" lon="-4.424817">
        <ele>1898.0</ele>
        <time>2014-06-30T15:16:55Z</time>
      </trkpt>
      <trkpt lat="40.771467" lon="-4.424750">
        <ele>1898.0</ele>
        <time>2014-06-30T15:16:56Z</time>
      </trkpt>
      <trkpt lat="40.771383" lon="-4.424667">
        <ele>1898.0</ele>
        <time>2014-06-30T15:16:57Z</time>
      </trkpt>
      <trkpt lat="40.771317" lon="-4.424567">
        <ele>1899.0</ele>
        <time>2014-06-30T15:16:58Z</time>
      </trkpt>
      <trkpt lat="40.771233" lon="-4.424450">
        <ele>1899.0</ele>
        <time>2014-06-30T15:16:59Z</time>
      </trkpt>
      <trkpt lat="40.771167" lon="-4.424333">
        <ele>1899.0</ele>
        <time>2014-06-30T15:17:00Z</time>
      </trkpt>
      <trkpt lat="40.771100" lon="-4.424233">
        <ele>1899.0</ele>
        <time>2014-06-30T15:17:01Z</time>
      </trkpt>
      <trkpt lat="40.771017" lon="-4.424133">
        <ele>1900.0</ele>
        <time>2014-06-30T15:17:02Z</time>
      </trkpt>
      <trkpt lat="40.770933" lon="-4.424033">
        <ele>1900.0</ele>
        <time>2014-06-30T15:17:03Z</time>
      </trkpt>
      <trkpt lat="40.770867" lon="-4.423950">
        <ele>1901.0</ele>
        <time>2014-06-30T15:17:04Z</time>
      </trkpt>
      <trkpt lat="40.770800" lon="-4.423850">
        <ele>1902.0</ele>
        <time>2014-06-30T15:17:05Z</time>
      </trkpt>
      <trkpt lat="40.770733" lon="-4.423750">
        <ele>1902.0</ele>
        <time>2014-06-30T15:17:06Z</time>
      </trkpt>
      <trkpt lat="40.770667" lon="-4.423650">
        <ele>1902.0</ele>
        <time>2014-06-30T15:17:07Z</time>
      </trkpt>
      <trkpt lat="40.770583" lon="-4.423533">
        <ele>1902.0</ele>
        <time>2014-06-30T15:17:08Z</time>
      </trkpt>
      <trkpt lat="40.770483" lon="-4.423433">
        <ele>1903.0</ele>
        <time>2014-06-30T15:17:09Z</time>
      </trkpt>
      <trkpt lat="40.770400" lon="-4.423350">
        <ele>1903.0</ele>
        <time>2014-06-30T15:17:10Z</time>
      </trkpt>
      <trkpt lat="40.770317" lon="-4.423300">
        <ele>1905.0</ele>
        <time>2014-06-30T15:17:11Z</time>
      </trkpt>
      <trkpt lat="40.770233" lon="-4.423250">
        <ele>1905.0</ele>
        <time>2014-06-30T15:17:12Z</time>
      </trkpt>
      <trkpt lat="40.770167" lon="-4.423200">
        <ele>1905.0</ele>
        <time>2014-06-30T15:17:13Z</time>
      </trkpt>
      <trkpt lat="40.770083" lon="-4.423133">
        <ele>1905.0</ele>
        <time>2014-06-30T15:17:14Z</time>
      </trkpt>
      <trkpt lat="40.770000" lon="-4.423050">
        <ele>1905.0</ele>
        <time>2014-06-30T15:17:15Z</time>
      </trkpt>
      <trkpt lat="40.769917" lon="-4.422950">
        <ele>1905.0</ele>
        <time>2014-06-30T15:17:16Z</time>
      </trkpt>
      <trkpt lat="40.769850" lon="-4.422833">
        <ele>1905.0</ele>
        <time>2014-06-30T15:17:17Z</time>
      </trkpt>
      <trkpt lat="40.769800" lon="-4.422683">
        <ele>1904.0</ele>
        <time>2014-06-30T15:17:18Z</time>
      </trkpt>
      <trkpt lat="40.769783" lon="-4.422517">
        <ele>1904.0</ele>
        <time>2014-06-30T15:17:19Z</time>
      </trkpt>
      <trkpt lat="40.769783" lon="-4.422350">
        <ele>1904.0</ele>
        <time>2014-06-30T15:17:20Z</time>
      </trkpt>
      <trkpt lat="40.769767" lon="-4.422200">
        <ele>1904.0</ele>
        <time>2014-06-30T15:17:21Z</time>
      </trkpt>
      <trkpt lat="40.769750" lon="-4.422067">
        <ele>1905.0</ele>
        <time>2014-06-30T15:17:22Z</time>
      </trkpt>
      <trkpt lat="40.769733" lon="-4.421933">
        <ele>1905.0</ele>
        <time>2014-06-30T15:17:23Z</time>
      </trkpt>
      <trkpt lat="40.769733" lon="-4.421800">
        <ele>1906.0</ele>
        <time>2014-06-30T15:17:24Z</time>
      </trkpt>
      <trkpt lat="40.769750" lon="-4.421650">
        <ele>1905.0</ele>
        <time>2014-06-30T15:17:25Z</time>
      </trkpt>
      <trkpt lat="40.769783" lon="-4.421517">
        <ele>1905.0</ele>
        <time>2014-06-30T15:17:26Z</time>
      </trkpt>
      <trkpt lat="40.769833" lon="-4.421400">
        <ele>1905.0</ele>
        <time>2014-06-30T15:17:27Z</time>
      </trkpt>
      <trkpt lat="40.769883" lon="-4.421300">
        <ele>1906.0</ele>
        <time>2014-06-30T15:17:28Z</time>
      </trkpt>
      <trkpt lat="40.769950" lon="-4.421217">
        <ele>1908.0</ele>
        <time>2014-06-30T15:17:29Z</time>
      </trkpt>
      <trkpt lat="40.770000" lon="-4.421183">
        <ele>1909.0</ele>
        <time>2014-06-30T15:17:30Z</time>
      </trkpt>
      <trkpt lat="40.770050" lon="-4.421167">
        <ele>1911.0</ele>
        <time>2014-06-30T15:17:31Z</time>
      </trkpt>
      <trkpt lat="40.770083" lon="-4.421183">
        <ele>1913.0</ele>
        <time>2014-06-30T15:17:32Z</time>
      </trkpt>
      <trkpt lat="40.770100" lon="-4.421217">
        <ele>1915.0</ele>
        <time>2014-06-30T15:17:33Z</time>
      </trkpt>
      <trkpt lat="40.770083" lon="-4.421250">
        <ele>1917.0</ele>
        <time>2014-06-30T15:17:34Z</time>
      </trkpt>
      <trkpt lat="40.770033" lon="-4.421283">
        <ele>1918.0</ele>
        <time>2014-06-30T15:17:35Z</time>
      </trkpt>
      <trkpt lat="40.769967" lon="-4.421317">
        <ele>1919.0</ele>
        <time>2014-06-30T15:17:36Z</time>
      </trkpt>
      <trkpt lat="40.769883" lon="-4.421317">
        <ele>1919.0</ele>
        <time>2014-06-30T15:17:37Z</time>
      </trkpt>
      <trkpt lat="40.769783" lon="-4.421300">
        <ele>1921.0</ele>
        <time>2014-06-30T15:17:38Z</time>
      </trkpt>
      <trkpt lat="40.769700" lon="-4.421283">
        <ele>1923.0</ele>
        <time>2014-06-30T15:17:39Z</time>
      </trkpt>
      <trkpt lat="40.769600" lon="-4.421233">
        <ele>1925.0</ele>
        <time>2014-06-30T15:17:40Z</time>
      </trkpt>
      <trkpt lat="40.769517" lon="-4.421150">
        <ele>1927.0</ele>
        <time>2014-06-30T15:17:41Z</time>
      </trkpt>
      <trkpt lat="40.769433" lon="-4.421050">
        <ele>1927.0</ele>
        <time>2014-06-30T15:17:42Z</time>
      </trkpt>
      <trkpt lat="40.769333" lon="-4.420900">
        <ele>1929.0</ele>
        <time>2014-06-30T15:17:43Z</time>
      </trkpt>
      <trkpt lat="40.769250" lon="-4.420750">
        <ele>1930.0</ele>
        <time>2014-06-30T15:17:44Z</time>
      </trkpt>
      <trkpt lat="40.769167" lon="-4.420617">
        <ele>1931.0</ele>
        <time>2014-06-30T15:17:45Z</time>
      </trkpt>
      <trkpt lat="40.769100" lon="-4.420483">
        <ele>1933.0</ele>
        <time>2014-06-30T15:17:46Z</time>
      </trkpt>
      <trkpt lat="40.769050" lon="-4.420350">
        <ele>1935.0</ele>
        <time>2014-06-30T15:17:47Z</time>
      </trkpt>
      <trkpt lat="40.768983" lon="-4.420217">
        <ele>1937.0</ele>
        <time>2014-06-30T15:17:48Z</time>
      </trkpt>
      <trkpt lat="40.768933" lon="-4.420050">
        <ele>1938.0</ele>
        <time>2014-06-30T15:17:49Z</time>
      </trkpt>
      <trkpt lat="40.768900" lon="-4.419850">
        <ele>1940.0</ele>
        <time>2014-06-30T15:17:50Z</time>
      </trkpt>
      <trkpt lat="40.768883" lon="-4.419683">
        <ele>1943.0</ele>
        <time>2014-06-30T15:17:51Z</time>
      </trkpt>
      <trkpt lat="40.768900" lon="-4.419533">
        <ele>1947.0</ele>
        <time>2014-06-30T15:17:52Z</time>
      </trkpt>
      <trkpt lat="40.768933" lon="-4.419417">
        <ele>1949.0</ele>
        <time>2014-06-30T15:17:53Z</time>
      </trkpt>
      <trkpt lat="40.768983" lon="-4.419317">
        <ele>1951.0</ele>
        <time>2014-06-30T15:17:54Z</time>
      </trkpt>
      <trkpt lat="40.769033" lon="-4.419250">
        <ele>1954.0</ele>
        <time>2014-06-30T15:17:55Z</time>
      </trkpt>
      <trkpt lat="40.769050" lon="-4.419217">
        <ele>1956.0</ele>
        <time>2014-06-30T15:17:56Z</time>
      </trkpt>
      <trkpt lat="40.769050" lon="-4.419200">
        <ele>1958.0</ele>
        <time>2014-06-30T15:17:57Z</time>
      </trkpt>
      <trkpt lat="40.769033" lon="-4.419233">
        <ele>1953.0</ele>
        <time>2014-06-30T15:17:58Z</time>
      </trkpt>
      <trkpt lat="40.769000" lon="-4.419267">
        <ele>1953.0</ele>
        <time>2014-06-30T15:17:59Z</time>
      </trkpt>
      <trkpt lat="40.768950" lon="-4.419300">
        <ele>1953.0</ele>
        <time>2014-06-30T15:18:00Z</time>
      </trkpt>
      <trkpt lat="40.768900" lon="-4.419300">
        <ele>1954.0</ele>
        <time>2014-06-30T15:18:01Z</time>
      </trkpt>
      <trkpt lat="40.768833" lon="-4.419317">
        <ele>1955.0</ele>
        <time>2014-06-30T15:18:02Z</time>
      </trkpt>
      <trkpt lat="40.768767" lon="-4.419317">
        <ele>1955.0</ele>
        <time>2014-06-30T15:18:03Z</time>
      </trkpt>
      <trkpt lat="40.768667" lon="-4.419333">
        <ele>1956.0</ele>
        <time>2014-06-30T15:18:04Z</time>
      </trkpt>
      <trkpt lat="40.768567" lon="-4.419350">
        <ele>1957.0</ele>
        <time>2014-06-30T15:18:05Z</time>
      </trkpt>
      <trkpt lat="40.768467" lon="-4.419317">
        <ele>1958.0</ele>
        <time>2014-06-30T15:18:06Z</time>
      </trkpt>
      <trkpt lat="40.768367" lon="-4.419267">
        <ele>1960.0</ele>
        <time>2014-06-30T15:18:07Z</time>
      </trkpt>
      <trkpt lat="40.768267" lon="-4.419183">
        <ele>1962.0</ele>
        <time>2014-06-30T15:18:08Z</time>
      </trkpt>
      <trkpt lat="40.768183" lon="-4.419100">
        <ele>1965.0</ele>
        <time>2014-06-30T15:18:09Z</time>
      </trkpt>
      <trkpt lat="40.768083" lon="-4.419017">
        <ele>1966.0</ele>
        <time>2014-06-30T15:18:10Z</time>
      </trkpt>
      <trkpt lat="40.768000" lon="-4.418917">
        <ele>1968.0</ele>
        <time>2014-06-30T15:18:11Z</time>
      </trkpt>
      <trkpt lat="40.767900" lon="-4.418817">
        <ele>1969.0</ele>
        <time>2014-06-30T15:18:12Z</time>
      </trkpt>
      <trkpt lat="40.767800" lon="-4.418683">
        <ele>1970.0</ele>
        <time>2014-06-30T15:18:13Z</time>
      </trkpt>
      <trkpt lat="40.767717" lon="-4.418517">
        <ele>1972.0</ele>
        <time>2014-06-30T15:18:14Z</time>
      </trkpt>
      <trkpt lat="40.767683" lon="-4.418333">
        <ele>1973.0</ele>
        <time>2014-06-30T15:18:15Z</time>
      </trkpt>
      <trkpt lat="40.767667" lon="-4.418150">
        <ele>1974.0</ele>
        <time>2014-06-30T15:18:16Z</time>
      </trkpt>
      <trkpt lat="40.767683" lon="-4.417983">
        <ele>1976.0</ele>
        <time>2014-06-30T15:18:17Z</time>
      </trkpt>
      <trkpt lat="40.767700" lon="-4.417833">
        <ele>1977.0</ele>
        <time>2014-06-30T15:18:18Z</time>
      </trkpt>
      <trkpt lat="40.767733" lon="-4.417700">
        <ele>1978.0</ele>
        <time>2014-06-30T15:18:19Z</time>
      </trkpt>
      <trkpt lat="40.767767" lon="-4.417567">
        <ele>1977.0</ele>
        <time>2014-06-30T15:18:20Z</time>
      </trkpt>
      <trkpt lat="40.767833" lon="-4.417483">
        <ele>1977.0</ele>
        <time>2014-06-30T15:18:21Z</time>
      </trkpt>
      <trkpt lat="40.767883" lon="-4.417433">
        <ele>1977.0</ele>
        <time>2014-06-30T15:18:22Z</time>
      </trkpt>
      <trkpt lat="40.767933" lon="-4.417450">
        <ele>1976.0</ele>
        <time>2014-06-30T15:18:23Z</time>
      </trkpt>
      <trkpt lat="40.767967" lon="-4.417500">
        <ele>1975.0</ele>
        <time>2014-06-30T15:18:24Z</time>
      </trkpt>
      <trkpt lat="40.767983" lon="-4.417550">
        <ele>1975.0</ele>
        <time>2014-06-30T15:18:25Z</time>
      </trkpt>
      <trkpt lat="40.768017" lon="-4.417583">
        <ele>1975.0</ele>
        <time>2014-06-30T15:18:26Z</time>
      </trkpt>
      <trkpt lat="40.768033" lon="-4.417633">
        <ele>1975.0</ele>
        <time>2014-06-30T15:18:27Z</time>
      </trkpt>
      <trkpt lat="40.768050" lon="-4.417667">
        <ele>1975.0</ele>
        <time>2014-06-30T15:18:28Z</time>
      </trkpt>
      <trkpt lat="40.768050" lon="-4.417700">
        <ele>1976.0</ele>
        <time>2014-06-30T15:18:29Z</time>
      </trkpt>
      <trkpt lat="40.768033" lon="-4.417733">
        <ele>1976.0</ele>
        <time>2014-06-30T15:18:30Z</time>
      </trkpt>
      <trkpt lat="40.768000" lon="-4.417750">
        <ele>1977.0</ele>
        <time>2014-06-30T15:18:31Z</time>
      </trkpt>
      <trkpt lat="40.767983" lon="-4.417783">
        <ele>1977.0</ele>
        <time>2014-06-30T15:18:32Z</time>
      </trkpt>
      <trkpt lat="40.767950" lon="-4.417800">
        <ele>1977.0</ele>
        <time>2014-06-30T15:18:33Z</time>
      </trkpt>
      <trkpt lat="40.767917" lon="-4.417800">
        <ele>1977.0</ele>
        <time>2014-06-30T15:18:34Z</time>
      </trkpt>
      <trkpt lat="40.767867" lon="-4.417817">
        <ele>1977.0</ele>
        <time>2014-06-30T15:18:35Z</time>
      </trkpt>
      <trkpt lat="40.767783" lon="-4.417833">
        <ele>1978.0</ele>
        <time>2014-06-30T15:18:36Z</time>
      </trkpt>
      <trkpt lat="40.767683" lon="-4.417850">
        <ele>1979.0</ele>
        <time>2014-06-30T15:18:37Z</time>
      </trkpt>
      <trkpt lat="40.767583" lon="-4.417817">
        <ele>1981.0</ele>
        <time>2014-06-30T15:18:38Z</time>
      </trkpt>
      <trkpt lat="40.767500" lon="-4.417767">
        <ele>1983.0</ele>
        <time>2014-06-30T15:18:39Z</time>
      </trkpt>
      <trkpt lat="40.767417" lon="-4.417700">
        <ele>1986.0</ele>
        <time>2014-06-30T15:18:40Z</time>
      </trkpt>
      <trkpt lat="40.767317" lon="-4.417633">
        <ele>1989.0</ele>
        <time>2014-06-30T15:18:41Z</time>
      </trkpt>
      <trkpt lat="40.767233" lon="-4.417550">
        <ele>1992.0</ele>
        <time>2014-06-30T15:18:42Z</time>
      </trkpt>
      <trkpt lat="40.767133" lon="-4.417450">
        <ele>1993.0</ele>
        <time>2014-06-30T15:18:43Z</time>
      </trkpt>
      <trkpt lat="40.767050" lon="-4.417300">
        <ele>1995.0</ele>
        <time>2014-06-30T15:18:44Z</time>
      </trkpt>
      <trkpt lat="40.767000" lon="-4.417117">
        <ele>1996.0</ele>
        <time>2014-06-30T15:18:45Z</time>
      </trkpt>
      <trkpt lat="40.767000" lon="-4.416950">
        <ele>1998.0</ele>
        <time>2014-06-30T15:18:46Z</time>
      </trkpt>
      <trkpt lat="40.767033" lon="-4.416817">
        <ele>1999.0</ele>
        <time>2014-06-30T15:18:47Z</time>
      </trkpt>
      <trkpt lat="40.767083" lon="-4.416717">
        <ele>2001.0</ele>
        <time>2014-06-30T15:18:48Z</time>
      </trkpt>
      <trkpt lat="40.767133" lon="-4.416683">
        <ele>2003.0</ele>
        <time>2014-06-30T15:18:49Z</time>
      </trkpt>
      <trkpt lat="40.767183" lon="-4.416650">
        <ele>2006.0</ele>
        <time>2014-06-30T15:18:50Z</time>
      </trkpt>
      <trkpt lat="40.767217" lon="-4.416617">
        <ele>2007.0</ele>
        <time>2014-06-30T15:18:51Z</time>
      </trkpt>
      <trkpt lat="40.767250" lon="-4.416600">
        <ele>2008.0</ele>
        <time>2014-06-30T15:18:52Z</time>
      </trkpt>
      <trkpt lat="40.767283" lon="-4.416617">
        <ele>2008.0</ele>
        <time>2014-06-30T15:18:53Z</time>
      </trkpt>
      <trkpt lat="40.767317" lon="-4.416667">
        <ele>2008.0</ele>
        <time>2014-06-30T15:18:54Z</time>
      </trkpt>
      <trkpt lat="40.767300" lon="-4.416700">
        <ele>2006.0</ele>
        <time>2014-06-30T15:18:55Z</time>
      </trkpt>
      <trkpt lat="40.767250" lon="-4.416750">
        <ele>2006.0</ele>
        <time>2014-06-30T15:18:56Z</time>
      </trkpt>
      <trkpt lat="40.767200" lon="-4.416783">
        <ele>2007.0</ele>
        <time>2014-06-30T15:18:57Z</time>
      </trkpt>
      <trkpt lat="40.767133" lon="-4.416800">
        <ele>2008.0</ele>
        <time>2014-06-30T15:18:58Z</time>
      </trkpt>
      <trkpt lat="40.767067" lon="-4.416817">
        <ele>2008.0</ele>
        <time>2014-06-30T15:18:59Z</time>
      </trkpt>
      <trkpt lat="40.767000" lon="-4.416817">
        <ele>2009.0</ele>
        <time>2014-06-30T15:19:00Z</time>
      </trkpt>
      <trkpt lat="40.766917" lon="-4.416833">
        <ele>2010.0</ele>
        <time>2014-06-30T15:19:01Z</time>
      </trkpt>
      <trkpt lat="40.766817" lon="-4.416817">
        <ele>2011.0</ele>
        <time>2014-06-30T15:19:02Z</time>
      </trkpt>
      <trkpt lat="40.766717" lon="-4.416783">
        <ele>2011.0</ele>
        <time>2014-06-30T15:19:03Z</time>
      </trkpt>
      <trkpt lat="40.766600" lon="-4.416733">
        <ele>2013.0</ele>
        <time>2014-06-30T15:19:04Z</time>
      </trkpt>
      <trkpt lat="40.766500" lon="-4.416650">
        <ele>2014.0</ele>
        <time>2014-06-30T15:19:05Z</time>
      </trkpt>
      <trkpt lat="40.766400" lon="-4.416567">
        <ele>2016.0</ele>
        <time>2014-06-30T15:19:06Z</time>
      </trkpt>
      <trkpt lat="40.766317" lon="-4.416467">
        <ele>2018.0</ele>
        <time>2014-06-30T15:19:07Z</time>
      </trkpt>
      <trkpt lat="40.766217" lon="-4.416367">
        <ele>2020.0</ele>
        <time>2014-06-30T15:19:08Z</time>
      </trkpt>
      <trkpt lat="40.766133" lon="-4.416250">
        <ele>2022.0</ele>
        <time>2014-06-30T15:19:09Z</time>
      </trkpt>
      <trkpt lat="40.766050" lon="-4.416100">
        <ele>2023.0</ele>
        <time>2014-06-30T15:19:10Z</time>
      </trkpt>
      <trkpt lat="40.766000" lon="-4.415950">
        <ele>2025.0</ele>
        <time>2014-06-30T15:19:11Z</time>
      </trkpt>
      <trkpt lat="40.765967" lon="-4.415800">
        <ele>2027.0</ele>
        <time>2014-06-30T15:19:12Z</time>
      </trkpt>
      <trkpt lat="40.765950" lon="-4.415650">
        <ele>2028.0</ele>
        <time>2014-06-30T15:19:13Z</time>
      </trkpt>
      <trkpt lat="40.765967" lon="-4.415500">
        <ele>2030.0</ele>
        <time>2014-06-30T15:19:14Z</time>
      </trkpt>
      <trkpt lat="40.765983" lon="-4.415383">
        <ele>2032.0</ele>
        <time>2014-06-30T15:19:15Z</time>
      </trkpt>
      <trkpt lat="40.766000" lon="-4.415267">
        <ele>2034.0</ele>
        <time>2014-06-30T15:19:16Z</time>
      </trkpt>
      <trkpt lat="40.766050" lon="-4.415200">
        <ele>2035.0</ele>
        <time>2014-06-30T15:19:17Z</time>
      </trkpt>
      <trkpt lat="40.766083" lon="-4.415167">
        <ele>2037.0</ele>
        <time>2014-06-30T15:19:18Z</time>
      </trkpt>
      <trkpt lat="40.766133" lon="-4.415150">
        <ele>2038.0</ele>
        <time>2014-06-30T15:19:19Z</time>
      </trkpt>
      <trkpt lat="40.766167" lon="-4.415167">
        <ele>2039.0</ele>
        <time>2014-06-30T15:19:20Z</time>
      </trkpt>
      <trkpt lat="40.766183" lon="-4.415167">
        <ele>2040.0</ele>
        <time>2014-06-30T15:19:21Z</time>
      </trkpt>
      <trkpt lat="40.766217" lon="-4.415183">
        <ele>2038.0</ele>
        <time>2014-06-30T15:19:22Z</time>
      </trkpt>
      <trkpt lat="40.766250" lon="-4.415200">
        <ele>2039.0</ele>
        <time>2014-06-30T15:19:23Z</time>
      </trkpt>
      <trkpt lat="40.766267" lon="-4.415233">
        <ele>2039.0</ele>
        <time>2014-06-30T15:19:24Z</time>
      </trkpt>
      <trkpt lat="40.766250" lon="-4.415283">
        <ele>2040.0</ele>
        <time>2014-06-30T15:19:25Z</time>
      </trkpt>
      <trkpt lat="40.766233" lon="-4.415333">
        <ele>2040.0</ele>
        <time>2014-06-30T15:19:26Z</time>
      </trkpt>
      <trkpt lat="40.766183" lon="-4.415367">
        <ele>2040.0</ele>
        <time>2014-06-30T15:19:27Z</time>
      </trkpt>
      <trkpt lat="40.766133" lon="-4.415383">
        <ele>2042.0</ele>
        <time>2014-06-30T15:19:28Z</time>
      </trkpt>
      <trkpt lat="40.766083" lon="-4.415400">
        <ele>2042.0</ele>
        <time>2014-06-30T15:19:29Z</time>
      </trkpt>
      <trkpt lat="40.766033" lon="-4.415417">
        <ele>2043.0</ele>
        <time>2014-06-30T15:19:30Z</time>
      </trkpt>
      <trkpt lat="40.765983" lon="-4.415450">
        <ele>2044.0</ele>
        <time>2014-06-30T15:19:31Z</time>
      </trkpt>
      <trkpt lat="40.765917" lon="-4.415500">
        <ele>2044.0</ele>
        <time>2014-06-30T15:19:32Z</time>
      </trkpt>
      <trkpt lat="40.765833" lon="-4.415533">
        <ele>2046.0</ele>
        <time>2014-06-30T15:19:33Z</time>
      </trkpt>
      <trkpt lat="40.765733" lon="-4.415517">
        <ele>2048.0</ele>
        <time>2014-06-30T15:19:34Z</time>
      </trkpt>
      <trkpt lat="40.765617" lon="-4.415483">
        <ele>2051.0</ele>
        <time>2014-06-30T15:19:35Z</time>
      </trkpt>
      <trkpt lat="40.765517" lon="-4.415417">
        <ele>2053.0</ele>
        <time>2014-06-30T15:19:36Z</time>
      </trkpt>
      <trkpt lat="40.765417" lon="-4.415333">
        <ele>2056.0</ele>
        <time>2014-06-30T15:19:37Z</time>
      </trkpt>
      <trkpt lat="40.765317" lon="-4.415233">
        <ele>2058.0</ele>
        <time>2014-06-30T15:19:38Z</time>
      </trkpt>
      <trkpt lat="40.765217" lon="-4.415117">
        <ele>2060.0</ele>
        <time>2014-06-30T15:19:39Z</time>
      </trkpt>
      <trkpt lat="40.765150" lon="-4.414967">
        <ele>2063.0</ele>
        <time>2014-06-30T15:19:40Z</time>
      </trkpt>
      <trkpt lat="40.765083" lon="-4.414800">
        <ele>2065.0</ele>
        <time>2014-06-30T15:19:41Z</time>
      </trkpt>
      <trkpt lat="40.765067" lon="-4.414650">
        <ele>2067.0</ele>
        <time>2014-06-30T15:19:42Z</time>
      </trkpt>
      <trkpt lat="40.765067" lon="-4.414500">
        <ele>2070.0</ele>
        <time>2014-06-30T15:19:43Z</time>
      </trkpt>
      <trkpt lat="40.765083" lon="-4.414367">
        <ele>2073.0</ele>
        <time>2014-06-30T15:19:44Z</time>
      </trkpt>
      <trkpt lat="40.765133" lon="-4.414283">
        <ele>2074.0</ele>
        <time>2014-06-30T15:19:45Z</time>
      </trkpt>
      <trkpt lat="40.765167" lon="-4.414217">
        <ele>2077.0</ele>
        <time>2014-06-30T15:19:46Z</time>
      </trkpt>
      <trkpt lat="40.765200" lon="-4.414200">
        <ele>2079.0</ele>
        <time>2014-06-30T15:19:47Z</time>
      </trkpt>
      <trkpt lat="40.765217" lon="-4.414217">
        <ele>2081.0</ele>
        <time>2014-06-30T15:19:48Z</time>
      </trkpt>
      <trkpt lat="40.765233" lon="-4.414250">
        <ele>2083.0</ele>
        <time>2014-06-30T15:19:49Z</time>
      </trkpt>
      <trkpt lat="40.765217" lon="-4.414283">
        <ele>2086.0</ele>
        <time>2014-06-30T15:19:50Z</time>
      </trkpt>
      <trkpt lat="40.765183" lon="-4.414317">
        <ele>2088.0</ele>
        <time>2014-06-30T15:19:51Z</time>
      </trkpt>
      <trkpt lat="40.765133" lon="-4.414300">
        <ele>2084.0</ele>
        <time>2014-06-30T15:19:52Z</time>
      </trkpt>
      <trkpt lat="40.765083" lon="-4.414317">
        <ele>2085.0</ele>
        <time>2014-06-30T15:19:53Z</time>
      </trkpt>
      <trkpt lat="40.765050" lon="-4.414333">
        <ele>2085.0</ele>
        <time>2014-06-30T15:19:54Z</time>
      </trkpt>
      <trkpt lat="40.765000" lon="-4.414367">
        <ele>2085.0</ele>
        <time>2014-06-30T15:19:55Z</time>
      </trkpt>
      <trkpt lat="40.764933" lon="-4.414400">
        <ele>2086.0</ele>
        <time>2014-06-30T15:19:56Z</time>
      </trkpt>
      <trkpt lat="40.764867" lon="-4.414450">
        <ele>2086.0</ele>
        <time>2014-06-30T15:19:57Z</time>
      </trkpt>
      <trkpt lat="40.764767" lon="-4.414467">
        <ele>2088.0</ele>
        <time>2014-06-30T15:19:58Z</time>
      </trkpt>
      <trkpt lat="40.764650" lon="-4.414467">
        <ele>2090.0</ele>
        <time>2014-06-30T15:19:59Z</time>
      </trkpt>
      <trkpt lat="40.764533" lon="-4.414433">
        <ele>2091.0</ele>
        <time>2014-06-30T15:20:00Z</time>
      </trkpt>
      <trkpt lat="40.764417" lon="-4.414367">
        <ele>2092.0</ele>
        <time>2014-06-30T15:20:01Z</time>
      </trkpt>
      <trkpt lat="40.764283" lon="-4.414283">
        <ele>2093.0</ele>
        <time>2014-06-30T15:20:02Z</time>
      </trkpt>
      <trkpt lat="40.764167" lon="-4.414183">
        <ele>2094.0</ele>
        <time>2014-06-30T15:20:03Z</time>
      </trkpt>
      <trkpt lat="40.764083" lon="-4.414067">
        <ele>2096.0</ele>
        <time>2014-06-30T15:20:04Z</time>
      </trkpt>
      <trkpt lat="40.764017" lon="-4.413917">
        <ele>2099.0</ele>
        <time>2014-06-30T15:20:05Z</time>
      </trkpt>
      <trkpt lat="40.763967" lon="-4.413783">
        <ele>2100.0</ele>
        <time>2014-06-30T15:20:06Z</time>
      </trkpt>
      <trkpt lat="40.763950" lon="-4.413633">
        <ele>2103.0</ele>
        <time>2014-06-30T15:20:07Z</time>
      </trkpt>
      <trkpt lat="40.763950" lon="-4.413500">
        <ele>2105.0</ele>
        <time>2014-06-30T15:20:08Z</time>
      </trkpt>
      <trkpt lat="40.763983" lon="-4.413367">
        <ele>2108.0</ele>
        <time>2014-06-30T15:20:09Z</time>
      </trkpt>
      <trkpt lat="40.764000" lon="-4.413267">
        <ele>2110.0</ele>
        <time>2014-06-30T15:20:10Z</time>
      </trkpt>
      <trkpt lat="40.764050" lon="-4.413183">
        <ele>2105.0</ele>
        <time>2014-06-30T15:20:11Z</time>
      </trkpt>
      <trkpt lat="40.764083" lon="-4.413117">
        <ele>2106.0</ele>
        <time>2014-06-30T15:20:12Z</time>
      </trkpt>
      <trkpt lat="40.764133" lon="-4.413083">
        <ele>2108.0</ele>
        <time>2014-06-30T15:20:13Z</time>
      </trkpt>
      <trkpt lat="40.764167" lon="-4.413033">
        <ele>2110.0</ele>
        <time>2014-06-30T15:20:14Z</time>
      </trkpt>
      <trkpt lat="40.764200" lon="-4.413000">
        <ele>2111.0</ele>
        <time>2014-06-30T15:20:15Z</time>
      </trkpt>
      <trkpt lat="40.764233" lon="-4.412950">
        <ele>2112.0</ele>
        <time>2014-06-30T15:20:16Z</time>
      </trkpt>
      <trkpt lat="40.764250" lon="-4.412917">
        <ele>2113.0</ele>
        <time>2014-06-30T15:20:17Z</time>
      </trkpt>
      <trkpt lat="40.764283" lon="-4.412917">
        <ele>2114.0</ele>
        <time>2014-06-30T15:20:18Z</time>
      </trkpt>
      <trkpt lat="40.764300" lon="-4.412950">
        <ele>2115.0</ele>
        <time>2014-06-30T15:20:19Z</time>
      </trkpt>
      <trkpt lat="40.764283" lon="-4.413000">
        <ele>2116.0</ele>
        <time>2014-06-30T15:20:20Z</time>
      </trkpt>
      <trkpt lat="40.764267" lon="-4.413033">
        <ele>2117.0</ele>
        <time>2014-06-30T15:20:21Z</time>
      </trkpt>
      <trkpt lat="40.764233" lon="-4.413083">
        <ele>2118.0</ele>
        <time>2014-06-30T15:20:22Z</time>
      </trkpt>
      <trkpt lat="40.764200" lon="-4.413117">
        <ele>2118.0</ele>
        <time>2014-06-30T15:20:23Z</time>
      </trkpt>
      <trkpt lat="40.764150" lon="-4.413133">
        <ele>2119.0</ele>
        <time>2014-06-30T15:20:24Z</time>
      </trkpt>
      <trkpt lat="40.764100" lon="-4.413167">
        <ele>2119.0</ele>
        <time>2014-06-30T15:20:25Z</time>
      </trkpt>
      <trkpt lat="40.764050" lon="-4.413200">
        <ele>2120.0</ele>
        <time>2014-06-30T15:20:26Z</time>
      </trkpt>
      <trkpt lat="40.764000" lon="-4.413233">
        <ele>2121.0</ele>
        <time>2014-06-30T15:20:27Z</time>
      </trkpt>
      <trkpt lat="40.763933" lon="-4.413250">
        <ele>2122.0</ele>
        <time>2014-06-30T15:20:28Z</time>
      </trkpt>
      <trkpt lat="40.763850" lon="-4.413267">
        <ele>2123.0</ele>
        <time>2014-06-30T15:20:29Z</time>
      </trkpt>
      <trkpt lat="40.763767" lon="-4.413250">
        <ele>2125.0</ele>
        <time>2014-06-30T15:20:30Z</time>
      </trkpt>
      <trkpt lat="40.763683" lon="-4.413200">
        <ele>2126.0</ele>
        <time>2014-06-30T15:20:31Z</time>
      </trkpt>
      <trkpt lat="40.763583" lon="-4.413117">
        <ele>2128.0</ele>
        <time>2014-06-30T15:20:32Z</time>
      </trkpt>
      <trkpt lat="40.763483" lon="-4.413000">
        <ele>2129.0</ele>
        <time>2014-06-30T15:20:33Z</time>
      </trkpt>
      <trkpt lat="40.763367" lon="-4.412883">
        <ele>2129.0</ele>
        <time>2014-06-30T15:20:34Z</time>
      </trkpt>
      <trkpt lat="40.763283" lon="-4.412750">
        <ele>2130.0</ele>
        <time>2014-06-30T15:20:35Z</time>
      </trkpt>
      <trkpt lat="40.763183" lon="-4.412617">
        <ele>2131.0</ele>
        <time>2014-06-30T15:20:36Z</time>
      </trkpt>
      <trkpt lat="40.763117" lon="-4.412467">
        <ele>2133.0</ele>
        <time>2014-06-30T15:20:37Z</time>
      </trkpt>
      <trkpt lat="40.763067" lon="-4.412300">
        <ele>2134.0</ele>
        <time>2014-06-30T15:20:38Z</time>
      </trkpt>
      <trkpt lat="40.763050" lon="-4.412133">
        <ele>2135.0</ele>
        <time>2014-06-30T15:20:39Z</time>
      </trkpt>
      <trkpt lat="40.763083" lon="-4.412000">
        <ele>2136.0</ele>
        <time>2014-06-30T15:20:40Z</time>
      </trkpt>
      <trkpt lat="40.763100" lon="-4.411867">
        <ele>2138.0</ele>
        <time>2014-06-30T15:20:41Z</time>
      </trkpt>
      <trkpt lat="40.763117" lon="-4.411750">
        <ele>2141.0</ele>
        <time>2014-06-30T15:20:42Z</time>
      </trkpt>
      <trkpt lat="40.763117" lon="-4.411667">
        <ele>2141.0</ele>
        <time>2014-06-30T15:20:43Z</time>
      </trkpt>
      <trkpt lat="40.763133" lon="-4.411600">
        <ele>2142.0</ele>
        <time>2014-06-30T15:20:44Z</time>
      </trkpt>
      <trkpt lat="40.763183" lon="-4.411533">
        <ele>2143.0</ele>
        <time>2014-06-30T15:20:45Z</time>
      </trkpt>
      <trkpt lat="40.763217" lon="-4.411500">
        <ele>2145.0</ele>
        <time>2014-06-30T15:20:46Z</time>
      </trkpt>
      <trkpt lat="40.763267" lon="-4.411467">
        <ele>2146.0</ele>
        <time>2014-06-30T15:20:47Z</time>
      </trkpt>
      <trkpt lat="40.763333" lon="-4.411450">
        <ele>2147.0</ele>
        <time>2014-06-30T15:20:48Z</time>
      </trkpt>
      <trkpt lat="40.763383" lon="-4.411450">
        <ele>2149.0</ele>
        <time>2014-06-30T15:20:49Z</time>
      </trkpt>
      <trkpt lat="40.763433" lon="-4.411450">
        <ele>2151.0</ele>
        <time>2014-06-30T15:20:50Z</time>
      </trkpt>
      <trkpt lat="40.763467" lon="-4.411450">
        <ele>2153.0</ele>
        <time>2014-06-30T15:20:51Z</time>
      </trkpt>
      <trkpt lat="40.763500" lon="-4.411450">
        <ele>2155.0</ele>
        <time>2014-06-30T15:20:52Z</time>
      </trkpt>
      <trkpt lat="40.763517" lon="-4.411450">
        <ele>2158.0</ele>
        <time>2014-06-30T15:20:53Z</time>
      </trkpt>
      <trkpt lat="40.763533" lon="-4.411450">
        <ele>2156.0</ele>
        <time>2014-06-30T15:20:54Z</time>
      </trkpt>
      <trkpt lat="40.763567" lon="-4.411450">
        <ele>2157.0</ele>
        <time>2014-06-30T15:20:55Z</time>
      </trkpt>
      <trkpt lat="40.763583" lon="-4.411467">
        <ele>2158.0</ele>
        <time>2014-06-30T15:20:56Z</time>
      </trkpt>
      <trkpt lat="40.763617" lon="-4.411483">
        <ele>2159.0</ele>
        <time>2014-06-30T15:20:57Z</time>
      </trkpt>
      <trkpt lat="40.763617" lon="-4.411517">
        <ele>2160.0</ele>
        <time>2014-06-30T15:20:58Z</time>
      </trkpt>
      <trkpt lat="40.763617" lon="-4.411550">
        <ele>2161.0</ele>
        <time>2014-06-30T15:20:59Z</time>
      </trkpt>
      <trkpt lat="40.763600" lon="-4.411567">
        <ele>2162.0</ele>
        <time>2014-06-30T15:21:00Z</time>
      </trkpt>
      <trkpt lat="40.763567" lon="-4.411583">
        <ele>2163.0</ele>
        <time>2014-06-30T15:21:01Z</time>
      </trkpt>
      <trkpt lat="40.763533" lon="-4.411633">
        <ele>2163.0</ele>
        <time>2014-06-30T15:21:02Z</time>
      </trkpt>
      <trkpt lat="40.763483" lon="-4.411683">
        <ele>2163.0</ele>
        <time>2014-06-30T15:21:03Z</time>
      </trkpt>
      <trkpt lat="40.763433" lon="-4.411717">
        <ele>2164.0</ele>
        <time>2014-06-30T15:21:04Z</time>
      </trkpt>
      <trkpt lat="40.763400" lon="-4.411750">
        <ele>2165.0</ele>
        <time>2014-06-30T15:21:05Z</time>
      </trkpt>
      <trkpt lat="40.763333" lon="-4.411750">
        <ele>2166.0</ele>
        <time>2014-06-30T15:21:06Z</time>
      </trkpt>
      <trkpt lat="40.763267" lon="-4.411767">
        <ele>2167.0</ele>
        <time>2014-06-30T15:21:07Z</time>
      </trkpt>
      <trkpt lat="40.763217" lon="-4.411783">
        <ele>2168.0</ele>
        <time>2014-06-30T15:21:08Z</time>
      </trkpt>
      <trkpt lat="40.763117" lon="-4.411750">
        <ele>2169.0</ele>
        <time>2014-06-30T15:21:09Z</time>
      </trkpt>
      <trkpt lat="40.763033" lon="-4.411683">
        <ele>2170.0</ele>
        <time>2014-06-30T15:21:10Z</time>
      </trkpt>
      <trkpt lat="40.762933" lon="-4.411567">
        <ele>2171.0</ele>
        <time>2014-06-30T15:21:11Z</time>
      </trkpt>
      <trkpt lat="40.762850" lon="-4.411433">
        <ele>2172.0</ele>
        <time>2014-06-30T15:21:12Z</time>
      </trkpt>
      <trkpt lat="40.762783" lon="-4.411300">
        <ele>2172.0</ele>
        <time>2014-06-30T15:21:13Z</time>
      </trkpt>
      <trkpt lat="40.762733" lon="-4.411133">
        <ele>2173.0</ele>
        <time>2014-06-30T15:21:14Z</time>
      </trkpt>
      <trkpt lat="40.762700" lon="-4.410967">
        <ele>2174.0</ele>
        <time>2014-06-30T15:21:15Z</time>
      </trkpt>
      <trkpt lat="40.762683" lon="-4.410800">
        <ele>2174.0</ele>
        <time>2014-06-30T15:21:16Z</time>
      </trkpt>
      <trkpt lat="40.762683" lon="-4.410617">
        <ele>2175.0</ele>
        <time>2014-06-30T15:21:17Z</time>
      </trkpt>
      <trkpt lat="40.762700" lon="-4.410450">
        <ele>2176.0</ele>
        <time>2014-06-30T15:21:18Z</time>
      </trkpt>
      <trkpt lat="40.762750" lon="-4.410300">
        <ele>2177.0</ele>
        <time>2014-06-30T15:21:19Z</time>
      </trkpt>
      <trkpt lat="40.762800" lon="-4.410200">
        <ele>2179.0</ele>
        <time>2014-06-30T15:21:20Z</time>
      </trkpt>
      <trkpt lat="40.762867" lon="-4.410133">
        <ele>2181.0</ele>
        <time>2014-06-30T15:21:21Z</time>
      </trkpt>
      <trkpt lat="40.762900" lon="-4.410067">
        <ele>2181.0</ele>
        <time>2014-06-30T15:21:22Z</time>
      </trkpt>
      <trkpt lat="40.762933" lon="-4.410017">
        <ele>2181.0</ele>
        <time>2014-06-30T15:21:23Z</time>
      </trkpt>
      <trkpt lat="40.762967" lon="-4.409950">
        <ele>2183.0</ele>
        <time>2014-06-30T15:21:24Z</time>
      </trkpt>
      <trkpt lat="40.763000" lon="-4.409900">
        <ele>2184.0</ele>
        <time>2014-06-30T15:21:25Z</time>
      </trkpt>
      <trkpt lat="40.763033" lon="-4.409850">
        <ele>2185.0</ele>
        <time>2014-06-30T15:21:26Z</time>
      </trkpt>
      <trkpt lat="40.763100" lon="-4.409850">
        <ele>2185.0</ele>
        <time>2014-06-30T15:21:27Z</time>
      </trkpt>
      <trkpt lat="40.763150" lon="-4.409867">
        <ele>2186.0</ele>
        <time>2014-06-30T15:21:28Z</time>
      </trkpt>
      <trkpt lat="40.763183" lon="-4.409867">
        <ele>2188.0</ele>
        <time>2014-06-30T15:21:29Z</time>
      </trkpt>
      <trkpt lat="40.763217" lon="-4.409850">
        <ele>2189.0</ele>
        <time>2014-06-30T15:21:30Z</time>
      </trkpt>
      <trkpt lat="40.763250" lon="-4.409817">
        <ele>2191.0</ele>
        <time>2014-06-30T15:21:31Z</time>
      </trkpt>
      <trkpt lat="40.763250" lon="-4.409800">
        <ele>2192.0</ele>
        <time>2014-06-30T15:21:32Z</time>
      </trkpt>
      <trkpt lat="40.763267" lon="-4.409833">
        <ele>2192.0</ele>
        <time>2014-06-30T15:21:33Z</time>
      </trkpt>
      <trkpt lat="40.763233" lon="-4.409867">
        <ele>2193.0</ele>
        <time>2014-06-30T15:21:34Z</time>
      </trkpt>
      <trkpt lat="40.763200" lon="-4.409900">
        <ele>2193.0</ele>
        <time>2014-06-30T15:21:35Z</time>
      </trkpt>
      <trkpt lat="40.763150" lon="-4.409917">
        <ele>2194.0</ele>
        <time>2014-06-30T15:21:36Z</time>
      </trkpt>
      <trkpt lat="40.763083" lon="-4.409933">
        <ele>2194.0</ele>
        <time>2014-06-30T15:21:37Z</time>
      </trkpt>
      <trkpt lat="40.763000" lon="-4.409950">
        <ele>2195.0</ele>
        <time>2014-06-30T15:21:38Z</time>
      </trkpt>
      <trkpt lat="40.762900" lon="-4.409983">
        <ele>2196.0</ele>
        <time>2014-06-30T15:21:39Z</time>
      </trkpt>
      <trkpt lat="40.762800" lon="-4.409967">
        <ele>2198.0</ele>
        <time>2014-06-30T15:21:40Z</time>
      </trkpt>
      <trkpt lat="40.762683" lon="-4.409900">
        <ele>2199.0</ele>
        <time>2014-06-30T15:21:41Z</time>
      </trkpt>
      <trkpt lat="40.762567" lon="-4.409783">
        <ele>2200.0</ele>
        <time>2014-06-30T15:21:42Z</time>
      </trkpt>
      <trkpt lat="40.762500" lon="-4.409617">
        <ele>2201.0</ele>
        <time>2014-06-30T15:21:43Z</time>
      </trkpt>
      <trkpt lat="40.762450" lon="-4.409417">
        <ele>2202.0</ele>
        <time>2014-06-30T15:21:44Z</time>
      </trkpt>
      <trkpt lat="40.762433" lon="-4.409250">
        <ele>2203.0</ele>
        <time>2014-06-30T15:21:45Z</time>
      </trkpt>
      <trkpt lat="40.762433" lon="-4.409133">
        <ele>2205.0</ele>
        <time>2014-06-30T15:21:46Z</time>
      </trkpt>
      <trkpt lat="40.762433" lon="-4.409017">
        <ele>2208.0</ele>
        <time>2014-06-30T15:21:47Z</time>
      </trkpt>
      <trkpt lat="40.762450" lon="-4.408900">
        <ele>2209.0</ele>
        <time>2014-06-30T15:21:48Z</time>
      </trkpt>
      <trkpt lat="40.762467" lon="-4.408783">
        <ele>2208.0</ele>
        <time>2014-06-30T15:21:49Z</time>
      </trkpt>
      <trkpt lat="40.762500" lon="-4.408667">
        <ele>2209.0</ele>
        <time>2014-06-30T15:21:50Z</time>
      </trkpt>
      <trkpt lat="40.762550" lon="-4.408567">
        <ele>2210.0</ele>
        <time>2014-06-30T15:21:51Z</time>
      </trkpt>
      <trkpt lat="40.762583" lon="-4.408533">
        <ele>2211.0</ele>
        <time>2014-06-30T15:21:52Z</time>
      </trkpt>
      <trkpt lat="40.762633" lon="-4.408517">
        <ele>2212.0</ele>
        <time>2014-06-30T15:21:53Z</time>
      </trkpt>
      <trkpt lat="40.762650" lon="-4.408533">
        <ele>2214.0</ele>
        <time>2014-06-30T15:21:54Z</time>
      </trkpt>
      <trkpt lat="40.762667" lon="-4.408550">
        <ele>2216.0</ele>
        <time>2014-06-30T15:21:55Z</time>
      </trkpt>
      <trkpt lat="40.762667" lon="-4.408533">
        <ele>2218.0</ele>
        <time>2014-06-30T15:21:56Z</time>
      </trkpt>
      <trkpt lat="40.762667" lon="-4.408533">
        <ele>2217.0</ele>
        <time>2014-06-30T15:21:57Z</time>
      </trkpt>
      <trkpt lat="40.762650" lon="-4.408550">
        <ele>2217.0</ele>
        <time>2014-06-30T15:21:58Z</time>
      </trkpt>
      <trkpt lat="40.762617" lon="-4.408583">
        <ele>2218.0</ele>
        <time>2014-06-30T15:21:59Z</time>
      </trkpt>
      <trkpt lat="40.762567" lon="-4.408617">
        <ele>2218.0</ele>
        <time>2014-06-30T15:22:00Z</time>
      </trkpt>
      <trkpt lat="40.762483" lon="-4.408617">
        <ele>2219.0</ele>
        <time>2014-06-30T15:22:01Z</time>
      </trkpt>
      <trkpt lat="40.762400" lon="-4.408600">
        <ele>2220.0</ele>
        <time>2014-06-30T15:22:02Z</time>
      </trkpt>
      <trkpt lat="40.762283" lon="-4.408550">
        <ele>2221.0</ele>
        <time>2014-06-30T15:22:03Z</time>
      </trkpt>
      <trkpt lat="40.762167" lon="-4.408450">
        <ele>2222.0</ele>
        <time>2014-06-30T15:22:04Z</time>
      </trkpt>
      <trkpt lat="40.762067" lon="-4.408333">
        <ele>2223.0</ele>
        <time>2014-06-30T15:22:05Z</time>
      </trkpt>
      <trkpt lat="40.761967" lon="-4.408167">
        <ele>2224.0</ele>
        <time>2014-06-30T15:22:06Z</time>
      </trkpt>
      <trkpt lat="40.761917" lon="-4.408000">
        <ele>2224.0</ele>
        <time>2014-06-30T15:22:07Z</time>
      </trkpt>
      <trkpt lat="40.761883" lon="-4.407833">
        <ele>2225.0</ele>
        <time>2014-06-30T15:22:08Z</time>
      </trkpt>
      <trkpt lat="40.761883" lon="-4.407683">
        <ele>2226.0</ele>
        <time>2014-06-30T15:22:09Z</time>
      </trkpt>
      <trkpt lat="40.761900" lon="-4.407550">
        <ele>2229.0</ele>
        <time>2014-06-30T15:22:10Z</time>
      </trkpt>
      <trkpt lat="40.761917" lon="-4.407433">
        <ele>2231.0</ele>
        <time>2014-06-30T15:22:11Z</time>
      </trkpt>
      <trkpt lat="40.761933" lon="-4.407333">
        <ele>2230.0</ele>
        <time>2014-06-30T15:22:12Z</time>
      </trkpt>
      <trkpt lat="40.761983" lon="-4.407250">
        <ele>2231.0</ele>
        <time>2014-06-30T15:22:13Z</time>
      </trkpt>
      <trkpt lat="40.762033" lon="-4.407150">
        <ele>2232.0</ele>
        <time>2014-06-30T15:22:14Z</time>
      </trkpt>
      <trkpt lat="40.762083" lon="-4.407083">
        <ele>2232.0</ele>
        <time>2014-06-30T15:22:15Z</time>
      </trkpt>
      <trkpt lat="40.762133" lon="-4.407033">
        <ele>2233.0</ele>
        <time>2014-06-30T15:22:16Z</time>
      </trkpt>
      <trkpt lat="40.762167" lon="-4.407017">
        <ele>2234.0</ele>
        <time>2014-06-30T15:22:17Z</time>
      </trkpt>
      <trkpt lat="40.762217" lon="-4.406983">
        <ele>2235.0</ele>
        <time>2014-06-30T15:22:18Z</time>
      </trkpt>
      <trkpt lat="40.762233" lon="-4.406967">
        <ele>2236.0</ele>
        <time>2014-06-30T15:22:19Z</time>
      </trkpt>
      <trkpt lat="40.762250" lon="-4.406950">
        <ele>2238.0</ele>
        <time>2014-06-30T15:22:20Z</time>
      </trkpt>
      <trkpt lat="40.762267" lon="-4.406933">
        <ele>2238.0</ele>
        <time>2014-06-30T15:22:21Z</time>
      </trkpt>
      <trkpt lat="40.762267" lon="-4.406967">
        <ele>2239.0</ele>
        <time>2014-06-30T15:22:22Z</time>
      </trkpt>
      <trkpt lat="40.762250" lon="-4.407017">
        <ele>2239.0</ele>
        <time>2014-06-30T15:22:23Z</time>
      </trkpt>
      <trkpt lat="40.762200" lon="-4.407067">
        <ele>2239.0</ele>
        <time>2014-06-30T15:22:24Z</time>
      </trkpt>
      <trkpt lat="40.762133" lon="-4.407100">
        <ele>2240.0</ele>
        <time>2014-06-30T15:22:25Z</time>
      </trkpt>
      <trkpt lat="40.762067" lon="-4.407117">
        <ele>2241.0</ele>
        <time>2014-06-30T15:22:26Z</time>
      </trkpt>
      <trkpt lat="40.761983" lon="-4.407117">
        <ele>2242.0</ele>
        <time>2014-06-30T15:22:27Z</time>
      </trkpt>
      <trkpt lat="40.761917" lon="-4.407133">
        <ele>2242.0</ele>
        <time>2014-06-30T15:22:28Z</time>
      </trkpt>
      <trkpt lat="40.761833" lon="-4.407150">
        <ele>2243.0</ele>
        <time>2014-06-30T15:22:29Z</time>
      </trkpt>
      <trkpt lat="40.761733" lon="-4.407150">
        <ele>2244.0</ele>
        <time>2014-06-30T15:22:30Z</time>
      </trkpt>
      <trkpt lat="40.761617" lon="-4.407133">
        <ele>2244.0</ele>
        <time>2014-06-30T15:22:31Z</time>
      </trkpt>
      <trkpt lat="40.761500" lon="-4.407083">
        <ele>2245.0</ele>
        <time>2014-06-30T15:22:32Z</time>
      </trkpt>
      <trkpt lat="40.761383" lon="-4.407000">
        <ele>2246.0</ele>
        <time>2014-06-30T15:22:33Z</time>
      </trkpt>
      <trkpt lat="40.761267" lon="-4.406883">
        <ele>2247.0</ele>
        <time>2014-06-30T15:22:34Z</time>
      </trkpt>
      <trkpt lat="40.761183" lon="-4.406783">
        <ele>2248.0</ele>
        <time>2014-06-30T15:22:35Z</time>
      </trkpt>
      <trkpt lat="40.761100" lon="-4.406667">
        <ele>2249.0</ele>
        <time>2014-06-30T15:22:36Z</time>
      </trkpt>
      <trkpt lat="40.761017" lon="-4.406533">
        <ele>2250.0</ele>
        <time>2014-06-30T15:22:37Z</time>
      </trkpt>
      <trkpt lat="40.760933" lon="-4.406383">
        <ele>2250.0</ele>
        <time>2014-06-30T15:22:38Z</time>
      </trkpt>
      <trkpt lat="40.760867" lon="-4.406233">
        <ele>2251.0</ele>
        <time>2014-06-30T15:22:39Z</time>
      </trkpt>
      <trkpt lat="40.760783" lon="-4.406067">
        <ele>2252.0</ele>
        <time>2014-06-30T15:22:40Z</time>
      </trkpt>
      <trkpt lat="40.760733" lon="-4.405900">
        <ele>2253.0</ele>
        <time>2014-06-30T15:22:41Z</time>
      </trkpt>
      <trkpt lat="40.760683" lon="-4.405717">
        <ele>2254.0</ele>
        <time>2014-06-30T15:22:42Z</time>
      </trkpt>
      <trkpt lat="40.760683" lon="-4.405550">
        <ele>2254.0</ele>
        <time>2014-06-30T15:22:43Z</time>
      </trkpt>
      <trkpt lat="40.760683" lon="-4.405417">
        <ele>2256.0</ele>
        <time>2014-06-30T15:22:44Z</time>
      </trkpt>
      <trkpt lat="40.760700" lon="-4.405283">
        <ele>2258.0</ele>
        <time>2014-06-30T15:22:45Z</time>
      </trkpt>
      <trkpt lat="40.760733" lon="-4.405167">
        <ele>2259.0</ele>
        <time>2014-06-30T15:22:46Z</time>
      </trkpt>
      <trkpt lat="40.760750" lon="-4.405067">
        <ele>2260.0</ele>
        <time>2014-06-30T15:22:47Z</time>
      </trkpt>
      <trkpt lat="40.760783" lon="-4.404967">
        <ele>2259.0</ele>
        <time>2014-06-30T15:22:48Z</time>
      </trkpt>
      <trkpt lat="40.760817" lon="-4.404867">
        <ele>2259.0</ele>
        <time>2014-06-30T15:22:49Z</time>
      </trkpt>
      <trkpt lat="40.760867" lon="-4.404783">
        <ele>2260.0</ele>
        <time>2014-06-30T15:22:50Z</time>
      </trkpt>
      <trkpt lat="40.760917" lon="-4.404700">
        <ele>2260.0</ele>
        <time>2014-06-30T15:22:51Z</time>
      </trkpt>
      <trkpt lat="40.760967" lon="-4.404617">
        <ele>2261.0</ele>
        <time>2014-06-30T15:22:52Z</time>
      </trkpt>
      <trkpt lat="40.761033" lon="-4.404533">
        <ele>2261.0</ele>
        <time>2014-06-30T15:22:53Z</time>
      </trkpt>
      <trkpt lat="40.761083" lon="-4.404450">
        <ele>2261.0</ele>
        <time>2014-06-30T15:22:54Z</time>
      </trkpt>
      <trkpt lat="40.761133" lon="-4.404350">
        <ele>2261.0</ele>
        <time>2014-06-30T15:22:55Z</time>
      </trkpt>
      <trkpt lat="40.761183" lon="-4.404250">
        <ele>2262.0</ele>
        <time>2014-06-30T15:22:56Z</time>
      </trkpt>
      <trkpt lat="40.761233" lon="-4.404167">
        <ele>2262.0</ele>
        <time>2014-06-30T15:22:57Z</time>
      </trkpt>
      <trkpt lat="40.761267" lon="-4.404133">
        <ele>2262.0</ele>
        <time>2014-06-30T15:22:58Z</time>
      </trkpt>
      <trkpt lat="40.761317" lon="-4.404083">
        <ele>2263.0</ele>
        <time>2014-06-30T15:22:59Z</time>
      </trkpt>
      <trkpt lat="40.761367" lon="-4.404067">
        <ele>2263.0</ele>
        <time>2014-06-30T15:23:00Z</time>
      </trkpt>
      <trkpt lat="40.761417" lon="-4.404033">
        <ele>2265.0</ele>
        <time>2014-06-30T15:23:01Z</time>
      </trkpt>
      <trkpt lat="40.761450" lon="-4.404017">
        <ele>2266.0</ele>
        <time>2014-06-30T15:23:02Z</time>
      </trkpt>
      <trkpt lat="40.761483" lon="-4.404000">
        <ele>2267.0</ele>
        <time>2014-06-30T15:23:03Z</time>
      </trkpt>
      <trkpt lat="40.761517" lon="-4.404000">
        <ele>2268.0</ele>
        <time>2014-06-30T15:23:04Z</time>
      </trkpt>
      <trkpt lat="40.761550" lon="-4.403983">
        <ele>2268.0</ele>
        <time>2014-06-30T15:23:05Z</time>
      </trkpt>
      <trkpt lat="40.761583" lon="-4.403967">
        <ele>2269.0</ele>
        <time>2014-06-30T15:23:06Z</time>
      </trkpt>
      <trkpt lat="40.761617" lon="-4.403950">
        <ele>2269.0</ele>
        <time>2014-06-30T15:23:07Z</time>
      </trkpt>
      <trkpt lat="40.761650" lon="-4.403933">
        <ele>2270.0</ele>
        <time>2014-06-30T15:23:08Z</time>
      </trkpt>
      <trkpt lat="40.761683" lon="-4.403917">
        <ele>2271.0</ele>
        <time>2014-06-30T15:23:09Z</time>
      </trkpt>
      <trkpt lat="40.761717" lon="-4.403867">
        <ele>2272.0</ele>
        <time>2014-06-30T15:23:10Z</time>
      </trkpt>
      <trkpt lat="40.761767" lon="-4.403783">
        <ele>2272.0</ele>
        <time>2014-06-30T15:23:11Z</time>
      </trkpt>
      <trkpt lat="40.761800" lon="-4.403650">
        <ele>2272.0</ele>
        <time>2014-06-30T15:23:12Z</time>
      </trkpt>
      <trkpt lat="40.761817" lon="-4.403517">
        <ele>2272.0</ele>
        <time>2014-06-30T15:23:13Z</time>
      </trkpt>
      <trkpt lat="40.761817" lon="-4.403367">
        <ele>2273.0</ele>
        <time>2014-06-30T15:23:14Z</time>
      </trkpt>
      <trkpt lat="40.761800" lon="-4.403233">
        <ele>2273.0</ele>
        <time>2014-06-30T15:23:15Z</time>
      </trkpt>
      <trkpt lat="40.761783" lon="-4.403083">
        <ele>2274.0</ele>
        <time>2014-06-30T15:23:16Z</time>
      </trkpt>
      <trkpt lat="40.761750" lon="-4.402933">
        <ele>2274.0</ele>
        <time>2014-06-30T15:23:17Z</time>
      </trkpt>
      <trkpt lat="40.761700" lon="-4.402767">
        <ele>2275.0</ele>
        <time>2014-06-30T15:23:18Z</time>
      </trkpt>
      <trkpt lat="40.761617" lon="-4.402650">
        <ele>2277.0</ele>
        <time>2014-06-30T15:23:19Z</time>
      </trkpt>
      <trkpt lat="40.761517" lon="-4.402550">
        <ele>2279.0</ele>
        <time>2014-06-30T15:23:20Z</time>
      </trkpt>
      <trkpt lat="40.761417" lon="-4.402483">
        <ele>2282.0</ele>
        <time>2014-06-30T15:23:21Z</time>
      </trkpt>
      <trkpt lat="40.761333" lon="-4.402417">
        <ele>2285.0</ele>
        <time>2014-06-30T15:23:22Z</time>
      </trkpt>
      <trkpt lat="40.761250" lon="-4.402367">
        <ele>2288.0</ele>
        <time>2014-06-30T15:23:23Z</time>
      </trkpt>
      <trkpt lat="40.761150" lon="-4.402317">
        <ele>2291.0</ele>
        <time>2014-06-30T15:23:24Z</time>
      </trkpt>
      <trkpt lat="40.761033" lon="-4.402300">
        <ele>2294.0</ele>
        <time>2014-06-30T15:23:25Z</time>
      </trkpt>
      <trkpt lat="40.760950" lon="-4.402317">
        <ele>2296.0</ele>
        <time>2014-06-30T15:23:26Z</time>
      </trkpt>
      <trkpt lat="40.760867" lon="-4.402333">
        <ele>2299.0</ele>
        <time>2014-06-30T15:23:27Z</time>
      </trkpt>
      <trkpt lat="40.760800" lon="-4.402367">
        <ele>2302.0</ele>
        <time>2014-06-30T15:23:28Z</time>
      </trkpt>
      <trkpt lat="40.760700" lon="-4.402383">
        <ele>2297.0</ele>
        <time>2014-06-30T15:23:29Z</time>
      </trkpt>
      <trkpt lat="40.760650" lon="-4.402400">
        <ele>2297.0</ele>
        <time>2014-06-30T15:23:30Z</time>
      </trkpt>
      <trkpt lat="40.760633" lon="-4.402450">
        <ele>2298.0</ele>
        <time>2014-06-30T15:23:31Z</time>
      </trkpt>
      <trkpt lat="40.760600" lon="-4.402517">
        <ele>2298.0</ele>
        <time>2014-06-30T15:23:32Z</time>
      </trkpt>
      <trkpt lat="40.760583" lon="-4.402583">
        <ele>2299.0</ele>
        <time>2014-06-30T15:23:33Z</time>
      </trkpt>
      <trkpt lat="40.760583" lon="-4.402617">
        <ele>2300.0</ele>
        <time>2014-06-30T15:23:34Z</time>
      </trkpt>
      <trkpt lat="40.760600" lon="-4.402650">
        <ele>2301.0</ele>
        <time>2014-06-30T15:23:35Z</time>
      </trkpt>
      <trkpt lat="40.760617" lon="-4.402650">
        <ele>2303.0</ele>
        <time>2014-06-30T15:23:36Z</time>
      </trkpt>
      <trkpt lat="40.760633" lon="-4.402633">
        <ele>2303.0</ele>
        <time>2014-06-30T15:23:37Z</time>
      </trkpt>
      <trkpt lat="40.760650" lon="-4.402617">
        <ele>2304.0</ele>
        <time>2014-06-30T15:23:38Z</time>
      </trkpt>
      <trkpt lat="40.760667" lon="-4.402600">
        <ele>2306.0</ele>
        <time>2014-06-30T15:23:39Z</time>
      </trkpt>
      <trkpt lat="40.760700" lon="-4.402567">
        <ele>2308.0</ele>
        <time>2014-06-30T15:23:40Z</time>
      </trkpt>
      <trkpt lat="40.760717" lon="-4.402533">
        <ele>2308.0</ele>
        <time>2014-06-30T15:23:41Z</time>
      </trkpt>
      <trkpt lat="40.760750" lon="-4.402467">
        <ele>2309.0</ele>
        <time>2014-06-30T15:23:42Z</time>
      </trkpt>
      <trkpt lat="40.760800" lon="-4.402400">
        <ele>2310.0</ele>
        <time>2014-06-30T15:23:43Z</time>
      </trkpt>
      <trkpt lat="40.760833" lon="-4.402300">
        <ele>2311.0</ele>
        <time>2014-06-30T15:23:44Z</time>
      </trkpt>
      <trkpt lat="40.760850" lon="-4.402167">
        <ele>2311.0</ele>
        <time>2014-06-30T15:23:45Z</time>
      </trkpt>
      <trkpt lat="40.760833" lon="-4.402017">
        <ele>2312.0</ele>
        <time>2014-06-30T15:23:46Z</time>
      </trkpt>
      <trkpt lat="40.760800" lon="-4.401867">
        <ele>2313.0</ele>
        <time>2014-06-30T15:23:47Z</time>
      </trkpt>
      <trkpt lat="40.760767" lon="-4.401700">
        <ele>2314.0</ele>
        <time>2014-06-30T15:23:48Z</time>
      </trkpt>
      <trkpt lat="40.760700" lon="-4.401550">
        <ele>2315.0</ele>
        <time>2014-06-30T15:23:49Z</time>
      </trkpt>
      <trkpt lat="40.760633" lon="-4.401400">
        <ele>2316.0</ele>
        <time>2014-06-30T15:23:50Z</time>
      </trkpt>
      <trkpt lat="40.760550" lon="-4.401283">
        <ele>2318.0</ele>
        <time>2014-06-30T15:23:51Z</time>
      </trkpt>
      <trkpt lat="40.760433" lon="-4.401183">
        <ele>2320.0</ele>
        <time>2014-06-30T15:23:52Z</time>
      </trkpt>
      <trkpt lat="40.760333" lon="-4.401117">
        <ele>2322.0</ele>
        <time>2014-06-30T15:23:53Z</time>
      </trkpt>
      <trkpt lat="40.760217" lon="-4.401083">
        <ele>2326.0</ele>
        <time>2014-06-30T15:23:54Z</time>
      </trkpt>
      <trkpt lat="40.760117" lon="-4.401067">
        <ele>2329.0</ele>
        <time>2014-06-30T15:23:55Z</time>
      </trkpt>
      <trkpt lat="40.760017" lon="-4.401083">
        <ele>2331.0</ele>
        <time>2014-06-30T15:23:56Z</time>
      </trkpt>
      <trkpt lat="40.759917" lon="-4.401083">
        <ele>2334.0</ele>
        <time>2014-06-30T15:23:57Z</time>
      </trkpt>
      <trkpt lat="40.759850" lon="-4.401117">
        <ele>2330.0</ele>
        <time>2014-06-30T15:23:58Z</time>
      </trkpt>
      <trkpt lat="40.759783" lon="-4.401150">
        <ele>2331.0</ele>
        <time>2014-06-30T15:23:59Z</time>
      </trkpt>
      <trkpt lat="40.759750" lon="-4.401183">
        <ele>2332.0</ele>
        <time>2014-06-30T15:24:00Z</time>
      </trkpt>
      <trkpt lat="40.759717" lon="-4.401233">
        <ele>2332.0</ele>
        <time>2014-06-30T15:24:01Z</time>
      </trkpt>
      <trkpt lat="40.759683" lon="-4.401283">
        <ele>2333.0</ele>
        <time>2014-06-30T15:24:02Z</time>
      </trkpt>
      <trkpt lat="40.759683" lon="-4.401333">
        <ele>2334.0</ele>
        <time>2014-06-30T15:24:03Z</time>
      </trkpt>
      <trkpt lat="40.759717" lon="-4.401350">
        <ele>2335.0</ele>
        <time>2014-06-30T15:24:04Z</time>
      </trkpt>
      <trkpt lat="40.759750" lon="-4.401350">
        <ele>2336.0</ele>
        <time>2014-06-30T15:24:05Z</time>
      </trkpt>
      <trkpt lat="40.759783" lon="-4.401333">
        <ele>2338.0</ele>
        <time>2014-06-30T15:24:06Z</time>
      </trkpt>
      <trkpt lat="40.759817" lon="-4.401317">
        <ele>2340.0</ele>
        <time>2014-06-30T15:24:07Z</time>
      </trkpt>
      <trkpt lat="40.759850" lon="-4.401283">
        <ele>2340.0</ele>
        <time>2014-06-30T15:24:08Z</time>
      </trkpt>
      <trkpt lat="40.759883" lon="-4.401233">
        <ele>2341.0</ele>
        <time>2014-06-30T15:24:09Z</time>
      </trkpt>
      <trkpt lat="40.759917" lon="-4.401200">
        <ele>2342.0</ele>
        <time>2014-06-30T15:24:10Z</time>
      </trkpt>
      <trkpt lat="40.759967" lon="-4.401133">
        <ele>2343.0</ele>
        <time>2014-06-30T15:24:11Z</time>
      </trkpt>
      <trkpt lat="40.760000" lon="-4.401050">
        <ele>2344.0</ele>
        <time>2014-06-30T15:24:12Z</time>
      </trkpt>
      <trkpt lat="40.760033" lon="-4.400967">
        <ele>2345.0</ele>
        <time>2014-06-30T15:24:13Z</time>
      </trkpt>
      <trkpt lat="40.760067" lon="-4.400867">
        <ele>2346.0</ele>
        <time>2014-06-30T15:24:14Z</time>
      </trkpt>
      <trkpt lat="40.760100" lon="-4.400767">
        <ele>2348.0</ele>
        <time>2014-06-30T15:24:15Z</time>
      </trkpt>
      <trkpt lat="40.760117" lon="-4.400633">
        <ele>2349.0</ele>
        <time>2014-06-30T15:24:16Z</time>
      </trkpt>
      <trkpt lat="40.760117" lon="-4.400500">
        <ele>2350.0</ele>
        <time>2014-06-30T15:24:17Z</time>
      </trkpt>
      <trkpt lat="40.760117" lon="-4.400367">
        <ele>2351.0</ele>
        <time>2014-06-30T15:24:18Z</time>
      </trkpt>
      <trkpt lat="40.760117" lon="-4.400217">
        <ele>2352.0</ele>
        <time>2014-06-30T15:24:19Z</time>
      </trkpt>
      <trkpt lat="40.760100" lon="-4.400067">
        <ele>2353.0</ele>
        <time>2014-06-30T15:24:20Z</time>
      </trkpt>
      <trkpt lat="40.760067" lon="-4.399900">
        <ele>2355.0</ele>
        <time>2014-06-30T15:24:21Z</time>
      </trkpt>
      <trkpt lat="40.760033" lon="-4.399767">
        <ele>2358.0</ele>
        <time>2014-06-30T15:24:22Z</time>
      </trkpt>
      <trkpt lat="40.759983" lon="-4.399633">
        <ele>2359.0</ele>
        <time>2014-06-30T15:24:23Z</time>
      </trkpt>
      <trkpt lat="40.759917" lon="-4.399517">
        <ele>2361.0</ele>
        <time>2014-06-30T15:24:24Z</time>
      </trkpt>
      <trkpt lat="40.759850" lon="-4.399417">
        <ele>2363.0</ele>
        <time>2014-06-30T15:24:25Z</time>
      </trkpt>
      <trkpt lat="40.759767" lon="-4.399317">
        <ele>2365.0</ele>
        <time>2014-06-30T15:24:26Z</time>
      </trkpt>
      <trkpt lat="40.759683" lon="-4.399233">
        <ele>2368.0</ele>
        <time>2014-06-30T15:24:27Z</time>
      </trkpt>
      <trkpt lat="40.759583" lon="-4.399167">
        <ele>2372.0</ele>
        <time>2014-06-30T15:24:28Z</time>
      </trkpt>
      <trkpt lat="40.759483" lon="-4.399133">
        <ele>2374.0</ele>
        <time>2014-06-30T15:24:29Z</time>
      </trkpt>
      <trkpt lat="40.759383" lon="-4.399100">
        <ele>2376.0</ele>
        <time>2014-06-30T15:24:30Z</time>
      </trkpt>
      <trkpt lat="40.759283" lon="-4.399100">
        <ele>2378.0</ele>
        <time>2014-06-30T15:24:31Z</time>
      </trkpt>
      <trkpt lat="40.759217" lon="-4.399133">
        <ele>2374.0</ele>
        <time>2014-06-30T15:24:32Z</time>
      </trkpt>
      <trkpt lat="40.759167" lon="-4.399183">
        <ele>2375.0</ele>
        <time>2014-06-30T15:24:33Z</time>
      </trkpt>
      <trkpt lat="40.759150" lon="-4.399233">
        <ele>2376.0</ele>
        <time>2014-06-30T15:24:34Z</time>
      </trkpt>
      <trkpt lat="40.759167" lon="-4.399283">
        <ele>2376.0</ele>
        <time>2014-06-30T15:24:35Z</time>
      </trkpt>
      <trkpt lat="40.759217" lon="-4.399283">
        <ele>2377.0</ele>
        <time>2014-06-30T15:24:36Z</time>
      </trkpt>
      <trkpt lat="40.759267" lon="-4.399250">
        <ele>2378.0</ele>
        <time>2014-06-30T15:24:37Z</time>
      </trkpt>
      <trkpt lat="40.759317" lon="-4.399183">
        <ele>2379.0</ele>
        <time>2014-06-30T15:24:38Z</time>
      </trkpt>
      <trkpt lat="40.759350" lon="-4.399083">
        <ele>2380.0</ele>
        <time>2014-06-30T15:24:39Z</time>
      </trkpt>
      <trkpt lat="40.759383" lon="-4.399000">
        <ele>2382.0</ele>
        <time>2014-06-30T15:24:40Z</time>
      </trkpt>
      <trkpt lat="40.759400" lon="-4.398900">
        <ele>2382.0</ele>
        <time>2014-06-30T15:24:41Z</time>
      </trkpt>
      <trkpt lat="40.759433" lon="-4.398800">
        <ele>2383.0</ele>
        <time>2014-06-30T15:24:42Z</time>
      </trkpt>
      <trkpt lat="40.759483" lon="-4.398683">
        <ele>2383.0</ele>
        <time>2014-06-30T15:24:43Z</time>
      </trkpt>
      <trkpt lat="40.759517" lon="-4.398550">
        <ele>2384.0</ele>
        <time>2014-06-30T15:24:44Z</time>
      </trkpt>
      <trkpt lat="40.759550" lon="-4.398417">
        <ele>2384.0</ele>
        <time>2014-06-30T15:24:45Z</time>
      </trkpt>
      <trkpt lat="40.759550" lon="-4.398250">
        <ele>2384.0</ele>
        <time>2014-06-30T15:24:46Z</time>
      </trkpt>
      <trkpt lat="40.759550" lon="-4.398100">
        <ele>2384.0</ele>
        <time>2014-06-30T15:24:47Z</time>
      </trkpt>
      <trkpt lat="40.759533" lon="-4.397950">
        <ele>2384.0</ele>
        <time>2014-06-30T15:24:48Z</time>
      </trkpt>
      <trkpt lat="40.759500" lon="-4.397817">
        <ele>2385.0</ele>
        <time>2014-06-30T15:24:49Z</time>
      </trkpt>
      <trkpt lat="40.759450" lon="-4.397667">
        <ele>2385.0</ele>
        <time>2014-06-30T15:24:50Z</time>
      </trkpt>
      <trkpt lat="40.759383" lon="-4.397533">
        <ele>2386.0</ele>
        <time>2014-06-30T15:24:51Z</time>
      </trkpt>
      <trkpt lat="40.759333" lon="-4.397400">
        <ele>2386.0</ele>
        <time>2014-06-30T15:24:52Z</time>
      </trkpt>
      <trkpt lat="40.759250" lon="-4.397267">
        <ele>2386.0</ele>
        <time>2014-06-30T15:24:53Z</time>
      </trkpt>
      <trkpt lat="40.759150" lon="-4.397133">
        <ele>2387.0</ele>
        <time>2014-06-30T15:24:54Z</time>
      </trkpt>
      <trkpt lat="40.759050" lon="-4.397033">
        <ele>2388.0</ele>
        <time>2014-06-30T15:24:55Z</time>
      </trkpt>
      <trkpt lat="40.758950" lon="-4.396967">
        <ele>2390.0</ele>
        <time>2014-06-30T15:24:56Z</time>
      </trkpt>
      <trkpt lat="40.758833" lon="-4.396950">
        <ele>2390.0</ele>
        <time>2014-06-30T15:24:57Z</time>
      </trkpt>
      <trkpt lat="40.758733" lon="-4.396950">
        <ele>2392.0</ele>
        <time>2014-06-30T15:24:58Z</time>
      </trkpt>
      <trkpt lat="40.758650" lon="-4.396933">
        <ele>2393.0</ele>
        <time>2014-06-30T15:24:59Z</time>
      </trkpt>
      <trkpt lat="40.758550" lon="-4.396917">
        <ele>2395.0</ele>
        <time>2014-06-30T15:25:00Z</time>
      </trkpt>
      <trkpt lat="40.758467" lon="-4.396917">
        <ele>2394.0</ele>
        <time>2014-06-30T15:25:01Z</time>
      </trkpt>
      <trkpt lat="40.758383" lon="-4.396950">
        <ele>2394.0</ele>
        <time>2014-06-30T15:25:02Z</time>
      </trkpt>
      <trkpt lat="40.758300" lon="-4.396983">
        <ele>2394.0</ele>
        <time>2014-06-30T15:25:03Z</time>
      </trkpt>
      <trkpt lat="40.758217" lon="-4.397033">
        <ele>2394.0</ele>
        <time>2014-06-30T15:25:04Z</time>
      </trkpt>
      <trkpt lat="40.758150" lon="-4.397083">
        <ele>2395.0</ele>
        <time>2014-06-30T15:25:05Z</time>
      </trkpt>
      <trkpt lat="40.758083" lon="-4.397133">
        <ele>2397.0</ele>
        <time>2014-06-30T15:25:06Z</time>
      </trkpt>
      <trkpt lat="40.758033" lon="-4.397167">
        <ele>2398.0</ele>
        <time>2014-06-30T15:25:07Z</time>
      </trkpt>
      <trkpt lat="40.757983" lon="-4.397217">
        <ele>2397.0</ele>
        <time>2014-06-30T15:25:08Z</time>
      </trkpt>
      <trkpt lat="40.757967" lon="-4.397267">
        <ele>2397.0</ele>
        <time>2014-06-30T15:25:09Z</time>
      </trkpt>
      <trkpt lat="40.757933" lon="-4.397317">
        <ele>2397.0</ele>
        <time>2014-06-30T15:25:10Z</time>
      </trkpt>
      <trkpt lat="40.757933" lon="-4.397350">
        <ele>2398.0</ele>
        <time>2014-06-30T15:25:11Z</time>
      </trkpt>
      <trkpt lat="40.757933" lon="-4.397383">
        <ele>2398.0</ele>
        <time>2014-06-30T15:25:12Z</time>
      </trkpt>
      <trkpt lat="40.757967" lon="-4.397417">
        <ele>2398.0</ele>
        <time>2014-06-30T15:25:13Z</time>
      </trkpt>
      <trkpt lat="40.758000" lon="-4.397400">
        <ele>2398.0</ele>
        <time>2014-06-30T15:25:14Z</time>
      </trkpt>
      <trkpt lat="40.758033" lon="-4.397367">
        <ele>2398.0</ele>
        <time>2014-06-30T15:25:15Z</time>
      </trkpt>
      <trkpt lat="40.758067" lon="-4.397317">
        <ele>2397.0</ele>
        <time>2014-06-30T15:25:16Z</time>
      </trkpt>
      <trkpt lat="40.758117" lon="-4.397267">
        <ele>2397.0</ele>
        <time>2014-06-30T15:25:17Z</time>
      </trkpt>
      <trkpt lat="40.758167" lon="-4.397200">
        <ele>2397.0</ele>
        <time>2014-06-30T15:25:18Z</time>
      </trkpt>
      <trkpt lat="40.758217" lon="-4.397117">
        <ele>2397.0</ele>
        <time>2014-06-30T15:25:19Z</time>
      </trkpt>
      <trkpt lat="40.758267" lon="-4.397033">
        <ele>2399.0</ele>
        <time>2014-06-30T15:25:20Z</time>
      </trkpt>
      <trkpt lat="40.758317" lon="-4.396917">
        <ele>2399.0</ele>
        <time>2014-06-30T15:25:21Z</time>
      </trkpt>
      <trkpt lat="40.758350" lon="-4.396817">
        <ele>2399.0</ele>
        <time>2014-06-30T15:25:22Z</time>
      </trkpt>
      <trkpt lat="40.758400" lon="-4.396700">
        <ele>2399.0</ele>
        <time>2014-06-30T15:25:23Z</time>
      </trkpt>
      <trkpt lat="40.758450" lon="-4.396567">
        <ele>2399.0</ele>
        <time>2014-06-30T15:25:24Z</time>
      </trkpt>
      <trkpt lat="40.758500" lon="-4.396433">
        <ele>2399.0</ele>
        <time>2014-06-30T15:25:25Z</time>
      </trkpt>
      <trkpt lat="40.758567" lon="-4.396300">
        <ele>2399.0</ele>
        <time>2014-06-30T15:25:26Z</time>
      </trkpt>
      <trkpt lat="40.758617" lon="-4.396200">
        <ele>2399.0</ele>
        <time>2014-06-30T15:25:27Z</time>
      </trkpt>
      <trkpt lat="40.758667" lon="-4.396083">
        <ele>2398.0</ele>
        <time>2014-06-30T15:25:28Z</time>
      </trkpt>
      <trkpt lat="40.758717" lon="-4.396000">
        <ele>2398.0</ele>
        <time>2014-06-30T15:25:29Z</time>
      </trkpt>
      <trkpt lat="40.758783" lon="-4.395917">
        <ele>2399.0</ele>
        <time>2014-06-30T15:25:30Z</time>
      </trkpt>
      <trkpt lat="40.758833" lon="-4.395817">
        <ele>2399.0</ele>
        <time>2014-06-30T15:25:31Z</time>
      </trkpt>
      <trkpt lat="40.758883" lon="-4.395733">
        <ele>2399.0</ele>
        <time>2014-06-30T15:25:32Z</time>
      </trkpt>
      <trkpt lat="40.758950" lon="-4.395650">
        <ele>2399.0</ele>
        <time>2014-06-30T15:25:33Z</time>
      </trkpt>
      <trkpt lat="40.759017" lon="-4.395600">
        <ele>2399.0</ele>
        <time>2014-06-30T15:25:34Z</time>
      </trkpt>
      <trkpt lat="40.759083" lon="-4.395533">
        <ele>2398.0</ele>
        <time>2014-06-30T15:25:35Z</time>
      </trkpt>
      <trkpt lat="40.759150" lon="-4.395483">
        <ele>2398.0</ele>
        <time>2014-06-30T15:25:36Z</time>
      </trkpt>
      <trkpt lat="40.759200" lon="-4.395417">
        <ele>2398.0</ele>
        <time>2014-06-30T15:25:37Z</time>
      </trkpt>
      <trkpt lat="40.759267" lon="-4.395333">
        <ele>2398.0</ele>
        <time>2014-06-30T15:25:38Z</time>
      </trkpt>
      <trkpt lat="40.759317" lon="-4.395283">
        <ele>2398.0</ele>
        <time>2014-06-30T15:25:39Z</time>
      </trkpt>
      <trkpt lat="40.759400" lon="-4.395233">
        <ele>2397.0</ele>
        <time>2014-06-30T15:25:40Z</time>
      </trkpt>
      <trkpt lat="40.759467" lon="-4.395200">
        <ele>2396.0</ele>
        <time>2014-06-30T15:25:41Z</time>
      </trkpt>
      <trkpt lat="40.759533" lon="-4.395167">
        <ele>2396.0</ele>
        <time>2014-06-30T15:25:42Z</time>
      </trkpt>
      <trkpt lat="40.759617" lon="-4.395117">
        <ele>2396.0</ele>
        <time>2014-06-30T15:25:43Z</time>
      </trkpt>
      <trkpt lat="40.759700" lon="-4.395050">
        <ele>2396.0</ele>
        <time>2014-06-30T15:25:44Z</time>
      </trkpt>
      <trkpt lat="40.759767" lon="-4.394967">
        <ele>2395.0</ele>
        <time>2014-06-30T15:25:45Z</time>
      </trkpt>
      <trkpt lat="40.759817" lon="-4.394917">
        <ele>2395.0</ele>
        <time>2014-06-30T15:25:46Z</time>
      </trkpt>
      <trkpt lat="40.759883" lon="-4.394883">
        <ele>2395.0</ele>
        <time>2014-06-30T15:25:47Z</time>
      </trkpt>
      <trkpt lat="40.759933" lon="-4.394833">
        <ele>2395.0</ele>
        <time>2014-06-30T15:25:48Z</time>
      </trkpt>
      <trkpt lat="40.760000" lon="-4.394767">
        <ele>2395.0</ele>
        <time>2014-06-30T15:25:49Z</time>
      </trkpt>
      <trkpt lat="40.760050" lon="-4.394700">
        <ele>2394.0</ele>
        <time>2014-06-30T15:25:50Z</time>
      </trkpt>
      <trkpt lat="40.760117" lon="-4.394617">
        <ele>2394.0</ele>
        <time>2014-06-30T15:25:51Z</time>
      </trkpt>
      <trkpt lat="40.760183" lon="-4.394550">
        <ele>2394.0</ele>
        <time>2014-06-30T15:25:52Z</time>
      </trkpt>
      <trkpt lat="40.760250" lon="-4.394483">
        <ele>2394.0</ele>
        <time>2014-06-30T15:25:53Z</time>
      </trkpt>
      <trkpt lat="40.760317" lon="-4.394433">
        <ele>2394.0</ele>
        <time>2014-06-30T15:25:54Z</time>
      </trkpt>
      <trkpt lat="40.760383" lon="-4.394350">
        <ele>2394.0</ele>
        <time>2014-06-30T15:25:55Z</time>
      </trkpt>
      <trkpt lat="40.760450" lon="-4.394267">
        <ele>2393.0</ele>
        <time>2014-06-30T15:25:56Z</time>
      </trkpt>
      <trkpt lat="40.760517" lon="-4.394183">
        <ele>2393.0</ele>
        <time>2014-06-30T15:25:57Z</time>
      </trkpt>
      <trkpt lat="40.760567" lon="-4.394100">
        <ele>2393.0</ele>
        <time>2014-06-30T15:25:58Z</time>
      </trkpt>
      <trkpt lat="40.760600" lon="-4.394050">
        <ele>2393.0</ele>
        <time>2014-06-30T15:25:59Z</time>
      </trkpt>
      <trkpt lat="40.760650" lon="-4.394033">
        <ele>2393.0</ele>
        <time>2014-06-30T15:26:00Z</time>
      </trkpt>
      <trkpt lat="40.760683" lon="-4.394017">
        <ele>2393.0</ele>
        <time>2014-06-30T15:26:01Z</time>
      </trkpt>
      <trkpt lat="40.760733" lon="-4.394000">
        <ele>2393.0</ele>
        <time>2014-06-30T15:26:02Z</time>
      </trkpt>
      <trkpt lat="40.760783" lon="-4.394000">
        <ele>2393.0</ele>
        <time>2014-06-30T15:26:03Z</time>
      </trkpt>
      <trkpt lat="40.760800" lon="-4.394033">
        <ele>2393.0</ele>
        <time>2014-06-30T15:26:04Z</time>
      </trkpt>
      <trkpt lat="40.760767" lon="-4.394083">
        <ele>2393.0</ele>
        <time>2014-06-30T15:26:05Z</time>
      </trkpt>
      <trkpt lat="40.760700" lon="-4.394117">
        <ele>2393.0</ele>
        <time>2014-06-30T15:26:06Z</time>
      </trkpt>
      <trkpt lat="40.760617" lon="-4.394150">
        <ele>2393.0</ele>
        <time>2014-06-30T15:26:07Z</time>
      </trkpt>
      <trkpt lat="40.760533" lon="-4.394150">
        <ele>2394.0</ele>
        <time>2014-06-30T15:26:08Z</time>
      </trkpt>
      <trkpt lat="40.760433" lon="-4.394133">
        <ele>2395.0</ele>
        <time>2014-06-30T15:26:09Z</time>
      </trkpt>
      <trkpt lat="40.760333" lon="-4.394083">
        <ele>2395.0</ele>
        <time>2014-06-30T15:26:10Z</time>
      </trkpt>
      <trkpt lat="40.760217" lon="-4.394000">
        <ele>2395.0</ele>
        <time>2014-06-30T15:26:11Z</time>
      </trkpt>
      <trkpt lat="40.760083" lon="-4.393900">
        <ele>2396.0</ele>
        <time>2014-06-30T15:26:12Z</time>
      </trkpt>
      <trkpt lat="40.759983" lon="-4.393767">
        <ele>2397.0</ele>
        <time>2014-06-30T15:26:13Z</time>
      </trkpt>
      <trkpt lat="40.759900" lon="-4.393617">
        <ele>2398.0</ele>
        <time>2014-06-30T15:26:14Z</time>
      </trkpt>
      <trkpt lat="40.759850" lon="-4.393450">
        <ele>2399.0</ele>
        <time>2014-06-30T15:26:15Z</time>
      </trkpt>
      <trkpt lat="40.759800" lon="-4.393283">
        <ele>2399.0</ele>
        <time>2014-06-30T15:26:16Z</time>
      </trkpt>
      <trkpt lat="40.759767" lon="-4.393100">
        <ele>2399.0</ele>
        <time>2014-06-30T15:26:17Z</time>
      </trkpt>
      <trkpt lat="40.759750" lon="-4.392917">
        <ele>2400.0</ele>
        <time>2014-06-30T15:26:18Z</time>
      </trkpt>
      <trkpt lat="40.759767" lon="-4.392733">
        <ele>2400.0</ele>
        <time>2014-06-30T15:26:19Z</time>
      </trkpt>
      <trkpt lat="40.759800" lon="-4.392567">
        <ele>2400.0</ele>
        <time>2014-06-30T15:26:20Z</time>
      </trkpt>
      <trkpt lat="40.759867" lon="-4.392417">
        <ele>2398.0</ele>
        <time>2014-06-30T15:26:21Z</time>
      </trkpt>
      <trkpt lat="40.759933" lon="-4.392267">
        <ele>2397.0</ele>
        <time>2014-06-30T15:26:22Z</time>
      </trkpt>
      <trkpt lat="40.760000" lon="-4.392133">
        <ele>2395.0</ele>
        <time>2014-06-30T15:26:23Z</time>
      </trkpt>
      <trkpt lat="40.760083" lon="-4.392017">
        <ele>2393.0</ele>
        <time>2014-06-30T15:26:24Z</time>
      </trkpt>
      <trkpt lat="40.760167" lon="-4.391900">
        <ele>2392.0</ele>
        <time>2014-06-30T15:26:25Z</time>
      </trkpt>
      <trkpt lat="40.760267" lon="-4.391800">
        <ele>2389.0</ele>
        <time>2014-06-30T15:26:26Z</time>
      </trkpt>
      <trkpt lat="40.760367" lon="-4.391700">
        <ele>2387.0</ele>
        <time>2014-06-30T15:26:27Z</time>
      </trkpt>
      <trkpt lat="40.760467" lon="-4.391600">
        <ele>2385.0</ele>
        <time>2014-06-30T15:26:28Z</time>
      </trkpt>
      <trkpt lat="40.760550" lon="-4.391500">
        <ele>2383.0</ele>
        <time>2014-06-30T15:26:29Z</time>
      </trkpt>
      <trkpt lat="40.760650" lon="-4.391400">
        <ele>2381.0</ele>
        <time>2014-06-30T15:26:30Z</time>
      </trkpt>
      <trkpt lat="40.760750" lon="-4.391317">
        <ele>2378.0</ele>
        <time>2014-06-30T15:26:31Z</time>
      </trkpt>
      <trkpt lat="40.760850" lon="-4.391250">
        <ele>2375.0</ele>
        <time>2014-06-30T15:26:32Z</time>
      </trkpt>
      <trkpt lat="40.760950" lon="-4.391167">
        <ele>2373.0</ele>
        <time>2014-06-30T15:26:33Z</time>
      </trkpt>
      <trkpt lat="40.761050" lon="-4.391083">
        <ele>2370.0</ele>
        <time>2014-06-30T15:26:34Z</time>
      </trkpt>
      <trkpt lat="40.761167" lon="-4.390983">
        <ele>2368.0</ele>
        <time>2014-06-30T15:26:35Z</time>
      </trkpt>
      <trkpt lat="40.761267" lon="-4.390900">
        <ele>2366.0</ele>
        <time>2014-06-30T15:26:36Z</time>
      </trkpt>
      <trkpt lat="40.761367" lon="-4.390817">
        <ele>2364.0</ele>
        <time>2014-06-30T15:26:37Z</time>
      </trkpt>
      <trkpt lat="40.761467" lon="-4.390733">
        <ele>2361.0</ele>
        <time>2014-06-30T15:26:38Z</time>
      </trkpt>
      <trkpt lat="40.761583" lon="-4.390650">
        <ele>2358.0</ele>
        <time>2014-06-30T15:26:39Z</time>
      </trkpt>
      <trkpt lat="40.761700" lon="-4.390583">
        <ele>2356.0</ele>
        <time>2014-06-30T15:26:40Z</time>
      </trkpt>
      <trkpt lat="40.761800" lon="-4.390500">
        <ele>2355.0</ele>
        <time>2014-06-30T15:26:41Z</time>
      </trkpt>
      <trkpt lat="40.761917" lon="-4.390450">
        <ele>2353.0</ele>
        <time>2014-06-30T15:26:42Z</time>
      </trkpt>
      <trkpt lat="40.762000" lon="-4.390383">
        <ele>2352.0</ele>
        <time>2014-06-30T15:26:43Z</time>
      </trkpt>
      <trkpt lat="40.762100" lon="-4.390317">
        <ele>2351.0</ele>
        <time>2014-06-30T15:26:44Z</time>
      </trkpt>
      <trkpt lat="40.762200" lon="-4.390250">
        <ele>2349.0</ele>
        <time>2014-06-30T15:26:45Z</time>
      </trkpt>
      <trkpt lat="40.762300" lon="-4.390183">
        <ele>2347.0</ele>
        <time>2014-06-30T15:26:46Z</time>
      </trkpt>
      <trkpt lat="40.762383" lon="-4.390133">
        <ele>2345.0</ele>
        <time>2014-06-30T15:26:47Z</time>
      </trkpt>
      <trkpt lat="40.762483" lon="-4.390100">
        <ele>2342.0</ele>
        <time>2014-06-30T15:26:48Z</time>
      </trkpt>
      <trkpt lat="40.762583" lon="-4.390050">
        <ele>2340.0</ele>
        <time>2014-06-30T15:26:49Z</time>
      </trkpt>
      <trkpt lat="40.762683" lon="-4.389967">
        <ele>2337.0</ele>
        <time>2014-06-30T15:26:50Z</time>
      </trkpt>
      <trkpt lat="40.762783" lon="-4.389900">
        <ele>2334.0</ele>
        <time>2014-06-30T15:26:51Z</time>
      </trkpt>
      <trkpt lat="40.762883" lon="-4.389833">
        <ele>2332.0</ele>
        <time>2014-06-30T15:26:52Z</time>
      </trkpt>
      <trkpt lat="40.762983" lon="-4.389750">
        <ele>2330.0</ele>
        <time>2014-06-30T15:26:53Z</time>
      </trkpt>
      <trkpt lat="40.763067" lon="-4.389667">
        <ele>2327.0</ele>
        <time>2014-06-30T15:26:54Z</time>
      </trkpt>
      <trkpt lat="40.763133" lon="-4.389583">
        <ele>2325.0</ele>
        <time>2014-06-30T15:26:55Z</time>
      </trkpt>
      <trkpt lat="40.763217" lon="-4.389500">
        <ele>2323.0</ele>
        <time>2014-06-30T15:26:56Z</time>
      </trkpt>
      <trkpt lat="40.763283" lon="-4.389433">
        <ele>2319.0</ele>
        <time>2014-06-30T15:26:57Z</time>
      </trkpt>
      <trkpt lat="40.763383" lon="-4.389383">
        <ele>2314.0</ele>
        <time>2014-06-30T15:26:58Z</time>
      </trkpt>
      <trkpt lat="40.763467" lon="-4.389300">
        <ele>2311.0</ele>
        <time>2014-06-30T15:26:59Z</time>
      </trkpt>
      <trkpt lat="40.763567" lon="-4.389217">
        <ele>2308.0</ele>
        <time>2014-06-30T15:27:00Z</time>
      </trkpt>
      <trkpt lat="40.763650" lon="-4.389117">
        <ele>2305.0</ele>
        <time>2014-06-30T15:27:01Z</time>
      </trkpt>
      <trkpt lat="40.763750" lon="-4.389033">
        <ele>2306.0</ele>
        <time>2014-06-30T15:27:02Z</time>
      </trkpt>
      <trkpt lat="40.763833" lon="-4.388983">
        <ele>2305.0</ele>
        <time>2014-06-30T15:27:03Z</time>
      </trkpt>
      <trkpt lat="40.763917" lon="-4.388917">
        <ele>2303.0</ele>
        <time>2014-06-30T15:27:04Z</time>
      </trkpt>
      <trkpt lat="40.764017" lon="-4.388850">
        <ele>2299.0</ele>
        <time>2014-06-30T15:27:05Z</time>
      </trkpt>
      <trkpt lat="40.764117" lon="-4.388767">
        <ele>2295.0</ele>
        <time>2014-06-30T15:27:06Z</time>
      </trkpt>
      <trkpt lat="40.764217" lon="-4.388700">
        <ele>2292.0</ele>
        <time>2014-06-30T15:27:07Z</time>
      </trkpt>
      <trkpt lat="40.764317" lon="-4.388650">
        <ele>2289.0</ele>
        <time>2014-06-30T15:27:08Z</time>
      </trkpt>
      <trkpt lat="40.764417" lon="-4.388583">
        <ele>2286.0</ele>
        <time>2014-06-30T15:27:09Z</time>
      </trkpt>
      <trkpt lat="40.764517" lon="-4.388533">
        <ele>2284.0</ele>
        <time>2014-06-30T15:27:10Z</time>
      </trkpt>
      <trkpt lat="40.764617" lon="-4.388467">
        <ele>2281.0</ele>
        <time>2014-06-30T15:27:11Z</time>
      </trkpt>
      <trkpt lat="40.764717" lon="-4.388400">
        <ele>2279.0</ele>
        <time>2014-06-30T15:27:12Z</time>
      </trkpt>
      <trkpt lat="40.764817" lon="-4.388333">
        <ele>2276.0</ele>
        <time>2014-06-30T15:27:13Z</time>
      </trkpt>
      <trkpt lat="40.764917" lon="-4.388283">
        <ele>2273.0</ele>
        <time>2014-06-30T15:27:14Z</time>
      </trkpt>
      <trkpt lat="40.765033" lon="-4.388233">
        <ele>2271.0</ele>
        <time>2014-06-30T15:27:15Z</time>
      </trkpt>
      <trkpt lat="40.765133" lon="-4.388167">
        <ele>2268.0</ele>
        <time>2014-06-30T15:27:16Z</time>
      </trkpt>
      <trkpt lat="40.765250" lon="-4.388100">
        <ele>2266.0</ele>
        <time>2014-06-30T15:27:17Z</time>
      </trkpt>
      <trkpt lat="40.765367" lon="-4.388017">
        <ele>2264.0</ele>
        <time>2014-06-30T15:27:18Z</time>
      </trkpt>
      <trkpt lat="40.765483" lon="-4.387950">
        <ele>2262.0</ele>
        <time>2014-06-30T15:27:19Z</time>
      </trkpt>
      <trkpt lat="40.765583" lon="-4.387917">
        <ele>2260.0</ele>
        <time>2014-06-30T15:27:20Z</time>
      </trkpt>
      <trkpt lat="40.765700" lon="-4.387867">
        <ele>2259.0</ele>
        <time>2014-06-30T15:27:21Z</time>
      </trkpt>
      <trkpt lat="40.765800" lon="-4.387817">
        <ele>2257.0</ele>
        <time>2014-06-30T15:27:22Z</time>
      </trkpt>
      <trkpt lat="40.765917" lon="-4.387750">
        <ele>2256.0</ele>
        <time>2014-06-30T15:27:23Z</time>
      </trkpt>
      <trkpt lat="40.766033" lon="-4.387700">
        <ele>2253.0</ele>
        <time>2014-06-30T15:27:24Z</time>
      </trkpt>
      <trkpt lat="40.766150" lon="-4.387650">
        <ele>2251.0</ele>
        <time>2014-06-30T15:27:25Z</time>
      </trkpt>
      <trkpt lat="40.766267" lon="-4.387600">
        <ele>2249.0</ele>
        <time>2014-06-30T15:27:26Z</time>
      </trkpt>
      <trkpt lat="40.766383" lon="-4.387567">
        <ele>2248.0</ele>
        <time>2014-06-30T15:27:27Z</time>
      </trkpt>
      <trkpt lat="40.766483" lon="-4.387517">
        <ele>2247.0</ele>
        <time>2014-06-30T15:27:28Z</time>
      </trkpt>
      <trkpt lat="40.766583" lon="-4.387450">
        <ele>2246.0</ele>
        <time>2014-06-30T15:27:29Z</time>
      </trkpt>
      <trkpt lat="40.766683" lon="-4.387400">
        <ele>2244.0</ele>
        <time>2014-06-30T15:27:30Z</time>
      </trkpt>
      <trkpt lat="40.766783" lon="-4.387367">
        <ele>2242.0</ele>
        <time>2014-06-30T15:27:31Z</time>
      </trkpt>
      <trkpt lat="40.766900" lon="-4.387317">
        <ele>2240.0</ele>
        <time>2014-06-30T15:27:32Z</time>
      </trkpt>
      <trkpt lat="40.767017" lon="-4.387267">
        <ele>2237.0</ele>
        <time>2014-06-30T15:27:33Z</time>
      </trkpt>
      <trkpt lat="40.767150" lon="-4.387217">
        <ele>2234.0</ele>
        <time>2014-06-30T15:27:34Z</time>
      </trkpt>
      <trkpt lat="40.767267" lon="-4.387167">
        <ele>2233.0</ele>
        <time>2014-06-30T15:27:35Z</time>
      </trkpt>
      <trkpt lat="40.767383" lon="-4.387100">
        <ele>2232.0</ele>
        <time>2014-06-30T15:27:36Z</time>
      </trkpt>
      <trkpt lat="40.767483" lon="-4.387033">
        <ele>2231.0</ele>
        <time>2014-06-30T15:27:37Z</time>
      </trkpt>
      <trkpt lat="40.767583" lon="-4.386967">
        <ele>2231.0</ele>
        <time>2014-06-30T15:27:38Z</time>
      </trkpt>
      <trkpt lat="40.767700" lon="-4.386900">
        <ele>2229.0</ele>
        <time>2014-06-30T15:27:39Z</time>
      </trkpt>
      <trkpt lat="40.767817" lon="-4.386850">
        <ele>2226.0</ele>
        <time>2014-06-30T15:27:40Z</time>
      </trkpt>
      <trkpt lat="40.767933" lon="-4.386783">
        <ele>2223.0</ele>
        <time>2014-06-30T15:27:41Z</time>
      </trkpt>
      <trkpt lat="40.768067" lon="-4.386700">
        <ele>2221.0</ele>
        <time>2014-06-30T15:27:42Z</time>
      </trkpt>
      <trkpt lat="40.768183" lon="-4.386633">
        <ele>2219.0</ele>
        <time>2014-06-30T15:27:43Z</time>
      </trkpt>
      <trkpt lat="40.768317" lon="-4.386567">
        <ele>2217.0</ele>
        <time>2014-06-30T15:27:44Z</time>
      </trkpt>
      <trkpt lat="40.768433" lon="-4.386517">
        <ele>2215.0</ele>
        <time>2014-06-30T15:27:45Z</time>
      </trkpt>
      <trkpt lat="40.768550" lon="-4.386450">
        <ele>2212.0</ele>
        <time>2014-06-30T15:27:46Z</time>
      </trkpt>
      <trkpt lat="40.768650" lon="-4.386400">
        <ele>2209.0</ele>
        <time>2014-06-30T15:27:47Z</time>
      </trkpt>
      <trkpt lat="40.768767" lon="-4.386333">
        <ele>2205.0</ele>
        <time>2014-06-30T15:27:48Z</time>
      </trkpt>
      <trkpt lat="40.768900" lon="-4.386267">
        <ele>2201.0</ele>
        <time>2014-06-30T15:27:49Z</time>
      </trkpt>
      <trkpt lat="40.769017" lon="-4.386200">
        <ele>2196.0</ele>
        <time>2014-06-30T15:27:50Z</time>
      </trkpt>
      <trkpt lat="40.769133" lon="-4.386150">
        <ele>2192.0</ele>
        <time>2014-06-30T15:27:51Z</time>
      </trkpt>
      <trkpt lat="40.769250" lon="-4.386100">
        <ele>2188.0</ele>
        <time>2014-06-30T15:27:52Z</time>
      </trkpt>
      <trkpt lat="40.769350" lon="-4.386033">
        <ele>2183.0</ele>
        <time>2014-06-30T15:27:53Z</time>
      </trkpt>
      <trkpt lat="40.769467" lon="-4.386000">
        <ele>2177.0</ele>
        <time>2014-06-30T15:27:54Z</time>
      </trkpt>
      <trkpt lat="40.769583" lon="-4.385967">
        <ele>2171.0</ele>
        <time>2014-06-30T15:27:55Z</time>
      </trkpt>
      <trkpt lat="40.769717" lon="-4.385933">
        <ele>2166.0</ele>
        <time>2014-06-30T15:27:56Z</time>
      </trkpt>
      <trkpt lat="40.769833" lon="-4.385900">
        <ele>2161.0</ele>
        <time>2014-06-30T15:27:57Z</time>
      </trkpt>
      <trkpt lat="40.769950" lon="-4.385850">
        <ele>2157.0</ele>
        <time>2014-06-30T15:27:58Z</time>
      </trkpt>
      <trkpt lat="40.770050" lon="-4.385833">
        <ele>2154.0</ele>
        <time>2014-06-30T15:27:59Z</time>
      </trkpt>
      <trkpt lat="40.770150" lon="-4.385817">
        <ele>2150.0</ele>
        <time>2014-06-30T15:28:00Z</time>
      </trkpt>
      <trkpt lat="40.770267" lon="-4.385800">
        <ele>2145.0</ele>
        <time>2014-06-30T15:28:01Z</time>
      </trkpt>
      <trkpt lat="40.770383" lon="-4.385783">
        <ele>2140.0</ele>
        <time>2014-06-30T15:28:02Z</time>
      </trkpt>
      <trkpt lat="40.770517" lon="-4.385733">
        <ele>2135.0</ele>
        <time>2014-06-30T15:28:03Z</time>
      </trkpt>
      <trkpt lat="40.770633" lon="-4.385683">
        <ele>2130.0</ele>
        <time>2014-06-30T15:28:04Z</time>
      </trkpt>
      <trkpt lat="40.770750" lon="-4.385650">
        <ele>2126.0</ele>
        <time>2014-06-30T15:28:05Z</time>
      </trkpt>
      <trkpt lat="40.770867" lon="-4.385650">
        <ele>2122.0</ele>
        <time>2014-06-30T15:28:06Z</time>
      </trkpt>
      <trkpt lat="40.770983" lon="-4.385650">
        <ele>2117.0</ele>
        <time>2014-06-30T15:28:07Z</time>
      </trkpt>
      <trkpt lat="40.771117" lon="-4.385633">
        <ele>2112.0</ele>
        <time>2014-06-30T15:28:08Z</time>
      </trkpt>
      <trkpt lat="40.771250" lon="-4.385617">
        <ele>2108.0</ele>
        <time>2014-06-30T15:28:09Z</time>
      </trkpt>
      <trkpt lat="40.771367" lon="-4.385633">
        <ele>2105.0</ele>
        <time>2014-06-30T15:28:10Z</time>
      </trkpt>
      <trkpt lat="40.771500" lon="-4.385617">
        <ele>2101.0</ele>
        <time>2014-06-30T15:28:11Z</time>
      </trkpt>
      <trkpt lat="40.771600" lon="-4.385600">
        <ele>2097.0</ele>
        <time>2014-06-30T15:28:12Z</time>
      </trkpt>
      <trkpt lat="40.771717" lon="-4.385567">
        <ele>2092.0</ele>
        <time>2014-06-30T15:28:13Z</time>
      </trkpt>
      <trkpt lat="40.771833" lon="-4.385533">
        <ele>2087.0</ele>
        <time>2014-06-30T15:28:14Z</time>
      </trkpt>
      <trkpt lat="40.771950" lon="-4.385483">
        <ele>2082.0</ele>
        <time>2014-06-30T15:28:15Z</time>
      </trkpt>
      <trkpt lat="40.772083" lon="-4.385400">
        <ele>2078.0</ele>
        <time>2014-06-30T15:28:16Z</time>
      </trkpt>
      <trkpt lat="40.772200" lon="-4.385317">
        <ele>2074.0</ele>
        <time>2014-06-30T15:28:17Z</time>
      </trkpt>
      <trkpt lat="40.772283" lon="-4.385217">
        <ele>2075.0</ele>
        <time>2014-06-30T15:28:18Z</time>
      </trkpt>
      <trkpt lat="40.772367" lon="-4.385133">
        <ele>2072.0</ele>
        <time>2014-06-30T15:28:19Z</time>
      </trkpt>
      <trkpt lat="40.772450" lon="-4.385050">
        <ele>2071.0</ele>
        <time>2014-06-30T15:28:20Z</time>
      </trkpt>
      <trkpt lat="40.772550" lon="-4.384983">
        <ele>2068.0</ele>
        <time>2014-06-30T15:28:21Z</time>
      </trkpt>
      <trkpt lat="40.772650" lon="-4.384900">
        <ele>2065.0</ele>
        <time>2014-06-30T15:28:22Z</time>
      </trkpt>
      <trkpt lat="40.772750" lon="-4.384783">
        <ele>2063.0</ele>
        <time>2014-06-30T15:28:23Z</time>
      </trkpt>
      <trkpt lat="40.772850" lon="-4.384683">
        <ele>2061.0</ele>
        <time>2014-06-30T15:28:24Z</time>
      </trkpt>
      <trkpt lat="40.772967" lon="-4.384600">
        <ele>2060.0</ele>
        <time>2014-06-30T15:28:25Z</time>
      </trkpt>
      <trkpt lat="40.773067" lon="-4.384517">
        <ele>2059.0</ele>
        <time>2014-06-30T15:28:26Z</time>
      </trkpt>
      <trkpt lat="40.773167" lon="-4.384450">
        <ele>2058.0</ele>
        <time>2014-06-30T15:28:27Z</time>
      </trkpt>
      <trkpt lat="40.773250" lon="-4.384383">
        <ele>2058.0</ele>
        <time>2014-06-30T15:28:28Z</time>
      </trkpt>
      <trkpt lat="40.773333" lon="-4.384333">
        <ele>2057.0</ele>
        <time>2014-06-30T15:28:29Z</time>
      </trkpt>
      <trkpt lat="40.773433" lon="-4.384283">
        <ele>2056.0</ele>
        <time>2014-06-30T15:28:30Z</time>
      </trkpt>
      <trkpt lat="40.773533" lon="-4.384250">
        <ele>2054.0</ele>
        <time>2014-06-30T15:28:31Z</time>
      </trkpt>
      <trkpt lat="40.773633" lon="-4.384200">
        <ele>2053.0</ele>
        <time>2014-06-30T15:28:32Z</time>
      </trkpt>
      <trkpt lat="40.773733" lon="-4.384150">
        <ele>2051.0</ele>
        <time>2014-06-30T15:28:33Z</time>
      </trkpt>
      <trkpt lat="40.773833" lon="-4.384117">
        <ele>2051.0</ele>
        <time>2014-06-30T15:28:34Z</time>
      </trkpt>
      <trkpt lat="40.773917" lon="-4.384083">
        <ele>2050.0</ele>
        <time>2014-06-30T15:28:35Z</time>
      </trkpt>
      <trkpt lat="40.774017" lon="-4.384050">
        <ele>2049.0</ele>
        <time>2014-06-30T15:28:36Z</time>
      </trkpt>
      <trkpt lat="40.774117" lon="-4.384033">
        <ele>2047.0</ele>
        <time>2014-06-30T15:28:37Z</time>
      </trkpt>
      <trkpt lat="40.774217" lon="-4.384000">
        <ele>2045.0</ele>
        <time>2014-06-30T15:28:38Z</time>
      </trkpt>
      <trkpt lat="40.774317" lon="-4.383967">
        <ele>2044.0</ele>
        <time>2014-06-30T15:28:39Z</time>
      </trkpt>
      <trkpt lat="40.774417" lon="-4.383933">
        <ele>2043.0</ele>
        <time>2014-06-30T15:28:40Z</time>
      </trkpt>
      <trkpt lat="40.774517" lon="-4.383900">
        <ele>2040.0</ele>
        <time>2014-06-30T15:28:41Z</time>
      </trkpt>
      <trkpt lat="40.774617" lon="-4.383867">
        <ele>2037.0</ele>
        <time>2014-06-30T15:28:42Z</time>
      </trkpt>
      <trkpt lat="40.774733" lon="-4.383817">
        <ele>2034.0</ele>
        <time>2014-06-30T15:28:43Z</time>
      </trkpt>
      <trkpt lat="40.774850" lon="-4.383733">
        <ele>2031.0</ele>
        <time>2014-06-30T15:28:44Z</time>
      </trkpt>
      <trkpt lat="40.774967" lon="-4.383650">
        <ele>2029.0</ele>
        <time>2014-06-30T15:28:45Z</time>
      </trkpt>
      <trkpt lat="40.775050" lon="-4.383583">
        <ele>2028.0</ele>
        <time>2014-06-30T15:28:46Z</time>
      </trkpt>
      <trkpt lat="40.775150" lon="-4.383533">
        <ele>2027.0</ele>
        <time>2014-06-30T15:28:47Z</time>
      </trkpt>
      <trkpt lat="40.775250" lon="-4.383483">
        <ele>2028.0</ele>
        <time>2014-06-30T15:28:48Z</time>
      </trkpt>
      <trkpt lat="40.775350" lon="-4.383433">
        <ele>2026.0</ele>
        <time>2014-06-30T15:28:49Z</time>
      </trkpt>
      <trkpt lat="40.775450" lon="-4.383383">
        <ele>2024.0</ele>
        <time>2014-06-30T15:28:50Z</time>
      </trkpt>
      <trkpt lat="40.775567" lon="-4.383333">
        <ele>2022.0</ele>
        <time>2014-06-30T15:28:51Z</time>
      </trkpt>
      <trkpt lat="40.775683" lon="-4.383283">
        <ele>2020.0</ele>
        <time>2014-06-30T15:28:52Z</time>
      </trkpt>
      <trkpt lat="40.775783" lon="-4.383217">
        <ele>2019.0</ele>
        <time>2014-06-30T15:28:53Z</time>
      </trkpt>
      <trkpt lat="40.775883" lon="-4.383167">
        <ele>2019.0</ele>
        <time>2014-06-30T15:28:54Z</time>
      </trkpt>
      <trkpt lat="40.775983" lon="-4.383117">
        <ele>2017.0</ele>
        <time>2014-06-30T15:28:55Z</time>
      </trkpt>
      <trkpt lat="40.776083" lon="-4.383050">
        <ele>2016.0</ele>
        <time>2014-06-30T15:28:56Z</time>
      </trkpt>
      <trkpt lat="40.776183" lon="-4.382967">
        <ele>2013.0</ele>
        <time>2014-06-30T15:28:57Z</time>
      </trkpt>
      <trkpt lat="40.776283" lon="-4.382883">
        <ele>2012.0</ele>
        <time>2014-06-30T15:28:58Z</time>
      </trkpt>
      <trkpt lat="40.776400" lon="-4.382817">
        <ele>2010.0</ele>
        <time>2014-06-30T15:28:59Z</time>
      </trkpt>
      <trkpt lat="40.776500" lon="-4.382750">
        <ele>2009.0</ele>
        <time>2014-06-30T15:29:00Z</time>
      </trkpt>
      <trkpt lat="40.776600" lon="-4.382700">
        <ele>2007.0</ele>
        <time>2014-06-30T15:29:01Z</time>
      </trkpt>
      <trkpt lat="40.776683" lon="-4.382633">
        <ele>2005.0</ele>
        <time>2014-06-30T15:29:02Z</time>
      </trkpt>
      <trkpt lat="40.776800" lon="-4.382567">
        <ele>2002.0</ele>
        <time>2014-06-30T15:29:03Z</time>
      </trkpt>
      <trkpt lat="40.776900" lon="-4.382483">
        <ele>2000.0</ele>
        <time>2014-06-30T15:29:04Z</time>
      </trkpt>
      <trkpt lat="40.777017" lon="-4.382400">
        <ele>1999.0</ele>
        <time>2014-06-30T15:29:05Z</time>
      </trkpt>
      <trkpt lat="40.777100" lon="-4.382333">
        <ele>1998.0</ele>
        <time>2014-06-30T15:29:06Z</time>
      </trkpt>
      <trkpt lat="40.777200" lon="-4.382267">
        <ele>1996.0</ele>
        <time>2014-06-30T15:29:07Z</time>
      </trkpt>
      <trkpt lat="40.777300" lon="-4.382200">
        <ele>1993.0</ele>
        <time>2014-06-30T15:29:08Z</time>
      </trkpt>
      <trkpt lat="40.777400" lon="-4.382133">
        <ele>1991.0</ele>
        <time>2014-06-30T15:29:09Z</time>
      </trkpt>
      <trkpt lat="40.777500" lon="-4.382067">
        <ele>1988.0</ele>
        <time>2014-06-30T15:29:10Z</time>
      </trkpt>
      <trkpt lat="40.777617" lon="-4.382000">
        <ele>1985.0</ele>
        <time>2014-06-30T15:29:11Z</time>
      </trkpt>
      <trkpt lat="40.777733" lon="-4.381917">
        <ele>1984.0</ele>
        <time>2014-06-30T15:29:12Z</time>
      </trkpt>
      <trkpt lat="40.777833" lon="-4.381850">
        <ele>1982.0</ele>
        <time>2014-06-30T15:29:13Z</time>
      </trkpt>
      <trkpt lat="40.777933" lon="-4.381783">
        <ele>1981.0</ele>
        <time>2014-06-30T15:29:14Z</time>
      </trkpt>
      <trkpt lat="40.778033" lon="-4.381733">
        <ele>1980.0</ele>
        <time>2014-06-30T15:29:15Z</time>
      </trkpt>
      <trkpt lat="40.778133" lon="-4.381683">
        <ele>1979.0</ele>
        <time>2014-06-30T15:29:16Z</time>
      </trkpt>
      <trkpt lat="40.778233" lon="-4.381633">
        <ele>1977.0</ele>
        <time>2014-06-30T15:29:17Z</time>
      </trkpt>
      <trkpt lat="40.778317" lon="-4.381583">
        <ele>1975.0</ele>
        <time>2014-06-30T15:29:18Z</time>
      </trkpt>
      <trkpt lat="40.778417" lon="-4.381500">
        <ele>1974.0</ele>
        <time>2014-06-30T15:29:19Z</time>
      </trkpt>
      <trkpt lat="40.778517" lon="-4.381433">
        <ele>1972.0</ele>
        <time>2014-06-30T15:29:20Z</time>
      </trkpt>
      <trkpt lat="40.778617" lon="-4.381367">
        <ele>1969.0</ele>
        <time>2014-06-30T15:29:21Z</time>
      </trkpt>
      <trkpt lat="40.778717" lon="-4.381317">
        <ele>1966.0</ele>
        <time>2014-06-30T15:29:22Z</time>
      </trkpt>
      <trkpt lat="40.778817" lon="-4.381250">
        <ele>1963.0</ele>
        <time>2014-06-30T15:29:23Z</time>
      </trkpt>
      <trkpt lat="40.778933" lon="-4.381200">
        <ele>1961.0</ele>
        <time>2014-06-30T15:29:24Z</time>
      </trkpt>
      <trkpt lat="40.779033" lon="-4.381167">
        <ele>1958.0</ele>
        <time>2014-06-30T15:29:25Z</time>
      </trkpt>
      <trkpt lat="40.779133" lon="-4.381150">
        <ele>1956.0</ele>
        <time>2014-06-30T15:29:26Z</time>
      </trkpt>
      <trkpt lat="40.779217" lon="-4.381117">
        <ele>1954.0</ele>
        <time>2014-06-30T15:29:27Z</time>
      </trkpt>
      <trkpt lat="40.779333" lon="-4.381083">
        <ele>1952.0</ele>
        <time>2014-06-30T15:29:28Z</time>
      </trkpt>
      <trkpt lat="40.779433" lon="-4.381017">
        <ele>1951.0</ele>
        <time>2014-06-30T15:29:29Z</time>
      </trkpt>
      <trkpt lat="40.779517" lon="-4.380950">
        <ele>1949.0</ele>
        <time>2014-06-30T15:29:30Z</time>
      </trkpt>
      <trkpt lat="40.779600" lon="-4.380883">
        <ele>1947.0</ele>
        <time>2014-06-30T15:29:31Z</time>
      </trkpt>
      <trkpt lat="40.779700" lon="-4.380817">
        <ele>1945.0</ele>
        <time>2014-06-30T15:29:32Z</time>
      </trkpt>
      <trkpt lat="40.779817" lon="-4.380750">
        <ele>1944.0</ele>
        <time>2014-06-30T15:29:33Z</time>
      </trkpt>
      <trkpt lat="40.779917" lon="-4.380700">
        <ele>1945.0</ele>
        <time>2014-06-30T15:29:34Z</time>
      </trkpt>
      <trkpt lat="40.780000" lon="-4.380650">
        <ele>1945.0</ele>
        <time>2014-06-30T15:29:35Z</time>
      </trkpt>
      <trkpt lat="40.780083" lon="-4.380600">
        <ele>1944.0</ele>
        <time>2014-06-30T15:29:36Z</time>
      </trkpt>
      <trkpt lat="40.780167" lon="-4.380550">
        <ele>1942.0</ele>
        <time>2014-06-30T15:29:37Z</time>
      </trkpt>
      <trkpt lat="40.780250" lon="-4.380483">
        <ele>1939.0</ele>
        <time>2014-06-30T15:29:38Z</time>
      </trkpt>
      <trkpt lat="40.780350" lon="-4.380417">
        <ele>1935.0</ele>
        <time>2014-06-30T15:29:39Z</time>
      </trkpt>
      <trkpt lat="40.780450" lon="-4.380350">
        <ele>1933.0</ele>
        <time>2014-06-30T15:29:40Z</time>
      </trkpt>
      <trkpt lat="40.780567" lon="-4.380283">
        <ele>1931.0</ele>
        <time>2014-06-30T15:29:41Z</time>
      </trkpt>
      <trkpt lat="40.780667" lon="-4.380233">
        <ele>1928.0</ele>
        <time>2014-06-30T15:29:42Z</time>
      </trkpt>
      <trkpt lat="40.780767" lon="-4.380183">
        <ele>1925.0</ele>
        <time>2014-06-30T15:29:43Z</time>
      </trkpt>
      <trkpt lat="40.780883" lon="-4.380117">
        <ele>1922.0</ele>
        <time>2014-06-30T15:29:44Z</time>
      </trkpt>
      <trkpt lat="40.780983" lon="-4.380017">
        <ele>1918.0</ele>
        <time>2014-06-30T15:29:45Z</time>
      </trkpt>
      <trkpt lat="40.781100" lon="-4.379933">
        <ele>1915.0</ele>
        <time>2014-06-30T15:29:46Z</time>
      </trkpt>
      <trkpt lat="40.781217" lon="-4.379850">
        <ele>1913.0</ele>
        <time>2014-06-30T15:29:47Z</time>
      </trkpt>
      <trkpt lat="40.781333" lon="-4.379767">
        <ele>1912.0</ele>
        <time>2014-06-30T15:29:48Z</time>
      </trkpt>
      <trkpt lat="40.781433" lon="-4.379683">
        <ele>1911.0</ele>
        <time>2014-06-30T15:29:49Z</time>
      </trkpt>
      <trkpt lat="40.781533" lon="-4.379600">
        <ele>1910.0</ele>
        <time>2014-06-30T15:29:50Z</time>
      </trkpt>
      <trkpt lat="40.781633" lon="-4.379500">
        <ele>1907.0</ele>
        <time>2014-06-30T15:29:51Z</time>
      </trkpt>
      <trkpt lat="40.781767" lon="-4.379367">
        <ele>1904.0</ele>
        <time>2014-06-30T15:29:52Z</time>
      </trkpt>
      <trkpt lat="40.781883" lon="-4.379233">
        <ele>1902.0</ele>
        <time>2014-06-30T15:29:53Z</time>
      </trkpt>
      <trkpt lat="40.782000" lon="-4.379117">
        <ele>1902.0</ele>
        <time>2014-06-30T15:29:54Z</time>
      </trkpt>
      <trkpt lat="40.782100" lon="-4.379000">
        <ele>1903.0</ele>
        <time>2014-06-30T15:29:55Z</time>
      </trkpt>
      <trkpt lat="40.782183" lon="-4.378900">
        <ele>1903.0</ele>
        <time>2014-06-30T15:29:56Z</time>
      </trkpt>
      <trkpt lat="40.782267" lon="-4.378800">
        <ele>1902.0</ele>
        <time>2014-06-30T15:29:57Z</time>
      </trkpt>
      <trkpt lat="40.782350" lon="-4.378683">
        <ele>1900.0</ele>
        <time>2014-06-30T15:29:58Z</time>
      </trkpt>
      <trkpt lat="40.782467" lon="-4.378567">
        <ele>1898.0</ele>
        <time>2014-06-30T15:29:59Z</time>
      </trkpt>
      <trkpt lat="40.782583" lon="-4.378433">
        <ele>1897.0</ele>
        <time>2014-06-30T15:30:00Z</time>
      </trkpt>
      <trkpt lat="40.782683" lon="-4.378317">
        <ele>1895.0</ele>
        <time>2014-06-30T15:30:01Z</time>
      </trkpt>
      <trkpt lat="40.782783" lon="-4.378183">
        <ele>1895.0</ele>
        <time>2014-06-30T15:30:02Z</time>
      </trkpt>
      <trkpt lat="40.782883" lon="-4.378083">
        <ele>1894.0</ele>
        <time>2014-06-30T15:30:03Z</time>
      </trkpt>
      <trkpt lat="40.783000" lon="-4.377967">
        <ele>1893.0</ele>
        <time>2014-06-30T15:30:04Z</time>
      </trkpt>
      <trkpt lat="40.783100" lon="-4.377850">
        <ele>1890.0</ele>
        <time>2014-06-30T15:30:05Z</time>
      </trkpt>
      <trkpt lat="40.783217" lon="-4.377717">
        <ele>1888.0</ele>
        <time>2014-06-30T15:30:06Z</time>
      </trkpt>
      <trkpt lat="40.783333" lon="-4.377583">
        <ele>1886.0</ele>
        <time>2014-06-30T15:30:07Z</time>
      </trkpt>
      <trkpt lat="40.783433" lon="-4.377433">
        <ele>1885.0</ele>
        <time>2014-06-30T15:30:08Z</time>
      </trkpt>
      <trkpt lat="40.783550" lon="-4.377317">
        <ele>1885.0</ele>
        <time>2014-06-30T15:30:09Z</time>
      </trkpt>
      <trkpt lat="40.783633" lon="-4.377183">
        <ele>1885.0</ele>
        <time>2014-06-30T15:30:10Z</time>
      </trkpt>
      <trkpt lat="40.783733" lon="-4.377050">
        <ele>1884.0</ele>
        <time>2014-06-30T15:30:11Z</time>
      </trkpt>
      <trkpt lat="40.783817" lon="-4.376933">
        <ele>1883.0</ele>
        <time>2014-06-30T15:30:12Z</time>
      </trkpt>
      <trkpt lat="40.783917" lon="-4.376817">
        <ele>1881.0</ele>
        <time>2014-06-30T15:30:13Z</time>
      </trkpt>
      <trkpt lat="40.784017" lon="-4.376700">
        <ele>1879.0</ele>
        <time>2014-06-30T15:30:14Z</time>
      </trkpt>
      <trkpt lat="40.784117" lon="-4.376567">
        <ele>1877.0</ele>
        <time>2014-06-30T15:30:15Z</time>
      </trkpt>
      <trkpt lat="40.784233" lon="-4.376450">
        <ele>1876.0</ele>
        <time>2014-06-30T15:30:16Z</time>
      </trkpt>
      <trkpt lat="40.784333" lon="-4.376333">
        <ele>1876.0</ele>
        <time>2014-06-30T15:30:17Z</time>
      </trkpt>
      <trkpt lat="40.784433" lon="-4.376233">
        <ele>1875.0</ele>
        <time>2014-06-30T15:30:18Z</time>
      </trkpt>
      <trkpt lat="40.784533" lon="-4.376133">
        <ele>1873.0</ele>
        <time>2014-06-30T15:30:19Z</time>
      </trkpt>
      <trkpt lat="40.784617" lon="-4.376033">
        <ele>1872.0</ele>
        <time>2014-06-30T15:30:20Z</time>
      </trkpt>
      <trkpt lat="40.784733" lon="-4.375933">
        <ele>1871.0</ele>
        <time>2014-06-30T15:30:21Z</time>
      </trkpt>
      <trkpt lat="40.784833" lon="-4.375817">
        <ele>1870.0</ele>
        <time>2014-06-30T15:30:22Z</time>
      </trkpt>
      <trkpt lat="40.784950" lon="-4.375717">
        <ele>1869.0</ele>
        <time>2014-06-30T15:30:23Z</time>
      </trkpt>
      <trkpt lat="40.785050" lon="-4.375600">
        <ele>1868.0</ele>
        <time>2014-06-30T15:30:24Z</time>
      </trkpt>
      <trkpt lat="40.785150" lon="-4.375500">
        <ele>1867.0</ele>
        <time>2014-06-30T15:30:25Z</time>
      </trkpt>
      <trkpt lat="40.785267" lon="-4.375417">
        <ele>1866.0</ele>
        <time>2014-06-30T15:30:26Z</time>
      </trkpt>
      <trkpt lat="40.785367" lon="-4.375317">
        <ele>1864.0</ele>
        <time>2014-06-30T15:30:27Z</time>
      </trkpt>
      <trkpt lat="40.785483" lon="-4.375217">
        <ele>1863.0</ele>
        <time>2014-06-30T15:30:28Z</time>
      </trkpt>
      <trkpt lat="40.785583" lon="-4.375100">
        <ele>1862.0</ele>
        <time>2014-06-30T15:30:29Z</time>
      </trkpt>
      <trkpt lat="40.785700" lon="-4.374983">
        <ele>1861.0</ele>
        <time>2014-06-30T15:30:30Z</time>
      </trkpt>
      <trkpt lat="40.785800" lon="-4.374883">
        <ele>1860.0</ele>
        <time>2014-06-30T15:30:31Z</time>
      </trkpt>
      <trkpt lat="40.785900" lon="-4.374767">
        <ele>1859.0</ele>
        <time>2014-06-30T15:30:32Z</time>
      </trkpt>
      <trkpt lat="40.786000" lon="-4.374650">
        <ele>1858.0</ele>
        <time>2014-06-30T15:30:33Z</time>
      </trkpt>
      <trkpt lat="40.786100" lon="-4.374550">
        <ele>1857.0</ele>
        <time>2014-06-30T15:30:34Z</time>
      </trkpt>
      <trkpt lat="40.786200" lon="-4.374433">
        <ele>1856.0</ele>
        <time>2014-06-30T15:30:35Z</time>
      </trkpt>
      <trkpt lat="40.786300" lon="-4.374350">
        <ele>1855.0</ele>
        <time>2014-06-30T15:30:36Z</time>
      </trkpt>
      <trkpt lat="40.786400" lon="-4.374250">
        <ele>1854.0</ele>
        <time>2014-06-30T15:30:37Z</time>
      </trkpt>
      <trkpt lat="40.786483" lon="-4.374150">
        <ele>1853.0</ele>
        <time>2014-06-30T15:30:38Z</time>
      </trkpt>
      <trkpt lat="40.786567" lon="-4.374033">
        <ele>1852.0</ele>
        <time>2014-06-30T15:30:39Z</time>
      </trkpt>
      <trkpt lat="40.786650" lon="-4.373917">
        <ele>1850.0</ele>
        <time>2014-06-30T15:30:40Z</time>
      </trkpt>
      <trkpt lat="40.786750" lon="-4.373817">
        <ele>1849.0</ele>
        <time>2014-06-30T15:30:41Z</time>
      </trkpt>
      <trkpt lat="40.786850" lon="-4.373700">
        <ele>1848.0</ele>
        <time>2014-06-30T15:30:42Z</time>
      </trkpt>
      <trkpt lat="40.786933" lon="-4.373600">
        <ele>1848.0</ele>
        <time>2014-06-30T15:30:43Z</time>
      </trkpt>
      <trkpt lat="40.787033" lon="-4.373500">
        <ele>1848.0</ele>
        <time>2014-06-30T15:30:44Z</time>
      </trkpt>
      <trkpt lat="40.787133" lon="-4.373400">
        <ele>1847.0</ele>
        <time>2014-06-30T15:30:45Z</time>
      </trkpt>
      <trkpt lat="40.787217" lon="-4.373300">
        <ele>1847.0</ele>
        <time>2014-06-30T15:30:46Z</time>
      </trkpt>
      <trkpt lat="40.787300" lon="-4.373183">
        <ele>1847.0</ele>
        <time>2014-06-30T15:30:47Z</time>
      </trkpt>
      <trkpt lat="40.787383" lon="-4.373083">
        <ele>1847.0</ele>
        <time>2014-06-30T15:30:48Z</time>
      </trkpt>
      <trkpt lat="40.787467" lon="-4.372967">
        <ele>1847.0</ele>
        <time>2014-06-30T15:30:49Z</time>
      </trkpt>
      <trkpt lat="40.787533" lon="-4.372867">
        <ele>1846.0</ele>
        <time>2014-06-30T15:30:50Z</time>
      </trkpt>
      <trkpt lat="40.787600" lon="-4.372750">
        <ele>1846.0</ele>
        <time>2014-06-30T15:30:51Z</time>
      </trkpt>
      <trkpt lat="40.787683" lon="-4.372650">
        <ele>1845.0</ele>
        <time>2014-06-30T15:30:52Z</time>
      </trkpt>
      <trkpt lat="40.787767" lon="-4.372550">
        <ele>1843.0</ele>
        <time>2014-06-30T15:30:53Z</time>
      </trkpt>
      <trkpt lat="40.787850" lon="-4.372467">
        <ele>1842.0</ele>
        <time>2014-06-30T15:30:54Z</time>
      </trkpt>
      <trkpt lat="40.787917" lon="-4.372367">
        <ele>1841.0</ele>
        <time>2014-06-30T15:30:55Z</time>
      </trkpt>
      <trkpt lat="40.787983" lon="-4.372267">
        <ele>1840.0</ele>
        <time>2014-06-30T15:30:56Z</time>
      </trkpt>
      <trkpt lat="40.788033" lon="-4.372167">
        <ele>1839.0</ele>
        <time>2014-06-30T15:30:57Z</time>
      </trkpt>
      <trkpt lat="40.788117" lon="-4.372067">
        <ele>1837.0</ele>
        <time>2014-06-30T15:30:58Z</time>
      </trkpt>
      <trkpt lat="40.788183" lon="-4.371967">
        <ele>1835.0</ele>
        <time>2014-06-30T15:30:59Z</time>
      </trkpt>
      <trkpt lat="40.788250" lon="-4.371900">
        <ele>1835.0</ele>
        <time>2014-06-30T15:31:00Z</time>
      </trkpt>
      <trkpt lat="40.788317" lon="-4.371833">
        <ele>1835.0</ele>
        <time>2014-06-30T15:31:01Z</time>
      </trkpt>
      <trkpt lat="40.788350" lon="-4.371767">
        <ele>1834.0</ele>
        <time>2014-06-30T15:31:02Z</time>
      </trkpt>
      <trkpt lat="40.788400" lon="-4.371700">
        <ele>1836.0</ele>
        <time>2014-06-30T15:31:03Z</time>
      </trkpt>
      <trkpt lat="40.788450" lon="-4.371633">
        <ele>1836.0</ele>
        <time>2014-06-30T15:31:04Z</time>
      </trkpt>
      <trkpt lat="40.788533" lon="-4.371550">
        <ele>1836.0</ele>
        <time>2014-06-30T15:31:05Z</time>
      </trkpt>
      <trkpt lat="40.788600" lon="-4.371450">
        <ele>1835.0</ele>
        <time>2014-06-30T15:31:06Z</time>
      </trkpt>
      <trkpt lat="40.788667" lon="-4.371350">
        <ele>1835.0</ele>
        <time>2014-06-30T15:31:07Z</time>
      </trkpt>
      <trkpt lat="40.788717" lon="-4.371250">
        <ele>1835.0</ele>
        <time>2014-06-30T15:31:08Z</time>
      </trkpt>
      <trkpt lat="40.788750" lon="-4.371167">
        <ele>1834.0</ele>
        <time>2014-06-30T15:31:09Z</time>
      </trkpt>
      <trkpt lat="40.788800" lon="-4.371083">
        <ele>1834.0</ele>
        <time>2014-06-30T15:31:10Z</time>
      </trkpt>
      <trkpt lat="40.788867" lon="-4.370983">
        <ele>1834.0</ele>
        <time>2014-06-30T15:31:11Z</time>
      </trkpt>
      <trkpt lat="40.788933" lon="-4.370900">
        <ele>1833.0</ele>
        <time>2014-06-30T15:31:12Z</time>
      </trkpt>
      <trkpt lat="40.789000" lon="-4.370783">
        <ele>1833.0</ele>
        <time>2014-06-30T15:31:13Z</time>
      </trkpt>
      <trkpt lat="40.789050" lon="-4.370683">
        <ele>1833.0</ele>
        <time>2014-06-30T15:31:14Z</time>
      </trkpt>
      <trkpt lat="40.789100" lon="-4.370583">
        <ele>1833.0</ele>
        <time>2014-06-30T15:31:15Z</time>
      </trkpt>
      <trkpt lat="40.789150" lon="-4.370483">
        <ele>1833.0</ele>
        <time>2014-06-30T15:31:16Z</time>
      </trkpt>
      <trkpt lat="40.789183" lon="-4.370400">
        <ele>1833.0</ele>
        <time>2014-06-30T15:31:17Z</time>
      </trkpt>
      <trkpt lat="40.789200" lon="-4.370317">
        <ele>1834.0</ele>
        <time>2014-06-30T15:31:18Z</time>
      </trkpt>
      <trkpt lat="40.789233" lon="-4.370233">
        <ele>1834.0</ele>
        <time>2014-06-30T15:31:19Z</time>
      </trkpt>
      <trkpt lat="40.789250" lon="-4.370133">
        <ele>1834.0</ele>
        <time>2014-06-30T15:31:20Z</time>
      </trkpt>
      <trkpt lat="40.789300" lon="-4.370017">
        <ele>1834.0</ele>
        <time>2014-06-30T15:31:21Z</time>
      </trkpt>
      <trkpt lat="40.789333" lon="-4.369917">
        <ele>1834.0</ele>
        <time>2014-06-30T15:31:22Z</time>
      </trkpt>
      <trkpt lat="40.789383" lon="-4.369833">
        <ele>1834.0</ele>
        <time>2014-06-30T15:31:23Z</time>
      </trkpt>
      <trkpt lat="40.789433" lon="-4.369750">
        <ele>1834.0</ele>
        <time>2014-06-30T15:31:24Z</time>
      </trkpt>
      <trkpt lat="40.789500" lon="-4.369633">
        <ele>1833.0</ele>
        <time>2014-06-30T15:31:25Z</time>
      </trkpt>
      <trkpt lat="40.789550" lon="-4.369517">
        <ele>1833.0</ele>
        <time>2014-06-30T15:31:26Z</time>
      </trkpt>
      <trkpt lat="40.789617" lon="-4.369383">
        <ele>1833.0</ele>
        <time>2014-06-30T15:31:27Z</time>
      </trkpt>
      <trkpt lat="40.789667" lon="-4.369267">
        <ele>1832.0</ele>
        <time>2014-06-30T15:31:28Z</time>
      </trkpt>
      <trkpt lat="40.789717" lon="-4.369167">
        <ele>1832.0</ele>
        <time>2014-06-30T15:31:29Z</time>
      </trkpt>
      <trkpt lat="40.789767" lon="-4.369067">
        <ele>1832.0</ele>
        <time>2014-06-30T15:31:30Z</time>
      </trkpt>
      <trkpt lat="40.789817" lon="-4.368967">
        <ele>1832.0</ele>
        <time>2014-06-30T15:31:31Z</time>
      </trkpt>
      <trkpt lat="40.789850" lon="-4.368867">
        <ele>1832.0</ele>
        <time>2014-06-30T15:31:32Z</time>
      </trkpt>
      <trkpt lat="40.789883" lon="-4.368750">
        <ele>1832.0</ele>
        <time>2014-06-30T15:31:33Z</time>
      </trkpt>
      <trkpt lat="40.789933" lon="-4.368633">
        <ele>1832.0</ele>
        <time>2014-06-30T15:31:34Z</time>
      </trkpt>
      <trkpt lat="40.789983" lon="-4.368517">
        <ele>1831.0</ele>
        <time>2014-06-30T15:31:35Z</time>
      </trkpt>
      <trkpt lat="40.790033" lon="-4.368417">
        <ele>1830.0</ele>
        <time>2014-06-30T15:31:36Z</time>
      </trkpt>
      <trkpt lat="40.790100" lon="-4.368317">
        <ele>1830.0</ele>
        <time>2014-06-30T15:31:37Z</time>
      </trkpt>
      <trkpt lat="40.790167" lon="-4.368217">
        <ele>1829.0</ele>
        <time>2014-06-30T15:31:38Z</time>
      </trkpt>
      <trkpt lat="40.790200" lon="-4.368100">
        <ele>1829.0</ele>
        <time>2014-06-30T15:31:39Z</time>
      </trkpt>
      <trkpt lat="40.790233" lon="-4.367967">
        <ele>1829.0</ele>
        <time>2014-06-30T15:31:40Z</time>
      </trkpt>
      <trkpt lat="40.790267" lon="-4.367833">
        <ele>1828.0</ele>
        <time>2014-06-30T15:31:41Z</time>
      </trkpt>
      <trkpt lat="40.790317" lon="-4.367717">
        <ele>1827.0</ele>
        <time>2014-06-30T15:31:42Z</time>
      </trkpt>
      <trkpt lat="40.790383" lon="-4.367617">
        <ele>1825.0</ele>
        <time>2014-06-30T15:31:43Z</time>
      </trkpt>
      <trkpt lat="40.790450" lon="-4.367500">
        <ele>1823.0</ele>
        <time>2014-06-30T15:31:44Z</time>
      </trkpt>
      <trkpt lat="40.790500" lon="-4.367383">
        <ele>1822.0</ele>
        <time>2014-06-30T15:31:45Z</time>
      </trkpt>
      <trkpt lat="40.790550" lon="-4.367267">
        <ele>1821.0</ele>
        <time>2014-06-30T15:31:46Z</time>
      </trkpt>
      <trkpt lat="40.790600" lon="-4.367150">
        <ele>1820.0</ele>
        <time>2014-06-30T15:31:47Z</time>
      </trkpt>
      <trkpt lat="40.790650" lon="-4.367050">
        <ele>1819.0</ele>
        <time>2014-06-30T15:31:48Z</time>
      </trkpt>
      <trkpt lat="40.790700" lon="-4.366933">
        <ele>1818.0</ele>
        <time>2014-06-30T15:31:49Z</time>
      </trkpt>
      <trkpt lat="40.790750" lon="-4.366817">
        <ele>1816.0</ele>
        <time>2014-06-30T15:31:50Z</time>
      </trkpt>
      <trkpt lat="40.790817" lon="-4.366700">
        <ele>1815.0</ele>
        <time>2014-06-30T15:31:51Z</time>
      </trkpt>
      <trkpt lat="40.790850" lon="-4.366583">
        <ele>1814.0</ele>
        <time>2014-06-30T15:31:52Z</time>
      </trkpt>
      <trkpt lat="40.790883" lon="-4.366483">
        <ele>1812.0</ele>
        <time>2014-06-30T15:31:53Z</time>
      </trkpt>
      <trkpt lat="40.790917" lon="-4.366400">
        <ele>1816.0</ele>
        <time>2014-06-30T15:31:54Z</time>
      </trkpt>
      <trkpt lat="40.790967" lon="-4.366283">
        <ele>1816.0</ele>
        <time>2014-06-30T15:31:55Z</time>
      </trkpt>
      <trkpt lat="40.791000" lon="-4.366183">
        <ele>1816.0</ele>
        <time>2014-06-30T15:31:56Z</time>
      </trkpt>
      <trkpt lat="40.791050" lon="-4.366050">
        <ele>1815.0</ele>
        <time>2014-06-30T15:31:57Z</time>
      </trkpt>
      <trkpt lat="40.791083" lon="-4.365933">
        <ele>1815.0</ele>
        <time>2014-06-30T15:31:58Z</time>
      </trkpt>
      <trkpt lat="40.791117" lon="-4.365817">
        <ele>1814.0</ele>
        <time>2014-06-30T15:31:59Z</time>
      </trkpt>
      <trkpt lat="40.791117" lon="-4.365717">
        <ele>1814.0</ele>
        <time>2014-06-30T15:32:00Z</time>
      </trkpt>
      <trkpt lat="40.791133" lon="-4.365617">
        <ele>1814.0</ele>
        <time>2014-06-30T15:32:01Z</time>
      </trkpt>
      <trkpt lat="40.791133" lon="-4.365533">
        <ele>1814.0</ele>
        <time>2014-06-30T15:32:02Z</time>
      </trkpt>
      <trkpt lat="40.791150" lon="-4.365467">
        <ele>1813.0</ele>
        <time>2014-06-30T15:32:03Z</time>
      </trkpt>
      <trkpt lat="40.791183" lon="-4.365383">
        <ele>1813.0</ele>
        <time>2014-06-30T15:32:04Z</time>
      </trkpt>
      <trkpt lat="40.791200" lon="-4.365300">
        <ele>1812.0</ele>
        <time>2014-06-30T15:32:05Z</time>
      </trkpt>
      <trkpt lat="40.791217" lon="-4.365217">
        <ele>1812.0</ele>
        <time>2014-06-30T15:32:06Z</time>
      </trkpt>
      <trkpt lat="40.791250" lon="-4.365150">
        <ele>1811.0</ele>
        <time>2014-06-30T15:32:07Z</time>
      </trkpt>
      <trkpt lat="40.791317" lon="-4.365083">
        <ele>1810.0</ele>
        <time>2014-06-30T15:32:08Z</time>
      </trkpt>
      <trkpt lat="40.791383" lon="-4.364983">
        <ele>1810.0</ele>
        <time>2014-06-30T15:32:09Z</time>
      </trkpt>
      <trkpt lat="40.791433" lon="-4.364900">
        <ele>1809.0</ele>
        <time>2014-06-30T15:32:10Z</time>
      </trkpt>
      <trkpt lat="40.791467" lon="-4.364800">
        <ele>1809.0</ele>
        <time>2014-06-30T15:32:11Z</time>
      </trkpt>
      <trkpt lat="40.791500" lon="-4.364700">
        <ele>1808.0</ele>
        <time>2014-06-30T15:32:12Z</time>
      </trkpt>
      <trkpt lat="40.791550" lon="-4.364633">
        <ele>1808.0</ele>
        <time>2014-06-30T15:32:13Z</time>
      </trkpt>
      <trkpt lat="40.791600" lon="-4.364533">
        <ele>1808.0</ele>
        <time>2014-06-30T15:32:14Z</time>
      </trkpt>
      <trkpt lat="40.791650" lon="-4.364433">
        <ele>1807.0</ele>
        <time>2014-06-30T15:32:15Z</time>
      </trkpt>
      <trkpt lat="40.791667" lon="-4.364317">
        <ele>1806.0</ele>
        <time>2014-06-30T15:32:16Z</time>
      </trkpt>
      <trkpt lat="40.791700" lon="-4.364200">
        <ele>1806.0</ele>
        <time>2014-06-30T15:32:17Z</time>
      </trkpt>
      <trkpt lat="40.791717" lon="-4.364100">
        <ele>1805.0</ele>
        <time>2014-06-30T15:32:18Z</time>
      </trkpt>
      <trkpt lat="40.791750" lon="-4.364017">
        <ele>1805.0</ele>
        <time>2014-06-30T15:32:19Z</time>
      </trkpt>
      <trkpt lat="40.791783" lon="-4.363933">
        <ele>1805.0</ele>
        <time>2014-06-30T15:32:20Z</time>
      </trkpt>
      <trkpt lat="40.791817" lon="-4.363817">
        <ele>1804.0</ele>
        <time>2014-06-30T15:32:21Z</time>
      </trkpt>
      <trkpt lat="40.791833" lon="-4.363683">
        <ele>1804.0</ele>
        <time>2014-06-30T15:32:22Z</time>
      </trkpt>
      <trkpt lat="40.791867" lon="-4.363583">
        <ele>1803.0</ele>
        <time>2014-06-30T15:32:23Z</time>
      </trkpt>
      <trkpt lat="40.791917" lon="-4.363533">
        <ele>1802.0</ele>
        <time>2014-06-30T15:32:24Z</time>
      </trkpt>
      <trkpt lat="40.791950" lon="-4.363467">
        <ele>1801.0</ele>
        <time>2014-06-30T15:32:25Z</time>
      </trkpt>
      <trkpt lat="40.791967" lon="-4.363417">
        <ele>1801.0</ele>
        <time>2014-06-30T15:32:26Z</time>
      </trkpt>
      <trkpt lat="40.792017" lon="-4.363400">
        <ele>1800.0</ele>
        <time>2014-06-30T15:32:27Z</time>
      </trkpt>
      <trkpt lat="40.792033" lon="-4.363417">
        <ele>1799.0</ele>
        <time>2014-06-30T15:32:28Z</time>
      </trkpt>
      <trkpt lat="40.792067" lon="-4.363483">
        <ele>1799.0</ele>
        <time>2014-06-30T15:32:29Z</time>
      </trkpt>
      <trkpt lat="40.792083" lon="-4.363600">
        <ele>1798.0</ele>
        <time>2014-06-30T15:32:30Z</time>
      </trkpt>
      <trkpt lat="40.792067" lon="-4.363717">
        <ele>1798.0</ele>
        <time>2014-06-30T15:32:31Z</time>
      </trkpt>
      <trkpt lat="40.792017" lon="-4.363833">
        <ele>1797.0</ele>
        <time>2014-06-30T15:32:32Z</time>
      </trkpt>
      <trkpt lat="40.791983" lon="-4.363917">
        <ele>1796.0</ele>
        <time>2014-06-30T15:32:33Z</time>
      </trkpt>
      <trkpt lat="40.791950" lon="-4.364017">
        <ele>1795.0</ele>
        <time>2014-06-30T15:32:34Z</time>
      </trkpt>
      <trkpt lat="40.791917" lon="-4.364100">
        <ele>1794.0</ele>
        <time>2014-06-30T15:32:35Z</time>
      </trkpt>
      <trkpt lat="40.791850" lon="-4.364200">
        <ele>1794.0</ele>
        <time>2014-06-30T15:32:36Z</time>
      </trkpt>
      <trkpt lat="40.791783" lon="-4.364283">
        <ele>1793.0</ele>
        <time>2014-06-30T15:32:37Z</time>
      </trkpt>
      <trkpt lat="40.791683" lon="-4.364367">
        <ele>1792.0</ele>
        <time>2014-06-30T15:32:38Z</time>
      </trkpt>
      <trkpt lat="40.791600" lon="-4.364417">
        <ele>1791.0</ele>
        <time>2014-06-30T15:32:39Z</time>
      </trkpt>
      <trkpt lat="40.791500" lon="-4.364467">
        <ele>1791.0</ele>
        <time>2014-06-30T15:32:40Z</time>
      </trkpt>
      <trkpt lat="40.791433" lon="-4.364517">
        <ele>1789.0</ele>
        <time>2014-06-30T15:32:41Z</time>
      </trkpt>
      <trkpt lat="40.791367" lon="-4.364567">
        <ele>1788.0</ele>
        <time>2014-06-30T15:32:42Z</time>
      </trkpt>
      <trkpt lat="40.791300" lon="-4.364617">
        <ele>1787.0</ele>
        <time>2014-06-30T15:32:43Z</time>
      </trkpt>
      <trkpt lat="40.791217" lon="-4.364650">
        <ele>1786.0</ele>
        <time>2014-06-30T15:32:44Z</time>
      </trkpt>
      <trkpt lat="40.791133" lon="-4.364683">
        <ele>1785.0</ele>
        <time>2014-06-30T15:32:45Z</time>
      </trkpt>
      <trkpt lat="40.791050" lon="-4.364700">
        <ele>1784.0</ele>
        <time>2014-06-30T15:32:46Z</time>
      </trkpt>
      <trkpt lat="40.790950" lon="-4.364717">
        <ele>1783.0</ele>
        <time>2014-06-30T15:32:47Z</time>
      </trkpt>
      <trkpt lat="40.790833" lon="-4.364700">
        <ele>1782.0</ele>
        <time>2014-06-30T15:32:48Z</time>
      </trkpt>
      <trkpt lat="40.790733" lon="-4.364700">
        <ele>1781.0</ele>
        <time>2014-06-30T15:32:49Z</time>
      </trkpt>
      <trkpt lat="40.790617" lon="-4.364700">
        <ele>1779.0</ele>
        <time>2014-06-30T15:32:50Z</time>
      </trkpt>
      <trkpt lat="40.790500" lon="-4.364700">
        <ele>1778.0</ele>
        <time>2014-06-30T15:32:51Z</time>
      </trkpt>
      <trkpt lat="40.790367" lon="-4.364717">
        <ele>1776.0</ele>
        <time>2014-06-30T15:32:52Z</time>
      </trkpt>
      <trkpt lat="40.790233" lon="-4.364717">
        <ele>1773.0</ele>
        <time>2014-06-30T15:32:53Z</time>
      </trkpt>
      <trkpt lat="40.790100" lon="-4.364717">
        <ele>1770.0</ele>
        <time>2014-06-30T15:32:54Z</time>
      </trkpt>
      <trkpt lat="40.789967" lon="-4.364700">
        <ele>1768.0</ele>
        <time>2014-06-30T15:32:55Z</time>
      </trkpt>
      <trkpt lat="40.789833" lon="-4.364683">
        <ele>1766.0</ele>
        <time>2014-06-30T15:32:56Z</time>
      </trkpt>
      <trkpt lat="40.789700" lon="-4.364650">
        <ele>1764.0</ele>
        <time>2014-06-30T15:32:57Z</time>
      </trkpt>
      <trkpt lat="40.789567" lon="-4.364600">
        <ele>1761.0</ele>
        <time>2014-06-30T15:32:58Z</time>
      </trkpt>
      <trkpt lat="40.789417" lon="-4.364533">
        <ele>1758.0</ele>
        <time>2014-06-30T15:32:59Z</time>
      </trkpt>
      <trkpt lat="40.789267" lon="-4.364467">
        <ele>1755.0</ele>
        <time>2014-06-30T15:33:00Z</time>
      </trkpt>
      <trkpt lat="40.789117" lon="-4.364400">
        <ele>1752.0</ele>
        <time>2014-06-30T15:33:01Z</time>
      </trkpt>
      <trkpt lat="40.788983" lon="-4.364317">
        <ele>1749.0</ele>
        <time>2014-06-30T15:33:02Z</time>
      </trkpt>
      <trkpt lat="40.788850" lon="-4.364217">
        <ele>1746.0</ele>
        <time>2014-06-30T15:33:03Z</time>
      </trkpt>
      <trkpt lat="40.788717" lon="-4.364117">
        <ele>1744.0</ele>
        <time>2014-06-30T15:33:04Z</time>
      </trkpt>
      <trkpt lat="40.788583" lon="-4.364000">
        <ele>1741.0</ele>
        <time>2014-06-30T15:33:05Z</time>
      </trkpt>
      <trkpt lat="40.788450" lon="-4.363900">
        <ele>1738.0</ele>
        <time>2014-06-30T15:33:06Z</time>
      </trkpt>
      <trkpt lat="40.788317" lon="-4.363800">
        <ele>1736.0</ele>
        <time>2014-06-30T15:33:07Z</time>
      </trkpt>
      <trkpt lat="40.788200" lon="-4.363667">
        <ele>1734.0</ele>
        <time>2014-06-30T15:33:08Z</time>
      </trkpt>
      <trkpt lat="40.788083" lon="-4.363533">
        <ele>1732.0</ele>
        <time>2014-06-30T15:33:09Z</time>
      </trkpt>
      <trkpt lat="40.787983" lon="-4.363383">
        <ele>1730.0</ele>
        <time>2014-06-30T15:33:10Z</time>
      </trkpt>
      <trkpt lat="40.787883" lon="-4.363250">
        <ele>1728.0</ele>
        <time>2014-06-30T15:33:11Z</time>
      </trkpt>
      <trkpt lat="40.787783" lon="-4.363117">
        <ele>1726.0</ele>
        <time>2014-06-30T15:33:12Z</time>
      </trkpt>
      <trkpt lat="40.787667" lon="-4.362983">
        <ele>1723.0</ele>
        <time>2014-06-30T15:33:13Z</time>
      </trkpt>
      <trkpt lat="40.787567" lon="-4.362867">
        <ele>1721.0</ele>
        <time>2014-06-30T15:33:14Z</time>
      </trkpt>
      <trkpt lat="40.787500" lon="-4.362700">
        <ele>1719.0</ele>
        <time>2014-06-30T15:33:15Z</time>
      </trkpt>
      <trkpt lat="40.787467" lon="-4.362550">
        <ele>1717.0</ele>
        <time>2014-06-30T15:33:16Z</time>
      </trkpt>
      <trkpt lat="40.787483" lon="-4.362417">
        <ele>1713.0</ele>
        <time>2014-06-30T15:33:17Z</time>
      </trkpt>
      <trkpt lat="40.787533" lon="-4.362300">
        <ele>1710.0</ele>
        <time>2014-06-30T15:33:18Z</time>
      </trkpt>
      <trkpt lat="40.787583" lon="-4.362200">
        <ele>1709.0</ele>
        <time>2014-06-30T15:33:19Z</time>
      </trkpt>
      <trkpt lat="40.787600" lon="-4.362117">
        <ele>1716.0</ele>
        <time>2014-06-30T15:33:20Z</time>
      </trkpt>
      <trkpt lat="40.787617" lon="-4.362033">
        <ele>1716.0</ele>
        <time>2014-06-30T15:33:21Z</time>
      </trkpt>
      <trkpt lat="40.787633" lon="-4.361967">
        <ele>1716.0</ele>
        <time>2014-06-30T15:33:22Z</time>
      </trkpt>
      <trkpt lat="40.787667" lon="-4.361933">
        <ele>1715.0</ele>
        <time>2014-06-30T15:33:23Z</time>
      </trkpt>
      <trkpt lat="40.787717" lon="-4.361883">
        <ele>1714.0</ele>
        <time>2014-06-30T15:33:24Z</time>
      </trkpt>
      <trkpt lat="40.787750" lon="-4.361833">
        <ele>1713.0</ele>
        <time>2014-06-30T15:33:25Z</time>
      </trkpt>
      <trkpt lat="40.787800" lon="-4.361783">
        <ele>1713.0</ele>
        <time>2014-06-30T15:33:26Z</time>
      </trkpt>
      <trkpt lat="40.787833" lon="-4.361733">
        <ele>1712.0</ele>
        <time>2014-06-30T15:33:27Z</time>
      </trkpt>
      <trkpt lat="40.787867" lon="-4.361683">
        <ele>1711.0</ele>
        <time>2014-06-30T15:33:28Z</time>
      </trkpt>
      <trkpt lat="40.787900" lon="-4.361633">
        <ele>1710.0</ele>
        <time>2014-06-30T15:33:29Z</time>
      </trkpt>
      <trkpt lat="40.787950" lon="-4.361567">
        <ele>1709.0</ele>
        <time>2014-06-30T15:33:30Z</time>
      </trkpt>
      <trkpt lat="40.788000" lon="-4.361517">
        <ele>1707.0</ele>
        <time>2014-06-30T15:33:31Z</time>
      </trkpt>
      <trkpt lat="40.788033" lon="-4.361467">
        <ele>1707.0</ele>
        <time>2014-06-30T15:33:32Z</time>
      </trkpt>
      <trkpt lat="40.788067" lon="-4.361417">
        <ele>1706.0</ele>
        <time>2014-06-30T15:33:33Z</time>
      </trkpt>
      <trkpt lat="40.788117" lon="-4.361367">
        <ele>1705.0</ele>
        <time>2014-06-30T15:33:34Z</time>
      </trkpt>
      <trkpt lat="40.788150" lon="-4.361317">
        <ele>1705.0</ele>
        <time>2014-06-30T15:33:35Z</time>
      </trkpt>
      <trkpt lat="40.788183" lon="-4.361283">
        <ele>1704.0</ele>
        <time>2014-06-30T15:33:36Z</time>
      </trkpt>
      <trkpt lat="40.788233" lon="-4.361233">
        <ele>1703.0</ele>
        <time>2014-06-30T15:33:37Z</time>
      </trkpt>
      <trkpt lat="40.788267" lon="-4.361200">
        <ele>1702.0</ele>
        <time>2014-06-30T15:33:38Z</time>
      </trkpt>
      <trkpt lat="40.788300" lon="-4.361150">
        <ele>1701.0</ele>
        <time>2014-06-30T15:33:39Z</time>
      </trkpt>
      <trkpt lat="40.788333" lon="-4.361100">
        <ele>1699.0</ele>
        <time>2014-06-30T15:33:40Z</time>
      </trkpt>
      <trkpt lat="40.788367" lon="-4.361050">
        <ele>1699.0</ele>
        <time>2014-06-30T15:33:41Z</time>
      </trkpt>
      <trkpt lat="40.788400" lon="-4.361017">
        <ele>1698.0</ele>
        <time>2014-06-30T15:33:42Z</time>
      </trkpt>
      <trkpt lat="40.788433" lon="-4.360983">
        <ele>1697.0</ele>
        <time>2014-06-30T15:33:43Z</time>
      </trkpt>
      <trkpt lat="40.788467" lon="-4.360967">
        <ele>1696.0</ele>
        <time>2014-06-30T15:33:44Z</time>
      </trkpt>
      <trkpt lat="40.788517" lon="-4.360950">
        <ele>1695.0</ele>
        <time>2014-06-30T15:33:45Z</time>
      </trkpt>
      <trkpt lat="40.788550" lon="-4.360917">
        <ele>1694.0</ele>
        <time>2014-06-30T15:33:46Z</time>
      </trkpt>
      <trkpt lat="40.788600" lon="-4.360900">
        <ele>1693.0</ele>
        <time>2014-06-30T15:33:47Z</time>
      </trkpt>
      <trkpt lat="40.788633" lon="-4.360883">
        <ele>1692.0</ele>
        <time>2014-06-30T15:33:48Z</time>
      </trkpt>
      <trkpt lat="40.788683" lon="-4.360850">
        <ele>1691.0</ele>
        <time>2014-06-30T15:33:49Z</time>
      </trkpt>
      <trkpt lat="40.788733" lon="-4.360817">
        <ele>1690.0</ele>
        <time>2014-06-30T15:33:50Z</time>
      </trkpt>
      <trkpt lat="40.788783" lon="-4.360783">
        <ele>1690.0</ele>
        <time>2014-06-30T15:33:51Z</time>
      </trkpt>
      <trkpt lat="40.788833" lon="-4.360750">
        <ele>1689.0</ele>
        <time>2014-06-30T15:33:52Z</time>
      </trkpt>
      <trkpt lat="40.788900" lon="-4.360750">
        <ele>1688.0</ele>
        <time>2014-06-30T15:33:53Z</time>
      </trkpt>
      <trkpt lat="40.788950" lon="-4.360733">
        <ele>1687.0</ele>
        <time>2014-06-30T15:33:54Z</time>
      </trkpt>
      <trkpt lat="40.789000" lon="-4.360717">
        <ele>1686.0</ele>
        <time>2014-06-30T15:33:55Z</time>
      </trkpt>
      <trkpt lat="40.789067" lon="-4.360700">
        <ele>1686.0</ele>
        <time>2014-06-30T15:33:56Z</time>
      </trkpt>
      <trkpt lat="40.789167" lon="-4.360717">
        <ele>1685.0</ele>
        <time>2014-06-30T15:33:57Z</time>
      </trkpt>
      <trkpt lat="40.789250" lon="-4.360733">
        <ele>1684.0</ele>
        <time>2014-06-30T15:33:58Z</time>
      </trkpt>
      <trkpt lat="40.789317" lon="-4.360750">
        <ele>1683.0</ele>
        <time>2014-06-30T15:33:59Z</time>
      </trkpt>
      <trkpt lat="40.789367" lon="-4.360750">
        <ele>1682.0</ele>
        <time>2014-06-30T15:34:00Z</time>
      </trkpt>
      <trkpt lat="40.789400" lon="-4.360750">
        <ele>1681.0</ele>
        <time>2014-06-30T15:34:01Z</time>
      </trkpt>
      <trkpt lat="40.789417" lon="-4.360733">
        <ele>1680.0</ele>
        <time>2014-06-30T15:34:02Z</time>
      </trkpt>
      <trkpt lat="40.789467" lon="-4.360717">
        <ele>1680.0</ele>
        <time>2014-06-30T15:34:03Z</time>
      </trkpt>
      <trkpt lat="40.789517" lon="-4.360683">
        <ele>1679.0</ele>
        <time>2014-06-30T15:34:04Z</time>
      </trkpt>
      <trkpt lat="40.789583" lon="-4.360650">
        <ele>1679.0</ele>
        <time>2014-06-30T15:34:05Z</time>
      </trkpt>
      <trkpt lat="40.789650" lon="-4.360617">
        <ele>1678.0</ele>
        <time>2014-06-30T15:34:06Z</time>
      </trkpt>
      <trkpt lat="40.789717" lon="-4.360617">
        <ele>1677.0</ele>
        <time>2014-06-30T15:34:07Z</time>
      </trkpt>
      <trkpt lat="40.789783" lon="-4.360583">
        <ele>1676.0</ele>
        <time>2014-06-30T15:34:08Z</time>
      </trkpt>
      <trkpt lat="40.789850" lon="-4.360550">
        <ele>1675.0</ele>
        <time>2014-06-30T15:34:09Z</time>
      </trkpt>
      <trkpt lat="40.789917" lon="-4.360483">
        <ele>1674.0</ele>
        <time>2014-06-30T15:34:10Z</time>
      </trkpt>
      <trkpt lat="40.789967" lon="-4.360417">
        <ele>1673.0</ele>
        <time>2014-06-30T15:34:11Z</time>
      </trkpt>
      <trkpt lat="40.790017" lon="-4.360367">
        <ele>1673.0</ele>
        <time>2014-06-30T15:34:12Z</time>
      </trkpt>
      <trkpt lat="40.790050" lon="-4.360317">
        <ele>1672.0</ele>
        <time>2014-06-30T15:34:13Z</time>
      </trkpt>
      <trkpt lat="40.790067" lon="-4.360267">
        <ele>1672.0</ele>
        <time>2014-06-30T15:34:14Z</time>
      </trkpt>
      <trkpt lat="40.790117" lon="-4.360217">
        <ele>1671.0</ele>
        <time>2014-06-30T15:34:15Z</time>
      </trkpt>
      <trkpt lat="40.790150" lon="-4.360200">
        <ele>1670.0</ele>
        <time>2014-06-30T15:34:16Z</time>
      </trkpt>
      <trkpt lat="40.790200" lon="-4.360217">
        <ele>1669.0</ele>
        <time>2014-06-30T15:34:17Z</time>
      </trkpt>
      <trkpt lat="40.790217" lon="-4.360283">
        <ele>1669.0</ele>
        <time>2014-06-30T15:34:18Z</time>
      </trkpt>
      <trkpt lat="40.790200" lon="-4.360350">
        <ele>1668.0</ele>
        <time>2014-06-30T15:34:19Z</time>
      </trkpt>
      <trkpt lat="40.790133" lon="-4.360400">
        <ele>1667.0</ele>
        <time>2014-06-30T15:34:20Z</time>
      </trkpt>
      <trkpt lat="40.790017" lon="-4.360400">
        <ele>1666.0</ele>
        <time>2014-06-30T15:34:21Z</time>
      </trkpt>
      <trkpt lat="40.789883" lon="-4.360333">
        <ele>1665.0</ele>
        <time>2014-06-30T15:34:22Z</time>
      </trkpt>
      <trkpt lat="40.789767" lon="-4.360217">
        <ele>1664.0</ele>
        <time>2014-06-30T15:34:23Z</time>
      </trkpt>
      <trkpt lat="40.789700" lon="-4.360067">
        <ele>1663.0</ele>
        <time>2014-06-30T15:34:24Z</time>
      </trkpt>
      <trkpt lat="40.789650" lon="-4.359917">
        <ele>1663.0</ele>
        <time>2014-06-30T15:34:25Z</time>
      </trkpt>
      <trkpt lat="40.789633" lon="-4.359767">
        <ele>1663.0</ele>
        <time>2014-06-30T15:34:26Z</time>
      </trkpt>
      <trkpt lat="40.789600" lon="-4.359633">
        <ele>1662.0</ele>
        <time>2014-06-30T15:34:27Z</time>
      </trkpt>
      <trkpt lat="40.789567" lon="-4.359500">
        <ele>1660.0</ele>
        <time>2014-06-30T15:34:28Z</time>
      </trkpt>
      <trkpt lat="40.789533" lon="-4.359367">
        <ele>1660.0</ele>
        <time>2014-06-30T15:34:29Z</time>
      </trkpt>
      <trkpt lat="40.789533" lon="-4.359233">
        <ele>1659.0</ele>
        <time>2014-06-30T15:34:30Z</time>
      </trkpt>
      <trkpt lat="40.789517" lon="-4.359083">
        <ele>1658.0</ele>
        <time>2014-06-30T15:34:31Z</time>
      </trkpt>
      <trkpt lat="40.789500" lon="-4.358933">
        <ele>1657.0</ele>
        <time>2014-06-30T15:34:32Z</time>
      </trkpt>
      <trkpt lat="40.789500" lon="-4.358783">
        <ele>1656.0</ele>
        <time>2014-06-30T15:34:33Z</time>
      </trkpt>
      <trkpt lat="40.789500" lon="-4.358650">
        <ele>1656.0</ele>
        <time>2014-06-30T15:34:34Z</time>
      </trkpt>
      <trkpt lat="40.789517" lon="-4.358533">
        <ele>1656.0</ele>
        <time>2014-06-30T15:34:35Z</time>
      </trkpt>
      <trkpt lat="40.789517" lon="-4.358400">
        <ele>1655.0</ele>
        <time>2014-06-30T15:34:36Z</time>
      </trkpt>
      <trkpt lat="40.789517" lon="-4.358283">
        <ele>1657.0</ele>
        <time>2014-06-30T15:34:37Z</time>
      </trkpt>
      <trkpt lat="40.789533" lon="-4.358167">
        <ele>1657.0</ele>
        <time>2014-06-30T15:34:38Z</time>
      </trkpt>
      <trkpt lat="40.789550" lon="-4.358067">
        <ele>1659.0</ele>
        <time>2014-06-30T15:34:39Z</time>
      </trkpt>
      <trkpt lat="40.789583" lon="-4.357967">
        <ele>1658.0</ele>
        <time>2014-06-30T15:34:40Z</time>
      </trkpt>
      <trkpt lat="40.789617" lon="-4.357883">
        <ele>1658.0</ele>
        <time>2014-06-30T15:34:41Z</time>
      </trkpt>
      <trkpt lat="40.789667" lon="-4.357817">
        <ele>1659.0</ele>
        <time>2014-06-30T15:34:42Z</time>
      </trkpt>
      <trkpt lat="40.789700" lon="-4.357750">
        <ele>1661.0</ele>
        <time>2014-06-30T15:34:43Z</time>
      </trkpt>
      <trkpt lat="40.789733" lon="-4.357717">
        <ele>1663.0</ele>
        <time>2014-06-30T15:34:44Z</time>
      </trkpt>
      <trkpt lat="40.789750" lon="-4.357667">
        <ele>1664.0</ele>
        <time>2014-06-30T15:34:45Z</time>
      </trkpt>
      <trkpt lat="40.789767" lon="-4.357650">
        <ele>1666.0</ele>
        <time>2014-06-30T15:34:46Z</time>
      </trkpt>
      <trkpt lat="40.789800" lon="-4.357633">
        <ele>1667.0</ele>
        <time>2014-06-30T15:34:47Z</time>
      </trkpt>
      <trkpt lat="40.789833" lon="-4.357633">
        <ele>1668.0</ele>
        <time>2014-06-30T15:34:48Z</time>
      </trkpt>
      <trkpt lat="40.789867" lon="-4.357683">
        <ele>1669.0</ele>
        <time>2014-06-30T15:34:49Z</time>
      </trkpt>
      <trkpt lat="40.789867" lon="-4.357750">
        <ele>1670.0</ele>
        <time>2014-06-30T15:34:50Z</time>
      </trkpt>
      <trkpt lat="40.789833" lon="-4.357817">
        <ele>1671.0</ele>
        <time>2014-06-30T15:34:51Z</time>
      </trkpt>
      <trkpt lat="40.789800" lon="-4.357883">
        <ele>1674.0</ele>
        <time>2014-06-30T15:34:52Z</time>
      </trkpt>
      <trkpt lat="40.789750" lon="-4.357950">
        <ele>1676.0</ele>
        <time>2014-06-30T15:34:53Z</time>
      </trkpt>
      <trkpt lat="40.789700" lon="-4.358000">
        <ele>1678.0</ele>
        <time>2014-06-30T15:34:54Z</time>
      </trkpt>
      <trkpt lat="40.789633" lon="-4.358033">
        <ele>1679.0</ele>
        <time>2014-06-30T15:34:55Z</time>
      </trkpt>
      <trkpt lat="40.789567" lon="-4.358050">
        <ele>1681.0</ele>
        <time>2014-06-30T15:34:56Z</time>
      </trkpt>
      <trkpt lat="40.789483" lon="-4.358067">
        <ele>1682.0</ele>
        <time>2014-06-30T15:34:57Z</time>
      </trkpt>
      <trkpt lat="40.789400" lon="-4.358067">
        <ele>1683.0</ele>
        <time>2014-06-30T15:34:58Z</time>
      </trkpt>
      <trkpt lat="40.789300" lon="-4.358050">
        <ele>1683.0</ele>
        <time>2014-06-30T15:34:59Z</time>
      </trkpt>
      <trkpt lat="40.789217" lon="-4.357983">
        <ele>1683.0</ele>
        <time>2014-06-30T15:35:00Z</time>
      </trkpt>
      <trkpt lat="40.789117" lon="-4.357900">
        <ele>1681.0</ele>
        <time>2014-06-30T15:35:01Z</time>
      </trkpt>
      <trkpt lat="40.789033" lon="-4.357767">
        <ele>1681.0</ele>
        <time>2014-06-30T15:35:02Z</time>
      </trkpt>
      <trkpt lat="40.788967" lon="-4.357633">
        <ele>1682.0</ele>
        <time>2014-06-30T15:35:03Z</time>
      </trkpt>
      <trkpt lat="40.788950" lon="-4.357467">
        <ele>1682.0</ele>
        <time>2014-06-30T15:35:04Z</time>
      </trkpt>
      <trkpt lat="40.788950" lon="-4.357317">
        <ele>1682.0</ele>
        <time>2014-06-30T15:35:05Z</time>
      </trkpt>
      <trkpt lat="40.788983" lon="-4.357200">
        <ele>1683.0</ele>
        <time>2014-06-30T15:35:06Z</time>
      </trkpt>
      <trkpt lat="40.789000" lon="-4.357117">
        <ele>1685.0</ele>
        <time>2014-06-30T15:35:07Z</time>
      </trkpt>
      <trkpt lat="40.789017" lon="-4.357033">
        <ele>1688.0</ele>
        <time>2014-06-30T15:35:08Z</time>
      </trkpt>
      <trkpt lat="40.789033" lon="-4.356950">
        <ele>1690.0</ele>
        <time>2014-06-30T15:35:09Z</time>
      </trkpt>
      <trkpt lat="40.789033" lon="-4.356883">
        <ele>1689.0</ele>
        <time>2014-06-30T15:35:10Z</time>
      </trkpt>
      <trkpt lat="40.789067" lon="-4.356817">
        <ele>1688.0</ele>
        <time>2014-06-30T15:35:11Z</time>
      </trkpt>
      <trkpt lat="40.789117" lon="-4.356767">
        <ele>1688.0</ele>
        <time>2014-06-30T15:35:12Z</time>
      </trkpt>
      <trkpt lat="40.789167" lon="-4.356717">
        <ele>1689.0</ele>
        <time>2014-06-30T15:35:13Z</time>
      </trkpt>
      <trkpt lat="40.789217" lon="-4.356700">
        <ele>1691.0</ele>
        <time>2014-06-30T15:35:14Z</time>
      </trkpt>
      <trkpt lat="40.789267" lon="-4.356717">
        <ele>1693.0</ele>
        <time>2014-06-30T15:35:15Z</time>
      </trkpt>
      <trkpt lat="40.789300" lon="-4.356733">
        <ele>1695.0</ele>
        <time>2014-06-30T15:35:16Z</time>
      </trkpt>
      <trkpt lat="40.789317" lon="-4.356767">
        <ele>1696.0</ele>
        <time>2014-06-30T15:35:17Z</time>
      </trkpt>
      <trkpt lat="40.789333" lon="-4.356817">
        <ele>1697.0</ele>
        <time>2014-06-30T15:35:18Z</time>
      </trkpt>
      <trkpt lat="40.789367" lon="-4.356833">
        <ele>1695.0</ele>
        <time>2014-06-30T15:35:19Z</time>
      </trkpt>
      <trkpt lat="40.789367" lon="-4.356883">
        <ele>1696.0</ele>
        <time>2014-06-30T15:35:20Z</time>
      </trkpt>
      <trkpt lat="40.789367" lon="-4.356933">
        <ele>1696.0</ele>
        <time>2014-06-30T15:35:21Z</time>
      </trkpt>
      <trkpt lat="40.789367" lon="-4.356967">
        <ele>1696.0</ele>
        <time>2014-06-30T15:35:22Z</time>
      </trkpt>
      <trkpt lat="40.789350" lon="-4.357033">
        <ele>1697.0</ele>
        <time>2014-06-30T15:35:23Z</time>
      </trkpt>
      <trkpt lat="40.789317" lon="-4.357083">
        <ele>1697.0</ele>
        <time>2014-06-30T15:35:24Z</time>
      </trkpt>
      <trkpt lat="40.789267" lon="-4.357150">
        <ele>1698.0</ele>
        <time>2014-06-30T15:35:25Z</time>
      </trkpt>
      <trkpt lat="40.789200" lon="-4.357183">
        <ele>1697.0</ele>
        <time>2014-06-30T15:35:26Z</time>
      </trkpt>
      <trkpt lat="40.789117" lon="-4.357217">
        <ele>1697.0</ele>
        <time>2014-06-30T15:35:27Z</time>
      </trkpt>
      <trkpt lat="40.789017" lon="-4.357200">
        <ele>1697.0</ele>
        <time>2014-06-30T15:35:28Z</time>
      </trkpt>
      <trkpt lat="40.788917" lon="-4.357167">
        <ele>1696.0</ele>
        <time>2014-06-30T15:35:29Z</time>
      </trkpt>
      <trkpt lat="40.788817" lon="-4.357083">
        <ele>1695.0</ele>
        <time>2014-06-30T15:35:30Z</time>
      </trkpt>
      <trkpt lat="40.788750" lon="-4.356967">
        <ele>1695.0</ele>
        <time>2014-06-30T15:35:31Z</time>
      </trkpt>
      <trkpt lat="40.788700" lon="-4.356833">
        <ele>1694.0</ele>
        <time>2014-06-30T15:35:32Z</time>
      </trkpt>
      <trkpt lat="40.788683" lon="-4.356700">
        <ele>1694.0</ele>
        <time>2014-06-30T15:35:33Z</time>
      </trkpt>
      <trkpt lat="40.788667" lon="-4.356583">
        <ele>1694.0</ele>
        <time>2014-06-30T15:35:34Z</time>
      </trkpt>
      <trkpt lat="40.788667" lon="-4.356433">
        <ele>1694.0</ele>
        <time>2014-06-30T15:35:35Z</time>
      </trkpt>
      <trkpt lat="40.788667" lon="-4.356300">
        <ele>1694.0</ele>
        <time>2014-06-30T15:35:36Z</time>
      </trkpt>
      <trkpt lat="40.788667" lon="-4.356167">
        <ele>1694.0</ele>
        <time>2014-06-30T15:35:37Z</time>
      </trkpt>
      <trkpt lat="40.788667" lon="-4.356033">
        <ele>1694.0</ele>
        <time>2014-06-30T15:35:38Z</time>
      </trkpt>
      <trkpt lat="40.788667" lon="-4.355917">
        <ele>1694.0</ele>
        <time>2014-06-30T15:35:39Z</time>
      </trkpt>
      <trkpt lat="40.788650" lon="-4.355817">
        <ele>1693.0</ele>
        <time>2014-06-30T15:35:40Z</time>
      </trkpt>
      <trkpt lat="40.788633" lon="-4.355683">
        <ele>1694.0</ele>
        <time>2014-06-30T15:35:41Z</time>
      </trkpt>
      <trkpt lat="40.788633" lon="-4.355567">
        <ele>1694.0</ele>
        <time>2014-06-30T15:35:42Z</time>
      </trkpt>
      <trkpt lat="40.788650" lon="-4.355433">
        <ele>1693.0</ele>
        <time>2014-06-30T15:35:43Z</time>
      </trkpt>
      <trkpt lat="40.788650" lon="-4.355317">
        <ele>1694.0</ele>
        <time>2014-06-30T15:35:44Z</time>
      </trkpt>
      <trkpt lat="40.788683" lon="-4.355200">
        <ele>1694.0</ele>
        <time>2014-06-30T15:35:45Z</time>
      </trkpt>
      <trkpt lat="40.788683" lon="-4.355117">
        <ele>1695.0</ele>
        <time>2014-06-30T15:35:46Z</time>
      </trkpt>
      <trkpt lat="40.788700" lon="-4.355033">
        <ele>1697.0</ele>
        <time>2014-06-30T15:35:47Z</time>
      </trkpt>
      <trkpt lat="40.788700" lon="-4.354967">
        <ele>1698.0</ele>
        <time>2014-06-30T15:35:48Z</time>
      </trkpt>
      <trkpt lat="40.788700" lon="-4.354900">
        <ele>1699.0</ele>
        <time>2014-06-30T15:35:49Z</time>
      </trkpt>
      <trkpt lat="40.788717" lon="-4.354817">
        <ele>1697.0</ele>
        <time>2014-06-30T15:35:50Z</time>
      </trkpt>
      <trkpt lat="40.788750" lon="-4.354750">
        <ele>1697.0</ele>
        <time>2014-06-30T15:35:51Z</time>
      </trkpt>
      <trkpt lat="40.788783" lon="-4.354717">
        <ele>1698.0</ele>
        <time>2014-06-30T15:35:52Z</time>
      </trkpt>
      <trkpt lat="40.788817" lon="-4.354700">
        <ele>1698.0</ele>
        <time>2014-06-30T15:35:53Z</time>
      </trkpt>
      <trkpt lat="40.788850" lon="-4.354717">
        <ele>1699.0</ele>
        <time>2014-06-30T15:35:54Z</time>
      </trkpt>
      <trkpt lat="40.788867" lon="-4.354767">
        <ele>1699.0</ele>
        <time>2014-06-30T15:35:55Z</time>
      </trkpt>
      <trkpt lat="40.788883" lon="-4.354817">
        <ele>1699.0</ele>
        <time>2014-06-30T15:35:56Z</time>
      </trkpt>
      <trkpt lat="40.788883" lon="-4.354883">
        <ele>1699.0</ele>
        <time>2014-06-30T15:35:57Z</time>
      </trkpt>
      <trkpt lat="40.788867" lon="-4.354950">
        <ele>1699.0</ele>
        <time>2014-06-30T15:35:58Z</time>
      </trkpt>
      <trkpt lat="40.788833" lon="-4.355033">
        <ele>1700.0</ele>
        <time>2014-06-30T15:35:59Z</time>
      </trkpt>
      <trkpt lat="40.788783" lon="-4.355117">
        <ele>1700.0</ele>
        <time>2014-06-30T15:36:00Z</time>
      </trkpt>
      <trkpt lat="40.788700" lon="-4.355183">
        <ele>1700.0</ele>
        <time>2014-06-30T15:36:01Z</time>
      </trkpt>
      <trkpt lat="40.788633" lon="-4.355250">
        <ele>1701.0</ele>
        <time>2014-06-30T15:36:02Z</time>
      </trkpt>
      <trkpt lat="40.788550" lon="-4.355283">
        <ele>1701.0</ele>
        <time>2014-06-30T15:36:03Z</time>
      </trkpt>
      <trkpt lat="40.788450" lon="-4.355300">
        <ele>1701.0</ele>
        <time>2014-06-30T15:36:04Z</time>
      </trkpt>
      <trkpt lat="40.788367" lon="-4.355300">
        <ele>1700.0</ele>
        <time>2014-06-30T15:36:05Z</time>
      </trkpt>
      <trkpt lat="40.788250" lon="-4.355283">
        <ele>1699.0</ele>
        <time>2014-06-30T15:36:06Z</time>
      </trkpt>
      <trkpt lat="40.788150" lon="-4.355250">
        <ele>1698.0</ele>
        <time>2014-06-30T15:36:07Z</time>
      </trkpt>
      <trkpt lat="40.788050" lon="-4.355167">
        <ele>1696.0</ele>
        <time>2014-06-30T15:36:08Z</time>
      </trkpt>
      <trkpt lat="40.787967" lon="-4.355033">
        <ele>1694.0</ele>
        <time>2014-06-30T15:36:09Z</time>
      </trkpt>
      <trkpt lat="40.787917" lon="-4.354900">
        <ele>1692.0</ele>
        <time>2014-06-30T15:36:10Z</time>
      </trkpt>
      <trkpt lat="40.787917" lon="-4.354750">
        <ele>1690.0</ele>
        <time>2014-06-30T15:36:11Z</time>
      </trkpt>
      <trkpt lat="40.787933" lon="-4.354617">
        <ele>1687.0</ele>
        <time>2014-06-30T15:36:12Z</time>
      </trkpt>
      <trkpt lat="40.787967" lon="-4.354467">
        <ele>1686.0</ele>
        <time>2014-06-30T15:36:13Z</time>
      </trkpt>
      <trkpt lat="40.788000" lon="-4.354317">
        <ele>1685.0</ele>
        <time>2014-06-30T15:36:14Z</time>
      </trkpt>
      <trkpt lat="40.788017" lon="-4.354183">
        <ele>1685.0</ele>
        <time>2014-06-30T15:36:15Z</time>
      </trkpt>
      <trkpt lat="40.788050" lon="-4.354050">
        <ele>1686.0</ele>
        <time>2014-06-30T15:36:16Z</time>
      </trkpt>
      <trkpt lat="40.788067" lon="-4.353950">
        <ele>1688.0</ele>
        <time>2014-06-30T15:36:17Z</time>
      </trkpt>
      <trkpt lat="40.788117" lon="-4.353867">
        <ele>1688.0</ele>
        <time>2014-06-30T15:36:18Z</time>
      </trkpt>
      <trkpt lat="40.788133" lon="-4.353783">
        <ele>1689.0</ele>
        <time>2014-06-30T15:36:19Z</time>
      </trkpt>
      <trkpt lat="40.788150" lon="-4.353717">
        <ele>1689.0</ele>
        <time>2014-06-30T15:36:20Z</time>
      </trkpt>
      <trkpt lat="40.788167" lon="-4.353700">
        <ele>1689.0</ele>
        <time>2014-06-30T15:36:21Z</time>
      </trkpt>
      <trkpt lat="40.788183" lon="-4.353700">
        <ele>1688.0</ele>
        <time>2014-06-30T15:36:22Z</time>
      </trkpt>
      <trkpt lat="40.788217" lon="-4.353733">
        <ele>1688.0</ele>
        <time>2014-06-30T15:36:23Z</time>
      </trkpt>
      <trkpt lat="40.788233" lon="-4.353767">
        <ele>1688.0</ele>
        <time>2014-06-30T15:36:24Z</time>
      </trkpt>
      <trkpt lat="40.788217" lon="-4.353817">
        <ele>1687.0</ele>
        <time>2014-06-30T15:36:25Z</time>
      </trkpt>
      <trkpt lat="40.788200" lon="-4.353883">
        <ele>1687.0</ele>
        <time>2014-06-30T15:36:26Z</time>
      </trkpt>
      <trkpt lat="40.788117" lon="-4.353933">
        <ele>1684.0</ele>
        <time>2014-06-30T15:36:27Z</time>
      </trkpt>
      <trkpt lat="40.788000" lon="-4.353933">
        <ele>1682.0</ele>
        <time>2014-06-30T15:36:28Z</time>
      </trkpt>
      <trkpt lat="40.787883" lon="-4.353867">
        <ele>1681.0</ele>
        <time>2014-06-30T15:36:29Z</time>
      </trkpt>
      <trkpt lat="40.787783" lon="-4.353767">
        <ele>1680.0</ele>
        <time>2014-06-30T15:36:30Z</time>
      </trkpt>
      <trkpt lat="40.787750" lon="-4.353633">
        <ele>1679.0</ele>
        <time>2014-06-30T15:36:31Z</time>
      </trkpt>
      <trkpt lat="40.787733" lon="-4.353500">
        <ele>1678.0</ele>
        <time>2014-06-30T15:36:32Z</time>
      </trkpt>
      <trkpt lat="40.787733" lon="-4.353367">
        <ele>1677.0</ele>
        <time>2014-06-30T15:36:33Z</time>
      </trkpt>
      <trkpt lat="40.787733" lon="-4.353233">
        <ele>1676.0</ele>
        <time>2014-06-30T15:36:34Z</time>
      </trkpt>
      <trkpt lat="40.787733" lon="-4.353100">
        <ele>1675.0</ele>
        <time>2014-06-30T15:36:35Z</time>
      </trkpt>
      <trkpt lat="40.787733" lon="-4.352950">
        <ele>1675.0</ele>
        <time>2014-06-30T15:36:36Z</time>
      </trkpt>
      <trkpt lat="40.787717" lon="-4.352800">
        <ele>1675.0</ele>
        <time>2014-06-30T15:36:37Z</time>
      </trkpt>
      <trkpt lat="40.787717" lon="-4.352650">
        <ele>1675.0</ele>
        <time>2014-06-30T15:36:38Z</time>
      </trkpt>
      <trkpt lat="40.787700" lon="-4.352500">
        <ele>1676.0</ele>
        <time>2014-06-30T15:36:39Z</time>
      </trkpt>
      <trkpt lat="40.787700" lon="-4.352350">
        <ele>1677.0</ele>
        <time>2014-06-30T15:36:40Z</time>
      </trkpt>
      <trkpt lat="40.787700" lon="-4.352233">
        <ele>1680.0</ele>
        <time>2014-06-30T15:36:41Z</time>
      </trkpt>
      <trkpt lat="40.787683" lon="-4.352133">
        <ele>1681.0</ele>
        <time>2014-06-30T15:36:42Z</time>
      </trkpt>
      <trkpt lat="40.787667" lon="-4.352050">
        <ele>1682.0</ele>
        <time>2014-06-30T15:36:43Z</time>
      </trkpt>
      <trkpt lat="40.787667" lon="-4.352017">
        <ele>1683.0</ele>
        <time>2014-06-30T15:36:44Z</time>
      </trkpt>
      <trkpt lat="40.787667" lon="-4.351967">
        <ele>1681.0</ele>
        <time>2014-06-30T15:36:45Z</time>
      </trkpt>
      <trkpt lat="40.787683" lon="-4.351883">
        <ele>1677.0</ele>
        <time>2014-06-30T15:36:46Z</time>
      </trkpt>
      <trkpt lat="40.787717" lon="-4.351817">
        <ele>1674.0</ele>
        <time>2014-06-30T15:36:47Z</time>
      </trkpt>
      <trkpt lat="40.787750" lon="-4.351783">
        <ele>1676.0</ele>
        <time>2014-06-30T15:36:48Z</time>
      </trkpt>
      <trkpt lat="40.787783" lon="-4.351800">
        <ele>1676.0</ele>
        <time>2014-06-30T15:36:49Z</time>
      </trkpt>
      <trkpt lat="40.787767" lon="-4.351850">
        <ele>1675.0</ele>
        <time>2014-06-30T15:36:50Z</time>
      </trkpt>
      <trkpt lat="40.787733" lon="-4.351933">
        <ele>1675.0</ele>
        <time>2014-06-30T15:36:51Z</time>
      </trkpt>
      <trkpt lat="40.787667" lon="-4.352000">
        <ele>1675.0</ele>
        <time>2014-06-30T15:36:52Z</time>
      </trkpt>
      <trkpt lat="40.787567" lon="-4.352067">
        <ele>1672.0</ele>
        <time>2014-06-30T15:36:53Z</time>
      </trkpt>
      <trkpt lat="40.787450" lon="-4.352083">
        <ele>1672.0</ele>
        <time>2014-06-30T15:36:54Z</time>
      </trkpt>
      <trkpt lat="40.787317" lon="-4.352067">
        <ele>1671.0</ele>
        <time>2014-06-30T15:36:55Z</time>
      </trkpt>
      <trkpt lat="40.787200" lon="-4.351967">
        <ele>1670.0</ele>
        <time>2014-06-30T15:36:56Z</time>
      </trkpt>
      <trkpt lat="40.787133" lon="-4.351850">
        <ele>1670.0</ele>
        <time>2014-06-30T15:36:57Z</time>
      </trkpt>
      <trkpt lat="40.787083" lon="-4.351700">
        <ele>1669.0</ele>
        <time>2014-06-30T15:36:58Z</time>
      </trkpt>
      <trkpt lat="40.787083" lon="-4.351567">
        <ele>1669.0</ele>
        <time>2014-06-30T15:36:59Z</time>
      </trkpt>
      <trkpt lat="40.787083" lon="-4.351450">
        <ele>1670.0</ele>
        <time>2014-06-30T15:37:00Z</time>
      </trkpt>
      <trkpt lat="40.787083" lon="-4.351367">
        <ele>1670.0</ele>
        <time>2014-06-30T15:37:01Z</time>
      </trkpt>
      <trkpt lat="40.787083" lon="-4.351267">
        <ele>1671.0</ele>
        <time>2014-06-30T15:37:02Z</time>
      </trkpt>
      <trkpt lat="40.787100" lon="-4.351167">
        <ele>1671.0</ele>
        <time>2014-06-30T15:37:03Z</time>
      </trkpt>
      <trkpt lat="40.787117" lon="-4.351050">
        <ele>1671.0</ele>
        <time>2014-06-30T15:37:04Z</time>
      </trkpt>
      <trkpt lat="40.787133" lon="-4.350933">
        <ele>1671.0</ele>
        <time>2014-06-30T15:37:05Z</time>
      </trkpt>
      <trkpt lat="40.787167" lon="-4.350817">
        <ele>1671.0</ele>
        <time>2014-06-30T15:37:06Z</time>
      </trkpt>
      <trkpt lat="40.787217" lon="-4.350700">
        <ele>1671.0</ele>
        <time>2014-06-30T15:37:07Z</time>
      </trkpt>
      <trkpt lat="40.787250" lon="-4.350600">
        <ele>1671.0</ele>
        <time>2014-06-30T15:37:08Z</time>
      </trkpt>
      <trkpt lat="40.787300" lon="-4.350500">
        <ele>1671.0</ele>
        <time>2014-06-30T15:37:09Z</time>
      </trkpt>
      <trkpt lat="40.787333" lon="-4.350417">
        <ele>1671.0</ele>
        <time>2014-06-30T15:37:10Z</time>
      </trkpt>
      <trkpt lat="40.787367" lon="-4.350300">
        <ele>1671.0</ele>
        <time>2014-06-30T15:37:11Z</time>
      </trkpt>
      <trkpt lat="40.787383" lon="-4.350200">
        <ele>1671.0</ele>
        <time>2014-06-30T15:37:12Z</time>
      </trkpt>
      <trkpt lat="40.787400" lon="-4.350133">
        <ele>1671.0</ele>
        <time>2014-06-30T15:37:13Z</time>
      </trkpt>
      <trkpt lat="40.787400" lon="-4.350067">
        <ele>1671.0</ele>
        <time>2014-06-30T15:37:14Z</time>
      </trkpt>
      <trkpt lat="40.787433" lon="-4.350017">
        <ele>1671.0</ele>
        <time>2014-06-30T15:37:15Z</time>
      </trkpt>
      <trkpt lat="40.787450" lon="-4.349967">
        <ele>1672.0</ele>
        <time>2014-06-30T15:37:16Z</time>
      </trkpt>
      <trkpt lat="40.787467" lon="-4.349917">
        <ele>1672.0</ele>
        <time>2014-06-30T15:37:17Z</time>
      </trkpt>
      <trkpt lat="40.787483" lon="-4.349850">
        <ele>1673.0</ele>
        <time>2014-06-30T15:37:18Z</time>
      </trkpt>
      <trkpt lat="40.787500" lon="-4.349800">
        <ele>1673.0</ele>
        <time>2014-06-30T15:37:19Z</time>
      </trkpt>
      <trkpt lat="40.787500" lon="-4.349750">
        <ele>1673.0</ele>
        <time>2014-06-30T15:37:20Z</time>
      </trkpt>
      <trkpt lat="40.787517" lon="-4.349717">
        <ele>1673.0</ele>
        <time>2014-06-30T15:37:21Z</time>
      </trkpt>
      <trkpt lat="40.787567" lon="-4.349667">
        <ele>1673.0</ele>
        <time>2014-06-30T15:37:22Z</time>
      </trkpt>
      <trkpt lat="40.787617" lon="-4.349633">
        <ele>1674.0</ele>
        <time>2014-06-30T15:37:23Z</time>
      </trkpt>
      <trkpt lat="40.787650" lon="-4.349583">
        <ele>1675.0</ele>
        <time>2014-06-30T15:37:24Z</time>
      </trkpt>
      <trkpt lat="40.787683" lon="-4.349550">
        <ele>1676.0</ele>
        <time>2014-06-30T15:37:25Z</time>
      </trkpt>
      <trkpt lat="40.787717" lon="-4.349533">
        <ele>1676.0</ele>
        <time>2014-06-30T15:37:26Z</time>
      </trkpt>
      <trkpt lat="40.787733" lon="-4.349517">
        <ele>1677.0</ele>
        <time>2014-06-30T15:37:27Z</time>
      </trkpt>
      <trkpt lat="40.787767" lon="-4.349500">
        <ele>1676.0</ele>
        <time>2014-06-30T15:37:28Z</time>
      </trkpt>
      <trkpt lat="40.787783" lon="-4.349500">
        <ele>1677.0</ele>
        <time>2014-06-30T15:37:29Z</time>
      </trkpt>
      <trkpt lat="40.787817" lon="-4.349483">
        <ele>1676.0</ele>
        <time>2014-06-30T15:37:30Z</time>
      </trkpt>
      <trkpt lat="40.787900" lon="-4.349450">
        <ele>1675.0</ele>
        <time>2014-06-30T15:37:31Z</time>
      </trkpt>
      <trkpt lat="40.787983" lon="-4.349400">
        <ele>1674.0</ele>
        <time>2014-06-30T15:37:32Z</time>
      </trkpt>
      <trkpt lat="40.788067" lon="-4.349350">
        <ele>1673.0</ele>
        <time>2014-06-30T15:37:33Z</time>
      </trkpt>
      <trkpt lat="40.788167" lon="-4.349300">
        <ele>1672.0</ele>
        <time>2014-06-30T15:37:34Z</time>
      </trkpt>
      <trkpt lat="40.788250" lon="-4.349233">
        <ele>1672.0</ele>
        <time>2014-06-30T15:37:35Z</time>
      </trkpt>
      <trkpt lat="40.788317" lon="-4.349167">
        <ele>1673.0</ele>
        <time>2014-06-30T15:37:36Z</time>
      </trkpt>
      <trkpt lat="40.788400" lon="-4.349083">
        <ele>1673.0</ele>
        <time>2014-06-30T15:37:37Z</time>
      </trkpt>
      <trkpt lat="40.788467" lon="-4.349033">
        <ele>1673.0</ele>
        <time>2014-06-30T15:37:38Z</time>
      </trkpt>
      <trkpt lat="40.788533" lon="-4.349000">
        <ele>1673.0</ele>
        <time>2014-06-30T15:37:39Z</time>
      </trkpt>
      <trkpt lat="40.788600" lon="-4.348983">
        <ele>1672.0</ele>
        <time>2014-06-30T15:37:40Z</time>
      </trkpt>
      <trkpt lat="40.788667" lon="-4.348950">
        <ele>1672.0</ele>
        <time>2014-06-30T15:37:41Z</time>
      </trkpt>
      <trkpt lat="40.788750" lon="-4.348900">
        <ele>1672.0</ele>
        <time>2014-06-30T15:37:42Z</time>
      </trkpt>
      <trkpt lat="40.788800" lon="-4.348850">
        <ele>1672.0</ele>
        <time>2014-06-30T15:37:43Z</time>
      </trkpt>
      <trkpt lat="40.788867" lon="-4.348783">
        <ele>1673.0</ele>
        <time>2014-06-30T15:37:44Z</time>
      </trkpt>
      <trkpt lat="40.788933" lon="-4.348717">
        <ele>1673.0</ele>
        <time>2014-06-30T15:37:45Z</time>
      </trkpt>
      <trkpt lat="40.788983" lon="-4.348650">
        <ele>1673.0</ele>
        <time>2014-06-30T15:37:46Z</time>
      </trkpt>
      <trkpt lat="40.789050" lon="-4.348567">
        <ele>1673.0</ele>
        <time>2014-06-30T15:37:47Z</time>
      </trkpt>
      <trkpt lat="40.789083" lon="-4.348483">
        <ele>1673.0</ele>
        <time>2014-06-30T15:37:48Z</time>
      </trkpt>
      <trkpt lat="40.789133" lon="-4.348400">
        <ele>1673.0</ele>
        <time>2014-06-30T15:37:49Z</time>
      </trkpt>
      <trkpt lat="40.789183" lon="-4.348333">
        <ele>1674.0</ele>
        <time>2014-06-30T15:37:50Z</time>
      </trkpt>
      <trkpt lat="40.789233" lon="-4.348300">
        <ele>1675.0</ele>
        <time>2014-06-30T15:37:51Z</time>
      </trkpt>
      <trkpt lat="40.789267" lon="-4.348300">
        <ele>1676.0</ele>
        <time>2014-06-30T15:37:52Z</time>
      </trkpt>
      <trkpt lat="40.789317" lon="-4.348333">
        <ele>1678.0</ele>
        <time>2014-06-30T15:37:53Z</time>
      </trkpt>
      <trkpt lat="40.789350" lon="-4.348367">
        <ele>1680.0</ele>
        <time>2014-06-30T15:37:54Z</time>
      </trkpt>
      <trkpt lat="40.789367" lon="-4.348383">
        <ele>1683.0</ele>
        <time>2014-06-30T15:37:55Z</time>
      </trkpt>
      <trkpt lat="40.789400" lon="-4.348417">
        <ele>1685.0</ele>
        <time>2014-06-30T15:37:56Z</time>
      </trkpt>
      <trkpt lat="40.789417" lon="-4.348450">
        <ele>1683.0</ele>
        <time>2014-06-30T15:37:57Z</time>
      </trkpt>
      <trkpt lat="40.789433" lon="-4.348517">
        <ele>1684.0</ele>
        <time>2014-06-30T15:37:58Z</time>
      </trkpt>
      <trkpt lat="40.789433" lon="-4.348583">
        <ele>1684.0</ele>
        <time>2014-06-30T15:37:59Z</time>
      </trkpt>
      <trkpt lat="40.789433" lon="-4.348667">
        <ele>1685.0</ele>
        <time>2014-06-30T15:38:00Z</time>
      </trkpt>
      <trkpt lat="40.789400" lon="-4.348733">
        <ele>1685.0</ele>
        <time>2014-06-30T15:38:01Z</time>
      </trkpt>
      <trkpt lat="40.789350" lon="-4.348767">
        <ele>1687.0</ele>
        <time>2014-06-30T15:38:02Z</time>
      </trkpt>
      <trkpt lat="40.789267" lon="-4.348767">
        <ele>1688.0</ele>
        <time>2014-06-30T15:38:03Z</time>
      </trkpt>
      <trkpt lat="40.789183" lon="-4.348717">
        <ele>1689.0</ele>
        <time>2014-06-30T15:38:04Z</time>
      </trkpt>
      <trkpt lat="40.789133" lon="-4.348617">
        <ele>1689.0</ele>
        <time>2014-06-30T15:38:05Z</time>
      </trkpt>
      <trkpt lat="40.789100" lon="-4.348467">
        <ele>1690.0</ele>
        <time>2014-06-30T15:38:06Z</time>
      </trkpt>
      <trkpt lat="40.789117" lon="-4.348333">
        <ele>1691.0</ele>
        <time>2014-06-30T15:38:07Z</time>
      </trkpt>
      <trkpt lat="40.789150" lon="-4.348200">
        <ele>1692.0</ele>
        <time>2014-06-30T15:38:08Z</time>
      </trkpt>
      <trkpt lat="40.789200" lon="-4.348083">
        <ele>1695.0</ele>
        <time>2014-06-30T15:38:09Z</time>
      </trkpt>
      <trkpt lat="40.789250" lon="-4.348000">
        <ele>1698.0</ele>
        <time>2014-06-30T15:38:10Z</time>
      </trkpt>
      <trkpt lat="40.789300" lon="-4.347917">
        <ele>1701.0</ele>
        <time>2014-06-30T15:38:11Z</time>
      </trkpt>
      <trkpt lat="40.789350" lon="-4.347850">
        <ele>1703.0</ele>
        <time>2014-06-30T15:38:12Z</time>
      </trkpt>
      <trkpt lat="40.789400" lon="-4.347783">
        <ele>1704.0</ele>
        <time>2014-06-30T15:38:13Z</time>
      </trkpt>
      <trkpt lat="40.789467" lon="-4.347733">
        <ele>1702.0</ele>
        <time>2014-06-30T15:38:14Z</time>
      </trkpt>
      <trkpt lat="40.789517" lon="-4.347683">
        <ele>1702.0</ele>
        <time>2014-06-30T15:38:15Z</time>
      </trkpt>
      <trkpt lat="40.789567" lon="-4.347683">
        <ele>1703.0</ele>
        <time>2014-06-30T15:38:16Z</time>
      </trkpt>
      <trkpt lat="40.789583" lon="-4.347700">
        <ele>1704.0</ele>
        <time>2014-06-30T15:38:17Z</time>
      </trkpt>
      <trkpt lat="40.789617" lon="-4.347717">
        <ele>1705.0</ele>
        <time>2014-06-30T15:38:18Z</time>
      </trkpt>
      <trkpt lat="40.789650" lon="-4.347733">
        <ele>1706.0</ele>
        <time>2014-06-30T15:38:19Z</time>
      </trkpt>
      <trkpt lat="40.789667" lon="-4.347767">
        <ele>1707.0</ele>
        <time>2014-06-30T15:38:20Z</time>
      </trkpt>
      <trkpt lat="40.789650" lon="-4.347817">
        <ele>1707.0</ele>
        <time>2014-06-30T15:38:21Z</time>
      </trkpt>
      <trkpt lat="40.789617" lon="-4.347850">
        <ele>1707.0</ele>
        <time>2014-06-30T15:38:22Z</time>
      </trkpt>
      <trkpt lat="40.789550" lon="-4.347883">
        <ele>1705.0</ele>
        <time>2014-06-30T15:38:23Z</time>
      </trkpt>
      <trkpt lat="40.789450" lon="-4.347867">
        <ele>1705.0</ele>
        <time>2014-06-30T15:38:24Z</time>
      </trkpt>
      <trkpt lat="40.789367" lon="-4.347767">
        <ele>1704.0</ele>
        <time>2014-06-30T15:38:25Z</time>
      </trkpt>
      <trkpt lat="40.789317" lon="-4.347617">
        <ele>1703.0</ele>
        <time>2014-06-30T15:38:26Z</time>
      </trkpt>
      <trkpt lat="40.789283" lon="-4.347450">
        <ele>1703.0</ele>
        <time>2014-06-30T15:38:27Z</time>
      </trkpt>
      <trkpt lat="40.789300" lon="-4.347317">
        <ele>1706.0</ele>
        <time>2014-06-30T15:38:28Z</time>
      </trkpt>
      <trkpt lat="40.789317" lon="-4.347200">
        <ele>1707.0</ele>
        <time>2014-06-30T15:38:29Z</time>
      </trkpt>
      <trkpt lat="40.789317" lon="-4.347100">
        <ele>1710.0</ele>
        <time>2014-06-30T15:38:30Z</time>
      </trkpt>
      <trkpt lat="40.789317" lon="-4.346983">
        <ele>1708.0</ele>
        <time>2014-06-30T15:38:31Z</time>
      </trkpt>
      <trkpt lat="40.789333" lon="-4.346850">
        <ele>1709.0</ele>
        <time>2014-06-30T15:38:32Z</time>
      </trkpt>
      <trkpt lat="40.789367" lon="-4.346733">
        <ele>1710.0</ele>
        <time>2014-06-30T15:38:33Z</time>
      </trkpt>
      <trkpt lat="40.789433" lon="-4.346633">
        <ele>1711.0</ele>
        <time>2014-06-30T15:38:34Z</time>
      </trkpt>
      <trkpt lat="40.789500" lon="-4.346550">
        <ele>1713.0</ele>
        <time>2014-06-30T15:38:35Z</time>
      </trkpt>
      <trkpt lat="40.789567" lon="-4.346517">
        <ele>1715.0</ele>
        <time>2014-06-30T15:38:36Z</time>
      </trkpt>
      <trkpt lat="40.789617" lon="-4.346467">
        <ele>1714.0</ele>
        <time>2014-06-30T15:38:37Z</time>
      </trkpt>
      <trkpt lat="40.789667" lon="-4.346433">
        <ele>1715.0</ele>
        <time>2014-06-30T15:38:38Z</time>
      </trkpt>
      <trkpt lat="40.789717" lon="-4.346417">
        <ele>1715.0</ele>
        <time>2014-06-30T15:38:39Z</time>
      </trkpt>
      <trkpt lat="40.789767" lon="-4.346400">
        <ele>1715.0</ele>
        <time>2014-06-30T15:38:40Z</time>
      </trkpt>
      <trkpt lat="40.789817" lon="-4.346383">
        <ele>1715.0</ele>
        <time>2014-06-30T15:38:41Z</time>
      </trkpt>
      <trkpt lat="40.789867" lon="-4.346383">
        <ele>1715.0</ele>
        <time>2014-06-30T15:38:42Z</time>
      </trkpt>
      <trkpt lat="40.789917" lon="-4.346383">
        <ele>1715.0</ele>
        <time>2014-06-30T15:38:43Z</time>
      </trkpt>
      <trkpt lat="40.789950" lon="-4.346417">
        <ele>1714.0</ele>
        <time>2014-06-30T15:38:44Z</time>
      </trkpt>
      <trkpt lat="40.789983" lon="-4.346450">
        <ele>1713.0</ele>
        <time>2014-06-30T15:38:45Z</time>
      </trkpt>
      <trkpt lat="40.790000" lon="-4.346517">
        <ele>1713.0</ele>
        <time>2014-06-30T15:38:46Z</time>
      </trkpt>
      <trkpt lat="40.789983" lon="-4.346567">
        <ele>1711.0</ele>
        <time>2014-06-30T15:38:47Z</time>
      </trkpt>
      <trkpt lat="40.789933" lon="-4.346617">
        <ele>1710.0</ele>
        <time>2014-06-30T15:38:48Z</time>
      </trkpt>
      <trkpt lat="40.789850" lon="-4.346633">
        <ele>1710.0</ele>
        <time>2014-06-30T15:38:49Z</time>
      </trkpt>
      <trkpt lat="40.789767" lon="-4.346583">
        <ele>1709.0</ele>
        <time>2014-06-30T15:38:50Z</time>
      </trkpt>
      <trkpt lat="40.789667" lon="-4.346500">
        <ele>1708.0</ele>
        <time>2014-06-30T15:38:51Z</time>
      </trkpt>
      <trkpt lat="40.789600" lon="-4.346383">
        <ele>1707.0</ele>
        <time>2014-06-30T15:38:52Z</time>
      </trkpt>
      <trkpt lat="40.789517" lon="-4.346233">
        <ele>1706.0</ele>
        <time>2014-06-30T15:38:53Z</time>
      </trkpt>
      <trkpt lat="40.789450" lon="-4.346083">
        <ele>1705.0</ele>
        <time>2014-06-30T15:38:54Z</time>
      </trkpt>
      <trkpt lat="40.789417" lon="-4.345933">
        <ele>1704.0</ele>
        <time>2014-06-30T15:38:55Z</time>
      </trkpt>
      <trkpt lat="40.789383" lon="-4.345783">
        <ele>1703.0</ele>
        <time>2014-06-30T15:38:56Z</time>
      </trkpt>
      <trkpt lat="40.789350" lon="-4.345617">
        <ele>1702.0</ele>
        <time>2014-06-30T15:38:57Z</time>
      </trkpt>
      <trkpt lat="40.789333" lon="-4.345433">
        <ele>1702.0</ele>
        <time>2014-06-30T15:38:58Z</time>
      </trkpt>
      <trkpt lat="40.789333" lon="-4.345267">
        <ele>1702.0</ele>
        <time>2014-06-30T15:38:59Z</time>
      </trkpt>
      <trkpt lat="40.789333" lon="-4.345100">
        <ele>1702.0</ele>
        <time>2014-06-30T15:39:00Z</time>
      </trkpt>
      <trkpt lat="40.789350" lon="-4.344917">
        <ele>1702.0</ele>
        <time>2014-06-30T15:39:01Z</time>
      </trkpt>
      <trkpt lat="40.789350" lon="-4.344750">
        <ele>1702.0</ele>
        <time>2014-06-30T15:39:02Z</time>
      </trkpt>
      <trkpt lat="40.789350" lon="-4.344567">
        <ele>1701.0</ele>
        <time>2014-06-30T15:39:03Z</time>
      </trkpt>
      <trkpt lat="40.789350" lon="-4.344383">
        <ele>1701.0</ele>
        <time>2014-06-30T15:39:04Z</time>
      </trkpt>
      <trkpt lat="40.789350" lon="-4.344217">
        <ele>1701.0</ele>
        <time>2014-06-30T15:39:05Z</time>
      </trkpt>
      <trkpt lat="40.789350" lon="-4.344050">
        <ele>1702.0</ele>
        <time>2014-06-30T15:39:06Z</time>
      </trkpt>
      <trkpt lat="40.789367" lon="-4.343883">
        <ele>1702.0</ele>
        <time>2014-06-30T15:39:07Z</time>
      </trkpt>
      <trkpt lat="40.789383" lon="-4.343717">
        <ele>1702.0</ele>
        <time>2014-06-30T15:39:08Z</time>
      </trkpt>
      <trkpt lat="40.789400" lon="-4.343550">
        <ele>1701.0</ele>
        <time>2014-06-30T15:39:09Z</time>
      </trkpt>
      <trkpt lat="40.789417" lon="-4.343383">
        <ele>1701.0</ele>
        <time>2014-06-30T15:39:10Z</time>
      </trkpt>
      <trkpt lat="40.789450" lon="-4.343250">
        <ele>1702.0</ele>
        <time>2014-06-30T15:39:11Z</time>
      </trkpt>
      <trkpt lat="40.789483" lon="-4.343133">
        <ele>1702.0</ele>
        <time>2014-06-30T15:39:12Z</time>
      </trkpt>
      <trkpt lat="40.789517" lon="-4.343033">
        <ele>1703.0</ele>
        <time>2014-06-30T15:39:13Z</time>
      </trkpt>
      <trkpt lat="40.789533" lon="-4.342917">
        <ele>1704.0</ele>
        <time>2014-06-30T15:39:14Z</time>
      </trkpt>
      <trkpt lat="40.789550" lon="-4.342800">
        <ele>1704.0</ele>
        <time>2014-06-30T15:39:15Z</time>
      </trkpt>
      <trkpt lat="40.789550" lon="-4.342700">
        <ele>1705.0</ele>
        <time>2014-06-30T15:39:16Z</time>
      </trkpt>
      <trkpt lat="40.789567" lon="-4.342583">
        <ele>1704.0</ele>
        <time>2014-06-30T15:39:17Z</time>
      </trkpt>
      <trkpt lat="40.789617" lon="-4.342483">
        <ele>1704.0</ele>
        <time>2014-06-30T15:39:18Z</time>
      </trkpt>
      <trkpt lat="40.789667" lon="-4.342400">
        <ele>1703.0</ele>
        <time>2014-06-30T15:39:19Z</time>
      </trkpt>
      <trkpt lat="40.789733" lon="-4.342317">
        <ele>1703.0</ele>
        <time>2014-06-30T15:39:20Z</time>
      </trkpt>
      <trkpt lat="40.789800" lon="-4.342233">
        <ele>1703.0</ele>
        <time>2014-06-30T15:39:21Z</time>
      </trkpt>
      <trkpt lat="40.789850" lon="-4.342133">
        <ele>1703.0</ele>
        <time>2014-06-30T15:39:22Z</time>
      </trkpt>
      <trkpt lat="40.789900" lon="-4.342017">
        <ele>1703.0</ele>
        <time>2014-06-30T15:39:23Z</time>
      </trkpt>
      <trkpt lat="40.789933" lon="-4.341933">
        <ele>1704.0</ele>
        <time>2014-06-30T15:39:24Z</time>
      </trkpt>
      <trkpt lat="40.789983" lon="-4.341850">
        <ele>1703.0</ele>
        <time>2014-06-30T15:39:25Z</time>
      </trkpt>
      <trkpt lat="40.790033" lon="-4.341767">
        <ele>1703.0</ele>
        <time>2014-06-30T15:39:26Z</time>
      </trkpt>
      <trkpt lat="40.790100" lon="-4.341683">
        <ele>1702.0</ele>
        <time>2014-06-30T15:39:27Z</time>
      </trkpt>
      <trkpt lat="40.790167" lon="-4.341600">
        <ele>1701.0</ele>
        <time>2014-06-30T15:39:28Z</time>
      </trkpt>
      <trkpt lat="40.790217" lon="-4.341517">
        <ele>1702.0</ele>
        <time>2014-06-30T15:39:29Z</time>
      </trkpt>
      <trkpt lat="40.790283" lon="-4.341450">
        <ele>1702.0</ele>
        <time>2014-06-30T15:39:30Z</time>
      </trkpt>
      <trkpt lat="40.790333" lon="-4.341367">
        <ele>1702.0</ele>
        <time>2014-06-30T15:39:31Z</time>
      </trkpt>
      <trkpt lat="40.790383" lon="-4.341300">
        <ele>1702.0</ele>
        <time>2014-06-30T15:39:32Z</time>
      </trkpt>
      <trkpt lat="40.790417" lon="-4.341250">
        <ele>1703.0</ele>
        <time>2014-06-30T15:39:33Z</time>
      </trkpt>
      <trkpt lat="40.790433" lon="-4.341233">
        <ele>1703.0</ele>
        <time>2014-06-30T15:39:34Z</time>
      </trkpt>
      <trkpt lat="40.790467" lon="-4.341200">
        <ele>1704.0</ele>
        <time>2014-06-30T15:39:35Z</time>
      </trkpt>
      <trkpt lat="40.790500" lon="-4.341150">
        <ele>1704.0</ele>
        <time>2014-06-30T15:39:36Z</time>
      </trkpt>
      <trkpt lat="40.790550" lon="-4.341117">
        <ele>1703.0</ele>
        <time>2014-06-30T15:39:37Z</time>
      </trkpt>
      <trkpt lat="40.790583" lon="-4.341100">
        <ele>1703.0</ele>
        <time>2014-06-30T15:39:38Z</time>
      </trkpt>
      <trkpt lat="40.790650" lon="-4.341050">
        <ele>1703.0</ele>
        <time>2014-06-30T15:39:39Z</time>
      </trkpt>
      <trkpt lat="40.790717" lon="-4.341017">
        <ele>1702.0</ele>
        <time>2014-06-30T15:39:40Z</time>
      </trkpt>
      <trkpt lat="40.790783" lon="-4.340950">
        <ele>1701.0</ele>
        <time>2014-06-30T15:39:41Z</time>
      </trkpt>
      <trkpt lat="40.790850" lon="-4.340883">
        <ele>1701.0</ele>
        <time>2014-06-30T15:39:42Z</time>
      </trkpt>
      <trkpt lat="40.790917" lon="-4.340800">
        <ele>1700.0</ele>
        <time>2014-06-30T15:39:43Z</time>
      </trkpt>
      <trkpt lat="40.790983" lon="-4.340733">
        <ele>1700.0</ele>
        <time>2014-06-30T15:39:44Z</time>
      </trkpt>
      <trkpt lat="40.791033" lon="-4.340667">
        <ele>1699.0</ele>
        <time>2014-06-30T15:39:45Z</time>
      </trkpt>
      <trkpt lat="40.791083" lon="-4.340583">
        <ele>1699.0</ele>
        <time>2014-06-30T15:39:46Z</time>
      </trkpt>
      <trkpt lat="40.791133" lon="-4.340500">
        <ele>1699.0</ele>
        <time>2014-06-30T15:39:47Z</time>
      </trkpt>
      <trkpt lat="40.791200" lon="-4.340400">
        <ele>1698.0</ele>
        <time>2014-06-30T15:39:48Z</time>
      </trkpt>
      <trkpt lat="40.791250" lon="-4.340283">
        <ele>1698.0</ele>
        <time>2014-06-30T15:39:49Z</time>
      </trkpt>
      <trkpt lat="40.791300" lon="-4.340167">
        <ele>1698.0</ele>
        <time>2014-06-30T15:39:50Z</time>
      </trkpt>
      <trkpt lat="40.791350" lon="-4.340050">
        <ele>1697.0</ele>
        <time>2014-06-30T15:39:51Z</time>
      </trkpt>
      <trkpt lat="40.791417" lon="-4.339933">
        <ele>1696.0</ele>
        <time>2014-06-30T15:39:52Z</time>
      </trkpt>
      <trkpt lat="40.791483" lon="-4.339800">
        <ele>1696.0</ele>
        <time>2014-06-30T15:39:53Z</time>
      </trkpt>
      <trkpt lat="40.791567" lon="-4.339700">
        <ele>1696.0</ele>
        <time>2014-06-30T15:39:54Z</time>
      </trkpt>
      <trkpt lat="40.791633" lon="-4.339600">
        <ele>1696.0</ele>
        <time>2014-06-30T15:39:55Z</time>
      </trkpt>
      <trkpt lat="40.791700" lon="-4.339500">
        <ele>1695.0</ele>
        <time>2014-06-30T15:39:56Z</time>
      </trkpt>
      <trkpt lat="40.791750" lon="-4.339400">
        <ele>1695.0</ele>
        <time>2014-06-30T15:39:57Z</time>
      </trkpt>
      <trkpt lat="40.791800" lon="-4.339333">
        <ele>1695.0</ele>
        <time>2014-06-30T15:39:58Z</time>
      </trkpt>
      <trkpt lat="40.791850" lon="-4.339283">
        <ele>1695.0</ele>
        <time>2014-06-30T15:39:59Z</time>
      </trkpt>
      <trkpt lat="40.791900" lon="-4.339233">
        <ele>1694.0</ele>
        <time>2014-06-30T15:40:00Z</time>
      </trkpt>
      <trkpt lat="40.791950" lon="-4.339183">
        <ele>1694.0</ele>
        <time>2014-06-30T15:40:01Z</time>
      </trkpt>
      <trkpt lat="40.792017" lon="-4.339150">
        <ele>1694.0</ele>
        <time>2014-06-30T15:40:02Z</time>
      </trkpt>
      <trkpt lat="40.792067" lon="-4.339117">
        <ele>1694.0</ele>
        <time>2014-06-30T15:40:03Z</time>
      </trkpt>
      <trkpt lat="40.792117" lon="-4.339100">
        <ele>1694.0</ele>
        <time>2014-06-30T15:40:04Z</time>
      </trkpt>
      <trkpt lat="40.792167" lon="-4.339067">
        <ele>1694.0</ele>
        <time>2014-06-30T15:40:05Z</time>
      </trkpt>
      <trkpt lat="40.792233" lon="-4.339033">
        <ele>1694.0</ele>
        <time>2014-06-30T15:40:06Z</time>
      </trkpt>
      <trkpt lat="40.792300" lon="-4.339000">
        <ele>1695.0</ele>
        <time>2014-06-30T15:40:07Z</time>
      </trkpt>
      <trkpt lat="40.792350" lon="-4.338983">
        <ele>1696.0</ele>
        <time>2014-06-30T15:40:08Z</time>
      </trkpt>
      <trkpt lat="40.792400" lon="-4.338950">
        <ele>1697.0</ele>
        <time>2014-06-30T15:40:09Z</time>
      </trkpt>
      <trkpt lat="40.792433" lon="-4.338933">
        <ele>1698.0</ele>
        <time>2014-06-30T15:40:10Z</time>
      </trkpt>
      <trkpt lat="40.792483" lon="-4.338933">
        <ele>1700.0</ele>
        <time>2014-06-30T15:40:11Z</time>
      </trkpt>
      <trkpt lat="40.792533" lon="-4.338933">
        <ele>1701.0</ele>
        <time>2014-06-30T15:40:12Z</time>
      </trkpt>
      <trkpt lat="40.792567" lon="-4.338950">
        <ele>1701.0</ele>
        <time>2014-06-30T15:40:13Z</time>
      </trkpt>
      <trkpt lat="40.792600" lon="-4.338983">
        <ele>1701.0</ele>
        <time>2014-06-30T15:40:14Z</time>
      </trkpt>
      <trkpt lat="40.792600" lon="-4.339033">
        <ele>1700.0</ele>
        <time>2014-06-30T15:40:15Z</time>
      </trkpt>
      <trkpt lat="40.792550" lon="-4.339067">
        <ele>1697.0</ele>
        <time>2014-06-30T15:40:16Z</time>
      </trkpt>
      <trkpt lat="40.792467" lon="-4.339067">
        <ele>1692.0</ele>
        <time>2014-06-30T15:40:17Z</time>
      </trkpt>
      <trkpt lat="40.792350" lon="-4.339033">
        <ele>1689.0</ele>
        <time>2014-06-30T15:40:18Z</time>
      </trkpt>
      <trkpt lat="40.792250" lon="-4.338933">
        <ele>1687.0</ele>
        <time>2014-06-30T15:40:19Z</time>
      </trkpt>
      <trkpt lat="40.792183" lon="-4.338800">
        <ele>1687.0</ele>
        <time>2014-06-30T15:40:20Z</time>
      </trkpt>
      <trkpt lat="40.792150" lon="-4.338650">
        <ele>1685.0</ele>
        <time>2014-06-30T15:40:21Z</time>
      </trkpt>
      <trkpt lat="40.792117" lon="-4.338483">
        <ele>1683.0</ele>
        <time>2014-06-30T15:40:22Z</time>
      </trkpt>
      <trkpt lat="40.792083" lon="-4.338333">
        <ele>1682.0</ele>
        <time>2014-06-30T15:40:23Z</time>
      </trkpt>
      <trkpt lat="40.792017" lon="-4.338183">
        <ele>1681.0</ele>
        <time>2014-06-30T15:40:24Z</time>
      </trkpt>
      <trkpt lat="40.791967" lon="-4.338050">
        <ele>1681.0</ele>
        <time>2014-06-30T15:40:25Z</time>
      </trkpt>
      <trkpt lat="40.791950" lon="-4.337917">
        <ele>1681.0</ele>
        <time>2014-06-30T15:40:26Z</time>
      </trkpt>
      <trkpt lat="40.791950" lon="-4.337800">
        <ele>1681.0</ele>
        <time>2014-06-30T15:40:27Z</time>
      </trkpt>
      <trkpt lat="40.791950" lon="-4.337667">
        <ele>1680.0</ele>
        <time>2014-06-30T15:40:28Z</time>
      </trkpt>
      <trkpt lat="40.791983" lon="-4.337500">
        <ele>1680.0</ele>
        <time>2014-06-30T15:40:29Z</time>
      </trkpt>
      <trkpt lat="40.792017" lon="-4.337333">
        <ele>1679.0</ele>
        <time>2014-06-30T15:40:30Z</time>
      </trkpt>
      <trkpt lat="40.792050" lon="-4.337167">
        <ele>1680.0</ele>
        <time>2014-06-30T15:40:31Z</time>
      </trkpt>
      <trkpt lat="40.792100" lon="-4.337000">
        <ele>1681.0</ele>
        <time>2014-06-30T15:40:32Z</time>
      </trkpt>
      <trkpt lat="40.792133" lon="-4.336850">
        <ele>1682.0</ele>
        <time>2014-06-30T15:40:33Z</time>
      </trkpt>
      <trkpt lat="40.792167" lon="-4.336733">
        <ele>1685.0</ele>
        <time>2014-06-30T15:40:34Z</time>
      </trkpt>
      <trkpt lat="40.792183" lon="-4.336650">
        <ele>1690.0</ele>
        <time>2014-06-30T15:40:35Z</time>
      </trkpt>
      <trkpt lat="40.792217" lon="-4.336583">
        <ele>1691.0</ele>
        <time>2014-06-30T15:40:36Z</time>
      </trkpt>
      <trkpt lat="40.792267" lon="-4.336550">
        <ele>1689.0</ele>
        <time>2014-06-30T15:40:37Z</time>
      </trkpt>
      <trkpt lat="40.792350" lon="-4.336517">
        <ele>1689.0</ele>
        <time>2014-06-30T15:40:38Z</time>
      </trkpt>
      <trkpt lat="40.792417" lon="-4.336533">
        <ele>1690.0</ele>
        <time>2014-06-30T15:40:39Z</time>
      </trkpt>
      <trkpt lat="40.792433" lon="-4.336583">
        <ele>1690.0</ele>
        <time>2014-06-30T15:40:40Z</time>
      </trkpt>
      <trkpt lat="40.792417" lon="-4.336633">
        <ele>1690.0</ele>
        <time>2014-06-30T15:40:41Z</time>
      </trkpt>
      <trkpt lat="40.792367" lon="-4.336650">
        <ele>1692.0</ele>
        <time>2014-06-30T15:40:42Z</time>
      </trkpt>
      <trkpt lat="40.792283" lon="-4.336650">
        <ele>1693.0</ele>
        <time>2014-06-30T15:40:43Z</time>
      </trkpt>
      <trkpt lat="40.792200" lon="-4.336600">
        <ele>1693.0</ele>
        <time>2014-06-30T15:40:44Z</time>
      </trkpt>
      <trkpt lat="40.792117" lon="-4.336500">
        <ele>1693.0</ele>
        <time>2014-06-30T15:40:45Z</time>
      </trkpt>
      <trkpt lat="40.792050" lon="-4.336367">
        <ele>1694.0</ele>
        <time>2014-06-30T15:40:46Z</time>
      </trkpt>
      <trkpt lat="40.792017" lon="-4.336250">
        <ele>1695.0</ele>
        <time>2014-06-30T15:40:47Z</time>
      </trkpt>
      <trkpt lat="40.791983" lon="-4.336133">
        <ele>1696.0</ele>
        <time>2014-06-30T15:40:48Z</time>
      </trkpt>
      <trkpt lat="40.791983" lon="-4.336017">
        <ele>1696.0</ele>
        <time>2014-06-30T15:40:49Z</time>
      </trkpt>
      <trkpt lat="40.792000" lon="-4.335867">
        <ele>1696.0</ele>
        <time>2014-06-30T15:40:50Z</time>
      </trkpt>
      <trkpt lat="40.792033" lon="-4.335733">
        <ele>1695.0</ele>
        <time>2014-06-30T15:40:51Z</time>
      </trkpt>
      <trkpt lat="40.792083" lon="-4.335600">
        <ele>1695.0</ele>
        <time>2014-06-30T15:40:52Z</time>
      </trkpt>
      <trkpt lat="40.792150" lon="-4.335467">
        <ele>1696.0</ele>
        <time>2014-06-30T15:40:53Z</time>
      </trkpt>
      <trkpt lat="40.792200" lon="-4.335350">
        <ele>1697.0</ele>
        <time>2014-06-30T15:40:54Z</time>
      </trkpt>
      <trkpt lat="40.792267" lon="-4.335217">
        <ele>1697.0</ele>
        <time>2014-06-30T15:40:55Z</time>
      </trkpt>
      <trkpt lat="40.792317" lon="-4.335067">
        <ele>1698.0</ele>
        <time>2014-06-30T15:40:56Z</time>
      </trkpt>
      <trkpt lat="40.792367" lon="-4.334917">
        <ele>1699.0</ele>
        <time>2014-06-30T15:40:57Z</time>
      </trkpt>
      <trkpt lat="40.792400" lon="-4.334783">
        <ele>1701.0</ele>
        <time>2014-06-30T15:40:58Z</time>
      </trkpt>
      <trkpt lat="40.792450" lon="-4.334650">
        <ele>1703.0</ele>
        <time>2014-06-30T15:40:59Z</time>
      </trkpt>
      <trkpt lat="40.792517" lon="-4.334550">
        <ele>1704.0</ele>
        <time>2014-06-30T15:41:00Z</time>
      </trkpt>
      <trkpt lat="40.792600" lon="-4.334483">
        <ele>1705.0</ele>
        <time>2014-06-30T15:41:01Z</time>
      </trkpt>
      <trkpt lat="40.792683" lon="-4.334467">
        <ele>1706.0</ele>
        <time>2014-06-30T15:41:02Z</time>
      </trkpt>
      <trkpt lat="40.792750" lon="-4.334450">
        <ele>1708.0</ele>
        <time>2014-06-30T15:41:03Z</time>
      </trkpt>
      <trkpt lat="40.792800" lon="-4.334450">
        <ele>1704.0</ele>
        <time>2014-06-30T15:41:04Z</time>
      </trkpt>
      <trkpt lat="40.792783" lon="-4.334500">
        <ele>1705.0</ele>
        <time>2014-06-30T15:41:05Z</time>
      </trkpt>
      <trkpt lat="40.792767" lon="-4.334550">
        <ele>1705.0</ele>
        <time>2014-06-30T15:41:06Z</time>
      </trkpt>
      <trkpt lat="40.792733" lon="-4.334600">
        <ele>1706.0</ele>
        <time>2014-06-30T15:41:07Z</time>
      </trkpt>
      <trkpt lat="40.792683" lon="-4.334650">
        <ele>1708.0</ele>
        <time>2014-06-30T15:41:08Z</time>
      </trkpt>
      <trkpt lat="40.792600" lon="-4.334650">
        <ele>1708.0</ele>
        <time>2014-06-30T15:41:09Z</time>
      </trkpt>
      <trkpt lat="40.792483" lon="-4.334583">
        <ele>1709.0</ele>
        <time>2014-06-30T15:41:10Z</time>
      </trkpt>
      <trkpt lat="40.792400" lon="-4.334467">
        <ele>1709.0</ele>
        <time>2014-06-30T15:41:11Z</time>
      </trkpt>
      <trkpt lat="40.792350" lon="-4.334300">
        <ele>1710.0</ele>
        <time>2014-06-30T15:41:12Z</time>
      </trkpt>
      <trkpt lat="40.792350" lon="-4.334133">
        <ele>1711.0</ele>
        <time>2014-06-30T15:41:13Z</time>
      </trkpt>
      <trkpt lat="40.792383" lon="-4.334000">
        <ele>1713.0</ele>
        <time>2014-06-30T15:41:14Z</time>
      </trkpt>
      <trkpt lat="40.792417" lon="-4.333883">
        <ele>1714.0</ele>
        <time>2014-06-30T15:41:15Z</time>
      </trkpt>
      <trkpt lat="40.792467" lon="-4.333800">
        <ele>1716.0</ele>
        <time>2014-06-30T15:41:16Z</time>
      </trkpt>
      <trkpt lat="40.792517" lon="-4.333717">
        <ele>1719.0</ele>
        <time>2014-06-30T15:41:17Z</time>
      </trkpt>
      <trkpt lat="40.792567" lon="-4.333650">
        <ele>1718.0</ele>
        <time>2014-06-30T15:41:18Z</time>
      </trkpt>
      <trkpt lat="40.792617" lon="-4.333600">
        <ele>1719.0</ele>
        <time>2014-06-30T15:41:19Z</time>
      </trkpt>
      <trkpt lat="40.792667" lon="-4.333583">
        <ele>1720.0</ele>
        <time>2014-06-30T15:41:20Z</time>
      </trkpt>
      <trkpt lat="40.792700" lon="-4.333617">
        <ele>1721.0</ele>
        <time>2014-06-30T15:41:21Z</time>
      </trkpt>
      <trkpt lat="40.792733" lon="-4.333650">
        <ele>1722.0</ele>
        <time>2014-06-30T15:41:22Z</time>
      </trkpt>
      <trkpt lat="40.792733" lon="-4.333700">
        <ele>1723.0</ele>
        <time>2014-06-30T15:41:23Z</time>
      </trkpt>
      <trkpt lat="40.792717" lon="-4.333733">
        <ele>1725.0</ele>
        <time>2014-06-30T15:41:24Z</time>
      </trkpt>
      <trkpt lat="40.792650" lon="-4.333750">
        <ele>1726.0</ele>
        <time>2014-06-30T15:41:25Z</time>
      </trkpt>
      <trkpt lat="40.792583" lon="-4.333750">
        <ele>1727.0</ele>
        <time>2014-06-30T15:41:26Z</time>
      </trkpt>
      <trkpt lat="40.792483" lon="-4.333717">
        <ele>1727.0</ele>
        <time>2014-06-30T15:41:27Z</time>
      </trkpt>
      <trkpt lat="40.792383" lon="-4.333650">
        <ele>1729.0</ele>
        <time>2014-06-30T15:41:28Z</time>
      </trkpt>
      <trkpt lat="40.792300" lon="-4.333550">
        <ele>1730.0</ele>
        <time>2014-06-30T15:41:29Z</time>
      </trkpt>
      <trkpt lat="40.792233" lon="-4.333433">
        <ele>1730.0</ele>
        <time>2014-06-30T15:41:30Z</time>
      </trkpt>
      <trkpt lat="40.792183" lon="-4.333283">
        <ele>1731.0</ele>
        <time>2014-06-30T15:41:31Z</time>
      </trkpt>
      <trkpt lat="40.792133" lon="-4.333117">
        <ele>1732.0</ele>
        <time>2014-06-30T15:41:32Z</time>
      </trkpt>
      <trkpt lat="40.792117" lon="-4.332967">
        <ele>1733.0</ele>
        <time>2014-06-30T15:41:33Z</time>
      </trkpt>
      <trkpt lat="40.792117" lon="-4.332817">
        <ele>1735.0</ele>
        <time>2014-06-30T15:41:34Z</time>
      </trkpt>
      <trkpt lat="40.792133" lon="-4.332683">
        <ele>1736.0</ele>
        <time>2014-06-30T15:41:35Z</time>
      </trkpt>
      <trkpt lat="40.792183" lon="-4.332567">
        <ele>1737.0</ele>
        <time>2014-06-30T15:41:36Z</time>
      </trkpt>
      <trkpt lat="40.792233" lon="-4.332483">
        <ele>1739.0</ele>
        <time>2014-06-30T15:41:37Z</time>
      </trkpt>
      <trkpt lat="40.792283" lon="-4.332417">
        <ele>1741.0</ele>
        <time>2014-06-30T15:41:38Z</time>
      </trkpt>
      <trkpt lat="40.792333" lon="-4.332383">
        <ele>1742.0</ele>
        <time>2014-06-30T15:41:39Z</time>
      </trkpt>
      <trkpt lat="40.792383" lon="-4.332350">
        <ele>1744.0</ele>
        <time>2014-06-30T15:41:40Z</time>
      </trkpt>
      <trkpt lat="40.792417" lon="-4.332350">
        <ele>1745.0</ele>
        <time>2014-06-30T15:41:41Z</time>
      </trkpt>
      <trkpt lat="40.792450" lon="-4.332367">
        <ele>1746.0</ele>
        <time>2014-06-30T15:41:42Z</time>
      </trkpt>
      <trkpt lat="40.792467" lon="-4.332400">
        <ele>1746.0</ele>
        <time>2014-06-30T15:41:43Z</time>
      </trkpt>
      <trkpt lat="40.792450" lon="-4.332450">
        <ele>1746.0</ele>
        <time>2014-06-30T15:41:44Z</time>
      </trkpt>
      <trkpt lat="40.792417" lon="-4.332500">
        <ele>1746.0</ele>
        <time>2014-06-30T15:41:45Z</time>
      </trkpt>
      <trkpt lat="40.792350" lon="-4.332533">
        <ele>1746.0</ele>
        <time>2014-06-30T15:41:46Z</time>
      </trkpt>
      <trkpt lat="40.792267" lon="-4.332533">
        <ele>1744.0</ele>
        <time>2014-06-30T15:41:47Z</time>
      </trkpt>
      <trkpt lat="40.792167" lon="-4.332500">
        <ele>1744.0</ele>
        <time>2014-06-30T15:41:48Z</time>
      </trkpt>
      <trkpt lat="40.792067" lon="-4.332417">
        <ele>1744.0</ele>
        <time>2014-06-30T15:41:49Z</time>
      </trkpt>
      <trkpt lat="40.791967" lon="-4.332300">
        <ele>1744.0</ele>
        <time>2014-06-30T15:41:50Z</time>
      </trkpt>
      <trkpt lat="40.791883" lon="-4.332150">
        <ele>1744.0</ele>
        <time>2014-06-30T15:41:51Z</time>
      </trkpt>
      <trkpt lat="40.791850" lon="-4.331983">
        <ele>1744.0</ele>
        <time>2014-06-30T15:41:52Z</time>
      </trkpt>
      <trkpt lat="40.791850" lon="-4.331817">
        <ele>1745.0</ele>
        <time>2014-06-30T15:41:53Z</time>
      </trkpt>
      <trkpt lat="40.791883" lon="-4.331683">
        <ele>1745.0</ele>
        <time>2014-06-30T15:41:54Z</time>
      </trkpt>
      <trkpt lat="40.791950" lon="-4.331583">
        <ele>1746.0</ele>
        <time>2014-06-30T15:41:55Z</time>
      </trkpt>
      <trkpt lat="40.792000" lon="-4.331500">
        <ele>1746.0</ele>
        <time>2014-06-30T15:41:56Z</time>
      </trkpt>
      <trkpt lat="40.792067" lon="-4.331400">
        <ele>1746.0</ele>
        <time>2014-06-30T15:41:57Z</time>
      </trkpt>
      <trkpt lat="40.792117" lon="-4.331317">
        <ele>1747.0</ele>
        <time>2014-06-30T15:41:58Z</time>
      </trkpt>
      <trkpt lat="40.792167" lon="-4.331250">
        <ele>1748.0</ele>
        <time>2014-06-30T15:41:59Z</time>
      </trkpt>
      <trkpt lat="40.792217" lon="-4.331200">
        <ele>1750.0</ele>
        <time>2014-06-30T15:42:00Z</time>
      </trkpt>
      <trkpt lat="40.792250" lon="-4.331150">
        <ele>1751.0</ele>
        <time>2014-06-30T15:42:01Z</time>
      </trkpt>
      <trkpt lat="40.792283" lon="-4.331117">
        <ele>1752.0</ele>
        <time>2014-06-30T15:42:02Z</time>
      </trkpt>
      <trkpt lat="40.792350" lon="-4.331083">
        <ele>1752.0</ele>
        <time>2014-06-30T15:42:03Z</time>
      </trkpt>
      <trkpt lat="40.792417" lon="-4.331067">
        <ele>1752.0</ele>
        <time>2014-06-30T15:42:04Z</time>
      </trkpt>
      <trkpt lat="40.792483" lon="-4.331083">
        <ele>1753.0</ele>
        <time>2014-06-30T15:42:05Z</time>
      </trkpt>
      <trkpt lat="40.792550" lon="-4.331100">
        <ele>1754.0</ele>
        <time>2014-06-30T15:42:06Z</time>
      </trkpt>
      <trkpt lat="40.792583" lon="-4.331133">
        <ele>1754.0</ele>
        <time>2014-06-30T15:42:07Z</time>
      </trkpt>
      <trkpt lat="40.792617" lon="-4.331167">
        <ele>1753.0</ele>
        <time>2014-06-30T15:42:08Z</time>
      </trkpt>
      <trkpt lat="40.792650" lon="-4.331183">
        <ele>1751.0</ele>
        <time>2014-06-30T15:42:09Z</time>
      </trkpt>
      <trkpt lat="40.792700" lon="-4.331217">
        <ele>1749.0</ele>
        <time>2014-06-30T15:42:10Z</time>
      </trkpt>
      <trkpt lat="40.792767" lon="-4.331250">
        <ele>1747.0</ele>
        <time>2014-06-30T15:42:11Z</time>
      </trkpt>
      <trkpt lat="40.792817" lon="-4.331283">
        <ele>1746.0</ele>
        <time>2014-06-30T15:42:12Z</time>
      </trkpt>
      <trkpt lat="40.792883" lon="-4.331317">
        <ele>1745.0</ele>
        <time>2014-06-30T15:42:13Z</time>
      </trkpt>
      <trkpt lat="40.792933" lon="-4.331350">
        <ele>1744.0</ele>
        <time>2014-06-30T15:42:14Z</time>
      </trkpt>
      <trkpt lat="40.793000" lon="-4.331367">
        <ele>1743.0</ele>
        <time>2014-06-30T15:42:15Z</time>
      </trkpt>
      <trkpt lat="40.793067" lon="-4.331367">
        <ele>1742.0</ele>
        <time>2014-06-30T15:42:16Z</time>
      </trkpt>
      <trkpt lat="40.793150" lon="-4.331383">
        <ele>1741.0</ele>
        <time>2014-06-30T15:42:17Z</time>
      </trkpt>
      <trkpt lat="40.793217" lon="-4.331383">
        <ele>1740.0</ele>
        <time>2014-06-30T15:42:18Z</time>
      </trkpt>
      <trkpt lat="40.793283" lon="-4.331383">
        <ele>1739.0</ele>
        <time>2014-06-30T15:42:19Z</time>
      </trkpt>
      <trkpt lat="40.793333" lon="-4.331383">
        <ele>1737.0</ele>
        <time>2014-06-30T15:42:20Z</time>
      </trkpt>
      <trkpt lat="40.793400" lon="-4.331367">
        <ele>1735.0</ele>
        <time>2014-06-30T15:42:21Z</time>
      </trkpt>
      <trkpt lat="40.793483" lon="-4.331367">
        <ele>1738.0</ele>
        <time>2014-06-30T15:42:22Z</time>
      </trkpt>
      <trkpt lat="40.793550" lon="-4.331350">
        <ele>1737.0</ele>
        <time>2014-06-30T15:42:23Z</time>
      </trkpt>
      <trkpt lat="40.793633" lon="-4.331333">
        <ele>1737.0</ele>
        <time>2014-06-30T15:42:24Z</time>
      </trkpt>
      <trkpt lat="40.793717" lon="-4.331300">
        <ele>1736.0</ele>
        <time>2014-06-30T15:42:25Z</time>
      </trkpt>
      <trkpt lat="40.793783" lon="-4.331250">
        <ele>1736.0</ele>
        <time>2014-06-30T15:42:26Z</time>
      </trkpt>
      <trkpt lat="40.793850" lon="-4.331200">
        <ele>1735.0</ele>
        <time>2014-06-30T15:42:27Z</time>
      </trkpt>
      <trkpt lat="40.793917" lon="-4.331150">
        <ele>1735.0</ele>
        <time>2014-06-30T15:42:28Z</time>
      </trkpt>
      <trkpt lat="40.794000" lon="-4.331117">
        <ele>1734.0</ele>
        <time>2014-06-30T15:42:29Z</time>
      </trkpt>
      <trkpt lat="40.794083" lon="-4.331067">
        <ele>1733.0</ele>
        <time>2014-06-30T15:42:30Z</time>
      </trkpt>
      <trkpt lat="40.794167" lon="-4.331017">
        <ele>1732.0</ele>
        <time>2014-06-30T15:42:31Z</time>
      </trkpt>
      <trkpt lat="40.794233" lon="-4.330950">
        <ele>1732.0</ele>
        <time>2014-06-30T15:42:32Z</time>
      </trkpt>
      <trkpt lat="40.794317" lon="-4.330900">
        <ele>1732.0</ele>
        <time>2014-06-30T15:42:33Z</time>
      </trkpt>
      <trkpt lat="40.794383" lon="-4.330850">
        <ele>1731.0</ele>
        <time>2014-06-30T15:42:34Z</time>
      </trkpt>
      <trkpt lat="40.794467" lon="-4.330800">
        <ele>1731.0</ele>
        <time>2014-06-30T15:42:35Z</time>
      </trkpt>
      <trkpt lat="40.794533" lon="-4.330733">
        <ele>1731.0</ele>
        <time>2014-06-30T15:42:36Z</time>
      </trkpt>
      <trkpt lat="40.794600" lon="-4.330667">
        <ele>1730.0</ele>
        <time>2014-06-30T15:42:37Z</time>
      </trkpt>
      <trkpt lat="40.794683" lon="-4.330583">
        <ele>1729.0</ele>
        <time>2014-06-30T15:42:38Z</time>
      </trkpt>
      <trkpt lat="40.794750" lon="-4.330517">
        <ele>1729.0</ele>
        <time>2014-06-30T15:42:39Z</time>
      </trkpt>
      <trkpt lat="40.794850" lon="-4.330467">
        <ele>1728.0</ele>
        <time>2014-06-30T15:42:40Z</time>
      </trkpt>
      <trkpt lat="40.794933" lon="-4.330400">
        <ele>1727.0</ele>
        <time>2014-06-30T15:42:41Z</time>
      </trkpt>
      <trkpt lat="40.795000" lon="-4.330333">
        <ele>1726.0</ele>
        <time>2014-06-30T15:42:42Z</time>
      </trkpt>
      <trkpt lat="40.795083" lon="-4.330267">
        <ele>1726.0</ele>
        <time>2014-06-30T15:42:43Z</time>
      </trkpt>
      <trkpt lat="40.795150" lon="-4.330217">
        <ele>1725.0</ele>
        <time>2014-06-30T15:42:44Z</time>
      </trkpt>
      <trkpt lat="40.795233" lon="-4.330167">
        <ele>1724.0</ele>
        <time>2014-06-30T15:42:45Z</time>
      </trkpt>
      <trkpt lat="40.795333" lon="-4.330117">
        <ele>1724.0</ele>
        <time>2014-06-30T15:42:46Z</time>
      </trkpt>
      <trkpt lat="40.795433" lon="-4.330067">
        <ele>1723.0</ele>
        <time>2014-06-30T15:42:47Z</time>
      </trkpt>
      <trkpt lat="40.795550" lon="-4.330000">
        <ele>1722.0</ele>
        <time>2014-06-30T15:42:48Z</time>
      </trkpt>
      <trkpt lat="40.795617" lon="-4.329967">
        <ele>1722.0</ele>
        <time>2014-06-30T15:42:49Z</time>
      </trkpt>
      <trkpt lat="40.795683" lon="-4.329933">
        <ele>1721.0</ele>
        <time>2014-06-30T15:42:50Z</time>
      </trkpt>
      <trkpt lat="40.795733" lon="-4.329900">
        <ele>1720.0</ele>
        <time>2014-06-30T15:42:51Z</time>
      </trkpt>
      <trkpt lat="40.795783" lon="-4.329833">
        <ele>1719.0</ele>
        <time>2014-06-30T15:42:52Z</time>
      </trkpt>
      <trkpt lat="40.795833" lon="-4.329767">
        <ele>1719.0</ele>
        <time>2014-06-30T15:42:53Z</time>
      </trkpt>
      <trkpt lat="40.795867" lon="-4.329700">
        <ele>1718.0</ele>
        <time>2014-06-30T15:42:54Z</time>
      </trkpt>
      <trkpt lat="40.795917" lon="-4.329667">
        <ele>1717.0</ele>
        <time>2014-06-30T15:42:55Z</time>
      </trkpt>
      <trkpt lat="40.795950" lon="-4.329633">
        <ele>1716.0</ele>
        <time>2014-06-30T15:42:56Z</time>
      </trkpt>
      <trkpt lat="40.796000" lon="-4.329617">
        <ele>1715.0</ele>
        <time>2014-06-30T15:42:57Z</time>
      </trkpt>
      <trkpt lat="40.796033" lon="-4.329600">
        <ele>1714.0</ele>
        <time>2014-06-30T15:42:58Z</time>
      </trkpt>
      <trkpt lat="40.796067" lon="-4.329633">
        <ele>1713.0</ele>
        <time>2014-06-30T15:42:59Z</time>
      </trkpt>
      <trkpt lat="40.796067" lon="-4.329667">
        <ele>1713.0</ele>
        <time>2014-06-30T15:43:00Z</time>
      </trkpt>
      <trkpt lat="40.796033" lon="-4.329717">
        <ele>1712.0</ele>
        <time>2014-06-30T15:43:01Z</time>
      </trkpt>
      <trkpt lat="40.796000" lon="-4.329733">
        <ele>1711.0</ele>
        <time>2014-06-30T15:43:02Z</time>
      </trkpt>
      <trkpt lat="40.795950" lon="-4.329733">
        <ele>1710.0</ele>
        <time>2014-06-30T15:43:03Z</time>
      </trkpt>
      <trkpt lat="40.795883" lon="-4.329700">
        <ele>1709.0</ele>
        <time>2014-06-30T15:43:04Z</time>
      </trkpt>
      <trkpt lat="40.795817" lon="-4.329650">
        <ele>1708.0</ele>
        <time>2014-06-30T15:43:05Z</time>
      </trkpt>
      <trkpt lat="40.795767" lon="-4.329583">
        <ele>1707.0</ele>
        <time>2014-06-30T15:43:06Z</time>
      </trkpt>
      <trkpt lat="40.795700" lon="-4.329500">
        <ele>1707.0</ele>
        <time>2014-06-30T15:43:07Z</time>
      </trkpt>
      <trkpt lat="40.795650" lon="-4.329383">
        <ele>1705.0</ele>
        <time>2014-06-30T15:43:08Z</time>
      </trkpt>
      <trkpt lat="40.795617" lon="-4.329250">
        <ele>1704.0</ele>
        <time>2014-06-30T15:43:09Z</time>
      </trkpt>
      <trkpt lat="40.795583" lon="-4.329100">
        <ele>1703.0</ele>
        <time>2014-06-30T15:43:10Z</time>
      </trkpt>
      <trkpt lat="40.795567" lon="-4.328933">
        <ele>1702.0</ele>
        <time>2014-06-30T15:43:11Z</time>
      </trkpt>
      <trkpt lat="40.795583" lon="-4.328783">
        <ele>1701.0</ele>
        <time>2014-06-30T15:43:12Z</time>
      </trkpt>
      <trkpt lat="40.795600" lon="-4.328633">
        <ele>1700.0</ele>
        <time>2014-06-30T15:43:13Z</time>
      </trkpt>
      <trkpt lat="40.795617" lon="-4.328517">
        <ele>1700.0</ele>
        <time>2014-06-30T15:43:14Z</time>
      </trkpt>
      <trkpt lat="40.795650" lon="-4.328400">
        <ele>1699.0</ele>
        <time>2014-06-30T15:43:15Z</time>
      </trkpt>
      <trkpt lat="40.795667" lon="-4.328300">
        <ele>1700.0</ele>
        <time>2014-06-30T15:43:16Z</time>
      </trkpt>
      <trkpt lat="40.795717" lon="-4.328217">
        <ele>1700.0</ele>
        <time>2014-06-30T15:43:17Z</time>
      </trkpt>
      <trkpt lat="40.795783" lon="-4.328133">
        <ele>1700.0</ele>
        <time>2014-06-30T15:43:18Z</time>
      </trkpt>
      <trkpt lat="40.795833" lon="-4.328050">
        <ele>1700.0</ele>
        <time>2014-06-30T15:43:19Z</time>
      </trkpt>
      <trkpt lat="40.795883" lon="-4.327983">
        <ele>1699.0</ele>
        <time>2014-06-30T15:43:20Z</time>
      </trkpt>
      <trkpt lat="40.795950" lon="-4.327917">
        <ele>1698.0</ele>
        <time>2014-06-30T15:43:21Z</time>
      </trkpt>
      <trkpt lat="40.795983" lon="-4.327833">
        <ele>1697.0</ele>
        <time>2014-06-30T15:43:22Z</time>
      </trkpt>
      <trkpt lat="40.796050" lon="-4.327733">
        <ele>1696.0</ele>
        <time>2014-06-30T15:43:23Z</time>
      </trkpt>
      <trkpt lat="40.796100" lon="-4.327617">
        <ele>1694.0</ele>
        <time>2014-06-30T15:43:24Z</time>
      </trkpt>
      <trkpt lat="40.796167" lon="-4.327517">
        <ele>1693.0</ele>
        <time>2014-06-30T15:43:25Z</time>
      </trkpt>
      <trkpt lat="40.796233" lon="-4.327433">
        <ele>1692.0</ele>
        <time>2014-06-30T15:43:26Z</time>
      </trkpt>
      <trkpt lat="40.796317" lon="-4.327333">
        <ele>1690.0</ele>
        <time>2014-06-30T15:43:27Z</time>
      </trkpt>
      <trkpt lat="40.796367" lon="-4.327250">
        <ele>1689.0</ele>
        <time>2014-06-30T15:43:28Z</time>
      </trkpt>
      <trkpt lat="40.796417" lon="-4.327150">
        <ele>1688.0</ele>
        <time>2014-06-30T15:43:29Z</time>
      </trkpt>
      <trkpt lat="40.796467" lon="-4.327050">
        <ele>1686.0</ele>
        <time>2014-06-30T15:43:30Z</time>
      </trkpt>
      <trkpt lat="40.796517" lon="-4.326950">
        <ele>1685.0</ele>
        <time>2014-06-30T15:43:31Z</time>
      </trkpt>
      <trkpt lat="40.796583" lon="-4.326867">
        <ele>1683.0</ele>
        <time>2014-06-30T15:43:32Z</time>
      </trkpt>
      <trkpt lat="40.796650" lon="-4.326767">
        <ele>1681.0</ele>
        <time>2014-06-30T15:43:33Z</time>
      </trkpt>
      <trkpt lat="40.796717" lon="-4.326667">
        <ele>1679.0</ele>
        <time>2014-06-30T15:43:34Z</time>
      </trkpt>
      <trkpt lat="40.796783" lon="-4.326583">
        <ele>1678.0</ele>
        <time>2014-06-30T15:43:35Z</time>
      </trkpt>
      <trkpt lat="40.796850" lon="-4.326500">
        <ele>1677.0</ele>
        <time>2014-06-30T15:43:36Z</time>
      </trkpt>
      <trkpt lat="40.796933" lon="-4.326417">
        <ele>1677.0</ele>
        <time>2014-06-30T15:43:37Z</time>
      </trkpt>
      <trkpt lat="40.797000" lon="-4.326350">
        <ele>1675.0</ele>
        <time>2014-06-30T15:43:38Z</time>
      </trkpt>
      <trkpt lat="40.797083" lon="-4.326267">
        <ele>1674.0</ele>
        <time>2014-06-30T15:43:39Z</time>
      </trkpt>
      <trkpt lat="40.797167" lon="-4.326183">
        <ele>1672.0</ele>
        <time>2014-06-30T15:43:40Z</time>
      </trkpt>
      <trkpt lat="40.797250" lon="-4.326100">
        <ele>1671.0</ele>
        <time>2014-06-30T15:43:41Z</time>
      </trkpt>
      <trkpt lat="40.797333" lon="-4.326017">
        <ele>1671.0</ele>
        <time>2014-06-30T15:43:42Z</time>
      </trkpt>
      <trkpt lat="40.797400" lon="-4.325933">
        <ele>1670.0</ele>
        <time>2014-06-30T15:43:43Z</time>
      </trkpt>
      <trkpt lat="40.797483" lon="-4.325850">
        <ele>1670.0</ele>
        <time>2014-06-30T15:43:44Z</time>
      </trkpt>
      <trkpt lat="40.797567" lon="-4.325767">
        <ele>1669.0</ele>
        <time>2014-06-30T15:43:45Z</time>
      </trkpt>
      <trkpt lat="40.797650" lon="-4.325683">
        <ele>1669.0</ele>
        <time>2014-06-30T15:43:46Z</time>
      </trkpt>
      <trkpt lat="40.797733" lon="-4.325600">
        <ele>1668.0</ele>
        <time>2014-06-30T15:43:47Z</time>
      </trkpt>
      <trkpt lat="40.797833" lon="-4.325533">
        <ele>1668.0</ele>
        <time>2014-06-30T15:43:48Z</time>
      </trkpt>
      <trkpt lat="40.797917" lon="-4.325467">
        <ele>1668.0</ele>
        <time>2014-06-30T15:43:49Z</time>
      </trkpt>
      <trkpt lat="40.798000" lon="-4.325400">
        <ele>1669.0</ele>
        <time>2014-06-30T15:43:50Z</time>
      </trkpt>
      <trkpt lat="40.798083" lon="-4.325333">
        <ele>1672.0</ele>
        <time>2014-06-30T15:43:51Z</time>
      </trkpt>
      <trkpt lat="40.798133" lon="-4.325300">
        <ele>1675.0</ele>
        <time>2014-06-30T15:43:52Z</time>
      </trkpt>
      <trkpt lat="40.798200" lon="-4.325250">
        <ele>1678.0</ele>
        <time>2014-06-30T15:43:53Z</time>
      </trkpt>
      <trkpt lat="40.798250" lon="-4.325217">
        <ele>1680.0</ele>
        <time>2014-06-30T15:43:54Z</time>
      </trkpt>
      <trkpt lat="40.798317" lon="-4.325167">
        <ele>1677.0</ele>
        <time>2014-06-30T15:43:55Z</time>
      </trkpt>
      <trkpt lat="40.798383" lon="-4.325117">
        <ele>1678.0</ele>
        <time>2014-06-30T15:43:56Z</time>
      </trkpt>
      <trkpt lat="40.798450" lon="-4.325100">
        <ele>1679.0</ele>
        <time>2014-06-30T15:43:57Z</time>
      </trkpt>
      <trkpt lat="40.798517" lon="-4.325117">
        <ele>1680.0</ele>
        <time>2014-06-30T15:43:58Z</time>
      </trkpt>
      <trkpt lat="40.798550" lon="-4.325133">
        <ele>1680.0</ele>
        <time>2014-06-30T15:43:59Z</time>
      </trkpt>
      <trkpt lat="40.798567" lon="-4.325183">
        <ele>1681.0</ele>
        <time>2014-06-30T15:44:00Z</time>
      </trkpt>
      <trkpt lat="40.798550" lon="-4.325217">
        <ele>1682.0</ele>
        <time>2014-06-30T15:44:01Z</time>
      </trkpt>
      <trkpt lat="40.798517" lon="-4.325217">
        <ele>1682.0</ele>
        <time>2014-06-30T15:44:02Z</time>
      </trkpt>
      <trkpt lat="40.798467" lon="-4.325217">
        <ele>1683.0</ele>
        <time>2014-06-30T15:44:03Z</time>
      </trkpt>
      <trkpt lat="40.798400" lon="-4.325183">
        <ele>1684.0</ele>
        <time>2014-06-30T15:44:04Z</time>
      </trkpt>
      <trkpt lat="40.798317" lon="-4.325150">
        <ele>1685.0</ele>
        <time>2014-06-30T15:44:05Z</time>
      </trkpt>
      <trkpt lat="40.798233" lon="-4.325083">
        <ele>1686.0</ele>
        <time>2014-06-30T15:44:06Z</time>
      </trkpt>
      <trkpt lat="40.798150" lon="-4.324983">
        <ele>1686.0</ele>
        <time>2014-06-30T15:44:07Z</time>
      </trkpt>
      <trkpt lat="40.798067" lon="-4.324850">
        <ele>1686.0</ele>
        <time>2014-06-30T15:44:08Z</time>
      </trkpt>
      <trkpt lat="40.798000" lon="-4.324700">
        <ele>1687.0</ele>
        <time>2014-06-30T15:44:09Z</time>
      </trkpt>
      <trkpt lat="40.797967" lon="-4.324550">
        <ele>1688.0</ele>
        <time>2014-06-30T15:44:10Z</time>
      </trkpt>
      <trkpt lat="40.797950" lon="-4.324400">
        <ele>1689.0</ele>
        <time>2014-06-30T15:44:11Z</time>
      </trkpt>
      <trkpt lat="40.797933" lon="-4.324233">
        <ele>1689.0</ele>
        <time>2014-06-30T15:44:12Z</time>
      </trkpt>
      <trkpt lat="40.797917" lon="-4.324083">
        <ele>1690.0</ele>
        <time>2014-06-30T15:44:13Z</time>
      </trkpt>
      <trkpt lat="40.797917" lon="-4.323917">
        <ele>1690.0</ele>
        <time>2014-06-30T15:44:14Z</time>
      </trkpt>
      <trkpt lat="40.797933" lon="-4.323750">
        <ele>1692.0</ele>
        <time>2014-06-30T15:44:15Z</time>
      </trkpt>
      <trkpt lat="40.797967" lon="-4.323617">
        <ele>1696.0</ele>
        <time>2014-06-30T15:44:16Z</time>
      </trkpt>
      <trkpt lat="40.798033" lon="-4.323500">
        <ele>1698.0</ele>
        <time>2014-06-30T15:44:17Z</time>
      </trkpt>
      <trkpt lat="40.798100" lon="-4.323400">
        <ele>1700.0</ele>
        <time>2014-06-30T15:44:18Z</time>
      </trkpt>
      <trkpt lat="40.798167" lon="-4.323317">
        <ele>1702.0</ele>
        <time>2014-06-30T15:44:19Z</time>
      </trkpt>
      <trkpt lat="40.798217" lon="-4.323250">
        <ele>1699.0</ele>
        <time>2014-06-30T15:44:20Z</time>
      </trkpt>
      <trkpt lat="40.798267" lon="-4.323200">
        <ele>1700.0</ele>
        <time>2014-06-30T15:44:21Z</time>
      </trkpt>
      <trkpt lat="40.798317" lon="-4.323167">
        <ele>1701.0</ele>
        <time>2014-06-30T15:44:22Z</time>
      </trkpt>
      <trkpt lat="40.798367" lon="-4.323167">
        <ele>1701.0</ele>
        <time>2014-06-30T15:44:23Z</time>
      </trkpt>
      <trkpt lat="40.798383" lon="-4.323200">
        <ele>1701.0</ele>
        <time>2014-06-30T15:44:24Z</time>
      </trkpt>
      <trkpt lat="40.798367" lon="-4.323233">
        <ele>1702.0</ele>
        <time>2014-06-30T15:44:25Z</time>
      </trkpt>
      <trkpt lat="40.798333" lon="-4.323250">
        <ele>1703.0</ele>
        <time>2014-06-30T15:44:26Z</time>
      </trkpt>
      <trkpt lat="40.798250" lon="-4.323233">
        <ele>1704.0</ele>
        <time>2014-06-30T15:44:27Z</time>
      </trkpt>
      <trkpt lat="40.798167" lon="-4.323150">
        <ele>1705.0</ele>
        <time>2014-06-30T15:44:28Z</time>
      </trkpt>
      <trkpt lat="40.798100" lon="-4.323017">
        <ele>1706.0</ele>
        <time>2014-06-30T15:44:29Z</time>
      </trkpt>
      <trkpt lat="40.798067" lon="-4.322833">
        <ele>1706.0</ele>
        <time>2014-06-30T15:44:30Z</time>
      </trkpt>
      <trkpt lat="40.798083" lon="-4.322633">
        <ele>1707.0</ele>
        <time>2014-06-30T15:44:31Z</time>
      </trkpt>
      <trkpt lat="40.798117" lon="-4.322483">
        <ele>1709.0</ele>
        <time>2014-06-30T15:44:32Z</time>
      </trkpt>
      <trkpt lat="40.798167" lon="-4.322333">
        <ele>1710.0</ele>
        <time>2014-06-30T15:44:33Z</time>
      </trkpt>
      <trkpt lat="40.798217" lon="-4.322217">
        <ele>1712.0</ele>
        <time>2014-06-30T15:44:34Z</time>
      </trkpt>
      <trkpt lat="40.798250" lon="-4.322117">
        <ele>1714.0</ele>
        <time>2014-06-30T15:44:35Z</time>
      </trkpt>
      <trkpt lat="40.798300" lon="-4.322017">
        <ele>1713.0</ele>
        <time>2014-06-30T15:44:36Z</time>
      </trkpt>
      <trkpt lat="40.798350" lon="-4.321950">
        <ele>1714.0</ele>
        <time>2014-06-30T15:44:37Z</time>
      </trkpt>
      <trkpt lat="40.798433" lon="-4.321917">
        <ele>1714.0</ele>
        <time>2014-06-30T15:44:38Z</time>
      </trkpt>
      <trkpt lat="40.798483" lon="-4.321900">
        <ele>1715.0</ele>
        <time>2014-06-30T15:44:39Z</time>
      </trkpt>
      <trkpt lat="40.798500" lon="-4.321917">
        <ele>1715.0</ele>
        <time>2014-06-30T15:44:40Z</time>
      </trkpt>
      <trkpt lat="40.798500" lon="-4.321933">
        <ele>1715.0</ele>
        <time>2014-06-30T15:44:41Z</time>
      </trkpt>
      <trkpt lat="40.798500" lon="-4.321933">
        <ele>1715.0</ele>
        <time>2014-06-30T15:44:42Z</time>
      </trkpt>
      <trkpt lat="40.798483" lon="-4.321933">
        <ele>1716.0</ele>
        <time>2014-06-30T15:44:43Z</time>
      </trkpt>
      <trkpt lat="40.798450" lon="-4.321950">
        <ele>1717.0</ele>
        <time>2014-06-30T15:44:44Z</time>
      </trkpt>
      <trkpt lat="40.798417" lon="-4.321967">
        <ele>1717.0</ele>
        <time>2014-06-30T15:44:45Z</time>
      </trkpt>
      <trkpt lat="40.798333" lon="-4.321950">
        <ele>1718.0</ele>
        <time>2014-06-30T15:44:46Z</time>
      </trkpt>
      <trkpt lat="40.798233" lon="-4.321883">
        <ele>1718.0</ele>
        <time>2014-06-30T15:44:47Z</time>
      </trkpt>
      <trkpt lat="40.798133" lon="-4.321733">
        <ele>1719.0</ele>
        <time>2014-06-30T15:44:48Z</time>
      </trkpt>
      <trkpt lat="40.798067" lon="-4.321567">
        <ele>1719.0</ele>
        <time>2014-06-30T15:44:49Z</time>
      </trkpt>
      <trkpt lat="40.798033" lon="-4.321367">
        <ele>1720.0</ele>
        <time>2014-06-30T15:44:50Z</time>
      </trkpt>
      <trkpt lat="40.798050" lon="-4.321183">
        <ele>1721.0</ele>
        <time>2014-06-30T15:44:51Z</time>
      </trkpt>
      <trkpt lat="40.798067" lon="-4.321017">
        <ele>1723.0</ele>
        <time>2014-06-30T15:44:52Z</time>
      </trkpt>
      <trkpt lat="40.798100" lon="-4.320867">
        <ele>1725.0</ele>
        <time>2014-06-30T15:44:53Z</time>
      </trkpt>
      <trkpt lat="40.798150" lon="-4.320733">
        <ele>1727.0</ele>
        <time>2014-06-30T15:44:54Z</time>
      </trkpt>
      <trkpt lat="40.798200" lon="-4.320600">
        <ele>1728.0</ele>
        <time>2014-06-30T15:44:55Z</time>
      </trkpt>
      <trkpt lat="40.798250" lon="-4.320483">
        <ele>1730.0</ele>
        <time>2014-06-30T15:44:56Z</time>
      </trkpt>
      <trkpt lat="40.798300" lon="-4.320367">
        <ele>1732.0</ele>
        <time>2014-06-30T15:44:57Z</time>
      </trkpt>
      <trkpt lat="40.798350" lon="-4.320267">
        <ele>1733.0</ele>
        <time>2014-06-30T15:44:58Z</time>
      </trkpt>
      <trkpt lat="40.798417" lon="-4.320200">
        <ele>1730.0</ele>
        <time>2014-06-30T15:44:59Z</time>
      </trkpt>
      <trkpt lat="40.798467" lon="-4.320133">
        <ele>1731.0</ele>
        <time>2014-06-30T15:45:00Z</time>
      </trkpt>
      <trkpt lat="40.798533" lon="-4.320100">
        <ele>1732.0</ele>
        <time>2014-06-30T15:45:01Z</time>
      </trkpt>
      <trkpt lat="40.798567" lon="-4.320100">
        <ele>1732.0</ele>
        <time>2014-06-30T15:45:02Z</time>
      </trkpt>
      <trkpt lat="40.798600" lon="-4.320133">
        <ele>1732.0</ele>
        <time>2014-06-30T15:45:03Z</time>
      </trkpt>
      <trkpt lat="40.798600" lon="-4.320183">
        <ele>1732.0</ele>
        <time>2014-06-30T15:45:04Z</time>
      </trkpt>
      <trkpt lat="40.798600" lon="-4.320217">
        <ele>1732.0</ele>
        <time>2014-06-30T15:45:05Z</time>
      </trkpt>
      <trkpt lat="40.798567" lon="-4.320233">
        <ele>1733.0</ele>
        <time>2014-06-30T15:45:06Z</time>
      </trkpt>
      <trkpt lat="40.798533" lon="-4.320217">
        <ele>1733.0</ele>
        <time>2014-06-30T15:45:07Z</time>
      </trkpt>
      <trkpt lat="40.798500" lon="-4.320217">
        <ele>1734.0</ele>
        <time>2014-06-30T15:45:08Z</time>
      </trkpt>
      <trkpt lat="40.798450" lon="-4.320200">
        <ele>1734.0</ele>
        <time>2014-06-30T15:45:09Z</time>
      </trkpt>
      <trkpt lat="40.798383" lon="-4.320183">
        <ele>1735.0</ele>
        <time>2014-06-30T15:45:10Z</time>
      </trkpt>
      <trkpt lat="40.798300" lon="-4.320133">
        <ele>1735.0</ele>
        <time>2014-06-30T15:45:11Z</time>
      </trkpt>
      <trkpt lat="40.798217" lon="-4.320050">
        <ele>1736.0</ele>
        <time>2014-06-30T15:45:12Z</time>
      </trkpt>
      <trkpt lat="40.798150" lon="-4.319900">
        <ele>1736.0</ele>
        <time>2014-06-30T15:45:13Z</time>
      </trkpt>
      <trkpt lat="40.798100" lon="-4.319733">
        <ele>1736.0</ele>
        <time>2014-06-30T15:45:14Z</time>
      </trkpt>
      <trkpt lat="40.798067" lon="-4.319533">
        <ele>1736.0</ele>
        <time>2014-06-30T15:45:15Z</time>
      </trkpt>
      <trkpt lat="40.798067" lon="-4.319333">
        <ele>1736.0</ele>
        <time>2014-06-30T15:45:16Z</time>
      </trkpt>
      <trkpt lat="40.798100" lon="-4.319150">
        <ele>1737.0</ele>
        <time>2014-06-30T15:45:17Z</time>
      </trkpt>
      <trkpt lat="40.798133" lon="-4.318983">
        <ele>1738.0</ele>
        <time>2014-06-30T15:45:18Z</time>
      </trkpt>
      <trkpt lat="40.798167" lon="-4.318850">
        <ele>1739.0</ele>
        <time>2014-06-30T15:45:19Z</time>
      </trkpt>
      <trkpt lat="40.798217" lon="-4.318700">
        <ele>1740.0</ele>
        <time>2014-06-30T15:45:20Z</time>
      </trkpt>
      <trkpt lat="40.798267" lon="-4.318567">
        <ele>1741.0</ele>
        <time>2014-06-30T15:45:21Z</time>
      </trkpt>
      <trkpt lat="40.798333" lon="-4.318467">
        <ele>1743.0</ele>
        <time>2014-06-30T15:45:22Z</time>
      </trkpt>
      <trkpt lat="40.798400" lon="-4.318367">
        <ele>1744.0</ele>
        <time>2014-06-30T15:45:23Z</time>
      </trkpt>
      <trkpt lat="40.798483" lon="-4.318300">
        <ele>1745.0</ele>
        <time>2014-06-30T15:45:24Z</time>
      </trkpt>
      <trkpt lat="40.798533" lon="-4.318267">
        <ele>1749.0</ele>
        <time>2014-06-30T15:45:25Z</time>
      </trkpt>
      <trkpt lat="40.798583" lon="-4.318217">
        <ele>1751.0</ele>
        <time>2014-06-30T15:45:26Z</time>
      </trkpt>
      <trkpt lat="40.798650" lon="-4.318183">
        <ele>1753.0</ele>
        <time>2014-06-30T15:45:27Z</time>
      </trkpt>
      <trkpt lat="40.798700" lon="-4.318150">
        <ele>1747.0</ele>
        <time>2014-06-30T15:45:28Z</time>
      </trkpt>
      <trkpt lat="40.798733" lon="-4.318150">
        <ele>1747.0</ele>
        <time>2014-06-30T15:45:29Z</time>
      </trkpt>
      <trkpt lat="40.798733" lon="-4.318200">
        <ele>1748.0</ele>
        <time>2014-06-30T15:45:30Z</time>
      </trkpt>
      <trkpt lat="40.798700" lon="-4.318233">
        <ele>1748.0</ele>
        <time>2014-06-30T15:45:31Z</time>
      </trkpt>
      <trkpt lat="40.798633" lon="-4.318233">
        <ele>1749.0</ele>
        <time>2014-06-30T15:45:32Z</time>
      </trkpt>
      <trkpt lat="40.798550" lon="-4.318183">
        <ele>1750.0</ele>
        <time>2014-06-30T15:45:33Z</time>
      </trkpt>
      <trkpt lat="40.798483" lon="-4.318083">
        <ele>1751.0</ele>
        <time>2014-06-30T15:45:34Z</time>
      </trkpt>
      <trkpt lat="40.798417" lon="-4.317933">
        <ele>1752.0</ele>
        <time>2014-06-30T15:45:35Z</time>
      </trkpt>
      <trkpt lat="40.798367" lon="-4.317783">
        <ele>1753.0</ele>
        <time>2014-06-30T15:45:36Z</time>
      </trkpt>
      <trkpt lat="40.798333" lon="-4.317617">
        <ele>1754.0</ele>
        <time>2014-06-30T15:45:37Z</time>
      </trkpt>
      <trkpt lat="40.798317" lon="-4.317467">
        <ele>1756.0</ele>
        <time>2014-06-30T15:45:38Z</time>
      </trkpt>
      <trkpt lat="40.798317" lon="-4.317300">
        <ele>1757.0</ele>
        <time>2014-06-30T15:45:39Z</time>
      </trkpt>
      <trkpt lat="40.798317" lon="-4.317150">
        <ele>1759.0</ele>
        <time>2014-06-30T15:45:40Z</time>
      </trkpt>
      <trkpt lat="40.798350" lon="-4.317000">
        <ele>1761.0</ele>
        <time>2014-06-30T15:45:41Z</time>
      </trkpt>
      <trkpt lat="40.798400" lon="-4.316867">
        <ele>1762.0</ele>
        <time>2014-06-30T15:45:42Z</time>
      </trkpt>
      <trkpt lat="40.798467" lon="-4.316750">
        <ele>1764.0</ele>
        <time>2014-06-30T15:45:43Z</time>
      </trkpt>
      <trkpt lat="40.798533" lon="-4.316667">
        <ele>1766.0</ele>
        <time>2014-06-30T15:45:44Z</time>
      </trkpt>
      <trkpt lat="40.798600" lon="-4.316583">
        <ele>1769.0</ele>
        <time>2014-06-30T15:45:45Z</time>
      </trkpt>
      <trkpt lat="40.798667" lon="-4.316533">
        <ele>1772.0</ele>
        <time>2014-06-30T15:45:46Z</time>
      </trkpt>
      <trkpt lat="40.798717" lon="-4.316483">
        <ele>1774.0</ele>
        <time>2014-06-30T15:45:47Z</time>
      </trkpt>
      <trkpt lat="40.798783" lon="-4.316433">
        <ele>1775.0</ele>
        <time>2014-06-30T15:45:48Z</time>
      </trkpt>
      <trkpt lat="40.798867" lon="-4.316417">
        <ele>1776.0</ele>
        <time>2014-06-30T15:45:49Z</time>
      </trkpt>
      <trkpt lat="40.798933" lon="-4.316417">
        <ele>1778.0</ele>
        <time>2014-06-30T15:45:50Z</time>
      </trkpt>
      <trkpt lat="40.798967" lon="-4.316433">
        <ele>1779.0</ele>
        <time>2014-06-30T15:45:51Z</time>
      </trkpt>
      <trkpt lat="40.798983" lon="-4.316450">
        <ele>1781.0</ele>
        <time>2014-06-30T15:45:52Z</time>
      </trkpt>
      <trkpt lat="40.798983" lon="-4.316467">
        <ele>1782.0</ele>
        <time>2014-06-30T15:45:53Z</time>
      </trkpt>
      <trkpt lat="40.798950" lon="-4.316483">
        <ele>1783.0</ele>
        <time>2014-06-30T15:45:54Z</time>
      </trkpt>
      <trkpt lat="40.798900" lon="-4.316483">
        <ele>1784.0</ele>
        <time>2014-06-30T15:45:55Z</time>
      </trkpt>
      <trkpt lat="40.798850" lon="-4.316467">
        <ele>1786.0</ele>
        <time>2014-06-30T15:45:56Z</time>
      </trkpt>
      <trkpt lat="40.798800" lon="-4.316450">
        <ele>1787.0</ele>
        <time>2014-06-30T15:45:57Z</time>
      </trkpt>
      <trkpt lat="40.798733" lon="-4.316417">
        <ele>1787.0</ele>
        <time>2014-06-30T15:45:58Z</time>
      </trkpt>
      <trkpt lat="40.798650" lon="-4.316367">
        <ele>1787.0</ele>
        <time>2014-06-30T15:45:59Z</time>
      </trkpt>
      <trkpt lat="40.798567" lon="-4.316300">
        <ele>1788.0</ele>
        <time>2014-06-30T15:46:00Z</time>
      </trkpt>
      <trkpt lat="40.798483" lon="-4.316200">
        <ele>1788.0</ele>
        <time>2014-06-30T15:46:01Z</time>
      </trkpt>
      <trkpt lat="40.798417" lon="-4.316067">
        <ele>1788.0</ele>
        <time>2014-06-30T15:46:02Z</time>
      </trkpt>
      <trkpt lat="40.798367" lon="-4.315917">
        <ele>1788.0</ele>
        <time>2014-06-30T15:46:03Z</time>
      </trkpt>
      <trkpt lat="40.798317" lon="-4.315733">
        <ele>1788.0</ele>
        <time>2014-06-30T15:46:04Z</time>
      </trkpt>
      <trkpt lat="40.798300" lon="-4.315550">
        <ele>1788.0</ele>
        <time>2014-06-30T15:46:05Z</time>
      </trkpt>
      <trkpt lat="40.798283" lon="-4.315383">
        <ele>1789.0</ele>
        <time>2014-06-30T15:46:06Z</time>
      </trkpt>
      <trkpt lat="40.798283" lon="-4.315217">
        <ele>1789.0</ele>
        <time>2014-06-30T15:46:07Z</time>
      </trkpt>
      <trkpt lat="40.798300" lon="-4.315050">
        <ele>1790.0</ele>
        <time>2014-06-30T15:46:08Z</time>
      </trkpt>
      <trkpt lat="40.798333" lon="-4.314883">
        <ele>1790.0</ele>
        <time>2014-06-30T15:46:09Z</time>
      </trkpt>
      <trkpt lat="40.798367" lon="-4.314717">
        <ele>1791.0</ele>
        <time>2014-06-30T15:46:10Z</time>
      </trkpt>
      <trkpt lat="40.798417" lon="-4.314583">
        <ele>1792.0</ele>
        <time>2014-06-30T15:46:11Z</time>
      </trkpt>
      <trkpt lat="40.798483" lon="-4.314433">
        <ele>1794.0</ele>
        <time>2014-06-30T15:46:12Z</time>
      </trkpt>
      <trkpt lat="40.798533" lon="-4.314317">
        <ele>1795.0</ele>
        <time>2014-06-30T15:46:13Z</time>
      </trkpt>
      <trkpt lat="40.798617" lon="-4.314200">
        <ele>1796.0</ele>
        <time>2014-06-30T15:46:14Z</time>
      </trkpt>
      <trkpt lat="40.798700" lon="-4.314117">
        <ele>1796.0</ele>
        <time>2014-06-30T15:46:15Z</time>
      </trkpt>
      <trkpt lat="40.798767" lon="-4.314050">
        <ele>1797.0</ele>
        <time>2014-06-30T15:46:16Z</time>
      </trkpt>
      <trkpt lat="40.798833" lon="-4.314017">
        <ele>1798.0</ele>
        <time>2014-06-30T15:46:17Z</time>
      </trkpt>
      <trkpt lat="40.798867" lon="-4.314000">
        <ele>1795.0</ele>
        <time>2014-06-30T15:46:18Z</time>
      </trkpt>
      <trkpt lat="40.798883" lon="-4.314017">
        <ele>1795.0</ele>
        <time>2014-06-30T15:46:19Z</time>
      </trkpt>
      <trkpt lat="40.798900" lon="-4.314033">
        <ele>1795.0</ele>
        <time>2014-06-30T15:46:20Z</time>
      </trkpt>
      <trkpt lat="40.798883" lon="-4.314050">
        <ele>1795.0</ele>
        <time>2014-06-30T15:46:21Z</time>
      </trkpt>
      <trkpt lat="40.798867" lon="-4.314067">
        <ele>1795.0</ele>
        <time>2014-06-30T15:46:22Z</time>
      </trkpt>
      <trkpt lat="40.798817" lon="-4.314067">
        <ele>1795.0</ele>
        <time>2014-06-30T15:46:23Z</time>
      </trkpt>
      <trkpt lat="40.798750" lon="-4.314050">
        <ele>1795.0</ele>
        <time>2014-06-30T15:46:24Z</time>
      </trkpt>
      <trkpt lat="40.798667" lon="-4.313983">
        <ele>1795.0</ele>
        <time>2014-06-30T15:46:25Z</time>
      </trkpt>
      <trkpt lat="40.798567" lon="-4.313883">
        <ele>1794.0</ele>
        <time>2014-06-30T15:46:26Z</time>
      </trkpt>
      <trkpt lat="40.798500" lon="-4.313733">
        <ele>1794.0</ele>
        <time>2014-06-30T15:46:27Z</time>
      </trkpt>
      <trkpt lat="40.798467" lon="-4.313567">
        <ele>1795.0</ele>
        <time>2014-06-30T15:46:28Z</time>
      </trkpt>
      <trkpt lat="40.798467" lon="-4.313367">
        <ele>1795.0</ele>
        <time>2014-06-30T15:46:29Z</time>
      </trkpt>
      <trkpt lat="40.798467" lon="-4.313183">
        <ele>1795.0</ele>
        <time>2014-06-30T15:46:30Z</time>
      </trkpt>
      <trkpt lat="40.798500" lon="-4.313017">
        <ele>1796.0</ele>
        <time>2014-06-30T15:46:31Z</time>
      </trkpt>
      <trkpt lat="40.798500" lon="-4.312850">
        <ele>1796.0</ele>
        <time>2014-06-30T15:46:32Z</time>
      </trkpt>
      <trkpt lat="40.798517" lon="-4.312717">
        <ele>1798.0</ele>
        <time>2014-06-30T15:46:33Z</time>
      </trkpt>
      <trkpt lat="40.798550" lon="-4.312583">
        <ele>1798.0</ele>
        <time>2014-06-30T15:46:34Z</time>
      </trkpt>
      <trkpt lat="40.798600" lon="-4.312450">
        <ele>1798.0</ele>
        <time>2014-06-30T15:46:35Z</time>
      </trkpt>
      <trkpt lat="40.798667" lon="-4.312333">
        <ele>1798.0</ele>
        <time>2014-06-30T15:46:36Z</time>
      </trkpt>
      <trkpt lat="40.798767" lon="-4.312233">
        <ele>1798.0</ele>
        <time>2014-06-30T15:46:37Z</time>
      </trkpt>
      <trkpt lat="40.798850" lon="-4.312183">
        <ele>1798.0</ele>
        <time>2014-06-30T15:46:38Z</time>
      </trkpt>
      <trkpt lat="40.798917" lon="-4.312150">
        <ele>1797.0</ele>
        <time>2014-06-30T15:46:39Z</time>
      </trkpt>
      <trkpt lat="40.798983" lon="-4.312150">
        <ele>1798.0</ele>
        <time>2014-06-30T15:46:40Z</time>
      </trkpt>
      <trkpt lat="40.799033" lon="-4.312117">
        <ele>1799.0</ele>
        <time>2014-06-30T15:46:41Z</time>
      </trkpt>
      <trkpt lat="40.799100" lon="-4.312083">
        <ele>1799.0</ele>
        <time>2014-06-30T15:46:42Z</time>
      </trkpt>
      <trkpt lat="40.799150" lon="-4.312050">
        <ele>1798.0</ele>
        <time>2014-06-30T15:46:43Z</time>
      </trkpt>
      <trkpt lat="40.799183" lon="-4.312033">
        <ele>1797.0</ele>
        <time>2014-06-30T15:46:44Z</time>
      </trkpt>
      <trkpt lat="40.799233" lon="-4.312033">
        <ele>1797.0</ele>
        <time>2014-06-30T15:46:45Z</time>
      </trkpt>
      <trkpt lat="40.799267" lon="-4.312067">
        <ele>1797.0</ele>
        <time>2014-06-30T15:46:46Z</time>
      </trkpt>
      <trkpt lat="40.799267" lon="-4.312083">
        <ele>1797.0</ele>
        <time>2014-06-30T15:46:47Z</time>
      </trkpt>
      <trkpt lat="40.799300" lon="-4.312100">
        <ele>1796.0</ele>
        <time>2014-06-30T15:46:48Z</time>
      </trkpt>
      <trkpt lat="40.799333" lon="-4.312117">
        <ele>1796.0</ele>
        <time>2014-06-30T15:46:49Z</time>
      </trkpt>
      <trkpt lat="40.799383" lon="-4.312117">
        <ele>1796.0</ele>
        <time>2014-06-30T15:46:50Z</time>
      </trkpt>
      <trkpt lat="40.799433" lon="-4.312100">
        <ele>1796.0</ele>
        <time>2014-06-30T15:46:51Z</time>
      </trkpt>
      <trkpt lat="40.799483" lon="-4.312100">
        <ele>1796.0</ele>
        <time>2014-06-30T15:46:52Z</time>
      </trkpt>
      <trkpt lat="40.799533" lon="-4.312100">
        <ele>1796.0</ele>
        <time>2014-06-30T15:46:53Z</time>
      </trkpt>
      <trkpt lat="40.799567" lon="-4.312100">
        <ele>1795.0</ele>
        <time>2014-06-30T15:46:54Z</time>
      </trkpt>
      <trkpt lat="40.799600" lon="-4.312117">
        <ele>1795.0</ele>
        <time>2014-06-30T15:46:55Z</time>
      </trkpt>
      <trkpt lat="40.799633" lon="-4.312133">
        <ele>1795.0</ele>
        <time>2014-06-30T15:46:56Z</time>
      </trkpt>
      <trkpt lat="40.799683" lon="-4.312150">
        <ele>1795.0</ele>
        <time>2014-06-30T15:46:57Z</time>
      </trkpt>
      <trkpt lat="40.799717" lon="-4.312167">
        <ele>1794.0</ele>
        <time>2014-06-30T15:46:58Z</time>
      </trkpt>
      <trkpt lat="40.799767" lon="-4.312167">
        <ele>1793.0</ele>
        <time>2014-06-30T15:46:59Z</time>
      </trkpt>
      <trkpt lat="40.799833" lon="-4.312167">
        <ele>1793.0</ele>
        <time>2014-06-30T15:47:00Z</time>
      </trkpt>
      <trkpt lat="40.799883" lon="-4.312167">
        <ele>1792.0</ele>
        <time>2014-06-30T15:47:01Z</time>
      </trkpt>
      <trkpt lat="40.799950" lon="-4.312150">
        <ele>1791.0</ele>
        <time>2014-06-30T15:47:02Z</time>
      </trkpt>
      <trkpt lat="40.800033" lon="-4.312150">
        <ele>1790.0</ele>
        <time>2014-06-30T15:47:03Z</time>
      </trkpt>
      <trkpt lat="40.800100" lon="-4.312133">
        <ele>1790.0</ele>
        <time>2014-06-30T15:47:04Z</time>
      </trkpt>
      <trkpt lat="40.800167" lon="-4.312117">
        <ele>1790.0</ele>
        <time>2014-06-30T15:47:05Z</time>
      </trkpt>
      <trkpt lat="40.800233" lon="-4.312100">
        <ele>1789.0</ele>
        <time>2014-06-30T15:47:06Z</time>
      </trkpt>
      <trkpt lat="40.800317" lon="-4.312083">
        <ele>1788.0</ele>
        <time>2014-06-30T15:47:07Z</time>
      </trkpt>
      <trkpt lat="40.800400" lon="-4.312067">
        <ele>1788.0</ele>
        <time>2014-06-30T15:47:08Z</time>
      </trkpt>
      <trkpt lat="40.800483" lon="-4.312017">
        <ele>1787.0</ele>
        <time>2014-06-30T15:47:09Z</time>
      </trkpt>
      <trkpt lat="40.800567" lon="-4.311967">
        <ele>1786.0</ele>
        <time>2014-06-30T15:47:10Z</time>
      </trkpt>
      <trkpt lat="40.800650" lon="-4.311917">
        <ele>1786.0</ele>
        <time>2014-06-30T15:47:11Z</time>
      </trkpt>
      <trkpt lat="40.800717" lon="-4.311867">
        <ele>1786.0</ele>
        <time>2014-06-30T15:47:12Z</time>
      </trkpt>
      <trkpt lat="40.800783" lon="-4.311833">
        <ele>1786.0</ele>
        <time>2014-06-30T15:47:13Z</time>
      </trkpt>
      <trkpt lat="40.800850" lon="-4.311783">
        <ele>1785.0</ele>
        <time>2014-06-30T15:47:14Z</time>
      </trkpt>
      <trkpt lat="40.800933" lon="-4.311750">
        <ele>1785.0</ele>
        <time>2014-06-30T15:47:15Z</time>
      </trkpt>
      <trkpt lat="40.801000" lon="-4.311700">
        <ele>1784.0</ele>
        <time>2014-06-30T15:47:16Z</time>
      </trkpt>
      <trkpt lat="40.801083" lon="-4.311650">
        <ele>1783.0</ele>
        <time>2014-06-30T15:47:17Z</time>
      </trkpt>
      <trkpt lat="40.801150" lon="-4.311600">
        <ele>1782.0</ele>
        <time>2014-06-30T15:47:18Z</time>
      </trkpt>
      <trkpt lat="40.801200" lon="-4.311550">
        <ele>1781.0</ele>
        <time>2014-06-30T15:47:19Z</time>
      </trkpt>
      <trkpt lat="40.801250" lon="-4.311483">
        <ele>1780.0</ele>
        <time>2014-06-30T15:47:20Z</time>
      </trkpt>
      <trkpt lat="40.801333" lon="-4.311417">
        <ele>1779.0</ele>
        <time>2014-06-30T15:47:21Z</time>
      </trkpt>
      <trkpt lat="40.801400" lon="-4.311333">
        <ele>1777.0</ele>
        <time>2014-06-30T15:47:22Z</time>
      </trkpt>
      <trkpt lat="40.801483" lon="-4.311250">
        <ele>1776.0</ele>
        <time>2014-06-30T15:47:23Z</time>
      </trkpt>
      <trkpt lat="40.801567" lon="-4.311183">
        <ele>1774.0</ele>
        <time>2014-06-30T15:47:24Z</time>
      </trkpt>
      <trkpt lat="40.801633" lon="-4.311100">
        <ele>1773.0</ele>
        <time>2014-06-30T15:47:25Z</time>
      </trkpt>
      <trkpt lat="40.801717" lon="-4.311050">
        <ele>1771.0</ele>
        <time>2014-06-30T15:47:26Z</time>
      </trkpt>
      <trkpt lat="40.801783" lon="-4.310983">
        <ele>1770.0</ele>
        <time>2014-06-30T15:47:27Z</time>
      </trkpt>
      <trkpt lat="40.801833" lon="-4.310917">
        <ele>1772.0</ele>
        <time>2014-06-30T15:47:28Z</time>
      </trkpt>
      <trkpt lat="40.801900" lon="-4.310833">
        <ele>1772.0</ele>
        <time>2014-06-30T15:47:29Z</time>
      </trkpt>
      <trkpt lat="40.801967" lon="-4.310767">
        <ele>1772.0</ele>
        <time>2014-06-30T15:47:30Z</time>
      </trkpt>
      <trkpt lat="40.802033" lon="-4.310700">
        <ele>1771.0</ele>
        <time>2014-06-30T15:47:31Z</time>
      </trkpt>
      <trkpt lat="40.802100" lon="-4.310650">
        <ele>1771.0</ele>
        <time>2014-06-30T15:47:32Z</time>
      </trkpt>
      <trkpt lat="40.802167" lon="-4.310600">
        <ele>1770.0</ele>
        <time>2014-06-30T15:47:33Z</time>
      </trkpt>
      <trkpt lat="40.802233" lon="-4.310550">
        <ele>1769.0</ele>
        <time>2014-06-30T15:47:34Z</time>
      </trkpt>
      <trkpt lat="40.802300" lon="-4.310500">
        <ele>1769.0</ele>
        <time>2014-06-30T15:47:35Z</time>
      </trkpt>
      <trkpt lat="40.802383" lon="-4.310450">
        <ele>1768.0</ele>
        <time>2014-06-30T15:47:36Z</time>
      </trkpt>
      <trkpt lat="40.802467" lon="-4.310383">
        <ele>1768.0</ele>
        <time>2014-06-30T15:47:37Z</time>
      </trkpt>
      <trkpt lat="40.802550" lon="-4.310300">
        <ele>1767.0</ele>
        <time>2014-06-30T15:47:38Z</time>
      </trkpt>
      <trkpt lat="40.802617" lon="-4.310233">
        <ele>1766.0</ele>
        <time>2014-06-30T15:47:39Z</time>
      </trkpt>
      <trkpt lat="40.802700" lon="-4.310150">
        <ele>1766.0</ele>
        <time>2014-06-30T15:47:40Z</time>
      </trkpt>
      <trkpt lat="40.802767" lon="-4.310067">
        <ele>1765.0</ele>
        <time>2014-06-30T15:47:41Z</time>
      </trkpt>
      <trkpt lat="40.802850" lon="-4.310000">
        <ele>1764.0</ele>
        <time>2014-06-30T15:47:42Z</time>
      </trkpt>
      <trkpt lat="40.802933" lon="-4.309917">
        <ele>1764.0</ele>
        <time>2014-06-30T15:47:43Z</time>
      </trkpt>
      <trkpt lat="40.803033" lon="-4.309833">
        <ele>1762.0</ele>
        <time>2014-06-30T15:47:44Z</time>
      </trkpt>
      <trkpt lat="40.803100" lon="-4.309767">
        <ele>1761.0</ele>
        <time>2014-06-30T15:47:45Z</time>
      </trkpt>
      <trkpt lat="40.803167" lon="-4.309700">
        <ele>1760.0</ele>
        <time>2014-06-30T15:47:46Z</time>
      </trkpt>
      <trkpt lat="40.803250" lon="-4.309633">
        <ele>1761.0</ele>
        <time>2014-06-30T15:47:47Z</time>
      </trkpt>
      <trkpt lat="40.803317" lon="-4.309567">
        <ele>1761.0</ele>
        <time>2014-06-30T15:47:48Z</time>
      </trkpt>
      <trkpt lat="40.803383" lon="-4.309467">
        <ele>1760.0</ele>
        <time>2014-06-30T15:47:49Z</time>
      </trkpt>
      <trkpt lat="40.803467" lon="-4.309367">
        <ele>1759.0</ele>
        <time>2014-06-30T15:47:50Z</time>
      </trkpt>
      <trkpt lat="40.803533" lon="-4.309267">
        <ele>1758.0</ele>
        <time>2014-06-30T15:47:51Z</time>
      </trkpt>
      <trkpt lat="40.803617" lon="-4.309167">
        <ele>1757.0</ele>
        <time>2014-06-30T15:47:52Z</time>
      </trkpt>
      <trkpt lat="40.803683" lon="-4.309067">
        <ele>1757.0</ele>
        <time>2014-06-30T15:47:53Z</time>
      </trkpt>
      <trkpt lat="40.803767" lon="-4.308967">
        <ele>1756.0</ele>
        <time>2014-06-30T15:47:54Z</time>
      </trkpt>
      <trkpt lat="40.803867" lon="-4.308883">
        <ele>1756.0</ele>
        <time>2014-06-30T15:47:55Z</time>
      </trkpt>
      <trkpt lat="40.803950" lon="-4.308800">
        <ele>1756.0</ele>
        <time>2014-06-30T15:47:56Z</time>
      </trkpt>
      <trkpt lat="40.804050" lon="-4.308717">
        <ele>1755.0</ele>
        <time>2014-06-30T15:47:57Z</time>
      </trkpt>
      <trkpt lat="40.804133" lon="-4.308617">
        <ele>1753.0</ele>
        <time>2014-06-30T15:47:58Z</time>
      </trkpt>
      <trkpt lat="40.804233" lon="-4.308533">
        <ele>1751.0</ele>
        <time>2014-06-30T15:47:59Z</time>
      </trkpt>
      <trkpt lat="40.804317" lon="-4.308433">
        <ele>1749.0</ele>
        <time>2014-06-30T15:48:00Z</time>
      </trkpt>
      <trkpt lat="40.804400" lon="-4.308333">
        <ele>1747.0</ele>
        <time>2014-06-30T15:48:01Z</time>
      </trkpt>
      <trkpt lat="40.804483" lon="-4.308233">
        <ele>1745.0</ele>
        <time>2014-06-30T15:48:02Z</time>
      </trkpt>
      <trkpt lat="40.804567" lon="-4.308133">
        <ele>1743.0</ele>
        <time>2014-06-30T15:48:03Z</time>
      </trkpt>
      <trkpt lat="40.804667" lon="-4.308033">
        <ele>1740.0</ele>
        <time>2014-06-30T15:48:04Z</time>
      </trkpt>
      <trkpt lat="40.804767" lon="-4.307933">
        <ele>1737.0</ele>
        <time>2014-06-30T15:48:05Z</time>
      </trkpt>
      <trkpt lat="40.804850" lon="-4.307817">
        <ele>1733.0</ele>
        <time>2014-06-30T15:48:06Z</time>
      </trkpt>
      <trkpt lat="40.804933" lon="-4.307700">
        <ele>1731.0</ele>
        <time>2014-06-30T15:48:07Z</time>
      </trkpt>
      <trkpt lat="40.805017" lon="-4.307600">
        <ele>1728.0</ele>
        <time>2014-06-30T15:48:08Z</time>
      </trkpt>
      <trkpt lat="40.805133" lon="-4.307533">
        <ele>1724.0</ele>
        <time>2014-06-30T15:48:09Z</time>
      </trkpt>
      <trkpt lat="40.805250" lon="-4.307467">
        <ele>1718.0</ele>
        <time>2014-06-30T15:48:10Z</time>
      </trkpt>
      <trkpt lat="40.805367" lon="-4.307383">
        <ele>1712.0</ele>
        <time>2014-06-30T15:48:11Z</time>
      </trkpt>
      <trkpt lat="40.805450" lon="-4.307300">
        <ele>1706.0</ele>
        <time>2014-06-30T15:48:12Z</time>
      </trkpt>
      <trkpt lat="40.805550" lon="-4.307217">
        <ele>1701.0</ele>
        <time>2014-06-30T15:48:13Z</time>
      </trkpt>
      <trkpt lat="40.805617" lon="-4.307150">
        <ele>1696.0</ele>
        <time>2014-06-30T15:48:14Z</time>
      </trkpt>
      <trkpt lat="40.805700" lon="-4.307083">
        <ele>1691.0</ele>
        <time>2014-06-30T15:48:15Z</time>
      </trkpt>
      <trkpt lat="40.805800" lon="-4.307000">
        <ele>1687.0</ele>
        <time>2014-06-30T15:48:16Z</time>
      </trkpt>
      <trkpt lat="40.805933" lon="-4.306900">
        <ele>1682.0</ele>
        <time>2014-06-30T15:48:17Z</time>
      </trkpt>
      <trkpt lat="40.806050" lon="-4.306783">
        <ele>1677.0</ele>
        <time>2014-06-30T15:48:18Z</time>
      </trkpt>
      <trkpt lat="40.806133" lon="-4.306667">
        <ele>1672.0</ele>
        <time>2014-06-30T15:48:19Z</time>
      </trkpt>
      <trkpt lat="40.806233" lon="-4.306550">
        <ele>1669.0</ele>
        <time>2014-06-30T15:48:20Z</time>
      </trkpt>
      <trkpt lat="40.806317" lon="-4.306450">
        <ele>1666.0</ele>
        <time>2014-06-30T15:48:21Z</time>
      </trkpt>
      <trkpt lat="40.806400" lon="-4.306333">
        <ele>1662.0</ele>
        <time>2014-06-30T15:48:22Z</time>
      </trkpt>
      <trkpt lat="40.806500" lon="-4.306233">
        <ele>1658.0</ele>
        <time>2014-06-30T15:48:23Z</time>
      </trkpt>
      <trkpt lat="40.806617" lon="-4.306117">
        <ele>1653.0</ele>
        <time>2014-06-30T15:48:24Z</time>
      </trkpt>
      <trkpt lat="40.806717" lon="-4.306017">
        <ele>1650.0</ele>
        <time>2014-06-30T15:48:25Z</time>
      </trkpt>
      <trkpt lat="40.806817" lon="-4.305900">
        <ele>1646.0</ele>
        <time>2014-06-30T15:48:26Z</time>
      </trkpt>
      <trkpt lat="40.806917" lon="-4.305783">
        <ele>1644.0</ele>
        <time>2014-06-30T15:48:27Z</time>
      </trkpt>
      <trkpt lat="40.807000" lon="-4.305667">
        <ele>1641.0</ele>
        <time>2014-06-30T15:48:28Z</time>
      </trkpt>
      <trkpt lat="40.807083" lon="-4.305550">
        <ele>1638.0</ele>
        <time>2014-06-30T15:48:29Z</time>
      </trkpt>
      <trkpt lat="40.807167" lon="-4.305433">
        <ele>1635.0</ele>
        <time>2014-06-30T15:48:30Z</time>
      </trkpt>
      <trkpt lat="40.807283" lon="-4.305350">
        <ele>1631.0</ele>
        <time>2014-06-30T15:48:31Z</time>
      </trkpt>
      <trkpt lat="40.807383" lon="-4.305250">
        <ele>1628.0</ele>
        <time>2014-06-30T15:48:32Z</time>
      </trkpt>
      <trkpt lat="40.807483" lon="-4.305150">
        <ele>1624.0</ele>
        <time>2014-06-30T15:48:33Z</time>
      </trkpt>
      <trkpt lat="40.807583" lon="-4.305067">
        <ele>1620.0</ele>
        <time>2014-06-30T15:48:34Z</time>
      </trkpt>
      <trkpt lat="40.807683" lon="-4.304967">
        <ele>1616.0</ele>
        <time>2014-06-30T15:48:35Z</time>
      </trkpt>
      <trkpt lat="40.807783" lon="-4.304883">
        <ele>1612.0</ele>
        <time>2014-06-30T15:48:36Z</time>
      </trkpt>
      <trkpt lat="40.807900" lon="-4.304783">
        <ele>1608.0</ele>
        <time>2014-06-30T15:48:37Z</time>
      </trkpt>
      <trkpt lat="40.807983" lon="-4.304683">
        <ele>1604.0</ele>
        <time>2014-06-30T15:48:38Z</time>
      </trkpt>
      <trkpt lat="40.808083" lon="-4.304583">
        <ele>1600.0</ele>
        <time>2014-06-30T15:48:39Z</time>
      </trkpt>
      <trkpt lat="40.808183" lon="-4.304467">
        <ele>1597.0</ele>
        <time>2014-06-30T15:48:40Z</time>
      </trkpt>
      <trkpt lat="40.808300" lon="-4.304367">
        <ele>1593.0</ele>
        <time>2014-06-30T15:48:41Z</time>
      </trkpt>
      <trkpt lat="40.808400" lon="-4.304250">
        <ele>1589.0</ele>
        <time>2014-06-30T15:48:42Z</time>
      </trkpt>
      <trkpt lat="40.808517" lon="-4.304150">
        <ele>1587.0</ele>
        <time>2014-06-30T15:48:43Z</time>
      </trkpt>
      <trkpt lat="40.808617" lon="-4.304050">
        <ele>1585.0</ele>
        <time>2014-06-30T15:48:44Z</time>
      </trkpt>
      <trkpt lat="40.808717" lon="-4.303950">
        <ele>1582.0</ele>
        <time>2014-06-30T15:48:45Z</time>
      </trkpt>
      <trkpt lat="40.808817" lon="-4.303850">
        <ele>1580.0</ele>
        <time>2014-06-30T15:48:46Z</time>
      </trkpt>
      <trkpt lat="40.808917" lon="-4.303733">
        <ele>1577.0</ele>
        <time>2014-06-30T15:48:47Z</time>
      </trkpt>
      <trkpt lat="40.809033" lon="-4.303600">
        <ele>1575.0</ele>
        <time>2014-06-30T15:48:48Z</time>
      </trkpt>
      <trkpt lat="40.809150" lon="-4.303467">
        <ele>1572.0</ele>
        <time>2014-06-30T15:48:49Z</time>
      </trkpt>
      <trkpt lat="40.809250" lon="-4.303350">
        <ele>1569.0</ele>
        <time>2014-06-30T15:48:50Z</time>
      </trkpt>
      <trkpt lat="40.809367" lon="-4.303200">
        <ele>1566.0</ele>
        <time>2014-06-30T15:48:51Z</time>
      </trkpt>
      <trkpt lat="40.809483" lon="-4.303067">
        <ele>1566.0</ele>
        <time>2014-06-30T15:48:52Z</time>
      </trkpt>
      <trkpt lat="40.809567" lon="-4.302967">
        <ele>1563.0</ele>
        <time>2014-06-30T15:48:53Z</time>
      </trkpt>
      <trkpt lat="40.809667" lon="-4.302900">
        <ele>1563.0</ele>
        <time>2014-06-30T15:48:54Z</time>
      </trkpt>
      <trkpt lat="40.809750" lon="-4.302817">
        <ele>1562.0</ele>
        <time>2014-06-30T15:48:55Z</time>
      </trkpt>
      <trkpt lat="40.809833" lon="-4.302700">
        <ele>1560.0</ele>
        <time>2014-06-30T15:48:56Z</time>
      </trkpt>
      <trkpt lat="40.809917" lon="-4.302583">
        <ele>1558.0</ele>
        <time>2014-06-30T15:48:57Z</time>
      </trkpt>
      <trkpt lat="40.809983" lon="-4.302450">
        <ele>1555.0</ele>
        <time>2014-06-30T15:48:58Z</time>
      </trkpt>
      <trkpt lat="40.810067" lon="-4.302317">
        <ele>1553.0</ele>
        <time>2014-06-30T15:48:59Z</time>
      </trkpt>
      <trkpt lat="40.810183" lon="-4.302217">
        <ele>1551.0</ele>
        <time>2014-06-30T15:49:00Z</time>
      </trkpt>
      <trkpt lat="40.810283" lon="-4.302100">
        <ele>1549.0</ele>
        <time>2014-06-30T15:49:01Z</time>
      </trkpt>
      <trkpt lat="40.810367" lon="-4.301967">
        <ele>1548.0</ele>
        <time>2014-06-30T15:49:02Z</time>
      </trkpt>
      <trkpt lat="40.810450" lon="-4.301817">
        <ele>1547.0</ele>
        <time>2014-06-30T15:49:03Z</time>
      </trkpt>
      <trkpt lat="40.810533" lon="-4.301683">
        <ele>1545.0</ele>
        <time>2014-06-30T15:49:04Z</time>
      </trkpt>
      <trkpt lat="40.810633" lon="-4.301550">
        <ele>1544.0</ele>
        <time>2014-06-30T15:49:05Z</time>
      </trkpt>
      <trkpt lat="40.810733" lon="-4.301450">
        <ele>1543.0</ele>
        <time>2014-06-30T15:49:06Z</time>
      </trkpt>
      <trkpt lat="40.810817" lon="-4.301333">
        <ele>1542.0</ele>
        <time>2014-06-30T15:49:07Z</time>
      </trkpt>
      <trkpt lat="40.810900" lon="-4.301200">
        <ele>1541.0</ele>
        <time>2014-06-30T15:49:08Z</time>
      </trkpt>
      <trkpt lat="40.810983" lon="-4.301067">
        <ele>1540.0</ele>
        <time>2014-06-30T15:49:09Z</time>
      </trkpt>
      <trkpt lat="40.811067" lon="-4.300917">
        <ele>1539.0</ele>
        <time>2014-06-30T15:49:10Z</time>
      </trkpt>
      <trkpt lat="40.811150" lon="-4.300783">
        <ele>1537.0</ele>
        <time>2014-06-30T15:49:11Z</time>
      </trkpt>
      <trkpt lat="40.811233" lon="-4.300650">
        <ele>1536.0</ele>
        <time>2014-06-30T15:49:12Z</time>
      </trkpt>
      <trkpt lat="40.811317" lon="-4.300533">
        <ele>1536.0</ele>
        <time>2014-06-30T15:49:13Z</time>
      </trkpt>
      <trkpt lat="40.811400" lon="-4.300417">
        <ele>1536.0</ele>
        <time>2014-06-30T15:49:14Z</time>
      </trkpt>
      <trkpt lat="40.811467" lon="-4.300283">
        <ele>1535.0</ele>
        <time>2014-06-30T15:49:15Z</time>
      </trkpt>
      <trkpt lat="40.811550" lon="-4.300150">
        <ele>1534.0</ele>
        <time>2014-06-30T15:49:16Z</time>
      </trkpt>
      <trkpt lat="40.811633" lon="-4.300033">
        <ele>1533.0</ele>
        <time>2014-06-30T15:49:17Z</time>
      </trkpt>
      <trkpt lat="40.811717" lon="-4.299917">
        <ele>1531.0</ele>
        <time>2014-06-30T15:49:18Z</time>
      </trkpt>
      <trkpt lat="40.811817" lon="-4.299800">
        <ele>1529.0</ele>
        <time>2014-06-30T15:49:19Z</time>
      </trkpt>
      <trkpt lat="40.811917" lon="-4.299700">
        <ele>1527.0</ele>
        <time>2014-06-30T15:49:20Z</time>
      </trkpt>
      <trkpt lat="40.812017" lon="-4.299600">
        <ele>1525.0</ele>
        <time>2014-06-30T15:49:21Z</time>
      </trkpt>
      <trkpt lat="40.812083" lon="-4.299500">
        <ele>1524.0</ele>
        <time>2014-06-30T15:49:22Z</time>
      </trkpt>
      <trkpt lat="40.812150" lon="-4.299417">
        <ele>1525.0</ele>
        <time>2014-06-30T15:49:23Z</time>
      </trkpt>
      <trkpt lat="40.812217" lon="-4.299333">
        <ele>1523.0</ele>
        <time>2014-06-30T15:49:24Z</time>
      </trkpt>
      <trkpt lat="40.812300" lon="-4.299233">
        <ele>1522.0</ele>
        <time>2014-06-30T15:49:25Z</time>
      </trkpt>
      <trkpt lat="40.812400" lon="-4.299100">
        <ele>1519.0</ele>
        <time>2014-06-30T15:49:26Z</time>
      </trkpt>
      <trkpt lat="40.812483" lon="-4.298967">
        <ele>1517.0</ele>
        <time>2014-06-30T15:49:27Z</time>
      </trkpt>
      <trkpt lat="40.812567" lon="-4.298850">
        <ele>1515.0</ele>
        <time>2014-06-30T15:49:28Z</time>
      </trkpt>
      <trkpt lat="40.812650" lon="-4.298733">
        <ele>1513.0</ele>
        <time>2014-06-30T15:49:29Z</time>
      </trkpt>
      <trkpt lat="40.812733" lon="-4.298667">
        <ele>1510.0</ele>
        <time>2014-06-30T15:49:30Z</time>
      </trkpt>
      <trkpt lat="40.812817" lon="-4.298550">
        <ele>1507.0</ele>
        <time>2014-06-30T15:49:31Z</time>
      </trkpt>
      <trkpt lat="40.812900" lon="-4.298450">
        <ele>1504.0</ele>
        <time>2014-06-30T15:49:32Z</time>
      </trkpt>
      <trkpt lat="40.813000" lon="-4.298350">
        <ele>1502.0</ele>
        <time>2014-06-30T15:49:33Z</time>
      </trkpt>
      <trkpt lat="40.813100" lon="-4.298267">
        <ele>1500.0</ele>
        <time>2014-06-30T15:49:34Z</time>
      </trkpt>
      <trkpt lat="40.813183" lon="-4.298183">
        <ele>1498.0</ele>
        <time>2014-06-30T15:49:35Z</time>
      </trkpt>
      <trkpt lat="40.813267" lon="-4.298100">
        <ele>1496.0</ele>
        <time>2014-06-30T15:49:36Z</time>
      </trkpt>
      <trkpt lat="40.813350" lon="-4.298017">
        <ele>1494.0</ele>
        <time>2014-06-30T15:49:37Z</time>
      </trkpt>
      <trkpt lat="40.813433" lon="-4.297917">
        <ele>1492.0</ele>
        <time>2014-06-30T15:49:38Z</time>
      </trkpt>
      <trkpt lat="40.813533" lon="-4.297833">
        <ele>1489.0</ele>
        <time>2014-06-30T15:49:39Z</time>
      </trkpt>
      <trkpt lat="40.813633" lon="-4.297733">
        <ele>1486.0</ele>
        <time>2014-06-30T15:49:40Z</time>
      </trkpt>
      <trkpt lat="40.813700" lon="-4.297617">
        <ele>1483.0</ele>
        <time>2014-06-30T15:49:41Z</time>
      </trkpt>
      <trkpt lat="40.813783" lon="-4.297517">
        <ele>1480.0</ele>
        <time>2014-06-30T15:49:42Z</time>
      </trkpt>
      <trkpt lat="40.813850" lon="-4.297417">
        <ele>1477.0</ele>
        <time>2014-06-30T15:49:43Z</time>
      </trkpt>
      <trkpt lat="40.813933" lon="-4.297317">
        <ele>1474.0</ele>
        <time>2014-06-30T15:49:44Z</time>
      </trkpt>
      <trkpt lat="40.814000" lon="-4.297233">
        <ele>1470.0</ele>
        <time>2014-06-30T15:49:45Z</time>
      </trkpt>
      <trkpt lat="40.814117" lon="-4.297133">
        <ele>1465.0</ele>
        <time>2014-06-30T15:49:46Z</time>
      </trkpt>
      <trkpt lat="40.814200" lon="-4.297033">
        <ele>1461.0</ele>
        <time>2014-06-30T15:49:47Z</time>
      </trkpt>
      <trkpt lat="40.814300" lon="-4.296950">
        <ele>1456.0</ele>
        <time>2014-06-30T15:49:48Z</time>
      </trkpt>
      <trkpt lat="40.814400" lon="-4.296850">
        <ele>1452.0</ele>
        <time>2014-06-30T15:49:49Z</time>
      </trkpt>
      <trkpt lat="40.814500" lon="-4.296733">
        <ele>1448.0</ele>
        <time>2014-06-30T15:49:50Z</time>
      </trkpt>
      <trkpt lat="40.814600" lon="-4.296617">
        <ele>1443.0</ele>
        <time>2014-06-30T15:49:51Z</time>
      </trkpt>
      <trkpt lat="40.814683" lon="-4.296500">
        <ele>1439.0</ele>
        <time>2014-06-30T15:49:52Z</time>
      </trkpt>
      <trkpt lat="40.814783" lon="-4.296383">
        <ele>1434.0</ele>
        <time>2014-06-30T15:49:53Z</time>
      </trkpt>
      <trkpt lat="40.814883" lon="-4.296267">
        <ele>1430.0</ele>
        <time>2014-06-30T15:49:54Z</time>
      </trkpt>
      <trkpt lat="40.814983" lon="-4.296150">
        <ele>1425.0</ele>
        <time>2014-06-30T15:49:55Z</time>
      </trkpt>
      <trkpt lat="40.815067" lon="-4.296017">
        <ele>1422.0</ele>
        <time>2014-06-30T15:49:56Z</time>
      </trkpt>
      <trkpt lat="40.815167" lon="-4.295883">
        <ele>1419.0</ele>
        <time>2014-06-30T15:49:57Z</time>
      </trkpt>
      <trkpt lat="40.815250" lon="-4.295783">
        <ele>1417.0</ele>
        <time>2014-06-30T15:49:58Z</time>
      </trkpt>
      <trkpt lat="40.815333" lon="-4.295667">
        <ele>1415.0</ele>
        <time>2014-06-30T15:49:59Z</time>
      </trkpt>
      <trkpt lat="40.815433" lon="-4.295550">
        <ele>1413.0</ele>
        <time>2014-06-30T15:50:00Z</time>
      </trkpt>
      <trkpt lat="40.815517" lon="-4.295417">
        <ele>1410.0</ele>
        <time>2014-06-30T15:50:01Z</time>
      </trkpt>
      <trkpt lat="40.815600" lon="-4.295283">
        <ele>1408.0</ele>
        <time>2014-06-30T15:50:02Z</time>
      </trkpt>
      <trkpt lat="40.815700" lon="-4.295133">
        <ele>1405.0</ele>
        <time>2014-06-30T15:50:03Z</time>
      </trkpt>
      <trkpt lat="40.815783" lon="-4.295000">
        <ele>1403.0</ele>
        <time>2014-06-30T15:50:04Z</time>
      </trkpt>
      <trkpt lat="40.815867" lon="-4.294850">
        <ele>1402.0</ele>
        <time>2014-06-30T15:50:05Z</time>
      </trkpt>
      <trkpt lat="40.815933" lon="-4.294683">
        <ele>1399.0</ele>
        <time>2014-06-30T15:50:06Z</time>
      </trkpt>
      <trkpt lat="40.816017" lon="-4.294533">
        <ele>1397.0</ele>
        <time>2014-06-30T15:50:07Z</time>
      </trkpt>
      <trkpt lat="40.816117" lon="-4.294383">
        <ele>1396.0</ele>
        <time>2014-06-30T15:50:08Z</time>
      </trkpt>
      <trkpt lat="40.816200" lon="-4.294217">
        <ele>1395.0</ele>
        <time>2014-06-30T15:50:09Z</time>
      </trkpt>
      <trkpt lat="40.816250" lon="-4.294067">
        <ele>1395.0</ele>
        <time>2014-06-30T15:50:10Z</time>
      </trkpt>
      <trkpt lat="40.816317" lon="-4.293917">
        <ele>1395.0</ele>
        <time>2014-06-30T15:50:11Z</time>
      </trkpt>
      <trkpt lat="40.816383" lon="-4.293750">
        <ele>1394.0</ele>
        <time>2014-06-30T15:50:12Z</time>
      </trkpt>
      <trkpt lat="40.816467" lon="-4.293617">
        <ele>1393.0</ele>
        <time>2014-06-30T15:50:13Z</time>
      </trkpt>
      <trkpt lat="40.816550" lon="-4.293483">
        <ele>1391.0</ele>
        <time>2014-06-30T15:50:14Z</time>
      </trkpt>
      <trkpt lat="40.816650" lon="-4.293350">
        <ele>1390.0</ele>
        <time>2014-06-30T15:50:15Z</time>
      </trkpt>
      <trkpt lat="40.816717" lon="-4.293217">
        <ele>1388.0</ele>
        <time>2014-06-30T15:50:16Z</time>
      </trkpt>
      <trkpt lat="40.816783" lon="-4.293100">
        <ele>1387.0</ele>
        <time>2014-06-30T15:50:17Z</time>
      </trkpt>
      <trkpt lat="40.816850" lon="-4.292967">
        <ele>1386.0</ele>
        <time>2014-06-30T15:50:18Z</time>
      </trkpt>
      <trkpt lat="40.816933" lon="-4.292833">
        <ele>1385.0</ele>
        <time>2014-06-30T15:50:19Z</time>
      </trkpt>
      <trkpt lat="40.817033" lon="-4.292667">
        <ele>1383.0</ele>
        <time>2014-06-30T15:50:20Z</time>
      </trkpt>
      <trkpt lat="40.817117" lon="-4.292533">
        <ele>1383.0</ele>
        <time>2014-06-30T15:50:21Z</time>
      </trkpt>
      <trkpt lat="40.817217" lon="-4.292383">
        <ele>1382.0</ele>
        <time>2014-06-30T15:50:22Z</time>
      </trkpt>
      <trkpt lat="40.817333" lon="-4.292217">
        <ele>1382.0</ele>
        <time>2014-06-30T15:50:23Z</time>
      </trkpt>
      <trkpt lat="40.817417" lon="-4.292083">
        <ele>1382.0</ele>
        <time>2014-06-30T15:50:24Z</time>
      </trkpt>
      <trkpt lat="40.817500" lon="-4.291933">
        <ele>1382.0</ele>
        <time>2014-06-30T15:50:25Z</time>
      </trkpt>
      <trkpt lat="40.817583" lon="-4.291800">
        <ele>1382.0</ele>
        <time>2014-06-30T15:50:26Z</time>
      </trkpt>
      <trkpt lat="40.817667" lon="-4.291667">
        <ele>1382.0</ele>
        <time>2014-06-30T15:50:27Z</time>
      </trkpt>
      <trkpt lat="40.817767" lon="-4.291533">
        <ele>1383.0</ele>
        <time>2014-06-30T15:50:28Z</time>
      </trkpt>
      <trkpt lat="40.817850" lon="-4.291383">
        <ele>1383.0</ele>
        <time>2014-06-30T15:50:29Z</time>
      </trkpt>
      <trkpt lat="40.817933" lon="-4.291233">
        <ele>1386.0</ele>
        <time>2014-06-30T15:50:30Z</time>
      </trkpt>
      <trkpt lat="40.818017" lon="-4.291083">
        <ele>1387.0</ele>
        <time>2014-06-30T15:50:31Z</time>
      </trkpt>
      <trkpt lat="40.818083" lon="-4.290933">
        <ele>1388.0</ele>
        <time>2014-06-30T15:50:32Z</time>
      </trkpt>
      <trkpt lat="40.818167" lon="-4.290817">
        <ele>1390.0</ele>
        <time>2014-06-30T15:50:33Z</time>
      </trkpt>
      <trkpt lat="40.818217" lon="-4.290683">
        <ele>1391.0</ele>
        <time>2014-06-30T15:50:34Z</time>
      </trkpt>
      <trkpt lat="40.818283" lon="-4.290550">
        <ele>1392.0</ele>
        <time>2014-06-30T15:50:35Z</time>
      </trkpt>
      <trkpt lat="40.818333" lon="-4.290417">
        <ele>1393.0</ele>
        <time>2014-06-30T15:50:36Z</time>
      </trkpt>
      <trkpt lat="40.818400" lon="-4.290317">
        <ele>1395.0</ele>
        <time>2014-06-30T15:50:37Z</time>
      </trkpt>
      <trkpt lat="40.818483" lon="-4.290233">
        <ele>1394.0</ele>
        <time>2014-06-30T15:50:38Z</time>
      </trkpt>
      <trkpt lat="40.818550" lon="-4.290183">
        <ele>1395.0</ele>
        <time>2014-06-30T15:50:39Z</time>
      </trkpt>
      <trkpt lat="40.818600" lon="-4.290183">
        <ele>1395.0</ele>
        <time>2014-06-30T15:50:40Z</time>
      </trkpt>
      <trkpt lat="40.818617" lon="-4.290200">
        <ele>1396.0</ele>
        <time>2014-06-30T15:50:41Z</time>
      </trkpt>
      <trkpt lat="40.818600" lon="-4.290217">
        <ele>1396.0</ele>
        <time>2014-06-30T15:50:42Z</time>
      </trkpt>
      <trkpt lat="40.818583" lon="-4.290217">
        <ele>1396.0</ele>
        <time>2014-06-30T15:50:43Z</time>
      </trkpt>
      <trkpt lat="40.818550" lon="-4.290200">
        <ele>1397.0</ele>
        <time>2014-06-30T15:50:44Z</time>
      </trkpt>
      <trkpt lat="40.818500" lon="-4.290167">
        <ele>1398.0</ele>
        <time>2014-06-30T15:50:45Z</time>
      </trkpt>
      <trkpt lat="40.818417" lon="-4.290133">
        <ele>1398.0</ele>
        <time>2014-06-30T15:50:46Z</time>
      </trkpt>
      <trkpt lat="40.818350" lon="-4.290067">
        <ele>1398.0</ele>
        <time>2014-06-30T15:50:47Z</time>
      </trkpt>
      <trkpt lat="40.818300" lon="-4.289950">
        <ele>1399.0</ele>
        <time>2014-06-30T15:50:48Z</time>
      </trkpt>
      <trkpt lat="40.818250" lon="-4.289800">
        <ele>1399.0</ele>
        <time>2014-06-30T15:50:49Z</time>
      </trkpt>
      <trkpt lat="40.818233" lon="-4.289617">
        <ele>1399.0</ele>
        <time>2014-06-30T15:50:50Z</time>
      </trkpt>
      <trkpt lat="40.818217" lon="-4.289417">
        <ele>1399.0</ele>
        <time>2014-06-30T15:50:51Z</time>
      </trkpt>
      <trkpt lat="40.818217" lon="-4.289233">
        <ele>1398.0</ele>
        <time>2014-06-30T15:50:52Z</time>
      </trkpt>
      <trkpt lat="40.818217" lon="-4.289067">
        <ele>1399.0</ele>
        <time>2014-06-30T15:50:53Z</time>
      </trkpt>
      <trkpt lat="40.818233" lon="-4.288883">
        <ele>1399.0</ele>
        <time>2014-06-30T15:50:54Z</time>
      </trkpt>
      <trkpt lat="40.818267" lon="-4.288717">
        <ele>1400.0</ele>
        <time>2014-06-30T15:50:55Z</time>
      </trkpt>
      <trkpt lat="40.818283" lon="-4.288550">
        <ele>1402.0</ele>
        <time>2014-06-30T15:50:56Z</time>
      </trkpt>
      <trkpt lat="40.818333" lon="-4.288417">
        <ele>1404.0</ele>
        <time>2014-06-30T15:50:57Z</time>
      </trkpt>
      <trkpt lat="40.818383" lon="-4.288283">
        <ele>1405.0</ele>
        <time>2014-06-30T15:50:58Z</time>
      </trkpt>
      <trkpt lat="40.818467" lon="-4.288167">
        <ele>1407.0</ele>
        <time>2014-06-30T15:50:59Z</time>
      </trkpt>
      <trkpt lat="40.818550" lon="-4.288067">
        <ele>1409.0</ele>
        <time>2014-06-30T15:51:00Z</time>
      </trkpt>
      <trkpt lat="40.818633" lon="-4.287983">
        <ele>1410.0</ele>
        <time>2014-06-30T15:51:01Z</time>
      </trkpt>
      <trkpt lat="40.818683" lon="-4.287933">
        <ele>1412.0</ele>
        <time>2014-06-30T15:51:02Z</time>
      </trkpt>
      <trkpt lat="40.818733" lon="-4.287917">
        <ele>1414.0</ele>
        <time>2014-06-30T15:51:03Z</time>
      </trkpt>
      <trkpt lat="40.818767" lon="-4.287917">
        <ele>1415.0</ele>
        <time>2014-06-30T15:51:04Z</time>
      </trkpt>
      <trkpt lat="40.818750" lon="-4.287933">
        <ele>1416.0</ele>
        <time>2014-06-30T15:51:05Z</time>
      </trkpt>
      <trkpt lat="40.818717" lon="-4.287950">
        <ele>1417.0</ele>
        <time>2014-06-30T15:51:06Z</time>
      </trkpt>
      <trkpt lat="40.818667" lon="-4.287900">
        <ele>1419.0</ele>
        <time>2014-06-30T15:51:07Z</time>
      </trkpt>
      <trkpt lat="40.818583" lon="-4.287817">
        <ele>1420.0</ele>
        <time>2014-06-30T15:51:08Z</time>
      </trkpt>
      <trkpt lat="40.818533" lon="-4.287667">
        <ele>1420.0</ele>
        <time>2014-06-30T15:51:09Z</time>
      </trkpt>
      <trkpt lat="40.818483" lon="-4.287467">
        <ele>1420.0</ele>
        <time>2014-06-30T15:51:10Z</time>
      </trkpt>
      <trkpt lat="40.818500" lon="-4.287250">
        <ele>1421.0</ele>
        <time>2014-06-30T15:51:11Z</time>
      </trkpt>
      <trkpt lat="40.818533" lon="-4.287050">
        <ele>1422.0</ele>
        <time>2014-06-30T15:51:12Z</time>
      </trkpt>
      <trkpt lat="40.818600" lon="-4.286883">
        <ele>1423.0</ele>
        <time>2014-06-30T15:51:13Z</time>
      </trkpt>
      <trkpt lat="40.818683" lon="-4.286767">
        <ele>1424.0</ele>
        <time>2014-06-30T15:51:14Z</time>
      </trkpt>
      <trkpt lat="40.818767" lon="-4.286683">
        <ele>1424.0</ele>
        <time>2014-06-30T15:51:15Z</time>
      </trkpt>
      <trkpt lat="40.818833" lon="-4.286633">
        <ele>1426.0</ele>
        <time>2014-06-30T15:51:16Z</time>
      </trkpt>
      <trkpt lat="40.818900" lon="-4.286600">
        <ele>1427.0</ele>
        <time>2014-06-30T15:51:17Z</time>
      </trkpt>
      <trkpt lat="40.818950" lon="-4.286583">
        <ele>1429.0</ele>
        <time>2014-06-30T15:51:18Z</time>
      </trkpt>
      <trkpt lat="40.818967" lon="-4.286583">
        <ele>1430.0</ele>
        <time>2014-06-30T15:51:19Z</time>
      </trkpt>
      <trkpt lat="40.818983" lon="-4.286583">
        <ele>1432.0</ele>
        <time>2014-06-30T15:51:20Z</time>
      </trkpt>
      <trkpt lat="40.818983" lon="-4.286583">
        <ele>1432.0</ele>
        <time>2014-06-30T15:51:21Z</time>
      </trkpt>
      <trkpt lat="40.818967" lon="-4.286600">
        <ele>1433.0</ele>
        <time>2014-06-30T15:51:22Z</time>
      </trkpt>
      <trkpt lat="40.818933" lon="-4.286583">
        <ele>1434.0</ele>
        <time>2014-06-30T15:51:23Z</time>
      </trkpt>
      <trkpt lat="40.818867" lon="-4.286550">
        <ele>1434.0</ele>
        <time>2014-06-30T15:51:24Z</time>
      </trkpt>
      <trkpt lat="40.818783" lon="-4.286467">
        <ele>1434.0</ele>
        <time>2014-06-30T15:51:25Z</time>
      </trkpt>
      <trkpt lat="40.818717" lon="-4.286350">
        <ele>1435.0</ele>
        <time>2014-06-30T15:51:26Z</time>
      </trkpt>
      <trkpt lat="40.818667" lon="-4.286200">
        <ele>1436.0</ele>
        <time>2014-06-30T15:51:27Z</time>
      </trkpt>
      <trkpt lat="40.818633" lon="-4.286017">
        <ele>1437.0</ele>
        <time>2014-06-30T15:51:28Z</time>
      </trkpt>
      <trkpt lat="40.818633" lon="-4.285817">
        <ele>1438.0</ele>
        <time>2014-06-30T15:51:29Z</time>
      </trkpt>
      <trkpt lat="40.818633" lon="-4.285633">
        <ele>1440.0</ele>
        <time>2014-06-30T15:51:30Z</time>
      </trkpt>
      <trkpt lat="40.818650" lon="-4.285450">
        <ele>1441.0</ele>
        <time>2014-06-30T15:51:31Z</time>
      </trkpt>
      <trkpt lat="40.818700" lon="-4.285283">
        <ele>1442.0</ele>
        <time>2014-06-30T15:51:32Z</time>
      </trkpt>
      <trkpt lat="40.818767" lon="-4.285150">
        <ele>1442.0</ele>
        <time>2014-06-30T15:51:33Z</time>
      </trkpt>
      <trkpt lat="40.818850" lon="-4.285033">
        <ele>1442.0</ele>
        <time>2014-06-30T15:51:34Z</time>
      </trkpt>
      <trkpt lat="40.818933" lon="-4.284967">
        <ele>1442.0</ele>
        <time>2014-06-30T15:51:35Z</time>
      </trkpt>
      <trkpt lat="40.819000" lon="-4.284933">
        <ele>1442.0</ele>
        <time>2014-06-30T15:51:36Z</time>
      </trkpt>
      <trkpt lat="40.819050" lon="-4.284900">
        <ele>1444.0</ele>
        <time>2014-06-30T15:51:37Z</time>
      </trkpt>
      <trkpt lat="40.819083" lon="-4.284883">
        <ele>1445.0</ele>
        <time>2014-06-30T15:51:38Z</time>
      </trkpt>
      <trkpt lat="40.819100" lon="-4.284883">
        <ele>1446.0</ele>
        <time>2014-06-30T15:51:39Z</time>
      </trkpt>
      <trkpt lat="40.819117" lon="-4.284883">
        <ele>1442.0</ele>
        <time>2014-06-30T15:51:40Z</time>
      </trkpt>
      <trkpt lat="40.819117" lon="-4.284900">
        <ele>1443.0</ele>
        <time>2014-06-30T15:51:41Z</time>
      </trkpt>
      <trkpt lat="40.819083" lon="-4.284900">
        <ele>1443.0</ele>
        <time>2014-06-30T15:51:42Z</time>
      </trkpt>
      <trkpt lat="40.819033" lon="-4.284900">
        <ele>1443.0</ele>
        <time>2014-06-30T15:51:43Z</time>
      </trkpt>
      <trkpt lat="40.818967" lon="-4.284867">
        <ele>1443.0</ele>
        <time>2014-06-30T15:51:44Z</time>
      </trkpt>
      <trkpt lat="40.818900" lon="-4.284800">
        <ele>1444.0</ele>
        <time>2014-06-30T15:51:45Z</time>
      </trkpt>
      <trkpt lat="40.818833" lon="-4.284717">
        <ele>1444.0</ele>
        <time>2014-06-30T15:51:46Z</time>
      </trkpt>
      <trkpt lat="40.818767" lon="-4.284617">
        <ele>1445.0</ele>
        <time>2014-06-30T15:51:47Z</time>
      </trkpt>
      <trkpt lat="40.818683" lon="-4.284483">
        <ele>1445.0</ele>
        <time>2014-06-30T15:51:48Z</time>
      </trkpt>
      <trkpt lat="40.818617" lon="-4.284317">
        <ele>1446.0</ele>
        <time>2014-06-30T15:51:49Z</time>
      </trkpt>
      <trkpt lat="40.818583" lon="-4.284133">
        <ele>1446.0</ele>
        <time>2014-06-30T15:51:50Z</time>
      </trkpt>
      <trkpt lat="40.818583" lon="-4.283950">
        <ele>1447.0</ele>
        <time>2014-06-30T15:51:51Z</time>
      </trkpt>
      <trkpt lat="40.818600" lon="-4.283767">
        <ele>1447.0</ele>
        <time>2014-06-30T15:51:52Z</time>
      </trkpt>
      <trkpt lat="40.818667" lon="-4.283600">
        <ele>1448.0</ele>
        <time>2014-06-30T15:51:53Z</time>
      </trkpt>
      <trkpt lat="40.818733" lon="-4.283450">
        <ele>1448.0</ele>
        <time>2014-06-30T15:51:54Z</time>
      </trkpt>
      <trkpt lat="40.818800" lon="-4.283333">
        <ele>1449.0</ele>
        <time>2014-06-30T15:51:55Z</time>
      </trkpt>
      <trkpt lat="40.818867" lon="-4.283233">
        <ele>1449.0</ele>
        <time>2014-06-30T15:51:56Z</time>
      </trkpt>
      <trkpt lat="40.818933" lon="-4.283133">
        <ele>1450.0</ele>
        <time>2014-06-30T15:51:57Z</time>
      </trkpt>
      <trkpt lat="40.819017" lon="-4.283033">
        <ele>1450.0</ele>
        <time>2014-06-30T15:51:58Z</time>
      </trkpt>
      <trkpt lat="40.819083" lon="-4.282967">
        <ele>1451.0</ele>
        <time>2014-06-30T15:51:59Z</time>
      </trkpt>
      <trkpt lat="40.819167" lon="-4.282900">
        <ele>1451.0</ele>
        <time>2014-06-30T15:52:00Z</time>
      </trkpt>
      <trkpt lat="40.819233" lon="-4.282867">
        <ele>1453.0</ele>
        <time>2014-06-30T15:52:01Z</time>
      </trkpt>
      <trkpt lat="40.819267" lon="-4.282867">
        <ele>1454.0</ele>
        <time>2014-06-30T15:52:02Z</time>
      </trkpt>
      <trkpt lat="40.819283" lon="-4.282867">
        <ele>1455.0</ele>
        <time>2014-06-30T15:52:03Z</time>
      </trkpt>
      <trkpt lat="40.819267" lon="-4.282883">
        <ele>1450.0</ele>
        <time>2014-06-30T15:52:04Z</time>
      </trkpt>
      <trkpt lat="40.819250" lon="-4.282883">
        <ele>1451.0</ele>
        <time>2014-06-30T15:52:05Z</time>
      </trkpt>
      <trkpt lat="40.819200" lon="-4.282883">
        <ele>1451.0</ele>
        <time>2014-06-30T15:52:06Z</time>
      </trkpt>
      <trkpt lat="40.819133" lon="-4.282867">
        <ele>1451.0</ele>
        <time>2014-06-30T15:52:07Z</time>
      </trkpt>
      <trkpt lat="40.819050" lon="-4.282800">
        <ele>1450.0</ele>
        <time>2014-06-30T15:52:08Z</time>
      </trkpt>
      <trkpt lat="40.818950" lon="-4.282683">
        <ele>1449.0</ele>
        <time>2014-06-30T15:52:09Z</time>
      </trkpt>
      <trkpt lat="40.818883" lon="-4.282533">
        <ele>1449.0</ele>
        <time>2014-06-30T15:52:10Z</time>
      </trkpt>
      <trkpt lat="40.818850" lon="-4.282350">
        <ele>1449.0</ele>
        <time>2014-06-30T15:52:11Z</time>
      </trkpt>
      <trkpt lat="40.818833" lon="-4.282167">
        <ele>1450.0</ele>
        <time>2014-06-30T15:52:12Z</time>
      </trkpt>
      <trkpt lat="40.818850" lon="-4.282000">
        <ele>1450.0</ele>
        <time>2014-06-30T15:52:13Z</time>
      </trkpt>
      <trkpt lat="40.818867" lon="-4.281850">
        <ele>1451.0</ele>
        <time>2014-06-30T15:52:14Z</time>
      </trkpt>
      <trkpt lat="40.818883" lon="-4.281683">
        <ele>1452.0</ele>
        <time>2014-06-30T15:52:15Z</time>
      </trkpt>
      <trkpt lat="40.818917" lon="-4.281517">
        <ele>1452.0</ele>
        <time>2014-06-30T15:52:16Z</time>
      </trkpt>
      <trkpt lat="40.818983" lon="-4.281350">
        <ele>1453.0</ele>
        <time>2014-06-30T15:52:17Z</time>
      </trkpt>
      <trkpt lat="40.819050" lon="-4.281233">
        <ele>1453.0</ele>
        <time>2014-06-30T15:52:18Z</time>
      </trkpt>
      <trkpt lat="40.819117" lon="-4.281133">
        <ele>1453.0</ele>
        <time>2014-06-30T15:52:19Z</time>
      </trkpt>
      <trkpt lat="40.819183" lon="-4.281083">
        <ele>1453.0</ele>
        <time>2014-06-30T15:52:20Z</time>
      </trkpt>
      <trkpt lat="40.819233" lon="-4.281017">
        <ele>1453.0</ele>
        <time>2014-06-30T15:52:21Z</time>
      </trkpt>
      <trkpt lat="40.819283" lon="-4.280983">
        <ele>1452.0</ele>
        <time>2014-06-30T15:52:22Z</time>
      </trkpt>
      <trkpt lat="40.819333" lon="-4.280983">
        <ele>1452.0</ele>
        <time>2014-06-30T15:52:23Z</time>
      </trkpt>
      <trkpt lat="40.819350" lon="-4.281000">
        <ele>1452.0</ele>
        <time>2014-06-30T15:52:24Z</time>
      </trkpt>
      <trkpt lat="40.819333" lon="-4.281000">
        <ele>1452.0</ele>
        <time>2014-06-30T15:52:25Z</time>
      </trkpt>
      <trkpt lat="40.819283" lon="-4.281000">
        <ele>1452.0</ele>
        <time>2014-06-30T15:52:26Z</time>
      </trkpt>
      <trkpt lat="40.819200" lon="-4.280967">
        <ele>1451.0</ele>
        <time>2014-06-30T15:52:27Z</time>
      </trkpt>
      <trkpt lat="40.819117" lon="-4.280867">
        <ele>1450.0</ele>
        <time>2014-06-30T15:52:28Z</time>
      </trkpt>
      <trkpt lat="40.819033" lon="-4.280733">
        <ele>1449.0</ele>
        <time>2014-06-30T15:52:29Z</time>
      </trkpt>
      <trkpt lat="40.818967" lon="-4.280533">
        <ele>1448.0</ele>
        <time>2014-06-30T15:52:30Z</time>
      </trkpt>
      <trkpt lat="40.818967" lon="-4.280333">
        <ele>1448.0</ele>
        <time>2014-06-30T15:52:31Z</time>
      </trkpt>
      <trkpt lat="40.818983" lon="-4.280133">
        <ele>1448.0</ele>
        <time>2014-06-30T15:52:32Z</time>
      </trkpt>
      <trkpt lat="40.819017" lon="-4.279967">
        <ele>1448.0</ele>
        <time>2014-06-30T15:52:33Z</time>
      </trkpt>
      <trkpt lat="40.819067" lon="-4.279817">
        <ele>1448.0</ele>
        <time>2014-06-30T15:52:34Z</time>
      </trkpt>
      <trkpt lat="40.819117" lon="-4.279683">
        <ele>1449.0</ele>
        <time>2014-06-30T15:52:35Z</time>
      </trkpt>
      <trkpt lat="40.819167" lon="-4.279567">
        <ele>1449.0</ele>
        <time>2014-06-30T15:52:36Z</time>
      </trkpt>
      <trkpt lat="40.819217" lon="-4.279467">
        <ele>1449.0</ele>
        <time>2014-06-30T15:52:37Z</time>
      </trkpt>
      <trkpt lat="40.819283" lon="-4.279383">
        <ele>1448.0</ele>
        <time>2014-06-30T15:52:38Z</time>
      </trkpt>
      <trkpt lat="40.819350" lon="-4.279317">
        <ele>1447.0</ele>
        <time>2014-06-30T15:52:39Z</time>
      </trkpt>
      <trkpt lat="40.819400" lon="-4.279283">
        <ele>1447.0</ele>
        <time>2014-06-30T15:52:40Z</time>
      </trkpt>
      <trkpt lat="40.819433" lon="-4.279283">
        <ele>1447.0</ele>
        <time>2014-06-30T15:52:41Z</time>
      </trkpt>
      <trkpt lat="40.819450" lon="-4.279300">
        <ele>1447.0</ele>
        <time>2014-06-30T15:52:42Z</time>
      </trkpt>
      <trkpt lat="40.819433" lon="-4.279333">
        <ele>1446.0</ele>
        <time>2014-06-30T15:52:43Z</time>
      </trkpt>
      <trkpt lat="40.819417" lon="-4.279367">
        <ele>1446.0</ele>
        <time>2014-06-30T15:52:44Z</time>
      </trkpt>
      <trkpt lat="40.819400" lon="-4.279367">
        <ele>1446.0</ele>
        <time>2014-06-30T15:52:45Z</time>
      </trkpt>
      <trkpt lat="40.819367" lon="-4.279367">
        <ele>1446.0</ele>
        <time>2014-06-30T15:52:46Z</time>
      </trkpt>
      <trkpt lat="40.819333" lon="-4.279350">
        <ele>1446.0</ele>
        <time>2014-06-30T15:52:47Z</time>
      </trkpt>
      <trkpt lat="40.819283" lon="-4.279350">
        <ele>1446.0</ele>
        <time>2014-06-30T15:52:48Z</time>
      </trkpt>
      <trkpt lat="40.819233" lon="-4.279367">
        <ele>1446.0</ele>
        <time>2014-06-30T15:52:49Z</time>
      </trkpt>
      <trkpt lat="40.819183" lon="-4.279350">
        <ele>1445.0</ele>
        <time>2014-06-30T15:52:50Z</time>
      </trkpt>
      <trkpt lat="40.819117" lon="-4.279317">
        <ele>1445.0</ele>
        <time>2014-06-30T15:52:51Z</time>
      </trkpt>
      <trkpt lat="40.819050" lon="-4.279233">
        <ele>1443.0</ele>
        <time>2014-06-30T15:52:52Z</time>
      </trkpt>
      <trkpt lat="40.818967" lon="-4.279133">
        <ele>1442.0</ele>
        <time>2014-06-30T15:52:53Z</time>
      </trkpt>
      <trkpt lat="40.818900" lon="-4.278983">
        <ele>1441.0</ele>
        <time>2014-06-30T15:52:54Z</time>
      </trkpt>
      <trkpt lat="40.818850" lon="-4.278783">
        <ele>1440.0</ele>
        <time>2014-06-30T15:52:55Z</time>
      </trkpt>
      <trkpt lat="40.818850" lon="-4.278583">
        <ele>1439.0</ele>
        <time>2014-06-30T15:52:56Z</time>
      </trkpt>
      <trkpt lat="40.818900" lon="-4.278400">
        <ele>1438.0</ele>
        <time>2014-06-30T15:52:57Z</time>
      </trkpt>
      <trkpt lat="40.818950" lon="-4.278250">
        <ele>1437.0</ele>
        <time>2014-06-30T15:52:58Z</time>
      </trkpt>
      <trkpt lat="40.819033" lon="-4.278100">
        <ele>1436.0</ele>
        <time>2014-06-30T15:52:59Z</time>
      </trkpt>
      <trkpt lat="40.819100" lon="-4.277950">
        <ele>1435.0</ele>
        <time>2014-06-30T15:53:00Z</time>
      </trkpt>
      <trkpt lat="40.819167" lon="-4.277800">
        <ele>1434.0</ele>
        <time>2014-06-30T15:53:01Z</time>
      </trkpt>
      <trkpt lat="40.819233" lon="-4.277650">
        <ele>1433.0</ele>
        <time>2014-06-30T15:53:02Z</time>
      </trkpt>
      <trkpt lat="40.819317" lon="-4.277517">
        <ele>1433.0</ele>
        <time>2014-06-30T15:53:03Z</time>
      </trkpt>
      <trkpt lat="40.819400" lon="-4.277400">
        <ele>1434.0</ele>
        <time>2014-06-30T15:53:04Z</time>
      </trkpt>
      <trkpt lat="40.819450" lon="-4.277267">
        <ele>1435.0</ele>
        <time>2014-06-30T15:53:05Z</time>
      </trkpt>
      <trkpt lat="40.819500" lon="-4.277117">
        <ele>1436.0</ele>
        <time>2014-06-30T15:53:06Z</time>
      </trkpt>
      <trkpt lat="40.819533" lon="-4.277000">
        <ele>1437.0</ele>
        <time>2014-06-30T15:53:07Z</time>
      </trkpt>
      <trkpt lat="40.819583" lon="-4.276900">
        <ele>1437.0</ele>
        <time>2014-06-30T15:53:08Z</time>
      </trkpt>
      <trkpt lat="40.819650" lon="-4.276833">
        <ele>1436.0</ele>
        <time>2014-06-30T15:53:09Z</time>
      </trkpt>
      <trkpt lat="40.819700" lon="-4.276800">
        <ele>1435.0</ele>
        <time>2014-06-30T15:53:10Z</time>
      </trkpt>
      <trkpt lat="40.819750" lon="-4.276783">
        <ele>1436.0</ele>
        <time>2014-06-30T15:53:11Z</time>
      </trkpt>
      <trkpt lat="40.819817" lon="-4.276767">
        <ele>1436.0</ele>
        <time>2014-06-30T15:53:12Z</time>
      </trkpt>
      <trkpt lat="40.819867" lon="-4.276750">
        <ele>1436.0</ele>
        <time>2014-06-30T15:53:13Z</time>
      </trkpt>
      <trkpt lat="40.819917" lon="-4.276733">
        <ele>1436.0</ele>
        <time>2014-06-30T15:53:14Z</time>
      </trkpt>
      <trkpt lat="40.819950" lon="-4.276733">
        <ele>1435.0</ele>
        <time>2014-06-30T15:53:15Z</time>
      </trkpt>
      <trkpt lat="40.819950" lon="-4.276750">
        <ele>1435.0</ele>
        <time>2014-06-30T15:53:16Z</time>
      </trkpt>
      <trkpt lat="40.819883" lon="-4.276733">
        <ele>1435.0</ele>
        <time>2014-06-30T15:53:17Z</time>
      </trkpt>
      <trkpt lat="40.819800" lon="-4.276667">
        <ele>1434.0</ele>
        <time>2014-06-30T15:53:18Z</time>
      </trkpt>
      <trkpt lat="40.819700" lon="-4.276533">
        <ele>1432.0</ele>
        <time>2014-06-30T15:53:19Z</time>
      </trkpt>
      <trkpt lat="40.819633" lon="-4.276350">
        <ele>1431.0</ele>
        <time>2014-06-30T15:53:20Z</time>
      </trkpt>
      <trkpt lat="40.819600" lon="-4.276133">
        <ele>1430.0</ele>
        <time>2014-06-30T15:53:21Z</time>
      </trkpt>
      <trkpt lat="40.819633" lon="-4.275917">
        <ele>1429.0</ele>
        <time>2014-06-30T15:53:22Z</time>
      </trkpt>
      <trkpt lat="40.819700" lon="-4.275733">
        <ele>1428.0</ele>
        <time>2014-06-30T15:53:23Z</time>
      </trkpt>
      <trkpt lat="40.819767" lon="-4.275583">
        <ele>1427.0</ele>
        <time>2014-06-30T15:53:24Z</time>
      </trkpt>
      <trkpt lat="40.819850" lon="-4.275450">
        <ele>1426.0</ele>
        <time>2014-06-30T15:53:25Z</time>
      </trkpt>
      <trkpt lat="40.819917" lon="-4.275300">
        <ele>1426.0</ele>
        <time>2014-06-30T15:53:26Z</time>
      </trkpt>
      <trkpt lat="40.819983" lon="-4.275167">
        <ele>1425.0</ele>
        <time>2014-06-30T15:53:27Z</time>
      </trkpt>
      <trkpt lat="40.820067" lon="-4.275017">
        <ele>1425.0</ele>
        <time>2014-06-30T15:53:28Z</time>
      </trkpt>
      <trkpt lat="40.820150" lon="-4.274900">
        <ele>1423.0</ele>
        <time>2014-06-30T15:53:29Z</time>
      </trkpt>
      <trkpt lat="40.820250" lon="-4.274783">
        <ele>1422.0</ele>
        <time>2014-06-30T15:53:30Z</time>
      </trkpt>
      <trkpt lat="40.820350" lon="-4.274667">
        <ele>1422.0</ele>
        <time>2014-06-30T15:53:31Z</time>
      </trkpt>
      <trkpt lat="40.820450" lon="-4.274567">
        <ele>1422.0</ele>
        <time>2014-06-30T15:53:32Z</time>
      </trkpt>
      <trkpt lat="40.820533" lon="-4.274450">
        <ele>1422.0</ele>
        <time>2014-06-30T15:53:33Z</time>
      </trkpt>
      <trkpt lat="40.820617" lon="-4.274333">
        <ele>1422.0</ele>
        <time>2014-06-30T15:53:34Z</time>
      </trkpt>
      <trkpt lat="40.820717" lon="-4.274200">
        <ele>1423.0</ele>
        <time>2014-06-30T15:53:35Z</time>
      </trkpt>
      <trkpt lat="40.820800" lon="-4.274100">
        <ele>1424.0</ele>
        <time>2014-06-30T15:53:36Z</time>
      </trkpt>
      <trkpt lat="40.820883" lon="-4.273983">
        <ele>1425.0</ele>
        <time>2014-06-30T15:53:37Z</time>
      </trkpt>
      <trkpt lat="40.820967" lon="-4.273883">
        <ele>1427.0</ele>
        <time>2014-06-30T15:53:38Z</time>
      </trkpt>
      <trkpt lat="40.821033" lon="-4.273800">
        <ele>1428.0</ele>
        <time>2014-06-30T15:53:39Z</time>
      </trkpt>
      <trkpt lat="40.821100" lon="-4.273733">
        <ele>1430.0</ele>
        <time>2014-06-30T15:53:40Z</time>
      </trkpt>
      <trkpt lat="40.821183" lon="-4.273700">
        <ele>1430.0</ele>
        <time>2014-06-30T15:53:41Z</time>
      </trkpt>
      <trkpt lat="40.821250" lon="-4.273700">
        <ele>1430.0</ele>
        <time>2014-06-30T15:53:42Z</time>
      </trkpt>
      <trkpt lat="40.821300" lon="-4.273717">
        <ele>1427.0</ele>
        <time>2014-06-30T15:53:43Z</time>
      </trkpt>
      <trkpt lat="40.821317" lon="-4.273733">
        <ele>1427.0</ele>
        <time>2014-06-30T15:53:44Z</time>
      </trkpt>
      <trkpt lat="40.821300" lon="-4.273767">
        <ele>1429.0</ele>
        <time>2014-06-30T15:53:45Z</time>
      </trkpt>
      <trkpt lat="40.821250" lon="-4.273750">
        <ele>1429.0</ele>
        <time>2014-06-30T15:53:46Z</time>
      </trkpt>
      <trkpt lat="40.821167" lon="-4.273683">
        <ele>1428.0</ele>
        <time>2014-06-30T15:53:47Z</time>
      </trkpt>
      <trkpt lat="40.821100" lon="-4.273550">
        <ele>1427.0</ele>
        <time>2014-06-30T15:53:48Z</time>
      </trkpt>
      <trkpt lat="40.821067" lon="-4.273350">
        <ele>1427.0</ele>
        <time>2014-06-30T15:53:49Z</time>
      </trkpt>
      <trkpt lat="40.821100" lon="-4.273133">
        <ele>1427.0</ele>
        <time>2014-06-30T15:53:50Z</time>
      </trkpt>
      <trkpt lat="40.821167" lon="-4.272950">
        <ele>1426.0</ele>
        <time>2014-06-30T15:53:51Z</time>
      </trkpt>
      <trkpt lat="40.821233" lon="-4.272800">
        <ele>1426.0</ele>
        <time>2014-06-30T15:53:52Z</time>
      </trkpt>
      <trkpt lat="40.821300" lon="-4.272650">
        <ele>1426.0</ele>
        <time>2014-06-30T15:53:53Z</time>
      </trkpt>
      <trkpt lat="40.821350" lon="-4.272517">
        <ele>1427.0</ele>
        <time>2014-06-30T15:53:54Z</time>
      </trkpt>
      <trkpt lat="40.821400" lon="-4.272400">
        <ele>1428.0</ele>
        <time>2014-06-30T15:53:55Z</time>
      </trkpt>
      <trkpt lat="40.821450" lon="-4.272283">
        <ele>1429.0</ele>
        <time>2014-06-30T15:53:56Z</time>
      </trkpt>
      <trkpt lat="40.821533" lon="-4.272183">
        <ele>1429.0</ele>
        <time>2014-06-30T15:53:57Z</time>
      </trkpt>
      <trkpt lat="40.821617" lon="-4.272117">
        <ele>1430.0</ele>
        <time>2014-06-30T15:53:58Z</time>
      </trkpt>
      <trkpt lat="40.821700" lon="-4.272083">
        <ele>1430.0</ele>
        <time>2014-06-30T15:53:59Z</time>
      </trkpt>
      <trkpt lat="40.821767" lon="-4.272067">
        <ele>1432.0</ele>
        <time>2014-06-30T15:54:00Z</time>
      </trkpt>
      <trkpt lat="40.821833" lon="-4.272050">
        <ele>1433.0</ele>
        <time>2014-06-30T15:54:01Z</time>
      </trkpt>
      <trkpt lat="40.821900" lon="-4.272033">
        <ele>1434.0</ele>
        <time>2014-06-30T15:54:02Z</time>
      </trkpt>
      <trkpt lat="40.821950" lon="-4.272033">
        <ele>1431.0</ele>
        <time>2014-06-30T15:54:03Z</time>
      </trkpt>
      <trkpt lat="40.821983" lon="-4.272033">
        <ele>1432.0</ele>
        <time>2014-06-30T15:54:04Z</time>
      </trkpt>
      <trkpt lat="40.822017" lon="-4.272050">
        <ele>1432.0</ele>
        <time>2014-06-30T15:54:05Z</time>
      </trkpt>
      <trkpt lat="40.822017" lon="-4.272067">
        <ele>1433.0</ele>
        <time>2014-06-30T15:54:06Z</time>
      </trkpt>
      <trkpt lat="40.822000" lon="-4.272083">
        <ele>1433.0</ele>
        <time>2014-06-30T15:54:07Z</time>
      </trkpt>
      <trkpt lat="40.821967" lon="-4.272083">
        <ele>1434.0</ele>
        <time>2014-06-30T15:54:08Z</time>
      </trkpt>
      <trkpt lat="40.821917" lon="-4.272033">
        <ele>1434.0</ele>
        <time>2014-06-30T15:54:09Z</time>
      </trkpt>
      <trkpt lat="40.821850" lon="-4.271967">
        <ele>1434.0</ele>
        <time>2014-06-30T15:54:10Z</time>
      </trkpt>
      <trkpt lat="40.821783" lon="-4.271850">
        <ele>1434.0</ele>
        <time>2014-06-30T15:54:11Z</time>
      </trkpt>
      <trkpt lat="40.821750" lon="-4.271667">
        <ele>1433.0</ele>
        <time>2014-06-30T15:54:12Z</time>
      </trkpt>
      <trkpt lat="40.821767" lon="-4.271483">
        <ele>1433.0</ele>
        <time>2014-06-30T15:54:13Z</time>
      </trkpt>
      <trkpt lat="40.821833" lon="-4.271317">
        <ele>1432.0</ele>
        <time>2014-06-30T15:54:14Z</time>
      </trkpt>
      <trkpt lat="40.821950" lon="-4.271183">
        <ele>1432.0</ele>
        <time>2014-06-30T15:54:15Z</time>
      </trkpt>
      <trkpt lat="40.822050" lon="-4.271117">
        <ele>1432.0</ele>
        <time>2014-06-30T15:54:16Z</time>
      </trkpt>
      <trkpt lat="40.822167" lon="-4.271033">
        <ele>1433.0</ele>
        <time>2014-06-30T15:54:17Z</time>
      </trkpt>
      <trkpt lat="40.822250" lon="-4.270917">
        <ele>1434.0</ele>
        <time>2014-06-30T15:54:18Z</time>
      </trkpt>
      <trkpt lat="40.822333" lon="-4.270800">
        <ele>1435.0</ele>
        <time>2014-06-30T15:54:19Z</time>
      </trkpt>
      <trkpt lat="40.822400" lon="-4.270700">
        <ele>1437.0</ele>
        <time>2014-06-30T15:54:20Z</time>
      </trkpt>
      <trkpt lat="40.822483" lon="-4.270633">
        <ele>1437.0</ele>
        <time>2014-06-30T15:54:21Z</time>
      </trkpt>
      <trkpt lat="40.822550" lon="-4.270583">
        <ele>1437.0</ele>
        <time>2014-06-30T15:54:22Z</time>
      </trkpt>
      <trkpt lat="40.822617" lon="-4.270567">
        <ele>1437.0</ele>
        <time>2014-06-30T15:54:23Z</time>
      </trkpt>
      <trkpt lat="40.822700" lon="-4.270550">
        <ele>1438.0</ele>
        <time>2014-06-30T15:54:24Z</time>
      </trkpt>
      <trkpt lat="40.822733" lon="-4.270550">
        <ele>1439.0</ele>
        <time>2014-06-30T15:54:25Z</time>
      </trkpt>
      <trkpt lat="40.822767" lon="-4.270550">
        <ele>1440.0</ele>
        <time>2014-06-30T15:54:26Z</time>
      </trkpt>
      <trkpt lat="40.822767" lon="-4.270550">
        <ele>1442.0</ele>
        <time>2014-06-30T15:54:27Z</time>
      </trkpt>
      <trkpt lat="40.822767" lon="-4.270550">
        <ele>1443.0</ele>
        <time>2014-06-30T15:54:28Z</time>
      </trkpt>
      <trkpt lat="40.822767" lon="-4.270550">
        <ele>1439.0</ele>
        <time>2014-06-30T15:54:29Z</time>
      </trkpt>
      <trkpt lat="40.822767" lon="-4.270533">
        <ele>1439.0</ele>
        <time>2014-06-30T15:54:30Z</time>
      </trkpt>
      <trkpt lat="40.822733" lon="-4.270533">
        <ele>1440.0</ele>
        <time>2014-06-30T15:54:31Z</time>
      </trkpt>
      <trkpt lat="40.822683" lon="-4.270500">
        <ele>1440.0</ele>
        <time>2014-06-30T15:54:32Z</time>
      </trkpt>
      <trkpt lat="40.822617" lon="-4.270433">
        <ele>1439.0</ele>
        <time>2014-06-30T15:54:33Z</time>
      </trkpt>
      <trkpt lat="40.822550" lon="-4.270300">
        <ele>1439.0</ele>
        <time>2014-06-30T15:54:34Z</time>
      </trkpt>
      <trkpt lat="40.822500" lon="-4.270133">
        <ele>1438.0</ele>
        <time>2014-06-30T15:54:35Z</time>
      </trkpt>
      <trkpt lat="40.822483" lon="-4.269950">
        <ele>1439.0</ele>
        <time>2014-06-30T15:54:36Z</time>
      </trkpt>
      <trkpt lat="40.822500" lon="-4.269783">
        <ele>1439.0</ele>
        <time>2014-06-30T15:54:37Z</time>
      </trkpt>
      <trkpt lat="40.822533" lon="-4.269633">
        <ele>1438.0</ele>
        <time>2014-06-30T15:54:38Z</time>
      </trkpt>
      <trkpt lat="40.822550" lon="-4.269467">
        <ele>1438.0</ele>
        <time>2014-06-30T15:54:39Z</time>
      </trkpt>
      <trkpt lat="40.822583" lon="-4.269317">
        <ele>1438.0</ele>
        <time>2014-06-30T15:54:40Z</time>
      </trkpt>
      <trkpt lat="40.822633" lon="-4.269167">
        <ele>1438.0</ele>
        <time>2014-06-30T15:54:41Z</time>
      </trkpt>
      <trkpt lat="40.822700" lon="-4.269000">
        <ele>1438.0</ele>
        <time>2014-06-30T15:54:42Z</time>
      </trkpt>
      <trkpt lat="40.822783" lon="-4.268867">
        <ele>1438.0</ele>
        <time>2014-06-30T15:54:43Z</time>
      </trkpt>
      <trkpt lat="40.822867" lon="-4.268733">
        <ele>1438.0</ele>
        <time>2014-06-30T15:54:44Z</time>
      </trkpt>
      <trkpt lat="40.822933" lon="-4.268600">
        <ele>1439.0</ele>
        <time>2014-06-30T15:54:45Z</time>
      </trkpt>
      <trkpt lat="40.823017" lon="-4.268483">
        <ele>1439.0</ele>
        <time>2014-06-30T15:54:46Z</time>
      </trkpt>
      <trkpt lat="40.823100" lon="-4.268383">
        <ele>1439.0</ele>
        <time>2014-06-30T15:54:47Z</time>
      </trkpt>
      <trkpt lat="40.823183" lon="-4.268300">
        <ele>1439.0</ele>
        <time>2014-06-30T15:54:48Z</time>
      </trkpt>
      <trkpt lat="40.823267" lon="-4.268233">
        <ele>1439.0</ele>
        <time>2014-06-30T15:54:49Z</time>
      </trkpt>
      <trkpt lat="40.823383" lon="-4.268167">
        <ele>1438.0</ele>
        <time>2014-06-30T15:54:50Z</time>
      </trkpt>
      <trkpt lat="40.823483" lon="-4.268117">
        <ele>1438.0</ele>
        <time>2014-06-30T15:54:51Z</time>
      </trkpt>
      <trkpt lat="40.823583" lon="-4.268083">
        <ele>1440.0</ele>
        <time>2014-06-30T15:54:52Z</time>
      </trkpt>
      <trkpt lat="40.823667" lon="-4.268033">
        <ele>1440.0</ele>
        <time>2014-06-30T15:54:53Z</time>
      </trkpt>
      <trkpt lat="40.823750" lon="-4.268000">
        <ele>1439.0</ele>
        <time>2014-06-30T15:54:54Z</time>
      </trkpt>
      <trkpt lat="40.823850" lon="-4.267967">
        <ele>1439.0</ele>
        <time>2014-06-30T15:54:55Z</time>
      </trkpt>
      <trkpt lat="40.823950" lon="-4.267950">
        <ele>1438.0</ele>
        <time>2014-06-30T15:54:56Z</time>
      </trkpt>
      <trkpt lat="40.824033" lon="-4.267933">
        <ele>1438.0</ele>
        <time>2014-06-30T15:54:57Z</time>
      </trkpt>
      <trkpt lat="40.824133" lon="-4.267917">
        <ele>1438.0</ele>
        <time>2014-06-30T15:54:58Z</time>
      </trkpt>
      <trkpt lat="40.824217" lon="-4.267900">
        <ele>1437.0</ele>
        <time>2014-06-30T15:54:59Z</time>
      </trkpt>
      <trkpt lat="40.824300" lon="-4.267883">
        <ele>1437.0</ele>
        <time>2014-06-30T15:55:00Z</time>
      </trkpt>
      <trkpt lat="40.824400" lon="-4.267883">
        <ele>1436.0</ele>
        <time>2014-06-30T15:55:01Z</time>
      </trkpt>
      <trkpt lat="40.824483" lon="-4.267867">
        <ele>1436.0</ele>
        <time>2014-06-30T15:55:02Z</time>
      </trkpt>
      <trkpt lat="40.824567" lon="-4.267867">
        <ele>1435.0</ele>
        <time>2014-06-30T15:55:03Z</time>
      </trkpt>
      <trkpt lat="40.824667" lon="-4.267867">
        <ele>1435.0</ele>
        <time>2014-06-30T15:55:04Z</time>
      </trkpt>
      <trkpt lat="40.824750" lon="-4.267867">
        <ele>1434.0</ele>
        <time>2014-06-30T15:55:05Z</time>
      </trkpt>
      <trkpt lat="40.824833" lon="-4.267867">
        <ele>1434.0</ele>
        <time>2014-06-30T15:55:06Z</time>
      </trkpt>
      <trkpt lat="40.824917" lon="-4.267867">
        <ele>1434.0</ele>
        <time>2014-06-30T15:55:07Z</time>
      </trkpt>
      <trkpt lat="40.825000" lon="-4.267867">
        <ele>1433.0</ele>
        <time>2014-06-30T15:55:08Z</time>
      </trkpt>
      <trkpt lat="40.825100" lon="-4.267883">
        <ele>1433.0</ele>
        <time>2014-06-30T15:55:09Z</time>
      </trkpt>
      <trkpt lat="40.825183" lon="-4.267917">
        <ele>1433.0</ele>
        <time>2014-06-30T15:55:10Z</time>
      </trkpt>
      <trkpt lat="40.825267" lon="-4.267950">
        <ele>1432.0</ele>
        <time>2014-06-30T15:55:11Z</time>
      </trkpt>
      <trkpt lat="40.825367" lon="-4.267967">
        <ele>1431.0</ele>
        <time>2014-06-30T15:55:12Z</time>
      </trkpt>
      <trkpt lat="40.825450" lon="-4.267967">
        <ele>1430.0</ele>
        <time>2014-06-30T15:55:13Z</time>
      </trkpt>
      <trkpt lat="40.825533" lon="-4.267983">
        <ele>1431.0</ele>
        <time>2014-06-30T15:55:14Z</time>
      </trkpt>
      <trkpt lat="40.825600" lon="-4.267983">
        <ele>1432.0</ele>
        <time>2014-06-30T15:55:15Z</time>
      </trkpt>
      <trkpt lat="40.825650" lon="-4.267983">
        <ele>1434.0</ele>
        <time>2014-06-30T15:55:16Z</time>
      </trkpt>
      <trkpt lat="40.825700" lon="-4.267967">
        <ele>1434.0</ele>
        <time>2014-06-30T15:55:17Z</time>
      </trkpt>
      <trkpt lat="40.825767" lon="-4.267950">
        <ele>1433.0</ele>
        <time>2014-06-30T15:55:18Z</time>
      </trkpt>
      <trkpt lat="40.825817" lon="-4.267967">
        <ele>1433.0</ele>
        <time>2014-06-30T15:55:19Z</time>
      </trkpt>
      <trkpt lat="40.825867" lon="-4.268000">
        <ele>1431.0</ele>
        <time>2014-06-30T15:55:20Z</time>
      </trkpt>
      <trkpt lat="40.825933" lon="-4.268050">
        <ele>1431.0</ele>
        <time>2014-06-30T15:55:21Z</time>
      </trkpt>
      <trkpt lat="40.826000" lon="-4.268083">
        <ele>1431.0</ele>
        <time>2014-06-30T15:55:22Z</time>
      </trkpt>
      <trkpt lat="40.826067" lon="-4.268117">
        <ele>1431.0</ele>
        <time>2014-06-30T15:55:23Z</time>
      </trkpt>
      <trkpt lat="40.826133" lon="-4.268150">
        <ele>1431.0</ele>
        <time>2014-06-30T15:55:24Z</time>
      </trkpt>
      <trkpt lat="40.826183" lon="-4.268183">
        <ele>1431.0</ele>
        <time>2014-06-30T15:55:25Z</time>
      </trkpt>
      <trkpt lat="40.826250" lon="-4.268200">
        <ele>1432.0</ele>
        <time>2014-06-30T15:55:26Z</time>
      </trkpt>
      <trkpt lat="40.826283" lon="-4.268217">
        <ele>1434.0</ele>
        <time>2014-06-30T15:55:27Z</time>
      </trkpt>
      <trkpt lat="40.826317" lon="-4.268233">
        <ele>1435.0</ele>
        <time>2014-06-30T15:55:28Z</time>
      </trkpt>
      <trkpt lat="40.826333" lon="-4.268217">
        <ele>1437.0</ele>
        <time>2014-06-30T15:55:29Z</time>
      </trkpt>
      <trkpt lat="40.826350" lon="-4.268217">
        <ele>1437.0</ele>
        <time>2014-06-30T15:55:30Z</time>
      </trkpt>
      <trkpt lat="40.826383" lon="-4.268250">
        <ele>1438.0</ele>
        <time>2014-06-30T15:55:31Z</time>
      </trkpt>
      <trkpt lat="40.826417" lon="-4.268300">
        <ele>1438.0</ele>
        <time>2014-06-30T15:55:32Z</time>
      </trkpt>
      <trkpt lat="40.826450" lon="-4.268383">
        <ele>1436.0</ele>
        <time>2014-06-30T15:55:33Z</time>
      </trkpt>
      <trkpt lat="40.826467" lon="-4.268450">
        <ele>1436.0</ele>
        <time>2014-06-30T15:55:34Z</time>
      </trkpt>
      <trkpt lat="40.826483" lon="-4.268500">
        <ele>1437.0</ele>
        <time>2014-06-30T15:55:35Z</time>
      </trkpt>
      <trkpt lat="40.826517" lon="-4.268517">
        <ele>1438.0</ele>
        <time>2014-06-30T15:55:36Z</time>
      </trkpt>
      <trkpt lat="40.826550" lon="-4.268517">
        <ele>1439.0</ele>
        <time>2014-06-30T15:55:37Z</time>
      </trkpt>
      <trkpt lat="40.826583" lon="-4.268517">
        <ele>1440.0</ele>
        <time>2014-06-30T15:55:38Z</time>
      </trkpt>
      <trkpt lat="40.826600" lon="-4.268517">
        <ele>1441.0</ele>
        <time>2014-06-30T15:55:39Z</time>
      </trkpt>
      <trkpt lat="40.826617" lon="-4.268517">
        <ele>1443.0</ele>
        <time>2014-06-30T15:55:40Z</time>
      </trkpt>
      <trkpt lat="40.826650" lon="-4.268533">
        <ele>1445.0</ele>
        <time>2014-06-30T15:55:41Z</time>
      </trkpt>
      <trkpt lat="40.826667" lon="-4.268533">
        <ele>1448.0</ele>
        <time>2014-06-30T15:55:42Z</time>
      </trkpt>
      <trkpt lat="40.826683" lon="-4.268550">
        <ele>1450.0</ele>
        <time>2014-06-30T15:55:43Z</time>
      </trkpt>
      <trkpt lat="40.826683" lon="-4.268583">
        <ele>1453.0</ele>
        <time>2014-06-30T15:55:44Z</time>
      </trkpt>
      <trkpt lat="40.826650" lon="-4.268600">
        <ele>1457.0</ele>
        <time>2014-06-30T15:55:45Z</time>
      </trkpt>
      <trkpt lat="40.826617" lon="-4.268617">
        <ele>1460.0</ele>
        <time>2014-06-30T15:55:46Z</time>
      </trkpt>
      <trkpt lat="40.826567" lon="-4.268617">
        <ele>1456.0</ele>
        <time>2014-06-30T15:55:47Z</time>
      </trkpt>
      <trkpt lat="40.826517" lon="-4.268633">
        <ele>1458.0</ele>
        <time>2014-06-30T15:55:48Z</time>
      </trkpt>
      <trkpt lat="40.826450" lon="-4.268600">
        <ele>1460.0</ele>
        <time>2014-06-30T15:55:49Z</time>
      </trkpt>
      <trkpt lat="40.826383" lon="-4.268550">
        <ele>1462.0</ele>
        <time>2014-06-30T15:55:50Z</time>
      </trkpt>
      <trkpt lat="40.826333" lon="-4.268433">
        <ele>1463.0</ele>
        <time>2014-06-30T15:55:51Z</time>
      </trkpt>
      <trkpt lat="40.826283" lon="-4.268300">
        <ele>1465.0</ele>
        <time>2014-06-30T15:55:52Z</time>
      </trkpt>
      <trkpt lat="40.826250" lon="-4.268117">
        <ele>1465.0</ele>
        <time>2014-06-30T15:55:53Z</time>
      </trkpt>
      <trkpt lat="40.826267" lon="-4.267933">
        <ele>1466.0</ele>
        <time>2014-06-30T15:55:54Z</time>
      </trkpt>
      <trkpt lat="40.826317" lon="-4.267767">
        <ele>1466.0</ele>
        <time>2014-06-30T15:55:55Z</time>
      </trkpt>
      <trkpt lat="40.826400" lon="-4.267633">
        <ele>1468.0</ele>
        <time>2014-06-30T15:55:56Z</time>
      </trkpt>
      <trkpt lat="40.826467" lon="-4.267567">
        <ele>1470.0</ele>
        <time>2014-06-30T15:55:57Z</time>
      </trkpt>
      <trkpt lat="40.826550" lon="-4.267517">
        <ele>1472.0</ele>
        <time>2014-06-30T15:55:58Z</time>
      </trkpt>
      <trkpt lat="40.826600" lon="-4.267483">
        <ele>1475.0</ele>
        <time>2014-06-30T15:55:59Z</time>
      </trkpt>
      <trkpt lat="40.826650" lon="-4.267467">
        <ele>1477.0</ele>
        <time>2014-06-30T15:56:00Z</time>
      </trkpt>
      <trkpt lat="40.826683" lon="-4.267450">
        <ele>1478.0</ele>
        <time>2014-06-30T15:56:01Z</time>
      </trkpt>
      <trkpt lat="40.826717" lon="-4.267433">
        <ele>1480.0</ele>
        <time>2014-06-30T15:56:02Z</time>
      </trkpt>
      <trkpt lat="40.826750" lon="-4.267433">
        <ele>1482.0</ele>
        <time>2014-06-30T15:56:03Z</time>
      </trkpt>
      <trkpt lat="40.826783" lon="-4.267450">
        <ele>1482.0</ele>
        <time>2014-06-30T15:56:04Z</time>
      </trkpt>
      <trkpt lat="40.826783" lon="-4.267483">
        <ele>1484.0</ele>
        <time>2014-06-30T15:56:05Z</time>
      </trkpt>
      <trkpt lat="40.826767" lon="-4.267533">
        <ele>1484.0</ele>
        <time>2014-06-30T15:56:06Z</time>
      </trkpt>
      <trkpt lat="40.826700" lon="-4.267567">
        <ele>1486.0</ele>
        <time>2014-06-30T15:56:07Z</time>
      </trkpt>
      <trkpt lat="40.826617" lon="-4.267567">
        <ele>1488.0</ele>
        <time>2014-06-30T15:56:08Z</time>
      </trkpt>
      <trkpt lat="40.826533" lon="-4.267550">
        <ele>1490.0</ele>
        <time>2014-06-30T15:56:09Z</time>
      </trkpt>
      <trkpt lat="40.826450" lon="-4.267517">
        <ele>1492.0</ele>
        <time>2014-06-30T15:56:10Z</time>
      </trkpt>
      <trkpt lat="40.826367" lon="-4.267467">
        <ele>1493.0</ele>
        <time>2014-06-30T15:56:11Z</time>
      </trkpt>
      <trkpt lat="40.826283" lon="-4.267417">
        <ele>1494.0</ele>
        <time>2014-06-30T15:56:12Z</time>
      </trkpt>
      <trkpt lat="40.826200" lon="-4.267350">
        <ele>1495.0</ele>
        <time>2014-06-30T15:56:13Z</time>
      </trkpt>
      <trkpt lat="40.826133" lon="-4.267283">
        <ele>1496.0</ele>
        <time>2014-06-30T15:56:14Z</time>
      </trkpt>
      <trkpt lat="40.826050" lon="-4.267183">
        <ele>1497.0</ele>
        <time>2014-06-30T15:56:15Z</time>
      </trkpt>
      <trkpt lat="40.825983" lon="-4.267067">
        <ele>1497.0</ele>
        <time>2014-06-30T15:56:16Z</time>
      </trkpt>
      <trkpt lat="40.825917" lon="-4.266967">
        <ele>1498.0</ele>
        <time>2014-06-30T15:56:17Z</time>
      </trkpt>
      <trkpt lat="40.825867" lon="-4.266833">
        <ele>1498.0</ele>
        <time>2014-06-30T15:56:18Z</time>
      </trkpt>
      <trkpt lat="40.825800" lon="-4.266700">
        <ele>1496.0</ele>
        <time>2014-06-30T15:56:19Z</time>
      </trkpt>
      <trkpt lat="40.825750" lon="-4.266567">
        <ele>1495.0</ele>
        <time>2014-06-30T15:56:20Z</time>
      </trkpt>
      <trkpt lat="40.825717" lon="-4.266400">
        <ele>1493.0</ele>
        <time>2014-06-30T15:56:21Z</time>
      </trkpt>
      <trkpt lat="40.825700" lon="-4.266217">
        <ele>1493.0</ele>
        <time>2014-06-30T15:56:22Z</time>
      </trkpt>
      <trkpt lat="40.825700" lon="-4.266033">
        <ele>1493.0</ele>
        <time>2014-06-30T15:56:23Z</time>
      </trkpt>
      <trkpt lat="40.825733" lon="-4.265867">
        <ele>1492.0</ele>
        <time>2014-06-30T15:56:24Z</time>
      </trkpt>
      <trkpt lat="40.825817" lon="-4.265750">
        <ele>1491.0</ele>
        <time>2014-06-30T15:56:25Z</time>
      </trkpt>
      <trkpt lat="40.825883" lon="-4.265683">
        <ele>1490.0</ele>
        <time>2014-06-30T15:56:26Z</time>
      </trkpt>
      <trkpt lat="40.825967" lon="-4.265667">
        <ele>1491.0</ele>
        <time>2014-06-30T15:56:27Z</time>
      </trkpt>
      <trkpt lat="40.826033" lon="-4.265667">
        <ele>1491.0</ele>
        <time>2014-06-30T15:56:28Z</time>
      </trkpt>
      <trkpt lat="40.826100" lon="-4.265650">
        <ele>1491.0</ele>
        <time>2014-06-30T15:56:29Z</time>
      </trkpt>
      <trkpt lat="40.826183" lon="-4.265617">
        <ele>1491.0</ele>
        <time>2014-06-30T15:56:30Z</time>
      </trkpt>
      <trkpt lat="40.826283" lon="-4.265583">
        <ele>1491.0</ele>
        <time>2014-06-30T15:56:31Z</time>
      </trkpt>
      <trkpt lat="40.826367" lon="-4.265600">
        <ele>1491.0</ele>
        <time>2014-06-30T15:56:32Z</time>
      </trkpt>
      <trkpt lat="40.826450" lon="-4.265633">
        <ele>1492.0</ele>
        <time>2014-06-30T15:56:33Z</time>
      </trkpt>
      <trkpt lat="40.826517" lon="-4.265683">
        <ele>1491.0</ele>
        <time>2014-06-30T15:56:34Z</time>
      </trkpt>
      <trkpt lat="40.826567" lon="-4.265717">
        <ele>1491.0</ele>
        <time>2014-06-30T15:56:35Z</time>
      </trkpt>
      <trkpt lat="40.826617" lon="-4.265750">
        <ele>1491.0</ele>
        <time>2014-06-30T15:56:36Z</time>
      </trkpt>
      <trkpt lat="40.826650" lon="-4.265767">
        <ele>1492.0</ele>
        <time>2014-06-30T15:56:37Z</time>
      </trkpt>
      <trkpt lat="40.826683" lon="-4.265783">
        <ele>1492.0</ele>
        <time>2014-06-30T15:56:38Z</time>
      </trkpt>
      <trkpt lat="40.826717" lon="-4.265800">
        <ele>1492.0</ele>
        <time>2014-06-30T15:56:39Z</time>
      </trkpt>
      <trkpt lat="40.826750" lon="-4.265850">
        <ele>1492.0</ele>
        <time>2014-06-30T15:56:40Z</time>
      </trkpt>
      <trkpt lat="40.826783" lon="-4.265917">
        <ele>1492.0</ele>
        <time>2014-06-30T15:56:41Z</time>
      </trkpt>
      <trkpt lat="40.826800" lon="-4.265967">
        <ele>1492.0</ele>
        <time>2014-06-30T15:56:42Z</time>
      </trkpt>
      <trkpt lat="40.826800" lon="-4.266000">
        <ele>1492.0</ele>
        <time>2014-06-30T15:56:43Z</time>
      </trkpt>
      <trkpt lat="40.826817" lon="-4.266033">
        <ele>1492.0</ele>
        <time>2014-06-30T15:56:44Z</time>
      </trkpt>
      <trkpt lat="40.826833" lon="-4.266067">
        <ele>1492.0</ele>
        <time>2014-06-30T15:56:45Z</time>
      </trkpt>
      <trkpt lat="40.826850" lon="-4.266117">
        <ele>1492.0</ele>
        <time>2014-06-30T15:56:46Z</time>
      </trkpt>
      <trkpt lat="40.826867" lon="-4.266167">
        <ele>1491.0</ele>
        <time>2014-06-30T15:56:47Z</time>
      </trkpt>
      <trkpt lat="40.826867" lon="-4.266233">
        <ele>1490.0</ele>
        <time>2014-06-30T15:56:48Z</time>
      </trkpt>
      <trkpt lat="40.826883" lon="-4.266300">
        <ele>1490.0</ele>
        <time>2014-06-30T15:56:49Z</time>
      </trkpt>
      <trkpt lat="40.826883" lon="-4.266367">
        <ele>1489.0</ele>
        <time>2014-06-30T15:56:50Z</time>
      </trkpt>
      <trkpt lat="40.826883" lon="-4.266417">
        <ele>1488.0</ele>
        <time>2014-06-30T15:56:51Z</time>
      </trkpt>
      <trkpt lat="40.826900" lon="-4.266467">
        <ele>1486.0</ele>
        <time>2014-06-30T15:56:52Z</time>
      </trkpt>
      <trkpt lat="40.826917" lon="-4.266500">
        <ele>1483.0</ele>
        <time>2014-06-30T15:56:53Z</time>
      </trkpt>
      <trkpt lat="40.826950" lon="-4.266550">
        <ele>1481.0</ele>
        <time>2014-06-30T15:56:54Z</time>
      </trkpt>
      <trkpt lat="40.827000" lon="-4.266583">
        <ele>1480.0</ele>
        <time>2014-06-30T15:56:55Z</time>
      </trkpt>
      <trkpt lat="40.827033" lon="-4.266633">
        <ele>1483.0</ele>
        <time>2014-06-30T15:56:56Z</time>
      </trkpt>
      <trkpt lat="40.827083" lon="-4.266667">
        <ele>1483.0</ele>
        <time>2014-06-30T15:56:57Z</time>
      </trkpt>
      <trkpt lat="40.827117" lon="-4.266667">
        <ele>1482.0</ele>
        <time>2014-06-30T15:56:58Z</time>
      </trkpt>
      <trkpt lat="40.827150" lon="-4.266667">
        <ele>1482.0</ele>
        <time>2014-06-30T15:56:59Z</time>
      </trkpt>
      <trkpt lat="40.827200" lon="-4.266650">
        <ele>1481.0</ele>
        <time>2014-06-30T15:57:00Z</time>
      </trkpt>
      <trkpt lat="40.827233" lon="-4.266650">
        <ele>1481.0</ele>
        <time>2014-06-30T15:57:01Z</time>
      </trkpt>
      <trkpt lat="40.827283" lon="-4.266683">
        <ele>1480.0</ele>
        <time>2014-06-30T15:57:02Z</time>
      </trkpt>
      <trkpt lat="40.827350" lon="-4.266717">
        <ele>1480.0</ele>
        <time>2014-06-30T15:57:03Z</time>
      </trkpt>
      <trkpt lat="40.827417" lon="-4.266717">
        <ele>1479.0</ele>
        <time>2014-06-30T15:57:04Z</time>
      </trkpt>
      <trkpt lat="40.827483" lon="-4.266700">
        <ele>1479.0</ele>
        <time>2014-06-30T15:57:05Z</time>
      </trkpt>
      <trkpt lat="40.827550" lon="-4.266683">
        <ele>1478.0</ele>
        <time>2014-06-30T15:57:06Z</time>
      </trkpt>
      <trkpt lat="40.827617" lon="-4.266683">
        <ele>1478.0</ele>
        <time>2014-06-30T15:57:07Z</time>
      </trkpt>
      <trkpt lat="40.827683" lon="-4.266683">
        <ele>1477.0</ele>
        <time>2014-06-30T15:57:08Z</time>
      </trkpt>
      <trkpt lat="40.827750" lon="-4.266683">
        <ele>1477.0</ele>
        <time>2014-06-30T15:57:09Z</time>
      </trkpt>
      <trkpt lat="40.827833" lon="-4.266683">
        <ele>1476.0</ele>
        <time>2014-06-30T15:57:10Z</time>
      </trkpt>
      <trkpt lat="40.827900" lon="-4.266683">
        <ele>1476.0</ele>
        <time>2014-06-30T15:57:11Z</time>
      </trkpt>
      <trkpt lat="40.827950" lon="-4.266683">
        <ele>1476.0</ele>
        <time>2014-06-30T15:57:12Z</time>
      </trkpt>
      <trkpt lat="40.828017" lon="-4.266683">
        <ele>1475.0</ele>
        <time>2014-06-30T15:57:13Z</time>
      </trkpt>
      <trkpt lat="40.828083" lon="-4.266700">
        <ele>1475.0</ele>
        <time>2014-06-30T15:57:14Z</time>
      </trkpt>
      <trkpt lat="40.828150" lon="-4.266717">
        <ele>1475.0</ele>
        <time>2014-06-30T15:57:15Z</time>
      </trkpt>
      <trkpt lat="40.828233" lon="-4.266733">
        <ele>1474.0</ele>
        <time>2014-06-30T15:57:16Z</time>
      </trkpt>
      <trkpt lat="40.828317" lon="-4.266750">
        <ele>1474.0</ele>
        <time>2014-06-30T15:57:17Z</time>
      </trkpt>
      <trkpt lat="40.828367" lon="-4.266767">
        <ele>1474.0</ele>
        <time>2014-06-30T15:57:18Z</time>
      </trkpt>
      <trkpt lat="40.828433" lon="-4.266783">
        <ele>1473.0</ele>
        <time>2014-06-30T15:57:19Z</time>
      </trkpt>
      <trkpt lat="40.828500" lon="-4.266800">
        <ele>1473.0</ele>
        <time>2014-06-30T15:57:20Z</time>
      </trkpt>
      <trkpt lat="40.828567" lon="-4.266800">
        <ele>1473.0</ele>
        <time>2014-06-30T15:57:21Z</time>
      </trkpt>
      <trkpt lat="40.828617" lon="-4.266800">
        <ele>1472.0</ele>
        <time>2014-06-30T15:57:22Z</time>
      </trkpt>
      <trkpt lat="40.828650" lon="-4.266817">
        <ele>1472.0</ele>
        <time>2014-06-30T15:57:23Z</time>
      </trkpt>
      <trkpt lat="40.828683" lon="-4.266867">
        <ele>1472.0</ele>
        <time>2014-06-30T15:57:24Z</time>
      </trkpt>
      <trkpt lat="40.828733" lon="-4.266883">
        <ele>1472.0</ele>
        <time>2014-06-30T15:57:25Z</time>
      </trkpt>
      <trkpt lat="40.828783" lon="-4.266917">
        <ele>1472.0</ele>
        <time>2014-06-30T15:57:26Z</time>
      </trkpt>
      <trkpt lat="40.828833" lon="-4.266950">
        <ele>1471.0</ele>
        <time>2014-06-30T15:57:27Z</time>
      </trkpt>
      <trkpt lat="40.828867" lon="-4.266983">
        <ele>1471.0</ele>
        <time>2014-06-30T15:57:28Z</time>
      </trkpt>
      <trkpt lat="40.828900" lon="-4.267000">
        <ele>1471.0</ele>
        <time>2014-06-30T15:57:29Z</time>
      </trkpt>
      <trkpt lat="40.828933" lon="-4.267033">
        <ele>1471.0</ele>
        <time>2014-06-30T15:57:30Z</time>
      </trkpt>
      <trkpt lat="40.828950" lon="-4.267067">
        <ele>1472.0</ele>
        <time>2014-06-30T15:57:31Z</time>
      </trkpt>
      <trkpt lat="40.828983" lon="-4.267117">
        <ele>1471.0</ele>
        <time>2014-06-30T15:57:32Z</time>
      </trkpt>
      <trkpt lat="40.829017" lon="-4.267150">
        <ele>1471.0</ele>
        <time>2014-06-30T15:57:33Z</time>
      </trkpt>
      <trkpt lat="40.829050" lon="-4.267183">
        <ele>1471.0</ele>
        <time>2014-06-30T15:57:34Z</time>
      </trkpt>
      <trkpt lat="40.829067" lon="-4.267233">
        <ele>1471.0</ele>
        <time>2014-06-30T15:57:35Z</time>
      </trkpt>
      <trkpt lat="40.829083" lon="-4.267267">
        <ele>1471.0</ele>
        <time>2014-06-30T15:57:36Z</time>
      </trkpt>
      <trkpt lat="40.829117" lon="-4.267317">
        <ele>1471.0</ele>
        <time>2014-06-30T15:57:37Z</time>
      </trkpt>
      <trkpt lat="40.829150" lon="-4.267367">
        <ele>1471.0</ele>
        <time>2014-06-30T15:57:38Z</time>
      </trkpt>
      <trkpt lat="40.829183" lon="-4.267417">
        <ele>1470.0</ele>
        <time>2014-06-30T15:57:39Z</time>
      </trkpt>
      <trkpt lat="40.829200" lon="-4.267467">
        <ele>1470.0</ele>
        <time>2014-06-30T15:57:40Z</time>
      </trkpt>
      <trkpt lat="40.829217" lon="-4.267500">
        <ele>1470.0</ele>
        <time>2014-06-30T15:57:41Z</time>
      </trkpt>
      <trkpt lat="40.829233" lon="-4.267533">
        <ele>1470.0</ele>
        <time>2014-06-30T15:57:42Z</time>
      </trkpt>
      <trkpt lat="40.829250" lon="-4.267583">
        <ele>1469.0</ele>
        <time>2014-06-30T15:57:43Z</time>
      </trkpt>
      <trkpt lat="40.829267" lon="-4.267633">
        <ele>1469.0</ele>
        <time>2014-06-30T15:57:44Z</time>
      </trkpt>
      <trkpt lat="40.829283" lon="-4.267667">
        <ele>1469.0</ele>
        <time>2014-06-30T15:57:45Z</time>
      </trkpt>
      <trkpt lat="40.829300" lon="-4.267700">
        <ele>1468.0</ele>
        <time>2014-06-30T15:57:46Z</time>
      </trkpt>
      <trkpt lat="40.829333" lon="-4.267717">
        <ele>1468.0</ele>
        <time>2014-06-30T15:57:47Z</time>
      </trkpt>
      <trkpt lat="40.829383" lon="-4.267767">
        <ele>1468.0</ele>
        <time>2014-06-30T15:57:48Z</time>
      </trkpt>
      <trkpt lat="40.829433" lon="-4.267833">
        <ele>1467.0</ele>
        <time>2014-06-30T15:57:49Z</time>
      </trkpt>
      <trkpt lat="40.829467" lon="-4.267900">
        <ele>1467.0</ele>
        <time>2014-06-30T15:57:50Z</time>
      </trkpt>
      <trkpt lat="40.829500" lon="-4.267950">
        <ele>1466.0</ele>
        <time>2014-06-30T15:57:51Z</time>
      </trkpt>
      <trkpt lat="40.829533" lon="-4.267983">
        <ele>1466.0</ele>
        <time>2014-06-30T15:57:52Z</time>
      </trkpt>
      <trkpt lat="40.829567" lon="-4.268000">
        <ele>1465.0</ele>
        <time>2014-06-30T15:57:53Z</time>
      </trkpt>
      <trkpt lat="40.829600" lon="-4.268000">
        <ele>1465.0</ele>
        <time>2014-06-30T15:57:54Z</time>
      </trkpt>
      <trkpt lat="40.829650" lon="-4.268000">
        <ele>1464.0</ele>
        <time>2014-06-30T15:57:55Z</time>
      </trkpt>
      <trkpt lat="40.829700" lon="-4.268017">
        <ele>1464.0</ele>
        <time>2014-06-30T15:57:56Z</time>
      </trkpt>
      <trkpt lat="40.829750" lon="-4.268067">
        <ele>1463.0</ele>
        <time>2014-06-30T15:57:57Z</time>
      </trkpt>
      <trkpt lat="40.829800" lon="-4.268117">
        <ele>1463.0</ele>
        <time>2014-06-30T15:57:58Z</time>
      </trkpt>
      <trkpt lat="40.829833" lon="-4.268167">
        <ele>1462.0</ele>
        <time>2014-06-30T15:57:59Z</time>
      </trkpt>
      <trkpt lat="40.829883" lon="-4.268200">
        <ele>1462.0</ele>
        <time>2014-06-30T15:58:00Z</time>
      </trkpt>
      <trkpt lat="40.829917" lon="-4.268217">
        <ele>1461.0</ele>
        <time>2014-06-30T15:58:01Z</time>
      </trkpt>
      <trkpt lat="40.829967" lon="-4.268250">
        <ele>1460.0</ele>
        <time>2014-06-30T15:58:02Z</time>
      </trkpt>
      <trkpt lat="40.830017" lon="-4.268283">
        <ele>1460.0</ele>
        <time>2014-06-30T15:58:03Z</time>
      </trkpt>
      <trkpt lat="40.830050" lon="-4.268350">
        <ele>1460.0</ele>
        <time>2014-06-30T15:58:04Z</time>
      </trkpt>
      <trkpt lat="40.830083" lon="-4.268417">
        <ele>1459.0</ele>
        <time>2014-06-30T15:58:05Z</time>
      </trkpt>
      <trkpt lat="40.830100" lon="-4.268467">
        <ele>1458.0</ele>
        <time>2014-06-30T15:58:06Z</time>
      </trkpt>
      <trkpt lat="40.830117" lon="-4.268500">
        <ele>1457.0</ele>
        <time>2014-06-30T15:58:07Z</time>
      </trkpt>
      <trkpt lat="40.830150" lon="-4.268517">
        <ele>1456.0</ele>
        <time>2014-06-30T15:58:08Z</time>
      </trkpt>
      <trkpt lat="40.830200" lon="-4.268517">
        <ele>1455.0</ele>
        <time>2014-06-30T15:58:09Z</time>
      </trkpt>
      <trkpt lat="40.830250" lon="-4.268500">
        <ele>1455.0</ele>
        <time>2014-06-30T15:58:10Z</time>
      </trkpt>
      <trkpt lat="40.830317" lon="-4.268450">
        <ele>1454.0</ele>
        <time>2014-06-30T15:58:11Z</time>
      </trkpt>
      <trkpt lat="40.830383" lon="-4.268333">
        <ele>1453.0</ele>
        <time>2014-06-30T15:58:12Z</time>
      </trkpt>
      <trkpt lat="40.830450" lon="-4.268200">
        <ele>1451.0</ele>
        <time>2014-06-30T15:58:13Z</time>
      </trkpt>
      <trkpt lat="40.830533" lon="-4.268067">
        <ele>1450.0</ele>
        <time>2014-06-30T15:58:14Z</time>
      </trkpt>
      <trkpt lat="40.830617" lon="-4.267917">
        <ele>1448.0</ele>
        <time>2014-06-30T15:58:15Z</time>
      </trkpt>
      <trkpt lat="40.830683" lon="-4.267750">
        <ele>1446.0</ele>
        <time>2014-06-30T15:58:16Z</time>
      </trkpt>
      <trkpt lat="40.830750" lon="-4.267550">
        <ele>1444.0</ele>
        <time>2014-06-30T15:58:17Z</time>
      </trkpt>
      <trkpt lat="40.830833" lon="-4.267350">
        <ele>1442.0</ele>
        <time>2014-06-30T15:58:18Z</time>
      </trkpt>
      <trkpt lat="40.830933" lon="-4.267167">
        <ele>1439.0</ele>
        <time>2014-06-30T15:58:19Z</time>
      </trkpt>
      <trkpt lat="40.831017" lon="-4.266967">
        <ele>1437.0</ele>
        <time>2014-06-30T15:58:20Z</time>
      </trkpt>
      <trkpt lat="40.831083" lon="-4.266767">
        <ele>1435.0</ele>
        <time>2014-06-30T15:58:21Z</time>
      </trkpt>
      <trkpt lat="40.831167" lon="-4.266533">
        <ele>1432.0</ele>
        <time>2014-06-30T15:58:22Z</time>
      </trkpt>
      <trkpt lat="40.831233" lon="-4.266300">
        <ele>1429.0</ele>
        <time>2014-06-30T15:58:23Z</time>
      </trkpt>
      <trkpt lat="40.831283" lon="-4.266100">
        <ele>1425.0</ele>
        <time>2014-06-30T15:58:24Z</time>
      </trkpt>
      <trkpt lat="40.831317" lon="-4.265917">
        <ele>1421.0</ele>
        <time>2014-06-30T15:58:25Z</time>
      </trkpt>
      <trkpt lat="40.831333" lon="-4.265733">
        <ele>1415.0</ele>
        <time>2014-06-30T15:58:26Z</time>
      </trkpt>
      <trkpt lat="40.831367" lon="-4.265533">
        <ele>1411.0</ele>
        <time>2014-06-30T15:58:27Z</time>
      </trkpt>
      <trkpt lat="40.831400" lon="-4.265333">
        <ele>1407.0</ele>
        <time>2014-06-30T15:58:28Z</time>
      </trkpt>
      <trkpt lat="40.831450" lon="-4.265133">
        <ele>1402.0</ele>
        <time>2014-06-30T15:58:29Z</time>
      </trkpt>
      <trkpt lat="40.831500" lon="-4.264933">
        <ele>1397.0</ele>
        <time>2014-06-30T15:58:30Z</time>
      </trkpt>
      <trkpt lat="40.831550" lon="-4.264750">
        <ele>1392.0</ele>
        <time>2014-06-30T15:58:31Z</time>
      </trkpt>
      <trkpt lat="40.831567" lon="-4.264567">
        <ele>1390.0</ele>
        <time>2014-06-30T15:58:32Z</time>
      </trkpt>
      <trkpt lat="40.831567" lon="-4.264417">
        <ele>1389.0</ele>
        <time>2014-06-30T15:58:33Z</time>
      </trkpt>
      <trkpt lat="40.831600" lon="-4.264300">
        <ele>1388.0</ele>
        <time>2014-06-30T15:58:34Z</time>
      </trkpt>
      <trkpt lat="40.831633" lon="-4.264183">
        <ele>1387.0</ele>
        <time>2014-06-30T15:58:35Z</time>
      </trkpt>
      <trkpt lat="40.831700" lon="-4.264067">
        <ele>1386.0</ele>
        <time>2014-06-30T15:58:36Z</time>
      </trkpt>
      <trkpt lat="40.831783" lon="-4.263983">
        <ele>1384.0</ele>
        <time>2014-06-30T15:58:37Z</time>
      </trkpt>
      <trkpt lat="40.831867" lon="-4.263933">
        <ele>1383.0</ele>
        <time>2014-06-30T15:58:38Z</time>
      </trkpt>
      <trkpt lat="40.831917" lon="-4.263900">
        <ele>1391.0</ele>
        <time>2014-06-30T15:58:39Z</time>
      </trkpt>
      <trkpt lat="40.831967" lon="-4.263900">
        <ele>1391.0</ele>
        <time>2014-06-30T15:58:40Z</time>
      </trkpt>
      <trkpt lat="40.832017" lon="-4.263933">
        <ele>1391.0</ele>
        <time>2014-06-30T15:58:41Z</time>
      </trkpt>
      <trkpt lat="40.832033" lon="-4.263967">
        <ele>1391.0</ele>
        <time>2014-06-30T15:58:42Z</time>
      </trkpt>
      <trkpt lat="40.832033" lon="-4.263983">
        <ele>1390.0</ele>
        <time>2014-06-30T15:58:43Z</time>
      </trkpt>
      <trkpt lat="40.832017" lon="-4.264000">
        <ele>1390.0</ele>
        <time>2014-06-30T15:58:44Z</time>
      </trkpt>
      <trkpt lat="40.831983" lon="-4.264000">
        <ele>1390.0</ele>
        <time>2014-06-30T15:58:45Z</time>
      </trkpt>
      <trkpt lat="40.831933" lon="-4.263983">
        <ele>1390.0</ele>
        <time>2014-06-30T15:58:46Z</time>
      </trkpt>
      <trkpt lat="40.831867" lon="-4.263933">
        <ele>1390.0</ele>
        <time>2014-06-30T15:58:47Z</time>
      </trkpt>
      <trkpt lat="40.831800" lon="-4.263850">
        <ele>1390.0</ele>
        <time>2014-06-30T15:58:48Z</time>
      </trkpt>
      <trkpt lat="40.831767" lon="-4.263767">
        <ele>1390.0</ele>
        <time>2014-06-30T15:58:49Z</time>
      </trkpt>
      <trkpt lat="40.831717" lon="-4.263700">
        <ele>1390.0</ele>
        <time>2014-06-30T15:58:50Z</time>
      </trkpt>
      <trkpt lat="40.831667" lon="-4.263650">
        <ele>1390.0</ele>
        <time>2014-06-30T15:58:51Z</time>
      </trkpt>
      <trkpt lat="40.831583" lon="-4.263583">
        <ele>1390.0</ele>
        <time>2014-06-30T15:58:52Z</time>
      </trkpt>
      <trkpt lat="40.831517" lon="-4.263483">
        <ele>1390.0</ele>
        <time>2014-06-30T15:58:53Z</time>
      </trkpt>
      <trkpt lat="40.831467" lon="-4.263350">
        <ele>1390.0</ele>
        <time>2014-06-30T15:58:54Z</time>
      </trkpt>
      <trkpt lat="40.831433" lon="-4.263183">
        <ele>1390.0</ele>
        <time>2014-06-30T15:58:55Z</time>
      </trkpt>
      <trkpt lat="40.831433" lon="-4.263017">
        <ele>1391.0</ele>
        <time>2014-06-30T15:58:56Z</time>
      </trkpt>
      <trkpt lat="40.831467" lon="-4.262850">
        <ele>1391.0</ele>
        <time>2014-06-30T15:58:57Z</time>
      </trkpt>
      <trkpt lat="40.831517" lon="-4.262700">
        <ele>1392.0</ele>
        <time>2014-06-30T15:58:58Z</time>
      </trkpt>
      <trkpt lat="40.831583" lon="-4.262583">
        <ele>1392.0</ele>
        <time>2014-06-30T15:58:59Z</time>
      </trkpt>
      <trkpt lat="40.831667" lon="-4.262467">
        <ele>1393.0</ele>
        <time>2014-06-30T15:59:00Z</time>
      </trkpt>
      <trkpt lat="40.831733" lon="-4.262367">
        <ele>1394.0</ele>
        <time>2014-06-30T15:59:01Z</time>
      </trkpt>
      <trkpt lat="40.831800" lon="-4.262300">
        <ele>1395.0</ele>
        <time>2014-06-30T15:59:02Z</time>
      </trkpt>
      <trkpt lat="40.831867" lon="-4.262250">
        <ele>1397.0</ele>
        <time>2014-06-30T15:59:03Z</time>
      </trkpt>
      <trkpt lat="40.831917" lon="-4.262250">
        <ele>1398.0</ele>
        <time>2014-06-30T15:59:04Z</time>
      </trkpt>
      <trkpt lat="40.831967" lon="-4.262267">
        <ele>1397.0</ele>
        <time>2014-06-30T15:59:05Z</time>
      </trkpt>
      <trkpt lat="40.832000" lon="-4.262317">
        <ele>1397.0</ele>
        <time>2014-06-30T15:59:06Z</time>
      </trkpt>
      <trkpt lat="40.832000" lon="-4.262367">
        <ele>1397.0</ele>
        <time>2014-06-30T15:59:07Z</time>
      </trkpt>
      <trkpt lat="40.831950" lon="-4.262367">
        <ele>1398.0</ele>
        <time>2014-06-30T15:59:08Z</time>
      </trkpt>
      <trkpt lat="40.831883" lon="-4.262317">
        <ele>1398.0</ele>
        <time>2014-06-30T15:59:09Z</time>
      </trkpt>
      <trkpt lat="40.831800" lon="-4.262200">
        <ele>1398.0</ele>
        <time>2014-06-30T15:59:10Z</time>
      </trkpt>
      <trkpt lat="40.831750" lon="-4.262017">
        <ele>1398.0</ele>
        <time>2014-06-30T15:59:11Z</time>
      </trkpt>
      <trkpt lat="40.831750" lon="-4.261833">
        <ele>1398.0</ele>
        <time>2014-06-30T15:59:12Z</time>
      </trkpt>
      <trkpt lat="40.831783" lon="-4.261667">
        <ele>1399.0</ele>
        <time>2014-06-30T15:59:13Z</time>
      </trkpt>
      <trkpt lat="40.831800" lon="-4.261533">
        <ele>1400.0</ele>
        <time>2014-06-30T15:59:14Z</time>
      </trkpt>
      <trkpt lat="40.831833" lon="-4.261400">
        <ele>1401.0</ele>
        <time>2014-06-30T15:59:15Z</time>
      </trkpt>
      <trkpt lat="40.831867" lon="-4.261283">
        <ele>1402.0</ele>
        <time>2014-06-30T15:59:16Z</time>
      </trkpt>
      <trkpt lat="40.831917" lon="-4.261150">
        <ele>1403.0</ele>
        <time>2014-06-30T15:59:17Z</time>
      </trkpt>
      <trkpt lat="40.831983" lon="-4.261050">
        <ele>1403.0</ele>
        <time>2014-06-30T15:59:18Z</time>
      </trkpt>
      <trkpt lat="40.832083" lon="-4.260967">
        <ele>1403.0</ele>
        <time>2014-06-30T15:59:19Z</time>
      </trkpt>
      <trkpt lat="40.832167" lon="-4.260933">
        <ele>1404.0</ele>
        <time>2014-06-30T15:59:20Z</time>
      </trkpt>
      <trkpt lat="40.832233" lon="-4.260933">
        <ele>1405.0</ele>
        <time>2014-06-30T15:59:21Z</time>
      </trkpt>
      <trkpt lat="40.832267" lon="-4.260950">
        <ele>1405.0</ele>
        <time>2014-06-30T15:59:22Z</time>
      </trkpt>
      <trkpt lat="40.832300" lon="-4.260983">
        <ele>1406.0</ele>
        <time>2014-06-30T15:59:23Z</time>
      </trkpt>
      <trkpt lat="40.832300" lon="-4.261017">
        <ele>1406.0</ele>
        <time>2014-06-30T15:59:24Z</time>
      </trkpt>
      <trkpt lat="40.832300" lon="-4.261050">
        <ele>1406.0</ele>
        <time>2014-06-30T15:59:25Z</time>
      </trkpt>
      <trkpt lat="40.832267" lon="-4.261067">
        <ele>1406.0</ele>
        <time>2014-06-30T15:59:26Z</time>
      </trkpt>
      <trkpt lat="40.832217" lon="-4.261067">
        <ele>1406.0</ele>
        <time>2014-06-30T15:59:27Z</time>
      </trkpt>
      <trkpt lat="40.832133" lon="-4.261017">
        <ele>1405.0</ele>
        <time>2014-06-30T15:59:28Z</time>
      </trkpt>
      <trkpt lat="40.832050" lon="-4.260917">
        <ele>1405.0</ele>
        <time>2014-06-30T15:59:29Z</time>
      </trkpt>
      <trkpt lat="40.831983" lon="-4.260783">
        <ele>1404.0</ele>
        <time>2014-06-30T15:59:30Z</time>
      </trkpt>
      <trkpt lat="40.831933" lon="-4.260617">
        <ele>1403.0</ele>
        <time>2014-06-30T15:59:31Z</time>
      </trkpt>
      <trkpt lat="40.831933" lon="-4.260433">
        <ele>1404.0</ele>
        <time>2014-06-30T15:59:32Z</time>
      </trkpt>
      <trkpt lat="40.831933" lon="-4.260250">
        <ele>1404.0</ele>
        <time>2014-06-30T15:59:33Z</time>
      </trkpt>
      <trkpt lat="40.831950" lon="-4.260083">
        <ele>1405.0</ele>
        <time>2014-06-30T15:59:34Z</time>
      </trkpt>
      <trkpt lat="40.831950" lon="-4.259933">
        <ele>1406.0</ele>
        <time>2014-06-30T15:59:35Z</time>
      </trkpt>
      <trkpt lat="40.831933" lon="-4.259800">
        <ele>1407.0</ele>
        <time>2014-06-30T15:59:36Z</time>
      </trkpt>
      <trkpt lat="40.831917" lon="-4.259650">
        <ele>1408.0</ele>
        <time>2014-06-30T15:59:37Z</time>
      </trkpt>
      <trkpt lat="40.831917" lon="-4.259483">
        <ele>1408.0</ele>
        <time>2014-06-30T15:59:38Z</time>
      </trkpt>
      <trkpt lat="40.831900" lon="-4.259317">
        <ele>1409.0</ele>
        <time>2014-06-30T15:59:39Z</time>
      </trkpt>
      <trkpt lat="40.831867" lon="-4.259167">
        <ele>1412.0</ele>
        <time>2014-06-30T15:59:40Z</time>
      </trkpt>
      <trkpt lat="40.831833" lon="-4.259033">
        <ele>1412.0</ele>
        <time>2014-06-30T15:59:41Z</time>
      </trkpt>
      <trkpt lat="40.831767" lon="-4.258917">
        <ele>1412.0</ele>
        <time>2014-06-30T15:59:42Z</time>
      </trkpt>
      <trkpt lat="40.831700" lon="-4.258783">
        <ele>1412.0</ele>
        <time>2014-06-30T15:59:43Z</time>
      </trkpt>
      <trkpt lat="40.831650" lon="-4.258650">
        <ele>1414.0</ele>
        <time>2014-06-30T15:59:44Z</time>
      </trkpt>
      <trkpt lat="40.831583" lon="-4.258617">
        <ele>1420.0</ele>
        <time>2014-06-30T15:59:45Z</time>
      </trkpt>
      <trkpt lat="40.831533" lon="-4.258600">
        <ele>1422.0</ele>
        <time>2014-06-30T15:59:46Z</time>
      </trkpt>
      <trkpt lat="40.831500" lon="-4.258617">
        <ele>1424.0</ele>
        <time>2014-06-30T15:59:47Z</time>
      </trkpt>
      <trkpt lat="40.831467" lon="-4.258633">
        <ele>1425.0</ele>
        <time>2014-06-30T15:59:48Z</time>
      </trkpt>
      <trkpt lat="40.831450" lon="-4.258650">
        <ele>1427.0</ele>
        <time>2014-06-30T15:59:49Z</time>
      </trkpt>
      <trkpt lat="40.831467" lon="-4.258667">
        <ele>1429.0</ele>
        <time>2014-06-30T15:59:50Z</time>
      </trkpt>
      <trkpt lat="40.831517" lon="-4.258683">
        <ele>1430.0</ele>
        <time>2014-06-30T15:59:51Z</time>
      </trkpt>
      <trkpt lat="40.831600" lon="-4.258667">
        <ele>1431.0</ele>
        <time>2014-06-30T15:59:52Z</time>
      </trkpt>
      <trkpt lat="40.831700" lon="-4.258600">
        <ele>1432.0</ele>
        <time>2014-06-30T15:59:53Z</time>
      </trkpt>
      <trkpt lat="40.831767" lon="-4.258483">
        <ele>1435.0</ele>
        <time>2014-06-30T15:59:54Z</time>
      </trkpt>
      <trkpt lat="40.831800" lon="-4.258350">
        <ele>1438.0</ele>
        <time>2014-06-30T15:59:55Z</time>
      </trkpt>
      <trkpt lat="40.831833" lon="-4.258200">
        <ele>1440.0</ele>
        <time>2014-06-30T15:59:56Z</time>
      </trkpt>
      <trkpt lat="40.831850" lon="-4.258067">
        <ele>1442.0</ele>
        <time>2014-06-30T15:59:57Z</time>
      </trkpt>
      <trkpt lat="40.831867" lon="-4.257950">
        <ele>1444.0</ele>
        <time>2014-06-30T15:59:58Z</time>
      </trkpt>
      <trkpt lat="40.831867" lon="-4.257800">
        <ele>1443.0</ele>
        <time>2014-06-30T15:59:59Z</time>
      </trkpt>
      <trkpt lat="40.831850" lon="-4.257633">
        <ele>1442.0</ele>
        <time>2014-06-30T16:00:00Z</time>
      </trkpt>
      <trkpt lat="40.831817" lon="-4.257450">
        <ele>1442.0</ele>
        <time>2014-06-30T16:00:01Z</time>
      </trkpt>
      <trkpt lat="40.831750" lon="-4.257300">
        <ele>1443.0</ele>
        <time>2014-06-30T16:00:02Z</time>
      </trkpt>
      <trkpt lat="40.831650" lon="-4.257200">
        <ele>1443.0</ele>
        <time>2014-06-30T16:00:03Z</time>
      </trkpt>
      <trkpt lat="40.831567" lon="-4.257150">
        <ele>1444.0</ele>
        <time>2014-06-30T16:00:04Z</time>
      </trkpt>
      <trkpt lat="40.831500" lon="-4.257133">
        <ele>1445.0</ele>
        <time>2014-06-30T16:00:05Z</time>
      </trkpt>
      <trkpt lat="40.831450" lon="-4.257133">
        <ele>1444.0</ele>
        <time>2014-06-30T16:00:06Z</time>
      </trkpt>
      <trkpt lat="40.831433" lon="-4.257133">
        <ele>1444.0</ele>
        <time>2014-06-30T16:00:07Z</time>
      </trkpt>
      <trkpt lat="40.831400" lon="-4.257117">
        <ele>1445.0</ele>
        <time>2014-06-30T16:00:08Z</time>
      </trkpt>
      <trkpt lat="40.831383" lon="-4.257083">
        <ele>1446.0</ele>
        <time>2014-06-30T16:00:09Z</time>
      </trkpt>
      <trkpt lat="40.831350" lon="-4.257050">
        <ele>1447.0</ele>
        <time>2014-06-30T16:00:10Z</time>
      </trkpt>
      <trkpt lat="40.831317" lon="-4.257050">
        <ele>1448.0</ele>
        <time>2014-06-30T16:00:11Z</time>
      </trkpt>
      <trkpt lat="40.831333" lon="-4.257067">
        <ele>1449.0</ele>
        <time>2014-06-30T16:00:12Z</time>
      </trkpt>
      <trkpt lat="40.831367" lon="-4.257083">
        <ele>1449.0</ele>
        <time>2014-06-30T16:00:13Z</time>
      </trkpt>
      <trkpt lat="40.831433" lon="-4.257083">
        <ele>1450.0</ele>
        <time>2014-06-30T16:00:14Z</time>
      </trkpt>
      <trkpt lat="40.831517" lon="-4.257050">
        <ele>1451.0</ele>
        <time>2014-06-30T16:00:15Z</time>
      </trkpt>
      <trkpt lat="40.831600" lon="-4.256967">
        <ele>1453.0</ele>
        <time>2014-06-30T16:00:16Z</time>
      </trkpt>
      <trkpt lat="40.831683" lon="-4.256850">
        <ele>1455.0</ele>
        <time>2014-06-30T16:00:17Z</time>
      </trkpt>
      <trkpt lat="40.831733" lon="-4.256700">
        <ele>1457.0</ele>
        <time>2014-06-30T16:00:18Z</time>
      </trkpt>
      <trkpt lat="40.831750" lon="-4.256517">
        <ele>1460.0</ele>
        <time>2014-06-30T16:00:19Z</time>
      </trkpt>
      <trkpt lat="40.831767" lon="-4.256350">
        <ele>1464.0</ele>
        <time>2014-06-30T16:00:20Z</time>
      </trkpt>
      <trkpt lat="40.831733" lon="-4.256183">
        <ele>1467.0</ele>
        <time>2014-06-30T16:00:21Z</time>
      </trkpt>
      <trkpt lat="40.831683" lon="-4.256050">
        <ele>1470.0</ele>
        <time>2014-06-30T16:00:22Z</time>
      </trkpt>
      <trkpt lat="40.831600" lon="-4.255950">
        <ele>1472.0</ele>
        <time>2014-06-30T16:00:23Z</time>
      </trkpt>
      <trkpt lat="40.831517" lon="-4.255883">
        <ele>1476.0</ele>
        <time>2014-06-30T16:00:24Z</time>
      </trkpt>
      <trkpt lat="40.831450" lon="-4.255833">
        <ele>1481.0</ele>
        <time>2014-06-30T16:00:25Z</time>
      </trkpt>
      <trkpt lat="40.831417" lon="-4.255800">
        <ele>1485.0</ele>
        <time>2014-06-30T16:00:26Z</time>
      </trkpt>
      <trkpt lat="40.831367" lon="-4.255767">
        <ele>1488.0</ele>
        <time>2014-06-30T16:00:27Z</time>
      </trkpt>
      <trkpt lat="40.831333" lon="-4.255750">
        <ele>1491.0</ele>
        <time>2014-06-30T16:00:28Z</time>
      </trkpt>
      <trkpt lat="40.831317" lon="-4.255767">
        <ele>1486.0</ele>
        <time>2014-06-30T16:00:29Z</time>
      </trkpt>
      <trkpt lat="40.831283" lon="-4.255767">
        <ele>1487.0</ele>
        <time>2014-06-30T16:00:30Z</time>
      </trkpt>
      <trkpt lat="40.831267" lon="-4.255767">
        <ele>1488.0</ele>
        <time>2014-06-30T16:00:31Z</time>
      </trkpt>
      <trkpt lat="40.831283" lon="-4.255783">
        <ele>1490.0</ele>
        <time>2014-06-30T16:00:32Z</time>
      </trkpt>
      <trkpt lat="40.831300" lon="-4.255817">
        <ele>1491.0</ele>
        <time>2014-06-30T16:00:33Z</time>
      </trkpt>
      <trkpt lat="40.831367" lon="-4.255833">
        <ele>1492.0</ele>
        <time>2014-06-30T16:00:34Z</time>
      </trkpt>
      <trkpt lat="40.831450" lon="-4.255833">
        <ele>1494.0</ele>
        <time>2014-06-30T16:00:35Z</time>
      </trkpt>
      <trkpt lat="40.831533" lon="-4.255800">
        <ele>1496.0</ele>
        <time>2014-06-30T16:00:36Z</time>
      </trkpt>
      <trkpt lat="40.831617" lon="-4.255733">
        <ele>1499.0</ele>
        <time>2014-06-30T16:00:37Z</time>
      </trkpt>
      <trkpt lat="40.831683" lon="-4.255667">
        <ele>1501.0</ele>
        <time>2014-06-30T16:00:38Z</time>
      </trkpt>
      <trkpt lat="40.831767" lon="-4.255600">
        <ele>1505.0</ele>
        <time>2014-06-30T16:00:39Z</time>
      </trkpt>
      <trkpt lat="40.831850" lon="-4.255517">
        <ele>1508.0</ele>
        <time>2014-06-30T16:00:40Z</time>
      </trkpt>
      <trkpt lat="40.831933" lon="-4.255400">
        <ele>1510.0</ele>
        <time>2014-06-30T16:00:41Z</time>
      </trkpt>
      <trkpt lat="40.832000" lon="-4.255250">
        <ele>1512.0</ele>
        <time>2014-06-30T16:00:42Z</time>
      </trkpt>
      <trkpt lat="40.832033" lon="-4.255100">
        <ele>1514.0</ele>
        <time>2014-06-30T16:00:43Z</time>
      </trkpt>
      <trkpt lat="40.832033" lon="-4.254950">
        <ele>1516.0</ele>
        <time>2014-06-30T16:00:44Z</time>
      </trkpt>
      <trkpt lat="40.832017" lon="-4.254800">
        <ele>1518.0</ele>
        <time>2014-06-30T16:00:45Z</time>
      </trkpt>
      <trkpt lat="40.832000" lon="-4.254650">
        <ele>1519.0</ele>
        <time>2014-06-30T16:00:46Z</time>
      </trkpt>
      <trkpt lat="40.831950" lon="-4.254500">
        <ele>1520.0</ele>
        <time>2014-06-30T16:00:47Z</time>
      </trkpt>
      <trkpt lat="40.831900" lon="-4.254383">
        <ele>1521.0</ele>
        <time>2014-06-30T16:00:48Z</time>
      </trkpt>
      <trkpt lat="40.831817" lon="-4.254283">
        <ele>1521.0</ele>
        <time>2014-06-30T16:00:49Z</time>
      </trkpt>
      <trkpt lat="40.831733" lon="-4.254233">
        <ele>1522.0</ele>
        <time>2014-06-30T16:00:50Z</time>
      </trkpt>
      <trkpt lat="40.831667" lon="-4.254217">
        <ele>1524.0</ele>
        <time>2014-06-30T16:00:51Z</time>
      </trkpt>
      <trkpt lat="40.831633" lon="-4.254217">
        <ele>1526.0</ele>
        <time>2014-06-30T16:00:52Z</time>
      </trkpt>
      <trkpt lat="40.831600" lon="-4.254217">
        <ele>1528.0</ele>
        <time>2014-06-30T16:00:53Z</time>
      </trkpt>
      <trkpt lat="40.831567" lon="-4.254217">
        <ele>1524.0</ele>
        <time>2014-06-30T16:00:54Z</time>
      </trkpt>
      <trkpt lat="40.831533" lon="-4.254233">
        <ele>1524.0</ele>
        <time>2014-06-30T16:00:55Z</time>
      </trkpt>
      <trkpt lat="40.831517" lon="-4.254267">
        <ele>1525.0</ele>
        <time>2014-06-30T16:00:56Z</time>
      </trkpt>
      <trkpt lat="40.831517" lon="-4.254300">
        <ele>1526.0</ele>
        <time>2014-06-30T16:00:57Z</time>
      </trkpt>
      <trkpt lat="40.831533" lon="-4.254317">
        <ele>1527.0</ele>
        <time>2014-06-30T16:00:58Z</time>
      </trkpt>
      <trkpt lat="40.831583" lon="-4.254317">
        <ele>1528.0</ele>
        <time>2014-06-30T16:00:59Z</time>
      </trkpt>
      <trkpt lat="40.831650" lon="-4.254283">
        <ele>1527.0</ele>
        <time>2014-06-30T16:01:00Z</time>
      </trkpt>
      <trkpt lat="40.831717" lon="-4.254250">
        <ele>1528.0</ele>
        <time>2014-06-30T16:01:01Z</time>
      </trkpt>
      <trkpt lat="40.831800" lon="-4.254200">
        <ele>1528.0</ele>
        <time>2014-06-30T16:01:02Z</time>
      </trkpt>
      <trkpt lat="40.831883" lon="-4.254133">
        <ele>1528.0</ele>
        <time>2014-06-30T16:01:03Z</time>
      </trkpt>
      <trkpt lat="40.831967" lon="-4.254050">
        <ele>1529.0</ele>
        <time>2014-06-30T16:01:04Z</time>
      </trkpt>
      <trkpt lat="40.832033" lon="-4.253917">
        <ele>1530.0</ele>
        <time>2014-06-30T16:01:05Z</time>
      </trkpt>
      <trkpt lat="40.832067" lon="-4.253783">
        <ele>1531.0</ele>
        <time>2014-06-30T16:01:06Z</time>
      </trkpt>
      <trkpt lat="40.832100" lon="-4.253633">
        <ele>1532.0</ele>
        <time>2014-06-30T16:01:07Z</time>
      </trkpt>
      <trkpt lat="40.832100" lon="-4.253483">
        <ele>1532.0</ele>
        <time>2014-06-30T16:01:08Z</time>
      </trkpt>
      <trkpt lat="40.832100" lon="-4.253333">
        <ele>1533.0</ele>
        <time>2014-06-30T16:01:09Z</time>
      </trkpt>
      <trkpt lat="40.832083" lon="-4.253183">
        <ele>1534.0</ele>
        <time>2014-06-30T16:01:10Z</time>
      </trkpt>
      <trkpt lat="40.832050" lon="-4.253033">
        <ele>1535.0</ele>
        <time>2014-06-30T16:01:11Z</time>
      </trkpt>
      <trkpt lat="40.832000" lon="-4.252900">
        <ele>1536.0</ele>
        <time>2014-06-30T16:01:12Z</time>
      </trkpt>
      <trkpt lat="40.831950" lon="-4.252767">
        <ele>1537.0</ele>
        <time>2014-06-30T16:01:13Z</time>
      </trkpt>
      <trkpt lat="40.831867" lon="-4.252667">
        <ele>1538.0</ele>
        <time>2014-06-30T16:01:14Z</time>
      </trkpt>
      <trkpt lat="40.831783" lon="-4.252567">
        <ele>1539.0</ele>
        <time>2014-06-30T16:01:15Z</time>
      </trkpt>
      <trkpt lat="40.831700" lon="-4.252483">
        <ele>1541.0</ele>
        <time>2014-06-30T16:01:16Z</time>
      </trkpt>
      <trkpt lat="40.831617" lon="-4.252400">
        <ele>1543.0</ele>
        <time>2014-06-30T16:01:17Z</time>
      </trkpt>
      <trkpt lat="40.831550" lon="-4.252350">
        <ele>1546.0</ele>
        <time>2014-06-30T16:01:18Z</time>
      </trkpt>
      <trkpt lat="40.831500" lon="-4.252333">
        <ele>1543.0</ele>
        <time>2014-06-30T16:01:19Z</time>
      </trkpt>
      <trkpt lat="40.831467" lon="-4.252300">
        <ele>1544.0</ele>
        <time>2014-06-30T16:01:20Z</time>
      </trkpt>
      <trkpt lat="40.831400" lon="-4.252300">
        <ele>1545.0</ele>
        <time>2014-06-30T16:01:21Z</time>
      </trkpt>
      <trkpt lat="40.831350" lon="-4.252300">
        <ele>1545.0</ele>
        <time>2014-06-30T16:01:22Z</time>
      </trkpt>
      <trkpt lat="40.831317" lon="-4.252317">
        <ele>1546.0</ele>
        <time>2014-06-30T16:01:23Z</time>
      </trkpt>
      <trkpt lat="40.831300" lon="-4.252333">
        <ele>1547.0</ele>
        <time>2014-06-30T16:01:24Z</time>
      </trkpt>
      <trkpt lat="40.831300" lon="-4.252350">
        <ele>1547.0</ele>
        <time>2014-06-30T16:01:25Z</time>
      </trkpt>
      <trkpt lat="40.831333" lon="-4.252333">
        <ele>1549.0</ele>
        <time>2014-06-30T16:01:26Z</time>
      </trkpt>
      <trkpt lat="40.831383" lon="-4.252333">
        <ele>1550.0</ele>
        <time>2014-06-30T16:01:27Z</time>
      </trkpt>
      <trkpt lat="40.831450" lon="-4.252300">
        <ele>1552.0</ele>
        <time>2014-06-30T16:01:28Z</time>
      </trkpt>
      <trkpt lat="40.831517" lon="-4.252267">
        <ele>1554.0</ele>
        <time>2014-06-30T16:01:29Z</time>
      </trkpt>
      <trkpt lat="40.831600" lon="-4.252200">
        <ele>1555.0</ele>
        <time>2014-06-30T16:01:30Z</time>
      </trkpt>
      <trkpt lat="40.831683" lon="-4.252100">
        <ele>1556.0</ele>
        <time>2014-06-30T16:01:31Z</time>
      </trkpt>
      <trkpt lat="40.831750" lon="-4.251950">
        <ele>1558.0</ele>
        <time>2014-06-30T16:01:32Z</time>
      </trkpt>
      <trkpt lat="40.831767" lon="-4.251783">
        <ele>1559.0</ele>
        <time>2014-06-30T16:01:33Z</time>
      </trkpt>
      <trkpt lat="40.831767" lon="-4.251583">
        <ele>1560.0</ele>
        <time>2014-06-30T16:01:34Z</time>
      </trkpt>
      <trkpt lat="40.831717" lon="-4.251400">
        <ele>1561.0</ele>
        <time>2014-06-30T16:01:35Z</time>
      </trkpt>
      <trkpt lat="40.831683" lon="-4.251233">
        <ele>1562.0</ele>
        <time>2014-06-30T16:01:36Z</time>
      </trkpt>
      <trkpt lat="40.831633" lon="-4.251083">
        <ele>1564.0</ele>
        <time>2014-06-30T16:01:37Z</time>
      </trkpt>
      <trkpt lat="40.831567" lon="-4.250967">
        <ele>1567.0</ele>
        <time>2014-06-30T16:01:38Z</time>
      </trkpt>
      <trkpt lat="40.831483" lon="-4.250867">
        <ele>1568.0</ele>
        <time>2014-06-30T16:01:39Z</time>
      </trkpt>
      <trkpt lat="40.831400" lon="-4.250817">
        <ele>1569.0</ele>
        <time>2014-06-30T16:01:40Z</time>
      </trkpt>
      <trkpt lat="40.831333" lon="-4.250800">
        <ele>1570.0</ele>
        <time>2014-06-30T16:01:41Z</time>
      </trkpt>
      <trkpt lat="40.831267" lon="-4.250800">
        <ele>1572.0</ele>
        <time>2014-06-30T16:01:42Z</time>
      </trkpt>
      <trkpt lat="40.831217" lon="-4.250833">
        <ele>1574.0</ele>
        <time>2014-06-30T16:01:43Z</time>
      </trkpt>
      <trkpt lat="40.831183" lon="-4.250850">
        <ele>1577.0</ele>
        <time>2014-06-30T16:01:44Z</time>
      </trkpt>
      <trkpt lat="40.831167" lon="-4.250883">
        <ele>1579.0</ele>
        <time>2014-06-30T16:01:45Z</time>
      </trkpt>
      <trkpt lat="40.831150" lon="-4.250883">
        <ele>1581.0</ele>
        <time>2014-06-30T16:01:46Z</time>
      </trkpt>
      <trkpt lat="40.831150" lon="-4.250900">
        <ele>1584.0</ele>
        <time>2014-06-30T16:01:47Z</time>
      </trkpt>
      <trkpt lat="40.831133" lon="-4.250917">
        <ele>1578.0</ele>
        <time>2014-06-30T16:01:48Z</time>
      </trkpt>
      <trkpt lat="40.831133" lon="-4.250950">
        <ele>1579.0</ele>
        <time>2014-06-30T16:01:49Z</time>
      </trkpt>
      <trkpt lat="40.831150" lon="-4.250967">
        <ele>1580.0</ele>
        <time>2014-06-30T16:01:50Z</time>
      </trkpt>
      <trkpt lat="40.831167" lon="-4.250983">
        <ele>1581.0</ele>
        <time>2014-06-30T16:01:51Z</time>
      </trkpt>
      <trkpt lat="40.831200" lon="-4.251000">
        <ele>1582.0</ele>
        <time>2014-06-30T16:01:52Z</time>
      </trkpt>
      <trkpt lat="40.831250" lon="-4.251000">
        <ele>1583.0</ele>
        <time>2014-06-30T16:01:53Z</time>
      </trkpt>
      <trkpt lat="40.831300" lon="-4.251000">
        <ele>1582.0</ele>
        <time>2014-06-30T16:01:54Z</time>
      </trkpt>
      <trkpt lat="40.831383" lon="-4.251000">
        <ele>1583.0</ele>
        <time>2014-06-30T16:01:55Z</time>
      </trkpt>
      <trkpt lat="40.831467" lon="-4.251000">
        <ele>1584.0</ele>
        <time>2014-06-30T16:01:56Z</time>
      </trkpt>
      <trkpt lat="40.831550" lon="-4.250950">
        <ele>1585.0</ele>
        <time>2014-06-30T16:01:57Z</time>
      </trkpt>
      <trkpt lat="40.831633" lon="-4.250850">
        <ele>1586.0</ele>
        <time>2014-06-30T16:01:58Z</time>
      </trkpt>
      <trkpt lat="40.831700" lon="-4.250733">
        <ele>1586.0</ele>
        <time>2014-06-30T16:01:59Z</time>
      </trkpt>
      <trkpt lat="40.831767" lon="-4.250600">
        <ele>1587.0</ele>
        <time>2014-06-30T16:02:00Z</time>
      </trkpt>
      <trkpt lat="40.831817" lon="-4.250450">
        <ele>1587.0</ele>
        <time>2014-06-30T16:02:01Z</time>
      </trkpt>
      <trkpt lat="40.831850" lon="-4.250283">
        <ele>1587.0</ele>
        <time>2014-06-30T16:02:02Z</time>
      </trkpt>
      <trkpt lat="40.831850" lon="-4.250100">
        <ele>1587.0</ele>
        <time>2014-06-30T16:02:03Z</time>
      </trkpt>
      <trkpt lat="40.831833" lon="-4.249933">
        <ele>1588.0</ele>
        <time>2014-06-30T16:02:04Z</time>
      </trkpt>
      <trkpt lat="40.831783" lon="-4.249800">
        <ele>1588.0</ele>
        <time>2014-06-30T16:02:05Z</time>
      </trkpt>
      <trkpt lat="40.831700" lon="-4.249683">
        <ele>1589.0</ele>
        <time>2014-06-30T16:02:06Z</time>
      </trkpt>
      <trkpt lat="40.831633" lon="-4.249600">
        <ele>1590.0</ele>
        <time>2014-06-30T16:02:07Z</time>
      </trkpt>
      <trkpt lat="40.831567" lon="-4.249567">
        <ele>1591.0</ele>
        <time>2014-06-30T16:02:08Z</time>
      </trkpt>
      <trkpt lat="40.831500" lon="-4.249550">
        <ele>1591.0</ele>
        <time>2014-06-30T16:02:09Z</time>
      </trkpt>
      <trkpt lat="40.831450" lon="-4.249550">
        <ele>1592.0</ele>
        <time>2014-06-30T16:02:10Z</time>
      </trkpt>
      <trkpt lat="40.831400" lon="-4.249550">
        <ele>1593.0</ele>
        <time>2014-06-30T16:02:11Z</time>
      </trkpt>
      <trkpt lat="40.831367" lon="-4.249583">
        <ele>1593.0</ele>
        <time>2014-06-30T16:02:12Z</time>
      </trkpt>
      <trkpt lat="40.831350" lon="-4.249600">
        <ele>1594.0</ele>
        <time>2014-06-30T16:02:13Z</time>
      </trkpt>
      <trkpt lat="40.831317" lon="-4.249633">
        <ele>1594.0</ele>
        <time>2014-06-30T16:02:14Z</time>
      </trkpt>
      <trkpt lat="40.831300" lon="-4.249667">
        <ele>1595.0</ele>
        <time>2014-06-30T16:02:15Z</time>
      </trkpt>
      <trkpt lat="40.831300" lon="-4.249683">
        <ele>1596.0</ele>
        <time>2014-06-30T16:02:16Z</time>
      </trkpt>
      <trkpt lat="40.831300" lon="-4.249717">
        <ele>1596.0</ele>
        <time>2014-06-30T16:02:17Z</time>
      </trkpt>
      <trkpt lat="40.831317" lon="-4.249733">
        <ele>1597.0</ele>
        <time>2014-06-30T16:02:18Z</time>
      </trkpt>
      <trkpt lat="40.831350" lon="-4.249733">
        <ele>1597.0</ele>
        <time>2014-06-30T16:02:19Z</time>
      </trkpt>
      <trkpt lat="40.831383" lon="-4.249733">
        <ele>1597.0</ele>
        <time>2014-06-30T16:02:20Z</time>
      </trkpt>
      <trkpt lat="40.831433" lon="-4.249733">
        <ele>1597.0</ele>
        <time>2014-06-30T16:02:21Z</time>
      </trkpt>
      <trkpt lat="40.831483" lon="-4.249733">
        <ele>1596.0</ele>
        <time>2014-06-30T16:02:22Z</time>
      </trkpt>
      <trkpt lat="40.831550" lon="-4.249750">
        <ele>1596.0</ele>
        <time>2014-06-30T16:02:23Z</time>
      </trkpt>
      <trkpt lat="40.831617" lon="-4.249733">
        <ele>1596.0</ele>
        <time>2014-06-30T16:02:24Z</time>
      </trkpt>
      <trkpt lat="40.831700" lon="-4.249717">
        <ele>1596.0</ele>
        <time>2014-06-30T16:02:25Z</time>
      </trkpt>
      <trkpt lat="40.831783" lon="-4.249683">
        <ele>1595.0</ele>
        <time>2014-06-30T16:02:26Z</time>
      </trkpt>
      <trkpt lat="40.831867" lon="-4.249650">
        <ele>1595.0</ele>
        <time>2014-06-30T16:02:27Z</time>
      </trkpt>
      <trkpt lat="40.831950" lon="-4.249617">
        <ele>1595.0</ele>
        <time>2014-06-30T16:02:28Z</time>
      </trkpt>
      <trkpt lat="40.832033" lon="-4.249583">
        <ele>1595.0</ele>
        <time>2014-06-30T16:02:29Z</time>
      </trkpt>
      <trkpt lat="40.832117" lon="-4.249533">
        <ele>1595.0</ele>
        <time>2014-06-30T16:02:30Z</time>
      </trkpt>
      <trkpt lat="40.832217" lon="-4.249467">
        <ele>1595.0</ele>
        <time>2014-06-30T16:02:31Z</time>
      </trkpt>
      <trkpt lat="40.832300" lon="-4.249383">
        <ele>1594.0</ele>
        <time>2014-06-30T16:02:32Z</time>
      </trkpt>
      <trkpt lat="40.832383" lon="-4.249283">
        <ele>1594.0</ele>
        <time>2014-06-30T16:02:33Z</time>
      </trkpt>
      <trkpt lat="40.832483" lon="-4.249183">
        <ele>1593.0</ele>
        <time>2014-06-30T16:02:34Z</time>
      </trkpt>
      <trkpt lat="40.832600" lon="-4.249067">
        <ele>1592.0</ele>
        <time>2014-06-30T16:02:35Z</time>
      </trkpt>
      <trkpt lat="40.832700" lon="-4.248983">
        <ele>1591.0</ele>
        <time>2014-06-30T16:02:36Z</time>
      </trkpt>
      <trkpt lat="40.832800" lon="-4.248917">
        <ele>1591.0</ele>
        <time>2014-06-30T16:02:37Z</time>
      </trkpt>
      <trkpt lat="40.832900" lon="-4.248850">
        <ele>1591.0</ele>
        <time>2014-06-30T16:02:38Z</time>
      </trkpt>
      <trkpt lat="40.832983" lon="-4.248783">
        <ele>1590.0</ele>
        <time>2014-06-30T16:02:39Z</time>
      </trkpt>
      <trkpt lat="40.833100" lon="-4.248700">
        <ele>1588.0</ele>
        <time>2014-06-30T16:02:40Z</time>
      </trkpt>
      <trkpt lat="40.833200" lon="-4.248617">
        <ele>1587.0</ele>
        <time>2014-06-30T16:02:41Z</time>
      </trkpt>
      <trkpt lat="40.833317" lon="-4.248550">
        <ele>1586.0</ele>
        <time>2014-06-30T16:02:42Z</time>
      </trkpt>
      <trkpt lat="40.833433" lon="-4.248483">
        <ele>1584.0</ele>
        <time>2014-06-30T16:02:43Z</time>
      </trkpt>
      <trkpt lat="40.833550" lon="-4.248400">
        <ele>1584.0</ele>
        <time>2014-06-30T16:02:44Z</time>
      </trkpt>
      <trkpt lat="40.833650" lon="-4.248317">
        <ele>1583.0</ele>
        <time>2014-06-30T16:02:45Z</time>
      </trkpt>
      <trkpt lat="40.833733" lon="-4.248217">
        <ele>1582.0</ele>
        <time>2014-06-30T16:02:46Z</time>
      </trkpt>
      <trkpt lat="40.833817" lon="-4.248133">
        <ele>1580.0</ele>
        <time>2014-06-30T16:02:47Z</time>
      </trkpt>
      <trkpt lat="40.833917" lon="-4.248067">
        <ele>1577.0</ele>
        <time>2014-06-30T16:02:48Z</time>
      </trkpt>
      <trkpt lat="40.834033" lon="-4.248033">
        <ele>1575.0</ele>
        <time>2014-06-30T16:02:49Z</time>
      </trkpt>
      <trkpt lat="40.834133" lon="-4.248000">
        <ele>1572.0</ele>
        <time>2014-06-30T16:02:50Z</time>
      </trkpt>
      <trkpt lat="40.834233" lon="-4.247983">
        <ele>1571.0</ele>
        <time>2014-06-30T16:02:51Z</time>
      </trkpt>
      <trkpt lat="40.834300" lon="-4.247950">
        <ele>1570.0</ele>
        <time>2014-06-30T16:02:52Z</time>
      </trkpt>
      <trkpt lat="40.834383" lon="-4.247900">
        <ele>1569.0</ele>
        <time>2014-06-30T16:02:53Z</time>
      </trkpt>
      <trkpt lat="40.834467" lon="-4.247850">
        <ele>1566.0</ele>
        <time>2014-06-30T16:02:54Z</time>
      </trkpt>
      <trkpt lat="40.834583" lon="-4.247817">
        <ele>1563.0</ele>
        <time>2014-06-30T16:02:55Z</time>
      </trkpt>
      <trkpt lat="40.834683" lon="-4.247783">
        <ele>1561.0</ele>
        <time>2014-06-30T16:02:56Z</time>
      </trkpt>
      <trkpt lat="40.834783" lon="-4.247767">
        <ele>1558.0</ele>
        <time>2014-06-30T16:02:57Z</time>
      </trkpt>
      <trkpt lat="40.834883" lon="-4.247717">
        <ele>1556.0</ele>
        <time>2014-06-30T16:02:58Z</time>
      </trkpt>
      <trkpt lat="40.834983" lon="-4.247667">
        <ele>1553.0</ele>
        <time>2014-06-30T16:02:59Z</time>
      </trkpt>
      <trkpt lat="40.835083" lon="-4.247617">
        <ele>1552.0</ele>
        <time>2014-06-30T16:03:00Z</time>
      </trkpt>
      <trkpt lat="40.835183" lon="-4.247567">
        <ele>1549.0</ele>
        <time>2014-06-30T16:03:01Z</time>
      </trkpt>
      <trkpt lat="40.835283" lon="-4.247517">
        <ele>1547.0</ele>
        <time>2014-06-30T16:03:02Z</time>
      </trkpt>
      <trkpt lat="40.835383" lon="-4.247483">
        <ele>1545.0</ele>
        <time>2014-06-30T16:03:03Z</time>
      </trkpt>
      <trkpt lat="40.835483" lon="-4.247450">
        <ele>1543.0</ele>
        <time>2014-06-30T16:03:04Z</time>
      </trkpt>
      <trkpt lat="40.835583" lon="-4.247433">
        <ele>1540.0</ele>
        <time>2014-06-30T16:03:05Z</time>
      </trkpt>
      <trkpt lat="40.835700" lon="-4.247400">
        <ele>1538.0</ele>
        <time>2014-06-30T16:03:06Z</time>
      </trkpt>
      <trkpt lat="40.835817" lon="-4.247383">
        <ele>1536.0</ele>
        <time>2014-06-30T16:03:07Z</time>
      </trkpt>
      <trkpt lat="40.835917" lon="-4.247367">
        <ele>1534.0</ele>
        <time>2014-06-30T16:03:08Z</time>
      </trkpt>
      <trkpt lat="40.836017" lon="-4.247350">
        <ele>1533.0</ele>
        <time>2014-06-30T16:03:09Z</time>
      </trkpt>
      <trkpt lat="40.836117" lon="-4.247333">
        <ele>1531.0</ele>
        <time>2014-06-30T16:03:10Z</time>
      </trkpt>
      <trkpt lat="40.836200" lon="-4.247300">
        <ele>1529.0</ele>
        <time>2014-06-30T16:03:11Z</time>
      </trkpt>
      <trkpt lat="40.836300" lon="-4.247267">
        <ele>1527.0</ele>
        <time>2014-06-30T16:03:12Z</time>
      </trkpt>
      <trkpt lat="40.836400" lon="-4.247267">
        <ele>1526.0</ele>
        <time>2014-06-30T16:03:13Z</time>
      </trkpt>
      <trkpt lat="40.836483" lon="-4.247250">
        <ele>1525.0</ele>
        <time>2014-06-30T16:03:14Z</time>
      </trkpt>
      <trkpt lat="40.836583" lon="-4.247233">
        <ele>1523.0</ele>
        <time>2014-06-30T16:03:15Z</time>
      </trkpt>
      <trkpt lat="40.836667" lon="-4.247217">
        <ele>1522.0</ele>
        <time>2014-06-30T16:03:16Z</time>
      </trkpt>
      <trkpt lat="40.836750" lon="-4.247217">
        <ele>1520.0</ele>
        <time>2014-06-30T16:03:17Z</time>
      </trkpt>
      <trkpt lat="40.836850" lon="-4.247200">
        <ele>1521.0</ele>
        <time>2014-06-30T16:03:18Z</time>
      </trkpt>
      <trkpt lat="40.836933" lon="-4.247183">
        <ele>1522.0</ele>
        <time>2014-06-30T16:03:19Z</time>
      </trkpt>
      <trkpt lat="40.837017" lon="-4.247133">
        <ele>1525.0</ele>
        <time>2014-06-30T16:03:20Z</time>
      </trkpt>
      <trkpt lat="40.837067" lon="-4.247100">
        <ele>1529.0</ele>
        <time>2014-06-30T16:03:21Z</time>
      </trkpt>
      <trkpt lat="40.837133" lon="-4.247050">
        <ele>1531.0</ele>
        <time>2014-06-30T16:03:22Z</time>
      </trkpt>
      <trkpt lat="40.837183" lon="-4.247050">
        <ele>1532.0</ele>
        <time>2014-06-30T16:03:23Z</time>
      </trkpt>
      <trkpt lat="40.837250" lon="-4.247050">
        <ele>1534.0</ele>
        <time>2014-06-30T16:03:24Z</time>
      </trkpt>
      <trkpt lat="40.837300" lon="-4.247083">
        <ele>1535.0</ele>
        <time>2014-06-30T16:03:25Z</time>
      </trkpt>
      <trkpt lat="40.837317" lon="-4.247117">
        <ele>1535.0</ele>
        <time>2014-06-30T16:03:26Z</time>
      </trkpt>
      <trkpt lat="40.837317" lon="-4.247150">
        <ele>1536.0</ele>
        <time>2014-06-30T16:03:27Z</time>
      </trkpt>
      <trkpt lat="40.837283" lon="-4.247183">
        <ele>1537.0</ele>
        <time>2014-06-30T16:03:28Z</time>
      </trkpt>
      <trkpt lat="40.837250" lon="-4.247200">
        <ele>1538.0</ele>
        <time>2014-06-30T16:03:29Z</time>
      </trkpt>
      <trkpt lat="40.837183" lon="-4.247183">
        <ele>1539.0</ele>
        <time>2014-06-30T16:03:30Z</time>
      </trkpt>
      <trkpt lat="40.837100" lon="-4.247133">
        <ele>1539.0</ele>
        <time>2014-06-30T16:03:31Z</time>
      </trkpt>
      <trkpt lat="40.837050" lon="-4.247017">
        <ele>1540.0</ele>
        <time>2014-06-30T16:03:32Z</time>
      </trkpt>
      <trkpt lat="40.837017" lon="-4.246850">
        <ele>1540.0</ele>
        <time>2014-06-30T16:03:33Z</time>
      </trkpt>
      <trkpt lat="40.837017" lon="-4.246667">
        <ele>1540.0</ele>
        <time>2014-06-30T16:03:34Z</time>
      </trkpt>
      <trkpt lat="40.837033" lon="-4.246500">
        <ele>1540.0</ele>
        <time>2014-06-30T16:03:35Z</time>
      </trkpt>
      <trkpt lat="40.837050" lon="-4.246350">
        <ele>1541.0</ele>
        <time>2014-06-30T16:03:36Z</time>
      </trkpt>
      <trkpt lat="40.837100" lon="-4.246200">
        <ele>1542.0</ele>
        <time>2014-06-30T16:03:37Z</time>
      </trkpt>
      <trkpt lat="40.837150" lon="-4.246050">
        <ele>1542.0</ele>
        <time>2014-06-30T16:03:38Z</time>
      </trkpt>
      <trkpt lat="40.837233" lon="-4.245900">
        <ele>1544.0</ele>
        <time>2014-06-30T16:03:39Z</time>
      </trkpt>
      <trkpt lat="40.837317" lon="-4.245817">
        <ele>1546.0</ele>
        <time>2014-06-30T16:03:40Z</time>
      </trkpt>
      <trkpt lat="40.837383" lon="-4.245750">
        <ele>1550.0</ele>
        <time>2014-06-30T16:03:41Z</time>
      </trkpt>
      <trkpt lat="40.837450" lon="-4.245717">
        <ele>1553.0</ele>
        <time>2014-06-30T16:03:42Z</time>
      </trkpt>
      <trkpt lat="40.837517" lon="-4.245700">
        <ele>1556.0</ele>
        <time>2014-06-30T16:03:43Z</time>
      </trkpt>
      <trkpt lat="40.837583" lon="-4.245700">
        <ele>1559.0</ele>
        <time>2014-06-30T16:03:44Z</time>
      </trkpt>
      <trkpt lat="40.837650" lon="-4.245733">
        <ele>1562.0</ele>
        <time>2014-06-30T16:03:45Z</time>
      </trkpt>
      <trkpt lat="40.837683" lon="-4.245767">
        <ele>1564.0</ele>
        <time>2014-06-30T16:03:46Z</time>
      </trkpt>
      <trkpt lat="40.837667" lon="-4.245800">
        <ele>1565.0</ele>
        <time>2014-06-30T16:03:47Z</time>
      </trkpt>
      <trkpt lat="40.837617" lon="-4.245800">
        <ele>1566.0</ele>
        <time>2014-06-30T16:03:48Z</time>
      </trkpt>
      <trkpt lat="40.837533" lon="-4.245783">
        <ele>1566.0</ele>
        <time>2014-06-30T16:03:49Z</time>
      </trkpt>
      <trkpt lat="40.837450" lon="-4.245717">
        <ele>1566.0</ele>
        <time>2014-06-30T16:03:50Z</time>
      </trkpt>
      <trkpt lat="40.837383" lon="-4.245583">
        <ele>1565.0</ele>
        <time>2014-06-30T16:03:51Z</time>
      </trkpt>
      <trkpt lat="40.837367" lon="-4.245400">
        <ele>1565.0</ele>
        <time>2014-06-30T16:03:52Z</time>
      </trkpt>
      <trkpt lat="40.837400" lon="-4.245200">
        <ele>1565.0</ele>
        <time>2014-06-30T16:03:53Z</time>
      </trkpt>
      <trkpt lat="40.837433" lon="-4.245050">
        <ele>1567.0</ele>
        <time>2014-06-30T16:03:54Z</time>
      </trkpt>
      <trkpt lat="40.837483" lon="-4.244883">
        <ele>1569.0</ele>
        <time>2014-06-30T16:03:55Z</time>
      </trkpt>
      <trkpt lat="40.837517" lon="-4.244733">
        <ele>1570.0</ele>
        <time>2014-06-30T16:03:56Z</time>
      </trkpt>
      <trkpt lat="40.837583" lon="-4.244600">
        <ele>1573.0</ele>
        <time>2014-06-30T16:03:57Z</time>
      </trkpt>
      <trkpt lat="40.837650" lon="-4.244467">
        <ele>1575.0</ele>
        <time>2014-06-30T16:03:58Z</time>
      </trkpt>
      <trkpt lat="40.837733" lon="-4.244383">
        <ele>1578.0</ele>
        <time>2014-06-30T16:03:59Z</time>
      </trkpt>
      <trkpt lat="40.837817" lon="-4.244333">
        <ele>1581.0</ele>
        <time>2014-06-30T16:04:00Z</time>
      </trkpt>
      <trkpt lat="40.837900" lon="-4.244317">
        <ele>1583.0</ele>
        <time>2014-06-30T16:04:01Z</time>
      </trkpt>
      <trkpt lat="40.837967" lon="-4.244317">
        <ele>1585.0</ele>
        <time>2014-06-30T16:04:02Z</time>
      </trkpt>
      <trkpt lat="40.838000" lon="-4.244333">
        <ele>1580.0</ele>
        <time>2014-06-30T16:04:03Z</time>
      </trkpt>
      <trkpt lat="40.838033" lon="-4.244350">
        <ele>1580.0</ele>
        <time>2014-06-30T16:04:04Z</time>
      </trkpt>
      <trkpt lat="40.838050" lon="-4.244367">
        <ele>1580.0</ele>
        <time>2014-06-30T16:04:05Z</time>
      </trkpt>
      <trkpt lat="40.838050" lon="-4.244417">
        <ele>1581.0</ele>
        <time>2014-06-30T16:04:06Z</time>
      </trkpt>
      <trkpt lat="40.838017" lon="-4.244433">
        <ele>1582.0</ele>
        <time>2014-06-30T16:04:07Z</time>
      </trkpt>
      <trkpt lat="40.837950" lon="-4.244417">
        <ele>1583.0</ele>
        <time>2014-06-30T16:04:08Z</time>
      </trkpt>
      <trkpt lat="40.837867" lon="-4.244350">
        <ele>1583.0</ele>
        <time>2014-06-30T16:04:09Z</time>
      </trkpt>
      <trkpt lat="40.837800" lon="-4.244217">
        <ele>1583.0</ele>
        <time>2014-06-30T16:04:10Z</time>
      </trkpt>
      <trkpt lat="40.837733" lon="-4.244050">
        <ele>1583.0</ele>
        <time>2014-06-30T16:04:11Z</time>
      </trkpt>
      <trkpt lat="40.837700" lon="-4.243883">
        <ele>1584.0</ele>
        <time>2014-06-30T16:04:12Z</time>
      </trkpt>
      <trkpt lat="40.837700" lon="-4.243717">
        <ele>1585.0</ele>
        <time>2014-06-30T16:04:13Z</time>
      </trkpt>
      <trkpt lat="40.837717" lon="-4.243533">
        <ele>1586.0</ele>
        <time>2014-06-30T16:04:14Z</time>
      </trkpt>
      <trkpt lat="40.837733" lon="-4.243383">
        <ele>1587.0</ele>
        <time>2014-06-30T16:04:15Z</time>
      </trkpt>
      <trkpt lat="40.837767" lon="-4.243217">
        <ele>1588.0</ele>
        <time>2014-06-30T16:04:16Z</time>
      </trkpt>
      <trkpt lat="40.837800" lon="-4.243050">
        <ele>1590.0</ele>
        <time>2014-06-30T16:04:17Z</time>
      </trkpt>
      <trkpt lat="40.837850" lon="-4.242900">
        <ele>1593.0</ele>
        <time>2014-06-30T16:04:18Z</time>
      </trkpt>
      <trkpt lat="40.837933" lon="-4.242767">
        <ele>1595.0</ele>
        <time>2014-06-30T16:04:19Z</time>
      </trkpt>
      <trkpt lat="40.838017" lon="-4.242667">
        <ele>1597.0</ele>
        <time>2014-06-30T16:04:20Z</time>
      </trkpt>
      <trkpt lat="40.838100" lon="-4.242600">
        <ele>1599.0</ele>
        <time>2014-06-30T16:04:21Z</time>
      </trkpt>
      <trkpt lat="40.838183" lon="-4.242533">
        <ele>1601.0</ele>
        <time>2014-06-30T16:04:22Z</time>
      </trkpt>
      <trkpt lat="40.838250" lon="-4.242483">
        <ele>1604.0</ele>
        <time>2014-06-30T16:04:23Z</time>
      </trkpt>
      <trkpt lat="40.838317" lon="-4.242450">
        <ele>1605.0</ele>
        <time>2014-06-30T16:04:24Z</time>
      </trkpt>
      <trkpt lat="40.838383" lon="-4.242433">
        <ele>1606.0</ele>
        <time>2014-06-30T16:04:25Z</time>
      </trkpt>
      <trkpt lat="40.838433" lon="-4.242450">
        <ele>1607.0</ele>
        <time>2014-06-30T16:04:26Z</time>
      </trkpt>
      <trkpt lat="40.838467" lon="-4.242483">
        <ele>1608.0</ele>
        <time>2014-06-30T16:04:27Z</time>
      </trkpt>
      <trkpt lat="40.838483" lon="-4.242533">
        <ele>1608.0</ele>
        <time>2014-06-30T16:04:28Z</time>
      </trkpt>
      <trkpt lat="40.838500" lon="-4.242583">
        <ele>1608.0</ele>
        <time>2014-06-30T16:04:29Z</time>
      </trkpt>
      <trkpt lat="40.838483" lon="-4.242617">
        <ele>1608.0</ele>
        <time>2014-06-30T16:04:30Z</time>
      </trkpt>
      <trkpt lat="40.838450" lon="-4.242633">
        <ele>1608.0</ele>
        <time>2014-06-30T16:04:31Z</time>
      </trkpt>
      <trkpt lat="40.838400" lon="-4.242650">
        <ele>1607.0</ele>
        <time>2014-06-30T16:04:32Z</time>
      </trkpt>
      <trkpt lat="40.838333" lon="-4.242633">
        <ele>1608.0</ele>
        <time>2014-06-30T16:04:33Z</time>
      </trkpt>
      <trkpt lat="40.838267" lon="-4.242583">
        <ele>1610.0</ele>
        <time>2014-06-30T16:04:34Z</time>
      </trkpt>
      <trkpt lat="40.838200" lon="-4.242500">
        <ele>1611.0</ele>
        <time>2014-06-30T16:04:35Z</time>
      </trkpt>
      <trkpt lat="40.838150" lon="-4.242367">
        <ele>1611.0</ele>
        <time>2014-06-30T16:04:36Z</time>
      </trkpt>
      <trkpt lat="40.838100" lon="-4.242233">
        <ele>1612.0</ele>
        <time>2014-06-30T16:04:37Z</time>
      </trkpt>
      <trkpt lat="40.838050" lon="-4.242083">
        <ele>1612.0</ele>
        <time>2014-06-30T16:04:38Z</time>
      </trkpt>
      <trkpt lat="40.838017" lon="-4.241933">
        <ele>1612.0</ele>
        <time>2014-06-30T16:04:39Z</time>
      </trkpt>
      <trkpt lat="40.837983" lon="-4.241767">
        <ele>1612.0</ele>
        <time>2014-06-30T16:04:40Z</time>
      </trkpt>
      <trkpt lat="40.837983" lon="-4.241600">
        <ele>1612.0</ele>
        <time>2014-06-30T16:04:41Z</time>
      </trkpt>
      <trkpt lat="40.838000" lon="-4.241400">
        <ele>1612.0</ele>
        <time>2014-06-30T16:04:42Z</time>
      </trkpt>
      <trkpt lat="40.838033" lon="-4.241233">
        <ele>1612.0</ele>
        <time>2014-06-30T16:04:43Z</time>
      </trkpt>
      <trkpt lat="40.838100" lon="-4.241083">
        <ele>1613.0</ele>
        <time>2014-06-30T16:04:44Z</time>
      </trkpt>
      <trkpt lat="40.838183" lon="-4.240967">
        <ele>1613.0</ele>
        <time>2014-06-30T16:04:45Z</time>
      </trkpt>
      <trkpt lat="40.838267" lon="-4.240867">
        <ele>1613.0</ele>
        <time>2014-06-30T16:04:46Z</time>
      </trkpt>
      <trkpt lat="40.838367" lon="-4.240783">
        <ele>1613.0</ele>
        <time>2014-06-30T16:04:47Z</time>
      </trkpt>
      <trkpt lat="40.838450" lon="-4.240700">
        <ele>1614.0</ele>
        <time>2014-06-30T16:04:48Z</time>
      </trkpt>
      <trkpt lat="40.838533" lon="-4.240633">
        <ele>1614.0</ele>
        <time>2014-06-30T16:04:49Z</time>
      </trkpt>
      <trkpt lat="40.838617" lon="-4.240567">
        <ele>1615.0</ele>
        <time>2014-06-30T16:04:50Z</time>
      </trkpt>
      <trkpt lat="40.838700" lon="-4.240517">
        <ele>1615.0</ele>
        <time>2014-06-30T16:04:51Z</time>
      </trkpt>
      <trkpt lat="40.838783" lon="-4.240467">
        <ele>1617.0</ele>
        <time>2014-06-30T16:04:52Z</time>
      </trkpt>
      <trkpt lat="40.838867" lon="-4.240450">
        <ele>1618.0</ele>
        <time>2014-06-30T16:04:53Z</time>
      </trkpt>
      <trkpt lat="40.838933" lon="-4.240433">
        <ele>1618.0</ele>
        <time>2014-06-30T16:04:54Z</time>
      </trkpt>
      <trkpt lat="40.839017" lon="-4.240400">
        <ele>1620.0</ele>
        <time>2014-06-30T16:04:55Z</time>
      </trkpt>
      <trkpt lat="40.839067" lon="-4.240383">
        <ele>1620.0</ele>
        <time>2014-06-30T16:04:56Z</time>
      </trkpt>
      <trkpt lat="40.839133" lon="-4.240350">
        <ele>1621.0</ele>
        <time>2014-06-30T16:04:57Z</time>
      </trkpt>
      <trkpt lat="40.839167" lon="-4.240333">
        <ele>1620.0</ele>
        <time>2014-06-30T16:04:58Z</time>
      </trkpt>
      <trkpt lat="40.839217" lon="-4.240333">
        <ele>1619.0</ele>
        <time>2014-06-30T16:04:59Z</time>
      </trkpt>
      <trkpt lat="40.839250" lon="-4.240350">
        <ele>1616.0</ele>
        <time>2014-06-30T16:05:00Z</time>
      </trkpt>
      <trkpt lat="40.839283" lon="-4.240367">
        <ele>1613.0</ele>
        <time>2014-06-30T16:05:01Z</time>
      </trkpt>
      <trkpt lat="40.839333" lon="-4.240400">
        <ele>1609.0</ele>
        <time>2014-06-30T16:05:02Z</time>
      </trkpt>
      <trkpt lat="40.839400" lon="-4.240433">
        <ele>1606.0</ele>
        <time>2014-06-30T16:05:03Z</time>
      </trkpt>
      <trkpt lat="40.839483" lon="-4.240467">
        <ele>1604.0</ele>
        <time>2014-06-30T16:05:04Z</time>
      </trkpt>
      <trkpt lat="40.839567" lon="-4.240483">
        <ele>1601.0</ele>
        <time>2014-06-30T16:05:05Z</time>
      </trkpt>
      <trkpt lat="40.839633" lon="-4.240517">
        <ele>1605.0</ele>
        <time>2014-06-30T16:05:06Z</time>
      </trkpt>
      <trkpt lat="40.839683" lon="-4.240533">
        <ele>1603.0</ele>
        <time>2014-06-30T16:05:07Z</time>
      </trkpt>
      <trkpt lat="40.839750" lon="-4.240567">
        <ele>1600.0</ele>
        <time>2014-06-30T16:05:08Z</time>
      </trkpt>
      <trkpt lat="40.839817" lon="-4.240567">
        <ele>1601.0</ele>
        <time>2014-06-30T16:05:09Z</time>
      </trkpt>
      <trkpt lat="40.839900" lon="-4.240567">
        <ele>1599.0</ele>
        <time>2014-06-30T16:05:10Z</time>
      </trkpt>
      <trkpt lat="40.839983" lon="-4.240550">
        <ele>1597.0</ele>
        <time>2014-06-30T16:05:11Z</time>
      </trkpt>
      <trkpt lat="40.840067" lon="-4.240550">
        <ele>1594.0</ele>
        <time>2014-06-30T16:05:12Z</time>
      </trkpt>
      <trkpt lat="40.840133" lon="-4.240550">
        <ele>1593.0</ele>
        <time>2014-06-30T16:05:13Z</time>
      </trkpt>
      <trkpt lat="40.840200" lon="-4.240550">
        <ele>1593.0</ele>
        <time>2014-06-30T16:05:14Z</time>
      </trkpt>
      <trkpt lat="40.840283" lon="-4.240517">
        <ele>1591.0</ele>
        <time>2014-06-30T16:05:15Z</time>
      </trkpt>
      <trkpt lat="40.840383" lon="-4.240517">
        <ele>1588.0</ele>
        <time>2014-06-30T16:05:16Z</time>
      </trkpt>
      <trkpt lat="40.840467" lon="-4.240550">
        <ele>1585.0</ele>
        <time>2014-06-30T16:05:17Z</time>
      </trkpt>
      <trkpt lat="40.840550" lon="-4.240583">
        <ele>1582.0</ele>
        <time>2014-06-30T16:05:18Z</time>
      </trkpt>
      <trkpt lat="40.840617" lon="-4.240617">
        <ele>1580.0</ele>
        <time>2014-06-30T16:05:19Z</time>
      </trkpt>
      <trkpt lat="40.840700" lon="-4.240617">
        <ele>1577.0</ele>
        <time>2014-06-30T16:05:20Z</time>
      </trkpt>
      <trkpt lat="40.840800" lon="-4.240617">
        <ele>1574.0</ele>
        <time>2014-06-30T16:05:21Z</time>
      </trkpt>
      <trkpt lat="40.840900" lon="-4.240633">
        <ele>1572.0</ele>
        <time>2014-06-30T16:05:22Z</time>
      </trkpt>
      <trkpt lat="40.840983" lon="-4.240667">
        <ele>1569.0</ele>
        <time>2014-06-30T16:05:23Z</time>
      </trkpt>
      <trkpt lat="40.841083" lon="-4.240683">
        <ele>1567.0</ele>
        <time>2014-06-30T16:05:24Z</time>
      </trkpt>
      <trkpt lat="40.841167" lon="-4.240683">
        <ele>1570.0</ele>
        <time>2014-06-30T16:05:25Z</time>
      </trkpt>
      <trkpt lat="40.841250" lon="-4.240700">
        <ele>1569.0</ele>
        <time>2014-06-30T16:05:26Z</time>
      </trkpt>
      <trkpt lat="40.841333" lon="-4.240717">
        <ele>1567.0</ele>
        <time>2014-06-30T16:05:27Z</time>
      </trkpt>
      <trkpt lat="40.841433" lon="-4.240750">
        <ele>1567.0</ele>
        <time>2014-06-30T16:05:28Z</time>
      </trkpt>
      <trkpt lat="40.841517" lon="-4.240750">
        <ele>1566.0</ele>
        <time>2014-06-30T16:05:29Z</time>
      </trkpt>
      <trkpt lat="40.841617" lon="-4.240750">
        <ele>1565.0</ele>
        <time>2014-06-30T16:05:30Z</time>
      </trkpt>
      <trkpt lat="40.841683" lon="-4.240733">
        <ele>1564.0</ele>
        <time>2014-06-30T16:05:31Z</time>
      </trkpt>
      <trkpt lat="40.841767" lon="-4.240717">
        <ele>1563.0</ele>
        <time>2014-06-30T16:05:32Z</time>
      </trkpt>
      <trkpt lat="40.841833" lon="-4.240717">
        <ele>1561.0</ele>
        <time>2014-06-30T16:05:33Z</time>
      </trkpt>
      <trkpt lat="40.841917" lon="-4.240717">
        <ele>1561.0</ele>
        <time>2014-06-30T16:05:34Z</time>
      </trkpt>
      <trkpt lat="40.842000" lon="-4.240700">
        <ele>1561.0</ele>
        <time>2014-06-30T16:05:35Z</time>
      </trkpt>
      <trkpt lat="40.842083" lon="-4.240650">
        <ele>1560.0</ele>
        <time>2014-06-30T16:05:36Z</time>
      </trkpt>
      <trkpt lat="40.842167" lon="-4.240617">
        <ele>1559.0</ele>
        <time>2014-06-30T16:05:37Z</time>
      </trkpt>
      <trkpt lat="40.842250" lon="-4.240583">
        <ele>1558.0</ele>
        <time>2014-06-30T16:05:38Z</time>
      </trkpt>
      <trkpt lat="40.842333" lon="-4.240583">
        <ele>1558.0</ele>
        <time>2014-06-30T16:05:39Z</time>
      </trkpt>
      <trkpt lat="40.842400" lon="-4.240567">
        <ele>1557.0</ele>
        <time>2014-06-30T16:05:40Z</time>
      </trkpt>
      <trkpt lat="40.842483" lon="-4.240533">
        <ele>1556.0</ele>
        <time>2014-06-30T16:05:41Z</time>
      </trkpt>
      <trkpt lat="40.842583" lon="-4.240500">
        <ele>1555.0</ele>
        <time>2014-06-30T16:05:42Z</time>
      </trkpt>
      <trkpt lat="40.842667" lon="-4.240467">
        <ele>1554.0</ele>
        <time>2014-06-30T16:05:43Z</time>
      </trkpt>
      <trkpt lat="40.842750" lon="-4.240450">
        <ele>1553.0</ele>
        <time>2014-06-30T16:05:44Z</time>
      </trkpt>
      <trkpt lat="40.842833" lon="-4.240450">
        <ele>1551.0</ele>
        <time>2014-06-30T16:05:45Z</time>
      </trkpt>
      <trkpt lat="40.842917" lon="-4.240450">
        <ele>1549.0</ele>
        <time>2014-06-30T16:05:46Z</time>
      </trkpt>
      <trkpt lat="40.843000" lon="-4.240450">
        <ele>1547.0</ele>
        <time>2014-06-30T16:05:47Z</time>
      </trkpt>
      <trkpt lat="40.843100" lon="-4.240450">
        <ele>1547.0</ele>
        <time>2014-06-30T16:05:48Z</time>
      </trkpt>
      <trkpt lat="40.843200" lon="-4.240467">
        <ele>1545.0</ele>
        <time>2014-06-30T16:05:49Z</time>
      </trkpt>
      <trkpt lat="40.843300" lon="-4.240483">
        <ele>1542.0</ele>
        <time>2014-06-30T16:05:50Z</time>
      </trkpt>
      <trkpt lat="40.843383" lon="-4.240500">
        <ele>1541.0</ele>
        <time>2014-06-30T16:05:51Z</time>
      </trkpt>
      <trkpt lat="40.843450" lon="-4.240467">
        <ele>1539.0</ele>
        <time>2014-06-30T16:05:52Z</time>
      </trkpt>
      <trkpt lat="40.843517" lon="-4.240433">
        <ele>1538.0</ele>
        <time>2014-06-30T16:05:53Z</time>
      </trkpt>
      <trkpt lat="40.843567" lon="-4.240400">
        <ele>1539.0</ele>
        <time>2014-06-30T16:05:54Z</time>
      </trkpt>
      <trkpt lat="40.843617" lon="-4.240367">
        <ele>1538.0</ele>
        <time>2014-06-30T16:05:55Z</time>
      </trkpt>
      <trkpt lat="40.843683" lon="-4.240367">
        <ele>1536.0</ele>
        <time>2014-06-30T16:05:56Z</time>
      </trkpt>
      <trkpt lat="40.843767" lon="-4.240350">
        <ele>1536.0</ele>
        <time>2014-06-30T16:05:57Z</time>
      </trkpt>
      <trkpt lat="40.843833" lon="-4.240350">
        <ele>1535.0</ele>
        <time>2014-06-30T16:05:58Z</time>
      </trkpt>
      <trkpt lat="40.843900" lon="-4.240317">
        <ele>1534.0</ele>
        <time>2014-06-30T16:05:59Z</time>
      </trkpt>
      <trkpt lat="40.843983" lon="-4.240283">
        <ele>1533.0</ele>
        <time>2014-06-30T16:06:00Z</time>
      </trkpt>
      <trkpt lat="40.844067" lon="-4.240267">
        <ele>1532.0</ele>
        <time>2014-06-30T16:06:01Z</time>
      </trkpt>
      <trkpt lat="40.844133" lon="-4.240233">
        <ele>1531.0</ele>
        <time>2014-06-30T16:06:02Z</time>
      </trkpt>
      <trkpt lat="40.844200" lon="-4.240217">
        <ele>1530.0</ele>
        <time>2014-06-30T16:06:03Z</time>
      </trkpt>
      <trkpt lat="40.844283" lon="-4.240183">
        <ele>1530.0</ele>
        <time>2014-06-30T16:06:04Z</time>
      </trkpt>
      <trkpt lat="40.844383" lon="-4.240150">
        <ele>1529.0</ele>
        <time>2014-06-30T16:06:05Z</time>
      </trkpt>
      <trkpt lat="40.844483" lon="-4.240117">
        <ele>1527.0</ele>
        <time>2014-06-30T16:06:06Z</time>
      </trkpt>
      <trkpt lat="40.844567" lon="-4.240083">
        <ele>1526.0</ele>
        <time>2014-06-30T16:06:07Z</time>
      </trkpt>
      <trkpt lat="40.844633" lon="-4.240067">
        <ele>1526.0</ele>
        <time>2014-06-30T16:06:08Z</time>
      </trkpt>
      <trkpt lat="40.844700" lon="-4.240050">
        <ele>1525.0</ele>
        <time>2014-06-30T16:06:09Z</time>
      </trkpt>
      <trkpt lat="40.844767" lon="-4.240017">
        <ele>1524.0</ele>
        <time>2014-06-30T16:06:10Z</time>
      </trkpt>
      <trkpt lat="40.844850" lon="-4.239983">
        <ele>1523.0</ele>
        <time>2014-06-30T16:06:11Z</time>
      </trkpt>
      <trkpt lat="40.844917" lon="-4.239967">
        <ele>1522.0</ele>
        <time>2014-06-30T16:06:12Z</time>
      </trkpt>
      <trkpt lat="40.844983" lon="-4.239950">
        <ele>1522.0</ele>
        <time>2014-06-30T16:06:13Z</time>
      </trkpt>
      <trkpt lat="40.845033" lon="-4.239933">
        <ele>1521.0</ele>
        <time>2014-06-30T16:06:14Z</time>
      </trkpt>
      <trkpt lat="40.845067" lon="-4.239900">
        <ele>1520.0</ele>
        <time>2014-06-30T16:06:15Z</time>
      </trkpt>
      <trkpt lat="40.845117" lon="-4.239900">
        <ele>1520.0</ele>
        <time>2014-06-30T16:06:16Z</time>
      </trkpt>
      <trkpt lat="40.845150" lon="-4.239883">
        <ele>1519.0</ele>
        <time>2014-06-30T16:06:17Z</time>
      </trkpt>
      <trkpt lat="40.845183" lon="-4.239883">
        <ele>1519.0</ele>
        <time>2014-06-30T16:06:18Z</time>
      </trkpt>
      <trkpt lat="40.845217" lon="-4.239883">
        <ele>1518.0</ele>
        <time>2014-06-30T16:06:19Z</time>
      </trkpt>
      <trkpt lat="40.845250" lon="-4.239867">
        <ele>1517.0</ele>
        <time>2014-06-30T16:06:20Z</time>
      </trkpt>
      <trkpt lat="40.845300" lon="-4.239867">
        <ele>1515.0</ele>
        <time>2014-06-30T16:06:21Z</time>
      </trkpt>
      <trkpt lat="40.845350" lon="-4.239867">
        <ele>1516.0</ele>
        <time>2014-06-30T16:06:22Z</time>
      </trkpt>
      <trkpt lat="40.845383" lon="-4.239867">
        <ele>1515.0</ele>
        <time>2014-06-30T16:06:23Z</time>
      </trkpt>
      <trkpt lat="40.845433" lon="-4.239883">
        <ele>1515.0</ele>
        <time>2014-06-30T16:06:24Z</time>
      </trkpt>
      <trkpt lat="40.845500" lon="-4.239900">
        <ele>1514.0</ele>
        <time>2014-06-30T16:06:25Z</time>
      </trkpt>
      <trkpt lat="40.845550" lon="-4.239917">
        <ele>1513.0</ele>
        <time>2014-06-30T16:06:26Z</time>
      </trkpt>
      <trkpt lat="40.845617" lon="-4.239933">
        <ele>1512.0</ele>
        <time>2014-06-30T16:06:27Z</time>
      </trkpt>
      <trkpt lat="40.845683" lon="-4.239933">
        <ele>1512.0</ele>
        <time>2014-06-30T16:06:28Z</time>
      </trkpt>
      <trkpt lat="40.845767" lon="-4.239917">
        <ele>1511.0</ele>
        <time>2014-06-30T16:06:29Z</time>
      </trkpt>
      <trkpt lat="40.845833" lon="-4.239917">
        <ele>1511.0</ele>
        <time>2014-06-30T16:06:30Z</time>
      </trkpt>
      <trkpt lat="40.845883" lon="-4.239883">
        <ele>1510.0</ele>
        <time>2014-06-30T16:06:31Z</time>
      </trkpt>
      <trkpt lat="40.845933" lon="-4.239850">
        <ele>1510.0</ele>
        <time>2014-06-30T16:06:32Z</time>
      </trkpt>
      <trkpt lat="40.845983" lon="-4.239800">
        <ele>1510.0</ele>
        <time>2014-06-30T16:06:33Z</time>
      </trkpt>
      <trkpt lat="40.846033" lon="-4.239783">
        <ele>1510.0</ele>
        <time>2014-06-30T16:06:34Z</time>
      </trkpt>
      <trkpt lat="40.846083" lon="-4.239783">
        <ele>1509.0</ele>
        <time>2014-06-30T16:06:35Z</time>
      </trkpt>
      <trkpt lat="40.846133" lon="-4.239783">
        <ele>1509.0</ele>
        <time>2014-06-30T16:06:36Z</time>
      </trkpt>
      <trkpt lat="40.846167" lon="-4.239817">
        <ele>1508.0</ele>
        <time>2014-06-30T16:06:37Z</time>
      </trkpt>
      <trkpt lat="40.846133" lon="-4.239833">
        <ele>1508.0</ele>
        <time>2014-06-30T16:06:38Z</time>
      </trkpt>
      <trkpt lat="40.846083" lon="-4.239850">
        <ele>1507.0</ele>
        <time>2014-06-30T16:06:39Z</time>
      </trkpt>
      <trkpt lat="40.846033" lon="-4.239833">
        <ele>1506.0</ele>
        <time>2014-06-30T16:06:40Z</time>
      </trkpt>
      <trkpt lat="40.845967" lon="-4.239767">
        <ele>1505.0</ele>
        <time>2014-06-30T16:06:41Z</time>
      </trkpt>
      <trkpt lat="40.845900" lon="-4.239700">
        <ele>1503.0</ele>
        <time>2014-06-30T16:06:42Z</time>
      </trkpt>
      <trkpt lat="40.845817" lon="-4.239583">
        <ele>1502.0</ele>
        <time>2014-06-30T16:06:43Z</time>
      </trkpt>
      <trkpt lat="40.845767" lon="-4.239433">
        <ele>1501.0</ele>
        <time>2014-06-30T16:06:44Z</time>
      </trkpt>
      <trkpt lat="40.845750" lon="-4.239250">
        <ele>1500.0</ele>
        <time>2014-06-30T16:06:45Z</time>
      </trkpt>
      <trkpt lat="40.845750" lon="-4.239083">
        <ele>1500.0</ele>
        <time>2014-06-30T16:06:46Z</time>
      </trkpt>
      <trkpt lat="40.845783" lon="-4.238933">
        <ele>1500.0</ele>
        <time>2014-06-30T16:06:47Z</time>
      </trkpt>
      <trkpt lat="40.845833" lon="-4.238817">
        <ele>1501.0</ele>
        <time>2014-06-30T16:06:48Z</time>
      </trkpt>
      <trkpt lat="40.845883" lon="-4.238717">
        <ele>1501.0</ele>
        <time>2014-06-30T16:06:49Z</time>
      </trkpt>
      <trkpt lat="40.845933" lon="-4.238600">
        <ele>1500.0</ele>
        <time>2014-06-30T16:06:50Z</time>
      </trkpt>
      <trkpt lat="40.846000" lon="-4.238483">
        <ele>1500.0</ele>
        <time>2014-06-30T16:06:51Z</time>
      </trkpt>
      <trkpt lat="40.846083" lon="-4.238383">
        <ele>1499.0</ele>
        <time>2014-06-30T16:06:52Z</time>
      </trkpt>
      <trkpt lat="40.846183" lon="-4.238317">
        <ele>1499.0</ele>
        <time>2014-06-30T16:06:53Z</time>
      </trkpt>
      <trkpt lat="40.846267" lon="-4.238267">
        <ele>1499.0</ele>
        <time>2014-06-30T16:06:54Z</time>
      </trkpt>
      <trkpt lat="40.846367" lon="-4.238233">
        <ele>1499.0</ele>
        <time>2014-06-30T16:06:55Z</time>
      </trkpt>
      <trkpt lat="40.846467" lon="-4.238183">
        <ele>1499.0</ele>
        <time>2014-06-30T16:06:56Z</time>
      </trkpt>
      <trkpt lat="40.846567" lon="-4.238150">
        <ele>1498.0</ele>
        <time>2014-06-30T16:06:57Z</time>
      </trkpt>
      <trkpt lat="40.846650" lon="-4.238100">
        <ele>1499.0</ele>
        <time>2014-06-30T16:06:58Z</time>
      </trkpt>
      <trkpt lat="40.846750" lon="-4.238067">
        <ele>1499.0</ele>
        <time>2014-06-30T16:06:59Z</time>
      </trkpt>
      <trkpt lat="40.846833" lon="-4.238033">
        <ele>1499.0</ele>
        <time>2014-06-30T16:07:00Z</time>
      </trkpt>
      <trkpt lat="40.846917" lon="-4.238017">
        <ele>1498.0</ele>
        <time>2014-06-30T16:07:01Z</time>
      </trkpt>
      <trkpt lat="40.847000" lon="-4.238017">
        <ele>1498.0</ele>
        <time>2014-06-30T16:07:02Z</time>
      </trkpt>
      <trkpt lat="40.847083" lon="-4.238000">
        <ele>1498.0</ele>
        <time>2014-06-30T16:07:03Z</time>
      </trkpt>
      <trkpt lat="40.847150" lon="-4.238000">
        <ele>1497.0</ele>
        <time>2014-06-30T16:07:04Z</time>
      </trkpt>
      <trkpt lat="40.847233" lon="-4.238017">
        <ele>1496.0</ele>
        <time>2014-06-30T16:07:05Z</time>
      </trkpt>
      <trkpt lat="40.847317" lon="-4.238033">
        <ele>1495.0</ele>
        <time>2014-06-30T16:07:06Z</time>
      </trkpt>
      <trkpt lat="40.847400" lon="-4.238067">
        <ele>1493.0</ele>
        <time>2014-06-30T16:07:07Z</time>
      </trkpt>
      <trkpt lat="40.847467" lon="-4.238100">
        <ele>1492.0</ele>
        <time>2014-06-30T16:07:08Z</time>
      </trkpt>
      <trkpt lat="40.847533" lon="-4.238117">
        <ele>1492.0</ele>
        <time>2014-06-30T16:07:09Z</time>
      </trkpt>
      <trkpt lat="40.847600" lon="-4.238133">
        <ele>1491.0</ele>
        <time>2014-06-30T16:07:10Z</time>
      </trkpt>
      <trkpt lat="40.847683" lon="-4.238133">
        <ele>1491.0</ele>
        <time>2014-06-30T16:07:11Z</time>
      </trkpt>
      <trkpt lat="40.847767" lon="-4.238133">
        <ele>1490.0</ele>
        <time>2014-06-30T16:07:12Z</time>
      </trkpt>
      <trkpt lat="40.847833" lon="-4.238133">
        <ele>1489.0</ele>
        <time>2014-06-30T16:07:13Z</time>
      </trkpt>
      <trkpt lat="40.847883" lon="-4.238183">
        <ele>1488.0</ele>
        <time>2014-06-30T16:07:14Z</time>
      </trkpt>
      <trkpt lat="40.847917" lon="-4.238233">
        <ele>1487.0</ele>
        <time>2014-06-30T16:07:15Z</time>
      </trkpt>
      <trkpt lat="40.847933" lon="-4.238267">
        <ele>1486.0</ele>
        <time>2014-06-30T16:07:16Z</time>
      </trkpt>
      <trkpt lat="40.847983" lon="-4.238317">
        <ele>1484.0</ele>
        <time>2014-06-30T16:07:17Z</time>
      </trkpt>
      <trkpt lat="40.848033" lon="-4.238367">
        <ele>1483.0</ele>
        <time>2014-06-30T16:07:18Z</time>
      </trkpt>
      <trkpt lat="40.848100" lon="-4.238400">
        <ele>1481.0</ele>
        <time>2014-06-30T16:07:19Z</time>
      </trkpt>
      <trkpt lat="40.848167" lon="-4.238433">
        <ele>1481.0</ele>
        <time>2014-06-30T16:07:20Z</time>
      </trkpt>
      <trkpt lat="40.848233" lon="-4.238450">
        <ele>1481.0</ele>
        <time>2014-06-30T16:07:21Z</time>
      </trkpt>
      <trkpt lat="40.848283" lon="-4.238483">
        <ele>1479.0</ele>
        <time>2014-06-30T16:07:22Z</time>
      </trkpt>
      <trkpt lat="40.848350" lon="-4.238517">
        <ele>1481.0</ele>
        <time>2014-06-30T16:07:23Z</time>
      </trkpt>
      <trkpt lat="40.848433" lon="-4.238550">
        <ele>1481.0</ele>
        <time>2014-06-30T16:07:24Z</time>
      </trkpt>
      <trkpt lat="40.848517" lon="-4.238567">
        <ele>1481.0</ele>
        <time>2014-06-30T16:07:25Z</time>
      </trkpt>
      <trkpt lat="40.848600" lon="-4.238583">
        <ele>1480.0</ele>
        <time>2014-06-30T16:07:26Z</time>
      </trkpt>
      <trkpt lat="40.848683" lon="-4.238567">
        <ele>1479.0</ele>
        <time>2014-06-30T16:07:27Z</time>
      </trkpt>
      <trkpt lat="40.848767" lon="-4.238533">
        <ele>1479.0</ele>
        <time>2014-06-30T16:07:28Z</time>
      </trkpt>
      <trkpt lat="40.848850" lon="-4.238500">
        <ele>1479.0</ele>
        <time>2014-06-30T16:07:29Z</time>
      </trkpt>
      <trkpt lat="40.848900" lon="-4.238467">
        <ele>1478.0</ele>
        <time>2014-06-30T16:07:30Z</time>
      </trkpt>
      <trkpt lat="40.848967" lon="-4.238467">
        <ele>1478.0</ele>
        <time>2014-06-30T16:07:31Z</time>
      </trkpt>
      <trkpt lat="40.849033" lon="-4.238450">
        <ele>1477.0</ele>
        <time>2014-06-30T16:07:32Z</time>
      </trkpt>
      <trkpt lat="40.849100" lon="-4.238417">
        <ele>1476.0</ele>
        <time>2014-06-30T16:07:33Z</time>
      </trkpt>
      <trkpt lat="40.849183" lon="-4.238367">
        <ele>1476.0</ele>
        <time>2014-06-30T16:07:34Z</time>
      </trkpt>
      <trkpt lat="40.849250" lon="-4.238333">
        <ele>1476.0</ele>
        <time>2014-06-30T16:07:35Z</time>
      </trkpt>
      <trkpt lat="40.849317" lon="-4.238300">
        <ele>1475.0</ele>
        <time>2014-06-30T16:07:36Z</time>
      </trkpt>
      <trkpt lat="40.849383" lon="-4.238267">
        <ele>1473.0</ele>
        <time>2014-06-30T16:07:37Z</time>
      </trkpt>
      <trkpt lat="40.849467" lon="-4.238217">
        <ele>1473.0</ele>
        <time>2014-06-30T16:07:38Z</time>
      </trkpt>
      <trkpt lat="40.849550" lon="-4.238133">
        <ele>1473.0</ele>
        <time>2014-06-30T16:07:39Z</time>
      </trkpt>
      <trkpt lat="40.849650" lon="-4.238050">
        <ele>1472.0</ele>
        <time>2014-06-30T16:07:40Z</time>
      </trkpt>
      <trkpt lat="40.849717" lon="-4.237950">
        <ele>1470.0</ele>
        <time>2014-06-30T16:07:41Z</time>
      </trkpt>
      <trkpt lat="40.849783" lon="-4.237867">
        <ele>1469.0</ele>
        <time>2014-06-30T16:07:42Z</time>
      </trkpt>
      <trkpt lat="40.849833" lon="-4.237767">
        <ele>1468.0</ele>
        <time>2014-06-30T16:07:43Z</time>
      </trkpt>
      <trkpt lat="40.849883" lon="-4.237667">
        <ele>1466.0</ele>
        <time>2014-06-30T16:07:44Z</time>
      </trkpt>
      <trkpt lat="40.849950" lon="-4.237567">
        <ele>1466.0</ele>
        <time>2014-06-30T16:07:45Z</time>
      </trkpt>
      <trkpt lat="40.850033" lon="-4.237467">
        <ele>1465.0</ele>
        <time>2014-06-30T16:07:46Z</time>
      </trkpt>
      <trkpt lat="40.850117" lon="-4.237383">
        <ele>1464.0</ele>
        <time>2014-06-30T16:07:47Z</time>
      </trkpt>
      <trkpt lat="40.850217" lon="-4.237283">
        <ele>1462.0</ele>
        <time>2014-06-30T16:07:48Z</time>
      </trkpt>
      <trkpt lat="40.850300" lon="-4.237217">
        <ele>1460.0</ele>
        <time>2014-06-30T16:07:49Z</time>
      </trkpt>
      <trkpt lat="40.850383" lon="-4.237133">
        <ele>1458.0</ele>
        <time>2014-06-30T16:07:50Z</time>
      </trkpt>
      <trkpt lat="40.850467" lon="-4.237067">
        <ele>1457.0</ele>
        <time>2014-06-30T16:07:51Z</time>
      </trkpt>
      <trkpt lat="40.850550" lon="-4.236983">
        <ele>1456.0</ele>
        <time>2014-06-30T16:07:52Z</time>
      </trkpt>
      <trkpt lat="40.850617" lon="-4.236883">
        <ele>1455.0</ele>
        <time>2014-06-30T16:07:53Z</time>
      </trkpt>
      <trkpt lat="40.850700" lon="-4.236783">
        <ele>1453.0</ele>
        <time>2014-06-30T16:07:54Z</time>
      </trkpt>
      <trkpt lat="40.850783" lon="-4.236700">
        <ele>1451.0</ele>
        <time>2014-06-30T16:07:55Z</time>
      </trkpt>
      <trkpt lat="40.850867" lon="-4.236633">
        <ele>1448.0</ele>
        <time>2014-06-30T16:07:56Z</time>
      </trkpt>
      <trkpt lat="40.850933" lon="-4.236567">
        <ele>1447.0</ele>
        <time>2014-06-30T16:07:57Z</time>
      </trkpt>
      <trkpt lat="40.851017" lon="-4.236483">
        <ele>1445.0</ele>
        <time>2014-06-30T16:07:58Z</time>
      </trkpt>
      <trkpt lat="40.851100" lon="-4.236417">
        <ele>1443.0</ele>
        <time>2014-06-30T16:07:59Z</time>
      </trkpt>
      <trkpt lat="40.851167" lon="-4.236333">
        <ele>1441.0</ele>
        <time>2014-06-30T16:08:00Z</time>
      </trkpt>
      <trkpt lat="40.851250" lon="-4.236267">
        <ele>1439.0</ele>
        <time>2014-06-30T16:08:01Z</time>
      </trkpt>
      <trkpt lat="40.851333" lon="-4.236200">
        <ele>1436.0</ele>
        <time>2014-06-30T16:08:02Z</time>
      </trkpt>
      <trkpt lat="40.851400" lon="-4.236100">
        <ele>1433.0</ele>
        <time>2014-06-30T16:08:03Z</time>
      </trkpt>
      <trkpt lat="40.851467" lon="-4.235983">
        <ele>1431.0</ele>
        <time>2014-06-30T16:08:04Z</time>
      </trkpt>
      <trkpt lat="40.851533" lon="-4.235883">
        <ele>1427.0</ele>
        <time>2014-06-30T16:08:05Z</time>
      </trkpt>
      <trkpt lat="40.851617" lon="-4.235800">
        <ele>1423.0</ele>
        <time>2014-06-30T16:08:06Z</time>
      </trkpt>
      <trkpt lat="40.851717" lon="-4.235733">
        <ele>1418.0</ele>
        <time>2014-06-30T16:08:07Z</time>
      </trkpt>
      <trkpt lat="40.851800" lon="-4.235650">
        <ele>1414.0</ele>
        <time>2014-06-30T16:08:08Z</time>
      </trkpt>
      <trkpt lat="40.851867" lon="-4.235550">
        <ele>1410.0</ele>
        <time>2014-06-30T16:08:09Z</time>
      </trkpt>
      <trkpt lat="40.851950" lon="-4.235433">
        <ele>1405.0</ele>
        <time>2014-06-30T16:08:10Z</time>
      </trkpt>
      <trkpt lat="40.852017" lon="-4.235333">
        <ele>1401.0</ele>
        <time>2014-06-30T16:08:11Z</time>
      </trkpt>
      <trkpt lat="40.852117" lon="-4.235233">
        <ele>1395.0</ele>
        <time>2014-06-30T16:08:12Z</time>
      </trkpt>
      <trkpt lat="40.852200" lon="-4.235150">
        <ele>1389.0</ele>
        <time>2014-06-30T16:08:13Z</time>
      </trkpt>
      <trkpt lat="40.852283" lon="-4.235067">
        <ele>1384.0</ele>
        <time>2014-06-30T16:08:14Z</time>
      </trkpt>
      <trkpt lat="40.852367" lon="-4.234967">
        <ele>1380.0</ele>
        <time>2014-06-30T16:08:15Z</time>
      </trkpt>
      <trkpt lat="40.852467" lon="-4.234883">
        <ele>1375.0</ele>
        <time>2014-06-30T16:08:16Z</time>
      </trkpt>
      <trkpt lat="40.852550" lon="-4.234817">
        <ele>1371.0</ele>
        <time>2014-06-30T16:08:17Z</time>
      </trkpt>
      <trkpt lat="40.852650" lon="-4.234767">
        <ele>1367.0</ele>
        <time>2014-06-30T16:08:18Z</time>
      </trkpt>
      <trkpt lat="40.852717" lon="-4.234700">
        <ele>1364.0</ele>
        <time>2014-06-30T16:08:19Z</time>
      </trkpt>
      <trkpt lat="40.852800" lon="-4.234633">
        <ele>1363.0</ele>
        <time>2014-06-30T16:08:20Z</time>
      </trkpt>
      <trkpt lat="40.852883" lon="-4.234583">
        <ele>1363.0</ele>
        <time>2014-06-30T16:08:21Z</time>
      </trkpt>
      <trkpt lat="40.852917" lon="-4.234567">
        <ele>1360.0</ele>
        <time>2014-06-30T16:08:22Z</time>
      </trkpt>
      <trkpt lat="40.852967" lon="-4.234550">
        <ele>1366.0</ele>
        <time>2014-06-30T16:08:23Z</time>
      </trkpt>
      <trkpt lat="40.853017" lon="-4.234533">
        <ele>1366.0</ele>
        <time>2014-06-30T16:08:24Z</time>
      </trkpt>
      <trkpt lat="40.853100" lon="-4.234500">
        <ele>1365.0</ele>
        <time>2014-06-30T16:08:25Z</time>
      </trkpt>
      <trkpt lat="40.853150" lon="-4.234450">
        <ele>1364.0</ele>
        <time>2014-06-30T16:08:26Z</time>
      </trkpt>
      <trkpt lat="40.853200" lon="-4.234400">
        <ele>1363.0</ele>
        <time>2014-06-30T16:08:27Z</time>
      </trkpt>
      <trkpt lat="40.853250" lon="-4.234383">
        <ele>1361.0</ele>
        <time>2014-06-30T16:08:28Z</time>
      </trkpt>
      <trkpt lat="40.853283" lon="-4.234350">
        <ele>1360.0</ele>
        <time>2014-06-30T16:08:29Z</time>
      </trkpt>
      <trkpt lat="40.853367" lon="-4.234350">
        <ele>1359.0</ele>
        <time>2014-06-30T16:08:30Z</time>
      </trkpt>
      <trkpt lat="40.853433" lon="-4.234317">
        <ele>1358.0</ele>
        <time>2014-06-30T16:08:31Z</time>
      </trkpt>
      <trkpt lat="40.853500" lon="-4.234300">
        <ele>1357.0</ele>
        <time>2014-06-30T16:08:32Z</time>
      </trkpt>
      <trkpt lat="40.853550" lon="-4.234267">
        <ele>1357.0</ele>
        <time>2014-06-30T16:08:33Z</time>
      </trkpt>
      <trkpt lat="40.853617" lon="-4.234233">
        <ele>1356.0</ele>
        <time>2014-06-30T16:08:34Z</time>
      </trkpt>
      <trkpt lat="40.853667" lon="-4.234200">
        <ele>1356.0</ele>
        <time>2014-06-30T16:08:35Z</time>
      </trkpt>
      <trkpt lat="40.853700" lon="-4.234167">
        <ele>1355.0</ele>
        <time>2014-06-30T16:08:36Z</time>
      </trkpt>
      <trkpt lat="40.853750" lon="-4.234133">
        <ele>1354.0</ele>
        <time>2014-06-30T16:08:37Z</time>
      </trkpt>
      <trkpt lat="40.853800" lon="-4.234117">
        <ele>1354.0</ele>
        <time>2014-06-30T16:08:38Z</time>
      </trkpt>
      <trkpt lat="40.853833" lon="-4.234100">
        <ele>1353.0</ele>
        <time>2014-06-30T16:08:39Z</time>
      </trkpt>
      <trkpt lat="40.853867" lon="-4.234083">
        <ele>1353.0</ele>
        <time>2014-06-30T16:08:40Z</time>
      </trkpt>
      <trkpt lat="40.853900" lon="-4.234067">
        <ele>1352.0</ele>
        <time>2014-06-30T16:08:41Z</time>
      </trkpt>
      <trkpt lat="40.853950" lon="-4.234067">
        <ele>1352.0</ele>
        <time>2014-06-30T16:08:42Z</time>
      </trkpt>
      <trkpt lat="40.853983" lon="-4.234083">
        <ele>1351.0</ele>
        <time>2014-06-30T16:08:43Z</time>
      </trkpt>
      <trkpt lat="40.854017" lon="-4.234117">
        <ele>1351.0</ele>
        <time>2014-06-30T16:08:44Z</time>
      </trkpt>
      <trkpt lat="40.854050" lon="-4.234133">
        <ele>1351.0</ele>
        <time>2014-06-30T16:08:45Z</time>
      </trkpt>
      <trkpt lat="40.854067" lon="-4.234133">
        <ele>1350.0</ele>
        <time>2014-06-30T16:08:46Z</time>
      </trkpt>
      <trkpt lat="40.854100" lon="-4.234117">
        <ele>1350.0</ele>
        <time>2014-06-30T16:08:47Z</time>
      </trkpt>
      <trkpt lat="40.854117" lon="-4.234100">
        <ele>1350.0</ele>
        <time>2014-06-30T16:08:48Z</time>
      </trkpt>
      <trkpt lat="40.854117" lon="-4.234067">
        <ele>1349.0</ele>
        <time>2014-06-30T16:08:49Z</time>
      </trkpt>
      <trkpt lat="40.854133" lon="-4.234050">
        <ele>1349.0</ele>
        <time>2014-06-30T16:08:50Z</time>
      </trkpt>
      <trkpt lat="40.854150" lon="-4.234033">
        <ele>1349.0</ele>
        <time>2014-06-30T16:08:51Z</time>
      </trkpt>
      <trkpt lat="40.854183" lon="-4.234000">
        <ele>1349.0</ele>
        <time>2014-06-30T16:08:52Z</time>
      </trkpt>
      <trkpt lat="40.854200" lon="-4.233983">
        <ele>1349.0</ele>
        <time>2014-06-30T16:08:53Z</time>
      </trkpt>
      <trkpt lat="40.854217" lon="-4.234000">
        <ele>1349.0</ele>
        <time>2014-06-30T16:08:54Z</time>
      </trkpt>
      <trkpt lat="40.854233" lon="-4.233983">
        <ele>1349.0</ele>
        <time>2014-06-30T16:08:55Z</time>
      </trkpt>
      <trkpt lat="40.854233" lon="-4.233983">
        <ele>1349.0</ele>
        <time>2014-06-30T16:08:56Z</time>
      </trkpt>
      <trkpt lat="40.854217" lon="-4.233967">
        <ele>1349.0</ele>
        <time>2014-06-30T16:08:57Z</time>
      </trkpt>
      <trkpt lat="40.854217" lon="-4.233967">
        <ele>1349.0</ele>
        <time>2014-06-30T16:08:58Z</time>
      </trkpt>
      <trkpt lat="40.854200" lon="-4.234000">
        <ele>1349.0</ele>
        <time>2014-06-30T16:08:59Z</time>
      </trkpt>
      <trkpt lat="40.854183" lon="-4.234033">
        <ele>1349.0</ele>
        <time>2014-06-30T16:09:00Z</time>
      </trkpt>
      <trkpt lat="40.854150" lon="-4.234050">
        <ele>1349.0</ele>
        <time>2014-06-30T16:09:01Z</time>
      </trkpt>
      <trkpt lat="40.854117" lon="-4.234050">
        <ele>1350.0</ele>
        <time>2014-06-30T16:09:02Z</time>
      </trkpt>
      <trkpt lat="40.854100" lon="-4.234033">
        <ele>1351.0</ele>
        <time>2014-06-30T16:09:03Z</time>
      </trkpt>
      <trkpt lat="40.854083" lon="-4.234033">
        <ele>1351.0</ele>
        <time>2014-06-30T16:09:04Z</time>
      </trkpt>
      <trkpt lat="40.854050" lon="-4.234067">
        <ele>1351.0</ele>
        <time>2014-06-30T16:09:05Z</time>
      </trkpt>
      <trkpt lat="40.854033" lon="-4.234100">
        <ele>1351.0</ele>
        <time>2014-06-30T16:09:06Z</time>
      </trkpt>
      <trkpt lat="40.853967" lon="-4.234150">
        <ele>1351.0</ele>
        <time>2014-06-30T16:09:07Z</time>
      </trkpt>
      <trkpt lat="40.853883" lon="-4.234183">
        <ele>1352.0</ele>
        <time>2014-06-30T16:09:08Z</time>
      </trkpt>
      <trkpt lat="40.853767" lon="-4.234167">
        <ele>1352.0</ele>
        <time>2014-06-30T16:09:09Z</time>
      </trkpt>
      <trkpt lat="40.853633" lon="-4.234067">
        <ele>1352.0</ele>
        <time>2014-06-30T16:09:10Z</time>
      </trkpt>
      <trkpt lat="40.853533" lon="-4.233933">
        <ele>1354.0</ele>
        <time>2014-06-30T16:09:11Z</time>
      </trkpt>
      <trkpt lat="40.853467" lon="-4.233767">
        <ele>1355.0</ele>
        <time>2014-06-30T16:09:12Z</time>
      </trkpt>
      <trkpt lat="40.853450" lon="-4.233583">
        <ele>1355.0</ele>
        <time>2014-06-30T16:09:13Z</time>
      </trkpt>
      <trkpt lat="40.853467" lon="-4.233433">
        <ele>1356.0</ele>
        <time>2014-06-30T16:09:14Z</time>
      </trkpt>
      <trkpt lat="40.853500" lon="-4.233333">
        <ele>1357.0</ele>
        <time>2014-06-30T16:09:15Z</time>
      </trkpt>
      <trkpt lat="40.853550" lon="-4.233300">
        <ele>1358.0</ele>
        <time>2014-06-30T16:09:16Z</time>
      </trkpt>
      <trkpt lat="40.853583" lon="-4.233300">
        <ele>1360.0</ele>
        <time>2014-06-30T16:09:17Z</time>
      </trkpt>
      <trkpt lat="40.853600" lon="-4.233283">
        <ele>1362.0</ele>
        <time>2014-06-30T16:09:18Z</time>
      </trkpt>
      <trkpt lat="40.853617" lon="-4.233267">
        <ele>1365.0</ele>
        <time>2014-06-30T16:09:19Z</time>
      </trkpt>
      <trkpt lat="40.853617" lon="-4.233233">
        <ele>1367.0</ele>
        <time>2014-06-30T16:09:20Z</time>
      </trkpt>
      <trkpt lat="40.853633" lon="-4.233250">
        <ele>1369.0</ele>
        <time>2014-06-30T16:09:21Z</time>
      </trkpt>
      <trkpt lat="40.853633" lon="-4.233283">
        <ele>1370.0</ele>
        <time>2014-06-30T16:09:22Z</time>
      </trkpt>
      <trkpt lat="40.853600" lon="-4.233317">
        <ele>1372.0</ele>
        <time>2014-06-30T16:09:23Z</time>
      </trkpt>
      <trkpt lat="40.853533" lon="-4.233350">
        <ele>1373.0</ele>
        <time>2014-06-30T16:09:24Z</time>
      </trkpt>
      <trkpt lat="40.853433" lon="-4.233350">
        <ele>1374.0</ele>
        <time>2014-06-30T16:09:25Z</time>
      </trkpt>
      <trkpt lat="40.853300" lon="-4.233317">
        <ele>1375.0</ele>
        <time>2014-06-30T16:09:26Z</time>
      </trkpt>
      <trkpt lat="40.853150" lon="-4.233233">
        <ele>1375.0</ele>
        <time>2014-06-30T16:09:27Z</time>
      </trkpt>
      <trkpt lat="40.853050" lon="-4.233117">
        <ele>1377.0</ele>
        <time>2014-06-30T16:09:28Z</time>
      </trkpt>
      <trkpt lat="40.852983" lon="-4.232950">
        <ele>1378.0</ele>
        <time>2014-06-30T16:09:29Z</time>
      </trkpt>
      <trkpt lat="40.852967" lon="-4.232783">
        <ele>1379.0</ele>
        <time>2014-06-30T16:09:30Z</time>
      </trkpt>
      <trkpt lat="40.852983" lon="-4.232650">
        <ele>1380.0</ele>
        <time>2014-06-30T16:09:31Z</time>
      </trkpt>
      <trkpt lat="40.853033" lon="-4.232567">
        <ele>1381.0</ele>
        <time>2014-06-30T16:09:32Z</time>
      </trkpt>
      <trkpt lat="40.853067" lon="-4.232567">
        <ele>1382.0</ele>
        <time>2014-06-30T16:09:33Z</time>
      </trkpt>
      <trkpt lat="40.853017" lon="-4.232633">
        <ele>1381.0</ele>
        <time>2014-06-30T16:09:34Z</time>
      </trkpt>
      <trkpt lat="40.852917" lon="-4.232683">
        <ele>1381.0</ele>
        <time>2014-06-30T16:09:35Z</time>
      </trkpt>
      <trkpt lat="40.852783" lon="-4.232667">
        <ele>1382.0</ele>
        <time>2014-06-30T16:09:36Z</time>
      </trkpt>
      <trkpt lat="40.852650" lon="-4.232583">
        <ele>1384.0</ele>
        <time>2014-06-30T16:09:37Z</time>
      </trkpt>
      <trkpt lat="40.852550" lon="-4.232433">
        <ele>1384.0</ele>
        <time>2014-06-30T16:09:38Z</time>
      </trkpt>
      <trkpt lat="40.852467" lon="-4.232250">
        <ele>1384.0</ele>
        <time>2014-06-30T16:09:39Z</time>
      </trkpt>
      <trkpt lat="40.852417" lon="-4.232050">
        <ele>1384.0</ele>
        <time>2014-06-30T16:09:40Z</time>
      </trkpt>
      <trkpt lat="40.852417" lon="-4.231883">
        <ele>1385.0</ele>
        <time>2014-06-30T16:09:41Z</time>
      </trkpt>
      <trkpt lat="40.852433" lon="-4.231733">
        <ele>1386.0</ele>
        <time>2014-06-30T16:09:42Z</time>
      </trkpt>
      <trkpt lat="40.852467" lon="-4.231650">
        <ele>1387.0</ele>
        <time>2014-06-30T16:09:43Z</time>
      </trkpt>
      <trkpt lat="40.852517" lon="-4.231600">
        <ele>1388.0</ele>
        <time>2014-06-30T16:09:44Z</time>
      </trkpt>
      <trkpt lat="40.852517" lon="-4.231600">
        <ele>1389.0</ele>
        <time>2014-06-30T16:09:45Z</time>
      </trkpt>
      <trkpt lat="40.852500" lon="-4.231600">
        <ele>1390.0</ele>
        <time>2014-06-30T16:09:46Z</time>
      </trkpt>
      <trkpt lat="40.852450" lon="-4.231617">
        <ele>1391.0</ele>
        <time>2014-06-30T16:09:47Z</time>
      </trkpt>
      <trkpt lat="40.852400" lon="-4.231650">
        <ele>1392.0</ele>
        <time>2014-06-30T16:09:48Z</time>
      </trkpt>
      <trkpt lat="40.852333" lon="-4.231683">
        <ele>1393.0</ele>
        <time>2014-06-30T16:09:49Z</time>
      </trkpt>
      <trkpt lat="40.852250" lon="-4.231683">
        <ele>1394.0</ele>
        <time>2014-06-30T16:09:50Z</time>
      </trkpt>
      <trkpt lat="40.852150" lon="-4.231650">
        <ele>1395.0</ele>
        <time>2014-06-30T16:09:51Z</time>
      </trkpt>
      <trkpt lat="40.852017" lon="-4.231567">
        <ele>1395.0</ele>
        <time>2014-06-30T16:09:52Z</time>
      </trkpt>
      <trkpt lat="40.851900" lon="-4.231450">
        <ele>1395.0</ele>
        <time>2014-06-30T16:09:53Z</time>
      </trkpt>
      <trkpt lat="40.851800" lon="-4.231283">
        <ele>1394.0</ele>
        <time>2014-06-30T16:09:54Z</time>
      </trkpt>
      <trkpt lat="40.851733" lon="-4.231067">
        <ele>1394.0</ele>
        <time>2014-06-30T16:09:55Z</time>
      </trkpt>
      <trkpt lat="40.851733" lon="-4.230883">
        <ele>1394.0</ele>
        <time>2014-06-30T16:09:56Z</time>
      </trkpt>
      <trkpt lat="40.851750" lon="-4.230717">
        <ele>1394.0</ele>
        <time>2014-06-30T16:09:57Z</time>
      </trkpt>
      <trkpt lat="40.851800" lon="-4.230583">
        <ele>1395.0</ele>
        <time>2014-06-30T16:09:58Z</time>
      </trkpt>
      <trkpt lat="40.851833" lon="-4.230483">
        <ele>1396.0</ele>
        <time>2014-06-30T16:09:59Z</time>
      </trkpt>
      <trkpt lat="40.851850" lon="-4.230367">
        <ele>1397.0</ele>
        <time>2014-06-30T16:10:00Z</time>
      </trkpt>
      <trkpt lat="40.851867" lon="-4.230250">
        <ele>1398.0</ele>
        <time>2014-06-30T16:10:01Z</time>
      </trkpt>
      <trkpt lat="40.851883" lon="-4.230167">
        <ele>1399.0</ele>
        <time>2014-06-30T16:10:02Z</time>
      </trkpt>
      <trkpt lat="40.851917" lon="-4.230117">
        <ele>1400.0</ele>
        <time>2014-06-30T16:10:03Z</time>
      </trkpt>
      <trkpt lat="40.851933" lon="-4.230083">
        <ele>1400.0</ele>
        <time>2014-06-30T16:10:04Z</time>
      </trkpt>
      <trkpt lat="40.851933" lon="-4.230067">
        <ele>1400.0</ele>
        <time>2014-06-30T16:10:05Z</time>
      </trkpt>
      <trkpt lat="40.851933" lon="-4.230083">
        <ele>1401.0</ele>
        <time>2014-06-30T16:10:06Z</time>
      </trkpt>
      <trkpt lat="40.851883" lon="-4.230117">
        <ele>1403.0</ele>
        <time>2014-06-30T16:10:07Z</time>
      </trkpt>
      <trkpt lat="40.851800" lon="-4.230150">
        <ele>1404.0</ele>
        <time>2014-06-30T16:10:08Z</time>
      </trkpt>
      <trkpt lat="40.851700" lon="-4.230150">
        <ele>1406.0</ele>
        <time>2014-06-30T16:10:09Z</time>
      </trkpt>
      <trkpt lat="40.851583" lon="-4.230117">
        <ele>1408.0</ele>
        <time>2014-06-30T16:10:10Z</time>
      </trkpt>
      <trkpt lat="40.851483" lon="-4.230067">
        <ele>1410.0</ele>
        <time>2014-06-30T16:10:11Z</time>
      </trkpt>
      <trkpt lat="40.851367" lon="-4.230000">
        <ele>1412.0</ele>
        <time>2014-06-30T16:10:12Z</time>
      </trkpt>
      <trkpt lat="40.851267" lon="-4.229917">
        <ele>1413.0</ele>
        <time>2014-06-30T16:10:13Z</time>
      </trkpt>
      <trkpt lat="40.851150" lon="-4.229800">
        <ele>1413.0</ele>
        <time>2014-06-30T16:10:14Z</time>
      </trkpt>
      <trkpt lat="40.851033" lon="-4.229667">
        <ele>1413.0</ele>
        <time>2014-06-30T16:10:15Z</time>
      </trkpt>
      <trkpt lat="40.850950" lon="-4.229483">
        <ele>1413.0</ele>
        <time>2014-06-30T16:10:16Z</time>
      </trkpt>
      <trkpt lat="40.850883" lon="-4.229300">
        <ele>1413.0</ele>
        <time>2014-06-30T16:10:17Z</time>
      </trkpt>
      <trkpt lat="40.850883" lon="-4.229117">
        <ele>1413.0</ele>
        <time>2014-06-30T16:10:18Z</time>
      </trkpt>
      <trkpt lat="40.850900" lon="-4.228967">
        <ele>1412.0</ele>
        <time>2014-06-30T16:10:19Z</time>
      </trkpt>
      <trkpt lat="40.850967" lon="-4.228850">
        <ele>1411.0</ele>
        <time>2014-06-30T16:10:20Z</time>
      </trkpt>
      <trkpt lat="40.851017" lon="-4.228767">
        <ele>1412.0</ele>
        <time>2014-06-30T16:10:21Z</time>
      </trkpt>
      <trkpt lat="40.851067" lon="-4.228650">
        <ele>1415.0</ele>
        <time>2014-06-30T16:10:22Z</time>
      </trkpt>
      <trkpt lat="40.851100" lon="-4.228533">
        <ele>1416.0</ele>
        <time>2014-06-30T16:10:23Z</time>
      </trkpt>
      <trkpt lat="40.851133" lon="-4.228433">
        <ele>1417.0</ele>
        <time>2014-06-30T16:10:24Z</time>
      </trkpt>
      <trkpt lat="40.851167" lon="-4.228350">
        <ele>1418.0</ele>
        <time>2014-06-30T16:10:25Z</time>
      </trkpt>
      <trkpt lat="40.851200" lon="-4.228317">
        <ele>1417.0</ele>
        <time>2014-06-30T16:10:26Z</time>
      </trkpt>
      <trkpt lat="40.851217" lon="-4.228300">
        <ele>1416.0</ele>
        <time>2014-06-30T16:10:27Z</time>
      </trkpt>
      <trkpt lat="40.851233" lon="-4.228300">
        <ele>1417.0</ele>
        <time>2014-06-30T16:10:28Z</time>
      </trkpt>
      <trkpt lat="40.851233" lon="-4.228333">
        <ele>1415.0</ele>
        <time>2014-06-30T16:10:29Z</time>
      </trkpt>
      <trkpt lat="40.851200" lon="-4.228350">
        <ele>1414.0</ele>
        <time>2014-06-30T16:10:30Z</time>
      </trkpt>
      <trkpt lat="40.851133" lon="-4.228383">
        <ele>1414.0</ele>
        <time>2014-06-30T16:10:31Z</time>
      </trkpt>
      <trkpt lat="40.851050" lon="-4.228383">
        <ele>1414.0</ele>
        <time>2014-06-30T16:10:32Z</time>
      </trkpt>
      <trkpt lat="40.850950" lon="-4.228367">
        <ele>1414.0</ele>
        <time>2014-06-30T16:10:33Z</time>
      </trkpt>
      <trkpt lat="40.850817" lon="-4.228317">
        <ele>1415.0</ele>
        <time>2014-06-30T16:10:34Z</time>
      </trkpt>
      <trkpt lat="40.850700" lon="-4.228233">
        <ele>1415.0</ele>
        <time>2014-06-30T16:10:35Z</time>
      </trkpt>
      <trkpt lat="40.850583" lon="-4.228083">
        <ele>1414.0</ele>
        <time>2014-06-30T16:10:36Z</time>
      </trkpt>
      <trkpt lat="40.850500" lon="-4.227900">
        <ele>1413.0</ele>
        <time>2014-06-30T16:10:37Z</time>
      </trkpt>
      <trkpt lat="40.850450" lon="-4.227700">
        <ele>1411.0</ele>
        <time>2014-06-30T16:10:38Z</time>
      </trkpt>
      <trkpt lat="40.850433" lon="-4.227500">
        <ele>1411.0</ele>
        <time>2014-06-30T16:10:39Z</time>
      </trkpt>
      <trkpt lat="40.850450" lon="-4.227333">
        <ele>1411.0</ele>
        <time>2014-06-30T16:10:40Z</time>
      </trkpt>
      <trkpt lat="40.850483" lon="-4.227200">
        <ele>1411.0</ele>
        <time>2014-06-30T16:10:41Z</time>
      </trkpt>
      <trkpt lat="40.850533" lon="-4.227067">
        <ele>1411.0</ele>
        <time>2014-06-30T16:10:42Z</time>
      </trkpt>
      <trkpt lat="40.850550" lon="-4.226900">
        <ele>1410.0</ele>
        <time>2014-06-30T16:10:43Z</time>
      </trkpt>
      <trkpt lat="40.850583" lon="-4.226717">
        <ele>1410.0</ele>
        <time>2014-06-30T16:10:44Z</time>
      </trkpt>
      <trkpt lat="40.850617" lon="-4.226550">
        <ele>1410.0</ele>
        <time>2014-06-30T16:10:45Z</time>
      </trkpt>
      <trkpt lat="40.850667" lon="-4.226400">
        <ele>1410.0</ele>
        <time>2014-06-30T16:10:46Z</time>
      </trkpt>
      <trkpt lat="40.850733" lon="-4.226250">
        <ele>1410.0</ele>
        <time>2014-06-30T16:10:47Z</time>
      </trkpt>
      <trkpt lat="40.850800" lon="-4.226100">
        <ele>1410.0</ele>
        <time>2014-06-30T16:10:48Z</time>
      </trkpt>
      <trkpt lat="40.850867" lon="-4.225967">
        <ele>1411.0</ele>
        <time>2014-06-30T16:10:49Z</time>
      </trkpt>
      <trkpt lat="40.850917" lon="-4.225833">
        <ele>1413.0</ele>
        <time>2014-06-30T16:10:50Z</time>
      </trkpt>
      <trkpt lat="40.850967" lon="-4.225750">
        <ele>1414.0</ele>
        <time>2014-06-30T16:10:51Z</time>
      </trkpt>
      <trkpt lat="40.851017" lon="-4.225683">
        <ele>1415.0</ele>
        <time>2014-06-30T16:10:52Z</time>
      </trkpt>
      <trkpt lat="40.851050" lon="-4.225650">
        <ele>1415.0</ele>
        <time>2014-06-30T16:10:53Z</time>
      </trkpt>
      <trkpt lat="40.851083" lon="-4.225633">
        <ele>1415.0</ele>
        <time>2014-06-30T16:10:54Z</time>
      </trkpt>
      <trkpt lat="40.851133" lon="-4.225617">
        <ele>1416.0</ele>
        <time>2014-06-30T16:10:55Z</time>
      </trkpt>
      <trkpt lat="40.851167" lon="-4.225633">
        <ele>1417.0</ele>
        <time>2014-06-30T16:10:56Z</time>
      </trkpt>
      <trkpt lat="40.851183" lon="-4.225650">
        <ele>1418.0</ele>
        <time>2014-06-30T16:10:57Z</time>
      </trkpt>
      <trkpt lat="40.851167" lon="-4.225683">
        <ele>1417.0</ele>
        <time>2014-06-30T16:10:58Z</time>
      </trkpt>
      <trkpt lat="40.851133" lon="-4.225733">
        <ele>1418.0</ele>
        <time>2014-06-30T16:10:59Z</time>
      </trkpt>
      <trkpt lat="40.851067" lon="-4.225767">
        <ele>1418.0</ele>
        <time>2014-06-30T16:11:00Z</time>
      </trkpt>
      <trkpt lat="40.850967" lon="-4.225750">
        <ele>1418.0</ele>
        <time>2014-06-30T16:11:01Z</time>
      </trkpt>
      <trkpt lat="40.850867" lon="-4.225700">
        <ele>1418.0</ele>
        <time>2014-06-30T16:11:02Z</time>
      </trkpt>
      <trkpt lat="40.850767" lon="-4.225600">
        <ele>1418.0</ele>
        <time>2014-06-30T16:11:03Z</time>
      </trkpt>
      <trkpt lat="40.850683" lon="-4.225450">
        <ele>1418.0</ele>
        <time>2014-06-30T16:11:04Z</time>
      </trkpt>
      <trkpt lat="40.850650" lon="-4.225283">
        <ele>1417.0</ele>
        <time>2014-06-30T16:11:05Z</time>
      </trkpt>
      <trkpt lat="40.850650" lon="-4.225100">
        <ele>1417.0</ele>
        <time>2014-06-30T16:11:06Z</time>
      </trkpt>
      <trkpt lat="40.850683" lon="-4.224950">
        <ele>1417.0</ele>
        <time>2014-06-30T16:11:07Z</time>
      </trkpt>
      <trkpt lat="40.850733" lon="-4.224833">
        <ele>1417.0</ele>
        <time>2014-06-30T16:11:08Z</time>
      </trkpt>
      <trkpt lat="40.850800" lon="-4.224733">
        <ele>1418.0</ele>
        <time>2014-06-30T16:11:09Z</time>
      </trkpt>
      <trkpt lat="40.850850" lon="-4.224633">
        <ele>1420.0</ele>
        <time>2014-06-30T16:11:10Z</time>
      </trkpt>
      <trkpt lat="40.850883" lon="-4.224550">
        <ele>1421.0</ele>
        <time>2014-06-30T16:11:11Z</time>
      </trkpt>
      <trkpt lat="40.850933" lon="-4.224450">
        <ele>1420.0</ele>
        <time>2014-06-30T16:11:12Z</time>
      </trkpt>
      <trkpt lat="40.850967" lon="-4.224383">
        <ele>1420.0</ele>
        <time>2014-06-30T16:11:13Z</time>
      </trkpt>
      <trkpt lat="40.851017" lon="-4.224350">
        <ele>1420.0</ele>
        <time>2014-06-30T16:11:14Z</time>
      </trkpt>
      <trkpt lat="40.851033" lon="-4.224367">
        <ele>1421.0</ele>
        <time>2014-06-30T16:11:15Z</time>
      </trkpt>
      <trkpt lat="40.851017" lon="-4.224417">
        <ele>1421.0</ele>
        <time>2014-06-30T16:11:16Z</time>
      </trkpt>
      <trkpt lat="40.850967" lon="-4.224467">
        <ele>1421.0</ele>
        <time>2014-06-30T16:11:17Z</time>
      </trkpt>
      <trkpt lat="40.850900" lon="-4.224533">
        <ele>1422.0</ele>
        <time>2014-06-30T16:11:18Z</time>
      </trkpt>
      <trkpt lat="40.850817" lon="-4.224567">
        <ele>1423.0</ele>
        <time>2014-06-30T16:11:19Z</time>
      </trkpt>
      <trkpt lat="40.850733" lon="-4.224583">
        <ele>1423.0</ele>
        <time>2014-06-30T16:11:20Z</time>
      </trkpt>
      <trkpt lat="40.850633" lon="-4.224583">
        <ele>1422.0</ele>
        <time>2014-06-30T16:11:21Z</time>
      </trkpt>
      <trkpt lat="40.850500" lon="-4.224533">
        <ele>1422.0</ele>
        <time>2014-06-30T16:11:22Z</time>
      </trkpt>
      <trkpt lat="40.850383" lon="-4.224417">
        <ele>1421.0</ele>
        <time>2014-06-30T16:11:23Z</time>
      </trkpt>
      <trkpt lat="40.850300" lon="-4.224267">
        <ele>1421.0</ele>
        <time>2014-06-30T16:11:24Z</time>
      </trkpt>
      <trkpt lat="40.850300" lon="-4.224100">
        <ele>1420.0</ele>
        <time>2014-06-30T16:11:25Z</time>
      </trkpt>
      <trkpt lat="40.850333" lon="-4.223950">
        <ele>1420.0</ele>
        <time>2014-06-30T16:11:26Z</time>
      </trkpt>
      <trkpt lat="40.850400" lon="-4.223833">
        <ele>1419.0</ele>
        <time>2014-06-30T16:11:27Z</time>
      </trkpt>
      <trkpt lat="40.850467" lon="-4.223700">
        <ele>1419.0</ele>
        <time>2014-06-30T16:11:28Z</time>
      </trkpt>
      <trkpt lat="40.850533" lon="-4.223567">
        <ele>1420.0</ele>
        <time>2014-06-30T16:11:29Z</time>
      </trkpt>
      <trkpt lat="40.850567" lon="-4.223433">
        <ele>1423.0</ele>
        <time>2014-06-30T16:11:30Z</time>
      </trkpt>
      <trkpt lat="40.850600" lon="-4.223317">
        <ele>1426.0</ele>
        <time>2014-06-30T16:11:31Z</time>
      </trkpt>
      <trkpt lat="40.850617" lon="-4.223217">
        <ele>1428.0</ele>
        <time>2014-06-30T16:11:32Z</time>
      </trkpt>
      <trkpt lat="40.850650" lon="-4.223133">
        <ele>1426.0</ele>
        <time>2014-06-30T16:11:33Z</time>
      </trkpt>
      <trkpt lat="40.850700" lon="-4.223033">
        <ele>1427.0</ele>
        <time>2014-06-30T16:11:34Z</time>
      </trkpt>
      <trkpt lat="40.850750" lon="-4.222983">
        <ele>1428.0</ele>
        <time>2014-06-30T16:11:35Z</time>
      </trkpt>
      <trkpt lat="40.850783" lon="-4.223000">
        <ele>1430.0</ele>
        <time>2014-06-30T16:11:36Z</time>
      </trkpt>
      <trkpt lat="40.850767" lon="-4.223050">
        <ele>1432.0</ele>
        <time>2014-06-30T16:11:37Z</time>
      </trkpt>
      <trkpt lat="40.850717" lon="-4.223100">
        <ele>1434.0</ele>
        <time>2014-06-30T16:11:38Z</time>
      </trkpt>
      <trkpt lat="40.850617" lon="-4.223117">
        <ele>1436.0</ele>
        <time>2014-06-30T16:11:39Z</time>
      </trkpt>
      <trkpt lat="40.850533" lon="-4.223100">
        <ele>1439.0</ele>
        <time>2014-06-30T16:11:40Z</time>
      </trkpt>
      <trkpt lat="40.850433" lon="-4.223017">
        <ele>1440.0</ele>
        <time>2014-06-30T16:11:41Z</time>
      </trkpt>
      <trkpt lat="40.850367" lon="-4.222900">
        <ele>1442.0</ele>
        <time>2014-06-30T16:11:42Z</time>
      </trkpt>
      <trkpt lat="40.850300" lon="-4.222767">
        <ele>1444.0</ele>
        <time>2014-06-30T16:11:43Z</time>
      </trkpt>
      <trkpt lat="40.850267" lon="-4.222600">
        <ele>1446.0</ele>
        <time>2014-06-30T16:11:44Z</time>
      </trkpt>
      <trkpt lat="40.850267" lon="-4.222450">
        <ele>1449.0</ele>
        <time>2014-06-30T16:11:45Z</time>
      </trkpt>
      <trkpt lat="40.850283" lon="-4.222317">
        <ele>1451.0</ele>
        <time>2014-06-30T16:11:46Z</time>
      </trkpt>
      <trkpt lat="40.850300" lon="-4.222200">
        <ele>1453.0</ele>
        <time>2014-06-30T16:11:47Z</time>
      </trkpt>
      <trkpt lat="40.850350" lon="-4.222100">
        <ele>1455.0</ele>
        <time>2014-06-30T16:11:48Z</time>
      </trkpt>
      <trkpt lat="40.850400" lon="-4.222033">
        <ele>1457.0</ele>
        <time>2014-06-30T16:11:49Z</time>
      </trkpt>
      <trkpt lat="40.850450" lon="-4.221983">
        <ele>1461.0</ele>
        <time>2014-06-30T16:11:50Z</time>
      </trkpt>
      <trkpt lat="40.850483" lon="-4.221950">
        <ele>1465.0</ele>
        <time>2014-06-30T16:11:51Z</time>
      </trkpt>
      <trkpt lat="40.850500" lon="-4.221933">
        <ele>1469.0</ele>
        <time>2014-06-30T16:11:52Z</time>
      </trkpt>
      <trkpt lat="40.850500" lon="-4.221933">
        <ele>1474.0</ele>
        <time>2014-06-30T16:11:53Z</time>
      </trkpt>
      <trkpt lat="40.850500" lon="-4.221967">
        <ele>1478.0</ele>
        <time>2014-06-30T16:11:54Z</time>
      </trkpt>
      <trkpt lat="40.850467" lon="-4.222017">
        <ele>1481.0</ele>
        <time>2014-06-30T16:11:55Z</time>
      </trkpt>
      <trkpt lat="40.850383" lon="-4.222050">
        <ele>1485.0</ele>
        <time>2014-06-30T16:11:56Z</time>
      </trkpt>
      <trkpt lat="40.850300" lon="-4.222083">
        <ele>1488.0</ele>
        <time>2014-06-30T16:11:57Z</time>
      </trkpt>
      <trkpt lat="40.850183" lon="-4.222083">
        <ele>1492.0</ele>
        <time>2014-06-30T16:11:58Z</time>
      </trkpt>
      <trkpt lat="40.850067" lon="-4.222050">
        <ele>1497.0</ele>
        <time>2014-06-30T16:11:59Z</time>
      </trkpt>
      <trkpt lat="40.849950" lon="-4.222000">
        <ele>1500.0</ele>
        <time>2014-06-30T16:12:00Z</time>
      </trkpt>
      <trkpt lat="40.849850" lon="-4.221917">
        <ele>1504.0</ele>
        <time>2014-06-30T16:12:01Z</time>
      </trkpt>
      <trkpt lat="40.849750" lon="-4.221817">
        <ele>1508.0</ele>
        <time>2014-06-30T16:12:02Z</time>
      </trkpt>
      <trkpt lat="40.849667" lon="-4.221683">
        <ele>1512.0</ele>
        <time>2014-06-30T16:12:03Z</time>
      </trkpt>
      <trkpt lat="40.849617" lon="-4.221550">
        <ele>1515.0</ele>
        <time>2014-06-30T16:12:04Z</time>
      </trkpt>
      <trkpt lat="40.849600" lon="-4.221417">
        <ele>1518.0</ele>
        <time>2014-06-30T16:12:05Z</time>
      </trkpt>
      <trkpt lat="40.849583" lon="-4.221250">
        <ele>1521.0</ele>
        <time>2014-06-30T16:12:06Z</time>
      </trkpt>
      <trkpt lat="40.849583" lon="-4.221083">
        <ele>1524.0</ele>
        <time>2014-06-30T16:12:07Z</time>
      </trkpt>
      <trkpt lat="40.849617" lon="-4.220967">
        <ele>1527.0</ele>
        <time>2014-06-30T16:12:08Z</time>
      </trkpt>
      <trkpt lat="40.849667" lon="-4.220867">
        <ele>1529.0</ele>
        <time>2014-06-30T16:12:09Z</time>
      </trkpt>
      <trkpt lat="40.849700" lon="-4.220817">
        <ele>1531.0</ele>
        <time>2014-06-30T16:12:10Z</time>
      </trkpt>
      <trkpt lat="40.849750" lon="-4.220800">
        <ele>1533.0</ele>
        <time>2014-06-30T16:12:11Z</time>
      </trkpt>
      <trkpt lat="40.849783" lon="-4.220817">
        <ele>1536.0</ele>
        <time>2014-06-30T16:12:12Z</time>
      </trkpt>
      <trkpt lat="40.849800" lon="-4.220850">
        <ele>1540.0</ele>
        <time>2014-06-30T16:12:13Z</time>
      </trkpt>
      <trkpt lat="40.849783" lon="-4.220883">
        <ele>1544.0</ele>
        <time>2014-06-30T16:12:14Z</time>
      </trkpt>
      <trkpt lat="40.849750" lon="-4.220933">
        <ele>1548.0</ele>
        <time>2014-06-30T16:12:15Z</time>
      </trkpt>
      <trkpt lat="40.849700" lon="-4.220983">
        <ele>1551.0</ele>
        <time>2014-06-30T16:12:16Z</time>
      </trkpt>
      <trkpt lat="40.849650" lon="-4.221033">
        <ele>1554.0</ele>
        <time>2014-06-30T16:12:17Z</time>
      </trkpt>
      <trkpt lat="40.849583" lon="-4.221083">
        <ele>1558.0</ele>
        <time>2014-06-30T16:12:18Z</time>
      </trkpt>
      <trkpt lat="40.849517" lon="-4.221133">
        <ele>1561.0</ele>
        <time>2014-06-30T16:12:19Z</time>
      </trkpt>
      <trkpt lat="40.849417" lon="-4.221150">
        <ele>1565.0</ele>
        <time>2014-06-30T16:12:20Z</time>
      </trkpt>
      <trkpt lat="40.849317" lon="-4.221150">
        <ele>1569.0</ele>
        <time>2014-06-30T16:12:21Z</time>
      </trkpt>
      <trkpt lat="40.849200" lon="-4.221100">
        <ele>1572.0</ele>
        <time>2014-06-30T16:12:22Z</time>
      </trkpt>
      <trkpt lat="40.849083" lon="-4.221000">
        <ele>1576.0</ele>
        <time>2014-06-30T16:12:23Z</time>
      </trkpt>
      <trkpt lat="40.849000" lon="-4.220900">
        <ele>1579.0</ele>
        <time>2014-06-30T16:12:24Z</time>
      </trkpt>
      <trkpt lat="40.848933" lon="-4.220767">
        <ele>1583.0</ele>
        <time>2014-06-30T16:12:25Z</time>
      </trkpt>
      <trkpt lat="40.848883" lon="-4.220650">
        <ele>1586.0</ele>
        <time>2014-06-30T16:12:26Z</time>
      </trkpt>
      <trkpt lat="40.848833" lon="-4.220517">
        <ele>1590.0</ele>
        <time>2014-06-30T16:12:27Z</time>
      </trkpt>
      <trkpt lat="40.848833" lon="-4.220367">
        <ele>1593.0</ele>
        <time>2014-06-30T16:12:28Z</time>
      </trkpt>
      <trkpt lat="40.848850" lon="-4.220233">
        <ele>1596.0</ele>
        <time>2014-06-30T16:12:29Z</time>
      </trkpt>
      <trkpt lat="40.848883" lon="-4.220117">
        <ele>1599.0</ele>
        <time>2014-06-30T16:12:30Z</time>
      </trkpt>
      <trkpt lat="40.848933" lon="-4.220017">
        <ele>1601.0</ele>
        <time>2014-06-30T16:12:31Z</time>
      </trkpt>
      <trkpt lat="40.848983" lon="-4.219950">
        <ele>1603.0</ele>
        <time>2014-06-30T16:12:32Z</time>
      </trkpt>
      <trkpt lat="40.849017" lon="-4.219917">
        <ele>1606.0</ele>
        <time>2014-06-30T16:12:33Z</time>
      </trkpt>
      <trkpt lat="40.849050" lon="-4.219917">
        <ele>1610.0</ele>
        <time>2014-06-30T16:12:34Z</time>
      </trkpt>
      <trkpt lat="40.849067" lon="-4.219917">
        <ele>1613.0</ele>
        <time>2014-06-30T16:12:35Z</time>
      </trkpt>
      <trkpt lat="40.849067" lon="-4.219933">
        <ele>1616.0</ele>
        <time>2014-06-30T16:12:36Z</time>
      </trkpt>
      <trkpt lat="40.849067" lon="-4.219967">
        <ele>1619.0</ele>
        <time>2014-06-30T16:12:37Z</time>
      </trkpt>
      <trkpt lat="40.849067" lon="-4.219983">
        <ele>1622.0</ele>
        <time>2014-06-30T16:12:38Z</time>
      </trkpt>
      <trkpt lat="40.849050" lon="-4.220033">
        <ele>1624.0</ele>
        <time>2014-06-30T16:12:39Z</time>
      </trkpt>
      <trkpt lat="40.849033" lon="-4.220100">
        <ele>1626.0</ele>
        <time>2014-06-30T16:12:40Z</time>
      </trkpt>
      <trkpt lat="40.848983" lon="-4.220150">
        <ele>1629.0</ele>
        <time>2014-06-30T16:12:41Z</time>
      </trkpt>
      <trkpt lat="40.848917" lon="-4.220200">
        <ele>1631.0</ele>
        <time>2014-06-30T16:12:42Z</time>
      </trkpt>
      <trkpt lat="40.848817" lon="-4.220233">
        <ele>1634.0</ele>
        <time>2014-06-30T16:12:43Z</time>
      </trkpt>
      <trkpt lat="40.848700" lon="-4.220233">
        <ele>1637.0</ele>
        <time>2014-06-30T16:12:44Z</time>
      </trkpt>
      <trkpt lat="40.848583" lon="-4.220217">
        <ele>1639.0</ele>
        <time>2014-06-30T16:12:45Z</time>
      </trkpt>
      <trkpt lat="40.848467" lon="-4.220217">
        <ele>1643.0</ele>
        <time>2014-06-30T16:12:46Z</time>
      </trkpt>
      <trkpt lat="40.848350" lon="-4.220183">
        <ele>1647.0</ele>
        <time>2014-06-30T16:12:47Z</time>
      </trkpt>
      <trkpt lat="40.848250" lon="-4.220133">
        <ele>1650.0</ele>
        <time>2014-06-30T16:12:48Z</time>
      </trkpt>
      <trkpt lat="40.848133" lon="-4.220067">
        <ele>1653.0</ele>
        <time>2014-06-30T16:12:49Z</time>
      </trkpt>
      <trkpt lat="40.848017" lon="-4.219967">
        <ele>1656.0</ele>
        <time>2014-06-30T16:12:50Z</time>
      </trkpt>
      <trkpt lat="40.847933" lon="-4.219833">
        <ele>1659.0</ele>
        <time>2014-06-30T16:12:51Z</time>
      </trkpt>
      <trkpt lat="40.847867" lon="-4.219700">
        <ele>1661.0</ele>
        <time>2014-06-30T16:12:52Z</time>
      </trkpt>
      <trkpt lat="40.847817" lon="-4.219550">
        <ele>1663.0</ele>
        <time>2014-06-30T16:12:53Z</time>
      </trkpt>
      <trkpt lat="40.847750" lon="-4.219400">
        <ele>1665.0</ele>
        <time>2014-06-30T16:12:54Z</time>
      </trkpt>
      <trkpt lat="40.847700" lon="-4.219250">
        <ele>1668.0</ele>
        <time>2014-06-30T16:12:55Z</time>
      </trkpt>
      <trkpt lat="40.847683" lon="-4.219083">
        <ele>1670.0</ele>
        <time>2014-06-30T16:12:56Z</time>
      </trkpt>
      <trkpt lat="40.847683" lon="-4.218933">
        <ele>1672.0</ele>
        <time>2014-06-30T16:12:57Z</time>
      </trkpt>
      <trkpt lat="40.847717" lon="-4.218783">
        <ele>1674.0</ele>
        <time>2014-06-30T16:12:58Z</time>
      </trkpt>
      <trkpt lat="40.847767" lon="-4.218667">
        <ele>1677.0</ele>
        <time>2014-06-30T16:12:59Z</time>
      </trkpt>
      <trkpt lat="40.847817" lon="-4.218600">
        <ele>1678.0</ele>
        <time>2014-06-30T16:13:00Z</time>
      </trkpt>
      <trkpt lat="40.847850" lon="-4.218567">
        <ele>1681.0</ele>
        <time>2014-06-30T16:13:01Z</time>
      </trkpt>
      <trkpt lat="40.847867" lon="-4.218517">
        <ele>1683.0</ele>
        <time>2014-06-30T16:13:02Z</time>
      </trkpt>
      <trkpt lat="40.847883" lon="-4.218483">
        <ele>1685.0</ele>
        <time>2014-06-30T16:13:03Z</time>
      </trkpt>
      <trkpt lat="40.847917" lon="-4.218467">
        <ele>1686.0</ele>
        <time>2014-06-30T16:13:04Z</time>
      </trkpt>
      <trkpt lat="40.847967" lon="-4.218450">
        <ele>1688.0</ele>
        <time>2014-06-30T16:13:05Z</time>
      </trkpt>
      <trkpt lat="40.847983" lon="-4.218467">
        <ele>1682.0</ele>
        <time>2014-06-30T16:13:06Z</time>
      </trkpt>
      <trkpt lat="40.847983" lon="-4.218517">
        <ele>1682.0</ele>
        <time>2014-06-30T16:13:07Z</time>
      </trkpt>
      <trkpt lat="40.847950" lon="-4.218583">
        <ele>1683.0</ele>
        <time>2014-06-30T16:13:08Z</time>
      </trkpt>
      <trkpt lat="40.847917" lon="-4.218650">
        <ele>1684.0</ele>
        <time>2014-06-30T16:13:09Z</time>
      </trkpt>
      <trkpt lat="40.847850" lon="-4.218700">
        <ele>1685.0</ele>
        <time>2014-06-30T16:13:10Z</time>
      </trkpt>
      <trkpt lat="40.847783" lon="-4.218733">
        <ele>1685.0</ele>
        <time>2014-06-30T16:13:11Z</time>
      </trkpt>
      <trkpt lat="40.847717" lon="-4.218750">
        <ele>1686.0</ele>
        <time>2014-06-30T16:13:12Z</time>
      </trkpt>
      <trkpt lat="40.847633" lon="-4.218783">
        <ele>1687.0</ele>
        <time>2014-06-30T16:13:13Z</time>
      </trkpt>
      <trkpt lat="40.847550" lon="-4.218833">
        <ele>1688.0</ele>
        <time>2014-06-30T16:13:14Z</time>
      </trkpt>
      <trkpt lat="40.847450" lon="-4.218867">
        <ele>1689.0</ele>
        <time>2014-06-30T16:13:15Z</time>
      </trkpt>
      <trkpt lat="40.847350" lon="-4.218867">
        <ele>1690.0</ele>
        <time>2014-06-30T16:13:16Z</time>
      </trkpt>
      <trkpt lat="40.847250" lon="-4.218833">
        <ele>1692.0</ele>
        <time>2014-06-30T16:13:17Z</time>
      </trkpt>
      <trkpt lat="40.847150" lon="-4.218767">
        <ele>1695.0</ele>
        <time>2014-06-30T16:13:18Z</time>
      </trkpt>
      <trkpt lat="40.847050" lon="-4.218667">
        <ele>1699.0</ele>
        <time>2014-06-30T16:13:19Z</time>
      </trkpt>
      <trkpt lat="40.846967" lon="-4.218533">
        <ele>1702.0</ele>
        <time>2014-06-30T16:13:20Z</time>
      </trkpt>
      <trkpt lat="40.846917" lon="-4.218383">
        <ele>1705.0</ele>
        <time>2014-06-30T16:13:21Z</time>
      </trkpt>
      <trkpt lat="40.846900" lon="-4.218233">
        <ele>1708.0</ele>
        <time>2014-06-30T16:13:22Z</time>
      </trkpt>
      <trkpt lat="40.846917" lon="-4.218083">
        <ele>1710.0</ele>
        <time>2014-06-30T16:13:23Z</time>
      </trkpt>
      <trkpt lat="40.846950" lon="-4.217967">
        <ele>1713.0</ele>
        <time>2014-06-30T16:13:24Z</time>
      </trkpt>
      <trkpt lat="40.847000" lon="-4.217900">
        <ele>1716.0</ele>
        <time>2014-06-30T16:13:25Z</time>
      </trkpt>
      <trkpt lat="40.847050" lon="-4.217867">
        <ele>1720.0</ele>
        <time>2014-06-30T16:13:26Z</time>
      </trkpt>
      <trkpt lat="40.847067" lon="-4.217867">
        <ele>1724.0</ele>
        <time>2014-06-30T16:13:27Z</time>
      </trkpt>
      <trkpt lat="40.847083" lon="-4.217883">
        <ele>1727.0</ele>
        <time>2014-06-30T16:13:28Z</time>
      </trkpt>
      <trkpt lat="40.847100" lon="-4.217883">
        <ele>1730.0</ele>
        <time>2014-06-30T16:13:29Z</time>
      </trkpt>
      <trkpt lat="40.847100" lon="-4.217917">
        <ele>1732.0</ele>
        <time>2014-06-30T16:13:30Z</time>
      </trkpt>
      <trkpt lat="40.847083" lon="-4.217950">
        <ele>1733.0</ele>
        <time>2014-06-30T16:13:31Z</time>
      </trkpt>
      <trkpt lat="40.847067" lon="-4.218017">
        <ele>1735.0</ele>
        <time>2014-06-30T16:13:32Z</time>
      </trkpt>
      <trkpt lat="40.847033" lon="-4.218083">
        <ele>1737.0</ele>
        <time>2014-06-30T16:13:33Z</time>
      </trkpt>
      <trkpt lat="40.846967" lon="-4.218133">
        <ele>1740.0</ele>
        <time>2014-06-30T16:13:34Z</time>
      </trkpt>
      <trkpt lat="40.846867" lon="-4.218150">
        <ele>1742.0</ele>
        <time>2014-06-30T16:13:35Z</time>
      </trkpt>
      <trkpt lat="40.846783" lon="-4.218133">
        <ele>1744.0</ele>
        <time>2014-06-30T16:13:36Z</time>
      </trkpt>
      <trkpt lat="40.846683" lon="-4.218100">
        <ele>1746.0</ele>
        <time>2014-06-30T16:13:37Z</time>
      </trkpt>
      <trkpt lat="40.846583" lon="-4.218067">
        <ele>1749.0</ele>
        <time>2014-06-30T16:13:38Z</time>
      </trkpt>
      <trkpt lat="40.846483" lon="-4.218000">
        <ele>1750.0</ele>
        <time>2014-06-30T16:13:39Z</time>
      </trkpt>
      <trkpt lat="40.846383" lon="-4.217883">
        <ele>1752.0</ele>
        <time>2014-06-30T16:13:40Z</time>
      </trkpt>
      <trkpt lat="40.846300" lon="-4.217750">
        <ele>1753.0</ele>
        <time>2014-06-30T16:13:41Z</time>
      </trkpt>
      <trkpt lat="40.846250" lon="-4.217583">
        <ele>1755.0</ele>
        <time>2014-06-30T16:13:42Z</time>
      </trkpt>
      <trkpt lat="40.846217" lon="-4.217417">
        <ele>1756.0</ele>
        <time>2014-06-30T16:13:43Z</time>
      </trkpt>
      <trkpt lat="40.846217" lon="-4.217233">
        <ele>1758.0</ele>
        <time>2014-06-30T16:13:44Z</time>
      </trkpt>
      <trkpt lat="40.846233" lon="-4.217083">
        <ele>1759.0</ele>
        <time>2014-06-30T16:13:45Z</time>
      </trkpt>
      <trkpt lat="40.846283" lon="-4.216950">
        <ele>1760.0</ele>
        <time>2014-06-30T16:13:46Z</time>
      </trkpt>
      <trkpt lat="40.846350" lon="-4.216867">
        <ele>1761.0</ele>
        <time>2014-06-30T16:13:47Z</time>
      </trkpt>
      <trkpt lat="40.846417" lon="-4.216817">
        <ele>1765.0</ele>
        <time>2014-06-30T16:13:48Z</time>
      </trkpt>
      <trkpt lat="40.846450" lon="-4.216800">
        <ele>1769.0</ele>
        <time>2014-06-30T16:13:49Z</time>
      </trkpt>
      <trkpt lat="40.846467" lon="-4.216800">
        <ele>1774.0</ele>
        <time>2014-06-30T16:13:50Z</time>
      </trkpt>
      <trkpt lat="40.846483" lon="-4.216800">
        <ele>1766.0</ele>
        <time>2014-06-30T16:13:51Z</time>
      </trkpt>
      <trkpt lat="40.846483" lon="-4.216817">
        <ele>1767.0</ele>
        <time>2014-06-30T16:13:52Z</time>
      </trkpt>
      <trkpt lat="40.846483" lon="-4.216867">
        <ele>1768.0</ele>
        <time>2014-06-30T16:13:53Z</time>
      </trkpt>
      <trkpt lat="40.846450" lon="-4.216933">
        <ele>1770.0</ele>
        <time>2014-06-30T16:13:54Z</time>
      </trkpt>
      <trkpt lat="40.846400" lon="-4.217017">
        <ele>1771.0</ele>
        <time>2014-06-30T16:13:55Z</time>
      </trkpt>
      <trkpt lat="40.846317" lon="-4.217050">
        <ele>1772.0</ele>
        <time>2014-06-30T16:13:56Z</time>
      </trkpt>
      <trkpt lat="40.846217" lon="-4.217067">
        <ele>1774.0</ele>
        <time>2014-06-30T16:13:57Z</time>
      </trkpt>
      <trkpt lat="40.846117" lon="-4.217033">
        <ele>1777.0</ele>
        <time>2014-06-30T16:13:58Z</time>
      </trkpt>
      <trkpt lat="40.846017" lon="-4.216983">
        <ele>1780.0</ele>
        <time>2014-06-30T16:13:59Z</time>
      </trkpt>
      <trkpt lat="40.845917" lon="-4.216900">
        <ele>1781.0</ele>
        <time>2014-06-30T16:14:00Z</time>
      </trkpt>
      <trkpt lat="40.845833" lon="-4.216783">
        <ele>1783.0</ele>
        <time>2014-06-30T16:14:01Z</time>
      </trkpt>
      <trkpt lat="40.845767" lon="-4.216633">
        <ele>1785.0</ele>
        <time>2014-06-30T16:14:02Z</time>
      </trkpt>
      <trkpt lat="40.845700" lon="-4.216467">
        <ele>1786.0</ele>
        <time>2014-06-30T16:14:03Z</time>
      </trkpt>
      <trkpt lat="40.845683" lon="-4.216283">
        <ele>1787.0</ele>
        <time>2014-06-30T16:14:04Z</time>
      </trkpt>
      <trkpt lat="40.845700" lon="-4.216117">
        <ele>1789.0</ele>
        <time>2014-06-30T16:14:05Z</time>
      </trkpt>
      <trkpt lat="40.845717" lon="-4.215950">
        <ele>1790.0</ele>
        <time>2014-06-30T16:14:06Z</time>
      </trkpt>
      <trkpt lat="40.845733" lon="-4.215800">
        <ele>1792.0</ele>
        <time>2014-06-30T16:14:07Z</time>
      </trkpt>
      <trkpt lat="40.845767" lon="-4.215667">
        <ele>1794.0</ele>
        <time>2014-06-30T16:14:08Z</time>
      </trkpt>
      <trkpt lat="40.845817" lon="-4.215567">
        <ele>1796.0</ele>
        <time>2014-06-30T16:14:09Z</time>
      </trkpt>
      <trkpt lat="40.845867" lon="-4.215483">
        <ele>1799.0</ele>
        <time>2014-06-30T16:14:10Z</time>
      </trkpt>
      <trkpt lat="40.845900" lon="-4.215433">
        <ele>1804.0</ele>
        <time>2014-06-30T16:14:11Z</time>
      </trkpt>
      <trkpt lat="40.845967" lon="-4.215383">
        <ele>1807.0</ele>
        <time>2014-06-30T16:14:12Z</time>
      </trkpt>
      <trkpt lat="40.846017" lon="-4.215333">
        <ele>1801.0</ele>
        <time>2014-06-30T16:14:13Z</time>
      </trkpt>
      <trkpt lat="40.846067" lon="-4.215283">
        <ele>1804.0</ele>
        <time>2014-06-30T16:14:14Z</time>
      </trkpt>
      <trkpt lat="40.846100" lon="-4.215267">
        <ele>1804.0</ele>
        <time>2014-06-30T16:14:15Z</time>
      </trkpt>
      <trkpt lat="40.846117" lon="-4.215283">
        <ele>1806.0</ele>
        <time>2014-06-30T16:14:16Z</time>
      </trkpt>
      <trkpt lat="40.846117" lon="-4.215333">
        <ele>1807.0</ele>
        <time>2014-06-30T16:14:17Z</time>
      </trkpt>
      <trkpt lat="40.846100" lon="-4.215383">
        <ele>1808.0</ele>
        <time>2014-06-30T16:14:18Z</time>
      </trkpt>
      <trkpt lat="40.846067" lon="-4.215433">
        <ele>1810.0</ele>
        <time>2014-06-30T16:14:19Z</time>
      </trkpt>
      <trkpt lat="40.846017" lon="-4.215483">
        <ele>1809.0</ele>
        <time>2014-06-30T16:14:20Z</time>
      </trkpt>
      <trkpt lat="40.845967" lon="-4.215517">
        <ele>1811.0</ele>
        <time>2014-06-30T16:14:21Z</time>
      </trkpt>
      <trkpt lat="40.845900" lon="-4.215550">
        <ele>1811.0</ele>
        <time>2014-06-30T16:14:22Z</time>
      </trkpt>
      <trkpt lat="40.845817" lon="-4.215583">
        <ele>1812.0</ele>
        <time>2014-06-30T16:14:23Z</time>
      </trkpt>
      <trkpt lat="40.845717" lon="-4.215583">
        <ele>1813.0</ele>
        <time>2014-06-30T16:14:24Z</time>
      </trkpt>
      <trkpt lat="40.845600" lon="-4.215533">
        <ele>1814.0</ele>
        <time>2014-06-30T16:14:25Z</time>
      </trkpt>
      <trkpt lat="40.845483" lon="-4.215450">
        <ele>1816.0</ele>
        <time>2014-06-30T16:14:26Z</time>
      </trkpt>
      <trkpt lat="40.845383" lon="-4.215317">
        <ele>1818.0</ele>
        <time>2014-06-30T16:14:27Z</time>
      </trkpt>
      <trkpt lat="40.845333" lon="-4.215167">
        <ele>1819.0</ele>
        <time>2014-06-30T16:14:28Z</time>
      </trkpt>
      <trkpt lat="40.845333" lon="-4.215033">
        <ele>1821.0</ele>
        <time>2014-06-30T16:14:29Z</time>
      </trkpt>
      <trkpt lat="40.845350" lon="-4.214917">
        <ele>1823.0</ele>
        <time>2014-06-30T16:14:30Z</time>
      </trkpt>
      <trkpt lat="40.845400" lon="-4.214800">
        <ele>1825.0</ele>
        <time>2014-06-30T16:14:31Z</time>
      </trkpt>
      <trkpt lat="40.845433" lon="-4.214683">
        <ele>1827.0</ele>
        <time>2014-06-30T16:14:32Z</time>
      </trkpt>
      <trkpt lat="40.845483" lon="-4.214583">
        <ele>1830.0</ele>
        <time>2014-06-30T16:14:33Z</time>
      </trkpt>
      <trkpt lat="40.845517" lon="-4.214483">
        <ele>1833.0</ele>
        <time>2014-06-30T16:14:34Z</time>
      </trkpt>
      <trkpt lat="40.845550" lon="-4.214400">
        <ele>1837.0</ele>
        <time>2014-06-30T16:14:35Z</time>
      </trkpt>
      <trkpt lat="40.845617" lon="-4.214350">
        <ele>1841.0</ele>
        <time>2014-06-30T16:14:36Z</time>
      </trkpt>
      <trkpt lat="40.845667" lon="-4.214317">
        <ele>1845.0</ele>
        <time>2014-06-30T16:14:37Z</time>
      </trkpt>
      <trkpt lat="40.845683" lon="-4.214317">
        <ele>1849.0</ele>
        <time>2014-06-30T16:14:38Z</time>
      </trkpt>
      <trkpt lat="40.845717" lon="-4.214333">
        <ele>1853.0</ele>
        <time>2014-06-30T16:14:39Z</time>
      </trkpt>
      <trkpt lat="40.845733" lon="-4.214350">
        <ele>1856.0</ele>
        <time>2014-06-30T16:14:40Z</time>
      </trkpt>
      <trkpt lat="40.845717" lon="-4.214400">
        <ele>1859.0</ele>
        <time>2014-06-30T16:14:41Z</time>
      </trkpt>
      <trkpt lat="40.845700" lon="-4.214467">
        <ele>1861.0</ele>
        <time>2014-06-30T16:14:42Z</time>
      </trkpt>
      <trkpt lat="40.845650" lon="-4.214517">
        <ele>1864.0</ele>
        <time>2014-06-30T16:14:43Z</time>
      </trkpt>
      <trkpt lat="40.845600" lon="-4.214567">
        <ele>1868.0</ele>
        <time>2014-06-30T16:14:44Z</time>
      </trkpt>
      <trkpt lat="40.845517" lon="-4.214583">
        <ele>1871.0</ele>
        <time>2014-06-30T16:14:45Z</time>
      </trkpt>
      <trkpt lat="40.845450" lon="-4.214600">
        <ele>1874.0</ele>
        <time>2014-06-30T16:14:46Z</time>
      </trkpt>
      <trkpt lat="40.845367" lon="-4.214617">
        <ele>1876.0</ele>
        <time>2014-06-30T16:14:47Z</time>
      </trkpt>
      <trkpt lat="40.845283" lon="-4.214600">
        <ele>1871.0</ele>
        <time>2014-06-30T16:14:48Z</time>
      </trkpt>
      <trkpt lat="40.845183" lon="-4.214550">
        <ele>1872.0</ele>
        <time>2014-06-30T16:14:49Z</time>
      </trkpt>
      <trkpt lat="40.845083" lon="-4.214467">
        <ele>1873.0</ele>
        <time>2014-06-30T16:14:50Z</time>
      </trkpt>
      <trkpt lat="40.845000" lon="-4.214333">
        <ele>1875.0</ele>
        <time>2014-06-30T16:14:51Z</time>
      </trkpt>
      <trkpt lat="40.844950" lon="-4.214167">
        <ele>1876.0</ele>
        <time>2014-06-30T16:14:52Z</time>
      </trkpt>
      <trkpt lat="40.844950" lon="-4.214017">
        <ele>1877.0</ele>
        <time>2014-06-30T16:14:53Z</time>
      </trkpt>
      <trkpt lat="40.844950" lon="-4.213883">
        <ele>1879.0</ele>
        <time>2014-06-30T16:14:54Z</time>
      </trkpt>
      <trkpt lat="40.844967" lon="-4.213750">
        <ele>1881.0</ele>
        <time>2014-06-30T16:14:55Z</time>
      </trkpt>
      <trkpt lat="40.845000" lon="-4.213650">
        <ele>1882.0</ele>
        <time>2014-06-30T16:14:56Z</time>
      </trkpt>
      <trkpt lat="40.845067" lon="-4.213533">
        <ele>1883.0</ele>
        <time>2014-06-30T16:14:57Z</time>
      </trkpt>
      <trkpt lat="40.845133" lon="-4.213433">
        <ele>1885.0</ele>
        <time>2014-06-30T16:14:58Z</time>
      </trkpt>
      <trkpt lat="40.845217" lon="-4.213350">
        <ele>1888.0</ele>
        <time>2014-06-30T16:14:59Z</time>
      </trkpt>
      <trkpt lat="40.845283" lon="-4.213300">
        <ele>1895.0</ele>
        <time>2014-06-30T16:15:00Z</time>
      </trkpt>
      <trkpt lat="40.845317" lon="-4.213283">
        <ele>1900.0</ele>
        <time>2014-06-30T16:15:01Z</time>
      </trkpt>
      <trkpt lat="40.845350" lon="-4.213267">
        <ele>1903.0</ele>
        <time>2014-06-30T16:15:02Z</time>
      </trkpt>
      <trkpt lat="40.845383" lon="-4.213283">
        <ele>1906.0</ele>
        <time>2014-06-30T16:15:03Z</time>
      </trkpt>
      <trkpt lat="40.845417" lon="-4.213317">
        <ele>1908.0</ele>
        <time>2014-06-30T16:15:04Z</time>
      </trkpt>
      <trkpt lat="40.845433" lon="-4.213367">
        <ele>1910.0</ele>
        <time>2014-06-30T16:15:05Z</time>
      </trkpt>
      <trkpt lat="40.845433" lon="-4.213417">
        <ele>1912.0</ele>
        <time>2014-06-30T16:15:06Z</time>
      </trkpt>
      <trkpt lat="40.845417" lon="-4.213467">
        <ele>1906.0</ele>
        <time>2014-06-30T16:15:07Z</time>
      </trkpt>
      <trkpt lat="40.845367" lon="-4.213517">
        <ele>1905.0</ele>
        <time>2014-06-30T16:15:08Z</time>
      </trkpt>
      <trkpt lat="40.845317" lon="-4.213533">
        <ele>1906.0</ele>
        <time>2014-06-30T16:15:09Z</time>
      </trkpt>
      <trkpt lat="40.845250" lon="-4.213533">
        <ele>1908.0</ele>
        <time>2014-06-30T16:15:10Z</time>
      </trkpt>
      <trkpt lat="40.845200" lon="-4.213517">
        <ele>1910.0</ele>
        <time>2014-06-30T16:15:11Z</time>
      </trkpt>
      <trkpt lat="40.845133" lon="-4.213517">
        <ele>1912.0</ele>
        <time>2014-06-30T16:15:12Z</time>
      </trkpt>
      <trkpt lat="40.845067" lon="-4.213483">
        <ele>1913.0</ele>
        <time>2014-06-30T16:15:13Z</time>
      </trkpt>
      <trkpt lat="40.844983" lon="-4.213433">
        <ele>1913.0</ele>
        <time>2014-06-30T16:15:14Z</time>
      </trkpt>
      <trkpt lat="40.844900" lon="-4.213350">
        <ele>1914.0</ele>
        <time>2014-06-30T16:15:15Z</time>
      </trkpt>
      <trkpt lat="40.844833" lon="-4.213217">
        <ele>1914.0</ele>
        <time>2014-06-30T16:15:16Z</time>
      </trkpt>
      <trkpt lat="40.844783" lon="-4.213050">
        <ele>1915.0</ele>
        <time>2014-06-30T16:15:17Z</time>
      </trkpt>
      <trkpt lat="40.844800" lon="-4.212883">
        <ele>1916.0</ele>
        <time>2014-06-30T16:15:18Z</time>
      </trkpt>
      <trkpt lat="40.844817" lon="-4.212733">
        <ele>1918.0</ele>
        <time>2014-06-30T16:15:19Z</time>
      </trkpt>
      <trkpt lat="40.844833" lon="-4.212600">
        <ele>1920.0</ele>
        <time>2014-06-30T16:15:20Z</time>
      </trkpt>
      <trkpt lat="40.844850" lon="-4.212467">
        <ele>1923.0</ele>
        <time>2014-06-30T16:15:21Z</time>
      </trkpt>
      <trkpt lat="40.844867" lon="-4.212350">
        <ele>1926.0</ele>
        <time>2014-06-30T16:15:22Z</time>
      </trkpt>
      <trkpt lat="40.844917" lon="-4.212217">
        <ele>1928.0</ele>
        <time>2014-06-30T16:15:23Z</time>
      </trkpt>
      <trkpt lat="40.844967" lon="-4.212100">
        <ele>1931.0</ele>
        <time>2014-06-30T16:15:24Z</time>
      </trkpt>
      <trkpt lat="40.845033" lon="-4.212000">
        <ele>1934.0</ele>
        <time>2014-06-30T16:15:25Z</time>
      </trkpt>
      <trkpt lat="40.845083" lon="-4.211950">
        <ele>1938.0</ele>
        <time>2014-06-30T16:15:26Z</time>
      </trkpt>
      <trkpt lat="40.845133" lon="-4.211917">
        <ele>1941.0</ele>
        <time>2014-06-30T16:15:27Z</time>
      </trkpt>
      <trkpt lat="40.845183" lon="-4.211917">
        <ele>1943.0</ele>
        <time>2014-06-30T16:15:28Z</time>
      </trkpt>
      <trkpt lat="40.845233" lon="-4.211933">
        <ele>1944.0</ele>
        <time>2014-06-30T16:15:29Z</time>
      </trkpt>
      <trkpt lat="40.845267" lon="-4.211967">
        <ele>1945.0</ele>
        <time>2014-06-30T16:15:30Z</time>
      </trkpt>
      <trkpt lat="40.845267" lon="-4.212000">
        <ele>1947.0</ele>
        <time>2014-06-30T16:15:31Z</time>
      </trkpt>
      <trkpt lat="40.845233" lon="-4.212050">
        <ele>1947.0</ele>
        <time>2014-06-30T16:15:32Z</time>
      </trkpt>
      <trkpt lat="40.845183" lon="-4.212083">
        <ele>1942.0</ele>
        <time>2014-06-30T16:15:33Z</time>
      </trkpt>
      <trkpt lat="40.845100" lon="-4.212083">
        <ele>1943.0</ele>
        <time>2014-06-30T16:15:34Z</time>
      </trkpt>
      <trkpt lat="40.845017" lon="-4.212067">
        <ele>1944.0</ele>
        <time>2014-06-30T16:15:35Z</time>
      </trkpt>
      <trkpt lat="40.844950" lon="-4.212017">
        <ele>1945.0</ele>
        <time>2014-06-30T16:15:36Z</time>
      </trkpt>
      <trkpt lat="40.844867" lon="-4.211950">
        <ele>1946.0</ele>
        <time>2014-06-30T16:15:37Z</time>
      </trkpt>
      <trkpt lat="40.844783" lon="-4.211867">
        <ele>1947.0</ele>
        <time>2014-06-30T16:15:38Z</time>
      </trkpt>
      <trkpt lat="40.844700" lon="-4.211783">
        <ele>1948.0</ele>
        <time>2014-06-30T16:15:39Z</time>
      </trkpt>
      <trkpt lat="40.844617" lon="-4.211683">
        <ele>1949.0</ele>
        <time>2014-06-30T16:15:40Z</time>
      </trkpt>
      <trkpt lat="40.844550" lon="-4.211567">
        <ele>1950.0</ele>
        <time>2014-06-30T16:15:41Z</time>
      </trkpt>
      <trkpt lat="40.844483" lon="-4.211433">
        <ele>1953.0</ele>
        <time>2014-06-30T16:15:42Z</time>
      </trkpt>
      <trkpt lat="40.844433" lon="-4.211300">
        <ele>1955.0</ele>
        <time>2014-06-30T16:15:43Z</time>
      </trkpt>
      <trkpt lat="40.844400" lon="-4.211150">
        <ele>1958.0</ele>
        <time>2014-06-30T16:15:44Z</time>
      </trkpt>
      <trkpt lat="40.844383" lon="-4.211000">
        <ele>1960.0</ele>
        <time>2014-06-30T16:15:45Z</time>
      </trkpt>
      <trkpt lat="40.844383" lon="-4.210850">
        <ele>1962.0</ele>
        <time>2014-06-30T16:15:46Z</time>
      </trkpt>
      <trkpt lat="40.844417" lon="-4.210717">
        <ele>1965.0</ele>
        <time>2014-06-30T16:15:47Z</time>
      </trkpt>
      <trkpt lat="40.844450" lon="-4.210600">
        <ele>1967.0</ele>
        <time>2014-06-30T16:15:48Z</time>
      </trkpt>
      <trkpt lat="40.844517" lon="-4.210500">
        <ele>1969.0</ele>
        <time>2014-06-30T16:15:49Z</time>
      </trkpt>
      <trkpt lat="40.844583" lon="-4.210417">
        <ele>1972.0</ele>
        <time>2014-06-30T16:15:50Z</time>
      </trkpt>
      <trkpt lat="40.844667" lon="-4.210350">
        <ele>1975.0</ele>
        <time>2014-06-30T16:15:51Z</time>
      </trkpt>
      <trkpt lat="40.844733" lon="-4.210333">
        <ele>1978.0</ele>
        <time>2014-06-30T16:15:52Z</time>
      </trkpt>
      <trkpt lat="40.844783" lon="-4.210317">
        <ele>1983.0</ele>
        <time>2014-06-30T16:15:53Z</time>
      </trkpt>
      <trkpt lat="40.844833" lon="-4.210317">
        <ele>1985.0</ele>
        <time>2014-06-30T16:15:54Z</time>
      </trkpt>
      <trkpt lat="40.844867" lon="-4.210350">
        <ele>1987.0</ele>
        <time>2014-06-30T16:15:55Z</time>
      </trkpt>
      <trkpt lat="40.844883" lon="-4.210383">
        <ele>1990.0</ele>
        <time>2014-06-30T16:15:56Z</time>
      </trkpt>
      <trkpt lat="40.844883" lon="-4.210450">
        <ele>1991.0</ele>
        <time>2014-06-30T16:15:57Z</time>
      </trkpt>
      <trkpt lat="40.844850" lon="-4.210517">
        <ele>1991.0</ele>
        <time>2014-06-30T16:15:58Z</time>
      </trkpt>
      <trkpt lat="40.844817" lon="-4.210550">
        <ele>1985.0</ele>
        <time>2014-06-30T16:15:59Z</time>
      </trkpt>
      <trkpt lat="40.844767" lon="-4.210567">
        <ele>1985.0</ele>
        <time>2014-06-30T16:16:00Z</time>
      </trkpt>
      <trkpt lat="40.844700" lon="-4.210583">
        <ele>1986.0</ele>
        <time>2014-06-30T16:16:01Z</time>
      </trkpt>
      <trkpt lat="40.844617" lon="-4.210550">
        <ele>1987.0</ele>
        <time>2014-06-30T16:16:02Z</time>
      </trkpt>
      <trkpt lat="40.844533" lon="-4.210517">
        <ele>1988.0</ele>
        <time>2014-06-30T16:16:03Z</time>
      </trkpt>
      <trkpt lat="40.844450" lon="-4.210450">
        <ele>1990.0</ele>
        <time>2014-06-30T16:16:04Z</time>
      </trkpt>
      <trkpt lat="40.844367" lon="-4.210367">
        <ele>1991.0</ele>
        <time>2014-06-30T16:16:05Z</time>
      </trkpt>
      <trkpt lat="40.844300" lon="-4.210267">
        <ele>1993.0</ele>
        <time>2014-06-30T16:16:06Z</time>
      </trkpt>
      <trkpt lat="40.844250" lon="-4.210133">
        <ele>1995.0</ele>
        <time>2014-06-30T16:16:07Z</time>
      </trkpt>
      <trkpt lat="40.844217" lon="-4.209983">
        <ele>1997.0</ele>
        <time>2014-06-30T16:16:08Z</time>
      </trkpt>
      <trkpt lat="40.844200" lon="-4.209833">
        <ele>2000.0</ele>
        <time>2014-06-30T16:16:09Z</time>
      </trkpt>
      <trkpt lat="40.844183" lon="-4.209683">
        <ele>2003.0</ele>
        <time>2014-06-30T16:16:10Z</time>
      </trkpt>
      <trkpt lat="40.844183" lon="-4.209550">
        <ele>2005.0</ele>
        <time>2014-06-30T16:16:11Z</time>
      </trkpt>
      <trkpt lat="40.844183" lon="-4.209400">
        <ele>2008.0</ele>
        <time>2014-06-30T16:16:12Z</time>
      </trkpt>
      <trkpt lat="40.844200" lon="-4.209267">
        <ele>2011.0</ele>
        <time>2014-06-30T16:16:13Z</time>
      </trkpt>
      <trkpt lat="40.844233" lon="-4.209133">
        <ele>2013.0</ele>
        <time>2014-06-30T16:16:14Z</time>
      </trkpt>
      <trkpt lat="40.844267" lon="-4.209017">
        <ele>2015.0</ele>
        <time>2014-06-30T16:16:15Z</time>
      </trkpt>
      <trkpt lat="40.844317" lon="-4.208900">
        <ele>2018.0</ele>
        <time>2014-06-30T16:16:16Z</time>
      </trkpt>
      <trkpt lat="40.844383" lon="-4.208817">
        <ele>2020.0</ele>
        <time>2014-06-30T16:16:17Z</time>
      </trkpt>
      <trkpt lat="40.844450" lon="-4.208750">
        <ele>2024.0</ele>
        <time>2014-06-30T16:16:18Z</time>
      </trkpt>
      <trkpt lat="40.844500" lon="-4.208717">
        <ele>2028.0</ele>
        <time>2014-06-30T16:16:19Z</time>
      </trkpt>
      <trkpt lat="40.844550" lon="-4.208717">
        <ele>2031.0</ele>
        <time>2014-06-30T16:16:20Z</time>
      </trkpt>
      <trkpt lat="40.844600" lon="-4.208733">
        <ele>2033.0</ele>
        <time>2014-06-30T16:16:21Z</time>
      </trkpt>
      <trkpt lat="40.844650" lon="-4.208750">
        <ele>2028.0</ele>
        <time>2014-06-30T16:16:22Z</time>
      </trkpt>
      <trkpt lat="40.844683" lon="-4.208800">
        <ele>2028.0</ele>
        <time>2014-06-30T16:16:23Z</time>
      </trkpt>
      <trkpt lat="40.844667" lon="-4.208833">
        <ele>2028.0</ele>
        <time>2014-06-30T16:16:24Z</time>
      </trkpt>
      <trkpt lat="40.844650" lon="-4.208883">
        <ele>2028.0</ele>
        <time>2014-06-30T16:16:25Z</time>
      </trkpt>
      <trkpt lat="40.844600" lon="-4.208917">
        <ele>2028.0</ele>
        <time>2014-06-30T16:16:26Z</time>
      </trkpt>
      <trkpt lat="40.844533" lon="-4.208950">
        <ele>2029.0</ele>
        <time>2014-06-30T16:16:27Z</time>
      </trkpt>
      <trkpt lat="40.844467" lon="-4.208950">
        <ele>2030.0</ele>
        <time>2014-06-30T16:16:28Z</time>
      </trkpt>
      <trkpt lat="40.844383" lon="-4.208933">
        <ele>2032.0</ele>
        <time>2014-06-30T16:16:29Z</time>
      </trkpt>
      <trkpt lat="40.844300" lon="-4.208900">
        <ele>2033.0</ele>
        <time>2014-06-30T16:16:30Z</time>
      </trkpt>
      <trkpt lat="40.844217" lon="-4.208833">
        <ele>2034.0</ele>
        <time>2014-06-30T16:16:31Z</time>
      </trkpt>
      <trkpt lat="40.844133" lon="-4.208733">
        <ele>2035.0</ele>
        <time>2014-06-30T16:16:32Z</time>
      </trkpt>
      <trkpt lat="40.844067" lon="-4.208600">
        <ele>2039.0</ele>
        <time>2014-06-30T16:16:33Z</time>
      </trkpt>
      <trkpt lat="40.844017" lon="-4.208467">
        <ele>2042.0</ele>
        <time>2014-06-30T16:16:34Z</time>
      </trkpt>
      <trkpt lat="40.844000" lon="-4.208300">
        <ele>2045.0</ele>
        <time>2014-06-30T16:16:35Z</time>
      </trkpt>
      <trkpt lat="40.844000" lon="-4.208167">
        <ele>2047.0</ele>
        <time>2014-06-30T16:16:36Z</time>
      </trkpt>
      <trkpt lat="40.844033" lon="-4.208017">
        <ele>2049.0</ele>
        <time>2014-06-30T16:16:37Z</time>
      </trkpt>
      <trkpt lat="40.844067" lon="-4.207883">
        <ele>2051.0</ele>
        <time>2014-06-30T16:16:38Z</time>
      </trkpt>
      <trkpt lat="40.844133" lon="-4.207750">
        <ele>2053.0</ele>
        <time>2014-06-30T16:16:39Z</time>
      </trkpt>
      <trkpt lat="40.844200" lon="-4.207633">
        <ele>2055.0</ele>
        <time>2014-06-30T16:16:40Z</time>
      </trkpt>
      <trkpt lat="40.844267" lon="-4.207533">
        <ele>2057.0</ele>
        <time>2014-06-30T16:16:41Z</time>
      </trkpt>
      <trkpt lat="40.844317" lon="-4.207467">
        <ele>2060.0</ele>
        <time>2014-06-30T16:16:42Z</time>
      </trkpt>
      <trkpt lat="40.844383" lon="-4.207400">
        <ele>2061.0</ele>
        <time>2014-06-30T16:16:43Z</time>
      </trkpt>
      <trkpt lat="40.844433" lon="-4.207333">
        <ele>2063.0</ele>
        <time>2014-06-30T16:16:44Z</time>
      </trkpt>
      <trkpt lat="40.844517" lon="-4.207267">
        <ele>2062.0</ele>
        <time>2014-06-30T16:16:45Z</time>
      </trkpt>
      <trkpt lat="40.844600" lon="-4.207233">
        <ele>2060.0</ele>
        <time>2014-06-30T16:16:46Z</time>
      </trkpt>
      <trkpt lat="40.844667" lon="-4.207233">
        <ele>2061.0</ele>
        <time>2014-06-30T16:16:47Z</time>
      </trkpt>
      <trkpt lat="40.844717" lon="-4.207250">
        <ele>2062.0</ele>
        <time>2014-06-30T16:16:48Z</time>
      </trkpt>
      <trkpt lat="40.844750" lon="-4.207283">
        <ele>2063.0</ele>
        <time>2014-06-30T16:16:49Z</time>
      </trkpt>
      <trkpt lat="40.844767" lon="-4.207317">
        <ele>2064.0</ele>
        <time>2014-06-30T16:16:50Z</time>
      </trkpt>
      <trkpt lat="40.844800" lon="-4.207350">
        <ele>2063.0</ele>
        <time>2014-06-30T16:16:51Z</time>
      </trkpt>
      <trkpt lat="40.844817" lon="-4.207383">
        <ele>2064.0</ele>
        <time>2014-06-30T16:16:52Z</time>
      </trkpt>
      <trkpt lat="40.844800" lon="-4.207450">
        <ele>2064.0</ele>
        <time>2014-06-30T16:16:53Z</time>
      </trkpt>
      <trkpt lat="40.844767" lon="-4.207500">
        <ele>2064.0</ele>
        <time>2014-06-30T16:16:54Z</time>
      </trkpt>
      <trkpt lat="40.844700" lon="-4.207517">
        <ele>2064.0</ele>
        <time>2014-06-30T16:16:55Z</time>
      </trkpt>
      <trkpt lat="40.844633" lon="-4.207500">
        <ele>2065.0</ele>
        <time>2014-06-30T16:16:56Z</time>
      </trkpt>
      <trkpt lat="40.844550" lon="-4.207450">
        <ele>2066.0</ele>
        <time>2014-06-30T16:16:57Z</time>
      </trkpt>
      <trkpt lat="40.844483" lon="-4.207383">
        <ele>2066.0</ele>
        <time>2014-06-30T16:16:58Z</time>
      </trkpt>
      <trkpt lat="40.844417" lon="-4.207283">
        <ele>2067.0</ele>
        <time>2014-06-30T16:16:59Z</time>
      </trkpt>
      <trkpt lat="40.844350" lon="-4.207183">
        <ele>2068.0</ele>
        <time>2014-06-30T16:17:00Z</time>
      </trkpt>
      <trkpt lat="40.844317" lon="-4.207050">
        <ele>2069.0</ele>
        <time>2014-06-30T16:17:01Z</time>
      </trkpt>
      <trkpt lat="40.844300" lon="-4.206900">
        <ele>2070.0</ele>
        <time>2014-06-30T16:17:02Z</time>
      </trkpt>
      <trkpt lat="40.844300" lon="-4.206750">
        <ele>2070.0</ele>
        <time>2014-06-30T16:17:03Z</time>
      </trkpt>
      <trkpt lat="40.844333" lon="-4.206583">
        <ele>2071.0</ele>
        <time>2014-06-30T16:17:04Z</time>
      </trkpt>
      <trkpt lat="40.844367" lon="-4.206450">
        <ele>2072.0</ele>
        <time>2014-06-30T16:17:05Z</time>
      </trkpt>
      <trkpt lat="40.844400" lon="-4.206317">
        <ele>2073.0</ele>
        <time>2014-06-30T16:17:06Z</time>
      </trkpt>
      <trkpt lat="40.844450" lon="-4.206183">
        <ele>2074.0</ele>
        <time>2014-06-30T16:17:07Z</time>
      </trkpt>
      <trkpt lat="40.844483" lon="-4.206050">
        <ele>2075.0</ele>
        <time>2014-06-30T16:17:08Z</time>
      </trkpt>
      <trkpt lat="40.844517" lon="-4.205933">
        <ele>2076.0</ele>
        <time>2014-06-30T16:17:09Z</time>
      </trkpt>
      <trkpt lat="40.844550" lon="-4.205800">
        <ele>2077.0</ele>
        <time>2014-06-30T16:17:10Z</time>
      </trkpt>
      <trkpt lat="40.844600" lon="-4.205700">
        <ele>2077.0</ele>
        <time>2014-06-30T16:17:11Z</time>
      </trkpt>
      <trkpt lat="40.844667" lon="-4.205600">
        <ele>2077.0</ele>
        <time>2014-06-30T16:17:12Z</time>
      </trkpt>
      <trkpt lat="40.844733" lon="-4.205533">
        <ele>2077.0</ele>
        <time>2014-06-30T16:17:13Z</time>
      </trkpt>
      <trkpt lat="40.844800" lon="-4.205483">
        <ele>2078.0</ele>
        <time>2014-06-30T16:17:14Z</time>
      </trkpt>
      <trkpt lat="40.844867" lon="-4.205450">
        <ele>2078.0</ele>
        <time>2014-06-30T16:17:15Z</time>
      </trkpt>
      <trkpt lat="40.844933" lon="-4.205433">
        <ele>2077.0</ele>
        <time>2014-06-30T16:17:16Z</time>
      </trkpt>
      <trkpt lat="40.845000" lon="-4.205433">
        <ele>2077.0</ele>
        <time>2014-06-30T16:17:17Z</time>
      </trkpt>
      <trkpt lat="40.845050" lon="-4.205450">
        <ele>2077.0</ele>
        <time>2014-06-30T16:17:18Z</time>
      </trkpt>
      <trkpt lat="40.845083" lon="-4.205483">
        <ele>2077.0</ele>
        <time>2014-06-30T16:17:19Z</time>
      </trkpt>
      <trkpt lat="40.845083" lon="-4.205533">
        <ele>2077.0</ele>
        <time>2014-06-30T16:17:20Z</time>
      </trkpt>
      <trkpt lat="40.845050" lon="-4.205583">
        <ele>2077.0</ele>
        <time>2014-06-30T16:17:21Z</time>
      </trkpt>
      <trkpt lat="40.845017" lon="-4.205617">
        <ele>2077.0</ele>
        <time>2014-06-30T16:17:22Z</time>
      </trkpt>
      <trkpt lat="40.844967" lon="-4.205617">
        <ele>2077.0</ele>
        <time>2014-06-30T16:17:23Z</time>
      </trkpt>
      <trkpt lat="40.844900" lon="-4.205600">
        <ele>2077.0</ele>
        <time>2014-06-30T16:17:24Z</time>
      </trkpt>
      <trkpt lat="40.844833" lon="-4.205583">
        <ele>2077.0</ele>
        <time>2014-06-30T16:17:25Z</time>
      </trkpt>
      <trkpt lat="40.844767" lon="-4.205550">
        <ele>2076.0</ele>
        <time>2014-06-30T16:17:26Z</time>
      </trkpt>
      <trkpt lat="40.844683" lon="-4.205517">
        <ele>2076.0</ele>
        <time>2014-06-30T16:17:27Z</time>
      </trkpt>
      <trkpt lat="40.844600" lon="-4.205467">
        <ele>2075.0</ele>
        <time>2014-06-30T16:17:28Z</time>
      </trkpt>
      <trkpt lat="40.844517" lon="-4.205367">
        <ele>2075.0</ele>
        <time>2014-06-30T16:17:29Z</time>
      </trkpt>
      <trkpt lat="40.844450" lon="-4.205250">
        <ele>2075.0</ele>
        <time>2014-06-30T16:17:30Z</time>
      </trkpt>
      <trkpt lat="40.844400" lon="-4.205133">
        <ele>2075.0</ele>
        <time>2014-06-30T16:17:31Z</time>
      </trkpt>
      <trkpt lat="40.844367" lon="-4.205017">
        <ele>2076.0</ele>
        <time>2014-06-30T16:17:32Z</time>
      </trkpt>
      <trkpt lat="40.844317" lon="-4.204900">
        <ele>2076.0</ele>
        <time>2014-06-30T16:17:33Z</time>
      </trkpt>
      <trkpt lat="40.844300" lon="-4.204767">
        <ele>2075.0</ele>
        <time>2014-06-30T16:17:34Z</time>
      </trkpt>
      <trkpt lat="40.844283" lon="-4.204617">
        <ele>2075.0</ele>
        <time>2014-06-30T16:17:35Z</time>
      </trkpt>
      <trkpt lat="40.844300" lon="-4.204450">
        <ele>2075.0</ele>
        <time>2014-06-30T16:17:36Z</time>
      </trkpt>
      <trkpt lat="40.844317" lon="-4.204300">
        <ele>2075.0</ele>
        <time>2014-06-30T16:17:37Z</time>
      </trkpt>
      <trkpt lat="40.844350" lon="-4.204167">
        <ele>2076.0</ele>
        <time>2014-06-30T16:17:38Z</time>
      </trkpt>
      <trkpt lat="40.844383" lon="-4.204033">
        <ele>2076.0</ele>
        <time>2014-06-30T16:17:39Z</time>
      </trkpt>
      <trkpt lat="40.844417" lon="-4.203917">
        <ele>2076.0</ele>
        <time>2014-06-30T16:17:40Z</time>
      </trkpt>
      <trkpt lat="40.844450" lon="-4.203783">
        <ele>2076.0</ele>
        <time>2014-06-30T16:17:41Z</time>
      </trkpt>
      <trkpt lat="40.844483" lon="-4.203633">
        <ele>2074.0</ele>
        <time>2014-06-30T16:17:42Z</time>
      </trkpt>
      <trkpt lat="40.844517" lon="-4.203483">
        <ele>2073.0</ele>
        <time>2014-06-30T16:17:43Z</time>
      </trkpt>
      <trkpt lat="40.844583" lon="-4.203317">
        <ele>2072.0</ele>
        <time>2014-06-30T16:17:44Z</time>
      </trkpt>
      <trkpt lat="40.844633" lon="-4.203183">
        <ele>2072.0</ele>
        <time>2014-06-30T16:17:45Z</time>
      </trkpt>
      <trkpt lat="40.844700" lon="-4.203067">
        <ele>2071.0</ele>
        <time>2014-06-30T16:17:46Z</time>
      </trkpt>
      <trkpt lat="40.844767" lon="-4.202950">
        <ele>2070.0</ele>
        <time>2014-06-30T16:17:47Z</time>
      </trkpt>
      <trkpt lat="40.844833" lon="-4.202817">
        <ele>2069.0</ele>
        <time>2014-06-30T16:17:48Z</time>
      </trkpt>
      <trkpt lat="40.844900" lon="-4.202650">
        <ele>2067.0</ele>
        <time>2014-06-30T16:17:49Z</time>
      </trkpt>
      <trkpt lat="40.844950" lon="-4.202500">
        <ele>2065.0</ele>
        <time>2014-06-30T16:17:50Z</time>
      </trkpt>
      <trkpt lat="40.845017" lon="-4.202367">
        <ele>2064.0</ele>
        <time>2014-06-30T16:17:51Z</time>
      </trkpt>
      <trkpt lat="40.845083" lon="-4.202233">
        <ele>2063.0</ele>
        <time>2014-06-30T16:17:52Z</time>
      </trkpt>
      <trkpt lat="40.845150" lon="-4.202100">
        <ele>2061.0</ele>
        <time>2014-06-30T16:17:53Z</time>
      </trkpt>
      <trkpt lat="40.845200" lon="-4.201950">
        <ele>2060.0</ele>
        <time>2014-06-30T16:17:54Z</time>
      </trkpt>
      <trkpt lat="40.845250" lon="-4.201817">
        <ele>2064.0</ele>
        <time>2014-06-30T16:17:55Z</time>
      </trkpt>
      <trkpt lat="40.845317" lon="-4.201683">
        <ele>2063.0</ele>
        <time>2014-06-30T16:17:56Z</time>
      </trkpt>
      <trkpt lat="40.845383" lon="-4.201567">
        <ele>2062.0</ele>
        <time>2014-06-30T16:17:57Z</time>
      </trkpt>
      <trkpt lat="40.845467" lon="-4.201450">
        <ele>2060.0</ele>
        <time>2014-06-30T16:17:58Z</time>
      </trkpt>
      <trkpt lat="40.845550" lon="-4.201367">
        <ele>2059.0</ele>
        <time>2014-06-30T16:17:59Z</time>
      </trkpt>
      <trkpt lat="40.845617" lon="-4.201267">
        <ele>2059.0</ele>
        <time>2014-06-30T16:18:00Z</time>
      </trkpt>
      <trkpt lat="40.845683" lon="-4.201183">
        <ele>2058.0</ele>
        <time>2014-06-30T16:18:01Z</time>
      </trkpt>
      <trkpt lat="40.845767" lon="-4.201083">
        <ele>2057.0</ele>
        <time>2014-06-30T16:18:02Z</time>
      </trkpt>
      <trkpt lat="40.845833" lon="-4.201000">
        <ele>2055.0</ele>
        <time>2014-06-30T16:18:03Z</time>
      </trkpt>
      <trkpt lat="40.845917" lon="-4.200917">
        <ele>2054.0</ele>
        <time>2014-06-30T16:18:04Z</time>
      </trkpt>
      <trkpt lat="40.845983" lon="-4.200867">
        <ele>2053.0</ele>
        <time>2014-06-30T16:18:05Z</time>
      </trkpt>
      <trkpt lat="40.846050" lon="-4.200800">
        <ele>2054.0</ele>
        <time>2014-06-30T16:18:06Z</time>
      </trkpt>
      <trkpt lat="40.846133" lon="-4.200733">
        <ele>2054.0</ele>
        <time>2014-06-30T16:18:07Z</time>
      </trkpt>
      <trkpt lat="40.846217" lon="-4.200650">
        <ele>2053.0</ele>
        <time>2014-06-30T16:18:08Z</time>
      </trkpt>
      <trkpt lat="40.846283" lon="-4.200600">
        <ele>2052.0</ele>
        <time>2014-06-30T16:18:09Z</time>
      </trkpt>
      <trkpt lat="40.846367" lon="-4.200550">
        <ele>2050.0</ele>
        <time>2014-06-30T16:18:10Z</time>
      </trkpt>
      <trkpt lat="40.846433" lon="-4.200500">
        <ele>2048.0</ele>
        <time>2014-06-30T16:18:11Z</time>
      </trkpt>
      <trkpt lat="40.846517" lon="-4.200467">
        <ele>2047.0</ele>
        <time>2014-06-30T16:18:12Z</time>
      </trkpt>
      <trkpt lat="40.846617" lon="-4.200417">
        <ele>2046.0</ele>
        <time>2014-06-30T16:18:13Z</time>
      </trkpt>
      <trkpt lat="40.846700" lon="-4.200350">
        <ele>2045.0</ele>
        <time>2014-06-30T16:18:14Z</time>
      </trkpt>
      <trkpt lat="40.846800" lon="-4.200300">
        <ele>2044.0</ele>
        <time>2014-06-30T16:18:15Z</time>
      </trkpt>
      <trkpt lat="40.846883" lon="-4.200233">
        <ele>2043.0</ele>
        <time>2014-06-30T16:18:16Z</time>
      </trkpt>
      <trkpt lat="40.846950" lon="-4.200150">
        <ele>2043.0</ele>
        <time>2014-06-30T16:18:17Z</time>
      </trkpt>
      <trkpt lat="40.847033" lon="-4.200083">
        <ele>2042.0</ele>
        <time>2014-06-30T16:18:18Z</time>
      </trkpt>
      <trkpt lat="40.847100" lon="-4.200000">
        <ele>2042.0</ele>
        <time>2014-06-30T16:18:19Z</time>
      </trkpt>
      <trkpt lat="40.847150" lon="-4.199917">
        <ele>2042.0</ele>
        <time>2014-06-30T16:18:20Z</time>
      </trkpt>
      <trkpt lat="40.847200" lon="-4.199833">
        <ele>2041.0</ele>
        <time>2014-06-30T16:18:21Z</time>
      </trkpt>
      <trkpt lat="40.847267" lon="-4.199750">
        <ele>2040.0</ele>
        <time>2014-06-30T16:18:22Z</time>
      </trkpt>
      <trkpt lat="40.847333" lon="-4.199683">
        <ele>2038.0</ele>
        <time>2014-06-30T16:18:23Z</time>
      </trkpt>
      <trkpt lat="40.847400" lon="-4.199600">
        <ele>2040.0</ele>
        <time>2014-06-30T16:18:24Z</time>
      </trkpt>
      <trkpt lat="40.847483" lon="-4.199533">
        <ele>2038.0</ele>
        <time>2014-06-30T16:18:25Z</time>
      </trkpt>
      <trkpt lat="40.847600" lon="-4.199467">
        <ele>2036.0</ele>
        <time>2014-06-30T16:18:26Z</time>
      </trkpt>
      <trkpt lat="40.847700" lon="-4.199383">
        <ele>2034.0</ele>
        <time>2014-06-30T16:18:27Z</time>
      </trkpt>
      <trkpt lat="40.847800" lon="-4.199267">
        <ele>2032.0</ele>
        <time>2014-06-30T16:18:28Z</time>
      </trkpt>
      <trkpt lat="40.847883" lon="-4.199167">
        <ele>2031.0</ele>
        <time>2014-06-30T16:18:29Z</time>
      </trkpt>
      <trkpt lat="40.847967" lon="-4.199050">
        <ele>2030.0</ele>
        <time>2014-06-30T16:18:30Z</time>
      </trkpt>
      <trkpt lat="40.848033" lon="-4.198950">
        <ele>2029.0</ele>
        <time>2014-06-30T16:18:31Z</time>
      </trkpt>
      <trkpt lat="40.848100" lon="-4.198833">
        <ele>2027.0</ele>
        <time>2014-06-30T16:18:32Z</time>
      </trkpt>
      <trkpt lat="40.848183" lon="-4.198733">
        <ele>2026.0</ele>
        <time>2014-06-30T16:18:33Z</time>
      </trkpt>
      <trkpt lat="40.848283" lon="-4.198633">
        <ele>2022.0</ele>
        <time>2014-06-30T16:18:34Z</time>
      </trkpt>
      <trkpt lat="40.848383" lon="-4.198533">
        <ele>2019.0</ele>
        <time>2014-06-30T16:18:35Z</time>
      </trkpt>
      <trkpt lat="40.848467" lon="-4.198433">
        <ele>2017.0</ele>
        <time>2014-06-30T16:18:36Z</time>
      </trkpt>
      <trkpt lat="40.848550" lon="-4.198333">
        <ele>2016.0</ele>
        <time>2014-06-30T16:18:37Z</time>
      </trkpt>
      <trkpt lat="40.848617" lon="-4.198233">
        <ele>2015.0</ele>
        <time>2014-06-30T16:18:38Z</time>
      </trkpt>
      <trkpt lat="40.848667" lon="-4.198133">
        <ele>2014.0</ele>
        <time>2014-06-30T16:18:39Z</time>
      </trkpt>
      <trkpt lat="40.848717" lon="-4.198017">
        <ele>2011.0</ele>
        <time>2014-06-30T16:18:40Z</time>
      </trkpt>
      <trkpt lat="40.848783" lon="-4.197883">
        <ele>2008.0</ele>
        <time>2014-06-30T16:18:41Z</time>
      </trkpt>
      <trkpt lat="40.848867" lon="-4.197750">
        <ele>2005.0</ele>
        <time>2014-06-30T16:18:42Z</time>
      </trkpt>
      <trkpt lat="40.848933" lon="-4.197633">
        <ele>2001.0</ele>
        <time>2014-06-30T16:18:43Z</time>
      </trkpt>
      <trkpt lat="40.849017" lon="-4.197550">
        <ele>1998.0</ele>
        <time>2014-06-30T16:18:44Z</time>
      </trkpt>
      <trkpt lat="40.849083" lon="-4.197467">
        <ele>1993.0</ele>
        <time>2014-06-30T16:18:45Z</time>
      </trkpt>
      <trkpt lat="40.849133" lon="-4.197400">
        <ele>1988.0</ele>
        <time>2014-06-30T16:18:46Z</time>
      </trkpt>
      <trkpt lat="40.849200" lon="-4.197300">
        <ele>1983.0</ele>
        <time>2014-06-30T16:18:47Z</time>
      </trkpt>
      <trkpt lat="40.849300" lon="-4.197217">
        <ele>1979.0</ele>
        <time>2014-06-30T16:18:48Z</time>
      </trkpt>
      <trkpt lat="40.849383" lon="-4.197133">
        <ele>1974.0</ele>
        <time>2014-06-30T16:18:49Z</time>
      </trkpt>
      <trkpt lat="40.849483" lon="-4.197050">
        <ele>1969.0</ele>
        <time>2014-06-30T16:18:50Z</time>
      </trkpt>
      <trkpt lat="40.849567" lon="-4.196983">
        <ele>1965.0</ele>
        <time>2014-06-30T16:18:51Z</time>
      </trkpt>
      <trkpt lat="40.849650" lon="-4.196917">
        <ele>1960.0</ele>
        <time>2014-06-30T16:18:52Z</time>
      </trkpt>
      <trkpt lat="40.849750" lon="-4.196867">
        <ele>1954.0</ele>
        <time>2014-06-30T16:18:53Z</time>
      </trkpt>
      <trkpt lat="40.849833" lon="-4.196800">
        <ele>1950.0</ele>
        <time>2014-06-30T16:18:54Z</time>
      </trkpt>
      <trkpt lat="40.849950" lon="-4.196733">
        <ele>1945.0</ele>
        <time>2014-06-30T16:18:55Z</time>
      </trkpt>
      <trkpt lat="40.850050" lon="-4.196683">
        <ele>1941.0</ele>
        <time>2014-06-30T16:18:56Z</time>
      </trkpt>
      <trkpt lat="40.850133" lon="-4.196617">
        <ele>1937.0</ele>
        <time>2014-06-30T16:18:57Z</time>
      </trkpt>
      <trkpt lat="40.850233" lon="-4.196550">
        <ele>1934.0</ele>
        <time>2014-06-30T16:18:58Z</time>
      </trkpt>
      <trkpt lat="40.850300" lon="-4.196483">
        <ele>1930.0</ele>
        <time>2014-06-30T16:18:59Z</time>
      </trkpt>
      <trkpt lat="40.850400" lon="-4.196417">
        <ele>1925.0</ele>
        <time>2014-06-30T16:19:00Z</time>
      </trkpt>
      <trkpt lat="40.850417" lon="-4.196383">
        <ele>1936.0</ele>
        <time>2014-06-30T16:19:01Z</time>
      </trkpt>
      <trkpt lat="40.850517" lon="-4.196350">
        <ele>1935.0</ele>
        <time>2014-06-30T16:19:02Z</time>
      </trkpt>
      <trkpt lat="40.850600" lon="-4.196300">
        <ele>1932.0</ele>
        <time>2014-06-30T16:19:03Z</time>
      </trkpt>
      <trkpt lat="40.850683" lon="-4.196217">
        <ele>1930.0</ele>
        <time>2014-06-30T16:19:04Z</time>
      </trkpt>
      <trkpt lat="40.850767" lon="-4.196150">
        <ele>1928.0</ele>
        <time>2014-06-30T16:19:05Z</time>
      </trkpt>
      <trkpt lat="40.850817" lon="-4.196100">
        <ele>1927.0</ele>
        <time>2014-06-30T16:19:06Z</time>
      </trkpt>
      <trkpt lat="40.850900" lon="-4.196067">
        <ele>1926.0</ele>
        <time>2014-06-30T16:19:07Z</time>
      </trkpt>
      <trkpt lat="40.850983" lon="-4.196000">
        <ele>1925.0</ele>
        <time>2014-06-30T16:19:08Z</time>
      </trkpt>
      <trkpt lat="40.851067" lon="-4.195917">
        <ele>1923.0</ele>
        <time>2014-06-30T16:19:09Z</time>
      </trkpt>
      <trkpt lat="40.851150" lon="-4.195867">
        <ele>1920.0</ele>
        <time>2014-06-30T16:19:10Z</time>
      </trkpt>
      <trkpt lat="40.851217" lon="-4.195850">
        <ele>1919.0</ele>
        <time>2014-06-30T16:19:11Z</time>
      </trkpt>
      <trkpt lat="40.851283" lon="-4.195867">
        <ele>1917.0</ele>
        <time>2014-06-30T16:19:12Z</time>
      </trkpt>
      <trkpt lat="40.851350" lon="-4.195867">
        <ele>1914.0</ele>
        <time>2014-06-30T16:19:13Z</time>
      </trkpt>
      <trkpt lat="40.851433" lon="-4.195833">
        <ele>1911.0</ele>
        <time>2014-06-30T16:19:14Z</time>
      </trkpt>
      <trkpt lat="40.851517" lon="-4.195783">
        <ele>1908.0</ele>
        <time>2014-06-30T16:19:15Z</time>
      </trkpt>
      <trkpt lat="40.851600" lon="-4.195750">
        <ele>1904.0</ele>
        <time>2014-06-30T16:19:16Z</time>
      </trkpt>
      <trkpt lat="40.851650" lon="-4.195733">
        <ele>1905.0</ele>
        <time>2014-06-30T16:19:17Z</time>
      </trkpt>
      <trkpt lat="40.851733" lon="-4.195717">
        <ele>1901.0</ele>
        <time>2014-06-30T16:19:18Z</time>
      </trkpt>
      <trkpt lat="40.851817" lon="-4.195683">
        <ele>1898.0</ele>
        <time>2014-06-30T16:19:19Z</time>
      </trkpt>
      <trkpt lat="40.851917" lon="-4.195617">
        <ele>1894.0</ele>
        <time>2014-06-30T16:19:20Z</time>
      </trkpt>
      <trkpt lat="40.852017" lon="-4.195550">
        <ele>1890.0</ele>
        <time>2014-06-30T16:19:21Z</time>
      </trkpt>
      <trkpt lat="40.852117" lon="-4.195517">
        <ele>1886.0</ele>
        <time>2014-06-30T16:19:22Z</time>
      </trkpt>
      <trkpt lat="40.852167" lon="-4.195483">
        <ele>1887.0</ele>
        <time>2014-06-30T16:19:23Z</time>
      </trkpt>
      <trkpt lat="40.852267" lon="-4.195433">
        <ele>1881.0</ele>
        <time>2014-06-30T16:19:24Z</time>
      </trkpt>
      <trkpt lat="40.852350" lon="-4.195367">
        <ele>1876.0</ele>
        <time>2014-06-30T16:19:25Z</time>
      </trkpt>
      <trkpt lat="40.852467" lon="-4.195283">
        <ele>1871.0</ele>
        <time>2014-06-30T16:19:26Z</time>
      </trkpt>
      <trkpt lat="40.852567" lon="-4.195217">
        <ele>1867.0</ele>
        <time>2014-06-30T16:19:27Z</time>
      </trkpt>
      <trkpt lat="40.852683" lon="-4.195133">
        <ele>1862.0</ele>
        <time>2014-06-30T16:19:28Z</time>
      </trkpt>
      <trkpt lat="40.852783" lon="-4.195050">
        <ele>1857.0</ele>
        <time>2014-06-30T16:19:29Z</time>
      </trkpt>
      <trkpt lat="40.852883" lon="-4.194967">
        <ele>1853.0</ele>
        <time>2014-06-30T16:19:30Z</time>
      </trkpt>
      <trkpt lat="40.853000" lon="-4.194883">
        <ele>1848.0</ele>
        <time>2014-06-30T16:19:31Z</time>
      </trkpt>
      <trkpt lat="40.853083" lon="-4.194833">
        <ele>1844.0</ele>
        <time>2014-06-30T16:19:32Z</time>
      </trkpt>
      <trkpt lat="40.853183" lon="-4.194800">
        <ele>1838.0</ele>
        <time>2014-06-30T16:19:33Z</time>
      </trkpt>
      <trkpt lat="40.853283" lon="-4.194767">
        <ele>1833.0</ele>
        <time>2014-06-30T16:19:34Z</time>
      </trkpt>
      <trkpt lat="40.853417" lon="-4.194717">
        <ele>1828.0</ele>
        <time>2014-06-30T16:19:35Z</time>
      </trkpt>
      <trkpt lat="40.853533" lon="-4.194667">
        <ele>1823.0</ele>
        <time>2014-06-30T16:19:36Z</time>
      </trkpt>
      <trkpt lat="40.853667" lon="-4.194600">
        <ele>1819.0</ele>
        <time>2014-06-30T16:19:37Z</time>
      </trkpt>
      <trkpt lat="40.853767" lon="-4.194567">
        <ele>1817.0</ele>
        <time>2014-06-30T16:19:38Z</time>
      </trkpt>
      <trkpt lat="40.853850" lon="-4.194550">
        <ele>1815.0</ele>
        <time>2014-06-30T16:19:39Z</time>
      </trkpt>
      <trkpt lat="40.853933" lon="-4.194550">
        <ele>1812.0</ele>
        <time>2014-06-30T16:19:40Z</time>
      </trkpt>
      <trkpt lat="40.853983" lon="-4.194517">
        <ele>1817.0</ele>
        <time>2014-06-30T16:19:41Z</time>
      </trkpt>
      <trkpt lat="40.854067" lon="-4.194500">
        <ele>1814.0</ele>
        <time>2014-06-30T16:19:42Z</time>
      </trkpt>
      <trkpt lat="40.854167" lon="-4.194483">
        <ele>1809.0</ele>
        <time>2014-06-30T16:19:43Z</time>
      </trkpt>
      <trkpt lat="40.854250" lon="-4.194483">
        <ele>1806.0</ele>
        <time>2014-06-30T16:19:44Z</time>
      </trkpt>
      <trkpt lat="40.854350" lon="-4.194483">
        <ele>1803.0</ele>
        <time>2014-06-30T16:19:45Z</time>
      </trkpt>
      <trkpt lat="40.854417" lon="-4.194467">
        <ele>1804.0</ele>
        <time>2014-06-30T16:19:46Z</time>
      </trkpt>
      <trkpt lat="40.854483" lon="-4.194433">
        <ele>1802.0</ele>
        <time>2014-06-30T16:19:47Z</time>
      </trkpt>
      <trkpt lat="40.854550" lon="-4.194417">
        <ele>1801.0</ele>
        <time>2014-06-30T16:19:48Z</time>
      </trkpt>
      <trkpt lat="40.854633" lon="-4.194417">
        <ele>1800.0</ele>
        <time>2014-06-30T16:19:49Z</time>
      </trkpt>
      <trkpt lat="40.854700" lon="-4.194417">
        <ele>1798.0</ele>
        <time>2014-06-30T16:19:50Z</time>
      </trkpt>
      <trkpt lat="40.854767" lon="-4.194417">
        <ele>1797.0</ele>
        <time>2014-06-30T16:19:51Z</time>
      </trkpt>
      <trkpt lat="40.854833" lon="-4.194383">
        <ele>1796.0</ele>
        <time>2014-06-30T16:19:52Z</time>
      </trkpt>
      <trkpt lat="40.854883" lon="-4.194367">
        <ele>1794.0</ele>
        <time>2014-06-30T16:19:53Z</time>
      </trkpt>
      <trkpt lat="40.854933" lon="-4.194367">
        <ele>1792.0</ele>
        <time>2014-06-30T16:19:54Z</time>
      </trkpt>
      <trkpt lat="40.855000" lon="-4.194350">
        <ele>1789.0</ele>
        <time>2014-06-30T16:19:55Z</time>
      </trkpt>
      <trkpt lat="40.855083" lon="-4.194333">
        <ele>1786.0</ele>
        <time>2014-06-30T16:19:56Z</time>
      </trkpt>
      <trkpt lat="40.855183" lon="-4.194300">
        <ele>1784.0</ele>
        <time>2014-06-30T16:19:57Z</time>
      </trkpt>
      <trkpt lat="40.855250" lon="-4.194267">
        <ele>1781.0</ele>
        <time>2014-06-30T16:19:58Z</time>
      </trkpt>
      <trkpt lat="40.855300" lon="-4.194233">
        <ele>1781.0</ele>
        <time>2014-06-30T16:19:59Z</time>
      </trkpt>
      <trkpt lat="40.855350" lon="-4.194217">
        <ele>1780.0</ele>
        <time>2014-06-30T16:20:00Z</time>
      </trkpt>
      <trkpt lat="40.855400" lon="-4.194167">
        <ele>1779.0</ele>
        <time>2014-06-30T16:20:01Z</time>
      </trkpt>
      <trkpt lat="40.855467" lon="-4.194117">
        <ele>1777.0</ele>
        <time>2014-06-30T16:20:02Z</time>
      </trkpt>
      <trkpt lat="40.855533" lon="-4.194050">
        <ele>1775.0</ele>
        <time>2014-06-30T16:20:03Z</time>
      </trkpt>
      <trkpt lat="40.855617" lon="-4.193967">
        <ele>1772.0</ele>
        <time>2014-06-30T16:20:04Z</time>
      </trkpt>
      <trkpt lat="40.855683" lon="-4.193917">
        <ele>1772.0</ele>
        <time>2014-06-30T16:20:05Z</time>
      </trkpt>
      <trkpt lat="40.855750" lon="-4.193867">
        <ele>1770.0</ele>
        <time>2014-06-30T16:20:06Z</time>
      </trkpt>
      <trkpt lat="40.855800" lon="-4.193817">
        <ele>1768.0</ele>
        <time>2014-06-30T16:20:07Z</time>
      </trkpt>
      <trkpt lat="40.855867" lon="-4.193750">
        <ele>1766.0</ele>
        <time>2014-06-30T16:20:08Z</time>
      </trkpt>
      <trkpt lat="40.855917" lon="-4.193683">
        <ele>1764.0</ele>
        <time>2014-06-30T16:20:09Z</time>
      </trkpt>
      <trkpt lat="40.856000" lon="-4.193617">
        <ele>1761.0</ele>
        <time>2014-06-30T16:20:10Z</time>
      </trkpt>
      <trkpt lat="40.856100" lon="-4.193567">
        <ele>1757.0</ele>
        <time>2014-06-30T16:20:11Z</time>
      </trkpt>
      <trkpt lat="40.856183" lon="-4.193517">
        <ele>1754.0</ele>
        <time>2014-06-30T16:20:12Z</time>
      </trkpt>
      <trkpt lat="40.856250" lon="-4.193483">
        <ele>1754.0</ele>
        <time>2014-06-30T16:20:13Z</time>
      </trkpt>
      <trkpt lat="40.856333" lon="-4.193433">
        <ele>1753.0</ele>
        <time>2014-06-30T16:20:14Z</time>
      </trkpt>
      <trkpt lat="40.856400" lon="-4.193383">
        <ele>1750.0</ele>
        <time>2014-06-30T16:20:15Z</time>
      </trkpt>
      <trkpt lat="40.856450" lon="-4.193333">
        <ele>1747.0</ele>
        <time>2014-06-30T16:20:16Z</time>
      </trkpt>
      <trkpt lat="40.856500" lon="-4.193267">
        <ele>1746.0</ele>
        <time>2014-06-30T16:20:17Z</time>
      </trkpt>
      <trkpt lat="40.856567" lon="-4.193217">
        <ele>1744.0</ele>
        <time>2014-06-30T16:20:18Z</time>
      </trkpt>
      <trkpt lat="40.856633" lon="-4.193167">
        <ele>1743.0</ele>
        <time>2014-06-30T16:20:19Z</time>
      </trkpt>
      <trkpt lat="40.856700" lon="-4.193117">
        <ele>1742.0</ele>
        <time>2014-06-30T16:20:20Z</time>
      </trkpt>
      <trkpt lat="40.856767" lon="-4.193067">
        <ele>1739.0</ele>
        <time>2014-06-30T16:20:21Z</time>
      </trkpt>
      <trkpt lat="40.856817" lon="-4.193033">
        <ele>1737.0</ele>
        <time>2014-06-30T16:20:22Z</time>
      </trkpt>
      <trkpt lat="40.856867" lon="-4.192983">
        <ele>1736.0</ele>
        <time>2014-06-30T16:20:23Z</time>
      </trkpt>
      <trkpt lat="40.856933" lon="-4.192933">
        <ele>1734.0</ele>
        <time>2014-06-30T16:20:24Z</time>
      </trkpt>
      <trkpt lat="40.856983" lon="-4.192883">
        <ele>1733.0</ele>
        <time>2014-06-30T16:20:25Z</time>
      </trkpt>
      <trkpt lat="40.857050" lon="-4.192833">
        <ele>1731.0</ele>
        <time>2014-06-30T16:20:26Z</time>
      </trkpt>
      <trkpt lat="40.857100" lon="-4.192800">
        <ele>1730.0</ele>
        <time>2014-06-30T16:20:27Z</time>
      </trkpt>
      <trkpt lat="40.857150" lon="-4.192750">
        <ele>1728.0</ele>
        <time>2014-06-30T16:20:28Z</time>
      </trkpt>
      <trkpt lat="40.857200" lon="-4.192683">
        <ele>1726.0</ele>
        <time>2014-06-30T16:20:29Z</time>
      </trkpt>
      <trkpt lat="40.857250" lon="-4.192617">
        <ele>1724.0</ele>
        <time>2014-06-30T16:20:30Z</time>
      </trkpt>
      <trkpt lat="40.857283" lon="-4.192550">
        <ele>1723.0</ele>
        <time>2014-06-30T16:20:31Z</time>
      </trkpt>
      <trkpt lat="40.857350" lon="-4.192483">
        <ele>1721.0</ele>
        <time>2014-06-30T16:20:32Z</time>
      </trkpt>
      <trkpt lat="40.857400" lon="-4.192417">
        <ele>1719.0</ele>
        <time>2014-06-30T16:20:33Z</time>
      </trkpt>
      <trkpt lat="40.857467" lon="-4.192333">
        <ele>1717.0</ele>
        <time>2014-06-30T16:20:34Z</time>
      </trkpt>
      <trkpt lat="40.857533" lon="-4.192250">
        <ele>1715.0</ele>
        <time>2014-06-30T16:20:35Z</time>
      </trkpt>
      <trkpt lat="40.857600" lon="-4.192183">
        <ele>1714.0</ele>
        <time>2014-06-30T16:20:36Z</time>
      </trkpt>
      <trkpt lat="40.857650" lon="-4.192133">
        <ele>1713.0</ele>
        <time>2014-06-30T16:20:37Z</time>
      </trkpt>
      <trkpt lat="40.857717" lon="-4.192083">
        <ele>1711.0</ele>
        <time>2014-06-30T16:20:38Z</time>
      </trkpt>
      <trkpt lat="40.857817" lon="-4.192000">
        <ele>1710.0</ele>
        <time>2014-06-30T16:20:39Z</time>
      </trkpt>
      <trkpt lat="40.857917" lon="-4.191917">
        <ele>1709.0</ele>
        <time>2014-06-30T16:20:40Z</time>
      </trkpt>
      <trkpt lat="40.857983" lon="-4.191833">
        <ele>1708.0</ele>
        <time>2014-06-30T16:20:41Z</time>
      </trkpt>
      <trkpt lat="40.858033" lon="-4.191750">
        <ele>1706.0</ele>
        <time>2014-06-30T16:20:42Z</time>
      </trkpt>
      <trkpt lat="40.858083" lon="-4.191717">
        <ele>1705.0</ele>
        <time>2014-06-30T16:20:43Z</time>
      </trkpt>
      <trkpt lat="40.858183" lon="-4.191650">
        <ele>1703.0</ele>
        <time>2014-06-30T16:20:44Z</time>
      </trkpt>
      <trkpt lat="40.858250" lon="-4.191583">
        <ele>1702.0</ele>
        <time>2014-06-30T16:20:45Z</time>
      </trkpt>
      <trkpt lat="40.858350" lon="-4.191500">
        <ele>1700.0</ele>
        <time>2014-06-30T16:20:46Z</time>
      </trkpt>
      <trkpt lat="40.858400" lon="-4.191433">
        <ele>1699.0</ele>
        <time>2014-06-30T16:20:47Z</time>
      </trkpt>
      <trkpt lat="40.858450" lon="-4.191367">
        <ele>1696.0</ele>
        <time>2014-06-30T16:20:48Z</time>
      </trkpt>
      <trkpt lat="40.858517" lon="-4.191317">
        <ele>1695.0</ele>
        <time>2014-06-30T16:20:49Z</time>
      </trkpt>
      <trkpt lat="40.858550" lon="-4.191267">
        <ele>1693.0</ele>
        <time>2014-06-30T16:20:50Z</time>
      </trkpt>
      <trkpt lat="40.858583" lon="-4.191200">
        <ele>1692.0</ele>
        <time>2014-06-30T16:20:51Z</time>
      </trkpt>
      <trkpt lat="40.858633" lon="-4.191150">
        <ele>1690.0</ele>
        <time>2014-06-30T16:20:52Z</time>
      </trkpt>
      <trkpt lat="40.858700" lon="-4.191117">
        <ele>1689.0</ele>
        <time>2014-06-30T16:20:53Z</time>
      </trkpt>
      <trkpt lat="40.858750" lon="-4.191067">
        <ele>1687.0</ele>
        <time>2014-06-30T16:20:54Z</time>
      </trkpt>
      <trkpt lat="40.858833" lon="-4.191017">
        <ele>1685.0</ele>
        <time>2014-06-30T16:20:55Z</time>
      </trkpt>
      <trkpt lat="40.858900" lon="-4.190950">
        <ele>1683.0</ele>
        <time>2014-06-30T16:20:56Z</time>
      </trkpt>
      <trkpt lat="40.858933" lon="-4.190900">
        <ele>1681.0</ele>
        <time>2014-06-30T16:20:57Z</time>
      </trkpt>
      <trkpt lat="40.858983" lon="-4.190850">
        <ele>1679.0</ele>
        <time>2014-06-30T16:20:58Z</time>
      </trkpt>
      <trkpt lat="40.859033" lon="-4.190800">
        <ele>1677.0</ele>
        <time>2014-06-30T16:20:59Z</time>
      </trkpt>
      <trkpt lat="40.859117" lon="-4.190750">
        <ele>1676.0</ele>
        <time>2014-06-30T16:21:00Z</time>
      </trkpt>
      <trkpt lat="40.859167" lon="-4.190683">
        <ele>1674.0</ele>
        <time>2014-06-30T16:21:01Z</time>
      </trkpt>
      <trkpt lat="40.859233" lon="-4.190617">
        <ele>1673.0</ele>
        <time>2014-06-30T16:21:02Z</time>
      </trkpt>
      <trkpt lat="40.859283" lon="-4.190550">
        <ele>1670.0</ele>
        <time>2014-06-30T16:21:03Z</time>
      </trkpt>
      <trkpt lat="40.859350" lon="-4.190517">
        <ele>1669.0</ele>
        <time>2014-06-30T16:21:04Z</time>
      </trkpt>
      <trkpt lat="40.859400" lon="-4.190467">
        <ele>1668.0</ele>
        <time>2014-06-30T16:21:05Z</time>
      </trkpt>
      <trkpt lat="40.859450" lon="-4.190417">
        <ele>1666.0</ele>
        <time>2014-06-30T16:21:06Z</time>
      </trkpt>
      <trkpt lat="40.859533" lon="-4.190367">
        <ele>1665.0</ele>
        <time>2014-06-30T16:21:07Z</time>
      </trkpt>
      <trkpt lat="40.859617" lon="-4.190300">
        <ele>1664.0</ele>
        <time>2014-06-30T16:21:08Z</time>
      </trkpt>
      <trkpt lat="40.859683" lon="-4.190250">
        <ele>1662.0</ele>
        <time>2014-06-30T16:21:09Z</time>
      </trkpt>
      <trkpt lat="40.859717" lon="-4.190200">
        <ele>1660.0</ele>
        <time>2014-06-30T16:21:10Z</time>
      </trkpt>
      <trkpt lat="40.859800" lon="-4.190167">
        <ele>1658.0</ele>
        <time>2014-06-30T16:21:11Z</time>
      </trkpt>
      <trkpt lat="40.859867" lon="-4.190133">
        <ele>1655.0</ele>
        <time>2014-06-30T16:21:12Z</time>
      </trkpt>
      <trkpt lat="40.859933" lon="-4.190083">
        <ele>1653.0</ele>
        <time>2014-06-30T16:21:13Z</time>
      </trkpt>
      <trkpt lat="40.859983" lon="-4.190050">
        <ele>1649.0</ele>
        <time>2014-06-30T16:21:14Z</time>
      </trkpt>
      <trkpt lat="40.860067" lon="-4.190033">
        <ele>1646.0</ele>
        <time>2014-06-30T16:21:15Z</time>
      </trkpt>
      <trkpt lat="40.860150" lon="-4.190017">
        <ele>1642.0</ele>
        <time>2014-06-30T16:21:16Z</time>
      </trkpt>
      <trkpt lat="40.860200" lon="-4.189983">
        <ele>1640.0</ele>
        <time>2014-06-30T16:21:17Z</time>
      </trkpt>
      <trkpt lat="40.860283" lon="-4.189950">
        <ele>1637.0</ele>
        <time>2014-06-30T16:21:18Z</time>
      </trkpt>
      <trkpt lat="40.860350" lon="-4.189900">
        <ele>1635.0</ele>
        <time>2014-06-30T16:21:19Z</time>
      </trkpt>
      <trkpt lat="40.860417" lon="-4.189850">
        <ele>1631.0</ele>
        <time>2014-06-30T16:21:20Z</time>
      </trkpt>
      <trkpt lat="40.860483" lon="-4.189817">
        <ele>1628.0</ele>
        <time>2014-06-30T16:21:21Z</time>
      </trkpt>
      <trkpt lat="40.860550" lon="-4.189783">
        <ele>1624.0</ele>
        <time>2014-06-30T16:21:22Z</time>
      </trkpt>
      <trkpt lat="40.860650" lon="-4.189733">
        <ele>1620.0</ele>
        <time>2014-06-30T16:21:23Z</time>
      </trkpt>
      <trkpt lat="40.860750" lon="-4.189650">
        <ele>1616.0</ele>
        <time>2014-06-30T16:21:24Z</time>
      </trkpt>
      <trkpt lat="40.860850" lon="-4.189583">
        <ele>1612.0</ele>
        <time>2014-06-30T16:21:25Z</time>
      </trkpt>
      <trkpt lat="40.860950" lon="-4.189517">
        <ele>1609.0</ele>
        <time>2014-06-30T16:21:26Z</time>
      </trkpt>
      <trkpt lat="40.861017" lon="-4.189467">
        <ele>1605.0</ele>
        <time>2014-06-30T16:21:27Z</time>
      </trkpt>
      <trkpt lat="40.861117" lon="-4.189417">
        <ele>1601.0</ele>
        <time>2014-06-30T16:21:28Z</time>
      </trkpt>
      <trkpt lat="40.861200" lon="-4.189350">
        <ele>1597.0</ele>
        <time>2014-06-30T16:21:29Z</time>
      </trkpt>
      <trkpt lat="40.861283" lon="-4.189267">
        <ele>1593.0</ele>
        <time>2014-06-30T16:21:30Z</time>
      </trkpt>
      <trkpt lat="40.861350" lon="-4.189200">
        <ele>1589.0</ele>
        <time>2014-06-30T16:21:31Z</time>
      </trkpt>
      <trkpt lat="40.861433" lon="-4.189150">
        <ele>1584.0</ele>
        <time>2014-06-30T16:21:32Z</time>
      </trkpt>
      <trkpt lat="40.861517" lon="-4.189083">
        <ele>1580.0</ele>
        <time>2014-06-30T16:21:33Z</time>
      </trkpt>
      <trkpt lat="40.861600" lon="-4.189017">
        <ele>1576.0</ele>
        <time>2014-06-30T16:21:34Z</time>
      </trkpt>
      <trkpt lat="40.861683" lon="-4.188950">
        <ele>1572.0</ele>
        <time>2014-06-30T16:21:35Z</time>
      </trkpt>
      <trkpt lat="40.861750" lon="-4.188883">
        <ele>1567.0</ele>
        <time>2014-06-30T16:21:36Z</time>
      </trkpt>
      <trkpt lat="40.861833" lon="-4.188817">
        <ele>1562.0</ele>
        <time>2014-06-30T16:21:37Z</time>
      </trkpt>
      <trkpt lat="40.861900" lon="-4.188767">
        <ele>1559.0</ele>
        <time>2014-06-30T16:21:38Z</time>
      </trkpt>
      <trkpt lat="40.861983" lon="-4.188717">
        <ele>1555.0</ele>
        <time>2014-06-30T16:21:39Z</time>
      </trkpt>
      <trkpt lat="40.862067" lon="-4.188650">
        <ele>1551.0</ele>
        <time>2014-06-30T16:21:40Z</time>
      </trkpt>
      <trkpt lat="40.862150" lon="-4.188617">
        <ele>1547.0</ele>
        <time>2014-06-30T16:21:41Z</time>
      </trkpt>
      <trkpt lat="40.862233" lon="-4.188567">
        <ele>1544.0</ele>
        <time>2014-06-30T16:21:42Z</time>
      </trkpt>
      <trkpt lat="40.862300" lon="-4.188533">
        <ele>1540.0</ele>
        <time>2014-06-30T16:21:43Z</time>
      </trkpt>
      <trkpt lat="40.862383" lon="-4.188483">
        <ele>1537.0</ele>
        <time>2014-06-30T16:21:44Z</time>
      </trkpt>
      <trkpt lat="40.862467" lon="-4.188433">
        <ele>1533.0</ele>
        <time>2014-06-30T16:21:45Z</time>
      </trkpt>
      <trkpt lat="40.862533" lon="-4.188383">
        <ele>1530.0</ele>
        <time>2014-06-30T16:21:46Z</time>
      </trkpt>
      <trkpt lat="40.862600" lon="-4.188333">
        <ele>1526.0</ele>
        <time>2014-06-30T16:21:47Z</time>
      </trkpt>
      <trkpt lat="40.862667" lon="-4.188317">
        <ele>1524.0</ele>
        <time>2014-06-30T16:21:48Z</time>
      </trkpt>
      <trkpt lat="40.862733" lon="-4.188283">
        <ele>1521.0</ele>
        <time>2014-06-30T16:21:49Z</time>
      </trkpt>
      <trkpt lat="40.862817" lon="-4.188233">
        <ele>1518.0</ele>
        <time>2014-06-30T16:21:50Z</time>
      </trkpt>
      <trkpt lat="40.862883" lon="-4.188183">
        <ele>1516.0</ele>
        <time>2014-06-30T16:21:51Z</time>
      </trkpt>
      <trkpt lat="40.862967" lon="-4.188150">
        <ele>1513.0</ele>
        <time>2014-06-30T16:21:52Z</time>
      </trkpt>
      <trkpt lat="40.863033" lon="-4.188117">
        <ele>1511.0</ele>
        <time>2014-06-30T16:21:53Z</time>
      </trkpt>
      <trkpt lat="40.863100" lon="-4.188083">
        <ele>1508.0</ele>
        <time>2014-06-30T16:21:54Z</time>
      </trkpt>
      <trkpt lat="40.863167" lon="-4.188067">
        <ele>1506.0</ele>
        <time>2014-06-30T16:21:55Z</time>
      </trkpt>
      <trkpt lat="40.863233" lon="-4.188050">
        <ele>1504.0</ele>
        <time>2014-06-30T16:21:56Z</time>
      </trkpt>
      <trkpt lat="40.863300" lon="-4.188033">
        <ele>1502.0</ele>
        <time>2014-06-30T16:21:57Z</time>
      </trkpt>
      <trkpt lat="40.863367" lon="-4.188000">
        <ele>1499.0</ele>
        <time>2014-06-30T16:21:58Z</time>
      </trkpt>
      <trkpt lat="40.863450" lon="-4.187983">
        <ele>1497.0</ele>
        <time>2014-06-30T16:21:59Z</time>
      </trkpt>
      <trkpt lat="40.863517" lon="-4.187983">
        <ele>1495.0</ele>
        <time>2014-06-30T16:22:00Z</time>
      </trkpt>
      <trkpt lat="40.863583" lon="-4.188017">
        <ele>1494.0</ele>
        <time>2014-06-30T16:22:01Z</time>
      </trkpt>
      <trkpt lat="40.863633" lon="-4.188033">
        <ele>1492.0</ele>
        <time>2014-06-30T16:22:02Z</time>
      </trkpt>
      <trkpt lat="40.863700" lon="-4.188033">
        <ele>1490.0</ele>
        <time>2014-06-30T16:22:03Z</time>
      </trkpt>
      <trkpt lat="40.863750" lon="-4.188033">
        <ele>1488.0</ele>
        <time>2014-06-30T16:22:04Z</time>
      </trkpt>
      <trkpt lat="40.863817" lon="-4.188017">
        <ele>1486.0</ele>
        <time>2014-06-30T16:22:05Z</time>
      </trkpt>
      <trkpt lat="40.863883" lon="-4.188017">
        <ele>1485.0</ele>
        <time>2014-06-30T16:22:06Z</time>
      </trkpt>
      <trkpt lat="40.863933" lon="-4.188033">
        <ele>1483.0</ele>
        <time>2014-06-30T16:22:07Z</time>
      </trkpt>
      <trkpt lat="40.864000" lon="-4.188033">
        <ele>1481.0</ele>
        <time>2014-06-30T16:22:08Z</time>
      </trkpt>
      <trkpt lat="40.864050" lon="-4.188033">
        <ele>1480.0</ele>
        <time>2014-06-30T16:22:09Z</time>
      </trkpt>
      <trkpt lat="40.864083" lon="-4.188017">
        <ele>1478.0</ele>
        <time>2014-06-30T16:22:10Z</time>
      </trkpt>
      <trkpt lat="40.864133" lon="-4.187983">
        <ele>1477.0</ele>
        <time>2014-06-30T16:22:11Z</time>
      </trkpt>
      <trkpt lat="40.864183" lon="-4.187967">
        <ele>1475.0</ele>
        <time>2014-06-30T16:22:12Z</time>
      </trkpt>
      <trkpt lat="40.864233" lon="-4.187967">
        <ele>1474.0</ele>
        <time>2014-06-30T16:22:13Z</time>
      </trkpt>
      <trkpt lat="40.864283" lon="-4.187933">
        <ele>1473.0</ele>
        <time>2014-06-30T16:22:14Z</time>
      </trkpt>
      <trkpt lat="40.864333" lon="-4.187917">
        <ele>1471.0</ele>
        <time>2014-06-30T16:22:15Z</time>
      </trkpt>
      <trkpt lat="40.864400" lon="-4.187900">
        <ele>1470.0</ele>
        <time>2014-06-30T16:22:16Z</time>
      </trkpt>
      <trkpt lat="40.864450" lon="-4.187883">
        <ele>1468.0</ele>
        <time>2014-06-30T16:22:17Z</time>
      </trkpt>
      <trkpt lat="40.864533" lon="-4.187883">
        <ele>1466.0</ele>
        <time>2014-06-30T16:22:18Z</time>
      </trkpt>
      <trkpt lat="40.864633" lon="-4.187883">
        <ele>1465.0</ele>
        <time>2014-06-30T16:22:19Z</time>
      </trkpt>
      <trkpt lat="40.864717" lon="-4.187867">
        <ele>1463.0</ele>
        <time>2014-06-30T16:22:20Z</time>
      </trkpt>
      <trkpt lat="40.864783" lon="-4.187867">
        <ele>1462.0</ele>
        <time>2014-06-30T16:22:21Z</time>
      </trkpt>
      <trkpt lat="40.864833" lon="-4.187850">
        <ele>1462.0</ele>
        <time>2014-06-30T16:22:22Z</time>
      </trkpt>
      <trkpt lat="40.864883" lon="-4.187833">
        <ele>1461.0</ele>
        <time>2014-06-30T16:22:23Z</time>
      </trkpt>
      <trkpt lat="40.864933" lon="-4.187817">
        <ele>1460.0</ele>
        <time>2014-06-30T16:22:24Z</time>
      </trkpt>
      <trkpt lat="40.865000" lon="-4.187800">
        <ele>1458.0</ele>
        <time>2014-06-30T16:22:25Z</time>
      </trkpt>
      <trkpt lat="40.865067" lon="-4.187783">
        <ele>1457.0</ele>
        <time>2014-06-30T16:22:26Z</time>
      </trkpt>
      <trkpt lat="40.865133" lon="-4.187767">
        <ele>1456.0</ele>
        <time>2014-06-30T16:22:27Z</time>
      </trkpt>
      <trkpt lat="40.865183" lon="-4.187767">
        <ele>1455.0</ele>
        <time>2014-06-30T16:22:28Z</time>
      </trkpt>
      <trkpt lat="40.865250" lon="-4.187750">
        <ele>1454.0</ele>
        <time>2014-06-30T16:22:29Z</time>
      </trkpt>
      <trkpt lat="40.865283" lon="-4.187767">
        <ele>1453.0</ele>
        <time>2014-06-30T16:22:30Z</time>
      </trkpt>
      <trkpt lat="40.865317" lon="-4.187783">
        <ele>1453.0</ele>
        <time>2014-06-30T16:22:31Z</time>
      </trkpt>
      <trkpt lat="40.865367" lon="-4.187800">
        <ele>1458.0</ele>
        <time>2014-06-30T16:22:32Z</time>
      </trkpt>
      <trkpt lat="40.865433" lon="-4.187800">
        <ele>1459.0</ele>
        <time>2014-06-30T16:22:33Z</time>
      </trkpt>
      <trkpt lat="40.865483" lon="-4.187783">
        <ele>1460.0</ele>
        <time>2014-06-30T16:22:34Z</time>
      </trkpt>
      <trkpt lat="40.865550" lon="-4.187750">
        <ele>1461.0</ele>
        <time>2014-06-30T16:22:35Z</time>
      </trkpt>
      <trkpt lat="40.865600" lon="-4.187733">
        <ele>1462.0</ele>
        <time>2014-06-30T16:22:36Z</time>
      </trkpt>
      <trkpt lat="40.865650" lon="-4.187717">
        <ele>1463.0</ele>
        <time>2014-06-30T16:22:37Z</time>
      </trkpt>
      <trkpt lat="40.865717" lon="-4.187700">
        <ele>1463.0</ele>
        <time>2014-06-30T16:22:38Z</time>
      </trkpt>
      <trkpt lat="40.865783" lon="-4.187667">
        <ele>1464.0</ele>
        <time>2014-06-30T16:22:39Z</time>
      </trkpt>
      <trkpt lat="40.865850" lon="-4.187650">
        <ele>1464.0</ele>
        <time>2014-06-30T16:22:40Z</time>
      </trkpt>
      <trkpt lat="40.865917" lon="-4.187683">
        <ele>1465.0</ele>
        <time>2014-06-30T16:22:41Z</time>
      </trkpt>
      <trkpt lat="40.865983" lon="-4.187717">
        <ele>1466.0</ele>
        <time>2014-06-30T16:22:42Z</time>
      </trkpt>
      <trkpt lat="40.866033" lon="-4.187717">
        <ele>1467.0</ele>
        <time>2014-06-30T16:22:43Z</time>
      </trkpt>
      <trkpt lat="40.866067" lon="-4.187717">
        <ele>1468.0</ele>
        <time>2014-06-30T16:22:44Z</time>
      </trkpt>
      <trkpt lat="40.866117" lon="-4.187700">
        <ele>1468.0</ele>
        <time>2014-06-30T16:22:45Z</time>
      </trkpt>
      <trkpt lat="40.866150" lon="-4.187700">
        <ele>1468.0</ele>
        <time>2014-06-30T16:22:46Z</time>
      </trkpt>
      <trkpt lat="40.866167" lon="-4.187683">
        <ele>1469.0</ele>
        <time>2014-06-30T16:22:47Z</time>
      </trkpt>
      <trkpt lat="40.866200" lon="-4.187700">
        <ele>1469.0</ele>
        <time>2014-06-30T16:22:48Z</time>
      </trkpt>
      <trkpt lat="40.866233" lon="-4.187717">
        <ele>1469.0</ele>
        <time>2014-06-30T16:22:49Z</time>
      </trkpt>
      <trkpt lat="40.866267" lon="-4.187750">
        <ele>1469.0</ele>
        <time>2014-06-30T16:22:50Z</time>
      </trkpt>
      <trkpt lat="40.866267" lon="-4.187800">
        <ele>1469.0</ele>
        <time>2014-06-30T16:22:51Z</time>
      </trkpt>
      <trkpt lat="40.866217" lon="-4.187867">
        <ele>1469.0</ele>
        <time>2014-06-30T16:22:52Z</time>
      </trkpt>
      <trkpt lat="40.866133" lon="-4.187917">
        <ele>1469.0</ele>
        <time>2014-06-30T16:22:53Z</time>
      </trkpt>
      <trkpt lat="40.866050" lon="-4.187917">
        <ele>1469.0</ele>
        <time>2014-06-30T16:22:54Z</time>
      </trkpt>
      <trkpt lat="40.865933" lon="-4.187883">
        <ele>1469.0</ele>
        <time>2014-06-30T16:22:55Z</time>
      </trkpt>
      <trkpt lat="40.865850" lon="-4.187833">
        <ele>1468.0</ele>
        <time>2014-06-30T16:22:56Z</time>
      </trkpt>
      <trkpt lat="40.865750" lon="-4.187767">
        <ele>1468.0</ele>
        <time>2014-06-30T16:22:57Z</time>
      </trkpt>
      <trkpt lat="40.865650" lon="-4.187683">
        <ele>1468.0</ele>
        <time>2014-06-30T16:22:58Z</time>
      </trkpt>
      <trkpt lat="40.865567" lon="-4.187583">
        <ele>1468.0</ele>
        <time>2014-06-30T16:22:59Z</time>
      </trkpt>
      <trkpt lat="40.865517" lon="-4.187450">
        <ele>1467.0</ele>
        <time>2014-06-30T16:23:00Z</time>
      </trkpt>
      <trkpt lat="40.865483" lon="-4.187300">
        <ele>1466.0</ele>
        <time>2014-06-30T16:23:01Z</time>
      </trkpt>
      <trkpt lat="40.865483" lon="-4.187150">
        <ele>1465.0</ele>
        <time>2014-06-30T16:23:02Z</time>
      </trkpt>
      <trkpt lat="40.865517" lon="-4.187033">
        <ele>1464.0</ele>
        <time>2014-06-30T16:23:03Z</time>
      </trkpt>
      <trkpt lat="40.865567" lon="-4.186917">
        <ele>1463.0</ele>
        <time>2014-06-30T16:23:04Z</time>
      </trkpt>
      <trkpt lat="40.865617" lon="-4.186817">
        <ele>1462.0</ele>
        <time>2014-06-30T16:23:05Z</time>
      </trkpt>
      <trkpt lat="40.865667" lon="-4.186717">
        <ele>1461.0</ele>
        <time>2014-06-30T16:23:06Z</time>
      </trkpt>
      <trkpt lat="40.865717" lon="-4.186600">
        <ele>1461.0</ele>
        <time>2014-06-30T16:23:07Z</time>
      </trkpt>
      <trkpt lat="40.865783" lon="-4.186517">
        <ele>1460.0</ele>
        <time>2014-06-30T16:23:08Z</time>
      </trkpt>
      <trkpt lat="40.865833" lon="-4.186433">
        <ele>1464.0</ele>
        <time>2014-06-30T16:23:09Z</time>
      </trkpt>
      <trkpt lat="40.865883" lon="-4.186383">
        <ele>1464.0</ele>
        <time>2014-06-30T16:23:10Z</time>
      </trkpt>
      <trkpt lat="40.865933" lon="-4.186317">
        <ele>1464.0</ele>
        <time>2014-06-30T16:23:11Z</time>
      </trkpt>
      <trkpt lat="40.865967" lon="-4.186217">
        <ele>1463.0</ele>
        <time>2014-06-30T16:23:12Z</time>
      </trkpt>
      <trkpt lat="40.866033" lon="-4.186133">
        <ele>1462.0</ele>
        <time>2014-06-30T16:23:13Z</time>
      </trkpt>
      <trkpt lat="40.866100" lon="-4.186083">
        <ele>1461.0</ele>
        <time>2014-06-30T16:23:14Z</time>
      </trkpt>
      <trkpt lat="40.866183" lon="-4.186067">
        <ele>1458.0</ele>
        <time>2014-06-30T16:23:15Z</time>
      </trkpt>
      <trkpt lat="40.866250" lon="-4.186083">
        <ele>1457.0</ele>
        <time>2014-06-30T16:23:16Z</time>
      </trkpt>
      <trkpt lat="40.866300" lon="-4.186067">
        <ele>1457.0</ele>
        <time>2014-06-30T16:23:17Z</time>
      </trkpt>
      <trkpt lat="40.866350" lon="-4.186033">
        <ele>1456.0</ele>
        <time>2014-06-30T16:23:18Z</time>
      </trkpt>
      <trkpt lat="40.866417" lon="-4.186000">
        <ele>1453.0</ele>
        <time>2014-06-30T16:23:19Z</time>
      </trkpt>
      <trkpt lat="40.866467" lon="-4.186000">
        <ele>1451.0</ele>
        <time>2014-06-30T16:23:20Z</time>
      </trkpt>
      <trkpt lat="40.866550" lon="-4.186000">
        <ele>1449.0</ele>
        <time>2014-06-30T16:23:21Z</time>
      </trkpt>
      <trkpt lat="40.866633" lon="-4.186017">
        <ele>1447.0</ele>
        <time>2014-06-30T16:23:22Z</time>
      </trkpt>
      <trkpt lat="40.866733" lon="-4.186017">
        <ele>1447.0</ele>
        <time>2014-06-30T16:23:23Z</time>
      </trkpt>
      <trkpt lat="40.866783" lon="-4.186017">
        <ele>1448.0</ele>
        <time>2014-06-30T16:23:24Z</time>
      </trkpt>
      <trkpt lat="40.866850" lon="-4.186000">
        <ele>1449.0</ele>
        <time>2014-06-30T16:23:25Z</time>
      </trkpt>
      <trkpt lat="40.866900" lon="-4.186000">
        <ele>1449.0</ele>
        <time>2014-06-30T16:23:26Z</time>
      </trkpt>
      <trkpt lat="40.866950" lon="-4.185983">
        <ele>1448.0</ele>
        <time>2014-06-30T16:23:27Z</time>
      </trkpt>
      <trkpt lat="40.867000" lon="-4.185983">
        <ele>1447.0</ele>
        <time>2014-06-30T16:23:28Z</time>
      </trkpt>
      <trkpt lat="40.867050" lon="-4.185967">
        <ele>1444.0</ele>
        <time>2014-06-30T16:23:29Z</time>
      </trkpt>
      <trkpt lat="40.867117" lon="-4.185967">
        <ele>1441.0</ele>
        <time>2014-06-30T16:23:30Z</time>
      </trkpt>
      <trkpt lat="40.867200" lon="-4.185967">
        <ele>1439.0</ele>
        <time>2014-06-30T16:23:31Z</time>
      </trkpt>
      <trkpt lat="40.867283" lon="-4.185983">
        <ele>1437.0</ele>
        <time>2014-06-30T16:23:32Z</time>
      </trkpt>
      <trkpt lat="40.867367" lon="-4.185983">
        <ele>1437.0</ele>
        <time>2014-06-30T16:23:33Z</time>
      </trkpt>
      <trkpt lat="40.867450" lon="-4.185967">
        <ele>1437.0</ele>
        <time>2014-06-30T16:23:34Z</time>
      </trkpt>
      <trkpt lat="40.867517" lon="-4.185933">
        <ele>1438.0</ele>
        <time>2014-06-30T16:23:35Z</time>
      </trkpt>
      <trkpt lat="40.867600" lon="-4.185917">
        <ele>1438.0</ele>
        <time>2014-06-30T16:23:36Z</time>
      </trkpt>
      <trkpt lat="40.867683" lon="-4.185883">
        <ele>1438.0</ele>
        <time>2014-06-30T16:23:37Z</time>
      </trkpt>
      <trkpt lat="40.867767" lon="-4.185850">
        <ele>1437.0</ele>
        <time>2014-06-30T16:23:38Z</time>
      </trkpt>
      <trkpt lat="40.867883" lon="-4.185817">
        <ele>1437.0</ele>
        <time>2014-06-30T16:23:39Z</time>
      </trkpt>
      <trkpt lat="40.867983" lon="-4.185767">
        <ele>1437.0</ele>
        <time>2014-06-30T16:23:40Z</time>
      </trkpt>
      <trkpt lat="40.868083" lon="-4.185733">
        <ele>1437.0</ele>
        <time>2014-06-30T16:23:41Z</time>
      </trkpt>
      <trkpt lat="40.868167" lon="-4.185700">
        <ele>1437.0</ele>
        <time>2014-06-30T16:23:42Z</time>
      </trkpt>
      <trkpt lat="40.868250" lon="-4.185683">
        <ele>1437.0</ele>
        <time>2014-06-30T16:23:43Z</time>
      </trkpt>
      <trkpt lat="40.868317" lon="-4.185683">
        <ele>1437.0</ele>
        <time>2014-06-30T16:23:44Z</time>
      </trkpt>
      <trkpt lat="40.868400" lon="-4.185683">
        <ele>1437.0</ele>
        <time>2014-06-30T16:23:45Z</time>
      </trkpt>
      <trkpt lat="40.868483" lon="-4.185667">
        <ele>1437.0</ele>
        <time>2014-06-30T16:23:46Z</time>
      </trkpt>
      <trkpt lat="40.868550" lon="-4.185667">
        <ele>1437.0</ele>
        <time>2014-06-30T16:23:47Z</time>
      </trkpt>
      <trkpt lat="40.868650" lon="-4.185650">
        <ele>1436.0</ele>
        <time>2014-06-30T16:23:48Z</time>
      </trkpt>
      <trkpt lat="40.868733" lon="-4.185617">
        <ele>1436.0</ele>
        <time>2014-06-30T16:23:49Z</time>
      </trkpt>
      <trkpt lat="40.868817" lon="-4.185583">
        <ele>1437.0</ele>
        <time>2014-06-30T16:23:50Z</time>
      </trkpt>
      <trkpt lat="40.868900" lon="-4.185533">
        <ele>1437.0</ele>
        <time>2014-06-30T16:23:51Z</time>
      </trkpt>
      <trkpt lat="40.868967" lon="-4.185483">
        <ele>1437.0</ele>
        <time>2014-06-30T16:23:52Z</time>
      </trkpt>
      <trkpt lat="40.869017" lon="-4.185467">
        <ele>1437.0</ele>
        <time>2014-06-30T16:23:53Z</time>
      </trkpt>
      <trkpt lat="40.869067" lon="-4.185433">
        <ele>1437.0</ele>
        <time>2014-06-30T16:23:54Z</time>
      </trkpt>
      <trkpt lat="40.869100" lon="-4.185400">
        <ele>1437.0</ele>
        <time>2014-06-30T16:23:55Z</time>
      </trkpt>
      <trkpt lat="40.869150" lon="-4.185350">
        <ele>1435.0</ele>
        <time>2014-06-30T16:23:56Z</time>
      </trkpt>
      <trkpt lat="40.869200" lon="-4.185317">
        <ele>1436.0</ele>
        <time>2014-06-30T16:23:57Z</time>
      </trkpt>
      <trkpt lat="40.869267" lon="-4.185317">
        <ele>1435.0</ele>
        <time>2014-06-30T16:23:58Z</time>
      </trkpt>
      <trkpt lat="40.869350" lon="-4.185300">
        <ele>1434.0</ele>
        <time>2014-06-30T16:23:59Z</time>
      </trkpt>
      <trkpt lat="40.869417" lon="-4.185300">
        <ele>1434.0</ele>
        <time>2014-06-30T16:24:00Z</time>
      </trkpt>
      <trkpt lat="40.869500" lon="-4.185300">
        <ele>1434.0</ele>
        <time>2014-06-30T16:24:01Z</time>
      </trkpt>
      <trkpt lat="40.869550" lon="-4.185283">
        <ele>1433.0</ele>
        <time>2014-06-30T16:24:02Z</time>
      </trkpt>
      <trkpt lat="40.869617" lon="-4.185267">
        <ele>1433.0</ele>
        <time>2014-06-30T16:24:03Z</time>
      </trkpt>
      <trkpt lat="40.869683" lon="-4.185250">
        <ele>1432.0</ele>
        <time>2014-06-30T16:24:04Z</time>
      </trkpt>
      <trkpt lat="40.869750" lon="-4.185233">
        <ele>1431.0</ele>
        <time>2014-06-30T16:24:05Z</time>
      </trkpt>
      <trkpt lat="40.869850" lon="-4.185200">
        <ele>1431.0</ele>
        <time>2014-06-30T16:24:06Z</time>
      </trkpt>
      <trkpt lat="40.869933" lon="-4.185167">
        <ele>1430.0</ele>
        <time>2014-06-30T16:24:07Z</time>
      </trkpt>
      <trkpt lat="40.870033" lon="-4.185150">
        <ele>1428.0</ele>
        <time>2014-06-30T16:24:08Z</time>
      </trkpt>
      <trkpt lat="40.870150" lon="-4.185117">
        <ele>1427.0</ele>
        <time>2014-06-30T16:24:09Z</time>
      </trkpt>
      <trkpt lat="40.870233" lon="-4.185117">
        <ele>1426.0</ele>
        <time>2014-06-30T16:24:10Z</time>
      </trkpt>
      <trkpt lat="40.870300" lon="-4.185100">
        <ele>1426.0</ele>
        <time>2014-06-30T16:24:11Z</time>
      </trkpt>
      <trkpt lat="40.870383" lon="-4.185083">
        <ele>1424.0</ele>
        <time>2014-06-30T16:24:12Z</time>
      </trkpt>
      <trkpt lat="40.870467" lon="-4.185067">
        <ele>1423.0</ele>
        <time>2014-06-30T16:24:13Z</time>
      </trkpt>
      <trkpt lat="40.870550" lon="-4.185050">
        <ele>1422.0</ele>
        <time>2014-06-30T16:24:14Z</time>
      </trkpt>
      <trkpt lat="40.870617" lon="-4.185050">
        <ele>1421.0</ele>
        <time>2014-06-30T16:24:15Z</time>
      </trkpt>
      <trkpt lat="40.870700" lon="-4.185050">
        <ele>1420.0</ele>
        <time>2014-06-30T16:24:16Z</time>
      </trkpt>
      <trkpt lat="40.870767" lon="-4.185067">
        <ele>1419.0</ele>
        <time>2014-06-30T16:24:17Z</time>
      </trkpt>
      <trkpt lat="40.870817" lon="-4.185100">
        <ele>1417.0</ele>
        <time>2014-06-30T16:24:18Z</time>
      </trkpt>
      <trkpt lat="40.870867" lon="-4.185100">
        <ele>1415.0</ele>
        <time>2014-06-30T16:24:19Z</time>
      </trkpt>
      <trkpt lat="40.870917" lon="-4.185083">
        <ele>1413.0</ele>
        <time>2014-06-30T16:24:20Z</time>
      </trkpt>
      <trkpt lat="40.870983" lon="-4.185067">
        <ele>1410.0</ele>
        <time>2014-06-30T16:24:21Z</time>
      </trkpt>
      <trkpt lat="40.871050" lon="-4.185050">
        <ele>1406.0</ele>
        <time>2014-06-30T16:24:22Z</time>
      </trkpt>
      <trkpt lat="40.871117" lon="-4.185067">
        <ele>1402.0</ele>
        <time>2014-06-30T16:24:23Z</time>
      </trkpt>
      <trkpt lat="40.871183" lon="-4.185067">
        <ele>1400.0</ele>
        <time>2014-06-30T16:24:24Z</time>
      </trkpt>
      <trkpt lat="40.871233" lon="-4.185050">
        <ele>1399.0</ele>
        <time>2014-06-30T16:24:25Z</time>
      </trkpt>
      <trkpt lat="40.871283" lon="-4.185033">
        <ele>1402.0</ele>
        <time>2014-06-30T16:24:26Z</time>
      </trkpt>
      <trkpt lat="40.871333" lon="-4.185017">
        <ele>1401.0</ele>
        <time>2014-06-30T16:24:27Z</time>
      </trkpt>
      <trkpt lat="40.871400" lon="-4.185000">
        <ele>1401.0</ele>
        <time>2014-06-30T16:24:28Z</time>
      </trkpt>
      <trkpt lat="40.871450" lon="-4.184967">
        <ele>1400.0</ele>
        <time>2014-06-30T16:24:29Z</time>
      </trkpt>
      <trkpt lat="40.871483" lon="-4.184917">
        <ele>1400.0</ele>
        <time>2014-06-30T16:24:30Z</time>
      </trkpt>
      <trkpt lat="40.871517" lon="-4.184850">
        <ele>1400.0</ele>
        <time>2014-06-30T16:24:31Z</time>
      </trkpt>
      <trkpt lat="40.871533" lon="-4.184817">
        <ele>1400.0</ele>
        <time>2014-06-30T16:24:32Z</time>
      </trkpt>
      <trkpt lat="40.871567" lon="-4.184800">
        <ele>1400.0</ele>
        <time>2014-06-30T16:24:33Z</time>
      </trkpt>
      <trkpt lat="40.871583" lon="-4.184800">
        <ele>1399.0</ele>
        <time>2014-06-30T16:24:34Z</time>
      </trkpt>
      <trkpt lat="40.871583" lon="-4.184800">
        <ele>1399.0</ele>
        <time>2014-06-30T16:24:35Z</time>
      </trkpt>
      <trkpt lat="40.871567" lon="-4.184833">
        <ele>1399.0</ele>
        <time>2014-06-30T16:24:36Z</time>
      </trkpt>
      <trkpt lat="40.871500" lon="-4.184833">
        <ele>1398.0</ele>
        <time>2014-06-30T16:24:37Z</time>
      </trkpt>
      <trkpt lat="40.871417" lon="-4.184800">
        <ele>1398.0</ele>
        <time>2014-06-30T16:24:38Z</time>
      </trkpt>
      <trkpt lat="40.871300" lon="-4.184733">
        <ele>1397.0</ele>
        <time>2014-06-30T16:24:39Z</time>
      </trkpt>
      <trkpt lat="40.871217" lon="-4.184617">
        <ele>1396.0</ele>
        <time>2014-06-30T16:24:40Z</time>
      </trkpt>
      <trkpt lat="40.871133" lon="-4.184467">
        <ele>1395.0</ele>
        <time>2014-06-30T16:24:41Z</time>
      </trkpt>
      <trkpt lat="40.871083" lon="-4.184317">
        <ele>1394.0</ele>
        <time>2014-06-30T16:24:42Z</time>
      </trkpt>
      <trkpt lat="40.871033" lon="-4.184150">
        <ele>1394.0</ele>
        <time>2014-06-30T16:24:43Z</time>
      </trkpt>
      <trkpt lat="40.870983" lon="-4.184017">
        <ele>1394.0</ele>
        <time>2014-06-30T16:24:44Z</time>
      </trkpt>
      <trkpt lat="40.870950" lon="-4.183867">
        <ele>1394.0</ele>
        <time>2014-06-30T16:24:45Z</time>
      </trkpt>
      <trkpt lat="40.870933" lon="-4.183717">
        <ele>1392.0</ele>
        <time>2014-06-30T16:24:46Z</time>
      </trkpt>
      <trkpt lat="40.870917" lon="-4.183567">
        <ele>1392.0</ele>
        <time>2014-06-30T16:24:47Z</time>
      </trkpt>
      <trkpt lat="40.870933" lon="-4.183417">
        <ele>1390.0</ele>
        <time>2014-06-30T16:24:48Z</time>
      </trkpt>
      <trkpt lat="40.870967" lon="-4.183283">
        <ele>1390.0</ele>
        <time>2014-06-30T16:24:49Z</time>
      </trkpt>
      <trkpt lat="40.871017" lon="-4.183183">
        <ele>1388.0</ele>
        <time>2014-06-30T16:24:50Z</time>
      </trkpt>
      <trkpt lat="40.871067" lon="-4.183100">
        <ele>1385.0</ele>
        <time>2014-06-30T16:24:51Z</time>
      </trkpt>
      <trkpt lat="40.871150" lon="-4.183033">
        <ele>1388.0</ele>
        <time>2014-06-30T16:24:52Z</time>
      </trkpt>
      <trkpt lat="40.871233" lon="-4.182950">
        <ele>1387.0</ele>
        <time>2014-06-30T16:24:53Z</time>
      </trkpt>
      <trkpt lat="40.871317" lon="-4.182867">
        <ele>1386.0</ele>
        <time>2014-06-30T16:24:54Z</time>
      </trkpt>
      <trkpt lat="40.871383" lon="-4.182800">
        <ele>1385.0</ele>
        <time>2014-06-30T16:24:55Z</time>
      </trkpt>
      <trkpt lat="40.871450" lon="-4.182750">
        <ele>1383.0</ele>
        <time>2014-06-30T16:24:56Z</time>
      </trkpt>
      <trkpt lat="40.871533" lon="-4.182717">
        <ele>1380.0</ele>
        <time>2014-06-30T16:24:57Z</time>
      </trkpt>
      <trkpt lat="40.871617" lon="-4.182667">
        <ele>1376.0</ele>
        <time>2014-06-30T16:24:58Z</time>
      </trkpt>
      <trkpt lat="40.871700" lon="-4.182617">
        <ele>1375.0</ele>
        <time>2014-06-30T16:24:59Z</time>
      </trkpt>
      <trkpt lat="40.871783" lon="-4.182567">
        <ele>1375.0</ele>
        <time>2014-06-30T16:25:00Z</time>
      </trkpt>
      <trkpt lat="40.871867" lon="-4.182533">
        <ele>1374.0</ele>
        <time>2014-06-30T16:25:01Z</time>
      </trkpt>
      <trkpt lat="40.871933" lon="-4.182533">
        <ele>1373.0</ele>
        <time>2014-06-30T16:25:02Z</time>
      </trkpt>
      <trkpt lat="40.872017" lon="-4.182550">
        <ele>1373.0</ele>
        <time>2014-06-30T16:25:03Z</time>
      </trkpt>
      <trkpt lat="40.872100" lon="-4.182550">
        <ele>1372.0</ele>
        <time>2014-06-30T16:25:04Z</time>
      </trkpt>
      <trkpt lat="40.872183" lon="-4.182550">
        <ele>1372.0</ele>
        <time>2014-06-30T16:25:05Z</time>
      </trkpt>
      <trkpt lat="40.872283" lon="-4.182517">
        <ele>1372.0</ele>
        <time>2014-06-30T16:25:06Z</time>
      </trkpt>
      <trkpt lat="40.872367" lon="-4.182500">
        <ele>1372.0</ele>
        <time>2014-06-30T16:25:07Z</time>
      </trkpt>
      <trkpt lat="40.872450" lon="-4.182500">
        <ele>1373.0</ele>
        <time>2014-06-30T16:25:08Z</time>
      </trkpt>
      <trkpt lat="40.872533" lon="-4.182483">
        <ele>1372.0</ele>
        <time>2014-06-30T16:25:09Z</time>
      </trkpt>
      <trkpt lat="40.872633" lon="-4.182450">
        <ele>1372.0</ele>
        <time>2014-06-30T16:25:10Z</time>
      </trkpt>
      <trkpt lat="40.872733" lon="-4.182433">
        <ele>1372.0</ele>
        <time>2014-06-30T16:25:11Z</time>
      </trkpt>
      <trkpt lat="40.872850" lon="-4.182400">
        <ele>1372.0</ele>
        <time>2014-06-30T16:25:12Z</time>
      </trkpt>
      <trkpt lat="40.872933" lon="-4.182417">
        <ele>1374.0</ele>
        <time>2014-06-30T16:25:13Z</time>
      </trkpt>
      <trkpt lat="40.873017" lon="-4.182433">
        <ele>1375.0</ele>
        <time>2014-06-30T16:25:14Z</time>
      </trkpt>
      <trkpt lat="40.873100" lon="-4.182450">
        <ele>1376.0</ele>
        <time>2014-06-30T16:25:15Z</time>
      </trkpt>
      <trkpt lat="40.873167" lon="-4.182433">
        <ele>1377.0</ele>
        <time>2014-06-30T16:25:16Z</time>
      </trkpt>
      <trkpt lat="40.873217" lon="-4.182400">
        <ele>1379.0</ele>
        <time>2014-06-30T16:25:17Z</time>
      </trkpt>
      <trkpt lat="40.873283" lon="-4.182383">
        <ele>1379.0</ele>
        <time>2014-06-30T16:25:18Z</time>
      </trkpt>
      <trkpt lat="40.873350" lon="-4.182383">
        <ele>1380.0</ele>
        <time>2014-06-30T16:25:19Z</time>
      </trkpt>
      <trkpt lat="40.873417" lon="-4.182383">
        <ele>1381.0</ele>
        <time>2014-06-30T16:25:20Z</time>
      </trkpt>
      <trkpt lat="40.873483" lon="-4.182383">
        <ele>1382.0</ele>
        <time>2014-06-30T16:25:21Z</time>
      </trkpt>
      <trkpt lat="40.873550" lon="-4.182383">
        <ele>1383.0</ele>
        <time>2014-06-30T16:25:22Z</time>
      </trkpt>
      <trkpt lat="40.873600" lon="-4.182367">
        <ele>1385.0</ele>
        <time>2014-06-30T16:25:23Z</time>
      </trkpt>
      <trkpt lat="40.873650" lon="-4.182350">
        <ele>1387.0</ele>
        <time>2014-06-30T16:25:24Z</time>
      </trkpt>
      <trkpt lat="40.873700" lon="-4.182333">
        <ele>1389.0</ele>
        <time>2014-06-30T16:25:25Z</time>
      </trkpt>
      <trkpt lat="40.873750" lon="-4.182333">
        <ele>1391.0</ele>
        <time>2014-06-30T16:25:26Z</time>
      </trkpt>
      <trkpt lat="40.873817" lon="-4.182317">
        <ele>1393.0</ele>
        <time>2014-06-30T16:25:27Z</time>
      </trkpt>
      <trkpt lat="40.873867" lon="-4.182317">
        <ele>1398.0</ele>
        <time>2014-06-30T16:25:28Z</time>
      </trkpt>
      <trkpt lat="40.873917" lon="-4.182317">
        <ele>1402.0</ele>
        <time>2014-06-30T16:25:29Z</time>
      </trkpt>
      <trkpt lat="40.873967" lon="-4.182333">
        <ele>1405.0</ele>
        <time>2014-06-30T16:25:30Z</time>
      </trkpt>
      <trkpt lat="40.874017" lon="-4.182333">
        <ele>1408.0</ele>
        <time>2014-06-30T16:25:31Z</time>
      </trkpt>
      <trkpt lat="40.874067" lon="-4.182350">
        <ele>1412.0</ele>
        <time>2014-06-30T16:25:32Z</time>
      </trkpt>
      <trkpt lat="40.874117" lon="-4.182383">
        <ele>1415.0</ele>
        <time>2014-06-30T16:25:33Z</time>
      </trkpt>
      <trkpt lat="40.874167" lon="-4.182383">
        <ele>1419.0</ele>
        <time>2014-06-30T16:25:34Z</time>
      </trkpt>
      <trkpt lat="40.874200" lon="-4.182400">
        <ele>1423.0</ele>
        <time>2014-06-30T16:25:35Z</time>
      </trkpt>
      <trkpt lat="40.874217" lon="-4.182400">
        <ele>1427.0</ele>
        <time>2014-06-30T16:25:36Z</time>
      </trkpt>
      <trkpt lat="40.874233" lon="-4.182400">
        <ele>1431.0</ele>
        <time>2014-06-30T16:25:37Z</time>
      </trkpt>
      <trkpt lat="40.874250" lon="-4.182417">
        <ele>1433.0</ele>
        <time>2014-06-30T16:25:38Z</time>
      </trkpt>
      <trkpt lat="40.874267" lon="-4.182450">
        <ele>1434.0</ele>
        <time>2014-06-30T16:25:39Z</time>
      </trkpt>
      <trkpt lat="40.874283" lon="-4.182483">
        <ele>1437.0</ele>
        <time>2014-06-30T16:25:40Z</time>
      </trkpt>
      <trkpt lat="40.874283" lon="-4.182533">
        <ele>1440.0</ele>
        <time>2014-06-30T16:25:41Z</time>
      </trkpt>
      <trkpt lat="40.874250" lon="-4.182567">
        <ele>1443.0</ele>
        <time>2014-06-30T16:25:42Z</time>
      </trkpt>
      <trkpt lat="40.874167" lon="-4.182600">
        <ele>1446.0</ele>
        <time>2014-06-30T16:25:43Z</time>
      </trkpt>
      <trkpt lat="40.874050" lon="-4.182567">
        <ele>1448.0</ele>
        <time>2014-06-30T16:25:44Z</time>
      </trkpt>
      <trkpt lat="40.873933" lon="-4.182483">
        <ele>1450.0</ele>
        <time>2014-06-30T16:25:45Z</time>
      </trkpt>
      <trkpt lat="40.873833" lon="-4.182350">
        <ele>1453.0</ele>
        <time>2014-06-30T16:25:46Z</time>
      </trkpt>
      <trkpt lat="40.873783" lon="-4.182183">
        <ele>1456.0</ele>
        <time>2014-06-30T16:25:47Z</time>
      </trkpt>
      <trkpt lat="40.873783" lon="-4.182017">
        <ele>1459.0</ele>
        <time>2014-06-30T16:25:48Z</time>
      </trkpt>
      <trkpt lat="40.873800" lon="-4.181900">
        <ele>1462.0</ele>
        <time>2014-06-30T16:25:49Z</time>
      </trkpt>
      <trkpt lat="40.873833" lon="-4.181800">
        <ele>1465.0</ele>
        <time>2014-06-30T16:25:50Z</time>
      </trkpt>
      <trkpt lat="40.873850" lon="-4.181717">
        <ele>1469.0</ele>
        <time>2014-06-30T16:25:51Z</time>
      </trkpt>
      <trkpt lat="40.873883" lon="-4.181650">
        <ele>1471.0</ele>
        <time>2014-06-30T16:25:52Z</time>
      </trkpt>
      <trkpt lat="40.873933" lon="-4.181600">
        <ele>1473.0</ele>
        <time>2014-06-30T16:25:53Z</time>
      </trkpt>
      <trkpt lat="40.873983" lon="-4.181567">
        <ele>1475.0</ele>
        <time>2014-06-30T16:25:54Z</time>
      </trkpt>
      <trkpt lat="40.874017" lon="-4.181583">
        <ele>1477.0</ele>
        <time>2014-06-30T16:25:55Z</time>
      </trkpt>
      <trkpt lat="40.874050" lon="-4.181617">
        <ele>1481.0</ele>
        <time>2014-06-30T16:25:56Z</time>
      </trkpt>
      <trkpt lat="40.874050" lon="-4.181650">
        <ele>1485.0</ele>
        <time>2014-06-30T16:25:57Z</time>
      </trkpt>
      <trkpt lat="40.874033" lon="-4.181700">
        <ele>1488.0</ele>
        <time>2014-06-30T16:25:58Z</time>
      </trkpt>
      <trkpt lat="40.874000" lon="-4.181717">
        <ele>1490.0</ele>
        <time>2014-06-30T16:25:59Z</time>
      </trkpt>
      <trkpt lat="40.873950" lon="-4.181750">
        <ele>1493.0</ele>
        <time>2014-06-30T16:26:00Z</time>
      </trkpt>
      <trkpt lat="40.873917" lon="-4.181767">
        <ele>1489.0</ele>
        <time>2014-06-30T16:26:01Z</time>
      </trkpt>
      <trkpt lat="40.873850" lon="-4.181783">
        <ele>1491.0</ele>
        <time>2014-06-30T16:26:02Z</time>
      </trkpt>
      <trkpt lat="40.873783" lon="-4.181783">
        <ele>1493.0</ele>
        <time>2014-06-30T16:26:03Z</time>
      </trkpt>
      <trkpt lat="40.873683" lon="-4.181783">
        <ele>1496.0</ele>
        <time>2014-06-30T16:26:04Z</time>
      </trkpt>
      <trkpt lat="40.873567" lon="-4.181733">
        <ele>1501.0</ele>
        <time>2014-06-30T16:26:05Z</time>
      </trkpt>
      <trkpt lat="40.873483" lon="-4.181667">
        <ele>1504.0</ele>
        <time>2014-06-30T16:26:06Z</time>
      </trkpt>
      <trkpt lat="40.873383" lon="-4.181583">
        <ele>1508.0</ele>
        <time>2014-06-30T16:26:07Z</time>
      </trkpt>
      <trkpt lat="40.873300" lon="-4.181467">
        <ele>1512.0</ele>
        <time>2014-06-30T16:26:08Z</time>
      </trkpt>
      <trkpt lat="40.873250" lon="-4.181317">
        <ele>1517.0</ele>
        <time>2014-06-30T16:26:09Z</time>
      </trkpt>
      <trkpt lat="40.873200" lon="-4.181183">
        <ele>1521.0</ele>
        <time>2014-06-30T16:26:10Z</time>
      </trkpt>
      <trkpt lat="40.873167" lon="-4.181050">
        <ele>1525.0</ele>
        <time>2014-06-30T16:26:11Z</time>
      </trkpt>
      <trkpt lat="40.873150" lon="-4.180917">
        <ele>1528.0</ele>
        <time>2014-06-30T16:26:12Z</time>
      </trkpt>
      <trkpt lat="40.873133" lon="-4.180800">
        <ele>1532.0</ele>
        <time>2014-06-30T16:26:13Z</time>
      </trkpt>
      <trkpt lat="40.873150" lon="-4.180683">
        <ele>1535.0</ele>
        <time>2014-06-30T16:26:14Z</time>
      </trkpt>
      <trkpt lat="40.873200" lon="-4.180583">
        <ele>1537.0</ele>
        <time>2014-06-30T16:26:15Z</time>
      </trkpt>
      <trkpt lat="40.873267" lon="-4.180517">
        <ele>1540.0</ele>
        <time>2014-06-30T16:26:16Z</time>
      </trkpt>
      <trkpt lat="40.873333" lon="-4.180483">
        <ele>1544.0</ele>
        <time>2014-06-30T16:26:17Z</time>
      </trkpt>
      <trkpt lat="40.873367" lon="-4.180500">
        <ele>1547.0</ele>
        <time>2014-06-30T16:26:18Z</time>
      </trkpt>
      <trkpt lat="40.873400" lon="-4.180517">
        <ele>1552.0</ele>
        <time>2014-06-30T16:26:19Z</time>
      </trkpt>
      <trkpt lat="40.873417" lon="-4.180533">
        <ele>1556.0</ele>
        <time>2014-06-30T16:26:20Z</time>
      </trkpt>
      <trkpt lat="40.873433" lon="-4.180533">
        <ele>1560.0</ele>
        <time>2014-06-30T16:26:21Z</time>
      </trkpt>
      <trkpt lat="40.873433" lon="-4.180550">
        <ele>1550.0</ele>
        <time>2014-06-30T16:26:22Z</time>
      </trkpt>
      <trkpt lat="40.873433" lon="-4.180583">
        <ele>1551.0</ele>
        <time>2014-06-30T16:26:23Z</time>
      </trkpt>
      <trkpt lat="40.873400" lon="-4.180617">
        <ele>1552.0</ele>
        <time>2014-06-30T16:26:24Z</time>
      </trkpt>
      <trkpt lat="40.873333" lon="-4.180650">
        <ele>1554.0</ele>
        <time>2014-06-30T16:26:25Z</time>
      </trkpt>
      <trkpt lat="40.873250" lon="-4.180633">
        <ele>1557.0</ele>
        <time>2014-06-30T16:26:26Z</time>
      </trkpt>
      <trkpt lat="40.873150" lon="-4.180583">
        <ele>1560.0</ele>
        <time>2014-06-30T16:26:27Z</time>
      </trkpt>
      <trkpt lat="40.873067" lon="-4.180500">
        <ele>1563.0</ele>
        <time>2014-06-30T16:26:28Z</time>
      </trkpt>
      <trkpt lat="40.872983" lon="-4.180367">
        <ele>1567.0</ele>
        <time>2014-06-30T16:26:29Z</time>
      </trkpt>
      <trkpt lat="40.872933" lon="-4.180233">
        <ele>1571.0</ele>
        <time>2014-06-30T16:26:30Z</time>
      </trkpt>
      <trkpt lat="40.872917" lon="-4.180100">
        <ele>1575.0</ele>
        <time>2014-06-30T16:26:31Z</time>
      </trkpt>
      <trkpt lat="40.872900" lon="-4.179967">
        <ele>1579.0</ele>
        <time>2014-06-30T16:26:32Z</time>
      </trkpt>
      <trkpt lat="40.872917" lon="-4.179850">
        <ele>1583.0</ele>
        <time>2014-06-30T16:26:33Z</time>
      </trkpt>
      <trkpt lat="40.872950" lon="-4.179733">
        <ele>1586.0</ele>
        <time>2014-06-30T16:26:34Z</time>
      </trkpt>
      <trkpt lat="40.873000" lon="-4.179633">
        <ele>1589.0</ele>
        <time>2014-06-30T16:26:35Z</time>
      </trkpt>
      <trkpt lat="40.873050" lon="-4.179567">
        <ele>1592.0</ele>
        <time>2014-06-30T16:26:36Z</time>
      </trkpt>
      <trkpt lat="40.873117" lon="-4.179550">
        <ele>1596.0</ele>
        <time>2014-06-30T16:26:37Z</time>
      </trkpt>
      <trkpt lat="40.873167" lon="-4.179550">
        <ele>1600.0</ele>
        <time>2014-06-30T16:26:38Z</time>
      </trkpt>
      <trkpt lat="40.873200" lon="-4.179567">
        <ele>1606.0</ele>
        <time>2014-06-30T16:26:39Z</time>
      </trkpt>
      <trkpt lat="40.873233" lon="-4.179583">
        <ele>1611.0</ele>
        <time>2014-06-30T16:26:40Z</time>
      </trkpt>
      <trkpt lat="40.873267" lon="-4.179583">
        <ele>1603.0</ele>
        <time>2014-06-30T16:26:41Z</time>
      </trkpt>
      <trkpt lat="40.873283" lon="-4.179617">
        <ele>1606.0</ele>
        <time>2014-06-30T16:26:42Z</time>
      </trkpt>
      <trkpt lat="40.873283" lon="-4.179650">
        <ele>1608.0</ele>
        <time>2014-06-30T16:26:43Z</time>
      </trkpt>
      <trkpt lat="40.873283" lon="-4.179700">
        <ele>1611.0</ele>
        <time>2014-06-30T16:26:44Z</time>
      </trkpt>
      <trkpt lat="40.873250" lon="-4.179750">
        <ele>1614.0</ele>
        <time>2014-06-30T16:26:45Z</time>
      </trkpt>
      <trkpt lat="40.873200" lon="-4.179783">
        <ele>1618.0</ele>
        <time>2014-06-30T16:26:46Z</time>
      </trkpt>
      <trkpt lat="40.873117" lon="-4.179800">
        <ele>1621.0</ele>
        <time>2014-06-30T16:26:47Z</time>
      </trkpt>
      <trkpt lat="40.873033" lon="-4.179767">
        <ele>1624.0</ele>
        <time>2014-06-30T16:26:48Z</time>
      </trkpt>
      <trkpt lat="40.872933" lon="-4.179683">
        <ele>1627.0</ele>
        <time>2014-06-30T16:26:49Z</time>
      </trkpt>
      <trkpt lat="40.872850" lon="-4.179550">
        <ele>1631.0</ele>
        <time>2014-06-30T16:26:50Z</time>
      </trkpt>
      <trkpt lat="40.872817" lon="-4.179383">
        <ele>1634.0</ele>
        <time>2014-06-30T16:26:51Z</time>
      </trkpt>
      <trkpt lat="40.872833" lon="-4.179217">
        <ele>1636.0</ele>
        <time>2014-06-30T16:26:52Z</time>
      </trkpt>
      <trkpt lat="40.872883" lon="-4.179083">
        <ele>1640.0</ele>
        <time>2014-06-30T16:26:53Z</time>
      </trkpt>
      <trkpt lat="40.872950" lon="-4.179000">
        <ele>1645.0</ele>
        <time>2014-06-30T16:26:54Z</time>
      </trkpt>
      <trkpt lat="40.873017" lon="-4.178967">
        <ele>1649.0</ele>
        <time>2014-06-30T16:26:55Z</time>
      </trkpt>
      <trkpt lat="40.873083" lon="-4.178967">
        <ele>1654.0</ele>
        <time>2014-06-30T16:26:56Z</time>
      </trkpt>
      <trkpt lat="40.873133" lon="-4.179000">
        <ele>1658.0</ele>
        <time>2014-06-30T16:26:57Z</time>
      </trkpt>
      <trkpt lat="40.873183" lon="-4.179017">
        <ele>1653.0</ele>
        <time>2014-06-30T16:26:58Z</time>
      </trkpt>
      <trkpt lat="40.873217" lon="-4.179033">
        <ele>1655.0</ele>
        <time>2014-06-30T16:26:59Z</time>
      </trkpt>
      <trkpt lat="40.873233" lon="-4.179067">
        <ele>1658.0</ele>
        <time>2014-06-30T16:27:00Z</time>
      </trkpt>
      <trkpt lat="40.873233" lon="-4.179117">
        <ele>1660.0</ele>
        <time>2014-06-30T16:27:01Z</time>
      </trkpt>
      <trkpt lat="40.873233" lon="-4.179167">
        <ele>1662.0</ele>
        <time>2014-06-30T16:27:02Z</time>
      </trkpt>
      <trkpt lat="40.873183" lon="-4.179233">
        <ele>1663.0</ele>
        <time>2014-06-30T16:27:03Z</time>
      </trkpt>
      <trkpt lat="40.873100" lon="-4.179283">
        <ele>1665.0</ele>
        <time>2014-06-30T16:27:04Z</time>
      </trkpt>
      <trkpt lat="40.872983" lon="-4.179283">
        <ele>1666.0</ele>
        <time>2014-06-30T16:27:05Z</time>
      </trkpt>
      <trkpt lat="40.872883" lon="-4.179233">
        <ele>1669.0</ele>
        <time>2014-06-30T16:27:06Z</time>
      </trkpt>
      <trkpt lat="40.872783" lon="-4.179133">
        <ele>1671.0</ele>
        <time>2014-06-30T16:27:07Z</time>
      </trkpt>
      <trkpt lat="40.872700" lon="-4.179033">
        <ele>1674.0</ele>
        <time>2014-06-30T16:27:08Z</time>
      </trkpt>
      <trkpt lat="40.872633" lon="-4.178883">
        <ele>1677.0</ele>
        <time>2014-06-30T16:27:09Z</time>
      </trkpt>
      <trkpt lat="40.872600" lon="-4.178733">
        <ele>1681.0</ele>
        <time>2014-06-30T16:27:10Z</time>
      </trkpt>
      <trkpt lat="40.872583" lon="-4.178583">
        <ele>1684.0</ele>
        <time>2014-06-30T16:27:11Z</time>
      </trkpt>
      <trkpt lat="40.872600" lon="-4.178433">
        <ele>1687.0</ele>
        <time>2014-06-30T16:27:12Z</time>
      </trkpt>
      <trkpt lat="40.872633" lon="-4.178283">
        <ele>1690.0</ele>
        <time>2014-06-30T16:27:13Z</time>
      </trkpt>
      <trkpt lat="40.872667" lon="-4.178150">
        <ele>1693.0</ele>
        <time>2014-06-30T16:27:14Z</time>
      </trkpt>
      <trkpt lat="40.872717" lon="-4.178050">
        <ele>1696.0</ele>
        <time>2014-06-30T16:27:15Z</time>
      </trkpt>
      <trkpt lat="40.872767" lon="-4.177950">
        <ele>1699.0</ele>
        <time>2014-06-30T16:27:16Z</time>
      </trkpt>
      <trkpt lat="40.872817" lon="-4.177883">
        <ele>1702.0</ele>
        <time>2014-06-30T16:27:17Z</time>
      </trkpt>
      <trkpt lat="40.872883" lon="-4.177850">
        <ele>1705.0</ele>
        <time>2014-06-30T16:27:18Z</time>
      </trkpt>
      <trkpt lat="40.872933" lon="-4.177833">
        <ele>1708.0</ele>
        <time>2014-06-30T16:27:19Z</time>
      </trkpt>
      <trkpt lat="40.873000" lon="-4.177817">
        <ele>1710.0</ele>
        <time>2014-06-30T16:27:20Z</time>
      </trkpt>
      <trkpt lat="40.873033" lon="-4.177833">
        <ele>1712.0</ele>
        <time>2014-06-30T16:27:21Z</time>
      </trkpt>
      <trkpt lat="40.873067" lon="-4.177867">
        <ele>1714.0</ele>
        <time>2014-06-30T16:27:22Z</time>
      </trkpt>
      <trkpt lat="40.873083" lon="-4.177917">
        <ele>1716.0</ele>
        <time>2014-06-30T16:27:23Z</time>
      </trkpt>
      <trkpt lat="40.873083" lon="-4.177967">
        <ele>1718.0</ele>
        <time>2014-06-30T16:27:24Z</time>
      </trkpt>
      <trkpt lat="40.873067" lon="-4.178017">
        <ele>1720.0</ele>
        <time>2014-06-30T16:27:25Z</time>
      </trkpt>
      <trkpt lat="40.873033" lon="-4.178067">
        <ele>1721.0</ele>
        <time>2014-06-30T16:27:26Z</time>
      </trkpt>
      <trkpt lat="40.872983" lon="-4.178100">
        <ele>1723.0</ele>
        <time>2014-06-30T16:27:27Z</time>
      </trkpt>
      <trkpt lat="40.872917" lon="-4.178133">
        <ele>1723.0</ele>
        <time>2014-06-30T16:27:28Z</time>
      </trkpt>
      <trkpt lat="40.872833" lon="-4.178133">
        <ele>1724.0</ele>
        <time>2014-06-30T16:27:29Z</time>
      </trkpt>
      <trkpt lat="40.872733" lon="-4.178117">
        <ele>1725.0</ele>
        <time>2014-06-30T16:27:30Z</time>
      </trkpt>
      <trkpt lat="40.872633" lon="-4.178033">
        <ele>1726.0</ele>
        <time>2014-06-30T16:27:31Z</time>
      </trkpt>
      <trkpt lat="40.872567" lon="-4.177917">
        <ele>1727.0</ele>
        <time>2014-06-30T16:27:32Z</time>
      </trkpt>
      <trkpt lat="40.872533" lon="-4.177767">
        <ele>1728.0</ele>
        <time>2014-06-30T16:27:33Z</time>
      </trkpt>
      <trkpt lat="40.872533" lon="-4.177600">
        <ele>1729.0</ele>
        <time>2014-06-30T16:27:34Z</time>
      </trkpt>
      <trkpt lat="40.872550" lon="-4.177450">
        <ele>1731.0</ele>
        <time>2014-06-30T16:27:35Z</time>
      </trkpt>
      <trkpt lat="40.872600" lon="-4.177333">
        <ele>1733.0</ele>
        <time>2014-06-30T16:27:36Z</time>
      </trkpt>
      <trkpt lat="40.872633" lon="-4.177233">
        <ele>1736.0</ele>
        <time>2014-06-30T16:27:37Z</time>
      </trkpt>
      <trkpt lat="40.872667" lon="-4.177133">
        <ele>1738.0</ele>
        <time>2014-06-30T16:27:38Z</time>
      </trkpt>
      <trkpt lat="40.872717" lon="-4.177050">
        <ele>1739.0</ele>
        <time>2014-06-30T16:27:39Z</time>
      </trkpt>
      <trkpt lat="40.872783" lon="-4.176967">
        <ele>1735.0</ele>
        <time>2014-06-30T16:27:40Z</time>
      </trkpt>
      <trkpt lat="40.872833" lon="-4.176917">
        <ele>1736.0</ele>
        <time>2014-06-30T16:27:41Z</time>
      </trkpt>
      <trkpt lat="40.872917" lon="-4.176883">
        <ele>1738.0</ele>
        <time>2014-06-30T16:27:42Z</time>
      </trkpt>
      <trkpt lat="40.872967" lon="-4.176900">
        <ele>1740.0</ele>
        <time>2014-06-30T16:27:43Z</time>
      </trkpt>
      <trkpt lat="40.873000" lon="-4.176917">
        <ele>1742.0</ele>
        <time>2014-06-30T16:27:44Z</time>
      </trkpt>
      <trkpt lat="40.873000" lon="-4.176967">
        <ele>1744.0</ele>
        <time>2014-06-30T16:27:45Z</time>
      </trkpt>
      <trkpt lat="40.872983" lon="-4.177000">
        <ele>1746.0</ele>
        <time>2014-06-30T16:27:46Z</time>
      </trkpt>
      <trkpt lat="40.872967" lon="-4.177050">
        <ele>1748.0</ele>
        <time>2014-06-30T16:27:47Z</time>
      </trkpt>
      <trkpt lat="40.872933" lon="-4.177100">
        <ele>1749.0</ele>
        <time>2014-06-30T16:27:48Z</time>
      </trkpt>
      <trkpt lat="40.872917" lon="-4.177133">
        <ele>1751.0</ele>
        <time>2014-06-30T16:27:49Z</time>
      </trkpt>
      <trkpt lat="40.872867" lon="-4.177183">
        <ele>1753.0</ele>
        <time>2014-06-30T16:27:50Z</time>
      </trkpt>
      <trkpt lat="40.872783" lon="-4.177183">
        <ele>1755.0</ele>
        <time>2014-06-30T16:27:51Z</time>
      </trkpt>
      <trkpt lat="40.872683" lon="-4.177167">
        <ele>1756.0</ele>
        <time>2014-06-30T16:27:52Z</time>
      </trkpt>
      <trkpt lat="40.872583" lon="-4.177100">
        <ele>1758.0</ele>
        <time>2014-06-30T16:27:53Z</time>
      </trkpt>
      <trkpt lat="40.872500" lon="-4.177017">
        <ele>1759.0</ele>
        <time>2014-06-30T16:27:54Z</time>
      </trkpt>
      <trkpt lat="40.872433" lon="-4.176900">
        <ele>1760.0</ele>
        <time>2014-06-30T16:27:55Z</time>
      </trkpt>
      <trkpt lat="40.872367" lon="-4.176767">
        <ele>1762.0</ele>
        <time>2014-06-30T16:27:56Z</time>
      </trkpt>
      <trkpt lat="40.872333" lon="-4.176617">
        <ele>1764.0</ele>
        <time>2014-06-30T16:27:57Z</time>
      </trkpt>
      <trkpt lat="40.872317" lon="-4.176467">
        <ele>1766.0</ele>
        <time>2014-06-30T16:27:58Z</time>
      </trkpt>
      <trkpt lat="40.872317" lon="-4.176317">
        <ele>1768.0</ele>
        <time>2014-06-30T16:27:59Z</time>
      </trkpt>
      <trkpt lat="40.872333" lon="-4.176200">
        <ele>1771.0</ele>
        <time>2014-06-30T16:28:00Z</time>
      </trkpt>
      <trkpt lat="40.872400" lon="-4.176100">
        <ele>1773.0</ele>
        <time>2014-06-30T16:28:01Z</time>
      </trkpt>
      <trkpt lat="40.872450" lon="-4.176000">
        <ele>1766.0</ele>
        <time>2014-06-30T16:28:02Z</time>
      </trkpt>
      <trkpt lat="40.872500" lon="-4.175917">
        <ele>1768.0</ele>
        <time>2014-06-30T16:28:03Z</time>
      </trkpt>
      <trkpt lat="40.872567" lon="-4.175833">
        <ele>1769.0</ele>
        <time>2014-06-30T16:28:04Z</time>
      </trkpt>
      <trkpt lat="40.872633" lon="-4.175783">
        <ele>1771.0</ele>
        <time>2014-06-30T16:28:05Z</time>
      </trkpt>
      <trkpt lat="40.872683" lon="-4.175767">
        <ele>1773.0</ele>
        <time>2014-06-30T16:28:06Z</time>
      </trkpt>
      <trkpt lat="40.872717" lon="-4.175767">
        <ele>1775.0</ele>
        <time>2014-06-30T16:28:07Z</time>
      </trkpt>
      <trkpt lat="40.872750" lon="-4.175800">
        <ele>1776.0</ele>
        <time>2014-06-30T16:28:08Z</time>
      </trkpt>
      <trkpt lat="40.872750" lon="-4.175833">
        <ele>1778.0</ele>
        <time>2014-06-30T16:28:09Z</time>
      </trkpt>
      <trkpt lat="40.872750" lon="-4.175883">
        <ele>1779.0</ele>
        <time>2014-06-30T16:28:10Z</time>
      </trkpt>
      <trkpt lat="40.872733" lon="-4.175933">
        <ele>1781.0</ele>
        <time>2014-06-30T16:28:11Z</time>
      </trkpt>
      <trkpt lat="40.872683" lon="-4.176000">
        <ele>1782.0</ele>
        <time>2014-06-30T16:28:12Z</time>
      </trkpt>
      <trkpt lat="40.872633" lon="-4.176033">
        <ele>1784.0</ele>
        <time>2014-06-30T16:28:13Z</time>
      </trkpt>
      <trkpt lat="40.872567" lon="-4.176067">
        <ele>1785.0</ele>
        <time>2014-06-30T16:28:14Z</time>
      </trkpt>
      <trkpt lat="40.872483" lon="-4.176050">
        <ele>1787.0</ele>
        <time>2014-06-30T16:28:15Z</time>
      </trkpt>
      <trkpt lat="40.872400" lon="-4.176033">
        <ele>1789.0</ele>
        <time>2014-06-30T16:28:16Z</time>
      </trkpt>
      <trkpt lat="40.872333" lon="-4.175967">
        <ele>1791.0</ele>
        <time>2014-06-30T16:28:17Z</time>
      </trkpt>
      <trkpt lat="40.872250" lon="-4.175883">
        <ele>1793.0</ele>
        <time>2014-06-30T16:28:18Z</time>
      </trkpt>
      <trkpt lat="40.872183" lon="-4.175783">
        <ele>1794.0</ele>
        <time>2014-06-30T16:28:19Z</time>
      </trkpt>
      <trkpt lat="40.872133" lon="-4.175650">
        <ele>1796.0</ele>
        <time>2014-06-30T16:28:20Z</time>
      </trkpt>
      <trkpt lat="40.872100" lon="-4.175517">
        <ele>1798.0</ele>
        <time>2014-06-30T16:28:21Z</time>
      </trkpt>
      <trkpt lat="40.872083" lon="-4.175383">
        <ele>1800.0</ele>
        <time>2014-06-30T16:28:22Z</time>
      </trkpt>
      <trkpt lat="40.872067" lon="-4.175250">
        <ele>1802.0</ele>
        <time>2014-06-30T16:28:23Z</time>
      </trkpt>
      <trkpt lat="40.872083" lon="-4.175117">
        <ele>1804.0</ele>
        <time>2014-06-30T16:28:24Z</time>
      </trkpt>
      <trkpt lat="40.872117" lon="-4.175000">
        <ele>1806.0</ele>
        <time>2014-06-30T16:28:25Z</time>
      </trkpt>
      <trkpt lat="40.872183" lon="-4.174917">
        <ele>1807.0</ele>
        <time>2014-06-30T16:28:26Z</time>
      </trkpt>
      <trkpt lat="40.872250" lon="-4.174850">
        <ele>1808.0</ele>
        <time>2014-06-30T16:28:27Z</time>
      </trkpt>
      <trkpt lat="40.872333" lon="-4.174817">
        <ele>1809.0</ele>
        <time>2014-06-30T16:28:28Z</time>
      </trkpt>
      <trkpt lat="40.872383" lon="-4.174833">
        <ele>1811.0</ele>
        <time>2014-06-30T16:28:29Z</time>
      </trkpt>
      <trkpt lat="40.872417" lon="-4.174867">
        <ele>1813.0</ele>
        <time>2014-06-30T16:28:30Z</time>
      </trkpt>
      <trkpt lat="40.872433" lon="-4.174900">
        <ele>1815.0</ele>
        <time>2014-06-30T16:28:31Z</time>
      </trkpt>
      <trkpt lat="40.872433" lon="-4.174933">
        <ele>1816.0</ele>
        <time>2014-06-30T16:28:32Z</time>
      </trkpt>
      <trkpt lat="40.872433" lon="-4.174983">
        <ele>1817.0</ele>
        <time>2014-06-30T16:28:33Z</time>
      </trkpt>
      <trkpt lat="40.872417" lon="-4.175050">
        <ele>1817.0</ele>
        <time>2014-06-30T16:28:34Z</time>
      </trkpt>
      <trkpt lat="40.872367" lon="-4.175100">
        <ele>1817.0</ele>
        <time>2014-06-30T16:28:35Z</time>
      </trkpt>
      <trkpt lat="40.872283" lon="-4.175117">
        <ele>1817.0</ele>
        <time>2014-06-30T16:28:36Z</time>
      </trkpt>
      <trkpt lat="40.872200" lon="-4.175100">
        <ele>1818.0</ele>
        <time>2014-06-30T16:28:37Z</time>
      </trkpt>
      <trkpt lat="40.872100" lon="-4.175050">
        <ele>1817.0</ele>
        <time>2014-06-30T16:28:38Z</time>
      </trkpt>
      <trkpt lat="40.872017" lon="-4.174950">
        <ele>1818.0</ele>
        <time>2014-06-30T16:28:39Z</time>
      </trkpt>
      <trkpt lat="40.871967" lon="-4.174817">
        <ele>1819.0</ele>
        <time>2014-06-30T16:28:40Z</time>
      </trkpt>
      <trkpt lat="40.871950" lon="-4.174667">
        <ele>1820.0</ele>
        <time>2014-06-30T16:28:41Z</time>
      </trkpt>
      <trkpt lat="40.871967" lon="-4.174533">
        <ele>1822.0</ele>
        <time>2014-06-30T16:28:42Z</time>
      </trkpt>
      <trkpt lat="40.872017" lon="-4.174400">
        <ele>1823.0</ele>
        <time>2014-06-30T16:28:43Z</time>
      </trkpt>
      <trkpt lat="40.872083" lon="-4.174300">
        <ele>1824.0</ele>
        <time>2014-06-30T16:28:44Z</time>
      </trkpt>
      <trkpt lat="40.872133" lon="-4.174200">
        <ele>1826.0</ele>
        <time>2014-06-30T16:28:45Z</time>
      </trkpt>
      <trkpt lat="40.872183" lon="-4.174100">
        <ele>1827.0</ele>
        <time>2014-06-30T16:28:46Z</time>
      </trkpt>
      <trkpt lat="40.872217" lon="-4.174000">
        <ele>1829.0</ele>
        <time>2014-06-30T16:28:47Z</time>
      </trkpt>
      <trkpt lat="40.872267" lon="-4.173900">
        <ele>1829.0</ele>
        <time>2014-06-30T16:28:48Z</time>
      </trkpt>
      <trkpt lat="40.872333" lon="-4.173800">
        <ele>1830.0</ele>
        <time>2014-06-30T16:28:49Z</time>
      </trkpt>
      <trkpt lat="40.872400" lon="-4.173717">
        <ele>1830.0</ele>
        <time>2014-06-30T16:28:50Z</time>
      </trkpt>
      <trkpt lat="40.872467" lon="-4.173650">
        <ele>1832.0</ele>
        <time>2014-06-30T16:28:51Z</time>
      </trkpt>
      <trkpt lat="40.872533" lon="-4.173600">
        <ele>1833.0</ele>
        <time>2014-06-30T16:28:52Z</time>
      </trkpt>
      <trkpt lat="40.872600" lon="-4.173567">
        <ele>1834.0</ele>
        <time>2014-06-30T16:28:53Z</time>
      </trkpt>
      <trkpt lat="40.872650" lon="-4.173550">
        <ele>1834.0</ele>
        <time>2014-06-30T16:28:54Z</time>
      </trkpt>
      <trkpt lat="40.872700" lon="-4.173567">
        <ele>1834.0</ele>
        <time>2014-06-30T16:28:55Z</time>
      </trkpt>
      <trkpt lat="40.872750" lon="-4.173600">
        <ele>1835.0</ele>
        <time>2014-06-30T16:28:56Z</time>
      </trkpt>
      <trkpt lat="40.872767" lon="-4.173650">
        <ele>1835.0</ele>
        <time>2014-06-30T16:28:57Z</time>
      </trkpt>
      <trkpt lat="40.872783" lon="-4.173700">
        <ele>1836.0</ele>
        <time>2014-06-30T16:28:58Z</time>
      </trkpt>
      <trkpt lat="40.872767" lon="-4.173750">
        <ele>1836.0</ele>
        <time>2014-06-30T16:28:59Z</time>
      </trkpt>
      <trkpt lat="40.872733" lon="-4.173800">
        <ele>1836.0</ele>
        <time>2014-06-30T16:29:00Z</time>
      </trkpt>
      <trkpt lat="40.872700" lon="-4.173850">
        <ele>1836.0</ele>
        <time>2014-06-30T16:29:01Z</time>
      </trkpt>
      <trkpt lat="40.872633" lon="-4.173883">
        <ele>1835.0</ele>
        <time>2014-06-30T16:29:02Z</time>
      </trkpt>
      <trkpt lat="40.872567" lon="-4.173883">
        <ele>1835.0</ele>
        <time>2014-06-30T16:29:03Z</time>
      </trkpt>
      <trkpt lat="40.872467" lon="-4.173850">
        <ele>1834.0</ele>
        <time>2014-06-30T16:29:04Z</time>
      </trkpt>
      <trkpt lat="40.872383" lon="-4.173767">
        <ele>1832.0</ele>
        <time>2014-06-30T16:29:05Z</time>
      </trkpt>
      <trkpt lat="40.872333" lon="-4.173633">
        <ele>1831.0</ele>
        <time>2014-06-30T16:29:06Z</time>
      </trkpt>
      <trkpt lat="40.872300" lon="-4.173467">
        <ele>1829.0</ele>
        <time>2014-06-30T16:29:07Z</time>
      </trkpt>
      <trkpt lat="40.872300" lon="-4.173300">
        <ele>1829.0</ele>
        <time>2014-06-30T16:29:08Z</time>
      </trkpt>
      <trkpt lat="40.872350" lon="-4.173150">
        <ele>1828.0</ele>
        <time>2014-06-30T16:29:09Z</time>
      </trkpt>
      <trkpt lat="40.872400" lon="-4.173017">
        <ele>1828.0</ele>
        <time>2014-06-30T16:29:10Z</time>
      </trkpt>
      <trkpt lat="40.872450" lon="-4.172883">
        <ele>1828.0</ele>
        <time>2014-06-30T16:29:11Z</time>
      </trkpt>
      <trkpt lat="40.872500" lon="-4.172750">
        <ele>1828.0</ele>
        <time>2014-06-30T16:29:12Z</time>
      </trkpt>
      <trkpt lat="40.872550" lon="-4.172633">
        <ele>1827.0</ele>
        <time>2014-06-30T16:29:13Z</time>
      </trkpt>
      <trkpt lat="40.872600" lon="-4.172517">
        <ele>1827.0</ele>
        <time>2014-06-30T16:29:14Z</time>
      </trkpt>
      <trkpt lat="40.872667" lon="-4.172417">
        <ele>1827.0</ele>
        <time>2014-06-30T16:29:15Z</time>
      </trkpt>
      <trkpt lat="40.872733" lon="-4.172317">
        <ele>1826.0</ele>
        <time>2014-06-30T16:29:16Z</time>
      </trkpt>
      <trkpt lat="40.872800" lon="-4.172233">
        <ele>1825.0</ele>
        <time>2014-06-30T16:29:17Z</time>
      </trkpt>
      <trkpt lat="40.872883" lon="-4.172117">
        <ele>1825.0</ele>
        <time>2014-06-30T16:29:18Z</time>
      </trkpt>
      <trkpt lat="40.872967" lon="-4.172000">
        <ele>1824.0</ele>
        <time>2014-06-30T16:29:19Z</time>
      </trkpt>
      <trkpt lat="40.873050" lon="-4.171867">
        <ele>1823.0</ele>
        <time>2014-06-30T16:29:20Z</time>
      </trkpt>
      <trkpt lat="40.873100" lon="-4.171733">
        <ele>1822.0</ele>
        <time>2014-06-30T16:29:21Z</time>
      </trkpt>
      <trkpt lat="40.873167" lon="-4.171600">
        <ele>1820.0</ele>
        <time>2014-06-30T16:29:22Z</time>
      </trkpt>
      <trkpt lat="40.873217" lon="-4.171483">
        <ele>1819.0</ele>
        <time>2014-06-30T16:29:23Z</time>
      </trkpt>
      <trkpt lat="40.873267" lon="-4.171367">
        <ele>1818.0</ele>
        <time>2014-06-30T16:29:24Z</time>
      </trkpt>
      <trkpt lat="40.873333" lon="-4.171250">
        <ele>1816.0</ele>
        <time>2014-06-30T16:29:25Z</time>
      </trkpt>
      <trkpt lat="40.873383" lon="-4.171133">
        <ele>1815.0</ele>
        <time>2014-06-30T16:29:26Z</time>
      </trkpt>
      <trkpt lat="40.873417" lon="-4.171033">
        <ele>1813.0</ele>
        <time>2014-06-30T16:29:27Z</time>
      </trkpt>
      <trkpt lat="40.873450" lon="-4.170933">
        <ele>1817.0</ele>
        <time>2014-06-30T16:29:28Z</time>
      </trkpt>
      <trkpt lat="40.873500" lon="-4.170833">
        <ele>1815.0</ele>
        <time>2014-06-30T16:29:29Z</time>
      </trkpt>
      <trkpt lat="40.873567" lon="-4.170733">
        <ele>1815.0</ele>
        <time>2014-06-30T16:29:30Z</time>
      </trkpt>
      <trkpt lat="40.873650" lon="-4.170633">
        <ele>1814.0</ele>
        <time>2014-06-30T16:29:31Z</time>
      </trkpt>
      <trkpt lat="40.873733" lon="-4.170567">
        <ele>1812.0</ele>
        <time>2014-06-30T16:29:32Z</time>
      </trkpt>
      <trkpt lat="40.873800" lon="-4.170500">
        <ele>1812.0</ele>
        <time>2014-06-30T16:29:33Z</time>
      </trkpt>
      <trkpt lat="40.873867" lon="-4.170417">
        <ele>1811.0</ele>
        <time>2014-06-30T16:29:34Z</time>
      </trkpt>
      <trkpt lat="40.873933" lon="-4.170333">
        <ele>1810.0</ele>
        <time>2014-06-30T16:29:35Z</time>
      </trkpt>
      <trkpt lat="40.874017" lon="-4.170250">
        <ele>1808.0</ele>
        <time>2014-06-30T16:29:36Z</time>
      </trkpt>
      <trkpt lat="40.874083" lon="-4.170183">
        <ele>1808.0</ele>
        <time>2014-06-30T16:29:37Z</time>
      </trkpt>
      <trkpt lat="40.874150" lon="-4.170150">
        <ele>1808.0</ele>
        <time>2014-06-30T16:29:38Z</time>
      </trkpt>
      <trkpt lat="40.874217" lon="-4.170117">
        <ele>1808.0</ele>
        <time>2014-06-30T16:29:39Z</time>
      </trkpt>
      <trkpt lat="40.874267" lon="-4.170100">
        <ele>1807.0</ele>
        <time>2014-06-30T16:29:40Z</time>
      </trkpt>
      <trkpt lat="40.874333" lon="-4.170067">
        <ele>1806.0</ele>
        <time>2014-06-30T16:29:41Z</time>
      </trkpt>
      <trkpt lat="40.874400" lon="-4.170050">
        <ele>1804.0</ele>
        <time>2014-06-30T16:29:42Z</time>
      </trkpt>
      <trkpt lat="40.874483" lon="-4.170033">
        <ele>1801.0</ele>
        <time>2014-06-30T16:29:43Z</time>
      </trkpt>
      <trkpt lat="40.874583" lon="-4.170033">
        <ele>1800.0</ele>
        <time>2014-06-30T16:29:44Z</time>
      </trkpt>
      <trkpt lat="40.874667" lon="-4.170017">
        <ele>1799.0</ele>
        <time>2014-06-30T16:29:45Z</time>
      </trkpt>
      <trkpt lat="40.874733" lon="-4.169983">
        <ele>1798.0</ele>
        <time>2014-06-30T16:29:46Z</time>
      </trkpt>
      <trkpt lat="40.874800" lon="-4.169967">
        <ele>1796.0</ele>
        <time>2014-06-30T16:29:47Z</time>
      </trkpt>
      <trkpt lat="40.874883" lon="-4.169933">
        <ele>1793.0</ele>
        <time>2014-06-30T16:29:48Z</time>
      </trkpt>
      <trkpt lat="40.874983" lon="-4.169883">
        <ele>1790.0</ele>
        <time>2014-06-30T16:29:49Z</time>
      </trkpt>
      <trkpt lat="40.875083" lon="-4.169817">
        <ele>1786.0</ele>
        <time>2014-06-30T16:29:50Z</time>
      </trkpt>
      <trkpt lat="40.875167" lon="-4.169717">
        <ele>1783.0</ele>
        <time>2014-06-30T16:29:51Z</time>
      </trkpt>
      <trkpt lat="40.875250" lon="-4.169617">
        <ele>1780.0</ele>
        <time>2014-06-30T16:29:52Z</time>
      </trkpt>
      <trkpt lat="40.875317" lon="-4.169533">
        <ele>1777.0</ele>
        <time>2014-06-30T16:29:53Z</time>
      </trkpt>
      <trkpt lat="40.875400" lon="-4.169467">
        <ele>1774.0</ele>
        <time>2014-06-30T16:29:54Z</time>
      </trkpt>
      <trkpt lat="40.875483" lon="-4.169400">
        <ele>1769.0</ele>
        <time>2014-06-30T16:29:55Z</time>
      </trkpt>
      <trkpt lat="40.875567" lon="-4.169317">
        <ele>1765.0</ele>
        <time>2014-06-30T16:29:56Z</time>
      </trkpt>
      <trkpt lat="40.875667" lon="-4.169233">
        <ele>1761.0</ele>
        <time>2014-06-30T16:29:57Z</time>
      </trkpt>
      <trkpt lat="40.875767" lon="-4.169167">
        <ele>1757.0</ele>
        <time>2014-06-30T16:29:58Z</time>
      </trkpt>
      <trkpt lat="40.875850" lon="-4.169117">
        <ele>1752.0</ele>
        <time>2014-06-30T16:29:59Z</time>
      </trkpt>
      <trkpt lat="40.875917" lon="-4.169067">
        <ele>1748.0</ele>
        <time>2014-06-30T16:30:00Z</time>
      </trkpt>
      <trkpt lat="40.876017" lon="-4.169000">
        <ele>1743.0</ele>
        <time>2014-06-30T16:30:01Z</time>
      </trkpt>
      <trkpt lat="40.876133" lon="-4.168900">
        <ele>1738.0</ele>
        <time>2014-06-30T16:30:02Z</time>
      </trkpt>
      <trkpt lat="40.876250" lon="-4.168817">
        <ele>1733.0</ele>
        <time>2014-06-30T16:30:03Z</time>
      </trkpt>
      <trkpt lat="40.876350" lon="-4.168750">
        <ele>1729.0</ele>
        <time>2014-06-30T16:30:04Z</time>
      </trkpt>
      <trkpt lat="40.876433" lon="-4.168700">
        <ele>1726.0</ele>
        <time>2014-06-30T16:30:05Z</time>
      </trkpt>
      <trkpt lat="40.876500" lon="-4.168667">
        <ele>1723.0</ele>
        <time>2014-06-30T16:30:06Z</time>
      </trkpt>
      <trkpt lat="40.876583" lon="-4.168617">
        <ele>1720.0</ele>
        <time>2014-06-30T16:30:07Z</time>
      </trkpt>
      <trkpt lat="40.876683" lon="-4.168567">
        <ele>1716.0</ele>
        <time>2014-06-30T16:30:08Z</time>
      </trkpt>
      <trkpt lat="40.876783" lon="-4.168533">
        <ele>1713.0</ele>
        <time>2014-06-30T16:30:09Z</time>
      </trkpt>
      <trkpt lat="40.876883" lon="-4.168533">
        <ele>1711.0</ele>
        <time>2014-06-30T16:30:10Z</time>
      </trkpt>
      <trkpt lat="40.876967" lon="-4.168533">
        <ele>1711.0</ele>
        <time>2014-06-30T16:30:11Z</time>
      </trkpt>
      <trkpt lat="40.877017" lon="-4.168517">
        <ele>1710.0</ele>
        <time>2014-06-30T16:30:12Z</time>
      </trkpt>
      <trkpt lat="40.877033" lon="-4.168483">
        <ele>1715.0</ele>
        <time>2014-06-30T16:30:13Z</time>
      </trkpt>
      <trkpt lat="40.877067" lon="-4.168450">
        <ele>1715.0</ele>
        <time>2014-06-30T16:30:14Z</time>
      </trkpt>
      <trkpt lat="40.877117" lon="-4.168417">
        <ele>1714.0</ele>
        <time>2014-06-30T16:30:15Z</time>
      </trkpt>
      <trkpt lat="40.877200" lon="-4.168400">
        <ele>1713.0</ele>
        <time>2014-06-30T16:30:16Z</time>
      </trkpt>
      <trkpt lat="40.877283" lon="-4.168383">
        <ele>1711.0</ele>
        <time>2014-06-30T16:30:17Z</time>
      </trkpt>
      <trkpt lat="40.877383" lon="-4.168333">
        <ele>1709.0</ele>
        <time>2014-06-30T16:30:18Z</time>
      </trkpt>
      <trkpt lat="40.877450" lon="-4.168250">
        <ele>1708.0</ele>
        <time>2014-06-30T16:30:19Z</time>
      </trkpt>
      <trkpt lat="40.877533" lon="-4.168150">
        <ele>1707.0</ele>
        <time>2014-06-30T16:30:20Z</time>
      </trkpt>
      <trkpt lat="40.877600" lon="-4.168067">
        <ele>1705.0</ele>
        <time>2014-06-30T16:30:21Z</time>
      </trkpt>
      <trkpt lat="40.877667" lon="-4.168017">
        <ele>1701.0</ele>
        <time>2014-06-30T16:30:22Z</time>
      </trkpt>
      <trkpt lat="40.877750" lon="-4.168000">
        <ele>1697.0</ele>
        <time>2014-06-30T16:30:23Z</time>
      </trkpt>
      <trkpt lat="40.877850" lon="-4.167950">
        <ele>1694.0</ele>
        <time>2014-06-30T16:30:24Z</time>
      </trkpt>
      <trkpt lat="40.877933" lon="-4.167900">
        <ele>1690.0</ele>
        <time>2014-06-30T16:30:25Z</time>
      </trkpt>
      <trkpt lat="40.878017" lon="-4.167833">
        <ele>1687.0</ele>
        <time>2014-06-30T16:30:26Z</time>
      </trkpt>
      <trkpt lat="40.878100" lon="-4.167783">
        <ele>1684.0</ele>
        <time>2014-06-30T16:30:27Z</time>
      </trkpt>
      <trkpt lat="40.878183" lon="-4.167767">
        <ele>1681.0</ele>
        <time>2014-06-30T16:30:28Z</time>
      </trkpt>
      <trkpt lat="40.878233" lon="-4.167750">
        <ele>1678.0</ele>
        <time>2014-06-30T16:30:29Z</time>
      </trkpt>
      <trkpt lat="40.878317" lon="-4.167700">
        <ele>1684.0</ele>
        <time>2014-06-30T16:30:30Z</time>
      </trkpt>
      <trkpt lat="40.878383" lon="-4.167617">
        <ele>1683.0</ele>
        <time>2014-06-30T16:30:31Z</time>
      </trkpt>
      <trkpt lat="40.878467" lon="-4.167517">
        <ele>1681.0</ele>
        <time>2014-06-30T16:30:32Z</time>
      </trkpt>
      <trkpt lat="40.878533" lon="-4.167467">
        <ele>1679.0</ele>
        <time>2014-06-30T16:30:33Z</time>
      </trkpt>
      <trkpt lat="40.878617" lon="-4.167417">
        <ele>1676.0</ele>
        <time>2014-06-30T16:30:34Z</time>
      </trkpt>
      <trkpt lat="40.878683" lon="-4.167350">
        <ele>1677.0</ele>
        <time>2014-06-30T16:30:35Z</time>
      </trkpt>
      <trkpt lat="40.878767" lon="-4.167250">
        <ele>1675.0</ele>
        <time>2014-06-30T16:30:36Z</time>
      </trkpt>
      <trkpt lat="40.878833" lon="-4.167133">
        <ele>1674.0</ele>
        <time>2014-06-30T16:30:37Z</time>
      </trkpt>
      <trkpt lat="40.878933" lon="-4.167017">
        <ele>1671.0</ele>
        <time>2014-06-30T16:30:38Z</time>
      </trkpt>
      <trkpt lat="40.879017" lon="-4.166917">
        <ele>1669.0</ele>
        <time>2014-06-30T16:30:39Z</time>
      </trkpt>
      <trkpt lat="40.879117" lon="-4.166833">
        <ele>1667.0</ele>
        <time>2014-06-30T16:30:40Z</time>
      </trkpt>
      <trkpt lat="40.879217" lon="-4.166717">
        <ele>1666.0</ele>
        <time>2014-06-30T16:30:41Z</time>
      </trkpt>
      <trkpt lat="40.879300" lon="-4.166583">
        <ele>1663.0</ele>
        <time>2014-06-30T16:30:42Z</time>
      </trkpt>
      <trkpt lat="40.879400" lon="-4.166467">
        <ele>1661.0</ele>
        <time>2014-06-30T16:30:43Z</time>
      </trkpt>
      <trkpt lat="40.879500" lon="-4.166400">
        <ele>1659.0</ele>
        <time>2014-06-30T16:30:44Z</time>
      </trkpt>
      <trkpt lat="40.879600" lon="-4.166333">
        <ele>1656.0</ele>
        <time>2014-06-30T16:30:45Z</time>
      </trkpt>
      <trkpt lat="40.879683" lon="-4.166267">
        <ele>1653.0</ele>
        <time>2014-06-30T16:30:46Z</time>
      </trkpt>
      <trkpt lat="40.879767" lon="-4.166150">
        <ele>1650.0</ele>
        <time>2014-06-30T16:30:47Z</time>
      </trkpt>
      <trkpt lat="40.879867" lon="-4.166017">
        <ele>1648.0</ele>
        <time>2014-06-30T16:30:48Z</time>
      </trkpt>
      <trkpt lat="40.879967" lon="-4.165867">
        <ele>1645.0</ele>
        <time>2014-06-30T16:30:49Z</time>
      </trkpt>
      <trkpt lat="40.880067" lon="-4.165800">
        <ele>1644.0</ele>
        <time>2014-06-30T16:30:50Z</time>
      </trkpt>
      <trkpt lat="40.880150" lon="-4.165750">
        <ele>1643.0</ele>
        <time>2014-06-30T16:30:51Z</time>
      </trkpt>
      <trkpt lat="40.880217" lon="-4.165683">
        <ele>1642.0</ele>
        <time>2014-06-30T16:30:52Z</time>
      </trkpt>
      <trkpt lat="40.880267" lon="-4.165617">
        <ele>1643.0</ele>
        <time>2014-06-30T16:30:53Z</time>
      </trkpt>
      <trkpt lat="40.880300" lon="-4.165533">
        <ele>1643.0</ele>
        <time>2014-06-30T16:30:54Z</time>
      </trkpt>
      <trkpt lat="40.880350" lon="-4.165467">
        <ele>1643.0</ele>
        <time>2014-06-30T16:30:55Z</time>
      </trkpt>
      <trkpt lat="40.880400" lon="-4.165433">
        <ele>1643.0</ele>
        <time>2014-06-30T16:30:56Z</time>
      </trkpt>
      <trkpt lat="40.880450" lon="-4.165450">
        <ele>1642.0</ele>
        <time>2014-06-30T16:30:57Z</time>
      </trkpt>
      <trkpt lat="40.880483" lon="-4.165500">
        <ele>1642.0</ele>
        <time>2014-06-30T16:30:58Z</time>
      </trkpt>
      <trkpt lat="40.880467" lon="-4.165567">
        <ele>1642.0</ele>
        <time>2014-06-30T16:30:59Z</time>
      </trkpt>
      <trkpt lat="40.880433" lon="-4.165617">
        <ele>1642.0</ele>
        <time>2014-06-30T16:31:00Z</time>
      </trkpt>
      <trkpt lat="40.880367" lon="-4.165650">
        <ele>1642.0</ele>
        <time>2014-06-30T16:31:01Z</time>
      </trkpt>
      <trkpt lat="40.880267" lon="-4.165667">
        <ele>1643.0</ele>
        <time>2014-06-30T16:31:02Z</time>
      </trkpt>
      <trkpt lat="40.880167" lon="-4.165667">
        <ele>1645.0</ele>
        <time>2014-06-30T16:31:03Z</time>
      </trkpt>
      <trkpt lat="40.880083" lon="-4.165617">
        <ele>1646.0</ele>
        <time>2014-06-30T16:31:04Z</time>
      </trkpt>
      <trkpt lat="40.880000" lon="-4.165517">
        <ele>1646.0</ele>
        <time>2014-06-30T16:31:05Z</time>
      </trkpt>
      <trkpt lat="40.879933" lon="-4.165400">
        <ele>1646.0</ele>
        <time>2014-06-30T16:31:06Z</time>
      </trkpt>
      <trkpt lat="40.879900" lon="-4.165267">
        <ele>1646.0</ele>
        <time>2014-06-30T16:31:07Z</time>
      </trkpt>
      <trkpt lat="40.879900" lon="-4.165117">
        <ele>1646.0</ele>
        <time>2014-06-30T16:31:08Z</time>
      </trkpt>
      <trkpt lat="40.879917" lon="-4.164983">
        <ele>1648.0</ele>
        <time>2014-06-30T16:31:09Z</time>
      </trkpt>
      <trkpt lat="40.879933" lon="-4.164867">
        <ele>1649.0</ele>
        <time>2014-06-30T16:31:10Z</time>
      </trkpt>
      <trkpt lat="40.879983" lon="-4.164733">
        <ele>1649.0</ele>
        <time>2014-06-30T16:31:11Z</time>
      </trkpt>
      <trkpt lat="40.880017" lon="-4.164617">
        <ele>1650.0</ele>
        <time>2014-06-30T16:31:12Z</time>
      </trkpt>
      <trkpt lat="40.880067" lon="-4.164517">
        <ele>1651.0</ele>
        <time>2014-06-30T16:31:13Z</time>
      </trkpt>
      <trkpt lat="40.880100" lon="-4.164400">
        <ele>1652.0</ele>
        <time>2014-06-30T16:31:14Z</time>
      </trkpt>
      <trkpt lat="40.880133" lon="-4.164283">
        <ele>1653.0</ele>
        <time>2014-06-30T16:31:15Z</time>
      </trkpt>
      <trkpt lat="40.880167" lon="-4.164183">
        <ele>1654.0</ele>
        <time>2014-06-30T16:31:16Z</time>
      </trkpt>
      <trkpt lat="40.880200" lon="-4.164100">
        <ele>1654.0</ele>
        <time>2014-06-30T16:31:17Z</time>
      </trkpt>
      <trkpt lat="40.880233" lon="-4.164017">
        <ele>1654.0</ele>
        <time>2014-06-30T16:31:18Z</time>
      </trkpt>
      <trkpt lat="40.880300" lon="-4.163983">
        <ele>1652.0</ele>
        <time>2014-06-30T16:31:19Z</time>
      </trkpt>
      <trkpt lat="40.880350" lon="-4.163950">
        <ele>1650.0</ele>
        <time>2014-06-30T16:31:20Z</time>
      </trkpt>
      <trkpt lat="40.880383" lon="-4.163933">
        <ele>1650.0</ele>
        <time>2014-06-30T16:31:21Z</time>
      </trkpt>
      <trkpt lat="40.880417" lon="-4.163950">
        <ele>1649.0</ele>
        <time>2014-06-30T16:31:22Z</time>
      </trkpt>
      <trkpt lat="40.880417" lon="-4.163983">
        <ele>1648.0</ele>
        <time>2014-06-30T16:31:23Z</time>
      </trkpt>
      <trkpt lat="40.880400" lon="-4.164033">
        <ele>1648.0</ele>
        <time>2014-06-30T16:31:24Z</time>
      </trkpt>
      <trkpt lat="40.880367" lon="-4.164083">
        <ele>1646.0</ele>
        <time>2014-06-30T16:31:25Z</time>
      </trkpt>
      <trkpt lat="40.880300" lon="-4.164150">
        <ele>1645.0</ele>
        <time>2014-06-30T16:31:26Z</time>
      </trkpt>
      <trkpt lat="40.880200" lon="-4.164167">
        <ele>1644.0</ele>
        <time>2014-06-30T16:31:27Z</time>
      </trkpt>
      <trkpt lat="40.880083" lon="-4.164150">
        <ele>1642.0</ele>
        <time>2014-06-30T16:31:28Z</time>
      </trkpt>
      <trkpt lat="40.879967" lon="-4.164100">
        <ele>1639.0</ele>
        <time>2014-06-30T16:31:29Z</time>
      </trkpt>
      <trkpt lat="40.879850" lon="-4.164000">
        <ele>1637.0</ele>
        <time>2014-06-30T16:31:30Z</time>
      </trkpt>
      <trkpt lat="40.879783" lon="-4.163867">
        <ele>1637.0</ele>
        <time>2014-06-30T16:31:31Z</time>
      </trkpt>
      <trkpt lat="40.879750" lon="-4.163700">
        <ele>1636.0</ele>
        <time>2014-06-30T16:31:32Z</time>
      </trkpt>
      <trkpt lat="40.879750" lon="-4.163550">
        <ele>1634.0</ele>
        <time>2014-06-30T16:31:33Z</time>
      </trkpt>
      <trkpt lat="40.879783" lon="-4.163400">
        <ele>1633.0</ele>
        <time>2014-06-30T16:31:34Z</time>
      </trkpt>
      <trkpt lat="40.879833" lon="-4.163283">
        <ele>1632.0</ele>
        <time>2014-06-30T16:31:35Z</time>
      </trkpt>
      <trkpt lat="40.879867" lon="-4.163167">
        <ele>1630.0</ele>
        <time>2014-06-30T16:31:36Z</time>
      </trkpt>
      <trkpt lat="40.879900" lon="-4.163050">
        <ele>1629.0</ele>
        <time>2014-06-30T16:31:37Z</time>
      </trkpt>
      <trkpt lat="40.879933" lon="-4.162900">
        <ele>1627.0</ele>
        <time>2014-06-30T16:31:38Z</time>
      </trkpt>
      <trkpt lat="40.879967" lon="-4.162767">
        <ele>1625.0</ele>
        <time>2014-06-30T16:31:39Z</time>
      </trkpt>
      <trkpt lat="40.880033" lon="-4.162650">
        <ele>1623.0</ele>
        <time>2014-06-30T16:31:40Z</time>
      </trkpt>
      <trkpt lat="40.880100" lon="-4.162533">
        <ele>1622.0</ele>
        <time>2014-06-30T16:31:41Z</time>
      </trkpt>
      <trkpt lat="40.880167" lon="-4.162433">
        <ele>1621.0</ele>
        <time>2014-06-30T16:31:42Z</time>
      </trkpt>
      <trkpt lat="40.880200" lon="-4.162350">
        <ele>1621.0</ele>
        <time>2014-06-30T16:31:43Z</time>
      </trkpt>
      <trkpt lat="40.880217" lon="-4.162250">
        <ele>1625.0</ele>
        <time>2014-06-30T16:31:44Z</time>
      </trkpt>
      <trkpt lat="40.880267" lon="-4.162183">
        <ele>1624.0</ele>
        <time>2014-06-30T16:31:45Z</time>
      </trkpt>
      <trkpt lat="40.880333" lon="-4.162100">
        <ele>1623.0</ele>
        <time>2014-06-30T16:31:46Z</time>
      </trkpt>
      <trkpt lat="40.880400" lon="-4.162000">
        <ele>1622.0</ele>
        <time>2014-06-30T16:31:47Z</time>
      </trkpt>
      <trkpt lat="40.880450" lon="-4.161900">
        <ele>1621.0</ele>
        <time>2014-06-30T16:31:48Z</time>
      </trkpt>
      <trkpt lat="40.880483" lon="-4.161783">
        <ele>1620.0</ele>
        <time>2014-06-30T16:31:49Z</time>
      </trkpt>
      <trkpt lat="40.880533" lon="-4.161700">
        <ele>1618.0</ele>
        <time>2014-06-30T16:31:50Z</time>
      </trkpt>
      <trkpt lat="40.880583" lon="-4.161633">
        <ele>1615.0</ele>
        <time>2014-06-30T16:31:51Z</time>
      </trkpt>
      <trkpt lat="40.880633" lon="-4.161567">
        <ele>1612.0</ele>
        <time>2014-06-30T16:31:52Z</time>
      </trkpt>
      <trkpt lat="40.880700" lon="-4.161467">
        <ele>1616.0</ele>
        <time>2014-06-30T16:31:53Z</time>
      </trkpt>
      <trkpt lat="40.880767" lon="-4.161383">
        <ele>1615.0</ele>
        <time>2014-06-30T16:31:54Z</time>
      </trkpt>
      <trkpt lat="40.880800" lon="-4.161283">
        <ele>1614.0</ele>
        <time>2014-06-30T16:31:55Z</time>
      </trkpt>
      <trkpt lat="40.880850" lon="-4.161200">
        <ele>1614.0</ele>
        <time>2014-06-30T16:31:56Z</time>
      </trkpt>
      <trkpt lat="40.880883" lon="-4.161100">
        <ele>1614.0</ele>
        <time>2014-06-30T16:31:57Z</time>
      </trkpt>
      <trkpt lat="40.880950" lon="-4.160983">
        <ele>1613.0</ele>
        <time>2014-06-30T16:31:58Z</time>
      </trkpt>
      <trkpt lat="40.881000" lon="-4.160900">
        <ele>1612.0</ele>
        <time>2014-06-30T16:31:59Z</time>
      </trkpt>
      <trkpt lat="40.881083" lon="-4.160833">
        <ele>1610.0</ele>
        <time>2014-06-30T16:32:00Z</time>
      </trkpt>
      <trkpt lat="40.881150" lon="-4.160767">
        <ele>1608.0</ele>
        <time>2014-06-30T16:32:01Z</time>
      </trkpt>
      <trkpt lat="40.881200" lon="-4.160700">
        <ele>1607.0</ele>
        <time>2014-06-30T16:32:02Z</time>
      </trkpt>
      <trkpt lat="40.881217" lon="-4.160633">
        <ele>1604.0</ele>
        <time>2014-06-30T16:32:03Z</time>
      </trkpt>
      <trkpt lat="40.881267" lon="-4.160583">
        <ele>1601.0</ele>
        <time>2014-06-30T16:32:04Z</time>
      </trkpt>
      <trkpt lat="40.881350" lon="-4.160517">
        <ele>1596.0</ele>
        <time>2014-06-30T16:32:05Z</time>
      </trkpt>
      <trkpt lat="40.881433" lon="-4.160483">
        <ele>1592.0</ele>
        <time>2014-06-30T16:32:06Z</time>
      </trkpt>
      <trkpt lat="40.881500" lon="-4.160467">
        <ele>1589.0</ele>
        <time>2014-06-30T16:32:07Z</time>
      </trkpt>
      <trkpt lat="40.881567" lon="-4.160433">
        <ele>1592.0</ele>
        <time>2014-06-30T16:32:08Z</time>
      </trkpt>
      <trkpt lat="40.881633" lon="-4.160383">
        <ele>1590.0</ele>
        <time>2014-06-30T16:32:09Z</time>
      </trkpt>
      <trkpt lat="40.881683" lon="-4.160317">
        <ele>1589.0</ele>
        <time>2014-06-30T16:32:10Z</time>
      </trkpt>
      <trkpt lat="40.881717" lon="-4.160250">
        <ele>1588.0</ele>
        <time>2014-06-30T16:32:11Z</time>
      </trkpt>
      <trkpt lat="40.881783" lon="-4.160217">
        <ele>1585.0</ele>
        <time>2014-06-30T16:32:12Z</time>
      </trkpt>
      <trkpt lat="40.881833" lon="-4.160200">
        <ele>1582.0</ele>
        <time>2014-06-30T16:32:13Z</time>
      </trkpt>
      <trkpt lat="40.881883" lon="-4.160183">
        <ele>1582.0</ele>
        <time>2014-06-30T16:32:14Z</time>
      </trkpt>
      <trkpt lat="40.881933" lon="-4.160133">
        <ele>1581.0</ele>
        <time>2014-06-30T16:32:15Z</time>
      </trkpt>
      <trkpt lat="40.882000" lon="-4.160083">
        <ele>1578.0</ele>
        <time>2014-06-30T16:32:16Z</time>
      </trkpt>
      <trkpt lat="40.882083" lon="-4.160017">
        <ele>1575.0</ele>
        <time>2014-06-30T16:32:17Z</time>
      </trkpt>
      <trkpt lat="40.882183" lon="-4.159967">
        <ele>1572.0</ele>
        <time>2014-06-30T16:32:18Z</time>
      </trkpt>
      <trkpt lat="40.882283" lon="-4.159917">
        <ele>1568.0</ele>
        <time>2014-06-30T16:32:19Z</time>
      </trkpt>
      <trkpt lat="40.882383" lon="-4.159867">
        <ele>1565.0</ele>
        <time>2014-06-30T16:32:20Z</time>
      </trkpt>
      <trkpt lat="40.882483" lon="-4.159800">
        <ele>1562.0</ele>
        <time>2014-06-30T16:32:21Z</time>
      </trkpt>
      <trkpt lat="40.882567" lon="-4.159733">
        <ele>1559.0</ele>
        <time>2014-06-30T16:32:22Z</time>
      </trkpt>
      <trkpt lat="40.882650" lon="-4.159667">
        <ele>1556.0</ele>
        <time>2014-06-30T16:32:23Z</time>
      </trkpt>
      <trkpt lat="40.882733" lon="-4.159600">
        <ele>1551.0</ele>
        <time>2014-06-30T16:32:24Z</time>
      </trkpt>
      <trkpt lat="40.882817" lon="-4.159533">
        <ele>1546.0</ele>
        <time>2014-06-30T16:32:25Z</time>
      </trkpt>
      <trkpt lat="40.882917" lon="-4.159450">
        <ele>1542.0</ele>
        <time>2014-06-30T16:32:26Z</time>
      </trkpt>
      <trkpt lat="40.883017" lon="-4.159350">
        <ele>1537.0</ele>
        <time>2014-06-30T16:32:27Z</time>
      </trkpt>
      <trkpt lat="40.883117" lon="-4.159250">
        <ele>1533.0</ele>
        <time>2014-06-30T16:32:28Z</time>
      </trkpt>
      <trkpt lat="40.883233" lon="-4.159150">
        <ele>1530.0</ele>
        <time>2014-06-30T16:32:29Z</time>
      </trkpt>
      <trkpt lat="40.883317" lon="-4.159033">
        <ele>1526.0</ele>
        <time>2014-06-30T16:32:30Z</time>
      </trkpt>
      <trkpt lat="40.883417" lon="-4.158917">
        <ele>1522.0</ele>
        <time>2014-06-30T16:32:31Z</time>
      </trkpt>
      <trkpt lat="40.883517" lon="-4.158783">
        <ele>1518.0</ele>
        <time>2014-06-30T16:32:32Z</time>
      </trkpt>
      <trkpt lat="40.883617" lon="-4.158650">
        <ele>1515.0</ele>
        <time>2014-06-30T16:32:33Z</time>
      </trkpt>
      <trkpt lat="40.883700" lon="-4.158533">
        <ele>1512.0</ele>
        <time>2014-06-30T16:32:34Z</time>
      </trkpt>
      <trkpt lat="40.883783" lon="-4.158433">
        <ele>1510.0</ele>
        <time>2014-06-30T16:32:35Z</time>
      </trkpt>
      <trkpt lat="40.883883" lon="-4.158333">
        <ele>1507.0</ele>
        <time>2014-06-30T16:32:36Z</time>
      </trkpt>
      <trkpt lat="40.883950" lon="-4.158217">
        <ele>1504.0</ele>
        <time>2014-06-30T16:32:37Z</time>
      </trkpt>
      <trkpt lat="40.884050" lon="-4.158117">
        <ele>1502.0</ele>
        <time>2014-06-30T16:32:38Z</time>
      </trkpt>
      <trkpt lat="40.884133" lon="-4.158017">
        <ele>1500.0</ele>
        <time>2014-06-30T16:32:39Z</time>
      </trkpt>
      <trkpt lat="40.884200" lon="-4.157950">
        <ele>1499.0</ele>
        <time>2014-06-30T16:32:40Z</time>
      </trkpt>
      <trkpt lat="40.884283" lon="-4.157867">
        <ele>1497.0</ele>
        <time>2014-06-30T16:32:41Z</time>
      </trkpt>
      <trkpt lat="40.884350" lon="-4.157783">
        <ele>1495.0</ele>
        <time>2014-06-30T16:32:42Z</time>
      </trkpt>
      <trkpt lat="40.884417" lon="-4.157683">
        <ele>1492.0</ele>
        <time>2014-06-30T16:32:43Z</time>
      </trkpt>
      <trkpt lat="40.884500" lon="-4.157600">
        <ele>1490.0</ele>
        <time>2014-06-30T16:32:44Z</time>
      </trkpt>
      <trkpt lat="40.884600" lon="-4.157533">
        <ele>1487.0</ele>
        <time>2014-06-30T16:32:45Z</time>
      </trkpt>
      <trkpt lat="40.884683" lon="-4.157450">
        <ele>1485.0</ele>
        <time>2014-06-30T16:32:46Z</time>
      </trkpt>
      <trkpt lat="40.884783" lon="-4.157383">
        <ele>1483.0</ele>
        <time>2014-06-30T16:32:47Z</time>
      </trkpt>
      <trkpt lat="40.884867" lon="-4.157317">
        <ele>1482.0</ele>
        <time>2014-06-30T16:32:48Z</time>
      </trkpt>
      <trkpt lat="40.884933" lon="-4.157233">
        <ele>1480.0</ele>
        <time>2014-06-30T16:32:49Z</time>
      </trkpt>
      <trkpt lat="40.885033" lon="-4.157167">
        <ele>1479.0</ele>
        <time>2014-06-30T16:32:50Z</time>
      </trkpt>
      <trkpt lat="40.885117" lon="-4.157083">
        <ele>1478.0</ele>
        <time>2014-06-30T16:32:51Z</time>
      </trkpt>
      <trkpt lat="40.885200" lon="-4.157000">
        <ele>1476.0</ele>
        <time>2014-06-30T16:32:52Z</time>
      </trkpt>
      <trkpt lat="40.885283" lon="-4.156900">
        <ele>1475.0</ele>
        <time>2014-06-30T16:32:53Z</time>
      </trkpt>
      <trkpt lat="40.885350" lon="-4.156817">
        <ele>1474.0</ele>
        <time>2014-06-30T16:32:54Z</time>
      </trkpt>
      <trkpt lat="40.885433" lon="-4.156733">
        <ele>1473.0</ele>
        <time>2014-06-30T16:32:55Z</time>
      </trkpt>
      <trkpt lat="40.885500" lon="-4.156650">
        <ele>1473.0</ele>
        <time>2014-06-30T16:32:56Z</time>
      </trkpt>
      <trkpt lat="40.885583" lon="-4.156583">
        <ele>1473.0</ele>
        <time>2014-06-30T16:32:57Z</time>
      </trkpt>
      <trkpt lat="40.885650" lon="-4.156550">
        <ele>1473.0</ele>
        <time>2014-06-30T16:32:58Z</time>
      </trkpt>
      <trkpt lat="40.885717" lon="-4.156517">
        <ele>1472.0</ele>
        <time>2014-06-30T16:32:59Z</time>
      </trkpt>
      <trkpt lat="40.885783" lon="-4.156483">
        <ele>1473.0</ele>
        <time>2014-06-30T16:33:00Z</time>
      </trkpt>
      <trkpt lat="40.885850" lon="-4.156450">
        <ele>1473.0</ele>
        <time>2014-06-30T16:33:01Z</time>
      </trkpt>
      <trkpt lat="40.885917" lon="-4.156400">
        <ele>1473.0</ele>
        <time>2014-06-30T16:33:02Z</time>
      </trkpt>
      <trkpt lat="40.885983" lon="-4.156367">
        <ele>1472.0</ele>
        <time>2014-06-30T16:33:03Z</time>
      </trkpt>
      <trkpt lat="40.886033" lon="-4.156350">
        <ele>1472.0</ele>
        <time>2014-06-30T16:33:04Z</time>
      </trkpt>
      <trkpt lat="40.886083" lon="-4.156333">
        <ele>1471.0</ele>
        <time>2014-06-30T16:33:05Z</time>
      </trkpt>
      <trkpt lat="40.886150" lon="-4.156300">
        <ele>1469.0</ele>
        <time>2014-06-30T16:33:06Z</time>
      </trkpt>
      <trkpt lat="40.886217" lon="-4.156267">
        <ele>1468.0</ele>
        <time>2014-06-30T16:33:07Z</time>
      </trkpt>
      <trkpt lat="40.886283" lon="-4.156233">
        <ele>1467.0</ele>
        <time>2014-06-30T16:33:08Z</time>
      </trkpt>
      <trkpt lat="40.886350" lon="-4.156183">
        <ele>1465.0</ele>
        <time>2014-06-30T16:33:09Z</time>
      </trkpt>
      <trkpt lat="40.886400" lon="-4.156167">
        <ele>1466.0</ele>
        <time>2014-06-30T16:33:10Z</time>
      </trkpt>
      <trkpt lat="40.886450" lon="-4.156117">
        <ele>1465.0</ele>
        <time>2014-06-30T16:33:11Z</time>
      </trkpt>
      <trkpt lat="40.886517" lon="-4.156083">
        <ele>1464.0</ele>
        <time>2014-06-30T16:33:12Z</time>
      </trkpt>
      <trkpt lat="40.886600" lon="-4.156033">
        <ele>1463.0</ele>
        <time>2014-06-30T16:33:13Z</time>
      </trkpt>
      <trkpt lat="40.886683" lon="-4.155967">
        <ele>1461.0</ele>
        <time>2014-06-30T16:33:14Z</time>
      </trkpt>
      <trkpt lat="40.886767" lon="-4.155917">
        <ele>1459.0</ele>
        <time>2014-06-30T16:33:15Z</time>
      </trkpt>
      <trkpt lat="40.886867" lon="-4.155867">
        <ele>1457.0</ele>
        <time>2014-06-30T16:33:16Z</time>
      </trkpt>
      <trkpt lat="40.886933" lon="-4.155817">
        <ele>1455.0</ele>
        <time>2014-06-30T16:33:17Z</time>
      </trkpt>
      <trkpt lat="40.887000" lon="-4.155767">
        <ele>1457.0</ele>
        <time>2014-06-30T16:33:18Z</time>
      </trkpt>
      <trkpt lat="40.887083" lon="-4.155717">
        <ele>1456.0</ele>
        <time>2014-06-30T16:33:19Z</time>
      </trkpt>
      <trkpt lat="40.887167" lon="-4.155683">
        <ele>1455.0</ele>
        <time>2014-06-30T16:33:20Z</time>
      </trkpt>
      <trkpt lat="40.887250" lon="-4.155633">
        <ele>1454.0</ele>
        <time>2014-06-30T16:33:21Z</time>
      </trkpt>
      <trkpt lat="40.887317" lon="-4.155550">
        <ele>1453.0</ele>
        <time>2014-06-30T16:33:22Z</time>
      </trkpt>
      <trkpt lat="40.887383" lon="-4.155467">
        <ele>1452.0</ele>
        <time>2014-06-30T16:33:23Z</time>
      </trkpt>
      <trkpt lat="40.887433" lon="-4.155400">
        <ele>1451.0</ele>
        <time>2014-06-30T16:33:24Z</time>
      </trkpt>
      <trkpt lat="40.887500" lon="-4.155333">
        <ele>1449.0</ele>
        <time>2014-06-30T16:33:25Z</time>
      </trkpt>
      <trkpt lat="40.887550" lon="-4.155250">
        <ele>1449.0</ele>
        <time>2014-06-30T16:33:26Z</time>
      </trkpt>
      <trkpt lat="40.887617" lon="-4.155167">
        <ele>1449.0</ele>
        <time>2014-06-30T16:33:27Z</time>
      </trkpt>
      <trkpt lat="40.887683" lon="-4.155083">
        <ele>1449.0</ele>
        <time>2014-06-30T16:33:28Z</time>
      </trkpt>
      <trkpt lat="40.887750" lon="-4.155000">
        <ele>1448.0</ele>
        <time>2014-06-30T16:33:29Z</time>
      </trkpt>
      <trkpt lat="40.887833" lon="-4.154917">
        <ele>1447.0</ele>
        <time>2014-06-30T16:33:30Z</time>
      </trkpt>
      <trkpt lat="40.887917" lon="-4.154867">
        <ele>1446.0</ele>
        <time>2014-06-30T16:33:31Z</time>
      </trkpt>
      <trkpt lat="40.888000" lon="-4.154800">
        <ele>1445.0</ele>
        <time>2014-06-30T16:33:32Z</time>
      </trkpt>
      <trkpt lat="40.888083" lon="-4.154733">
        <ele>1444.0</ele>
        <time>2014-06-30T16:33:33Z</time>
      </trkpt>
      <trkpt lat="40.888150" lon="-4.154667">
        <ele>1443.0</ele>
        <time>2014-06-30T16:33:34Z</time>
      </trkpt>
      <trkpt lat="40.888217" lon="-4.154617">
        <ele>1442.0</ele>
        <time>2014-06-30T16:33:35Z</time>
      </trkpt>
      <trkpt lat="40.888283" lon="-4.154567">
        <ele>1442.0</ele>
        <time>2014-06-30T16:33:36Z</time>
      </trkpt>
      <trkpt lat="40.888333" lon="-4.154517">
        <ele>1441.0</ele>
        <time>2014-06-30T16:33:37Z</time>
      </trkpt>
      <trkpt lat="40.888400" lon="-4.154467">
        <ele>1441.0</ele>
        <time>2014-06-30T16:33:38Z</time>
      </trkpt>
      <trkpt lat="40.888450" lon="-4.154417">
        <ele>1441.0</ele>
        <time>2014-06-30T16:33:39Z</time>
      </trkpt>
      <trkpt lat="40.888500" lon="-4.154350">
        <ele>1440.0</ele>
        <time>2014-06-30T16:33:40Z</time>
      </trkpt>
      <trkpt lat="40.888517" lon="-4.154283">
        <ele>1440.0</ele>
        <time>2014-06-30T16:33:41Z</time>
      </trkpt>
      <trkpt lat="40.888533" lon="-4.154217">
        <ele>1440.0</ele>
        <time>2014-06-30T16:33:42Z</time>
      </trkpt>
      <trkpt lat="40.888550" lon="-4.154150">
        <ele>1440.0</ele>
        <time>2014-06-30T16:33:43Z</time>
      </trkpt>
      <trkpt lat="40.888567" lon="-4.154117">
        <ele>1440.0</ele>
        <time>2014-06-30T16:33:44Z</time>
      </trkpt>
      <trkpt lat="40.888600" lon="-4.154083">
        <ele>1439.0</ele>
        <time>2014-06-30T16:33:45Z</time>
      </trkpt>
      <trkpt lat="40.888633" lon="-4.154083">
        <ele>1438.0</ele>
        <time>2014-06-30T16:33:46Z</time>
      </trkpt>
      <trkpt lat="40.888650" lon="-4.154100">
        <ele>1438.0</ele>
        <time>2014-06-30T16:33:47Z</time>
      </trkpt>
      <trkpt lat="40.888633" lon="-4.154133">
        <ele>1437.0</ele>
        <time>2014-06-30T16:33:48Z</time>
      </trkpt>
      <trkpt lat="40.888583" lon="-4.154200">
        <ele>1436.0</ele>
        <time>2014-06-30T16:33:49Z</time>
      </trkpt>
      <trkpt lat="40.888517" lon="-4.154233">
        <ele>1435.0</ele>
        <time>2014-06-30T16:33:50Z</time>
      </trkpt>
      <trkpt lat="40.888433" lon="-4.154267">
        <ele>1435.0</ele>
        <time>2014-06-30T16:33:51Z</time>
      </trkpt>
      <trkpt lat="40.888333" lon="-4.154267">
        <ele>1434.0</ele>
        <time>2014-06-30T16:33:52Z</time>
      </trkpt>
      <trkpt lat="40.888217" lon="-4.154233">
        <ele>1433.0</ele>
        <time>2014-06-30T16:33:53Z</time>
      </trkpt>
      <trkpt lat="40.888100" lon="-4.154133">
        <ele>1431.0</ele>
        <time>2014-06-30T16:33:54Z</time>
      </trkpt>
      <trkpt lat="40.888000" lon="-4.153983">
        <ele>1429.0</ele>
        <time>2014-06-30T16:33:55Z</time>
      </trkpt>
      <trkpt lat="40.887950" lon="-4.153800">
        <ele>1428.0</ele>
        <time>2014-06-30T16:33:56Z</time>
      </trkpt>
      <trkpt lat="40.887917" lon="-4.153617">
        <ele>1429.0</ele>
        <time>2014-06-30T16:33:57Z</time>
      </trkpt>
      <trkpt lat="40.887900" lon="-4.153433">
        <ele>1430.0</ele>
        <time>2014-06-30T16:33:58Z</time>
      </trkpt>
      <trkpt lat="40.887900" lon="-4.153267">
        <ele>1430.0</ele>
        <time>2014-06-30T16:33:59Z</time>
      </trkpt>
      <trkpt lat="40.887883" lon="-4.153100">
        <ele>1430.0</ele>
        <time>2014-06-30T16:34:00Z</time>
      </trkpt>
      <trkpt lat="40.887883" lon="-4.152950">
        <ele>1429.0</ele>
        <time>2014-06-30T16:34:01Z</time>
      </trkpt>
      <trkpt lat="40.887900" lon="-4.152817">
        <ele>1428.0</ele>
        <time>2014-06-30T16:34:02Z</time>
      </trkpt>
      <trkpt lat="40.887917" lon="-4.152650">
        <ele>1427.0</ele>
        <time>2014-06-30T16:34:03Z</time>
      </trkpt>
      <trkpt lat="40.887950" lon="-4.152500">
        <ele>1427.0</ele>
        <time>2014-06-30T16:34:04Z</time>
      </trkpt>
      <trkpt lat="40.887967" lon="-4.152333">
        <ele>1426.0</ele>
        <time>2014-06-30T16:34:05Z</time>
      </trkpt>
      <trkpt lat="40.888000" lon="-4.152183">
        <ele>1426.0</ele>
        <time>2014-06-30T16:34:06Z</time>
      </trkpt>
      <trkpt lat="40.888017" lon="-4.152067">
        <ele>1425.0</ele>
        <time>2014-06-30T16:34:07Z</time>
      </trkpt>
      <trkpt lat="40.888050" lon="-4.151950">
        <ele>1425.0</ele>
        <time>2014-06-30T16:34:08Z</time>
      </trkpt>
      <trkpt lat="40.888067" lon="-4.151817">
        <ele>1423.0</ele>
        <time>2014-06-30T16:34:09Z</time>
      </trkpt>
      <trkpt lat="40.888100" lon="-4.151683">
        <ele>1422.0</ele>
        <time>2014-06-30T16:34:10Z</time>
      </trkpt>
      <trkpt lat="40.888150" lon="-4.151550">
        <ele>1421.0</ele>
        <time>2014-06-30T16:34:11Z</time>
      </trkpt>
      <trkpt lat="40.888200" lon="-4.151417">
        <ele>1420.0</ele>
        <time>2014-06-30T16:34:12Z</time>
      </trkpt>
      <trkpt lat="40.888250" lon="-4.151317">
        <ele>1419.0</ele>
        <time>2014-06-30T16:34:13Z</time>
      </trkpt>
      <trkpt lat="40.888283" lon="-4.151200">
        <ele>1418.0</ele>
        <time>2014-06-30T16:34:14Z</time>
      </trkpt>
      <trkpt lat="40.888300" lon="-4.151100">
        <ele>1421.0</ele>
        <time>2014-06-30T16:34:15Z</time>
      </trkpt>
      <trkpt lat="40.888333" lon="-4.151000">
        <ele>1421.0</ele>
        <time>2014-06-30T16:34:16Z</time>
      </trkpt>
      <trkpt lat="40.888367" lon="-4.150883">
        <ele>1420.0</ele>
        <time>2014-06-30T16:34:17Z</time>
      </trkpt>
      <trkpt lat="40.888433" lon="-4.150783">
        <ele>1419.0</ele>
        <time>2014-06-30T16:34:18Z</time>
      </trkpt>
      <trkpt lat="40.888467" lon="-4.150683">
        <ele>1418.0</ele>
        <time>2014-06-30T16:34:19Z</time>
      </trkpt>
      <trkpt lat="40.888500" lon="-4.150583">
        <ele>1417.0</ele>
        <time>2014-06-30T16:34:20Z</time>
      </trkpt>
      <trkpt lat="40.888533" lon="-4.150500">
        <ele>1416.0</ele>
        <time>2014-06-30T16:34:21Z</time>
      </trkpt>
      <trkpt lat="40.888567" lon="-4.150400">
        <ele>1416.0</ele>
        <time>2014-06-30T16:34:22Z</time>
      </trkpt>
      <trkpt lat="40.888617" lon="-4.150300">
        <ele>1414.0</ele>
        <time>2014-06-30T16:34:23Z</time>
      </trkpt>
      <trkpt lat="40.888667" lon="-4.150217">
        <ele>1413.0</ele>
        <time>2014-06-30T16:34:24Z</time>
      </trkpt>
      <trkpt lat="40.888750" lon="-4.150133">
        <ele>1411.0</ele>
        <time>2014-06-30T16:34:25Z</time>
      </trkpt>
      <trkpt lat="40.888800" lon="-4.150050">
        <ele>1410.0</ele>
        <time>2014-06-30T16:34:26Z</time>
      </trkpt>
      <trkpt lat="40.888867" lon="-4.149950">
        <ele>1408.0</ele>
        <time>2014-06-30T16:34:27Z</time>
      </trkpt>
      <trkpt lat="40.888917" lon="-4.149867">
        <ele>1407.0</ele>
        <time>2014-06-30T16:34:28Z</time>
      </trkpt>
      <trkpt lat="40.888950" lon="-4.149783">
        <ele>1405.0</ele>
        <time>2014-06-30T16:34:29Z</time>
      </trkpt>
      <trkpt lat="40.889000" lon="-4.149717">
        <ele>1404.0</ele>
        <time>2014-06-30T16:34:30Z</time>
      </trkpt>
      <trkpt lat="40.889050" lon="-4.149633">
        <ele>1403.0</ele>
        <time>2014-06-30T16:34:31Z</time>
      </trkpt>
      <trkpt lat="40.889133" lon="-4.149550">
        <ele>1402.0</ele>
        <time>2014-06-30T16:34:32Z</time>
      </trkpt>
      <trkpt lat="40.889200" lon="-4.149500">
        <ele>1401.0</ele>
        <time>2014-06-30T16:34:33Z</time>
      </trkpt>
      <trkpt lat="40.889267" lon="-4.149450">
        <ele>1399.0</ele>
        <time>2014-06-30T16:34:34Z</time>
      </trkpt>
      <trkpt lat="40.889317" lon="-4.149383">
        <ele>1398.0</ele>
        <time>2014-06-30T16:34:35Z</time>
      </trkpt>
      <trkpt lat="40.889383" lon="-4.149317">
        <ele>1396.0</ele>
        <time>2014-06-30T16:34:36Z</time>
      </trkpt>
      <trkpt lat="40.889433" lon="-4.149233">
        <ele>1395.0</ele>
        <time>2014-06-30T16:34:37Z</time>
      </trkpt>
      <trkpt lat="40.889483" lon="-4.149150">
        <ele>1394.0</ele>
        <time>2014-06-30T16:34:38Z</time>
      </trkpt>
      <trkpt lat="40.889533" lon="-4.149067">
        <ele>1392.0</ele>
        <time>2014-06-30T16:34:39Z</time>
      </trkpt>
      <trkpt lat="40.889583" lon="-4.148983">
        <ele>1391.0</ele>
        <time>2014-06-30T16:34:40Z</time>
      </trkpt>
      <trkpt lat="40.889600" lon="-4.148900">
        <ele>1390.0</ele>
        <time>2014-06-30T16:34:41Z</time>
      </trkpt>
      <trkpt lat="40.889667" lon="-4.148783">
        <ele>1389.0</ele>
        <time>2014-06-30T16:34:42Z</time>
      </trkpt>
      <trkpt lat="40.889733" lon="-4.148683">
        <ele>1386.0</ele>
        <time>2014-06-30T16:34:43Z</time>
      </trkpt>
      <trkpt lat="40.889833" lon="-4.148600">
        <ele>1385.0</ele>
        <time>2014-06-30T16:34:44Z</time>
      </trkpt>
      <trkpt lat="40.889900" lon="-4.148550">
        <ele>1382.0</ele>
        <time>2014-06-30T16:34:45Z</time>
      </trkpt>
      <trkpt lat="40.889967" lon="-4.148483">
        <ele>1381.0</ele>
        <time>2014-06-30T16:34:46Z</time>
      </trkpt>
      <trkpt lat="40.890017" lon="-4.148400">
        <ele>1380.0</ele>
        <time>2014-06-30T16:34:47Z</time>
      </trkpt>
      <trkpt lat="40.890100" lon="-4.148317">
        <ele>1379.0</ele>
        <time>2014-06-30T16:34:48Z</time>
      </trkpt>
      <trkpt lat="40.890183" lon="-4.148233">
        <ele>1376.0</ele>
        <time>2014-06-30T16:34:49Z</time>
      </trkpt>
      <trkpt lat="40.890283" lon="-4.148167">
        <ele>1374.0</ele>
        <time>2014-06-30T16:34:50Z</time>
      </trkpt>
      <trkpt lat="40.890350" lon="-4.148100">
        <ele>1372.0</ele>
        <time>2014-06-30T16:34:51Z</time>
      </trkpt>
      <trkpt lat="40.890417" lon="-4.147983">
        <ele>1369.0</ele>
        <time>2014-06-30T16:34:52Z</time>
      </trkpt>
      <trkpt lat="40.890467" lon="-4.147883">
        <ele>1367.0</ele>
        <time>2014-06-30T16:34:53Z</time>
      </trkpt>
      <trkpt lat="40.890533" lon="-4.147783">
        <ele>1365.0</ele>
        <time>2014-06-30T16:34:54Z</time>
      </trkpt>
      <trkpt lat="40.890600" lon="-4.147750">
        <ele>1363.0</ele>
        <time>2014-06-30T16:34:55Z</time>
      </trkpt>
      <trkpt lat="40.890650" lon="-4.147700">
        <ele>1360.0</ele>
        <time>2014-06-30T16:34:56Z</time>
      </trkpt>
      <trkpt lat="40.890700" lon="-4.147633">
        <ele>1359.0</ele>
        <time>2014-06-30T16:34:57Z</time>
      </trkpt>
      <trkpt lat="40.890733" lon="-4.147550">
        <ele>1356.0</ele>
        <time>2014-06-30T16:34:58Z</time>
      </trkpt>
      <trkpt lat="40.890800" lon="-4.147450">
        <ele>1352.0</ele>
        <time>2014-06-30T16:34:59Z</time>
      </trkpt>
      <trkpt lat="40.890867" lon="-4.147367">
        <ele>1351.0</ele>
        <time>2014-06-30T16:35:00Z</time>
      </trkpt>
      <trkpt lat="40.890950" lon="-4.147283">
        <ele>1348.0</ele>
        <time>2014-06-30T16:35:01Z</time>
      </trkpt>
      <trkpt lat="40.891017" lon="-4.147200">
        <ele>1343.0</ele>
        <time>2014-06-30T16:35:02Z</time>
      </trkpt>
      <trkpt lat="40.891067" lon="-4.147133">
        <ele>1343.0</ele>
        <time>2014-06-30T16:35:03Z</time>
      </trkpt>
      <trkpt lat="40.891133" lon="-4.147050">
        <ele>1341.0</ele>
        <time>2014-06-30T16:35:04Z</time>
      </trkpt>
      <trkpt lat="40.891200" lon="-4.146967">
        <ele>1339.0</ele>
        <time>2014-06-30T16:35:05Z</time>
      </trkpt>
      <trkpt lat="40.891300" lon="-4.146867">
        <ele>1337.0</ele>
        <time>2014-06-30T16:35:06Z</time>
      </trkpt>
      <trkpt lat="40.891367" lon="-4.146783">
        <ele>1335.0</ele>
        <time>2014-06-30T16:35:07Z</time>
      </trkpt>
      <trkpt lat="40.891433" lon="-4.146700">
        <ele>1333.0</ele>
        <time>2014-06-30T16:35:08Z</time>
      </trkpt>
      <trkpt lat="40.891500" lon="-4.146617">
        <ele>1332.0</ele>
        <time>2014-06-30T16:35:09Z</time>
      </trkpt>
      <trkpt lat="40.891567" lon="-4.146550">
        <ele>1331.0</ele>
        <time>2014-06-30T16:35:10Z</time>
      </trkpt>
      <trkpt lat="40.891650" lon="-4.146467">
        <ele>1330.0</ele>
        <time>2014-06-30T16:35:11Z</time>
      </trkpt>
      <trkpt lat="40.891733" lon="-4.146383">
        <ele>1328.0</ele>
        <time>2014-06-30T16:35:12Z</time>
      </trkpt>
      <trkpt lat="40.891800" lon="-4.146300">
        <ele>1326.0</ele>
        <time>2014-06-30T16:35:13Z</time>
      </trkpt>
      <trkpt lat="40.891867" lon="-4.146233">
        <ele>1324.0</ele>
        <time>2014-06-30T16:35:14Z</time>
      </trkpt>
      <trkpt lat="40.891933" lon="-4.146167">
        <ele>1321.0</ele>
        <time>2014-06-30T16:35:15Z</time>
      </trkpt>
      <trkpt lat="40.891983" lon="-4.146083">
        <ele>1319.0</ele>
        <time>2014-06-30T16:35:16Z</time>
      </trkpt>
      <trkpt lat="40.892033" lon="-4.146000">
        <ele>1317.0</ele>
        <time>2014-06-30T16:35:17Z</time>
      </trkpt>
      <trkpt lat="40.892100" lon="-4.145917">
        <ele>1315.0</ele>
        <time>2014-06-30T16:35:18Z</time>
      </trkpt>
      <trkpt lat="40.892150" lon="-4.145817">
        <ele>1313.0</ele>
        <time>2014-06-30T16:35:19Z</time>
      </trkpt>
      <trkpt lat="40.892200" lon="-4.145717">
        <ele>1312.0</ele>
        <time>2014-06-30T16:35:20Z</time>
      </trkpt>
      <trkpt lat="40.892267" lon="-4.145617">
        <ele>1311.0</ele>
        <time>2014-06-30T16:35:21Z</time>
      </trkpt>
      <trkpt lat="40.892333" lon="-4.145533">
        <ele>1309.0</ele>
        <time>2014-06-30T16:35:22Z</time>
      </trkpt>
      <trkpt lat="40.892417" lon="-4.145467">
        <ele>1308.0</ele>
        <time>2014-06-30T16:35:23Z</time>
      </trkpt>
      <trkpt lat="40.892500" lon="-4.145383">
        <ele>1306.0</ele>
        <time>2014-06-30T16:35:24Z</time>
      </trkpt>
      <trkpt lat="40.892567" lon="-4.145317">
        <ele>1304.0</ele>
        <time>2014-06-30T16:35:25Z</time>
      </trkpt>
      <trkpt lat="40.892617" lon="-4.145250">
        <ele>1303.0</ele>
        <time>2014-06-30T16:35:26Z</time>
      </trkpt>
      <trkpt lat="40.892683" lon="-4.145183">
        <ele>1301.0</ele>
        <time>2014-06-30T16:35:27Z</time>
      </trkpt>
      <trkpt lat="40.892750" lon="-4.145117">
        <ele>1300.0</ele>
        <time>2014-06-30T16:35:28Z</time>
      </trkpt>
      <trkpt lat="40.892800" lon="-4.145033">
        <ele>1298.0</ele>
        <time>2014-06-30T16:35:29Z</time>
      </trkpt>
      <trkpt lat="40.892867" lon="-4.144950">
        <ele>1297.0</ele>
        <time>2014-06-30T16:35:30Z</time>
      </trkpt>
      <trkpt lat="40.892933" lon="-4.144867">
        <ele>1296.0</ele>
        <time>2014-06-30T16:35:31Z</time>
      </trkpt>
      <trkpt lat="40.892983" lon="-4.144783">
        <ele>1295.0</ele>
        <time>2014-06-30T16:35:32Z</time>
      </trkpt>
      <trkpt lat="40.893067" lon="-4.144683">
        <ele>1294.0</ele>
        <time>2014-06-30T16:35:33Z</time>
      </trkpt>
      <trkpt lat="40.893133" lon="-4.144617">
        <ele>1292.0</ele>
        <time>2014-06-30T16:35:34Z</time>
      </trkpt>
      <trkpt lat="40.893200" lon="-4.144567">
        <ele>1291.0</ele>
        <time>2014-06-30T16:35:35Z</time>
      </trkpt>
      <trkpt lat="40.893250" lon="-4.144500">
        <ele>1289.0</ele>
        <time>2014-06-30T16:35:36Z</time>
      </trkpt>
      <trkpt lat="40.893333" lon="-4.144417">
        <ele>1288.0</ele>
        <time>2014-06-30T16:35:37Z</time>
      </trkpt>
      <trkpt lat="40.893417" lon="-4.144350">
        <ele>1287.0</ele>
        <time>2014-06-30T16:35:38Z</time>
      </trkpt>
      <trkpt lat="40.893483" lon="-4.144283">
        <ele>1286.0</ele>
        <time>2014-06-30T16:35:39Z</time>
      </trkpt>
      <trkpt lat="40.893550" lon="-4.144217">
        <ele>1285.0</ele>
        <time>2014-06-30T16:35:40Z</time>
      </trkpt>
      <trkpt lat="40.893617" lon="-4.144167">
        <ele>1284.0</ele>
        <time>2014-06-30T16:35:41Z</time>
      </trkpt>
      <trkpt lat="40.893683" lon="-4.144117">
        <ele>1283.0</ele>
        <time>2014-06-30T16:35:42Z</time>
      </trkpt>
      <trkpt lat="40.893717" lon="-4.144083">
        <ele>1282.0</ele>
        <time>2014-06-30T16:35:43Z</time>
      </trkpt>
      <trkpt lat="40.893733" lon="-4.144017">
        <ele>1280.0</ele>
        <time>2014-06-30T16:35:44Z</time>
      </trkpt>
      <trkpt lat="40.893783" lon="-4.143967">
        <ele>1279.0</ele>
        <time>2014-06-30T16:35:45Z</time>
      </trkpt>
      <trkpt lat="40.893833" lon="-4.143950">
        <ele>1277.0</ele>
        <time>2014-06-30T16:35:46Z</time>
      </trkpt>
      <trkpt lat="40.893867" lon="-4.143967">
        <ele>1277.0</ele>
        <time>2014-06-30T16:35:47Z</time>
      </trkpt>
      <trkpt lat="40.893867" lon="-4.144017">
        <ele>1276.0</ele>
        <time>2014-06-30T16:35:48Z</time>
      </trkpt>
      <trkpt lat="40.893850" lon="-4.144067">
        <ele>1275.0</ele>
        <time>2014-06-30T16:35:49Z</time>
      </trkpt>
      <trkpt lat="40.893800" lon="-4.144117">
        <ele>1275.0</ele>
        <time>2014-06-30T16:35:50Z</time>
      </trkpt>
      <trkpt lat="40.893700" lon="-4.144117">
        <ele>1274.0</ele>
        <time>2014-06-30T16:35:51Z</time>
      </trkpt>
      <trkpt lat="40.893567" lon="-4.144067">
        <ele>1272.0</ele>
        <time>2014-06-30T16:35:52Z</time>
      </trkpt>
      <trkpt lat="40.893450" lon="-4.143967">
        <ele>1269.0</ele>
        <time>2014-06-30T16:35:53Z</time>
      </trkpt>
      <trkpt lat="40.893367" lon="-4.143817">
        <ele>1267.0</ele>
        <time>2014-06-30T16:35:54Z</time>
      </trkpt>
      <trkpt lat="40.893333" lon="-4.143650">
        <ele>1266.0</ele>
        <time>2014-06-30T16:35:55Z</time>
      </trkpt>
      <trkpt lat="40.893350" lon="-4.143500">
        <ele>1264.0</ele>
        <time>2014-06-30T16:35:56Z</time>
      </trkpt>
      <trkpt lat="40.893367" lon="-4.143400">
        <ele>1263.0</ele>
        <time>2014-06-30T16:35:57Z</time>
      </trkpt>
      <trkpt lat="40.893367" lon="-4.143283">
        <ele>1265.0</ele>
        <time>2014-06-30T16:35:58Z</time>
      </trkpt>
      <trkpt lat="40.893367" lon="-4.143133">
        <ele>1264.0</ele>
        <time>2014-06-30T16:35:59Z</time>
      </trkpt>
      <trkpt lat="40.893383" lon="-4.142983">
        <ele>1262.0</ele>
        <time>2014-06-30T16:36:00Z</time>
      </trkpt>
      <trkpt lat="40.893400" lon="-4.142817">
        <ele>1261.0</ele>
        <time>2014-06-30T16:36:01Z</time>
      </trkpt>
      <trkpt lat="40.893450" lon="-4.142667">
        <ele>1260.0</ele>
        <time>2014-06-30T16:36:02Z</time>
      </trkpt>
      <trkpt lat="40.893500" lon="-4.142517">
        <ele>1258.0</ele>
        <time>2014-06-30T16:36:03Z</time>
      </trkpt>
      <trkpt lat="40.893517" lon="-4.142367">
        <ele>1256.0</ele>
        <time>2014-06-30T16:36:04Z</time>
      </trkpt>
      <trkpt lat="40.893550" lon="-4.142217">
        <ele>1254.0</ele>
        <time>2014-06-30T16:36:05Z</time>
      </trkpt>
      <trkpt lat="40.893567" lon="-4.142083">
        <ele>1253.0</ele>
        <time>2014-06-30T16:36:06Z</time>
      </trkpt>
      <trkpt lat="40.893600" lon="-4.141983">
        <ele>1252.0</ele>
        <time>2014-06-30T16:36:07Z</time>
      </trkpt>
      <trkpt lat="40.893633" lon="-4.141867">
        <ele>1253.0</ele>
        <time>2014-06-30T16:36:08Z</time>
      </trkpt>
      <trkpt lat="40.893667" lon="-4.141767">
        <ele>1252.0</ele>
        <time>2014-06-30T16:36:09Z</time>
      </trkpt>
      <trkpt lat="40.893700" lon="-4.141633">
        <ele>1252.0</ele>
        <time>2014-06-30T16:36:10Z</time>
      </trkpt>
      <trkpt lat="40.893733" lon="-4.141500">
        <ele>1251.0</ele>
        <time>2014-06-30T16:36:11Z</time>
      </trkpt>
      <trkpt lat="40.893733" lon="-4.141417">
        <ele>1251.0</ele>
        <time>2014-06-30T16:36:12Z</time>
      </trkpt>
      <trkpt lat="40.893733" lon="-4.141333">
        <ele>1250.0</ele>
        <time>2014-06-30T16:36:13Z</time>
      </trkpt>
      <trkpt lat="40.893767" lon="-4.141250">
        <ele>1247.0</ele>
        <time>2014-06-30T16:36:14Z</time>
      </trkpt>
      <trkpt lat="40.893783" lon="-4.141150">
        <ele>1244.0</ele>
        <time>2014-06-30T16:36:15Z</time>
      </trkpt>
      <trkpt lat="40.893817" lon="-4.140983">
        <ele>1242.0</ele>
        <time>2014-06-30T16:36:16Z</time>
      </trkpt>
      <trkpt lat="40.893850" lon="-4.140817">
        <ele>1240.0</ele>
        <time>2014-06-30T16:36:17Z</time>
      </trkpt>
      <trkpt lat="40.893900" lon="-4.140650">
        <ele>1239.0</ele>
        <time>2014-06-30T16:36:18Z</time>
      </trkpt>
      <trkpt lat="40.893950" lon="-4.140500">
        <ele>1238.0</ele>
        <time>2014-06-30T16:36:19Z</time>
      </trkpt>
      <trkpt lat="40.894000" lon="-4.140383">
        <ele>1237.0</ele>
        <time>2014-06-30T16:36:20Z</time>
      </trkpt>
      <trkpt lat="40.894033" lon="-4.140250">
        <ele>1237.0</ele>
        <time>2014-06-30T16:36:21Z</time>
      </trkpt>
      <trkpt lat="40.894083" lon="-4.140133">
        <ele>1236.0</ele>
        <time>2014-06-30T16:36:22Z</time>
      </trkpt>
      <trkpt lat="40.894133" lon="-4.140000">
        <ele>1235.0</ele>
        <time>2014-06-30T16:36:23Z</time>
      </trkpt>
      <trkpt lat="40.894183" lon="-4.139833">
        <ele>1235.0</ele>
        <time>2014-06-30T16:36:24Z</time>
      </trkpt>
      <trkpt lat="40.894233" lon="-4.139683">
        <ele>1235.0</ele>
        <time>2014-06-30T16:36:25Z</time>
      </trkpt>
      <trkpt lat="40.894283" lon="-4.139533">
        <ele>1236.0</ele>
        <time>2014-06-30T16:36:26Z</time>
      </trkpt>
      <trkpt lat="40.894333" lon="-4.139400">
        <ele>1236.0</ele>
        <time>2014-06-30T16:36:27Z</time>
      </trkpt>
      <trkpt lat="40.894383" lon="-4.139283">
        <ele>1236.0</ele>
        <time>2014-06-30T16:36:28Z</time>
      </trkpt>
      <trkpt lat="40.894433" lon="-4.139150">
        <ele>1236.0</ele>
        <time>2014-06-30T16:36:29Z</time>
      </trkpt>
      <trkpt lat="40.894483" lon="-4.139000">
        <ele>1234.0</ele>
        <time>2014-06-30T16:36:30Z</time>
      </trkpt>
      <trkpt lat="40.894533" lon="-4.138850">
        <ele>1234.0</ele>
        <time>2014-06-30T16:36:31Z</time>
      </trkpt>
      <trkpt lat="40.894600" lon="-4.138717">
        <ele>1234.0</ele>
        <time>2014-06-30T16:36:32Z</time>
      </trkpt>
      <trkpt lat="40.894650" lon="-4.138567">
        <ele>1235.0</ele>
        <time>2014-06-30T16:36:33Z</time>
      </trkpt>
      <trkpt lat="40.894683" lon="-4.138433">
        <ele>1235.0</ele>
        <time>2014-06-30T16:36:34Z</time>
      </trkpt>
      <trkpt lat="40.894717" lon="-4.138300">
        <ele>1236.0</ele>
        <time>2014-06-30T16:36:35Z</time>
      </trkpt>
      <trkpt lat="40.894750" lon="-4.138183">
        <ele>1238.0</ele>
        <time>2014-06-30T16:36:36Z</time>
      </trkpt>
      <trkpt lat="40.894783" lon="-4.138100">
        <ele>1239.0</ele>
        <time>2014-06-30T16:36:37Z</time>
      </trkpt>
      <trkpt lat="40.894817" lon="-4.138050">
        <ele>1239.0</ele>
        <time>2014-06-30T16:36:38Z</time>
      </trkpt>
      <trkpt lat="40.894833" lon="-4.138050">
        <ele>1238.0</ele>
        <time>2014-06-30T16:36:39Z</time>
      </trkpt>
      <trkpt lat="40.894833" lon="-4.138050">
        <ele>1239.0</ele>
        <time>2014-06-30T16:36:40Z</time>
      </trkpt>
      <trkpt lat="40.894817" lon="-4.138067">
        <ele>1239.0</ele>
        <time>2014-06-30T16:36:41Z</time>
      </trkpt>
      <trkpt lat="40.894750" lon="-4.138067">
        <ele>1238.0</ele>
        <time>2014-06-30T16:36:42Z</time>
      </trkpt>
      <trkpt lat="40.894650" lon="-4.138033">
        <ele>1238.0</ele>
        <time>2014-06-30T16:36:43Z</time>
      </trkpt>
      <trkpt lat="40.894533" lon="-4.137967">
        <ele>1237.0</ele>
        <time>2014-06-30T16:36:44Z</time>
      </trkpt>
      <trkpt lat="40.894417" lon="-4.137850">
        <ele>1237.0</ele>
        <time>2014-06-30T16:36:45Z</time>
      </trkpt>
      <trkpt lat="40.894317" lon="-4.137683">
        <ele>1237.0</ele>
        <time>2014-06-30T16:36:46Z</time>
      </trkpt>
      <trkpt lat="40.894250" lon="-4.137500">
        <ele>1237.0</ele>
        <time>2014-06-30T16:36:47Z</time>
      </trkpt>
      <trkpt lat="40.894217" lon="-4.137317">
        <ele>1238.0</ele>
        <time>2014-06-30T16:36:48Z</time>
      </trkpt>
      <trkpt lat="40.894233" lon="-4.137150">
        <ele>1238.0</ele>
        <time>2014-06-30T16:36:49Z</time>
      </trkpt>
      <trkpt lat="40.894250" lon="-4.137000">
        <ele>1238.0</ele>
        <time>2014-06-30T16:36:50Z</time>
      </trkpt>
      <trkpt lat="40.894267" lon="-4.136833">
        <ele>1238.0</ele>
        <time>2014-06-30T16:36:51Z</time>
      </trkpt>
      <trkpt lat="40.894300" lon="-4.136667">
        <ele>1237.0</ele>
        <time>2014-06-30T16:36:52Z</time>
      </trkpt>
      <trkpt lat="40.894350" lon="-4.136517">
        <ele>1237.0</ele>
        <time>2014-06-30T16:36:53Z</time>
      </trkpt>
      <trkpt lat="40.894400" lon="-4.136367">
        <ele>1237.0</ele>
        <time>2014-06-30T16:36:54Z</time>
      </trkpt>
      <trkpt lat="40.894467" lon="-4.136233">
        <ele>1237.0</ele>
        <time>2014-06-30T16:36:55Z</time>
      </trkpt>
      <trkpt lat="40.894533" lon="-4.136117">
        <ele>1237.0</ele>
        <time>2014-06-30T16:36:56Z</time>
      </trkpt>
      <trkpt lat="40.894600" lon="-4.136000">
        <ele>1237.0</ele>
        <time>2014-06-30T16:36:57Z</time>
      </trkpt>
      <trkpt lat="40.894667" lon="-4.135883">
        <ele>1236.0</ele>
        <time>2014-06-30T16:36:58Z</time>
      </trkpt>
      <trkpt lat="40.894750" lon="-4.135800">
        <ele>1237.0</ele>
        <time>2014-06-30T16:36:59Z</time>
      </trkpt>
      <trkpt lat="40.894800" lon="-4.135767">
        <ele>1236.0</ele>
        <time>2014-06-30T16:37:00Z</time>
      </trkpt>
      <trkpt lat="40.894833" lon="-4.135783">
        <ele>1236.0</ele>
        <time>2014-06-30T16:37:01Z</time>
      </trkpt>
      <trkpt lat="40.894833" lon="-4.135817">
        <ele>1235.0</ele>
        <time>2014-06-30T16:37:02Z</time>
      </trkpt>
      <trkpt lat="40.894800" lon="-4.135833">
        <ele>1236.0</ele>
        <time>2014-06-30T16:37:03Z</time>
      </trkpt>
      <trkpt lat="40.894733" lon="-4.135817">
        <ele>1236.0</ele>
        <time>2014-06-30T16:37:04Z</time>
      </trkpt>
      <trkpt lat="40.894650" lon="-4.135733">
        <ele>1237.0</ele>
        <time>2014-06-30T16:37:05Z</time>
      </trkpt>
      <trkpt lat="40.894567" lon="-4.135617">
        <ele>1237.0</ele>
        <time>2014-06-30T16:37:06Z</time>
      </trkpt>
      <trkpt lat="40.894517" lon="-4.135467">
        <ele>1237.0</ele>
        <time>2014-06-30T16:37:07Z</time>
      </trkpt>
      <trkpt lat="40.894483" lon="-4.135300">
        <ele>1238.0</ele>
        <time>2014-06-30T16:37:08Z</time>
      </trkpt>
      <trkpt lat="40.894517" lon="-4.135133">
        <ele>1238.0</ele>
        <time>2014-06-30T16:37:09Z</time>
      </trkpt>
      <trkpt lat="40.894567" lon="-4.135000">
        <ele>1237.0</ele>
        <time>2014-06-30T16:37:10Z</time>
      </trkpt>
      <trkpt lat="40.894650" lon="-4.134900">
        <ele>1237.0</ele>
        <time>2014-06-30T16:37:11Z</time>
      </trkpt>
      <trkpt lat="40.894733" lon="-4.134800">
        <ele>1236.0</ele>
        <time>2014-06-30T16:37:12Z</time>
      </trkpt>
      <trkpt lat="40.894817" lon="-4.134683">
        <ele>1236.0</ele>
        <time>2014-06-30T16:37:13Z</time>
      </trkpt>
      <trkpt lat="40.894900" lon="-4.134550">
        <ele>1235.0</ele>
        <time>2014-06-30T16:37:14Z</time>
      </trkpt>
      <trkpt lat="40.894967" lon="-4.134417">
        <ele>1235.0</ele>
        <time>2014-06-30T16:37:15Z</time>
      </trkpt>
      <trkpt lat="40.895050" lon="-4.134283">
        <ele>1235.0</ele>
        <time>2014-06-30T16:37:16Z</time>
      </trkpt>
      <trkpt lat="40.895117" lon="-4.134183">
        <ele>1235.0</ele>
        <time>2014-06-30T16:37:17Z</time>
      </trkpt>
      <trkpt lat="40.895200" lon="-4.134083">
        <ele>1235.0</ele>
        <time>2014-06-30T16:37:18Z</time>
      </trkpt>
      <trkpt lat="40.895267" lon="-4.133967">
        <ele>1235.0</ele>
        <time>2014-06-30T16:37:19Z</time>
      </trkpt>
      <trkpt lat="40.895317" lon="-4.133850">
        <ele>1236.0</ele>
        <time>2014-06-30T16:37:20Z</time>
      </trkpt>
      <trkpt lat="40.895383" lon="-4.133767">
        <ele>1236.0</ele>
        <time>2014-06-30T16:37:21Z</time>
      </trkpt>
      <trkpt lat="40.895450" lon="-4.133717">
        <ele>1235.0</ele>
        <time>2014-06-30T16:37:22Z</time>
      </trkpt>
      <trkpt lat="40.895500" lon="-4.133717">
        <ele>1233.0</ele>
        <time>2014-06-30T16:37:23Z</time>
      </trkpt>
      <trkpt lat="40.895550" lon="-4.133750">
        <ele>1231.0</ele>
        <time>2014-06-30T16:37:24Z</time>
      </trkpt>
      <trkpt lat="40.895567" lon="-4.133800">
        <ele>1230.0</ele>
        <time>2014-06-30T16:37:25Z</time>
      </trkpt>
      <trkpt lat="40.895550" lon="-4.133867">
        <ele>1230.0</ele>
        <time>2014-06-30T16:37:26Z</time>
      </trkpt>
      <trkpt lat="40.895500" lon="-4.133883">
        <ele>1230.0</ele>
        <time>2014-06-30T16:37:27Z</time>
      </trkpt>
      <trkpt lat="40.895417" lon="-4.133867">
        <ele>1229.0</ele>
        <time>2014-06-30T16:37:28Z</time>
      </trkpt>
      <trkpt lat="40.895317" lon="-4.133783">
        <ele>1227.0</ele>
        <time>2014-06-30T16:37:29Z</time>
      </trkpt>
      <trkpt lat="40.895233" lon="-4.133650">
        <ele>1227.0</ele>
        <time>2014-06-30T16:37:30Z</time>
      </trkpt>
      <trkpt lat="40.895183" lon="-4.133483">
        <ele>1226.0</ele>
        <time>2014-06-30T16:37:31Z</time>
      </trkpt>
      <trkpt lat="40.895183" lon="-4.133317">
        <ele>1226.0</ele>
        <time>2014-06-30T16:37:32Z</time>
      </trkpt>
      <trkpt lat="40.895183" lon="-4.133150">
        <ele>1227.0</ele>
        <time>2014-06-30T16:37:33Z</time>
      </trkpt>
      <trkpt lat="40.895183" lon="-4.133000">
        <ele>1226.0</ele>
        <time>2014-06-30T16:37:34Z</time>
      </trkpt>
      <trkpt lat="40.895167" lon="-4.132850">
        <ele>1226.0</ele>
        <time>2014-06-30T16:37:35Z</time>
      </trkpt>
      <trkpt lat="40.895150" lon="-4.132700">
        <ele>1226.0</ele>
        <time>2014-06-30T16:37:36Z</time>
      </trkpt>
      <trkpt lat="40.895150" lon="-4.132533">
        <ele>1226.0</ele>
        <time>2014-06-30T16:37:37Z</time>
      </trkpt>
      <trkpt lat="40.895150" lon="-4.132367">
        <ele>1225.0</ele>
        <time>2014-06-30T16:37:38Z</time>
      </trkpt>
      <trkpt lat="40.895167" lon="-4.132200">
        <ele>1224.0</ele>
        <time>2014-06-30T16:37:39Z</time>
      </trkpt>
      <trkpt lat="40.895200" lon="-4.132033">
        <ele>1223.0</ele>
        <time>2014-06-30T16:37:40Z</time>
      </trkpt>
      <trkpt lat="40.895233" lon="-4.131850">
        <ele>1223.0</ele>
        <time>2014-06-30T16:37:41Z</time>
      </trkpt>
      <trkpt lat="40.895267" lon="-4.131683">
        <ele>1223.0</ele>
        <time>2014-06-30T16:37:42Z</time>
      </trkpt>
      <trkpt lat="40.895300" lon="-4.131517">
        <ele>1223.0</ele>
        <time>2014-06-30T16:37:43Z</time>
      </trkpt>
      <trkpt lat="40.895333" lon="-4.131350">
        <ele>1223.0</ele>
        <time>2014-06-30T16:37:44Z</time>
      </trkpt>
      <trkpt lat="40.895367" lon="-4.131200">
        <ele>1223.0</ele>
        <time>2014-06-30T16:37:45Z</time>
      </trkpt>
      <trkpt lat="40.895400" lon="-4.131050">
        <ele>1222.0</ele>
        <time>2014-06-30T16:37:46Z</time>
      </trkpt>
      <trkpt lat="40.895450" lon="-4.130883">
        <ele>1221.0</ele>
        <time>2014-06-30T16:37:47Z</time>
      </trkpt>
      <trkpt lat="40.895517" lon="-4.130750">
        <ele>1220.0</ele>
        <time>2014-06-30T16:37:48Z</time>
      </trkpt>
      <trkpt lat="40.895600" lon="-4.130617">
        <ele>1219.0</ele>
        <time>2014-06-30T16:37:49Z</time>
      </trkpt>
      <trkpt lat="40.895683" lon="-4.130500">
        <ele>1218.0</ele>
        <time>2014-06-30T16:37:50Z</time>
      </trkpt>
      <trkpt lat="40.895750" lon="-4.130400">
        <ele>1218.0</ele>
        <time>2014-06-30T16:37:51Z</time>
      </trkpt>
      <trkpt lat="40.895817" lon="-4.130300">
        <ele>1218.0</ele>
        <time>2014-06-30T16:37:52Z</time>
      </trkpt>
      <trkpt lat="40.895900" lon="-4.130233">
        <ele>1219.0</ele>
        <time>2014-06-30T16:37:53Z</time>
      </trkpt>
      <trkpt lat="40.895983" lon="-4.130183">
        <ele>1219.0</ele>
        <time>2014-06-30T16:37:54Z</time>
      </trkpt>
      <trkpt lat="40.896067" lon="-4.130133">
        <ele>1219.0</ele>
        <time>2014-06-30T16:37:55Z</time>
      </trkpt>
      <trkpt lat="40.896150" lon="-4.130083">
        <ele>1220.0</ele>
        <time>2014-06-30T16:37:56Z</time>
      </trkpt>
      <trkpt lat="40.896250" lon="-4.130050">
        <ele>1221.0</ele>
        <time>2014-06-30T16:37:57Z</time>
      </trkpt>
      <trkpt lat="40.896333" lon="-4.130033">
        <ele>1223.0</ele>
        <time>2014-06-30T16:37:58Z</time>
      </trkpt>
      <trkpt lat="40.896417" lon="-4.130033">
        <ele>1224.0</ele>
        <time>2014-06-30T16:37:59Z</time>
      </trkpt>
      <trkpt lat="40.896500" lon="-4.130033">
        <ele>1226.0</ele>
        <time>2014-06-30T16:38:00Z</time>
      </trkpt>
      <trkpt lat="40.896567" lon="-4.130033">
        <ele>1229.0</ele>
        <time>2014-06-30T16:38:01Z</time>
      </trkpt>
      <trkpt lat="40.896617" lon="-4.130033">
        <ele>1230.0</ele>
        <time>2014-06-30T16:38:02Z</time>
      </trkpt>
      <trkpt lat="40.896683" lon="-4.130050">
        <ele>1232.0</ele>
        <time>2014-06-30T16:38:03Z</time>
      </trkpt>
      <trkpt lat="40.896733" lon="-4.130067">
        <ele>1233.0</ele>
        <time>2014-06-30T16:38:04Z</time>
      </trkpt>
      <trkpt lat="40.896783" lon="-4.130100">
        <ele>1234.0</ele>
        <time>2014-06-30T16:38:05Z</time>
      </trkpt>
      <trkpt lat="40.896850" lon="-4.130133">
        <ele>1232.0</ele>
        <time>2014-06-30T16:38:06Z</time>
      </trkpt>
      <trkpt lat="40.896850" lon="-4.130183">
        <ele>1232.0</ele>
        <time>2014-06-30T16:38:07Z</time>
      </trkpt>
      <trkpt lat="40.896850" lon="-4.130217">
        <ele>1232.0</ele>
        <time>2014-06-30T16:38:08Z</time>
      </trkpt>
      <trkpt lat="40.896800" lon="-4.130250">
        <ele>1233.0</ele>
        <time>2014-06-30T16:38:09Z</time>
      </trkpt>
      <trkpt lat="40.896733" lon="-4.130250">
        <ele>1234.0</ele>
        <time>2014-06-30T16:38:10Z</time>
      </trkpt>
      <trkpt lat="40.896650" lon="-4.130217">
        <ele>1234.0</ele>
        <time>2014-06-30T16:38:11Z</time>
      </trkpt>
      <trkpt lat="40.896567" lon="-4.130133">
        <ele>1235.0</ele>
        <time>2014-06-30T16:38:12Z</time>
      </trkpt>
      <trkpt lat="40.896500" lon="-4.129983">
        <ele>1235.0</ele>
        <time>2014-06-30T16:38:13Z</time>
      </trkpt>
      <trkpt lat="40.896500" lon="-4.129800">
        <ele>1235.0</ele>
        <time>2014-06-30T16:38:14Z</time>
      </trkpt>
      <trkpt lat="40.896550" lon="-4.129650">
        <ele>1236.0</ele>
        <time>2014-06-30T16:38:15Z</time>
      </trkpt>
      <trkpt lat="40.896633" lon="-4.129533">
        <ele>1237.0</ele>
        <time>2014-06-30T16:38:16Z</time>
      </trkpt>
      <trkpt lat="40.896733" lon="-4.129467">
        <ele>1237.0</ele>
        <time>2014-06-30T16:38:17Z</time>
      </trkpt>
      <trkpt lat="40.896833" lon="-4.129400">
        <ele>1239.0</ele>
        <time>2014-06-30T16:38:18Z</time>
      </trkpt>
      <trkpt lat="40.896917" lon="-4.129333">
        <ele>1240.0</ele>
        <time>2014-06-30T16:38:19Z</time>
      </trkpt>
      <trkpt lat="40.896983" lon="-4.129267">
        <ele>1242.0</ele>
        <time>2014-06-30T16:38:20Z</time>
      </trkpt>
      <trkpt lat="40.897067" lon="-4.129183">
        <ele>1242.0</ele>
        <time>2014-06-30T16:38:21Z</time>
      </trkpt>
      <trkpt lat="40.897150" lon="-4.129133">
        <ele>1244.0</ele>
        <time>2014-06-30T16:38:22Z</time>
      </trkpt>
      <trkpt lat="40.897233" lon="-4.129083">
        <ele>1248.0</ele>
        <time>2014-06-30T16:38:23Z</time>
      </trkpt>
      <trkpt lat="40.897283" lon="-4.129067">
        <ele>1252.0</ele>
        <time>2014-06-30T16:38:24Z</time>
      </trkpt>
      <trkpt lat="40.897300" lon="-4.129067">
        <ele>1254.0</ele>
        <time>2014-06-30T16:38:25Z</time>
      </trkpt>
      <trkpt lat="40.897333" lon="-4.129100">
        <ele>1255.0</ele>
        <time>2014-06-30T16:38:26Z</time>
      </trkpt>
      <trkpt lat="40.897367" lon="-4.129133">
        <ele>1256.0</ele>
        <time>2014-06-30T16:38:27Z</time>
      </trkpt>
      <trkpt lat="40.897383" lon="-4.129167">
        <ele>1257.0</ele>
        <time>2014-06-30T16:38:28Z</time>
      </trkpt>
      <trkpt lat="40.897383" lon="-4.129200">
        <ele>1258.0</ele>
        <time>2014-06-30T16:38:29Z</time>
      </trkpt>
      <trkpt lat="40.897333" lon="-4.129233">
        <ele>1258.0</ele>
        <time>2014-06-30T16:38:30Z</time>
      </trkpt>
      <trkpt lat="40.897267" lon="-4.129283">
        <ele>1259.0</ele>
        <time>2014-06-30T16:38:31Z</time>
      </trkpt>
      <trkpt lat="40.897200" lon="-4.129283">
        <ele>1260.0</ele>
        <time>2014-06-30T16:38:32Z</time>
      </trkpt>
      <trkpt lat="40.897117" lon="-4.129250">
        <ele>1261.0</ele>
        <time>2014-06-30T16:38:33Z</time>
      </trkpt>
      <trkpt lat="40.897033" lon="-4.129150">
        <ele>1261.0</ele>
        <time>2014-06-30T16:38:34Z</time>
      </trkpt>
      <trkpt lat="40.896983" lon="-4.129000">
        <ele>1262.0</ele>
        <time>2014-06-30T16:38:35Z</time>
      </trkpt>
      <trkpt lat="40.896983" lon="-4.128833">
        <ele>1263.0</ele>
        <time>2014-06-30T16:38:36Z</time>
      </trkpt>
      <trkpt lat="40.897050" lon="-4.128700">
        <ele>1264.0</ele>
        <time>2014-06-30T16:38:37Z</time>
      </trkpt>
      <trkpt lat="40.897117" lon="-4.128600">
        <ele>1266.0</ele>
        <time>2014-06-30T16:38:38Z</time>
      </trkpt>
      <trkpt lat="40.897183" lon="-4.128517">
        <ele>1268.0</ele>
        <time>2014-06-30T16:38:39Z</time>
      </trkpt>
      <trkpt lat="40.897233" lon="-4.128467">
        <ele>1271.0</ele>
        <time>2014-06-30T16:38:40Z</time>
      </trkpt>
      <trkpt lat="40.897267" lon="-4.128417">
        <ele>1270.0</ele>
        <time>2014-06-30T16:38:41Z</time>
      </trkpt>
      <trkpt lat="40.897317" lon="-4.128383">
        <ele>1271.0</ele>
        <time>2014-06-30T16:38:42Z</time>
      </trkpt>
      <trkpt lat="40.897367" lon="-4.128350">
        <ele>1269.0</ele>
        <time>2014-06-30T16:38:43Z</time>
      </trkpt>
      <trkpt lat="40.897417" lon="-4.128333">
        <ele>1269.0</ele>
        <time>2014-06-30T16:38:44Z</time>
      </trkpt>
      <trkpt lat="40.897450" lon="-4.128333">
        <ele>1269.0</ele>
        <time>2014-06-30T16:38:45Z</time>
      </trkpt>
      <trkpt lat="40.897467" lon="-4.128383">
        <ele>1268.0</ele>
        <time>2014-06-30T16:38:46Z</time>
      </trkpt>
      <trkpt lat="40.897433" lon="-4.128450">
        <ele>1268.0</ele>
        <time>2014-06-30T16:38:47Z</time>
      </trkpt>
      <trkpt lat="40.897367" lon="-4.128500">
        <ele>1267.0</ele>
        <time>2014-06-30T16:38:48Z</time>
      </trkpt>
      <trkpt lat="40.897267" lon="-4.128483">
        <ele>1266.0</ele>
        <time>2014-06-30T16:38:49Z</time>
      </trkpt>
      <trkpt lat="40.897150" lon="-4.128383">
        <ele>1264.0</ele>
        <time>2014-06-30T16:38:50Z</time>
      </trkpt>
      <trkpt lat="40.897083" lon="-4.128217">
        <ele>1262.0</ele>
        <time>2014-06-30T16:38:51Z</time>
      </trkpt>
      <trkpt lat="40.897067" lon="-4.128017">
        <ele>1260.0</ele>
        <time>2014-06-30T16:38:52Z</time>
      </trkpt>
      <trkpt lat="40.897100" lon="-4.127850">
        <ele>1259.0</ele>
        <time>2014-06-30T16:38:53Z</time>
      </trkpt>
      <trkpt lat="40.897167" lon="-4.127700">
        <ele>1258.0</ele>
        <time>2014-06-30T16:38:54Z</time>
      </trkpt>
      <trkpt lat="40.897217" lon="-4.127567">
        <ele>1258.0</ele>
        <time>2014-06-30T16:38:55Z</time>
      </trkpt>
      <trkpt lat="40.897267" lon="-4.127433">
        <ele>1257.0</ele>
        <time>2014-06-30T16:38:56Z</time>
      </trkpt>
      <trkpt lat="40.897300" lon="-4.127283">
        <ele>1256.0</ele>
        <time>2014-06-30T16:38:57Z</time>
      </trkpt>
      <trkpt lat="40.897350" lon="-4.127150">
        <ele>1255.0</ele>
        <time>2014-06-30T16:38:58Z</time>
      </trkpt>
      <trkpt lat="40.897417" lon="-4.127050">
        <ele>1251.0</ele>
        <time>2014-06-30T16:38:59Z</time>
      </trkpt>
      <trkpt lat="40.897500" lon="-4.126933">
        <ele>1249.0</ele>
        <time>2014-06-30T16:39:00Z</time>
      </trkpt>
      <trkpt lat="40.897550" lon="-4.126800">
        <ele>1247.0</ele>
        <time>2014-06-30T16:39:01Z</time>
      </trkpt>
      <trkpt lat="40.897617" lon="-4.126667">
        <ele>1246.0</ele>
        <time>2014-06-30T16:39:02Z</time>
      </trkpt>
      <trkpt lat="40.897667" lon="-4.126517">
        <ele>1245.0</ele>
        <time>2014-06-30T16:39:03Z</time>
      </trkpt>
      <trkpt lat="40.897733" lon="-4.126400">
        <ele>1243.0</ele>
        <time>2014-06-30T16:39:04Z</time>
      </trkpt>
      <trkpt lat="40.897800" lon="-4.126283">
        <ele>1241.0</ele>
        <time>2014-06-30T16:39:05Z</time>
      </trkpt>
      <trkpt lat="40.897883" lon="-4.126200">
        <ele>1240.0</ele>
        <time>2014-06-30T16:39:06Z</time>
      </trkpt>
      <trkpt lat="40.897950" lon="-4.126083">
        <ele>1239.0</ele>
        <time>2014-06-30T16:39:07Z</time>
      </trkpt>
      <trkpt lat="40.897983" lon="-4.125983">
        <ele>1239.0</ele>
        <time>2014-06-30T16:39:08Z</time>
      </trkpt>
      <trkpt lat="40.898017" lon="-4.125900">
        <ele>1243.0</ele>
        <time>2014-06-30T16:39:09Z</time>
      </trkpt>
      <trkpt lat="40.898050" lon="-4.125817">
        <ele>1243.0</ele>
        <time>2014-06-30T16:39:10Z</time>
      </trkpt>
      <trkpt lat="40.898117" lon="-4.125733">
        <ele>1242.0</ele>
        <time>2014-06-30T16:39:11Z</time>
      </trkpt>
      <trkpt lat="40.898183" lon="-4.125650">
        <ele>1242.0</ele>
        <time>2014-06-30T16:39:12Z</time>
      </trkpt>
      <trkpt lat="40.898267" lon="-4.125600">
        <ele>1241.0</ele>
        <time>2014-06-30T16:39:13Z</time>
      </trkpt>
      <trkpt lat="40.898350" lon="-4.125567">
        <ele>1241.0</ele>
        <time>2014-06-30T16:39:14Z</time>
      </trkpt>
      <trkpt lat="40.898400" lon="-4.125583">
        <ele>1240.0</ele>
        <time>2014-06-30T16:39:15Z</time>
      </trkpt>
      <trkpt lat="40.898433" lon="-4.125600">
        <ele>1239.0</ele>
        <time>2014-06-30T16:39:16Z</time>
      </trkpt>
      <trkpt lat="40.898467" lon="-4.125600">
        <ele>1238.0</ele>
        <time>2014-06-30T16:39:17Z</time>
      </trkpt>
      <trkpt lat="40.898517" lon="-4.125567">
        <ele>1238.0</ele>
        <time>2014-06-30T16:39:18Z</time>
      </trkpt>
      <trkpt lat="40.898583" lon="-4.125533">
        <ele>1237.0</ele>
        <time>2014-06-30T16:39:19Z</time>
      </trkpt>
      <trkpt lat="40.898633" lon="-4.125517">
        <ele>1236.0</ele>
        <time>2014-06-30T16:39:20Z</time>
      </trkpt>
      <trkpt lat="40.898683" lon="-4.125533">
        <ele>1235.0</ele>
        <time>2014-06-30T16:39:21Z</time>
      </trkpt>
      <trkpt lat="40.898700" lon="-4.125567">
        <ele>1235.0</ele>
        <time>2014-06-30T16:39:22Z</time>
      </trkpt>
      <trkpt lat="40.898733" lon="-4.125617">
        <ele>1234.0</ele>
        <time>2014-06-30T16:39:23Z</time>
      </trkpt>
      <trkpt lat="40.898767" lon="-4.125650">
        <ele>1233.0</ele>
        <time>2014-06-30T16:39:24Z</time>
      </trkpt>
      <trkpt lat="40.898817" lon="-4.125700">
        <ele>1232.0</ele>
        <time>2014-06-30T16:39:25Z</time>
      </trkpt>
      <trkpt lat="40.898850" lon="-4.125750">
        <ele>1232.0</ele>
        <time>2014-06-30T16:39:26Z</time>
      </trkpt>
      <trkpt lat="40.898900" lon="-4.125817">
        <ele>1230.0</ele>
        <time>2014-06-30T16:39:27Z</time>
      </trkpt>
      <trkpt lat="40.898950" lon="-4.125883">
        <ele>1229.0</ele>
        <time>2014-06-30T16:39:28Z</time>
      </trkpt>
      <trkpt lat="40.899000" lon="-4.125950">
        <ele>1228.0</ele>
        <time>2014-06-30T16:39:29Z</time>
      </trkpt>
      <trkpt lat="40.899067" lon="-4.125983">
        <ele>1227.0</ele>
        <time>2014-06-30T16:39:30Z</time>
      </trkpt>
      <trkpt lat="40.899117" lon="-4.126033">
        <ele>1226.0</ele>
        <time>2014-06-30T16:39:31Z</time>
      </trkpt>
      <trkpt lat="40.899183" lon="-4.126100">
        <ele>1226.0</ele>
        <time>2014-06-30T16:39:32Z</time>
      </trkpt>
      <trkpt lat="40.899250" lon="-4.126150">
        <ele>1225.0</ele>
        <time>2014-06-30T16:39:33Z</time>
      </trkpt>
      <trkpt lat="40.899300" lon="-4.126217">
        <ele>1225.0</ele>
        <time>2014-06-30T16:39:34Z</time>
      </trkpt>
      <trkpt lat="40.899350" lon="-4.126267">
        <ele>1224.0</ele>
        <time>2014-06-30T16:39:35Z</time>
      </trkpt>
      <trkpt lat="40.899400" lon="-4.126300">
        <ele>1224.0</ele>
        <time>2014-06-30T16:39:36Z</time>
      </trkpt>
      <trkpt lat="40.899467" lon="-4.126317">
        <ele>1223.0</ele>
        <time>2014-06-30T16:39:37Z</time>
      </trkpt>
      <trkpt lat="40.899500" lon="-4.126333">
        <ele>1223.0</ele>
        <time>2014-06-30T16:39:38Z</time>
      </trkpt>
      <trkpt lat="40.899550" lon="-4.126367">
        <ele>1222.0</ele>
        <time>2014-06-30T16:39:39Z</time>
      </trkpt>
      <trkpt lat="40.899600" lon="-4.126400">
        <ele>1222.0</ele>
        <time>2014-06-30T16:39:40Z</time>
      </trkpt>
      <trkpt lat="40.899633" lon="-4.126433">
        <ele>1221.0</ele>
        <time>2014-06-30T16:39:41Z</time>
      </trkpt>
      <trkpt lat="40.899683" lon="-4.126483">
        <ele>1221.0</ele>
        <time>2014-06-30T16:39:42Z</time>
      </trkpt>
      <trkpt lat="40.899733" lon="-4.126550">
        <ele>1221.0</ele>
        <time>2014-06-30T16:39:43Z</time>
      </trkpt>
      <trkpt lat="40.899783" lon="-4.126617">
        <ele>1220.0</ele>
        <time>2014-06-30T16:39:44Z</time>
      </trkpt>
      <trkpt lat="40.899817" lon="-4.126667">
        <ele>1220.0</ele>
        <time>2014-06-30T16:39:45Z</time>
      </trkpt>
      <trkpt lat="40.899850" lon="-4.126700">
        <ele>1220.0</ele>
        <time>2014-06-30T16:39:46Z</time>
      </trkpt>
      <trkpt lat="40.899883" lon="-4.126717">
        <ele>1220.0</ele>
        <time>2014-06-30T16:39:47Z</time>
      </trkpt>
      <trkpt lat="40.899917" lon="-4.126750">
        <ele>1220.0</ele>
        <time>2014-06-30T16:39:48Z</time>
      </trkpt>
      <trkpt lat="40.899950" lon="-4.126783">
        <ele>1219.0</ele>
        <time>2014-06-30T16:39:49Z</time>
      </trkpt>
      <trkpt lat="40.899967" lon="-4.126833">
        <ele>1219.0</ele>
        <time>2014-06-30T16:39:50Z</time>
      </trkpt>
      <trkpt lat="40.899983" lon="-4.126900">
        <ele>1219.0</ele>
        <time>2014-06-30T16:39:51Z</time>
      </trkpt>
      <trkpt lat="40.900000" lon="-4.126950">
        <ele>1219.0</ele>
        <time>2014-06-30T16:39:52Z</time>
      </trkpt>
      <trkpt lat="40.900017" lon="-4.127000">
        <ele>1218.0</ele>
        <time>2014-06-30T16:39:53Z</time>
      </trkpt>
      <trkpt lat="40.900067" lon="-4.127050">
        <ele>1218.0</ele>
        <time>2014-06-30T16:39:54Z</time>
      </trkpt>
      <trkpt lat="40.900083" lon="-4.127083">
        <ele>1218.0</ele>
        <time>2014-06-30T16:39:55Z</time>
      </trkpt>
      <trkpt lat="40.900083" lon="-4.127150">
        <ele>1217.0</ele>
        <time>2014-06-30T16:39:56Z</time>
      </trkpt>
      <trkpt lat="40.900083" lon="-4.127200">
        <ele>1217.0</ele>
        <time>2014-06-30T16:39:57Z</time>
      </trkpt>
      <trkpt lat="40.900100" lon="-4.127250">
        <ele>1216.0</ele>
        <time>2014-06-30T16:39:58Z</time>
      </trkpt>
      <trkpt lat="40.900150" lon="-4.127317">
        <ele>1215.0</ele>
        <time>2014-06-30T16:39:59Z</time>
      </trkpt>
      <trkpt lat="40.900200" lon="-4.127367">
        <ele>1214.0</ele>
        <time>2014-06-30T16:40:00Z</time>
      </trkpt>
      <trkpt lat="40.900250" lon="-4.127433">
        <ele>1214.0</ele>
        <time>2014-06-30T16:40:01Z</time>
      </trkpt>
      <trkpt lat="40.900317" lon="-4.127483">
        <ele>1213.0</ele>
        <time>2014-06-30T16:40:02Z</time>
      </trkpt>
      <trkpt lat="40.900367" lon="-4.127517">
        <ele>1212.0</ele>
        <time>2014-06-30T16:40:03Z</time>
      </trkpt>
      <trkpt lat="40.900417" lon="-4.127550">
        <ele>1211.0</ele>
        <time>2014-06-30T16:40:04Z</time>
      </trkpt>
      <trkpt lat="40.900467" lon="-4.127567">
        <ele>1210.0</ele>
        <time>2014-06-30T16:40:05Z</time>
      </trkpt>
      <trkpt lat="40.900500" lon="-4.127600">
        <ele>1209.0</ele>
        <time>2014-06-30T16:40:06Z</time>
      </trkpt>
      <trkpt lat="40.900533" lon="-4.127650">
        <ele>1208.0</ele>
        <time>2014-06-30T16:40:07Z</time>
      </trkpt>
      <trkpt lat="40.900583" lon="-4.127700">
        <ele>1208.0</ele>
        <time>2014-06-30T16:40:08Z</time>
      </trkpt>
      <trkpt lat="40.900633" lon="-4.127733">
        <ele>1207.0</ele>
        <time>2014-06-30T16:40:09Z</time>
      </trkpt>
      <trkpt lat="40.900683" lon="-4.127750">
        <ele>1206.0</ele>
        <time>2014-06-30T16:40:10Z</time>
      </trkpt>
      <trkpt lat="40.900733" lon="-4.127783">
        <ele>1206.0</ele>
        <time>2014-06-30T16:40:11Z</time>
      </trkpt>
      <trkpt lat="40.900767" lon="-4.127800">
        <ele>1205.0</ele>
        <time>2014-06-30T16:40:12Z</time>
      </trkpt>
      <trkpt lat="40.900800" lon="-4.127817">
        <ele>1204.0</ele>
        <time>2014-06-30T16:40:13Z</time>
      </trkpt>
      <trkpt lat="40.900867" lon="-4.127833">
        <ele>1203.0</ele>
        <time>2014-06-30T16:40:14Z</time>
      </trkpt>
      <trkpt lat="40.900933" lon="-4.127833">
        <ele>1203.0</ele>
        <time>2014-06-30T16:40:15Z</time>
      </trkpt>
      <trkpt lat="40.900967" lon="-4.127850">
        <ele>1202.0</ele>
        <time>2014-06-30T16:40:16Z</time>
      </trkpt>
      <trkpt lat="40.900983" lon="-4.127867">
        <ele>1202.0</ele>
        <time>2014-06-30T16:40:17Z</time>
      </trkpt>
      <trkpt lat="40.901000" lon="-4.127883">
        <ele>1201.0</ele>
        <time>2014-06-30T16:40:18Z</time>
      </trkpt>
      <trkpt lat="40.901033" lon="-4.127900">
        <ele>1201.0</ele>
        <time>2014-06-30T16:40:19Z</time>
      </trkpt>
      <trkpt lat="40.901083" lon="-4.127917">
        <ele>1200.0</ele>
        <time>2014-06-30T16:40:20Z</time>
      </trkpt>
      <trkpt lat="40.901117" lon="-4.127950">
        <ele>1199.0</ele>
        <time>2014-06-30T16:40:21Z</time>
      </trkpt>
      <trkpt lat="40.901150" lon="-4.128000">
        <ele>1199.0</ele>
        <time>2014-06-30T16:40:22Z</time>
      </trkpt>
      <trkpt lat="40.901167" lon="-4.128033">
        <ele>1198.0</ele>
        <time>2014-06-30T16:40:23Z</time>
      </trkpt>
      <trkpt lat="40.901183" lon="-4.128067">
        <ele>1198.0</ele>
        <time>2014-06-30T16:40:24Z</time>
      </trkpt>
      <trkpt lat="40.901217" lon="-4.128100">
        <ele>1197.0</ele>
        <time>2014-06-30T16:40:25Z</time>
      </trkpt>
      <trkpt lat="40.901250" lon="-4.128133">
        <ele>1196.0</ele>
        <time>2014-06-30T16:40:26Z</time>
      </trkpt>
      <trkpt lat="40.901317" lon="-4.128150">
        <ele>1195.0</ele>
        <time>2014-06-30T16:40:27Z</time>
      </trkpt>
      <trkpt lat="40.901367" lon="-4.128167">
        <ele>1195.0</ele>
        <time>2014-06-30T16:40:28Z</time>
      </trkpt>
      <trkpt lat="40.901417" lon="-4.128183">
        <ele>1194.0</ele>
        <time>2014-06-30T16:40:29Z</time>
      </trkpt>
      <trkpt lat="40.901450" lon="-4.128217">
        <ele>1194.0</ele>
        <time>2014-06-30T16:40:30Z</time>
      </trkpt>
      <trkpt lat="40.901483" lon="-4.128233">
        <ele>1193.0</ele>
        <time>2014-06-30T16:40:31Z</time>
      </trkpt>
      <trkpt lat="40.901517" lon="-4.128267">
        <ele>1192.0</ele>
        <time>2014-06-30T16:40:32Z</time>
      </trkpt>
      <trkpt lat="40.901567" lon="-4.128300">
        <ele>1192.0</ele>
        <time>2014-06-30T16:40:33Z</time>
      </trkpt>
      <trkpt lat="40.901633" lon="-4.128317">
        <ele>1191.0</ele>
        <time>2014-06-30T16:40:34Z</time>
      </trkpt>
      <trkpt lat="40.901683" lon="-4.128350">
        <ele>1191.0</ele>
        <time>2014-06-30T16:40:35Z</time>
      </trkpt>
      <trkpt lat="40.901733" lon="-4.128367">
        <ele>1190.0</ele>
        <time>2014-06-30T16:40:36Z</time>
      </trkpt>
      <trkpt lat="40.901767" lon="-4.128383">
        <ele>1189.0</ele>
        <time>2014-06-30T16:40:37Z</time>
      </trkpt>
      <trkpt lat="40.901833" lon="-4.128400">
        <ele>1189.0</ele>
        <time>2014-06-30T16:40:38Z</time>
      </trkpt>
      <trkpt lat="40.901883" lon="-4.128417">
        <ele>1188.0</ele>
        <time>2014-06-30T16:40:39Z</time>
      </trkpt>
      <trkpt lat="40.901950" lon="-4.128433">
        <ele>1187.0</ele>
        <time>2014-06-30T16:40:40Z</time>
      </trkpt>
      <trkpt lat="40.902000" lon="-4.128433">
        <ele>1186.0</ele>
        <time>2014-06-30T16:40:41Z</time>
      </trkpt>
      <trkpt lat="40.902050" lon="-4.128433">
        <ele>1185.0</ele>
        <time>2014-06-30T16:40:42Z</time>
      </trkpt>
      <trkpt lat="40.902083" lon="-4.128467">
        <ele>1185.0</ele>
        <time>2014-06-30T16:40:43Z</time>
      </trkpt>
      <trkpt lat="40.902117" lon="-4.128500">
        <ele>1184.0</ele>
        <time>2014-06-30T16:40:44Z</time>
      </trkpt>
      <trkpt lat="40.902167" lon="-4.128517">
        <ele>1184.0</ele>
        <time>2014-06-30T16:40:45Z</time>
      </trkpt>
      <trkpt lat="40.902233" lon="-4.128533">
        <ele>1183.0</ele>
        <time>2014-06-30T16:40:46Z</time>
      </trkpt>
      <trkpt lat="40.902300" lon="-4.128550">
        <ele>1183.0</ele>
        <time>2014-06-30T16:40:47Z</time>
      </trkpt>
      <trkpt lat="40.902367" lon="-4.128550">
        <ele>1182.0</ele>
        <time>2014-06-30T16:40:48Z</time>
      </trkpt>
      <trkpt lat="40.902417" lon="-4.128583">
        <ele>1181.0</ele>
        <time>2014-06-30T16:40:49Z</time>
      </trkpt>
      <trkpt lat="40.902483" lon="-4.128583">
        <ele>1181.0</ele>
        <time>2014-06-30T16:40:50Z</time>
      </trkpt>
      <trkpt lat="40.902533" lon="-4.128600">
        <ele>1180.0</ele>
        <time>2014-06-30T16:40:51Z</time>
      </trkpt>
      <trkpt lat="40.902583" lon="-4.128583">
        <ele>1179.0</ele>
        <time>2014-06-30T16:40:52Z</time>
      </trkpt>
      <trkpt lat="40.902650" lon="-4.128583">
        <ele>1178.0</ele>
        <time>2014-06-30T16:40:53Z</time>
      </trkpt>
      <trkpt lat="40.902717" lon="-4.128600">
        <ele>1178.0</ele>
        <time>2014-06-30T16:40:54Z</time>
      </trkpt>
      <trkpt lat="40.902783" lon="-4.128583">
        <ele>1178.0</ele>
        <time>2014-06-30T16:40:55Z</time>
      </trkpt>
      <trkpt lat="40.902850" lon="-4.128583">
        <ele>1177.0</ele>
        <time>2014-06-30T16:40:56Z</time>
      </trkpt>
      <trkpt lat="40.902900" lon="-4.128583">
        <ele>1177.0</ele>
        <time>2014-06-30T16:40:57Z</time>
      </trkpt>
      <trkpt lat="40.902950" lon="-4.128583">
        <ele>1176.0</ele>
        <time>2014-06-30T16:40:58Z</time>
      </trkpt>
      <trkpt lat="40.902983" lon="-4.128567">
        <ele>1176.0</ele>
        <time>2014-06-30T16:40:59Z</time>
      </trkpt>
      <trkpt lat="40.903017" lon="-4.128583">
        <ele>1175.0</ele>
        <time>2014-06-30T16:41:00Z</time>
      </trkpt>
      <trkpt lat="40.903050" lon="-4.128600">
        <ele>1175.0</ele>
        <time>2014-06-30T16:41:01Z</time>
      </trkpt>
      <trkpt lat="40.903100" lon="-4.128600">
        <ele>1174.0</ele>
        <time>2014-06-30T16:41:02Z</time>
      </trkpt>
      <trkpt lat="40.903150" lon="-4.128617">
        <ele>1174.0</ele>
        <time>2014-06-30T16:41:03Z</time>
      </trkpt>
      <trkpt lat="40.903200" lon="-4.128633">
        <ele>1173.0</ele>
        <time>2014-06-30T16:41:04Z</time>
      </trkpt>
      <trkpt lat="40.903233" lon="-4.128650">
        <ele>1173.0</ele>
        <time>2014-06-30T16:41:05Z</time>
      </trkpt>
      <trkpt lat="40.903283" lon="-4.128650">
        <ele>1172.0</ele>
        <time>2014-06-30T16:41:06Z</time>
      </trkpt>
      <trkpt lat="40.903317" lon="-4.128667">
        <ele>1171.0</ele>
        <time>2014-06-30T16:41:07Z</time>
      </trkpt>
      <trkpt lat="40.903350" lon="-4.128667">
        <ele>1171.0</ele>
        <time>2014-06-30T16:41:08Z</time>
      </trkpt>
      <trkpt lat="40.903383" lon="-4.128700">
        <ele>1170.0</ele>
        <time>2014-06-30T16:41:09Z</time>
      </trkpt>
      <trkpt lat="40.903450" lon="-4.128717">
        <ele>1169.0</ele>
        <time>2014-06-30T16:41:10Z</time>
      </trkpt>
      <trkpt lat="40.903500" lon="-4.128750">
        <ele>1169.0</ele>
        <time>2014-06-30T16:41:11Z</time>
      </trkpt>
      <trkpt lat="40.903533" lon="-4.128767">
        <ele>1168.0</ele>
        <time>2014-06-30T16:41:12Z</time>
      </trkpt>
      <trkpt lat="40.903567" lon="-4.128783">
        <ele>1168.0</ele>
        <time>2014-06-30T16:41:13Z</time>
      </trkpt>
      <trkpt lat="40.903600" lon="-4.128783">
        <ele>1167.0</ele>
        <time>2014-06-30T16:41:14Z</time>
      </trkpt>
      <trkpt lat="40.903633" lon="-4.128783">
        <ele>1166.0</ele>
        <time>2014-06-30T16:41:15Z</time>
      </trkpt>
      <trkpt lat="40.903667" lon="-4.128783">
        <ele>1165.0</ele>
        <time>2014-06-30T16:41:16Z</time>
      </trkpt>
      <trkpt lat="40.903667" lon="-4.128817">
        <ele>1164.0</ele>
        <time>2014-06-30T16:41:17Z</time>
      </trkpt>
      <trkpt lat="40.903667" lon="-4.128867">
        <ele>1163.0</ele>
        <time>2014-06-30T16:41:18Z</time>
      </trkpt>
      <trkpt lat="40.903667" lon="-4.128900">
        <ele>1162.0</ele>
        <time>2014-06-30T16:41:19Z</time>
      </trkpt>
      <trkpt lat="40.903683" lon="-4.128950">
        <ele>1161.0</ele>
        <time>2014-06-30T16:41:20Z</time>
      </trkpt>
      <trkpt lat="40.903683" lon="-4.128983">
        <ele>1160.0</ele>
        <time>2014-06-30T16:41:21Z</time>
      </trkpt>
      <trkpt lat="40.903683" lon="-4.129017">
        <ele>1160.0</ele>
        <time>2014-06-30T16:41:22Z</time>
      </trkpt>
      <trkpt lat="40.903700" lon="-4.129050">
        <ele>1159.0</ele>
        <time>2014-06-30T16:41:23Z</time>
      </trkpt>
      <trkpt lat="40.903700" lon="-4.129083">
        <ele>1159.0</ele>
        <time>2014-06-30T16:41:24Z</time>
      </trkpt>
      <trkpt lat="40.903717" lon="-4.129117">
        <ele>1158.0</ele>
        <time>2014-06-30T16:41:25Z</time>
      </trkpt>
      <trkpt lat="40.903750" lon="-4.129150">
        <ele>1157.0</ele>
        <time>2014-06-30T16:41:26Z</time>
      </trkpt>
      <trkpt lat="40.903767" lon="-4.129200">
        <ele>1156.0</ele>
        <time>2014-06-30T16:41:27Z</time>
      </trkpt>
      <trkpt lat="40.903833" lon="-4.129233">
        <ele>1155.0</ele>
        <time>2014-06-30T16:41:28Z</time>
      </trkpt>
      <trkpt lat="40.903883" lon="-4.129250">
        <ele>1154.0</ele>
        <time>2014-06-30T16:41:29Z</time>
      </trkpt>
      <trkpt lat="40.903950" lon="-4.129233">
        <ele>1153.0</ele>
        <time>2014-06-30T16:41:30Z</time>
      </trkpt>
      <trkpt lat="40.904000" lon="-4.129200">
        <ele>1152.0</ele>
        <time>2014-06-30T16:41:31Z</time>
      </trkpt>
      <trkpt lat="40.904017" lon="-4.129200">
        <ele>1151.0</ele>
        <time>2014-06-30T16:41:32Z</time>
      </trkpt>
      <trkpt lat="40.904050" lon="-4.129233">
        <ele>1150.0</ele>
        <time>2014-06-30T16:41:33Z</time>
      </trkpt>
      <trkpt lat="40.904067" lon="-4.129317">
        <ele>1149.0</ele>
        <time>2014-06-30T16:41:34Z</time>
      </trkpt>
      <trkpt lat="40.904067" lon="-4.129400">
        <ele>1148.0</ele>
        <time>2014-06-30T16:41:35Z</time>
      </trkpt>
      <trkpt lat="40.904033" lon="-4.129450">
        <ele>1148.0</ele>
        <time>2014-06-30T16:41:36Z</time>
      </trkpt>
      <trkpt lat="40.903983" lon="-4.129500">
        <ele>1148.0</ele>
        <time>2014-06-30T16:41:37Z</time>
      </trkpt>
      <trkpt lat="40.903933" lon="-4.129533">
        <ele>1147.0</ele>
        <time>2014-06-30T16:41:38Z</time>
      </trkpt>
      <trkpt lat="40.903867" lon="-4.129567">
        <ele>1146.0</ele>
        <time>2014-06-30T16:41:39Z</time>
      </trkpt>
      <trkpt lat="40.903850" lon="-4.129650">
        <ele>1145.0</ele>
        <time>2014-06-30T16:41:40Z</time>
      </trkpt>
      <trkpt lat="40.903850" lon="-4.129700">
        <ele>1144.0</ele>
        <time>2014-06-30T16:41:41Z</time>
      </trkpt>
      <trkpt lat="40.903883" lon="-4.129733">
        <ele>1142.0</ele>
        <time>2014-06-30T16:41:42Z</time>
      </trkpt>
      <trkpt lat="40.903900" lon="-4.129750">
        <ele>1142.0</ele>
        <time>2014-06-30T16:41:43Z</time>
      </trkpt>
      <trkpt lat="40.903950" lon="-4.129733">
        <ele>1140.0</ele>
        <time>2014-06-30T16:41:44Z</time>
      </trkpt>
      <trkpt lat="40.904000" lon="-4.129683">
        <ele>1138.0</ele>
        <time>2014-06-30T16:41:45Z</time>
      </trkpt>
      <trkpt lat="40.904050" lon="-4.129617">
        <ele>1136.0</ele>
        <time>2014-06-30T16:41:46Z</time>
      </trkpt>
      <trkpt lat="40.904100" lon="-4.129567">
        <ele>1133.0</ele>
        <time>2014-06-30T16:41:47Z</time>
      </trkpt>
      <trkpt lat="40.904133" lon="-4.129550">
        <ele>1130.0</ele>
        <time>2014-06-30T16:41:48Z</time>
      </trkpt>
      <trkpt lat="40.904167" lon="-4.129567">
        <ele>1126.0</ele>
        <time>2014-06-30T16:41:49Z</time>
      </trkpt>
      <trkpt lat="40.904167" lon="-4.129617">
        <ele>1123.0</ele>
        <time>2014-06-30T16:41:50Z</time>
      </trkpt>
      <trkpt lat="40.904183" lon="-4.129683">
        <ele>1120.0</ele>
        <time>2014-06-30T16:41:51Z</time>
      </trkpt>
      <trkpt lat="40.904150" lon="-4.129767">
        <ele>1116.0</ele>
        <time>2014-06-30T16:41:52Z</time>
      </trkpt>
      <trkpt lat="40.904133" lon="-4.129833">
        <ele>1120.0</ele>
        <time>2014-06-30T16:41:53Z</time>
      </trkpt>
      <trkpt lat="40.904133" lon="-4.129900">
        <ele>1120.0</ele>
        <time>2014-06-30T16:41:54Z</time>
      </trkpt>
      <trkpt lat="40.904133" lon="-4.129950">
        <ele>1119.0</ele>
        <time>2014-06-30T16:41:55Z</time>
      </trkpt>
      <trkpt lat="40.904133" lon="-4.130000">
        <ele>1119.0</ele>
        <time>2014-06-30T16:41:56Z</time>
      </trkpt>
      <trkpt lat="40.904083" lon="-4.130033">
        <ele>1118.0</ele>
        <time>2014-06-30T16:41:57Z</time>
      </trkpt>
      <trkpt lat="40.904000" lon="-4.130050">
        <ele>1117.0</ele>
        <time>2014-06-30T16:41:58Z</time>
      </trkpt>
      <trkpt lat="40.903917" lon="-4.130083">
        <ele>1117.0</ele>
        <time>2014-06-30T16:41:59Z</time>
      </trkpt>
      <trkpt lat="40.903850" lon="-4.130117">
        <ele>1116.0</ele>
        <time>2014-06-30T16:42:00Z</time>
      </trkpt>
      <trkpt lat="40.903800" lon="-4.130150">
        <ele>1115.0</ele>
        <time>2014-06-30T16:42:01Z</time>
      </trkpt>
      <trkpt lat="40.903800" lon="-4.130200">
        <ele>1115.0</ele>
        <time>2014-06-30T16:42:02Z</time>
      </trkpt>
      <trkpt lat="40.903800" lon="-4.130217">
        <ele>1114.0</ele>
        <time>2014-06-30T16:42:03Z</time>
      </trkpt>
      <trkpt lat="40.903850" lon="-4.130233">
        <ele>1112.0</ele>
        <time>2014-06-30T16:42:04Z</time>
      </trkpt>
      <trkpt lat="40.903900" lon="-4.130250">
        <ele>1111.0</ele>
        <time>2014-06-30T16:42:05Z</time>
      </trkpt>
      <trkpt lat="40.903933" lon="-4.130233">
        <ele>1109.0</ele>
        <time>2014-06-30T16:42:06Z</time>
      </trkpt>
      <trkpt lat="40.903983" lon="-4.130200">
        <ele>1108.0</ele>
        <time>2014-06-30T16:42:07Z</time>
      </trkpt>
      <trkpt lat="40.904050" lon="-4.130133">
        <ele>1107.0</ele>
        <time>2014-06-30T16:42:08Z</time>
      </trkpt>
      <trkpt lat="40.904117" lon="-4.130050">
        <ele>1106.0</ele>
        <time>2014-06-30T16:42:09Z</time>
      </trkpt>
      <trkpt lat="40.904183" lon="-4.129983">
        <ele>1106.0</ele>
        <time>2014-06-30T16:42:10Z</time>
      </trkpt>
      <trkpt lat="40.904250" lon="-4.129917">
        <ele>1105.0</ele>
        <time>2014-06-30T16:42:11Z</time>
      </trkpt>
      <trkpt lat="40.904283" lon="-4.129883">
        <ele>1104.0</ele>
        <time>2014-06-30T16:42:12Z</time>
      </trkpt>
      <trkpt lat="40.904317" lon="-4.129917">
        <ele>1103.0</ele>
        <time>2014-06-30T16:42:13Z</time>
      </trkpt>
      <trkpt lat="40.904367" lon="-4.129967">
        <ele>1103.0</ele>
        <time>2014-06-30T16:42:14Z</time>
      </trkpt>
      <trkpt lat="40.904400" lon="-4.130050">
        <ele>1102.0</ele>
        <time>2014-06-30T16:42:15Z</time>
      </trkpt>
      <trkpt lat="40.904383" lon="-4.130117">
        <ele>1101.0</ele>
        <time>2014-06-30T16:42:16Z</time>
      </trkpt>
      <trkpt lat="40.904350" lon="-4.130167">
        <ele>1100.0</ele>
        <time>2014-06-30T16:42:17Z</time>
      </trkpt>
      <trkpt lat="40.904267" lon="-4.130200">
        <ele>1099.0</ele>
        <time>2014-06-30T16:42:18Z</time>
      </trkpt>
      <trkpt lat="40.904183" lon="-4.130217">
        <ele>1099.0</ele>
        <time>2014-06-30T16:42:19Z</time>
      </trkpt>
      <trkpt lat="40.904133" lon="-4.130233">
        <ele>1099.0</ele>
        <time>2014-06-30T16:42:20Z</time>
      </trkpt>
      <trkpt lat="40.904083" lon="-4.130250">
        <ele>1099.0</ele>
        <time>2014-06-30T16:42:21Z</time>
      </trkpt>
      <trkpt lat="40.904033" lon="-4.130267">
        <ele>1099.0</ele>
        <time>2014-06-30T16:42:22Z</time>
      </trkpt>
      <trkpt lat="40.904000" lon="-4.130300">
        <ele>1099.0</ele>
        <time>2014-06-30T16:42:23Z</time>
      </trkpt>
      <trkpt lat="40.903950" lon="-4.130367">
        <ele>1098.0</ele>
        <time>2014-06-30T16:42:24Z</time>
      </trkpt>
      <trkpt lat="40.903933" lon="-4.130417">
        <ele>1098.0</ele>
        <time>2014-06-30T16:42:25Z</time>
      </trkpt>
      <trkpt lat="40.903933" lon="-4.130467">
        <ele>1098.0</ele>
        <time>2014-06-30T16:42:26Z</time>
      </trkpt>
      <trkpt lat="40.903950" lon="-4.130483">
        <ele>1098.0</ele>
        <time>2014-06-30T16:42:27Z</time>
      </trkpt>
      <trkpt lat="40.903983" lon="-4.130500">
        <ele>1096.0</ele>
        <time>2014-06-30T16:42:28Z</time>
      </trkpt>
      <trkpt lat="40.904033" lon="-4.130517">
        <ele>1094.0</ele>
        <time>2014-06-30T16:42:29Z</time>
      </trkpt>
      <trkpt lat="40.904100" lon="-4.130517">
        <ele>1093.0</ele>
        <time>2014-06-30T16:42:30Z</time>
      </trkpt>
      <trkpt lat="40.904183" lon="-4.130517">
        <ele>1092.0</ele>
        <time>2014-06-30T16:42:31Z</time>
      </trkpt>
      <trkpt lat="40.904250" lon="-4.130500">
        <ele>1091.0</ele>
        <time>2014-06-30T16:42:32Z</time>
      </trkpt>
      <trkpt lat="40.904333" lon="-4.130483">
        <ele>1092.0</ele>
        <time>2014-06-30T16:42:33Z</time>
      </trkpt>
      <trkpt lat="40.904417" lon="-4.130467">
        <ele>1092.0</ele>
        <time>2014-06-30T16:42:34Z</time>
      </trkpt>
      <trkpt lat="40.904500" lon="-4.130467">
        <ele>1092.0</ele>
        <time>2014-06-30T16:42:35Z</time>
      </trkpt>
      <trkpt lat="40.904567" lon="-4.130450">
        <ele>1092.0</ele>
        <time>2014-06-30T16:42:36Z</time>
      </trkpt>
      <trkpt lat="40.904650" lon="-4.130400">
        <ele>1092.0</ele>
        <time>2014-06-30T16:42:37Z</time>
      </trkpt>
      <trkpt lat="40.904700" lon="-4.130350">
        <ele>1092.0</ele>
        <time>2014-06-30T16:42:38Z</time>
      </trkpt>
      <trkpt lat="40.904750" lon="-4.130283">
        <ele>1092.0</ele>
        <time>2014-06-30T16:42:39Z</time>
      </trkpt>
      <trkpt lat="40.904817" lon="-4.130233">
        <ele>1092.0</ele>
        <time>2014-06-30T16:42:40Z</time>
      </trkpt>
      <trkpt lat="40.904867" lon="-4.130183">
        <ele>1092.0</ele>
        <time>2014-06-30T16:42:41Z</time>
      </trkpt>
      <trkpt lat="40.904933" lon="-4.130133">
        <ele>1092.0</ele>
        <time>2014-06-30T16:42:42Z</time>
      </trkpt>
      <trkpt lat="40.904967" lon="-4.130117">
        <ele>1092.0</ele>
        <time>2014-06-30T16:42:43Z</time>
      </trkpt>
      <trkpt lat="40.904967" lon="-4.130117">
        <ele>1092.0</ele>
        <time>2014-06-30T16:42:44Z</time>
      </trkpt>
      <trkpt lat="40.904983" lon="-4.130100">
        <ele>1092.0</ele>
        <time>2014-06-30T16:42:45Z</time>
      </trkpt>
      <trkpt lat="40.904967" lon="-4.130100">
        <ele>1092.0</ele>
        <time>2014-06-30T16:42:46Z</time>
      </trkpt>
      <trkpt lat="40.904983" lon="-4.130117">
        <ele>1091.0</ele>
        <time>2014-06-30T16:42:47Z</time>
      </trkpt>
      <trkpt lat="40.904950" lon="-4.130150">
        <ele>1091.0</ele>
        <time>2014-06-30T16:42:48Z</time>
      </trkpt>
      <trkpt lat="40.904900" lon="-4.130183">
        <ele>1091.0</ele>
        <time>2014-06-30T16:42:49Z</time>
      </trkpt>
      <trkpt lat="40.904833" lon="-4.130217">
        <ele>1090.0</ele>
        <time>2014-06-30T16:42:50Z</time>
      </trkpt>
      <trkpt lat="40.904767" lon="-4.130233">
        <ele>1090.0</ele>
        <time>2014-06-30T16:42:51Z</time>
      </trkpt>
      <trkpt lat="40.904700" lon="-4.130233">
        <ele>1090.0</ele>
        <time>2014-06-30T16:42:52Z</time>
      </trkpt>
      <trkpt lat="40.904633" lon="-4.130250">
        <ele>1090.0</ele>
        <time>2014-06-30T16:42:53Z</time>
      </trkpt>
      <trkpt lat="40.904567" lon="-4.130283">
        <ele>1090.0</ele>
        <time>2014-06-30T16:42:54Z</time>
      </trkpt>
      <trkpt lat="40.904500" lon="-4.130333">
        <ele>1089.0</ele>
        <time>2014-06-30T16:42:55Z</time>
      </trkpt>
      <trkpt lat="40.904467" lon="-4.130383">
        <ele>1089.0</ele>
        <time>2014-06-30T16:42:56Z</time>
      </trkpt>
      <trkpt lat="40.904467" lon="-4.130450">
        <ele>1088.0</ele>
        <time>2014-06-30T16:42:57Z</time>
      </trkpt>
      <trkpt lat="40.904483" lon="-4.130500">
        <ele>1088.0</ele>
        <time>2014-06-30T16:42:58Z</time>
      </trkpt>
      <trkpt lat="40.904500" lon="-4.130517">
        <ele>1088.0</ele>
        <time>2014-06-30T16:42:59Z</time>
      </trkpt>
      <trkpt lat="40.904533" lon="-4.130500">
        <ele>1088.0</ele>
        <time>2014-06-30T16:43:00Z</time>
      </trkpt>
      <trkpt lat="40.904567" lon="-4.130483">
        <ele>1087.0</ele>
        <time>2014-06-30T16:43:01Z</time>
      </trkpt>
      <trkpt lat="40.904617" lon="-4.130467">
        <ele>1086.0</ele>
        <time>2014-06-30T16:43:02Z</time>
      </trkpt>
      <trkpt lat="40.904683" lon="-4.130467">
        <ele>1086.0</ele>
        <time>2014-06-30T16:43:03Z</time>
      </trkpt>
      <trkpt lat="40.904750" lon="-4.130483">
        <ele>1086.0</ele>
        <time>2014-06-30T16:43:04Z</time>
      </trkpt>
      <trkpt lat="40.904817" lon="-4.130483">
        <ele>1086.0</ele>
        <time>2014-06-30T16:43:05Z</time>
      </trkpt>
      <trkpt lat="40.904900" lon="-4.130483">
        <ele>1086.0</ele>
        <time>2014-06-30T16:43:06Z</time>
      </trkpt>
      <trkpt lat="40.904917" lon="-4.130467">
        <ele>1086.0</ele>
        <time>2014-06-30T16:43:07Z</time>
      </trkpt>
      <trkpt lat="40.904933" lon="-4.130450">
        <ele>1085.0</ele>
        <time>2014-06-30T16:43:08Z</time>
      </trkpt>
      <trkpt lat="40.904933" lon="-4.130450">
        <ele>1085.0</ele>
        <time>2014-06-30T16:43:09Z</time>
      </trkpt>
      <trkpt lat="40.904950" lon="-4.130433">
        <ele>1085.0</ele>
        <time>2014-06-30T16:43:10Z</time>
      </trkpt>
      <trkpt lat="40.904967" lon="-4.130417">
        <ele>1085.0</ele>
        <time>2014-06-30T16:43:11Z</time>
      </trkpt>
      <trkpt lat="40.905000" lon="-4.130400">
        <ele>1084.0</ele>
        <time>2014-06-30T16:43:12Z</time>
      </trkpt>
      <trkpt lat="40.905017" lon="-4.130383">
        <ele>1084.0</ele>
        <time>2014-06-30T16:43:13Z</time>
      </trkpt>
      <trkpt lat="40.905017" lon="-4.130383">
        <ele>1083.0</ele>
        <time>2014-06-30T16:43:14Z</time>
      </trkpt>
      <trkpt lat="40.905033" lon="-4.130400">
        <ele>1083.0</ele>
        <time>2014-06-30T16:43:15Z</time>
      </trkpt>
      <trkpt lat="40.905033" lon="-4.130417">
        <ele>1083.0</ele>
        <time>2014-06-30T16:43:16Z</time>
      </trkpt>
      <trkpt lat="40.905017" lon="-4.130450">
        <ele>1082.0</ele>
        <time>2014-06-30T16:43:17Z</time>
      </trkpt>
      <trkpt lat="40.905000" lon="-4.130483">
        <ele>1082.0</ele>
        <time>2014-06-30T16:43:18Z</time>
      </trkpt>
      <trkpt lat="40.904967" lon="-4.130517">
        <ele>1082.0</ele>
        <time>2014-06-30T16:43:19Z</time>
      </trkpt>
      <trkpt lat="40.904967" lon="-4.130550">
        <ele>1081.0</ele>
        <time>2014-06-30T16:43:20Z</time>
      </trkpt>
      <trkpt lat="40.904950" lon="-4.130583">
        <ele>1081.0</ele>
        <time>2014-06-30T16:43:21Z</time>
      </trkpt>
      <trkpt lat="40.904917" lon="-4.130650">
        <ele>1080.0</ele>
        <time>2014-06-30T16:43:22Z</time>
      </trkpt>
      <trkpt lat="40.904900" lon="-4.130683">
        <ele>1080.0</ele>
        <time>2014-06-30T16:43:23Z</time>
      </trkpt>
      <trkpt lat="40.904850" lon="-4.130717">
        <ele>1080.0</ele>
        <time>2014-06-30T16:43:24Z</time>
      </trkpt>
      <trkpt lat="40.904800" lon="-4.130750">
        <ele>1079.0</ele>
        <time>2014-06-30T16:43:25Z</time>
      </trkpt>
      <trkpt lat="40.904750" lon="-4.130783">
        <ele>1079.0</ele>
        <time>2014-06-30T16:43:26Z</time>
      </trkpt>
      <trkpt lat="40.904700" lon="-4.130833">
        <ele>1079.0</ele>
        <time>2014-06-30T16:43:27Z</time>
      </trkpt>
      <trkpt lat="40.904650" lon="-4.130867">
        <ele>1079.0</ele>
        <time>2014-06-30T16:43:28Z</time>
      </trkpt>
      <trkpt lat="40.904583" lon="-4.130917">
        <ele>1079.0</ele>
        <time>2014-06-30T16:43:29Z</time>
      </trkpt>
      <trkpt lat="40.904550" lon="-4.130967">
        <ele>1078.0</ele>
        <time>2014-06-30T16:43:30Z</time>
      </trkpt>
      <trkpt lat="40.904533" lon="-4.131033">
        <ele>1077.0</ele>
        <time>2014-06-30T16:43:31Z</time>
      </trkpt>
      <trkpt lat="40.904517" lon="-4.131083">
        <ele>1076.0</ele>
        <time>2014-06-30T16:43:32Z</time>
      </trkpt>
      <trkpt lat="40.904500" lon="-4.131133">
        <ele>1075.0</ele>
        <time>2014-06-30T16:43:33Z</time>
      </trkpt>
      <trkpt lat="40.904467" lon="-4.131183">
        <ele>1074.0</ele>
        <time>2014-06-30T16:43:34Z</time>
      </trkpt>
      <trkpt lat="40.904450" lon="-4.131233">
        <ele>1074.0</ele>
        <time>2014-06-30T16:43:35Z</time>
      </trkpt>
      <trkpt lat="40.904433" lon="-4.131300">
        <ele>1074.0</ele>
        <time>2014-06-30T16:43:36Z</time>
      </trkpt>
      <trkpt lat="40.904433" lon="-4.131350">
        <ele>1073.0</ele>
        <time>2014-06-30T16:43:37Z</time>
      </trkpt>
      <trkpt lat="40.904433" lon="-4.131383">
        <ele>1072.0</ele>
        <time>2014-06-30T16:43:38Z</time>
      </trkpt>
      <trkpt lat="40.904450" lon="-4.131400">
        <ele>1071.0</ele>
        <time>2014-06-30T16:43:39Z</time>
      </trkpt>
      <trkpt lat="40.904467" lon="-4.131383">
        <ele>1069.0</ele>
        <time>2014-06-30T16:43:40Z</time>
      </trkpt>
      <trkpt lat="40.904483" lon="-4.131383">
        <ele>1068.0</ele>
        <time>2014-06-30T16:43:41Z</time>
      </trkpt>
      <trkpt lat="40.904517" lon="-4.131367">
        <ele>1067.0</ele>
        <time>2014-06-30T16:43:42Z</time>
      </trkpt>
      <trkpt lat="40.904517" lon="-4.131367">
        <ele>1066.0</ele>
        <time>2014-06-30T16:43:43Z</time>
      </trkpt>
      <trkpt lat="40.904533" lon="-4.131400">
        <ele>1064.0</ele>
        <time>2014-06-30T16:43:44Z</time>
      </trkpt>
      <trkpt lat="40.904550" lon="-4.131417">
        <ele>1064.0</ele>
        <time>2014-06-30T16:43:45Z</time>
      </trkpt>
      <trkpt lat="40.904567" lon="-4.131433">
        <ele>1063.0</ele>
        <time>2014-06-30T16:43:46Z</time>
      </trkpt>
      <trkpt lat="40.904583" lon="-4.131450">
        <ele>1063.0</ele>
        <time>2014-06-30T16:43:47Z</time>
      </trkpt>
      <trkpt lat="40.904600" lon="-4.131467">
        <ele>1062.0</ele>
        <time>2014-06-30T16:43:48Z</time>
      </trkpt>
      <trkpt lat="40.904600" lon="-4.131450">
        <ele>1062.0</ele>
        <time>2014-06-30T16:43:49Z</time>
      </trkpt>
      <trkpt lat="40.904617" lon="-4.131417">
        <ele>1061.0</ele>
        <time>2014-06-30T16:43:50Z</time>
      </trkpt>
      <trkpt lat="40.904633" lon="-4.131400">
        <ele>1061.0</ele>
        <time>2014-06-30T16:43:51Z</time>
      </trkpt>
      <trkpt lat="40.904650" lon="-4.131383">
        <ele>1060.0</ele>
        <time>2014-06-30T16:43:52Z</time>
      </trkpt>
      <trkpt lat="40.904650" lon="-4.131400">
        <ele>1060.0</ele>
        <time>2014-06-30T16:43:53Z</time>
      </trkpt>
      <trkpt lat="40.904650" lon="-4.131400">
        <ele>1059.0</ele>
        <time>2014-06-30T16:43:54Z</time>
      </trkpt>
      <trkpt lat="40.904650" lon="-4.131400">
        <ele>1059.0</ele>
        <time>2014-06-30T16:43:55Z</time>
      </trkpt>
      <trkpt lat="40.904650" lon="-4.131400">
        <ele>1059.0</ele>
        <time>2014-06-30T16:43:56Z</time>
      </trkpt>
      <trkpt lat="40.904650" lon="-4.131400">
        <ele>1059.0</ele>
        <time>2014-06-30T16:43:57Z</time>
      </trkpt>
      <trkpt lat="40.904650" lon="-4.131400">
        <ele>1059.0</ele>
        <time>2014-06-30T16:43:58Z</time>
      </trkpt>
      <trkpt lat="40.904650" lon="-4.131400">
        <ele>1059.0</ele>
        <time>2014-06-30T16:43:59Z</time>
      </trkpt>
      <trkpt lat="40.904650" lon="-4.131400">
        <ele>1058.0</ele>
        <time>2014-06-30T16:44:00Z</time>
      </trkpt>
      <trkpt lat="40.904650" lon="-4.131400">
        <ele>1058.0</ele>
        <time>2014-06-30T16:44:01Z</time>
      </trkpt>
      <trkpt lat="40.904633" lon="-4.131417">
        <ele>1058.0</ele>
        <time>2014-06-30T16:44:02Z</time>
      </trkpt>
      <trkpt lat="40.904650" lon="-4.131417">
        <ele>1058.0</ele>
        <time>2014-06-30T16:44:03Z</time>
      </trkpt>
      <trkpt lat="40.904667" lon="-4.131400">
        <ele>1058.0</ele>
        <time>2014-06-30T16:44:04Z</time>
      </trkpt>
      <trkpt lat="40.904667" lon="-4.131400">
        <ele>1057.0</ele>
        <time>2014-06-30T16:44:05Z</time>
      </trkpt>
      <trkpt lat="40.904683" lon="-4.131400">
        <ele>1057.0</ele>
        <time>2014-06-30T16:44:06Z</time>
      </trkpt>
      <trkpt lat="40.904683" lon="-4.131400">
        <ele>1057.0</ele>
        <time>2014-06-30T16:44:07Z</time>
      </trkpt>
      <trkpt lat="40.904683" lon="-4.131400">
        <ele>1057.0</ele>
        <time>2014-06-30T16:44:08Z</time>
      </trkpt>
      <trkpt lat="40.904683" lon="-4.131400">
        <ele>1057.0</ele>
        <time>2014-06-30T16:44:09Z</time>
      </trkpt>
      <trkpt lat="40.904683" lon="-4.131367">
        <ele>1056.0</ele>
        <time>2014-06-30T16:44:10Z</time>
      </trkpt>
      <trkpt lat="40.904683" lon="-4.131383">
        <ele>1056.0</ele>
        <time>2014-06-30T16:44:11Z</time>
      </trkpt>
      <trkpt lat="40.904683" lon="-4.131367">
        <ele>1056.0</ele>
        <time>2014-06-30T16:44:12Z</time>
      </trkpt>
      <trkpt lat="40.904683" lon="-4.131367">
        <ele>1056.0</ele>
        <time>2014-06-30T16:44:13Z</time>
      </trkpt>
      <trkpt lat="40.904683" lon="-4.131367">
        <ele>1056.0</ele>
        <time>2014-06-30T16:44:14Z</time>
      </trkpt>
      <trkpt lat="40.904683" lon="-4.131350">
        <ele>1056.0</ele>
        <time>2014-06-30T16:44:15Z</time>
      </trkpt>
      <trkpt lat="40.904667" lon="-4.131350">
        <ele>1055.0</ele>
        <time>2014-06-30T16:44:16Z</time>
      </trkpt>
      <trkpt lat="40.904667" lon="-4.131367">
        <ele>1055.0</ele>
        <time>2014-06-30T16:44:17Z</time>
      </trkpt>
      <trkpt lat="40.904667" lon="-4.131350">
        <ele>1055.0</ele>
        <time>2014-06-30T16:44:18Z</time>
      </trkpt>
      <trkpt lat="40.904667" lon="-4.131350">
        <ele>1055.0</ele>
        <time>2014-06-30T16:44:19Z</time>
      </trkpt>
      <trkpt lat="40.904650" lon="-4.131333">
        <ele>1055.0</ele>
        <time>2014-06-30T16:44:20Z</time>
      </trkpt>
      <trkpt lat="40.904650" lon="-4.131333">
        <ele>1055.0</ele>
        <time>2014-06-30T16:44:21Z</time>
      </trkpt>
      <trkpt lat="40.904650" lon="-4.131317">
        <ele>1055.0</ele>
        <time>2014-06-30T16:44:22Z</time>
      </trkpt>
      <trkpt lat="40.904650" lon="-4.131317">
        <ele>1055.0</ele>
        <time>2014-06-30T16:44:23Z</time>
      </trkpt>
      <trkpt lat="40.904650" lon="-4.131333">
        <ele>1055.0</ele>
        <time>2014-06-30T16:44:24Z</time>
      </trkpt>
      <trkpt lat="40.904650" lon="-4.131317">
        <ele>1055.0</ele>
        <time>2014-06-30T16:44:25Z</time>
      </trkpt>
      <trkpt lat="40.904633" lon="-4.131317">
        <ele>1054.0</ele>
        <time>2014-06-30T16:44:26Z</time>
      </trkpt>
      <trkpt lat="40.904633" lon="-4.131317">
        <ele>1054.0</ele>
        <time>2014-06-30T16:44:27Z</time>
      </trkpt>
      <trkpt lat="40.904633" lon="-4.131317">
        <ele>1054.0</ele>
        <time>2014-06-30T16:44:28Z</time>
      </trkpt>
      <trkpt lat="40.904633" lon="-4.131317">
        <ele>1054.0</ele>
        <time>2014-06-30T16:44:29Z</time>
      </trkpt>
      <trkpt lat="40.904650" lon="-4.131333">
        <ele>1054.0</ele>
        <time>2014-06-30T16:44:30Z</time>
      </trkpt>
      <trkpt lat="40.904650" lon="-4.131333">
        <ele>1054.0</ele>
        <time>2014-06-30T16:44:31Z</time>
      </trkpt>
      <trkpt lat="40.904667" lon="-4.131333">
        <ele>1054.0</ele>
        <time>2014-06-30T16:44:32Z</time>
      </trkpt>
      <trkpt lat="40.904667" lon="-4.131350">
        <ele>1054.0</ele>
        <time>2014-06-30T16:44:33Z</time>
      </trkpt>
      <trkpt lat="40.904667" lon="-4.131350">
        <ele>1054.0</ele>
        <time>2014-06-30T16:44:34Z</time>
      </trkpt>
      <trkpt lat="40.904667" lon="-4.131350">
        <ele>1053.0</ele>
        <time>2014-06-30T16:44:35Z</time>
      </trkpt>
      <trkpt lat="40.904683" lon="-4.131367">
        <ele>1053.0</ele>
        <time>2014-06-30T16:44:36Z</time>
      </trkpt>
    </trkseg>
  </trk>
</gpx>
